<?xml version="1.0" encoding="UTF-8" standalone="no" ?>
<gpx xmlns="http://www.topografix.com/GPX/1/1" xmlns:xsi="http://www.w3.org/2001/XMLSchema-instance" xsi:schemaLocation="http://www.topografix.com/GPX/1/1 http://www.topografix.com/GPX/1/1/gpx.xsd" version="1.1" creator="VisuGPX - https://www.visugpx.com">
  <metadata>
    <name>Saint-Girons, Singles de Lédar, Sourroque, dessus du Canal</name>
    <desc><![CDATA[Une très belle trace. Ce parcours a quelques passages assez techniques. ]]></desc>
  </metadata>
  <trk>
    <name><![CDATA[Saint-Girons, Singles de Lédar, Sourroque, dessus du Canal_1]]></name>
    <trkseg>
      <trkpt lat="42.98735" lon="1.13902">
        <ele>399.4</ele>
        <time>2024-10-06T07:13:43Z</time>
      </trkpt>
      <trkpt lat="42.98746" lon="1.13897">
        <ele>399.4</ele>
        <time>2024-10-06T07:13:46Z</time>
      </trkpt>
      <trkpt lat="42.98749" lon="1.13895">
        <ele>399.2</ele>
        <time>2024-10-06T07:13:47Z</time>
      </trkpt>
      <trkpt lat="42.98752" lon="1.13893">
        <ele>399.2</ele>
        <time>2024-10-06T07:13:48Z</time>
      </trkpt>
      <trkpt lat="42.98768" lon="1.13887">
        <ele>399.2</ele>
        <time>2024-10-06T07:13:53Z</time>
      </trkpt>
      <trkpt lat="42.98771" lon="1.13887">
        <ele>399.2</ele>
        <time>2024-10-06T07:13:54Z</time>
      </trkpt>
      <trkpt lat="42.98774" lon="1.13886">
        <ele>399.2</ele>
        <time>2024-10-06T07:13:55Z</time>
      </trkpt>
      <trkpt lat="42.98793" lon="1.13882">
        <ele>399.2</ele>
        <time>2024-10-06T07:14:01Z</time>
      </trkpt>
      <trkpt lat="42.98796" lon="1.13884">
        <ele>399.2</ele>
        <time>2024-10-06T07:14:02Z</time>
      </trkpt>
      <trkpt lat="42.98799" lon="1.13892">
        <ele>399.2</ele>
        <time>2024-10-06T07:14:04Z</time>
      </trkpt>
      <trkpt lat="42.98802" lon="1.13907">
        <ele>399.2</ele>
        <time>2024-10-06T07:14:07Z</time>
      </trkpt>
      <trkpt lat="42.98804" lon="1.13915">
        <ele>399.2</ele>
        <time>2024-10-06T07:14:09Z</time>
      </trkpt>
      <trkpt lat="42.98806" lon="1.13923">
        <ele>399.2</ele>
        <time>2024-10-06T07:14:11Z</time>
      </trkpt>
      <trkpt lat="42.98812" lon="1.13925">
        <ele>399.2</ele>
        <time>2024-10-06T07:14:13Z</time>
      </trkpt>
      <trkpt lat="42.98824" lon="1.13922">
        <ele>399.2</ele>
        <time>2024-10-06T07:14:17Z</time>
      </trkpt>
      <trkpt lat="42.98835" lon="1.1392">
        <ele>399.2</ele>
        <time>2024-10-06T07:14:20Z</time>
      </trkpt>
      <trkpt lat="42.98848" lon="1.13916">
        <ele>399.2</ele>
        <time>2024-10-06T07:14:24Z</time>
      </trkpt>
      <trkpt lat="42.98851" lon="1.13905">
        <ele>399.2</ele>
        <time>2024-10-06T07:14:27Z</time>
      </trkpt>
      <trkpt lat="42.98847" lon="1.13888">
        <ele>399.2</ele>
        <time>2024-10-06T07:14:32Z</time>
      </trkpt>
      <trkpt lat="42.98845" lon="1.13875">
        <ele>399.2</ele>
        <time>2024-10-06T07:14:35Z</time>
      </trkpt>
      <trkpt lat="42.98846" lon="1.13863">
        <ele>399.2</ele>
        <time>2024-10-06T07:14:38Z</time>
      </trkpt>
      <trkpt lat="42.98846" lon="1.13848">
        <ele>399.2</ele>
        <time>2024-10-06T07:14:43Z</time>
      </trkpt>
      <trkpt lat="42.98849" lon="1.13845">
        <ele>399.2</ele>
        <time>2024-10-06T07:14:44Z</time>
      </trkpt>
      <trkpt lat="42.98852" lon="1.13844">
        <ele>399.2</ele>
        <time>2024-10-06T07:14:46Z</time>
      </trkpt>
      <trkpt lat="42.98868" lon="1.13837">
        <ele>399.2</ele>
        <time>2024-10-06T07:14:52Z</time>
      </trkpt>
      <trkpt lat="42.98894" lon="1.13828">
        <ele>399.2</ele>
        <time>2024-10-06T07:15:00Z</time>
      </trkpt>
      <trkpt lat="42.98912" lon="1.13823">
        <ele>399.2</ele>
        <time>2024-10-06T07:15:06Z</time>
      </trkpt>
      <trkpt lat="42.9893" lon="1.13818">
        <ele>399.2</ele>
        <time>2024-10-06T07:15:12Z</time>
      </trkpt>
      <trkpt lat="42.98943" lon="1.13816">
        <ele>399.2</ele>
        <time>2024-10-06T07:15:17Z</time>
      </trkpt>
      <trkpt lat="42.98943" lon="1.13816">
        <ele>399.2</ele>
        <time>2024-10-06T07:15:18Z</time>
      </trkpt>
      <trkpt lat="42.98945" lon="1.13815">
        <ele>399.2</ele>
        <time>2024-10-06T07:15:28Z</time>
      </trkpt>
      <trkpt lat="42.98949" lon="1.13813">
        <ele>399.2</ele>
        <time>2024-10-06T07:15:30Z</time>
      </trkpt>
      <trkpt lat="42.98966" lon="1.13811">
        <ele>399.2</ele>
        <time>2024-10-06T07:15:35Z</time>
      </trkpt>
      <trkpt lat="42.98981" lon="1.13805">
        <ele>399.2</ele>
        <time>2024-10-06T07:15:40Z</time>
      </trkpt>
      <trkpt lat="42.99002" lon="1.138">
        <ele>399.2</ele>
        <time>2024-10-06T07:15:46Z</time>
      </trkpt>
      <trkpt lat="42.99008" lon="1.13798">
        <ele>399.2</ele>
        <time>2024-10-06T07:15:48Z</time>
      </trkpt>
      <trkpt lat="42.99017" lon="1.13796">
        <ele>399.2</ele>
        <time>2024-10-06T07:15:51Z</time>
      </trkpt>
      <trkpt lat="42.99038" lon="1.13792">
        <ele>399.2</ele>
        <time>2024-10-06T07:15:57Z</time>
      </trkpt>
      <trkpt lat="42.99055" lon="1.13791">
        <ele>399.2</ele>
        <time>2024-10-06T07:16:02Z</time>
      </trkpt>
      <trkpt lat="42.99077" lon="1.13786">
        <ele>399.2</ele>
        <time>2024-10-06T07:16:08Z</time>
      </trkpt>
      <trkpt lat="42.99094" lon="1.13783">
        <ele>399.2</ele>
        <time>2024-10-06T07:16:13Z</time>
      </trkpt>
      <trkpt lat="42.99118" lon="1.13783">
        <ele>399.2</ele>
        <time>2024-10-06T07:16:20Z</time>
      </trkpt>
      <trkpt lat="42.99134" lon="1.13781">
        <ele>399.2</ele>
        <time>2024-10-06T07:16:24Z</time>
      </trkpt>
      <trkpt lat="42.99138" lon="1.13779">
        <ele>399.2</ele>
        <time>2024-10-06T07:16:25Z</time>
      </trkpt>
      <trkpt lat="42.99143" lon="1.13777">
        <ele>399.2</ele>
        <time>2024-10-06T07:16:26Z</time>
      </trkpt>
      <trkpt lat="42.99151" lon="1.13773">
        <ele>399.2</ele>
        <time>2024-10-06T07:16:28Z</time>
      </trkpt>
      <trkpt lat="42.9916" lon="1.13768">
        <ele>399.2</ele>
        <time>2024-10-06T07:16:30Z</time>
      </trkpt>
      <trkpt lat="42.99168" lon="1.13763">
        <ele>399.2</ele>
        <time>2024-10-06T07:16:32Z</time>
      </trkpt>
      <trkpt lat="42.99177" lon="1.1375">
        <ele>399.2</ele>
        <time>2024-10-06T07:16:35Z</time>
      </trkpt>
      <trkpt lat="42.99181" lon="1.13747">
        <ele>399.2</ele>
        <time>2024-10-06T07:16:36Z</time>
      </trkpt>
      <trkpt lat="42.99189" lon="1.13743">
        <ele>399.2</ele>
        <time>2024-10-06T07:16:38Z</time>
      </trkpt>
      <trkpt lat="42.99209" lon="1.13736">
        <ele>399.2</ele>
        <time>2024-10-06T07:16:42Z</time>
      </trkpt>
      <trkpt lat="42.9922" lon="1.13732">
        <ele>399.2</ele>
        <time>2024-10-06T07:16:44Z</time>
      </trkpt>
      <trkpt lat="42.99241" lon="1.13724">
        <ele>399.2</ele>
        <time>2024-10-06T07:16:48Z</time>
      </trkpt>
      <trkpt lat="42.99285" lon="1.13708">
        <ele>399.2</ele>
        <time>2024-10-06T07:16:56Z</time>
      </trkpt>
      <trkpt lat="42.99315" lon="1.13696">
        <ele>399.2</ele>
        <time>2024-10-06T07:17:02Z</time>
      </trkpt>
      <trkpt lat="42.99341" lon="1.13687">
        <ele>399.2</ele>
        <time>2024-10-06T07:17:07Z</time>
      </trkpt>
      <trkpt lat="42.99346" lon="1.13685">
        <ele>399.2</ele>
        <time>2024-10-06T07:17:08Z</time>
      </trkpt>
      <trkpt lat="42.99358" lon="1.13682">
        <ele>399.2</ele>
        <time>2024-10-06T07:17:11Z</time>
      </trkpt>
      <trkpt lat="42.99371" lon="1.13676">
        <ele>399.2</ele>
        <time>2024-10-06T07:17:14Z</time>
      </trkpt>
      <trkpt lat="42.99395" lon="1.13668">
        <ele>399.2</ele>
        <time>2024-10-06T07:17:21Z</time>
      </trkpt>
      <trkpt lat="42.99397" lon="1.13667">
        <ele>399.2</ele>
        <time>2024-10-06T07:18:53Z</time>
      </trkpt>
      <trkpt lat="42.99402" lon="1.13664">
        <ele>399.2</ele>
        <time>2024-10-06T07:18:55Z</time>
      </trkpt>
      <trkpt lat="42.99405" lon="1.13662">
        <ele>399.2</ele>
        <time>2024-10-06T07:18:58Z</time>
      </trkpt>
      <trkpt lat="42.99407" lon="1.13662">
        <ele>399.2</ele>
        <time>2024-10-06T07:19:06Z</time>
      </trkpt>
      <trkpt lat="42.99411" lon="1.1366">
        <ele>399.2</ele>
        <time>2024-10-06T07:19:08Z</time>
      </trkpt>
      <trkpt lat="42.99415" lon="1.13659">
        <ele>399.2</ele>
        <time>2024-10-06T07:19:10Z</time>
      </trkpt>
      <trkpt lat="42.99435" lon="1.13651">
        <ele>399.2</ele>
        <time>2024-10-06T07:19:17Z</time>
      </trkpt>
      <trkpt lat="42.99457" lon="1.13643">
        <ele>399.2</ele>
        <time>2024-10-06T07:19:22Z</time>
      </trkpt>
      <trkpt lat="42.99471" lon="1.13639">
        <ele>399.2</ele>
        <time>2024-10-06T07:19:25Z</time>
      </trkpt>
      <trkpt lat="42.9948" lon="1.13636">
        <ele>399.2</ele>
        <time>2024-10-06T07:19:27Z</time>
      </trkpt>
      <trkpt lat="42.99493" lon="1.13632">
        <ele>399.2</ele>
        <time>2024-10-06T07:19:30Z</time>
      </trkpt>
      <trkpt lat="42.99505" lon="1.13629">
        <ele>399.2</ele>
        <time>2024-10-06T07:19:33Z</time>
      </trkpt>
      <trkpt lat="42.99534" lon="1.13622">
        <ele>399.2</ele>
        <time>2024-10-06T07:19:40Z</time>
      </trkpt>
      <trkpt lat="42.99554" lon="1.13616">
        <ele>399.2</ele>
        <time>2024-10-06T07:19:45Z</time>
      </trkpt>
      <trkpt lat="42.99579" lon="1.1361">
        <ele>399.2</ele>
        <time>2024-10-06T07:19:51Z</time>
      </trkpt>
      <trkpt lat="42.99602" lon="1.13605">
        <ele>399.2</ele>
        <time>2024-10-06T07:19:57Z</time>
      </trkpt>
      <trkpt lat="42.99606" lon="1.13604">
        <ele>399.2</ele>
        <time>2024-10-06T07:19:58Z</time>
      </trkpt>
      <trkpt lat="42.99617" lon="1.13603">
        <ele>399.2</ele>
        <time>2024-10-06T07:20:01Z</time>
      </trkpt>
      <trkpt lat="42.99625" lon="1.136">
        <ele>399.2</ele>
        <time>2024-10-06T07:20:03Z</time>
      </trkpt>
      <trkpt lat="42.99641" lon="1.13594">
        <ele>399.2</ele>
        <time>2024-10-06T07:20:07Z</time>
      </trkpt>
      <trkpt lat="42.99654" lon="1.1359">
        <ele>398.8</ele>
        <time>2024-10-06T07:20:10Z</time>
      </trkpt>
      <trkpt lat="42.99658" lon="1.13589">
        <ele>398.4</ele>
        <time>2024-10-06T07:20:11Z</time>
      </trkpt>
      <trkpt lat="42.99662" lon="1.13587">
        <ele>398</ele>
        <time>2024-10-06T07:20:12Z</time>
      </trkpt>
      <trkpt lat="42.99666" lon="1.13586">
        <ele>397.6</ele>
        <time>2024-10-06T07:20:13Z</time>
      </trkpt>
      <trkpt lat="42.99669" lon="1.13584">
        <ele>397.2</ele>
        <time>2024-10-06T07:20:14Z</time>
      </trkpt>
      <trkpt lat="42.99696" lon="1.13573">
        <ele>397.2</ele>
        <time>2024-10-06T07:20:21Z</time>
      </trkpt>
      <trkpt lat="42.99722" lon="1.1356">
        <ele>397.2</ele>
        <time>2024-10-06T07:20:28Z</time>
      </trkpt>
      <trkpt lat="42.99742" lon="1.1355">
        <ele>397.2</ele>
        <time>2024-10-06T07:20:33Z</time>
      </trkpt>
      <trkpt lat="42.99776" lon="1.13531">
        <ele>397.2</ele>
        <time>2024-10-06T07:20:41Z</time>
      </trkpt>
      <trkpt lat="42.99799" lon="1.13519">
        <ele>397.2</ele>
        <time>2024-10-06T07:20:47Z</time>
      </trkpt>
      <trkpt lat="42.99825" lon="1.13505">
        <ele>397.2</ele>
        <time>2024-10-06T07:20:54Z</time>
      </trkpt>
      <trkpt lat="42.99857" lon="1.1349">
        <ele>397.2</ele>
        <time>2024-10-06T07:21:03Z</time>
      </trkpt>
      <trkpt lat="42.99877" lon="1.13484">
        <ele>396.8</ele>
        <time>2024-10-06T07:21:08Z</time>
      </trkpt>
      <trkpt lat="42.99882" lon="1.13483">
        <ele>396.2</ele>
        <time>2024-10-06T07:21:09Z</time>
      </trkpt>
      <trkpt lat="42.99886" lon="1.13481">
        <ele>395.8</ele>
        <time>2024-10-06T07:21:10Z</time>
      </trkpt>
      <trkpt lat="42.99891" lon="1.1348">
        <ele>395.4</ele>
        <time>2024-10-06T07:21:11Z</time>
      </trkpt>
      <trkpt lat="42.99895" lon="1.13478">
        <ele>395</ele>
        <time>2024-10-06T07:21:12Z</time>
      </trkpt>
      <trkpt lat="42.999" lon="1.13477">
        <ele>395</ele>
        <time>2024-10-06T07:21:14Z</time>
      </trkpt>
      <trkpt lat="42.99913" lon="1.13472">
        <ele>395</ele>
        <time>2024-10-06T07:21:20Z</time>
      </trkpt>
      <trkpt lat="42.99914" lon="1.13471">
        <ele>395</ele>
        <time>2024-10-06T07:21:21Z</time>
      </trkpt>
      <trkpt lat="42.99907" lon="1.13469">
        <ele>395</ele>
        <time>2024-10-06T07:21:25Z</time>
      </trkpt>
      <trkpt lat="42.99903" lon="1.13469">
        <ele>395</ele>
        <time>2024-10-06T07:21:26Z</time>
      </trkpt>
      <trkpt lat="42.99888" lon="1.13471">
        <ele>394.6</ele>
        <time>2024-10-06T07:21:29Z</time>
      </trkpt>
      <trkpt lat="42.99884" lon="1.13472">
        <ele>394.2</ele>
        <time>2024-10-06T07:21:30Z</time>
      </trkpt>
      <trkpt lat="42.99879" lon="1.13474">
        <ele>393.8</ele>
        <time>2024-10-06T07:21:31Z</time>
      </trkpt>
      <trkpt lat="42.99875" lon="1.13476">
        <ele>393.2</ele>
        <time>2024-10-06T07:21:32Z</time>
      </trkpt>
      <trkpt lat="42.99871" lon="1.13477">
        <ele>392.8</ele>
        <time>2024-10-06T07:21:33Z</time>
      </trkpt>
      <trkpt lat="42.99867" lon="1.13476">
        <ele>392.8</ele>
        <time>2024-10-06T07:21:34Z</time>
      </trkpt>
      <trkpt lat="42.99863" lon="1.13476">
        <ele>392.8</ele>
        <time>2024-10-06T07:21:35Z</time>
      </trkpt>
      <trkpt lat="42.99854" lon="1.13474">
        <ele>392.8</ele>
        <time>2024-10-06T07:21:37Z</time>
      </trkpt>
      <trkpt lat="42.99845" lon="1.1347">
        <ele>392.8</ele>
        <time>2024-10-06T07:21:39Z</time>
      </trkpt>
      <trkpt lat="42.99837" lon="1.13467">
        <ele>393.2</ele>
        <time>2024-10-06T07:21:42Z</time>
      </trkpt>
      <trkpt lat="42.99835" lon="1.13466">
        <ele>393.6</ele>
        <time>2024-10-06T07:21:43Z</time>
      </trkpt>
      <trkpt lat="42.99832" lon="1.13465">
        <ele>394</ele>
        <time>2024-10-06T07:21:44Z</time>
      </trkpt>
      <trkpt lat="42.9983" lon="1.13464">
        <ele>394.6</ele>
        <time>2024-10-06T07:21:45Z</time>
      </trkpt>
      <trkpt lat="42.99828" lon="1.13463">
        <ele>395</ele>
        <time>2024-10-06T07:21:46Z</time>
      </trkpt>
      <trkpt lat="42.99822" lon="1.13459">
        <ele>395</ele>
        <time>2024-10-06T07:21:49Z</time>
      </trkpt>
      <trkpt lat="42.99815" lon="1.13456">
        <ele>395.4</ele>
        <time>2024-10-06T07:21:52Z</time>
      </trkpt>
      <trkpt lat="42.99813" lon="1.13455">
        <ele>395.8</ele>
        <time>2024-10-06T07:21:53Z</time>
      </trkpt>
      <trkpt lat="42.99811" lon="1.13454">
        <ele>396.2</ele>
        <time>2024-10-06T07:21:54Z</time>
      </trkpt>
      <trkpt lat="42.99809" lon="1.13453">
        <ele>396.6</ele>
        <time>2024-10-06T07:21:55Z</time>
      </trkpt>
      <trkpt lat="42.99807" lon="1.13452">
        <ele>397</ele>
        <time>2024-10-06T07:21:56Z</time>
      </trkpt>
      <trkpt lat="42.99796" lon="1.13447">
        <ele>397.4</ele>
        <time>2024-10-06T07:22:02Z</time>
      </trkpt>
      <trkpt lat="42.99795" lon="1.13446">
        <ele>397.8</ele>
        <time>2024-10-06T07:22:03Z</time>
      </trkpt>
      <trkpt lat="42.99793" lon="1.13445">
        <ele>398.2</ele>
        <time>2024-10-06T07:22:04Z</time>
      </trkpt>
      <trkpt lat="42.99791" lon="1.13444">
        <ele>399</ele>
        <time>2024-10-06T07:22:05Z</time>
      </trkpt>
      <trkpt lat="42.99787" lon="1.13442">
        <ele>399.4</ele>
        <time>2024-10-06T07:22:08Z</time>
      </trkpt>
      <trkpt lat="42.99786" lon="1.13442">
        <ele>399.8</ele>
        <time>2024-10-06T07:22:09Z</time>
      </trkpt>
      <trkpt lat="42.99785" lon="1.13442">
        <ele>400.2</ele>
        <time>2024-10-06T07:22:10Z</time>
      </trkpt>
      <trkpt lat="42.99784" lon="1.13442">
        <ele>400.8</ele>
        <time>2024-10-06T07:22:11Z</time>
      </trkpt>
      <trkpt lat="42.99783" lon="1.13442">
        <ele>401.2</ele>
        <time>2024-10-06T07:22:12Z</time>
      </trkpt>
      <trkpt lat="42.99778" lon="1.13444">
        <ele>401.6</ele>
        <time>2024-10-06T07:22:15Z</time>
      </trkpt>
      <trkpt lat="42.99776" lon="1.13444">
        <ele>402</ele>
        <time>2024-10-06T07:22:16Z</time>
      </trkpt>
      <trkpt lat="42.99775" lon="1.13445">
        <ele>402.4</ele>
        <time>2024-10-06T07:22:17Z</time>
      </trkpt>
      <trkpt lat="42.99774" lon="1.13446">
        <ele>402.8</ele>
        <time>2024-10-06T07:22:18Z</time>
      </trkpt>
      <trkpt lat="42.99773" lon="1.13447">
        <ele>403.2</ele>
        <time>2024-10-06T07:22:19Z</time>
      </trkpt>
      <trkpt lat="42.99773" lon="1.13448">
        <ele>403.2</ele>
        <time>2024-10-06T07:22:20Z</time>
      </trkpt>
      <trkpt lat="42.99763" lon="1.13449">
        <ele>403.2</ele>
        <time>2024-10-06T07:22:25Z</time>
      </trkpt>
      <trkpt lat="42.99759" lon="1.13449">
        <ele>403.6</ele>
        <time>2024-10-06T07:22:27Z</time>
      </trkpt>
      <trkpt lat="42.99756" lon="1.13449">
        <ele>404</ele>
        <time>2024-10-06T07:22:28Z</time>
      </trkpt>
      <trkpt lat="42.99755" lon="1.13449">
        <ele>404.4</ele>
        <time>2024-10-06T07:22:29Z</time>
      </trkpt>
      <trkpt lat="42.99754" lon="1.13449">
        <ele>405.4</ele>
        <time>2024-10-06T07:22:30Z</time>
      </trkpt>
      <trkpt lat="42.9975" lon="1.13448">
        <ele>405.8</ele>
        <time>2024-10-06T07:22:32Z</time>
      </trkpt>
      <trkpt lat="42.99749" lon="1.13447">
        <ele>406.2</ele>
        <time>2024-10-06T07:22:33Z</time>
      </trkpt>
      <trkpt lat="42.99747" lon="1.13447">
        <ele>406.6</ele>
        <time>2024-10-06T07:22:34Z</time>
      </trkpt>
      <trkpt lat="42.99747" lon="1.13447">
        <ele>407</ele>
        <time>2024-10-06T07:22:35Z</time>
      </trkpt>
      <trkpt lat="42.99745" lon="1.13447">
        <ele>407.4</ele>
        <time>2024-10-06T07:22:36Z</time>
      </trkpt>
      <trkpt lat="42.99735" lon="1.13442">
        <ele>407.8</ele>
        <time>2024-10-06T07:22:41Z</time>
      </trkpt>
      <trkpt lat="42.99732" lon="1.13441">
        <ele>408.2</ele>
        <time>2024-10-06T07:22:42Z</time>
      </trkpt>
      <trkpt lat="42.9973" lon="1.1344">
        <ele>408.6</ele>
        <time>2024-10-06T07:22:43Z</time>
      </trkpt>
      <trkpt lat="42.99727" lon="1.13438">
        <ele>409.2</ele>
        <time>2024-10-06T07:22:44Z</time>
      </trkpt>
      <trkpt lat="42.99725" lon="1.13437">
        <ele>409.6</ele>
        <time>2024-10-06T07:22:45Z</time>
      </trkpt>
      <trkpt lat="42.99717" lon="1.13433">
        <ele>409.6</ele>
        <time>2024-10-06T07:22:49Z</time>
      </trkpt>
      <trkpt lat="42.99715" lon="1.13432">
        <ele>410</ele>
        <time>2024-10-06T07:22:50Z</time>
      </trkpt>
      <trkpt lat="42.99714" lon="1.13431">
        <ele>410.4</ele>
        <time>2024-10-06T07:22:51Z</time>
      </trkpt>
      <trkpt lat="42.99712" lon="1.1343">
        <ele>410.8</ele>
        <time>2024-10-06T07:22:52Z</time>
      </trkpt>
      <trkpt lat="42.99711" lon="1.1343">
        <ele>411.4</ele>
        <time>2024-10-06T07:22:53Z</time>
      </trkpt>
      <trkpt lat="42.99709" lon="1.13429">
        <ele>411.8</ele>
        <time>2024-10-06T07:22:54Z</time>
      </trkpt>
      <trkpt lat="42.99701" lon="1.13425">
        <ele>411.8</ele>
        <time>2024-10-06T07:22:58Z</time>
      </trkpt>
      <trkpt lat="42.99699" lon="1.13425">
        <ele>411.8</ele>
        <time>2024-10-06T07:22:59Z</time>
      </trkpt>
      <trkpt lat="42.99697" lon="1.13424">
        <ele>412.2</ele>
        <time>2024-10-06T07:23:00Z</time>
      </trkpt>
      <trkpt lat="42.99696" lon="1.13423">
        <ele>412.6</ele>
        <time>2024-10-06T07:23:01Z</time>
      </trkpt>
      <trkpt lat="42.99694" lon="1.13422">
        <ele>413</ele>
        <time>2024-10-06T07:23:02Z</time>
      </trkpt>
      <trkpt lat="42.99692" lon="1.13421">
        <ele>413.4</ele>
        <time>2024-10-06T07:23:03Z</time>
      </trkpt>
      <trkpt lat="42.99689" lon="1.1342">
        <ele>413.8</ele>
        <time>2024-10-06T07:23:04Z</time>
      </trkpt>
      <trkpt lat="42.99684" lon="1.13418">
        <ele>413.8</ele>
        <time>2024-10-06T07:23:07Z</time>
      </trkpt>
      <trkpt lat="42.99675" lon="1.13414">
        <ele>413.8</ele>
        <time>2024-10-06T07:23:11Z</time>
      </trkpt>
      <trkpt lat="42.99669" lon="1.13414">
        <ele>414.4</ele>
        <time>2024-10-06T07:23:14Z</time>
      </trkpt>
      <trkpt lat="42.99666" lon="1.13414">
        <ele>414.8</ele>
        <time>2024-10-06T07:23:15Z</time>
      </trkpt>
      <trkpt lat="42.99663" lon="1.13414">
        <ele>415.2</ele>
        <time>2024-10-06T07:23:16Z</time>
      </trkpt>
      <trkpt lat="42.9966" lon="1.13414">
        <ele>415.8</ele>
        <time>2024-10-06T07:23:17Z</time>
      </trkpt>
      <trkpt lat="42.99657" lon="1.13415">
        <ele>416.2</ele>
        <time>2024-10-06T07:23:18Z</time>
      </trkpt>
      <trkpt lat="42.99646" lon="1.13419">
        <ele>416.2</ele>
        <time>2024-10-06T07:23:22Z</time>
      </trkpt>
      <trkpt lat="42.99632" lon="1.13426">
        <ele>416.2</ele>
        <time>2024-10-06T07:23:28Z</time>
      </trkpt>
      <trkpt lat="42.99622" lon="1.13431">
        <ele>416.6</ele>
        <time>2024-10-06T07:23:32Z</time>
      </trkpt>
      <trkpt lat="42.9962" lon="1.13431">
        <ele>417</ele>
        <time>2024-10-06T07:23:33Z</time>
      </trkpt>
      <trkpt lat="42.99618" lon="1.13432">
        <ele>417.4</ele>
        <time>2024-10-06T07:23:34Z</time>
      </trkpt>
      <trkpt lat="42.99615" lon="1.13433">
        <ele>417.8</ele>
        <time>2024-10-06T07:23:35Z</time>
      </trkpt>
      <trkpt lat="42.99613" lon="1.13433">
        <ele>418.2</ele>
        <time>2024-10-06T07:23:36Z</time>
      </trkpt>
      <trkpt lat="42.99606" lon="1.13435">
        <ele>418.2</ele>
        <time>2024-10-06T07:23:39Z</time>
      </trkpt>
      <trkpt lat="42.99604" lon="1.13436">
        <ele>418.2</ele>
        <time>2024-10-06T07:23:40Z</time>
      </trkpt>
      <trkpt lat="42.99597" lon="1.13438">
        <ele>418.8</ele>
        <time>2024-10-06T07:23:43Z</time>
      </trkpt>
      <trkpt lat="42.99594" lon="1.13439">
        <ele>419.6</ele>
        <time>2024-10-06T07:23:44Z</time>
      </trkpt>
      <trkpt lat="42.99592" lon="1.1344">
        <ele>420</ele>
        <time>2024-10-06T07:23:45Z</time>
      </trkpt>
      <trkpt lat="42.9959" lon="1.13441">
        <ele>420.4</ele>
        <time>2024-10-06T07:23:46Z</time>
      </trkpt>
      <trkpt lat="42.99579" lon="1.13443">
        <ele>420.4</ele>
        <time>2024-10-06T07:23:51Z</time>
      </trkpt>
      <trkpt lat="42.99564" lon="1.13447">
        <ele>420.4</ele>
        <time>2024-10-06T07:23:56Z</time>
      </trkpt>
      <trkpt lat="42.99551" lon="1.13449">
        <ele>420.4</ele>
        <time>2024-10-06T07:24:01Z</time>
      </trkpt>
      <trkpt lat="42.99548" lon="1.13449">
        <ele>420.4</ele>
        <time>2024-10-06T07:24:02Z</time>
      </trkpt>
      <trkpt lat="42.99542" lon="1.1345">
        <ele>421</ele>
        <time>2024-10-06T07:24:04Z</time>
      </trkpt>
      <trkpt lat="42.99539" lon="1.13451">
        <ele>421.4</ele>
        <time>2024-10-06T07:24:05Z</time>
      </trkpt>
      <trkpt lat="42.99536" lon="1.13451">
        <ele>421.8</ele>
        <time>2024-10-06T07:24:06Z</time>
      </trkpt>
      <trkpt lat="42.99534" lon="1.13452">
        <ele>422.2</ele>
        <time>2024-10-06T07:24:07Z</time>
      </trkpt>
      <trkpt lat="42.99531" lon="1.13453">
        <ele>422.6</ele>
        <time>2024-10-06T07:24:08Z</time>
      </trkpt>
      <trkpt lat="42.99512" lon="1.13463">
        <ele>422.6</ele>
        <time>2024-10-06T07:24:14Z</time>
      </trkpt>
      <trkpt lat="42.99493" lon="1.13473">
        <ele>422.6</ele>
        <time>2024-10-06T07:24:20Z</time>
      </trkpt>
      <trkpt lat="42.9947" lon="1.1348">
        <ele>422.6</ele>
        <time>2024-10-06T07:24:27Z</time>
      </trkpt>
      <trkpt lat="42.99455" lon="1.13479">
        <ele>422.6</ele>
        <time>2024-10-06T07:24:32Z</time>
      </trkpt>
      <trkpt lat="42.99438" lon="1.13479">
        <ele>422.6</ele>
        <time>2024-10-06T07:24:38Z</time>
      </trkpt>
      <trkpt lat="42.9942" lon="1.13478">
        <ele>422.6</ele>
        <time>2024-10-06T07:24:44Z</time>
      </trkpt>
      <trkpt lat="42.99401" lon="1.13476">
        <ele>422.6</ele>
        <time>2024-10-06T07:24:50Z</time>
      </trkpt>
      <trkpt lat="42.99383" lon="1.1347">
        <ele>422.6</ele>
        <time>2024-10-06T07:24:55Z</time>
      </trkpt>
      <trkpt lat="42.99371" lon="1.13461">
        <ele>422.6</ele>
        <time>2024-10-06T07:24:58Z</time>
      </trkpt>
      <trkpt lat="42.99364" lon="1.13451">
        <ele>422.6</ele>
        <time>2024-10-06T07:25:00Z</time>
      </trkpt>
      <trkpt lat="42.99357" lon="1.13443">
        <ele>422.6</ele>
        <time>2024-10-06T07:25:02Z</time>
      </trkpt>
      <trkpt lat="42.99348" lon="1.13435">
        <ele>422.6</ele>
        <time>2024-10-06T07:25:05Z</time>
      </trkpt>
      <trkpt lat="42.99333" lon="1.13422">
        <ele>422.6</ele>
        <time>2024-10-06T07:25:10Z</time>
      </trkpt>
      <trkpt lat="42.99316" lon="1.13412">
        <ele>422.2</ele>
        <time>2024-10-06T07:25:15Z</time>
      </trkpt>
      <trkpt lat="42.99312" lon="1.1341">
        <ele>421.8</ele>
        <time>2024-10-06T07:25:16Z</time>
      </trkpt>
      <trkpt lat="42.99308" lon="1.13409">
        <ele>421.4</ele>
        <time>2024-10-06T07:25:17Z</time>
      </trkpt>
      <trkpt lat="42.99305" lon="1.13408">
        <ele>421</ele>
        <time>2024-10-06T07:25:18Z</time>
      </trkpt>
      <trkpt lat="42.99301" lon="1.13407">
        <ele>420.6</ele>
        <time>2024-10-06T07:25:19Z</time>
      </trkpt>
      <trkpt lat="42.99287" lon="1.13405">
        <ele>420.6</ele>
        <time>2024-10-06T07:25:23Z</time>
      </trkpt>
      <trkpt lat="42.99262" lon="1.134">
        <ele>420.6</ele>
        <time>2024-10-06T07:25:30Z</time>
      </trkpt>
      <trkpt lat="42.99242" lon="1.13395">
        <ele>420.6</ele>
        <time>2024-10-06T07:25:35Z</time>
      </trkpt>
      <trkpt lat="42.99215" lon="1.13382">
        <ele>420.6</ele>
        <time>2024-10-06T07:25:43Z</time>
      </trkpt>
      <trkpt lat="42.99196" lon="1.13372">
        <ele>420.6</ele>
        <time>2024-10-06T07:25:48Z</time>
      </trkpt>
      <trkpt lat="42.99186" lon="1.13367">
        <ele>420.6</ele>
        <time>2024-10-06T07:25:53Z</time>
      </trkpt>
      <trkpt lat="42.99171" lon="1.13361">
        <ele>420.6</ele>
        <time>2024-10-06T07:26:00Z</time>
      </trkpt>
      <trkpt lat="42.99157" lon="1.13356">
        <ele>420.6</ele>
        <time>2024-10-06T07:26:04Z</time>
      </trkpt>
      <trkpt lat="42.99135" lon="1.13351">
        <ele>420.6</ele>
        <time>2024-10-06T07:26:11Z</time>
      </trkpt>
      <trkpt lat="42.99117" lon="1.13352">
        <ele>420.6</ele>
        <time>2024-10-06T07:26:17Z</time>
      </trkpt>
      <trkpt lat="42.99098" lon="1.13356">
        <ele>420.6</ele>
        <time>2024-10-06T07:26:24Z</time>
      </trkpt>
      <trkpt lat="42.99075" lon="1.13361">
        <ele>420.6</ele>
        <time>2024-10-06T07:26:33Z</time>
      </trkpt>
      <trkpt lat="42.99059" lon="1.13364">
        <ele>421</ele>
        <time>2024-10-06T07:26:39Z</time>
      </trkpt>
      <trkpt lat="42.99056" lon="1.13364">
        <ele>421.4</ele>
        <time>2024-10-06T07:26:40Z</time>
      </trkpt>
      <trkpt lat="42.99053" lon="1.13364">
        <ele>421.8</ele>
        <time>2024-10-06T07:26:41Z</time>
      </trkpt>
      <trkpt lat="42.99051" lon="1.13364">
        <ele>422.2</ele>
        <time>2024-10-06T07:26:42Z</time>
      </trkpt>
      <trkpt lat="42.99048" lon="1.13365">
        <ele>422.6</ele>
        <time>2024-10-06T07:26:43Z</time>
      </trkpt>
      <trkpt lat="42.99038" lon="1.13365">
        <ele>422.6</ele>
        <time>2024-10-06T07:26:47Z</time>
      </trkpt>
      <trkpt lat="42.99022" lon="1.13367">
        <ele>423</ele>
        <time>2024-10-06T07:26:53Z</time>
      </trkpt>
      <trkpt lat="42.9902" lon="1.13367">
        <ele>423.6</ele>
        <time>2024-10-06T07:26:54Z</time>
      </trkpt>
      <trkpt lat="42.99017" lon="1.13367">
        <ele>424</ele>
        <time>2024-10-06T07:26:55Z</time>
      </trkpt>
      <trkpt lat="42.99014" lon="1.13367">
        <ele>424.4</ele>
        <time>2024-10-06T07:26:56Z</time>
      </trkpt>
      <trkpt lat="42.99012" lon="1.13367">
        <ele>424.8</ele>
        <time>2024-10-06T07:26:57Z</time>
      </trkpt>
      <trkpt lat="42.99002" lon="1.13367">
        <ele>424.8</ele>
        <time>2024-10-06T07:27:01Z</time>
      </trkpt>
      <trkpt lat="42.98989" lon="1.13366">
        <ele>424.8</ele>
        <time>2024-10-06T07:27:06Z</time>
      </trkpt>
      <trkpt lat="42.98973" lon="1.13365">
        <ele>424.8</ele>
        <time>2024-10-06T07:27:12Z</time>
      </trkpt>
      <trkpt lat="42.98951" lon="1.13361">
        <ele>424.8</ele>
        <time>2024-10-06T07:27:19Z</time>
      </trkpt>
      <trkpt lat="42.98945" lon="1.13355">
        <ele>424.8</ele>
        <time>2024-10-06T07:27:21Z</time>
      </trkpt>
      <trkpt lat="42.98945" lon="1.13351">
        <ele>424.8</ele>
        <time>2024-10-06T07:27:22Z</time>
      </trkpt>
      <trkpt lat="42.98949" lon="1.13332">
        <ele>424.8</ele>
        <time>2024-10-06T07:27:26Z</time>
      </trkpt>
      <trkpt lat="42.98951" lon="1.13328">
        <ele>424.8</ele>
        <time>2024-10-06T07:27:27Z</time>
      </trkpt>
      <trkpt lat="42.98954" lon="1.13321">
        <ele>425.2</ele>
        <time>2024-10-06T07:27:29Z</time>
      </trkpt>
      <trkpt lat="42.98955" lon="1.13317">
        <ele>425.6</ele>
        <time>2024-10-06T07:27:30Z</time>
      </trkpt>
      <trkpt lat="42.98957" lon="1.13314">
        <ele>426</ele>
        <time>2024-10-06T07:27:31Z</time>
      </trkpt>
      <trkpt lat="42.98959" lon="1.13311">
        <ele>426.4</ele>
        <time>2024-10-06T07:27:32Z</time>
      </trkpt>
      <trkpt lat="42.9896" lon="1.13308">
        <ele>426.8</ele>
        <time>2024-10-06T07:27:33Z</time>
      </trkpt>
      <trkpt lat="42.9897" lon="1.13289">
        <ele>427.2</ele>
        <time>2024-10-06T07:27:39Z</time>
      </trkpt>
      <trkpt lat="42.98972" lon="1.13286">
        <ele>427.6</ele>
        <time>2024-10-06T07:27:40Z</time>
      </trkpt>
      <trkpt lat="42.98973" lon="1.13283">
        <ele>428.2</ele>
        <time>2024-10-06T07:27:41Z</time>
      </trkpt>
      <trkpt lat="42.98974" lon="1.1328">
        <ele>428.6</ele>
        <time>2024-10-06T07:27:42Z</time>
      </trkpt>
      <trkpt lat="42.98976" lon="1.13277">
        <ele>429</ele>
        <time>2024-10-06T07:27:43Z</time>
      </trkpt>
      <trkpt lat="42.98982" lon="1.13265">
        <ele>429</ele>
        <time>2024-10-06T07:27:47Z</time>
      </trkpt>
      <trkpt lat="42.98987" lon="1.13256">
        <ele>429.4</ele>
        <time>2024-10-06T07:27:50Z</time>
      </trkpt>
      <trkpt lat="42.98988" lon="1.13254">
        <ele>430.2</ele>
        <time>2024-10-06T07:27:51Z</time>
      </trkpt>
      <trkpt lat="42.9899" lon="1.13251">
        <ele>430.6</ele>
        <time>2024-10-06T07:27:52Z</time>
      </trkpt>
      <trkpt lat="42.98991" lon="1.13248">
        <ele>431.2</ele>
        <time>2024-10-06T07:27:53Z</time>
      </trkpt>
      <trkpt lat="42.98992" lon="1.13246">
        <ele>431.2</ele>
        <time>2024-10-06T07:27:54Z</time>
      </trkpt>
      <trkpt lat="42.99001" lon="1.1323">
        <ele>431.6</ele>
        <time>2024-10-06T07:28:00Z</time>
      </trkpt>
      <trkpt lat="42.99003" lon="1.13228">
        <ele>432</ele>
        <time>2024-10-06T07:28:01Z</time>
      </trkpt>
      <trkpt lat="42.99004" lon="1.13225">
        <ele>432.4</ele>
        <time>2024-10-06T07:28:02Z</time>
      </trkpt>
      <trkpt lat="42.99005" lon="1.13223">
        <ele>432.8</ele>
        <time>2024-10-06T07:28:03Z</time>
      </trkpt>
      <trkpt lat="42.99007" lon="1.1322">
        <ele>433.2</ele>
        <time>2024-10-06T07:28:04Z</time>
      </trkpt>
      <trkpt lat="42.99017" lon="1.13203">
        <ele>433.2</ele>
        <time>2024-10-06T07:28:10Z</time>
      </trkpt>
      <trkpt lat="42.99018" lon="1.132">
        <ele>433.6</ele>
        <time>2024-10-06T07:28:11Z</time>
      </trkpt>
      <trkpt lat="42.9902" lon="1.13197">
        <ele>434</ele>
        <time>2024-10-06T07:28:12Z</time>
      </trkpt>
      <trkpt lat="42.99021" lon="1.13193">
        <ele>434.4</ele>
        <time>2024-10-06T07:28:13Z</time>
      </trkpt>
      <trkpt lat="42.99022" lon="1.1319">
        <ele>434.8</ele>
        <time>2024-10-06T07:28:14Z</time>
      </trkpt>
      <trkpt lat="42.99023" lon="1.13186">
        <ele>435.2</ele>
        <time>2024-10-06T07:28:15Z</time>
      </trkpt>
      <trkpt lat="42.99026" lon="1.13179">
        <ele>435.2</ele>
        <time>2024-10-06T07:28:17Z</time>
      </trkpt>
      <trkpt lat="42.9903" lon="1.1317">
        <ele>435.6</ele>
        <time>2024-10-06T07:28:20Z</time>
      </trkpt>
      <trkpt lat="42.99031" lon="1.13168">
        <ele>436.2</ele>
        <time>2024-10-06T07:28:21Z</time>
      </trkpt>
      <trkpt lat="42.99032" lon="1.13166">
        <ele>436.6</ele>
        <time>2024-10-06T07:28:22Z</time>
      </trkpt>
      <trkpt lat="42.99032" lon="1.13163">
        <ele>437</ele>
        <time>2024-10-06T07:28:23Z</time>
      </trkpt>
      <trkpt lat="42.99033" lon="1.13161">
        <ele>437.4</ele>
        <time>2024-10-06T07:28:24Z</time>
      </trkpt>
      <trkpt lat="42.99036" lon="1.13151">
        <ele>437.4</ele>
        <time>2024-10-06T07:28:27Z</time>
      </trkpt>
      <trkpt lat="42.9904" lon="1.13137">
        <ele>437.8</ele>
        <time>2024-10-06T07:28:32Z</time>
      </trkpt>
      <trkpt lat="42.99042" lon="1.13134">
        <ele>438.2</ele>
        <time>2024-10-06T07:28:33Z</time>
      </trkpt>
      <trkpt lat="42.99043" lon="1.13131">
        <ele>438.8</ele>
        <time>2024-10-06T07:28:34Z</time>
      </trkpt>
      <trkpt lat="42.99044" lon="1.13128">
        <ele>439.2</ele>
        <time>2024-10-06T07:28:35Z</time>
      </trkpt>
      <trkpt lat="42.99046" lon="1.13125">
        <ele>439.6</ele>
        <time>2024-10-06T07:28:36Z</time>
      </trkpt>
      <trkpt lat="42.9905" lon="1.13114">
        <ele>439.6</ele>
        <time>2024-10-06T07:28:40Z</time>
      </trkpt>
      <trkpt lat="42.9905" lon="1.13111">
        <ele>440</ele>
        <time>2024-10-06T07:28:41Z</time>
      </trkpt>
      <trkpt lat="42.99051" lon="1.13109">
        <ele>440.4</ele>
        <time>2024-10-06T07:28:42Z</time>
      </trkpt>
      <trkpt lat="42.99052" lon="1.13108">
        <ele>441</ele>
        <time>2024-10-06T07:28:43Z</time>
      </trkpt>
      <trkpt lat="42.99053" lon="1.13106">
        <ele>441.4</ele>
        <time>2024-10-06T07:28:44Z</time>
      </trkpt>
      <trkpt lat="42.99053" lon="1.13103">
        <ele>441.8</ele>
        <time>2024-10-06T07:28:45Z</time>
      </trkpt>
      <trkpt lat="42.99057" lon="1.13092">
        <ele>442.2</ele>
        <time>2024-10-06T07:28:49Z</time>
      </trkpt>
      <trkpt lat="42.99058" lon="1.1309">
        <ele>442.6</ele>
        <time>2024-10-06T07:28:50Z</time>
      </trkpt>
      <trkpt lat="42.99058" lon="1.13087">
        <ele>443</ele>
        <time>2024-10-06T07:28:51Z</time>
      </trkpt>
      <trkpt lat="42.99059" lon="1.13086">
        <ele>443.4</ele>
        <time>2024-10-06T07:28:52Z</time>
      </trkpt>
      <trkpt lat="42.9906" lon="1.13084">
        <ele>444</ele>
        <time>2024-10-06T07:28:53Z</time>
      </trkpt>
      <trkpt lat="42.9906" lon="1.13082">
        <ele>444</ele>
        <time>2024-10-06T07:28:54Z</time>
      </trkpt>
      <trkpt lat="42.99063" lon="1.13076">
        <ele>444.4</ele>
        <time>2024-10-06T07:28:57Z</time>
      </trkpt>
      <trkpt lat="42.99065" lon="1.13073">
        <ele>444.8</ele>
        <time>2024-10-06T07:28:58Z</time>
      </trkpt>
      <trkpt lat="42.99066" lon="1.1307">
        <ele>445.2</ele>
        <time>2024-10-06T07:28:59Z</time>
      </trkpt>
      <trkpt lat="42.99067" lon="1.13067">
        <ele>445.6</ele>
        <time>2024-10-06T07:29:00Z</time>
      </trkpt>
      <trkpt lat="42.99068" lon="1.13065">
        <ele>446</ele>
        <time>2024-10-06T07:29:01Z</time>
      </trkpt>
      <trkpt lat="42.99071" lon="1.1306">
        <ele>446</ele>
        <time>2024-10-06T07:29:03Z</time>
      </trkpt>
      <trkpt lat="42.99072" lon="1.13057">
        <ele>446.4</ele>
        <time>2024-10-06T07:29:04Z</time>
      </trkpt>
      <trkpt lat="42.99073" lon="1.13054">
        <ele>447.2</ele>
        <time>2024-10-06T07:29:05Z</time>
      </trkpt>
      <trkpt lat="42.99074" lon="1.13052">
        <ele>447.6</ele>
        <time>2024-10-06T07:29:06Z</time>
      </trkpt>
      <trkpt lat="42.99075" lon="1.13051">
        <ele>448</ele>
        <time>2024-10-06T07:29:07Z</time>
      </trkpt>
      <trkpt lat="42.99078" lon="1.13045">
        <ele>448</ele>
        <time>2024-10-06T07:29:09Z</time>
      </trkpt>
      <trkpt lat="42.99081" lon="1.13039">
        <ele>448.4</ele>
        <time>2024-10-06T07:29:11Z</time>
      </trkpt>
      <trkpt lat="42.99083" lon="1.13036">
        <ele>449</ele>
        <time>2024-10-06T07:29:12Z</time>
      </trkpt>
      <trkpt lat="42.99084" lon="1.13033">
        <ele>449.4</ele>
        <time>2024-10-06T07:29:13Z</time>
      </trkpt>
      <trkpt lat="42.99085" lon="1.13031">
        <ele>449.8</ele>
        <time>2024-10-06T07:29:14Z</time>
      </trkpt>
      <trkpt lat="42.99087" lon="1.13028">
        <ele>450.2</ele>
        <time>2024-10-06T07:29:15Z</time>
      </trkpt>
      <trkpt lat="42.99088" lon="1.13025">
        <ele>450.2</ele>
        <time>2024-10-06T07:29:16Z</time>
      </trkpt>
      <trkpt lat="42.99091" lon="1.13019">
        <ele>450.8</ele>
        <time>2024-10-06T07:29:18Z</time>
      </trkpt>
      <trkpt lat="42.99092" lon="1.13016">
        <ele>451.2</ele>
        <time>2024-10-06T07:29:19Z</time>
      </trkpt>
      <trkpt lat="42.99093" lon="1.13013">
        <ele>451.6</ele>
        <time>2024-10-06T07:29:20Z</time>
      </trkpt>
      <trkpt lat="42.99095" lon="1.13011">
        <ele>452</ele>
        <time>2024-10-06T07:29:21Z</time>
      </trkpt>
      <trkpt lat="42.99096" lon="1.13009">
        <ele>452.6</ele>
        <time>2024-10-06T07:29:22Z</time>
      </trkpt>
      <trkpt lat="42.99104" lon="1.12993">
        <ele>452.6</ele>
        <time>2024-10-06T07:29:28Z</time>
      </trkpt>
      <trkpt lat="42.99106" lon="1.12988">
        <ele>453.4</ele>
        <time>2024-10-06T07:29:30Z</time>
      </trkpt>
      <trkpt lat="42.99107" lon="1.12985">
        <ele>453.8</ele>
        <time>2024-10-06T07:29:31Z</time>
      </trkpt>
      <trkpt lat="42.99108" lon="1.12982">
        <ele>454.2</ele>
        <time>2024-10-06T07:29:32Z</time>
      </trkpt>
      <trkpt lat="42.99109" lon="1.12979">
        <ele>454.6</ele>
        <time>2024-10-06T07:29:33Z</time>
      </trkpt>
      <trkpt lat="42.99111" lon="1.12976">
        <ele>454.6</ele>
        <time>2024-10-06T07:29:34Z</time>
      </trkpt>
      <trkpt lat="42.99118" lon="1.12959">
        <ele>455</ele>
        <time>2024-10-06T07:29:40Z</time>
      </trkpt>
      <trkpt lat="42.99119" lon="1.12957">
        <ele>455.4</ele>
        <time>2024-10-06T07:29:41Z</time>
      </trkpt>
      <trkpt lat="42.9912" lon="1.12954">
        <ele>455.8</ele>
        <time>2024-10-06T07:29:42Z</time>
      </trkpt>
      <trkpt lat="42.9912" lon="1.12952">
        <ele>456.2</ele>
        <time>2024-10-06T07:29:43Z</time>
      </trkpt>
      <trkpt lat="42.99121" lon="1.12949">
        <ele>456.6</ele>
        <time>2024-10-06T07:29:44Z</time>
      </trkpt>
      <trkpt lat="42.99124" lon="1.1294">
        <ele>456.6</ele>
        <time>2024-10-06T07:29:47Z</time>
      </trkpt>
      <trkpt lat="42.99126" lon="1.12933">
        <ele>457</ele>
        <time>2024-10-06T07:29:49Z</time>
      </trkpt>
      <trkpt lat="42.99127" lon="1.1293">
        <ele>457.6</ele>
        <time>2024-10-06T07:29:50Z</time>
      </trkpt>
      <trkpt lat="42.99129" lon="1.12927">
        <ele>458</ele>
        <time>2024-10-06T07:29:51Z</time>
      </trkpt>
      <trkpt lat="42.9913" lon="1.12924">
        <ele>458.4</ele>
        <time>2024-10-06T07:29:52Z</time>
      </trkpt>
      <trkpt lat="42.99131" lon="1.12921">
        <ele>458.8</ele>
        <time>2024-10-06T07:29:53Z</time>
      </trkpt>
      <trkpt lat="42.99132" lon="1.12918">
        <ele>458.8</ele>
        <time>2024-10-06T07:29:54Z</time>
      </trkpt>
      <trkpt lat="42.99134" lon="1.12909">
        <ele>459.2</ele>
        <time>2024-10-06T07:29:57Z</time>
      </trkpt>
      <trkpt lat="42.99135" lon="1.12906">
        <ele>459.8</ele>
        <time>2024-10-06T07:29:58Z</time>
      </trkpt>
      <trkpt lat="42.99135" lon="1.12903">
        <ele>460.2</ele>
        <time>2024-10-06T07:29:59Z</time>
      </trkpt>
      <trkpt lat="42.99136" lon="1.12901">
        <ele>460.6</ele>
        <time>2024-10-06T07:30:00Z</time>
      </trkpt>
      <trkpt lat="42.99137" lon="1.12899">
        <ele>461</ele>
        <time>2024-10-06T07:30:01Z</time>
      </trkpt>
      <trkpt lat="42.99139" lon="1.12889">
        <ele>461.4</ele>
        <time>2024-10-06T07:30:04Z</time>
      </trkpt>
      <trkpt lat="42.99141" lon="1.12885">
        <ele>462</ele>
        <time>2024-10-06T07:30:05Z</time>
      </trkpt>
      <trkpt lat="42.99142" lon="1.12882">
        <ele>462.4</ele>
        <time>2024-10-06T07:30:06Z</time>
      </trkpt>
      <trkpt lat="42.99143" lon="1.12879">
        <ele>462.8</ele>
        <time>2024-10-06T07:30:07Z</time>
      </trkpt>
      <trkpt lat="42.99145" lon="1.12876">
        <ele>463.2</ele>
        <time>2024-10-06T07:30:08Z</time>
      </trkpt>
      <trkpt lat="42.9915" lon="1.12865">
        <ele>463.6</ele>
        <time>2024-10-06T07:30:12Z</time>
      </trkpt>
      <trkpt lat="42.9915" lon="1.12862">
        <ele>464</ele>
        <time>2024-10-06T07:30:13Z</time>
      </trkpt>
      <trkpt lat="42.99151" lon="1.12859">
        <ele>464.4</ele>
        <time>2024-10-06T07:30:14Z</time>
      </trkpt>
      <trkpt lat="42.99153" lon="1.12856">
        <ele>464.8</ele>
        <time>2024-10-06T07:30:15Z</time>
      </trkpt>
      <trkpt lat="42.99154" lon="1.12853">
        <ele>465.4</ele>
        <time>2024-10-06T07:30:16Z</time>
      </trkpt>
      <trkpt lat="42.99159" lon="1.12842">
        <ele>465.4</ele>
        <time>2024-10-06T07:30:20Z</time>
      </trkpt>
      <trkpt lat="42.99161" lon="1.12834">
        <ele>465.8</ele>
        <time>2024-10-06T07:30:22Z</time>
      </trkpt>
      <trkpt lat="42.99161" lon="1.12832">
        <ele>466.2</ele>
        <time>2024-10-06T07:30:23Z</time>
      </trkpt>
      <trkpt lat="42.99162" lon="1.12828">
        <ele>466.6</ele>
        <time>2024-10-06T07:30:24Z</time>
      </trkpt>
      <trkpt lat="42.99164" lon="1.12825">
        <ele>467</ele>
        <time>2024-10-06T07:30:25Z</time>
      </trkpt>
      <trkpt lat="42.99165" lon="1.12821">
        <ele>467.4</ele>
        <time>2024-10-06T07:30:26Z</time>
      </trkpt>
      <trkpt lat="42.99171" lon="1.12803">
        <ele>467.4</ele>
        <time>2024-10-06T07:30:31Z</time>
      </trkpt>
      <trkpt lat="42.99171" lon="1.12795">
        <ele>467.4</ele>
        <time>2024-10-06T07:30:35Z</time>
      </trkpt>
      <trkpt lat="42.99171" lon="1.12794">
        <ele>467.4</ele>
        <time>2024-10-06T07:30:36Z</time>
      </trkpt>
      <trkpt lat="42.9917" lon="1.12792">
        <ele>467.4</ele>
        <time>2024-10-06T07:30:37Z</time>
      </trkpt>
      <trkpt lat="42.99169" lon="1.12784">
        <ele>467</ele>
        <time>2024-10-06T07:30:40Z</time>
      </trkpt>
      <trkpt lat="42.99168" lon="1.12781">
        <ele>466.6</ele>
        <time>2024-10-06T07:30:41Z</time>
      </trkpt>
      <trkpt lat="42.99168" lon="1.12777">
        <ele>466.2</ele>
        <time>2024-10-06T07:30:42Z</time>
      </trkpt>
      <trkpt lat="42.99167" lon="1.12773">
        <ele>465.8</ele>
        <time>2024-10-06T07:30:43Z</time>
      </trkpt>
      <trkpt lat="42.99166" lon="1.1277">
        <ele>465.4</ele>
        <time>2024-10-06T07:30:44Z</time>
      </trkpt>
      <trkpt lat="42.99165" lon="1.12768">
        <ele>465.4</ele>
        <time>2024-10-06T07:30:45Z</time>
      </trkpt>
      <trkpt lat="42.99164" lon="1.12763">
        <ele>465</ele>
        <time>2024-10-06T07:30:47Z</time>
      </trkpt>
      <trkpt lat="42.99163" lon="1.1276">
        <ele>464.6</ele>
        <time>2024-10-06T07:30:48Z</time>
      </trkpt>
      <trkpt lat="42.99163" lon="1.12757">
        <ele>464.2</ele>
        <time>2024-10-06T07:30:49Z</time>
      </trkpt>
      <trkpt lat="42.99162" lon="1.12756">
        <ele>463.8</ele>
        <time>2024-10-06T07:30:50Z</time>
      </trkpt>
      <trkpt lat="42.99161" lon="1.12754">
        <ele>463.4</ele>
        <time>2024-10-06T07:30:51Z</time>
      </trkpt>
      <trkpt lat="42.99157" lon="1.12752">
        <ele>463.4</ele>
        <time>2024-10-06T07:30:53Z</time>
      </trkpt>
      <trkpt lat="42.99148" lon="1.12747">
        <ele>463.8</ele>
        <time>2024-10-06T07:30:58Z</time>
      </trkpt>
      <trkpt lat="42.99146" lon="1.12747">
        <ele>464.2</ele>
        <time>2024-10-06T07:30:59Z</time>
      </trkpt>
      <trkpt lat="42.99145" lon="1.12747">
        <ele>464.6</ele>
        <time>2024-10-06T07:31:00Z</time>
      </trkpt>
      <trkpt lat="42.99143" lon="1.12747">
        <ele>465</ele>
        <time>2024-10-06T07:31:01Z</time>
      </trkpt>
      <trkpt lat="42.99141" lon="1.12747">
        <ele>465.4</ele>
        <time>2024-10-06T07:31:02Z</time>
      </trkpt>
      <trkpt lat="42.99138" lon="1.12747">
        <ele>465.8</ele>
        <time>2024-10-06T07:31:04Z</time>
      </trkpt>
      <trkpt lat="42.99136" lon="1.12747">
        <ele>466.2</ele>
        <time>2024-10-06T07:31:05Z</time>
      </trkpt>
      <trkpt lat="42.99135" lon="1.12746">
        <ele>466.6</ele>
        <time>2024-10-06T07:31:06Z</time>
      </trkpt>
      <trkpt lat="42.99133" lon="1.12745">
        <ele>467</ele>
        <time>2024-10-06T07:31:07Z</time>
      </trkpt>
      <trkpt lat="42.99132" lon="1.12744">
        <ele>467.4</ele>
        <time>2024-10-06T07:31:08Z</time>
      </trkpt>
      <trkpt lat="42.99128" lon="1.12743">
        <ele>467.4</ele>
        <time>2024-10-06T07:31:10Z</time>
      </trkpt>
      <trkpt lat="42.99126" lon="1.12741">
        <ele>467.8</ele>
        <time>2024-10-06T07:31:11Z</time>
      </trkpt>
      <trkpt lat="42.99124" lon="1.12739">
        <ele>468.4</ele>
        <time>2024-10-06T07:31:12Z</time>
      </trkpt>
      <trkpt lat="42.99123" lon="1.12737">
        <ele>468.8</ele>
        <time>2024-10-06T07:31:13Z</time>
      </trkpt>
      <trkpt lat="42.99122" lon="1.12734">
        <ele>469.2</ele>
        <time>2024-10-06T07:31:14Z</time>
      </trkpt>
      <trkpt lat="42.99121" lon="1.12733">
        <ele>469.6</ele>
        <time>2024-10-06T07:31:15Z</time>
      </trkpt>
      <trkpt lat="42.99113" lon="1.12726">
        <ele>469.6</ele>
        <time>2024-10-06T07:31:19Z</time>
      </trkpt>
      <trkpt lat="42.99112" lon="1.12725">
        <ele>470</ele>
        <time>2024-10-06T07:31:20Z</time>
      </trkpt>
      <trkpt lat="42.9911" lon="1.12724">
        <ele>470.6</ele>
        <time>2024-10-06T07:31:21Z</time>
      </trkpt>
      <trkpt lat="42.99109" lon="1.12724">
        <ele>471</ele>
        <time>2024-10-06T07:31:22Z</time>
      </trkpt>
      <trkpt lat="42.99108" lon="1.12725">
        <ele>471.4</ele>
        <time>2024-10-06T07:31:23Z</time>
      </trkpt>
      <trkpt lat="42.99107" lon="1.12725">
        <ele>471.8</ele>
        <time>2024-10-06T07:31:24Z</time>
      </trkpt>
      <trkpt lat="42.99099" lon="1.12726">
        <ele>472.4</ele>
        <time>2024-10-06T07:31:27Z</time>
      </trkpt>
      <trkpt lat="42.99098" lon="1.12727">
        <ele>472.8</ele>
        <time>2024-10-06T07:31:28Z</time>
      </trkpt>
      <trkpt lat="42.99096" lon="1.12727">
        <ele>473.2</ele>
        <time>2024-10-06T07:31:29Z</time>
      </trkpt>
      <trkpt lat="42.99093" lon="1.12726">
        <ele>473.6</ele>
        <time>2024-10-06T07:31:30Z</time>
      </trkpt>
      <trkpt lat="42.99091" lon="1.12726">
        <ele>474.2</ele>
        <time>2024-10-06T07:31:31Z</time>
      </trkpt>
      <trkpt lat="42.99086" lon="1.12724">
        <ele>474.6</ele>
        <time>2024-10-06T07:31:33Z</time>
      </trkpt>
      <trkpt lat="42.99084" lon="1.12723">
        <ele>475.4</ele>
        <time>2024-10-06T07:31:34Z</time>
      </trkpt>
      <trkpt lat="42.99081" lon="1.12723">
        <ele>476</ele>
        <time>2024-10-06T07:31:35Z</time>
      </trkpt>
      <trkpt lat="42.99079" lon="1.12722">
        <ele>476.4</ele>
        <time>2024-10-06T07:31:36Z</time>
      </trkpt>
      <trkpt lat="42.99075" lon="1.12722">
        <ele>476.8</ele>
        <time>2024-10-06T07:31:38Z</time>
      </trkpt>
      <trkpt lat="42.99073" lon="1.12722">
        <ele>477.2</ele>
        <time>2024-10-06T07:31:39Z</time>
      </trkpt>
      <trkpt lat="42.99071" lon="1.12722">
        <ele>477.6</ele>
        <time>2024-10-06T07:31:40Z</time>
      </trkpt>
      <trkpt lat="42.99069" lon="1.12721">
        <ele>478.2</ele>
        <time>2024-10-06T07:31:41Z</time>
      </trkpt>
      <trkpt lat="42.99067" lon="1.12722">
        <ele>478.6</ele>
        <time>2024-10-06T07:31:42Z</time>
      </trkpt>
      <trkpt lat="42.99062" lon="1.12719">
        <ele>478.6</ele>
        <time>2024-10-06T07:31:45Z</time>
      </trkpt>
      <trkpt lat="42.9906" lon="1.12717">
        <ele>479</ele>
        <time>2024-10-06T07:31:46Z</time>
      </trkpt>
      <trkpt lat="42.99058" lon="1.12715">
        <ele>479.4</ele>
        <time>2024-10-06T07:31:47Z</time>
      </trkpt>
      <trkpt lat="42.99056" lon="1.12714">
        <ele>479.8</ele>
        <time>2024-10-06T07:31:48Z</time>
      </trkpt>
      <trkpt lat="42.99055" lon="1.12712">
        <ele>480.2</ele>
        <time>2024-10-06T07:31:49Z</time>
      </trkpt>
      <trkpt lat="42.99053" lon="1.12709">
        <ele>480.6</ele>
        <time>2024-10-06T07:31:50Z</time>
      </trkpt>
      <trkpt lat="42.99051" lon="1.12707">
        <ele>480.6</ele>
        <time>2024-10-06T07:31:51Z</time>
      </trkpt>
      <trkpt lat="42.99036" lon="1.12693">
        <ele>480.6</ele>
        <time>2024-10-06T07:31:57Z</time>
      </trkpt>
      <trkpt lat="42.99023" lon="1.12684">
        <ele>480.6</ele>
        <time>2024-10-06T07:32:01Z</time>
      </trkpt>
      <trkpt lat="42.99006" lon="1.12671">
        <ele>480.6</ele>
        <time>2024-10-06T07:32:06Z</time>
      </trkpt>
      <trkpt lat="42.98994" lon="1.12661">
        <ele>480.6</ele>
        <time>2024-10-06T07:32:11Z</time>
      </trkpt>
      <trkpt lat="42.98993" lon="1.12658">
        <ele>480.6</ele>
        <time>2024-10-06T07:32:12Z</time>
      </trkpt>
      <trkpt lat="42.98992" lon="1.12649">
        <ele>480.6</ele>
        <time>2024-10-06T07:32:15Z</time>
      </trkpt>
      <trkpt lat="42.98988" lon="1.12639">
        <ele>480.6</ele>
        <time>2024-10-06T07:32:19Z</time>
      </trkpt>
      <trkpt lat="42.98986" lon="1.12637">
        <ele>480.6</ele>
        <time>2024-10-06T07:32:20Z</time>
      </trkpt>
      <trkpt lat="42.98982" lon="1.12625">
        <ele>480.6</ele>
        <time>2024-10-06T07:32:25Z</time>
      </trkpt>
      <trkpt lat="42.98982" lon="1.1262">
        <ele>480.6</ele>
        <time>2024-10-06T07:32:27Z</time>
      </trkpt>
      <trkpt lat="42.98983" lon="1.12618">
        <ele>480.6</ele>
        <time>2024-10-06T07:32:29Z</time>
      </trkpt>
      <trkpt lat="42.98986" lon="1.12613">
        <ele>480</ele>
        <time>2024-10-06T07:32:31Z</time>
      </trkpt>
      <trkpt lat="42.98988" lon="1.1261">
        <ele>479.4</ele>
        <time>2024-10-06T07:32:32Z</time>
      </trkpt>
      <trkpt lat="42.98989" lon="1.12608">
        <ele>479</ele>
        <time>2024-10-06T07:32:33Z</time>
      </trkpt>
      <trkpt lat="42.9899" lon="1.12606">
        <ele>478.4</ele>
        <time>2024-10-06T07:32:34Z</time>
      </trkpt>
      <trkpt lat="42.98991" lon="1.12606">
        <ele>477.8</ele>
        <time>2024-10-06T07:32:35Z</time>
      </trkpt>
      <trkpt lat="42.98992" lon="1.12604">
        <ele>477.4</ele>
        <time>2024-10-06T07:32:36Z</time>
      </trkpt>
      <trkpt lat="42.98993" lon="1.126">
        <ele>476.8</ele>
        <time>2024-10-06T07:32:37Z</time>
      </trkpt>
      <trkpt lat="42.98992" lon="1.12595">
        <ele>476.4</ele>
        <time>2024-10-06T07:32:38Z</time>
      </trkpt>
      <trkpt lat="42.9899" lon="1.12591">
        <ele>475.8</ele>
        <time>2024-10-06T07:32:39Z</time>
      </trkpt>
      <trkpt lat="42.98988" lon="1.12587">
        <ele>475.2</ele>
        <time>2024-10-06T07:32:40Z</time>
      </trkpt>
      <trkpt lat="42.98986" lon="1.12583">
        <ele>474.8</ele>
        <time>2024-10-06T07:32:41Z</time>
      </trkpt>
      <trkpt lat="42.98983" lon="1.12577">
        <ele>474.2</ele>
        <time>2024-10-06T07:32:42Z</time>
      </trkpt>
      <trkpt lat="42.98981" lon="1.12573">
        <ele>473.6</ele>
        <time>2024-10-06T07:32:43Z</time>
      </trkpt>
      <trkpt lat="42.98978" lon="1.12569">
        <ele>473</ele>
        <time>2024-10-06T07:32:44Z</time>
      </trkpt>
      <trkpt lat="42.98976" lon="1.12567">
        <ele>473</ele>
        <time>2024-10-06T07:32:45Z</time>
      </trkpt>
      <trkpt lat="42.98972" lon="1.12565">
        <ele>473</ele>
        <time>2024-10-06T07:32:47Z</time>
      </trkpt>
      <trkpt lat="42.98962" lon="1.12556">
        <ele>473</ele>
        <time>2024-10-06T07:32:50Z</time>
      </trkpt>
      <trkpt lat="42.98955" lon="1.1255">
        <ele>472.6</ele>
        <time>2024-10-06T07:32:52Z</time>
      </trkpt>
      <trkpt lat="42.98951" lon="1.12548">
        <ele>472.2</ele>
        <time>2024-10-06T07:32:53Z</time>
      </trkpt>
      <trkpt lat="42.98948" lon="1.12546">
        <ele>471.8</ele>
        <time>2024-10-06T07:32:54Z</time>
      </trkpt>
      <trkpt lat="42.98944" lon="1.12542">
        <ele>471.4</ele>
        <time>2024-10-06T07:32:55Z</time>
      </trkpt>
      <trkpt lat="42.98939" lon="1.12539">
        <ele>471</ele>
        <time>2024-10-06T07:32:56Z</time>
      </trkpt>
      <trkpt lat="42.98932" lon="1.12537">
        <ele>471</ele>
        <time>2024-10-06T07:32:58Z</time>
      </trkpt>
      <trkpt lat="42.98926" lon="1.12535">
        <ele>471</ele>
        <time>2024-10-06T07:33:00Z</time>
      </trkpt>
      <trkpt lat="42.98923" lon="1.12535">
        <ele>470.6</ele>
        <time>2024-10-06T07:33:01Z</time>
      </trkpt>
      <trkpt lat="42.98921" lon="1.12533">
        <ele>470.2</ele>
        <time>2024-10-06T07:33:02Z</time>
      </trkpt>
      <trkpt lat="42.9892" lon="1.1253">
        <ele>469.8</ele>
        <time>2024-10-06T07:33:03Z</time>
      </trkpt>
      <trkpt lat="42.98916" lon="1.12527">
        <ele>469.4</ele>
        <time>2024-10-06T07:33:04Z</time>
      </trkpt>
      <trkpt lat="42.98914" lon="1.12526">
        <ele>469</ele>
        <time>2024-10-06T07:33:05Z</time>
      </trkpt>
      <trkpt lat="42.98911" lon="1.12525">
        <ele>469</ele>
        <time>2024-10-06T07:33:06Z</time>
      </trkpt>
      <trkpt lat="42.98906" lon="1.12523">
        <ele>469</ele>
        <time>2024-10-06T07:33:08Z</time>
      </trkpt>
      <trkpt lat="42.98898" lon="1.1252">
        <ele>469</ele>
        <time>2024-10-06T07:33:11Z</time>
      </trkpt>
      <trkpt lat="42.9888" lon="1.12511">
        <ele>469</ele>
        <time>2024-10-06T07:33:17Z</time>
      </trkpt>
      <trkpt lat="42.98878" lon="1.12507">
        <ele>469.6</ele>
        <time>2024-10-06T07:33:18Z</time>
      </trkpt>
      <trkpt lat="42.98876" lon="1.12504">
        <ele>470</ele>
        <time>2024-10-06T07:33:19Z</time>
      </trkpt>
      <trkpt lat="42.98875" lon="1.125">
        <ele>470.4</ele>
        <time>2024-10-06T07:33:20Z</time>
      </trkpt>
      <trkpt lat="42.98874" lon="1.12496">
        <ele>470.8</ele>
        <time>2024-10-06T07:33:21Z</time>
      </trkpt>
      <trkpt lat="42.98872" lon="1.12492">
        <ele>471.2</ele>
        <time>2024-10-06T07:33:22Z</time>
      </trkpt>
      <trkpt lat="42.98868" lon="1.12487">
        <ele>471.2</ele>
        <time>2024-10-06T07:33:25Z</time>
      </trkpt>
      <trkpt lat="42.98862" lon="1.12482">
        <ele>471.2</ele>
        <time>2024-10-06T07:33:30Z</time>
      </trkpt>
      <trkpt lat="42.98856" lon="1.12477">
        <ele>471.2</ele>
        <time>2024-10-06T07:33:32Z</time>
      </trkpt>
      <trkpt lat="42.98849" lon="1.12471">
        <ele>471.2</ele>
        <time>2024-10-06T07:33:34Z</time>
      </trkpt>
      <trkpt lat="42.98831" lon="1.12463">
        <ele>471.2</ele>
        <time>2024-10-06T07:33:39Z</time>
      </trkpt>
      <trkpt lat="42.9882" lon="1.1246">
        <ele>471.2</ele>
        <time>2024-10-06T07:33:44Z</time>
      </trkpt>
      <trkpt lat="42.98802" lon="1.12453">
        <ele>471.2</ele>
        <time>2024-10-06T07:33:50Z</time>
      </trkpt>
      <trkpt lat="42.98783" lon="1.12449">
        <ele>471.2</ele>
        <time>2024-10-06T07:33:55Z</time>
      </trkpt>
      <trkpt lat="42.98774" lon="1.12449">
        <ele>471.2</ele>
        <time>2024-10-06T07:33:59Z</time>
      </trkpt>
      <trkpt lat="42.98758" lon="1.12448">
        <ele>471.2</ele>
        <time>2024-10-06T07:34:05Z</time>
      </trkpt>
      <trkpt lat="42.98742" lon="1.12446">
        <ele>471.2</ele>
        <time>2024-10-06T07:34:10Z</time>
      </trkpt>
      <trkpt lat="42.98739" lon="1.12447">
        <ele>471.2</ele>
        <time>2024-10-06T07:34:11Z</time>
      </trkpt>
      <trkpt lat="42.98732" lon="1.12451">
        <ele>471.2</ele>
        <time>2024-10-06T07:34:14Z</time>
      </trkpt>
      <trkpt lat="42.98721" lon="1.12456">
        <ele>471.2</ele>
        <time>2024-10-06T07:34:19Z</time>
      </trkpt>
      <trkpt lat="42.9871" lon="1.12457">
        <ele>471.2</ele>
        <time>2024-10-06T07:34:22Z</time>
      </trkpt>
      <trkpt lat="42.98702" lon="1.12455">
        <ele>471.2</ele>
        <time>2024-10-06T07:34:24Z</time>
      </trkpt>
      <trkpt lat="42.98681" lon="1.1245">
        <ele>471.2</ele>
        <time>2024-10-06T07:34:30Z</time>
      </trkpt>
      <trkpt lat="42.98679" lon="1.12448">
        <ele>471.2</ele>
        <time>2024-10-06T07:34:31Z</time>
      </trkpt>
      <trkpt lat="42.98672" lon="1.1244">
        <ele>471.2</ele>
        <time>2024-10-06T07:34:34Z</time>
      </trkpt>
      <trkpt lat="42.98666" lon="1.12433">
        <ele>471.2</ele>
        <time>2024-10-06T07:34:37Z</time>
      </trkpt>
      <trkpt lat="42.98665" lon="1.12429">
        <ele>471.2</ele>
        <time>2024-10-06T07:34:38Z</time>
      </trkpt>
      <trkpt lat="42.98661" lon="1.12423">
        <ele>471.2</ele>
        <time>2024-10-06T07:34:41Z</time>
      </trkpt>
      <trkpt lat="42.9866" lon="1.1241">
        <ele>471.2</ele>
        <time>2024-10-06T07:34:45Z</time>
      </trkpt>
      <trkpt lat="42.98648" lon="1.12399">
        <ele>471.2</ele>
        <time>2024-10-06T07:34:49Z</time>
      </trkpt>
      <trkpt lat="42.98644" lon="1.12395">
        <ele>471.2</ele>
        <time>2024-10-06T07:34:50Z</time>
      </trkpt>
      <trkpt lat="42.98635" lon="1.12384">
        <ele>471.2</ele>
        <time>2024-10-06T07:34:54Z</time>
      </trkpt>
      <trkpt lat="42.98626" lon="1.12376">
        <ele>471.2</ele>
        <time>2024-10-06T07:34:57Z</time>
      </trkpt>
      <trkpt lat="42.98624" lon="1.12374">
        <ele>471.2</ele>
        <time>2024-10-06T07:34:58Z</time>
      </trkpt>
      <trkpt lat="42.98613" lon="1.12363">
        <ele>471.2</ele>
        <time>2024-10-06T07:35:02Z</time>
      </trkpt>
      <trkpt lat="42.98609" lon="1.12359">
        <ele>471.2</ele>
        <time>2024-10-06T07:35:03Z</time>
      </trkpt>
      <trkpt lat="42.98594" lon="1.12351">
        <ele>471.2</ele>
        <time>2024-10-06T07:35:07Z</time>
      </trkpt>
      <trkpt lat="42.98581" lon="1.12345">
        <ele>471.2</ele>
        <time>2024-10-06T07:35:13Z</time>
      </trkpt>
      <trkpt lat="42.9857" lon="1.12343">
        <ele>471.2</ele>
        <time>2024-10-06T07:35:18Z</time>
      </trkpt>
      <trkpt lat="42.98559" lon="1.12347">
        <ele>471.2</ele>
        <time>2024-10-06T07:35:23Z</time>
      </trkpt>
      <trkpt lat="42.98552" lon="1.12349">
        <ele>471.2</ele>
        <time>2024-10-06T07:35:27Z</time>
      </trkpt>
      <trkpt lat="42.9855" lon="1.12348">
        <ele>471.2</ele>
        <time>2024-10-06T07:35:28Z</time>
      </trkpt>
      <trkpt lat="42.9854" lon="1.12335">
        <ele>471.2</ele>
        <time>2024-10-06T07:35:33Z</time>
      </trkpt>
      <trkpt lat="42.98538" lon="1.12334">
        <ele>470.8</ele>
        <time>2024-10-06T07:35:34Z</time>
      </trkpt>
      <trkpt lat="42.98536" lon="1.12334">
        <ele>470.2</ele>
        <time>2024-10-06T07:35:35Z</time>
      </trkpt>
      <trkpt lat="42.98534" lon="1.12333">
        <ele>469.6</ele>
        <time>2024-10-06T07:35:36Z</time>
      </trkpt>
      <trkpt lat="42.98532" lon="1.12333">
        <ele>469</ele>
        <time>2024-10-06T07:35:37Z</time>
      </trkpt>
      <trkpt lat="42.98529" lon="1.12333">
        <ele>468.4</ele>
        <time>2024-10-06T07:35:38Z</time>
      </trkpt>
      <trkpt lat="42.98518" lon="1.1233">
        <ele>468.4</ele>
        <time>2024-10-06T07:35:43Z</time>
      </trkpt>
      <trkpt lat="42.98504" lon="1.12323">
        <ele>468</ele>
        <time>2024-10-06T07:35:47Z</time>
      </trkpt>
      <trkpt lat="42.985" lon="1.12321">
        <ele>467.6</ele>
        <time>2024-10-06T07:35:48Z</time>
      </trkpt>
      <trkpt lat="42.98497" lon="1.12321">
        <ele>467.2</ele>
        <time>2024-10-06T07:35:49Z</time>
      </trkpt>
      <trkpt lat="42.98495" lon="1.12321">
        <ele>466.6</ele>
        <time>2024-10-06T07:35:50Z</time>
      </trkpt>
      <trkpt lat="42.98493" lon="1.12322">
        <ele>466.2</ele>
        <time>2024-10-06T07:35:51Z</time>
      </trkpt>
      <trkpt lat="42.9849" lon="1.12322">
        <ele>466.2</ele>
        <time>2024-10-06T07:35:52Z</time>
      </trkpt>
      <trkpt lat="42.98486" lon="1.12324">
        <ele>466.2</ele>
        <time>2024-10-06T07:35:54Z</time>
      </trkpt>
      <trkpt lat="42.98482" lon="1.12328">
        <ele>466.2</ele>
        <time>2024-10-06T07:35:56Z</time>
      </trkpt>
      <trkpt lat="42.98471" lon="1.12336">
        <ele>466.2</ele>
        <time>2024-10-06T07:36:01Z</time>
      </trkpt>
      <trkpt lat="42.98466" lon="1.12335">
        <ele>466.2</ele>
        <time>2024-10-06T07:36:03Z</time>
      </trkpt>
      <trkpt lat="42.98464" lon="1.12329">
        <ele>466.2</ele>
        <time>2024-10-06T07:36:05Z</time>
      </trkpt>
      <trkpt lat="42.98463" lon="1.12322">
        <ele>466.2</ele>
        <time>2024-10-06T07:36:07Z</time>
      </trkpt>
      <trkpt lat="42.98459" lon="1.12312">
        <ele>466.2</ele>
        <time>2024-10-06T07:36:09Z</time>
      </trkpt>
      <trkpt lat="42.98456" lon="1.12297">
        <ele>466.2</ele>
        <time>2024-10-06T07:36:14Z</time>
      </trkpt>
      <trkpt lat="42.98457" lon="1.12294">
        <ele>466.2</ele>
        <time>2024-10-06T07:36:16Z</time>
      </trkpt>
      <trkpt lat="42.98458" lon="1.12284">
        <ele>466.2</ele>
        <time>2024-10-06T07:36:20Z</time>
      </trkpt>
      <trkpt lat="42.98457" lon="1.12267">
        <ele>466.2</ele>
        <time>2024-10-06T07:36:25Z</time>
      </trkpt>
      <trkpt lat="42.98454" lon="1.12264">
        <ele>466.2</ele>
        <time>2024-10-06T07:36:27Z</time>
      </trkpt>
      <trkpt lat="42.98452" lon="1.12263">
        <ele>466.2</ele>
        <time>2024-10-06T07:36:29Z</time>
      </trkpt>
      <trkpt lat="42.98447" lon="1.12263">
        <ele>467.8</ele>
        <time>2024-10-06T07:40:09Z</time>
      </trkpt>
      <trkpt lat="42.98442" lon="1.12261">
        <ele>467.8</ele>
        <time>2024-10-06T07:40:12Z</time>
      </trkpt>
      <trkpt lat="42.98432" lon="1.12255">
        <ele>467.8</ele>
        <time>2024-10-06T07:40:16Z</time>
      </trkpt>
      <trkpt lat="42.9843" lon="1.12254">
        <ele>467.8</ele>
        <time>2024-10-06T07:40:17Z</time>
      </trkpt>
      <trkpt lat="42.98424" lon="1.12248">
        <ele>468.2</ele>
        <time>2024-10-06T07:40:21Z</time>
      </trkpt>
      <trkpt lat="42.98423" lon="1.12246">
        <ele>468.6</ele>
        <time>2024-10-06T07:40:22Z</time>
      </trkpt>
      <trkpt lat="42.98421" lon="1.12244">
        <ele>469</ele>
        <time>2024-10-06T07:40:23Z</time>
      </trkpt>
      <trkpt lat="42.98419" lon="1.12243">
        <ele>469.4</ele>
        <time>2024-10-06T07:40:24Z</time>
      </trkpt>
      <trkpt lat="42.98417" lon="1.12241">
        <ele>469.8</ele>
        <time>2024-10-06T07:40:25Z</time>
      </trkpt>
      <trkpt lat="42.98407" lon="1.12231">
        <ele>469.8</ele>
        <time>2024-10-06T07:40:30Z</time>
      </trkpt>
      <trkpt lat="42.98401" lon="1.12224">
        <ele>469.8</ele>
        <time>2024-10-06T07:40:35Z</time>
      </trkpt>
      <trkpt lat="42.98398" lon="1.12219">
        <ele>470.6</ele>
        <time>2024-10-06T07:40:38Z</time>
      </trkpt>
      <trkpt lat="42.98397" lon="1.12217">
        <ele>471.2</ele>
        <time>2024-10-06T07:40:39Z</time>
      </trkpt>
      <trkpt lat="42.98396" lon="1.12213">
        <ele>471.6</ele>
        <time>2024-10-06T07:40:40Z</time>
      </trkpt>
      <trkpt lat="42.98394" lon="1.1221">
        <ele>472</ele>
        <time>2024-10-06T07:40:41Z</time>
      </trkpt>
      <trkpt lat="42.98393" lon="1.12207">
        <ele>472</ele>
        <time>2024-10-06T07:40:42Z</time>
      </trkpt>
      <trkpt lat="42.98389" lon="1.12199">
        <ele>472</ele>
        <time>2024-10-06T07:40:45Z</time>
      </trkpt>
      <trkpt lat="42.98382" lon="1.12191">
        <ele>472.4</ele>
        <time>2024-10-06T07:40:48Z</time>
      </trkpt>
      <trkpt lat="42.98379" lon="1.12189">
        <ele>472.8</ele>
        <time>2024-10-06T07:40:49Z</time>
      </trkpt>
      <trkpt lat="42.98376" lon="1.12188">
        <ele>473.2</ele>
        <time>2024-10-06T07:40:50Z</time>
      </trkpt>
      <trkpt lat="42.98372" lon="1.12185">
        <ele>473.8</ele>
        <time>2024-10-06T07:40:51Z</time>
      </trkpt>
      <trkpt lat="42.98369" lon="1.12184">
        <ele>474.2</ele>
        <time>2024-10-06T07:40:52Z</time>
      </trkpt>
      <trkpt lat="42.9835" lon="1.12175">
        <ele>474.2</ele>
        <time>2024-10-06T07:40:58Z</time>
      </trkpt>
      <trkpt lat="42.98331" lon="1.12161">
        <ele>473.8</ele>
        <time>2024-10-06T07:41:03Z</time>
      </trkpt>
      <trkpt lat="42.9833" lon="1.12162">
        <ele>473.2</ele>
        <time>2024-10-06T07:41:04Z</time>
      </trkpt>
      <trkpt lat="42.98328" lon="1.12163">
        <ele>472.8</ele>
        <time>2024-10-06T07:41:05Z</time>
      </trkpt>
      <trkpt lat="42.98327" lon="1.12165">
        <ele>472.4</ele>
        <time>2024-10-06T07:41:06Z</time>
      </trkpt>
      <trkpt lat="42.98326" lon="1.12167">
        <ele>472</ele>
        <time>2024-10-06T07:41:07Z</time>
      </trkpt>
      <trkpt lat="42.98323" lon="1.12181">
        <ele>472.4</ele>
        <time>2024-10-06T07:41:11Z</time>
      </trkpt>
      <trkpt lat="42.98323" lon="1.12186">
        <ele>472.8</ele>
        <time>2024-10-06T07:41:12Z</time>
      </trkpt>
      <trkpt lat="42.98321" lon="1.1219">
        <ele>473.2</ele>
        <time>2024-10-06T07:41:13Z</time>
      </trkpt>
      <trkpt lat="42.98321" lon="1.12194">
        <ele>473.6</ele>
        <time>2024-10-06T07:41:14Z</time>
      </trkpt>
      <trkpt lat="42.9832" lon="1.12198">
        <ele>474.2</ele>
        <time>2024-10-06T07:41:15Z</time>
      </trkpt>
      <trkpt lat="42.9832" lon="1.12202">
        <ele>474.6</ele>
        <time>2024-10-06T07:41:16Z</time>
      </trkpt>
      <trkpt lat="42.9832" lon="1.12206">
        <ele>475</ele>
        <time>2024-10-06T07:41:17Z</time>
      </trkpt>
      <trkpt lat="42.9832" lon="1.12209">
        <ele>475.4</ele>
        <time>2024-10-06T07:41:18Z</time>
      </trkpt>
      <trkpt lat="42.9832" lon="1.12213">
        <ele>475.8</ele>
        <time>2024-10-06T07:41:19Z</time>
      </trkpt>
      <trkpt lat="42.9832" lon="1.12216">
        <ele>476.2</ele>
        <time>2024-10-06T07:41:20Z</time>
      </trkpt>
      <trkpt lat="42.98319" lon="1.1222">
        <ele>476.2</ele>
        <time>2024-10-06T07:41:21Z</time>
      </trkpt>
      <trkpt lat="42.9831" lon="1.12236">
        <ele>476.2</ele>
        <time>2024-10-06T07:41:26Z</time>
      </trkpt>
      <trkpt lat="42.98303" lon="1.12249">
        <ele>475.8</ele>
        <time>2024-10-06T07:41:29Z</time>
      </trkpt>
      <trkpt lat="42.98301" lon="1.12252">
        <ele>475.2</ele>
        <time>2024-10-06T07:41:30Z</time>
      </trkpt>
      <trkpt lat="42.98298" lon="1.12256">
        <ele>474.8</ele>
        <time>2024-10-06T07:41:31Z</time>
      </trkpt>
      <trkpt lat="42.98293" lon="1.1226">
        <ele>474.4</ele>
        <time>2024-10-06T07:41:32Z</time>
      </trkpt>
      <trkpt lat="42.98288" lon="1.12264">
        <ele>474</ele>
        <time>2024-10-06T07:41:33Z</time>
      </trkpt>
      <trkpt lat="42.98283" lon="1.12269">
        <ele>473.4</ele>
        <time>2024-10-06T07:41:34Z</time>
      </trkpt>
      <trkpt lat="42.98278" lon="1.12273">
        <ele>473</ele>
        <time>2024-10-06T07:41:35Z</time>
      </trkpt>
      <trkpt lat="42.98273" lon="1.12278">
        <ele>472.6</ele>
        <time>2024-10-06T07:41:36Z</time>
      </trkpt>
      <trkpt lat="42.98267" lon="1.12283">
        <ele>472</ele>
        <time>2024-10-06T07:41:37Z</time>
      </trkpt>
      <trkpt lat="42.98264" lon="1.12289">
        <ele>471.4</ele>
        <time>2024-10-06T07:41:38Z</time>
      </trkpt>
      <trkpt lat="42.98261" lon="1.12295">
        <ele>470.8</ele>
        <time>2024-10-06T07:41:39Z</time>
      </trkpt>
      <trkpt lat="42.98257" lon="1.12299">
        <ele>470</ele>
        <time>2024-10-06T07:41:40Z</time>
      </trkpt>
      <trkpt lat="42.98255" lon="1.12303">
        <ele>469.4</ele>
        <time>2024-10-06T07:41:41Z</time>
      </trkpt>
      <trkpt lat="42.98254" lon="1.12306">
        <ele>469.4</ele>
        <time>2024-10-06T07:41:42Z</time>
      </trkpt>
      <trkpt lat="42.98245" lon="1.12321">
        <ele>469.4</ele>
        <time>2024-10-06T07:41:46Z</time>
      </trkpt>
      <trkpt lat="42.98242" lon="1.12326">
        <ele>469.4</ele>
        <time>2024-10-06T07:41:47Z</time>
      </trkpt>
      <trkpt lat="42.98236" lon="1.12339">
        <ele>469.4</ele>
        <time>2024-10-06T07:41:49Z</time>
      </trkpt>
      <trkpt lat="42.98231" lon="1.12356">
        <ele>468.6</ele>
        <time>2024-10-06T07:41:51Z</time>
      </trkpt>
      <trkpt lat="42.98231" lon="1.12364">
        <ele>467.8</ele>
        <time>2024-10-06T07:41:52Z</time>
      </trkpt>
      <trkpt lat="42.98232" lon="1.12373">
        <ele>467.2</ele>
        <time>2024-10-06T07:41:53Z</time>
      </trkpt>
      <trkpt lat="42.98233" lon="1.1238">
        <ele>466.2</ele>
        <time>2024-10-06T07:41:54Z</time>
      </trkpt>
      <trkpt lat="42.98234" lon="1.12386">
        <ele>465.4</ele>
        <time>2024-10-06T07:41:55Z</time>
      </trkpt>
      <trkpt lat="42.98232" lon="1.12393">
        <ele>464.6</ele>
        <time>2024-10-06T07:41:56Z</time>
      </trkpt>
      <trkpt lat="42.98227" lon="1.12399">
        <ele>463.8</ele>
        <time>2024-10-06T07:41:57Z</time>
      </trkpt>
      <trkpt lat="42.98225" lon="1.12406">
        <ele>463</ele>
        <time>2024-10-06T07:41:58Z</time>
      </trkpt>
      <trkpt lat="42.98224" lon="1.12412">
        <ele>462.4</ele>
        <time>2024-10-06T07:41:59Z</time>
      </trkpt>
      <trkpt lat="42.98225" lon="1.12418">
        <ele>461.6</ele>
        <time>2024-10-06T07:42:00Z</time>
      </trkpt>
      <trkpt lat="42.98228" lon="1.12425">
        <ele>460.8</ele>
        <time>2024-10-06T07:42:01Z</time>
      </trkpt>
      <trkpt lat="42.98229" lon="1.12433">
        <ele>460.4</ele>
        <time>2024-10-06T07:42:02Z</time>
      </trkpt>
      <trkpt lat="42.98229" lon="1.12441">
        <ele>460</ele>
        <time>2024-10-06T07:42:03Z</time>
      </trkpt>
      <trkpt lat="42.98226" lon="1.12447">
        <ele>459.6</ele>
        <time>2024-10-06T07:42:04Z</time>
      </trkpt>
      <trkpt lat="42.98223" lon="1.12454">
        <ele>459.2</ele>
        <time>2024-10-06T07:42:05Z</time>
      </trkpt>
      <trkpt lat="42.9822" lon="1.12461">
        <ele>458.6</ele>
        <time>2024-10-06T07:42:06Z</time>
      </trkpt>
      <trkpt lat="42.98218" lon="1.12469">
        <ele>458.2</ele>
        <time>2024-10-06T07:42:08Z</time>
      </trkpt>
      <trkpt lat="42.98216" lon="1.12472">
        <ele>457.8</ele>
        <time>2024-10-06T07:42:09Z</time>
      </trkpt>
      <trkpt lat="42.98214" lon="1.12475">
        <ele>457.2</ele>
        <time>2024-10-06T07:42:10Z</time>
      </trkpt>
      <trkpt lat="42.98212" lon="1.12478">
        <ele>456.8</ele>
        <time>2024-10-06T07:42:11Z</time>
      </trkpt>
      <trkpt lat="42.9821" lon="1.12482">
        <ele>456.4</ele>
        <time>2024-10-06T07:42:12Z</time>
      </trkpt>
      <trkpt lat="42.98208" lon="1.12486">
        <ele>455.8</ele>
        <time>2024-10-06T07:42:13Z</time>
      </trkpt>
      <trkpt lat="42.98205" lon="1.1249">
        <ele>455.4</ele>
        <time>2024-10-06T07:42:14Z</time>
      </trkpt>
      <trkpt lat="42.98202" lon="1.12494">
        <ele>454.8</ele>
        <time>2024-10-06T07:42:15Z</time>
      </trkpt>
      <trkpt lat="42.98201" lon="1.125">
        <ele>453.6</ele>
        <time>2024-10-06T07:42:16Z</time>
      </trkpt>
      <trkpt lat="42.98201" lon="1.12506">
        <ele>453</ele>
        <time>2024-10-06T07:42:17Z</time>
      </trkpt>
      <trkpt lat="42.98203" lon="1.12513">
        <ele>452.4</ele>
        <time>2024-10-06T07:42:18Z</time>
      </trkpt>
      <trkpt lat="42.98205" lon="1.12517">
        <ele>451.8</ele>
        <time>2024-10-06T07:42:19Z</time>
      </trkpt>
      <trkpt lat="42.98206" lon="1.12522">
        <ele>451.4</ele>
        <time>2024-10-06T07:42:20Z</time>
      </trkpt>
      <trkpt lat="42.98206" lon="1.12525">
        <ele>450.8</ele>
        <time>2024-10-06T07:42:21Z</time>
      </trkpt>
      <trkpt lat="42.98208" lon="1.12527">
        <ele>450.4</ele>
        <time>2024-10-06T07:42:22Z</time>
      </trkpt>
      <trkpt lat="42.9821" lon="1.12529">
        <ele>449.8</ele>
        <time>2024-10-06T07:42:23Z</time>
      </trkpt>
      <trkpt lat="42.98212" lon="1.12531">
        <ele>449.4</ele>
        <time>2024-10-06T07:42:24Z</time>
      </trkpt>
      <trkpt lat="42.98215" lon="1.12534">
        <ele>449.4</ele>
        <time>2024-10-06T07:42:25Z</time>
      </trkpt>
      <trkpt lat="42.98223" lon="1.1254">
        <ele>449.4</ele>
        <time>2024-10-06T07:42:28Z</time>
      </trkpt>
      <trkpt lat="42.98227" lon="1.12542">
        <ele>449.4</ele>
        <time>2024-10-06T07:42:29Z</time>
      </trkpt>
      <trkpt lat="42.98229" lon="1.12544">
        <ele>449</ele>
        <time>2024-10-06T07:42:30Z</time>
      </trkpt>
      <trkpt lat="42.98232" lon="1.12547">
        <ele>448.4</ele>
        <time>2024-10-06T07:42:31Z</time>
      </trkpt>
      <trkpt lat="42.98236" lon="1.1255">
        <ele>448</ele>
        <time>2024-10-06T07:42:32Z</time>
      </trkpt>
      <trkpt lat="42.98239" lon="1.12557">
        <ele>447.4</ele>
        <time>2024-10-06T07:42:33Z</time>
      </trkpt>
      <trkpt lat="42.9824" lon="1.12563">
        <ele>446.6</ele>
        <time>2024-10-06T07:42:34Z</time>
      </trkpt>
      <trkpt lat="42.98238" lon="1.12567">
        <ele>446</ele>
        <time>2024-10-06T07:42:35Z</time>
      </trkpt>
      <trkpt lat="42.98237" lon="1.12573">
        <ele>445.4</ele>
        <time>2024-10-06T07:42:36Z</time>
      </trkpt>
      <trkpt lat="42.98234" lon="1.12578">
        <ele>444.8</ele>
        <time>2024-10-06T07:42:37Z</time>
      </trkpt>
      <trkpt lat="42.98232" lon="1.12584">
        <ele>444.2</ele>
        <time>2024-10-06T07:42:38Z</time>
      </trkpt>
      <trkpt lat="42.98229" lon="1.1259">
        <ele>443.6</ele>
        <time>2024-10-06T07:42:39Z</time>
      </trkpt>
      <trkpt lat="42.98227" lon="1.12596">
        <ele>442.6</ele>
        <time>2024-10-06T07:42:40Z</time>
      </trkpt>
      <trkpt lat="42.98224" lon="1.12605">
        <ele>442.6</ele>
        <time>2024-10-06T07:42:41Z</time>
      </trkpt>
      <trkpt lat="42.98221" lon="1.12613">
        <ele>442</ele>
        <time>2024-10-06T07:42:42Z</time>
      </trkpt>
      <trkpt lat="42.98218" lon="1.12622">
        <ele>441.4</ele>
        <time>2024-10-06T07:42:43Z</time>
      </trkpt>
      <trkpt lat="42.98214" lon="1.12631">
        <ele>440.8</ele>
        <time>2024-10-06T07:42:44Z</time>
      </trkpt>
      <trkpt lat="42.98211" lon="1.1264">
        <ele>440.2</ele>
        <time>2024-10-06T07:42:45Z</time>
      </trkpt>
      <trkpt lat="42.98207" lon="1.12649">
        <ele>439.8</ele>
        <time>2024-10-06T07:42:46Z</time>
      </trkpt>
      <trkpt lat="42.98203" lon="1.12658">
        <ele>439.4</ele>
        <time>2024-10-06T07:42:47Z</time>
      </trkpt>
      <trkpt lat="42.982" lon="1.12667">
        <ele>439</ele>
        <time>2024-10-06T07:42:48Z</time>
      </trkpt>
      <trkpt lat="42.98196" lon="1.12677">
        <ele>438.4</ele>
        <time>2024-10-06T07:42:49Z</time>
      </trkpt>
      <trkpt lat="42.98193" lon="1.12685">
        <ele>438</ele>
        <time>2024-10-06T07:42:50Z</time>
      </trkpt>
      <trkpt lat="42.98189" lon="1.12693">
        <ele>437.6</ele>
        <time>2024-10-06T07:42:51Z</time>
      </trkpt>
      <trkpt lat="42.98185" lon="1.12701">
        <ele>437.2</ele>
        <time>2024-10-06T07:42:52Z</time>
      </trkpt>
      <trkpt lat="42.98181" lon="1.12708">
        <ele>436.8</ele>
        <time>2024-10-06T07:42:53Z</time>
      </trkpt>
      <trkpt lat="42.98179" lon="1.12715">
        <ele>436.2</ele>
        <time>2024-10-06T07:42:54Z</time>
      </trkpt>
      <trkpt lat="42.98177" lon="1.12721">
        <ele>435.8</ele>
        <time>2024-10-06T07:42:55Z</time>
      </trkpt>
      <trkpt lat="42.98179" lon="1.12726">
        <ele>435.4</ele>
        <time>2024-10-06T07:42:56Z</time>
      </trkpt>
      <trkpt lat="42.98187" lon="1.12731">
        <ele>435.4</ele>
        <time>2024-10-06T07:42:58Z</time>
      </trkpt>
      <trkpt lat="42.98191" lon="1.12733">
        <ele>435</ele>
        <time>2024-10-06T07:42:59Z</time>
      </trkpt>
      <trkpt lat="42.98196" lon="1.12734">
        <ele>434.6</ele>
        <time>2024-10-06T07:43:00Z</time>
      </trkpt>
      <trkpt lat="42.98201" lon="1.12736">
        <ele>434</ele>
        <time>2024-10-06T07:43:01Z</time>
      </trkpt>
      <trkpt lat="42.98206" lon="1.12738">
        <ele>433.6</ele>
        <time>2024-10-06T07:43:02Z</time>
      </trkpt>
      <trkpt lat="42.98211" lon="1.12741">
        <ele>433.2</ele>
        <time>2024-10-06T07:43:03Z</time>
      </trkpt>
      <trkpt lat="42.98228" lon="1.12756">
        <ele>433.2</ele>
        <time>2024-10-06T07:43:07Z</time>
      </trkpt>
      <trkpt lat="42.98232" lon="1.12759">
        <ele>433.2</ele>
        <time>2024-10-06T07:43:08Z</time>
      </trkpt>
      <trkpt lat="42.98254" lon="1.12777">
        <ele>433.2</ele>
        <time>2024-10-06T07:43:14Z</time>
      </trkpt>
      <trkpt lat="42.98283" lon="1.12803">
        <ele>433.2</ele>
        <time>2024-10-06T07:43:22Z</time>
      </trkpt>
      <trkpt lat="42.98284" lon="1.12808">
        <ele>433.2</ele>
        <time>2024-10-06T07:43:23Z</time>
      </trkpt>
      <trkpt lat="42.98282" lon="1.12814">
        <ele>433.2</ele>
        <time>2024-10-06T07:43:24Z</time>
      </trkpt>
      <trkpt lat="42.98275" lon="1.12828">
        <ele>432.8</ele>
        <time>2024-10-06T07:43:26Z</time>
      </trkpt>
      <trkpt lat="42.98271" lon="1.12834">
        <ele>432.4</ele>
        <time>2024-10-06T07:43:27Z</time>
      </trkpt>
      <trkpt lat="42.98267" lon="1.12841">
        <ele>431.8</ele>
        <time>2024-10-06T07:43:28Z</time>
      </trkpt>
      <trkpt lat="42.98263" lon="1.12849">
        <ele>430.8</ele>
        <time>2024-10-06T07:43:29Z</time>
      </trkpt>
      <trkpt lat="42.98259" lon="1.12855">
        <ele>430.4</ele>
        <time>2024-10-06T07:43:30Z</time>
      </trkpt>
      <trkpt lat="42.98254" lon="1.12864">
        <ele>429.8</ele>
        <time>2024-10-06T07:43:31Z</time>
      </trkpt>
      <trkpt lat="42.98249" lon="1.12871">
        <ele>429.2</ele>
        <time>2024-10-06T07:43:32Z</time>
      </trkpt>
      <trkpt lat="42.98245" lon="1.12879">
        <ele>428.6</ele>
        <time>2024-10-06T07:43:33Z</time>
      </trkpt>
      <trkpt lat="42.9824" lon="1.12889">
        <ele>428</ele>
        <time>2024-10-06T07:43:34Z</time>
      </trkpt>
      <trkpt lat="42.98235" lon="1.12898">
        <ele>427.4</ele>
        <time>2024-10-06T07:43:35Z</time>
      </trkpt>
      <trkpt lat="42.98231" lon="1.12909">
        <ele>426.8</ele>
        <time>2024-10-06T07:43:36Z</time>
      </trkpt>
      <trkpt lat="42.98228" lon="1.12919">
        <ele>426.2</ele>
        <time>2024-10-06T07:43:37Z</time>
      </trkpt>
      <trkpt lat="42.98225" lon="1.12929">
        <ele>425.4</ele>
        <time>2024-10-06T07:43:38Z</time>
      </trkpt>
      <trkpt lat="42.98221" lon="1.12938">
        <ele>424.8</ele>
        <time>2024-10-06T07:43:39Z</time>
      </trkpt>
      <trkpt lat="42.98217" lon="1.12945">
        <ele>424</ele>
        <time>2024-10-06T07:43:40Z</time>
      </trkpt>
      <trkpt lat="42.98214" lon="1.12952">
        <ele>423.4</ele>
        <time>2024-10-06T07:43:41Z</time>
      </trkpt>
      <trkpt lat="42.98212" lon="1.12957">
        <ele>422.6</ele>
        <time>2024-10-06T07:43:42Z</time>
      </trkpt>
      <trkpt lat="42.98212" lon="1.12961">
        <ele>422</ele>
        <time>2024-10-06T07:43:43Z</time>
      </trkpt>
      <trkpt lat="42.98212" lon="1.12966">
        <ele>421.4</ele>
        <time>2024-10-06T07:43:44Z</time>
      </trkpt>
      <trkpt lat="42.98211" lon="1.12972">
        <ele>421</ele>
        <time>2024-10-06T07:43:45Z</time>
      </trkpt>
      <trkpt lat="42.9821" lon="1.1298">
        <ele>420.6</ele>
        <time>2024-10-06T07:43:46Z</time>
      </trkpt>
      <trkpt lat="42.98208" lon="1.12988">
        <ele>420</ele>
        <time>2024-10-06T07:43:47Z</time>
      </trkpt>
      <trkpt lat="42.98206" lon="1.12998">
        <ele>419.4</ele>
        <time>2024-10-06T07:43:48Z</time>
      </trkpt>
      <trkpt lat="42.98204" lon="1.13008">
        <ele>418.8</ele>
        <time>2024-10-06T07:43:49Z</time>
      </trkpt>
      <trkpt lat="42.98201" lon="1.1302">
        <ele>418.2</ele>
        <time>2024-10-06T07:43:50Z</time>
      </trkpt>
      <trkpt lat="42.98199" lon="1.13029">
        <ele>417.4</ele>
        <time>2024-10-06T07:43:51Z</time>
      </trkpt>
      <trkpt lat="42.98195" lon="1.13038">
        <ele>416.6</ele>
        <time>2024-10-06T07:43:52Z</time>
      </trkpt>
      <trkpt lat="42.98191" lon="1.13045">
        <ele>415.2</ele>
        <time>2024-10-06T07:43:53Z</time>
      </trkpt>
      <trkpt lat="42.98185" lon="1.13053">
        <ele>414.4</ele>
        <time>2024-10-06T07:43:54Z</time>
      </trkpt>
      <trkpt lat="42.98179" lon="1.1306">
        <ele>413.6</ele>
        <time>2024-10-06T07:43:55Z</time>
      </trkpt>
      <trkpt lat="42.98173" lon="1.13066">
        <ele>413</ele>
        <time>2024-10-06T07:43:56Z</time>
      </trkpt>
      <trkpt lat="42.98166" lon="1.13071">
        <ele>412.2</ele>
        <time>2024-10-06T07:43:57Z</time>
      </trkpt>
      <trkpt lat="42.98159" lon="1.13076">
        <ele>411.6</ele>
        <time>2024-10-06T07:43:58Z</time>
      </trkpt>
      <trkpt lat="42.98152" lon="1.13081">
        <ele>411</ele>
        <time>2024-10-06T07:43:59Z</time>
      </trkpt>
      <trkpt lat="42.98147" lon="1.13086">
        <ele>410.4</ele>
        <time>2024-10-06T07:44:00Z</time>
      </trkpt>
      <trkpt lat="42.9814" lon="1.1309">
        <ele>409.8</ele>
        <time>2024-10-06T07:44:01Z</time>
      </trkpt>
      <trkpt lat="42.98137" lon="1.13093">
        <ele>409.4</ele>
        <time>2024-10-06T07:44:02Z</time>
      </trkpt>
      <trkpt lat="42.98136" lon="1.13097">
        <ele>408.8</ele>
        <time>2024-10-06T07:44:03Z</time>
      </trkpt>
      <trkpt lat="42.98138" lon="1.13106">
        <ele>408.8</ele>
        <time>2024-10-06T07:44:05Z</time>
      </trkpt>
      <trkpt lat="42.98153" lon="1.13121">
        <ele>408.8</ele>
        <time>2024-10-06T07:44:08Z</time>
      </trkpt>
      <trkpt lat="42.98159" lon="1.13124">
        <ele>408.4</ele>
        <time>2024-10-06T07:44:09Z</time>
      </trkpt>
      <trkpt lat="42.98164" lon="1.13128">
        <ele>408</ele>
        <time>2024-10-06T07:44:10Z</time>
      </trkpt>
      <trkpt lat="42.98169" lon="1.13132">
        <ele>407.6</ele>
        <time>2024-10-06T07:44:11Z</time>
      </trkpt>
      <trkpt lat="42.98174" lon="1.13138">
        <ele>407.2</ele>
        <time>2024-10-06T07:44:12Z</time>
      </trkpt>
      <trkpt lat="42.98179" lon="1.13144">
        <ele>406.8</ele>
        <time>2024-10-06T07:44:13Z</time>
      </trkpt>
      <trkpt lat="42.98184" lon="1.13149">
        <ele>406.8</ele>
        <time>2024-10-06T07:44:14Z</time>
      </trkpt>
      <trkpt lat="42.98212" lon="1.13184">
        <ele>406.8</ele>
        <time>2024-10-06T07:44:20Z</time>
      </trkpt>
      <trkpt lat="42.98237" lon="1.13212">
        <ele>406.8</ele>
        <time>2024-10-06T07:44:25Z</time>
      </trkpt>
      <trkpt lat="42.98269" lon="1.13251">
        <ele>406.8</ele>
        <time>2024-10-06T07:44:32Z</time>
      </trkpt>
      <trkpt lat="42.98277" lon="1.13259">
        <ele>406.8</ele>
        <time>2024-10-06T07:44:34Z</time>
      </trkpt>
      <trkpt lat="42.98283" lon="1.13268">
        <ele>406.8</ele>
        <time>2024-10-06T07:44:36Z</time>
      </trkpt>
      <trkpt lat="42.98285" lon="1.13271">
        <ele>406.8</ele>
        <time>2024-10-06T07:44:39Z</time>
      </trkpt>
      <trkpt lat="42.98284" lon="1.13272">
        <ele>406.8</ele>
        <time>2024-10-06T07:44:40Z</time>
      </trkpt>
      <trkpt lat="42.98282" lon="1.13278">
        <ele>406.8</ele>
        <time>2024-10-06T07:44:44Z</time>
      </trkpt>
      <trkpt lat="42.98274" lon="1.13286">
        <ele>406.8</ele>
        <time>2024-10-06T07:44:47Z</time>
      </trkpt>
      <trkpt lat="42.98272" lon="1.1329">
        <ele>406.8</ele>
        <time>2024-10-06T07:44:48Z</time>
      </trkpt>
      <trkpt lat="42.98256" lon="1.1331">
        <ele>406.8</ele>
        <time>2024-10-06T07:44:53Z</time>
      </trkpt>
      <trkpt lat="42.98245" lon="1.13327">
        <ele>406.8</ele>
        <time>2024-10-06T07:44:58Z</time>
      </trkpt>
      <trkpt lat="42.9824" lon="1.13336">
        <ele>406.8</ele>
        <time>2024-10-06T07:45:00Z</time>
      </trkpt>
      <trkpt lat="42.98236" lon="1.13349">
        <ele>406.8</ele>
        <time>2024-10-06T07:45:02Z</time>
      </trkpt>
      <trkpt lat="42.98232" lon="1.1336">
        <ele>406.8</ele>
        <time>2024-10-06T07:45:04Z</time>
      </trkpt>
      <trkpt lat="42.98227" lon="1.13369">
        <ele>406.8</ele>
        <time>2024-10-06T07:45:06Z</time>
      </trkpt>
      <trkpt lat="42.98215" lon="1.13387">
        <ele>406.8</ele>
        <time>2024-10-06T07:45:11Z</time>
      </trkpt>
      <trkpt lat="42.98212" lon="1.1339">
        <ele>406.8</ele>
        <time>2024-10-06T07:45:13Z</time>
      </trkpt>
      <trkpt lat="42.98204" lon="1.1339">
        <ele>406.8</ele>
        <time>2024-10-06T07:45:15Z</time>
      </trkpt>
      <trkpt lat="42.9819" lon="1.13379">
        <ele>406.8</ele>
        <time>2024-10-06T07:45:18Z</time>
      </trkpt>
      <trkpt lat="42.98165" lon="1.13361">
        <ele>406.8</ele>
        <time>2024-10-06T07:45:24Z</time>
      </trkpt>
      <trkpt lat="42.98161" lon="1.13359">
        <ele>406.8</ele>
        <time>2024-10-06T07:45:25Z</time>
      </trkpt>
      <trkpt lat="42.98148" lon="1.13351">
        <ele>406.8</ele>
        <time>2024-10-06T07:45:29Z</time>
      </trkpt>
      <trkpt lat="42.98127" lon="1.13337">
        <ele>406.8</ele>
        <time>2024-10-06T07:45:35Z</time>
      </trkpt>
      <trkpt lat="42.98098" lon="1.13317">
        <ele>406.8</ele>
        <time>2024-10-06T07:45:44Z</time>
      </trkpt>
      <trkpt lat="42.9808" lon="1.13307">
        <ele>406.8</ele>
        <time>2024-10-06T07:45:50Z</time>
      </trkpt>
      <trkpt lat="42.98068" lon="1.1331">
        <ele>406.8</ele>
        <time>2024-10-06T07:45:54Z</time>
      </trkpt>
      <trkpt lat="42.98066" lon="1.13318">
        <ele>407.2</ele>
        <time>2024-10-06T07:45:56Z</time>
      </trkpt>
      <trkpt lat="42.98065" lon="1.1332">
        <ele>407.6</ele>
        <time>2024-10-06T07:45:57Z</time>
      </trkpt>
      <trkpt lat="42.98064" lon="1.13325">
        <ele>408.4</ele>
        <time>2024-10-06T07:45:58Z</time>
      </trkpt>
      <trkpt lat="42.98064" lon="1.1333">
        <ele>408.8</ele>
        <time>2024-10-06T07:45:59Z</time>
      </trkpt>
      <trkpt lat="42.98064" lon="1.13339">
        <ele>409.2</ele>
        <time>2024-10-06T07:46:01Z</time>
      </trkpt>
      <trkpt lat="42.98063" lon="1.13343">
        <ele>409.6</ele>
        <time>2024-10-06T07:46:02Z</time>
      </trkpt>
      <trkpt lat="42.98062" lon="1.13348">
        <ele>410</ele>
        <time>2024-10-06T07:46:03Z</time>
      </trkpt>
      <trkpt lat="42.98061" lon="1.13353">
        <ele>410.4</ele>
        <time>2024-10-06T07:46:04Z</time>
      </trkpt>
      <trkpt lat="42.98059" lon="1.13356">
        <ele>411</ele>
        <time>2024-10-06T07:46:05Z</time>
      </trkpt>
      <trkpt lat="42.98058" lon="1.13359">
        <ele>411.4</ele>
        <time>2024-10-06T07:46:06Z</time>
      </trkpt>
      <trkpt lat="42.98056" lon="1.13361">
        <ele>411.8</ele>
        <time>2024-10-06T07:46:07Z</time>
      </trkpt>
      <trkpt lat="42.98055" lon="1.13364">
        <ele>412.2</ele>
        <time>2024-10-06T07:46:08Z</time>
      </trkpt>
      <trkpt lat="42.98053" lon="1.13367">
        <ele>412.8</ele>
        <time>2024-10-06T07:46:09Z</time>
      </trkpt>
      <trkpt lat="42.98051" lon="1.13369">
        <ele>413.2</ele>
        <time>2024-10-06T07:46:10Z</time>
      </trkpt>
      <trkpt lat="42.98049" lon="1.13372">
        <ele>413.6</ele>
        <time>2024-10-06T07:46:11Z</time>
      </trkpt>
      <trkpt lat="42.98047" lon="1.13374">
        <ele>414.2</ele>
        <time>2024-10-06T07:46:12Z</time>
      </trkpt>
      <trkpt lat="42.98046" lon="1.13376">
        <ele>414.6</ele>
        <time>2024-10-06T07:46:13Z</time>
      </trkpt>
      <trkpt lat="42.98045" lon="1.13379">
        <ele>415.2</ele>
        <time>2024-10-06T07:46:14Z</time>
      </trkpt>
      <trkpt lat="42.98043" lon="1.13381">
        <ele>415.6</ele>
        <time>2024-10-06T07:46:15Z</time>
      </trkpt>
      <trkpt lat="42.98041" lon="1.13383">
        <ele>416</ele>
        <time>2024-10-06T07:46:16Z</time>
      </trkpt>
      <trkpt lat="42.98039" lon="1.13385">
        <ele>416.6</ele>
        <time>2024-10-06T07:46:17Z</time>
      </trkpt>
      <trkpt lat="42.98038" lon="1.13387">
        <ele>417</ele>
        <time>2024-10-06T07:46:18Z</time>
      </trkpt>
      <trkpt lat="42.98037" lon="1.13389">
        <ele>417.4</ele>
        <time>2024-10-06T07:46:19Z</time>
      </trkpt>
      <trkpt lat="42.98035" lon="1.13391">
        <ele>418</ele>
        <time>2024-10-06T07:46:20Z</time>
      </trkpt>
      <trkpt lat="42.98031" lon="1.13396">
        <ele>418.4</ele>
        <time>2024-10-06T07:46:22Z</time>
      </trkpt>
      <trkpt lat="42.9803" lon="1.13399">
        <ele>419.2</ele>
        <time>2024-10-06T07:46:23Z</time>
      </trkpt>
      <trkpt lat="42.98027" lon="1.13402">
        <ele>419.8</ele>
        <time>2024-10-06T07:46:24Z</time>
      </trkpt>
      <trkpt lat="42.98025" lon="1.13403">
        <ele>420.2</ele>
        <time>2024-10-06T07:46:25Z</time>
      </trkpt>
      <trkpt lat="42.98023" lon="1.13403">
        <ele>420.6</ele>
        <time>2024-10-06T07:46:26Z</time>
      </trkpt>
      <trkpt lat="42.98021" lon="1.13402">
        <ele>421</ele>
        <time>2024-10-06T07:46:27Z</time>
      </trkpt>
      <trkpt lat="42.9802" lon="1.13401">
        <ele>421.6</ele>
        <time>2024-10-06T07:46:28Z</time>
      </trkpt>
      <trkpt lat="42.98019" lon="1.134">
        <ele>422</ele>
        <time>2024-10-06T07:46:29Z</time>
      </trkpt>
      <trkpt lat="42.98017" lon="1.13399">
        <ele>422.4</ele>
        <time>2024-10-06T07:46:30Z</time>
      </trkpt>
      <trkpt lat="42.98013" lon="1.13395">
        <ele>422.8</ele>
        <time>2024-10-06T07:46:33Z</time>
      </trkpt>
      <trkpt lat="42.98012" lon="1.13393">
        <ele>423.2</ele>
        <time>2024-10-06T07:46:34Z</time>
      </trkpt>
      <trkpt lat="42.9801" lon="1.13391">
        <ele>423.6</ele>
        <time>2024-10-06T07:46:35Z</time>
      </trkpt>
      <trkpt lat="42.98008" lon="1.13391">
        <ele>424</ele>
        <time>2024-10-06T07:46:36Z</time>
      </trkpt>
      <trkpt lat="42.98006" lon="1.13389">
        <ele>424.4</ele>
        <time>2024-10-06T07:46:37Z</time>
      </trkpt>
      <trkpt lat="42.97999" lon="1.13389">
        <ele>424.4</ele>
        <time>2024-10-06T07:46:41Z</time>
      </trkpt>
      <trkpt lat="42.97996" lon="1.13389">
        <ele>425</ele>
        <time>2024-10-06T07:46:42Z</time>
      </trkpt>
      <trkpt lat="42.97994" lon="1.13389">
        <ele>425.4</ele>
        <time>2024-10-06T07:46:43Z</time>
      </trkpt>
      <trkpt lat="42.97993" lon="1.13389">
        <ele>425.8</ele>
        <time>2024-10-06T07:46:44Z</time>
      </trkpt>
      <trkpt lat="42.97991" lon="1.13388">
        <ele>426.4</ele>
        <time>2024-10-06T07:46:45Z</time>
      </trkpt>
      <trkpt lat="42.97988" lon="1.13388">
        <ele>426.8</ele>
        <time>2024-10-06T07:46:46Z</time>
      </trkpt>
      <trkpt lat="42.97984" lon="1.13387">
        <ele>427.6</ele>
        <time>2024-10-06T07:46:48Z</time>
      </trkpt>
      <trkpt lat="42.97982" lon="1.13386">
        <ele>428</ele>
        <time>2024-10-06T07:46:49Z</time>
      </trkpt>
      <trkpt lat="42.9798" lon="1.13385">
        <ele>428.6</ele>
        <time>2024-10-06T07:46:50Z</time>
      </trkpt>
      <trkpt lat="42.97978" lon="1.13384">
        <ele>429</ele>
        <time>2024-10-06T07:46:51Z</time>
      </trkpt>
      <trkpt lat="42.97974" lon="1.13384">
        <ele>429.4</ele>
        <time>2024-10-06T07:46:53Z</time>
      </trkpt>
      <trkpt lat="42.97972" lon="1.13384">
        <ele>429.8</ele>
        <time>2024-10-06T07:46:54Z</time>
      </trkpt>
      <trkpt lat="42.9797" lon="1.13384">
        <ele>430.4</ele>
        <time>2024-10-06T07:46:55Z</time>
      </trkpt>
      <trkpt lat="42.97968" lon="1.13383">
        <ele>430.8</ele>
        <time>2024-10-06T07:46:56Z</time>
      </trkpt>
      <trkpt lat="42.97965" lon="1.13382">
        <ele>431.4</ele>
        <time>2024-10-06T07:46:57Z</time>
      </trkpt>
      <trkpt lat="42.97961" lon="1.1338">
        <ele>431.8</ele>
        <time>2024-10-06T07:46:59Z</time>
      </trkpt>
      <trkpt lat="42.97959" lon="1.13379">
        <ele>432.2</ele>
        <time>2024-10-06T07:47:00Z</time>
      </trkpt>
      <trkpt lat="42.97957" lon="1.13378">
        <ele>432.6</ele>
        <time>2024-10-06T07:47:01Z</time>
      </trkpt>
      <trkpt lat="42.97955" lon="1.13377">
        <ele>433</ele>
        <time>2024-10-06T07:47:02Z</time>
      </trkpt>
      <trkpt lat="42.97953" lon="1.13376">
        <ele>433.4</ele>
        <time>2024-10-06T07:47:03Z</time>
      </trkpt>
      <trkpt lat="42.97947" lon="1.13375">
        <ele>433.4</ele>
        <time>2024-10-06T07:47:06Z</time>
      </trkpt>
      <trkpt lat="42.97945" lon="1.13375">
        <ele>434</ele>
        <time>2024-10-06T07:47:07Z</time>
      </trkpt>
      <trkpt lat="42.97943" lon="1.13375">
        <ele>434.4</ele>
        <time>2024-10-06T07:47:08Z</time>
      </trkpt>
      <trkpt lat="42.97941" lon="1.13374">
        <ele>434.8</ele>
        <time>2024-10-06T07:47:09Z</time>
      </trkpt>
      <trkpt lat="42.97938" lon="1.13374">
        <ele>435.4</ele>
        <time>2024-10-06T07:47:10Z</time>
      </trkpt>
      <trkpt lat="42.97936" lon="1.13374">
        <ele>435.8</ele>
        <time>2024-10-06T07:47:11Z</time>
      </trkpt>
      <trkpt lat="42.97933" lon="1.13374">
        <ele>436.8</ele>
        <time>2024-10-06T07:47:12Z</time>
      </trkpt>
      <trkpt lat="42.97931" lon="1.13374">
        <ele>437.2</ele>
        <time>2024-10-06T07:47:13Z</time>
      </trkpt>
      <trkpt lat="42.97929" lon="1.13375">
        <ele>437.6</ele>
        <time>2024-10-06T07:47:14Z</time>
      </trkpt>
      <trkpt lat="42.97927" lon="1.13374">
        <ele>438.2</ele>
        <time>2024-10-06T07:47:15Z</time>
      </trkpt>
      <trkpt lat="42.97925" lon="1.13373">
        <ele>438.6</ele>
        <time>2024-10-06T07:47:16Z</time>
      </trkpt>
      <trkpt lat="42.97923" lon="1.13372">
        <ele>439</ele>
        <time>2024-10-06T07:47:17Z</time>
      </trkpt>
      <trkpt lat="42.97921" lon="1.13372">
        <ele>439.4</ele>
        <time>2024-10-06T07:47:18Z</time>
      </trkpt>
      <trkpt lat="42.97918" lon="1.1337">
        <ele>439.8</ele>
        <time>2024-10-06T07:47:19Z</time>
      </trkpt>
      <trkpt lat="42.97916" lon="1.1337">
        <ele>440.2</ele>
        <time>2024-10-06T07:47:20Z</time>
      </trkpt>
      <trkpt lat="42.97909" lon="1.13367">
        <ele>440.6</ele>
        <time>2024-10-06T07:47:23Z</time>
      </trkpt>
      <trkpt lat="42.97906" lon="1.13366">
        <ele>441</ele>
        <time>2024-10-06T07:47:24Z</time>
      </trkpt>
      <trkpt lat="42.97904" lon="1.13366">
        <ele>441.6</ele>
        <time>2024-10-06T07:47:25Z</time>
      </trkpt>
      <trkpt lat="42.97902" lon="1.13366">
        <ele>442</ele>
        <time>2024-10-06T07:47:26Z</time>
      </trkpt>
      <trkpt lat="42.97899" lon="1.13365">
        <ele>442.4</ele>
        <time>2024-10-06T07:47:27Z</time>
      </trkpt>
      <trkpt lat="42.97895" lon="1.13365">
        <ele>442.4</ele>
        <time>2024-10-06T07:47:29Z</time>
      </trkpt>
      <trkpt lat="42.97887" lon="1.13366">
        <ele>442.8</ele>
        <time>2024-10-06T07:47:33Z</time>
      </trkpt>
      <trkpt lat="42.97885" lon="1.13367">
        <ele>443.2</ele>
        <time>2024-10-06T07:47:34Z</time>
      </trkpt>
      <trkpt lat="42.97882" lon="1.13368">
        <ele>443.6</ele>
        <time>2024-10-06T07:47:35Z</time>
      </trkpt>
      <trkpt lat="42.9788" lon="1.13368">
        <ele>444</ele>
        <time>2024-10-06T07:47:36Z</time>
      </trkpt>
      <trkpt lat="42.97878" lon="1.13368">
        <ele>444.4</ele>
        <time>2024-10-06T07:47:37Z</time>
      </trkpt>
      <trkpt lat="42.97872" lon="1.13369">
        <ele>444.8</ele>
        <time>2024-10-06T07:47:40Z</time>
      </trkpt>
      <trkpt lat="42.97869" lon="1.13369">
        <ele>445.2</ele>
        <time>2024-10-06T07:47:41Z</time>
      </trkpt>
      <trkpt lat="42.97867" lon="1.13369">
        <ele>445.6</ele>
        <time>2024-10-06T07:47:42Z</time>
      </trkpt>
      <trkpt lat="42.97865" lon="1.13369">
        <ele>446</ele>
        <time>2024-10-06T07:47:43Z</time>
      </trkpt>
      <trkpt lat="42.97864" lon="1.13369">
        <ele>446.4</ele>
        <time>2024-10-06T07:47:44Z</time>
      </trkpt>
      <trkpt lat="42.97862" lon="1.13371">
        <ele>446.4</ele>
        <time>2024-10-06T07:47:45Z</time>
      </trkpt>
      <trkpt lat="42.9786" lon="1.13371">
        <ele>446.8</ele>
        <time>2024-10-06T07:47:46Z</time>
      </trkpt>
      <trkpt lat="42.97858" lon="1.13371">
        <ele>447.2</ele>
        <time>2024-10-06T07:47:47Z</time>
      </trkpt>
      <trkpt lat="42.97855" lon="1.13372">
        <ele>447.6</ele>
        <time>2024-10-06T07:47:48Z</time>
      </trkpt>
      <trkpt lat="42.97853" lon="1.13372">
        <ele>448</ele>
        <time>2024-10-06T07:47:49Z</time>
      </trkpt>
      <trkpt lat="42.9785" lon="1.13373">
        <ele>448.6</ele>
        <time>2024-10-06T07:47:50Z</time>
      </trkpt>
      <trkpt lat="42.97848" lon="1.13373">
        <ele>448.6</ele>
        <time>2024-10-06T07:47:51Z</time>
      </trkpt>
      <trkpt lat="42.9784" lon="1.13374">
        <ele>449</ele>
        <time>2024-10-06T07:47:54Z</time>
      </trkpt>
      <trkpt lat="42.97837" lon="1.13374">
        <ele>449.4</ele>
        <time>2024-10-06T07:47:55Z</time>
      </trkpt>
      <trkpt lat="42.97835" lon="1.13375">
        <ele>449.8</ele>
        <time>2024-10-06T07:47:56Z</time>
      </trkpt>
      <trkpt lat="42.97833" lon="1.13378">
        <ele>450.2</ele>
        <time>2024-10-06T07:47:57Z</time>
      </trkpt>
      <trkpt lat="42.97832" lon="1.1338">
        <ele>450.6</ele>
        <time>2024-10-06T07:47:58Z</time>
      </trkpt>
      <trkpt lat="42.97829" lon="1.13392">
        <ele>451</ele>
        <time>2024-10-06T07:48:02Z</time>
      </trkpt>
      <trkpt lat="42.97828" lon="1.13394">
        <ele>451.4</ele>
        <time>2024-10-06T07:48:03Z</time>
      </trkpt>
      <trkpt lat="42.97827" lon="1.13397">
        <ele>452</ele>
        <time>2024-10-06T07:48:04Z</time>
      </trkpt>
      <trkpt lat="42.97826" lon="1.13401">
        <ele>452.4</ele>
        <time>2024-10-06T07:48:05Z</time>
      </trkpt>
      <trkpt lat="42.97825" lon="1.13404">
        <ele>452.8</ele>
        <time>2024-10-06T07:48:06Z</time>
      </trkpt>
      <trkpt lat="42.97819" lon="1.13414">
        <ele>453.2</ele>
        <time>2024-10-06T07:48:10Z</time>
      </trkpt>
      <trkpt lat="42.97818" lon="1.13417">
        <ele>453.6</ele>
        <time>2024-10-06T07:48:11Z</time>
      </trkpt>
      <trkpt lat="42.97816" lon="1.13419">
        <ele>454.2</ele>
        <time>2024-10-06T07:48:12Z</time>
      </trkpt>
      <trkpt lat="42.97814" lon="1.13422">
        <ele>454.6</ele>
        <time>2024-10-06T07:48:13Z</time>
      </trkpt>
      <trkpt lat="42.97813" lon="1.13425">
        <ele>455</ele>
        <time>2024-10-06T07:48:14Z</time>
      </trkpt>
      <trkpt lat="42.97801" lon="1.13437">
        <ele>455.4</ele>
        <time>2024-10-06T07:48:20Z</time>
      </trkpt>
      <trkpt lat="42.97799" lon="1.13438">
        <ele>455.8</ele>
        <time>2024-10-06T07:48:21Z</time>
      </trkpt>
      <trkpt lat="42.97797" lon="1.13439">
        <ele>456.2</ele>
        <time>2024-10-06T07:48:22Z</time>
      </trkpt>
      <trkpt lat="42.97795" lon="1.13441">
        <ele>456.6</ele>
        <time>2024-10-06T07:48:23Z</time>
      </trkpt>
      <trkpt lat="42.97792" lon="1.13442">
        <ele>457</ele>
        <time>2024-10-06T07:48:24Z</time>
      </trkpt>
      <trkpt lat="42.97783" lon="1.13446">
        <ele>457</ele>
        <time>2024-10-06T07:48:28Z</time>
      </trkpt>
      <trkpt lat="42.97767" lon="1.13449">
        <ele>457.4</ele>
        <time>2024-10-06T07:48:34Z</time>
      </trkpt>
      <trkpt lat="42.97764" lon="1.1345">
        <ele>457.8</ele>
        <time>2024-10-06T07:48:35Z</time>
      </trkpt>
      <trkpt lat="42.9776" lon="1.13451">
        <ele>458.2</ele>
        <time>2024-10-06T07:48:36Z</time>
      </trkpt>
      <trkpt lat="42.97758" lon="1.13453">
        <ele>458.6</ele>
        <time>2024-10-06T07:48:37Z</time>
      </trkpt>
      <trkpt lat="42.97756" lon="1.13455">
        <ele>459</ele>
        <time>2024-10-06T07:48:38Z</time>
      </trkpt>
      <trkpt lat="42.97752" lon="1.13459">
        <ele>459</ele>
        <time>2024-10-06T07:48:40Z</time>
      </trkpt>
      <trkpt lat="42.97743" lon="1.13469">
        <ele>459.4</ele>
        <time>2024-10-06T07:48:44Z</time>
      </trkpt>
      <trkpt lat="42.97741" lon="1.13473">
        <ele>459.8</ele>
        <time>2024-10-06T07:48:45Z</time>
      </trkpt>
      <trkpt lat="42.9774" lon="1.13476">
        <ele>460.2</ele>
        <time>2024-10-06T07:48:46Z</time>
      </trkpt>
      <trkpt lat="42.97739" lon="1.13479">
        <ele>460.6</ele>
        <time>2024-10-06T07:48:47Z</time>
      </trkpt>
      <trkpt lat="42.97737" lon="1.13482">
        <ele>461</ele>
        <time>2024-10-06T07:48:48Z</time>
      </trkpt>
      <trkpt lat="42.97731" lon="1.13497">
        <ele>461</ele>
        <time>2024-10-06T07:48:53Z</time>
      </trkpt>
      <trkpt lat="42.97731" lon="1.13501">
        <ele>461</ele>
        <time>2024-10-06T07:48:54Z</time>
      </trkpt>
      <trkpt lat="42.97732" lon="1.13511">
        <ele>461</ele>
        <time>2024-10-06T07:48:57Z</time>
      </trkpt>
      <trkpt lat="42.97735" lon="1.13526">
        <ele>461</ele>
        <time>2024-10-06T07:49:03Z</time>
      </trkpt>
      <trkpt lat="42.97735" lon="1.13529">
        <ele>461</ele>
        <time>2024-10-06T07:49:04Z</time>
      </trkpt>
      <trkpt lat="42.97729" lon="1.13533">
        <ele>461</ele>
        <time>2024-10-06T07:49:09Z</time>
      </trkpt>
      <trkpt lat="42.97729" lon="1.13533">
        <ele>461</ele>
        <time>2024-10-06T07:49:11Z</time>
      </trkpt>
      <trkpt lat="42.97729" lon="1.13533">
        <ele>461</ele>
        <time>2024-10-06T07:49:25Z</time>
      </trkpt>
      <trkpt lat="42.97727" lon="1.13532">
        <ele>461</ele>
        <time>2024-10-06T07:49:26Z</time>
      </trkpt>
      <trkpt lat="42.97707" lon="1.13536">
        <ele>461</ele>
        <time>2024-10-06T07:49:31Z</time>
      </trkpt>
      <trkpt lat="42.97691" lon="1.13552">
        <ele>461</ele>
        <time>2024-10-06T07:49:35Z</time>
      </trkpt>
      <trkpt lat="42.97676" lon="1.13562">
        <ele>460.6</ele>
        <time>2024-10-06T07:49:38Z</time>
      </trkpt>
      <trkpt lat="42.97671" lon="1.13563">
        <ele>460.2</ele>
        <time>2024-10-06T07:49:39Z</time>
      </trkpt>
      <trkpt lat="42.97667" lon="1.13563">
        <ele>459.8</ele>
        <time>2024-10-06T07:49:40Z</time>
      </trkpt>
      <trkpt lat="42.97662" lon="1.13563">
        <ele>458.8</ele>
        <time>2024-10-06T07:49:41Z</time>
      </trkpt>
      <trkpt lat="42.9765" lon="1.13565">
        <ele>458.8</ele>
        <time>2024-10-06T07:49:44Z</time>
      </trkpt>
      <trkpt lat="42.97626" lon="1.13569">
        <ele>458.8</ele>
        <time>2024-10-06T07:49:51Z</time>
      </trkpt>
      <trkpt lat="42.97604" lon="1.13572">
        <ele>458.8</ele>
        <time>2024-10-06T07:49:58Z</time>
      </trkpt>
      <trkpt lat="42.97597" lon="1.13571">
        <ele>459.2</ele>
        <time>2024-10-06T07:50:00Z</time>
      </trkpt>
      <trkpt lat="42.97594" lon="1.1357">
        <ele>459.6</ele>
        <time>2024-10-06T07:50:01Z</time>
      </trkpt>
      <trkpt lat="42.97591" lon="1.13569">
        <ele>460</ele>
        <time>2024-10-06T07:50:02Z</time>
      </trkpt>
      <trkpt lat="42.97588" lon="1.13569">
        <ele>460.4</ele>
        <time>2024-10-06T07:50:03Z</time>
      </trkpt>
      <trkpt lat="42.97585" lon="1.13568">
        <ele>460.8</ele>
        <time>2024-10-06T07:50:04Z</time>
      </trkpt>
      <trkpt lat="42.97582" lon="1.13568">
        <ele>460.8</ele>
        <time>2024-10-06T07:50:05Z</time>
      </trkpt>
      <trkpt lat="42.97559" lon="1.13571">
        <ele>460.8</ele>
        <time>2024-10-06T07:50:11Z</time>
      </trkpt>
      <trkpt lat="42.97546" lon="1.13573">
        <ele>460.8</ele>
        <time>2024-10-06T07:50:14Z</time>
      </trkpt>
      <trkpt lat="42.97531" lon="1.13574">
        <ele>460.8</ele>
        <time>2024-10-06T07:50:17Z</time>
      </trkpt>
      <trkpt lat="42.97506" lon="1.13577">
        <ele>460.8</ele>
        <time>2024-10-06T07:50:22Z</time>
      </trkpt>
      <trkpt lat="42.97482" lon="1.13579">
        <ele>460.8</ele>
        <time>2024-10-06T07:50:28Z</time>
      </trkpt>
      <trkpt lat="42.97462" lon="1.13577">
        <ele>461.2</ele>
        <time>2024-10-06T07:50:34Z</time>
      </trkpt>
      <trkpt lat="42.97459" lon="1.13577">
        <ele>461.6</ele>
        <time>2024-10-06T07:50:35Z</time>
      </trkpt>
      <trkpt lat="42.97456" lon="1.13577">
        <ele>462</ele>
        <time>2024-10-06T07:50:36Z</time>
      </trkpt>
      <trkpt lat="42.97453" lon="1.13577">
        <ele>462.4</ele>
        <time>2024-10-06T07:50:37Z</time>
      </trkpt>
      <trkpt lat="42.9745" lon="1.13577">
        <ele>462.8</ele>
        <time>2024-10-06T07:50:38Z</time>
      </trkpt>
      <trkpt lat="42.97444" lon="1.13578">
        <ele>462.8</ele>
        <time>2024-10-06T07:50:40Z</time>
      </trkpt>
      <trkpt lat="42.97439" lon="1.1358">
        <ele>463.2</ele>
        <time>2024-10-06T07:50:42Z</time>
      </trkpt>
      <trkpt lat="42.97436" lon="1.13582">
        <ele>463.8</ele>
        <time>2024-10-06T07:50:43Z</time>
      </trkpt>
      <trkpt lat="42.97433" lon="1.13583">
        <ele>464.2</ele>
        <time>2024-10-06T07:50:44Z</time>
      </trkpt>
      <trkpt lat="42.97431" lon="1.13585">
        <ele>464.6</ele>
        <time>2024-10-06T07:50:45Z</time>
      </trkpt>
      <trkpt lat="42.97428" lon="1.13586">
        <ele>465</ele>
        <time>2024-10-06T07:50:46Z</time>
      </trkpt>
      <trkpt lat="42.97422" lon="1.13589">
        <ele>465.4</ele>
        <time>2024-10-06T07:50:48Z</time>
      </trkpt>
      <trkpt lat="42.97419" lon="1.13591">
        <ele>465.8</ele>
        <time>2024-10-06T07:50:49Z</time>
      </trkpt>
      <trkpt lat="42.97417" lon="1.13592">
        <ele>466.2</ele>
        <time>2024-10-06T07:50:50Z</time>
      </trkpt>
      <trkpt lat="42.97414" lon="1.13594">
        <ele>466.6</ele>
        <time>2024-10-06T07:50:51Z</time>
      </trkpt>
      <trkpt lat="42.97411" lon="1.13596">
        <ele>467</ele>
        <time>2024-10-06T07:50:52Z</time>
      </trkpt>
      <trkpt lat="42.97406" lon="1.13599">
        <ele>467</ele>
        <time>2024-10-06T07:50:54Z</time>
      </trkpt>
      <trkpt lat="42.97404" lon="1.13601">
        <ele>467.8</ele>
        <time>2024-10-06T07:50:55Z</time>
      </trkpt>
      <trkpt lat="42.97401" lon="1.13602">
        <ele>468.2</ele>
        <time>2024-10-06T07:50:56Z</time>
      </trkpt>
      <trkpt lat="42.97398" lon="1.13603">
        <ele>468.6</ele>
        <time>2024-10-06T07:50:57Z</time>
      </trkpt>
      <trkpt lat="42.97395" lon="1.13604">
        <ele>469.2</ele>
        <time>2024-10-06T07:50:58Z</time>
      </trkpt>
      <trkpt lat="42.97392" lon="1.13604">
        <ele>469.2</ele>
        <time>2024-10-06T07:50:59Z</time>
      </trkpt>
      <trkpt lat="42.97376" lon="1.13598">
        <ele>469.2</ele>
        <time>2024-10-06T07:51:05Z</time>
      </trkpt>
      <trkpt lat="42.97368" lon="1.13595">
        <ele>469.6</ele>
        <time>2024-10-06T07:51:08Z</time>
      </trkpt>
      <trkpt lat="42.97365" lon="1.13594">
        <ele>470</ele>
        <time>2024-10-06T07:51:09Z</time>
      </trkpt>
      <trkpt lat="42.97362" lon="1.13594">
        <ele>470.4</ele>
        <time>2024-10-06T07:51:10Z</time>
      </trkpt>
      <trkpt lat="42.9736" lon="1.13593">
        <ele>470.8</ele>
        <time>2024-10-06T07:51:11Z</time>
      </trkpt>
      <trkpt lat="42.97357" lon="1.13592">
        <ele>471.2</ele>
        <time>2024-10-06T07:51:12Z</time>
      </trkpt>
      <trkpt lat="42.97355" lon="1.13591">
        <ele>471.2</ele>
        <time>2024-10-06T07:51:13Z</time>
      </trkpt>
      <trkpt lat="42.97342" lon="1.13585">
        <ele>471.6</ele>
        <time>2024-10-06T07:51:19Z</time>
      </trkpt>
      <trkpt lat="42.97339" lon="1.13584">
        <ele>472.4</ele>
        <time>2024-10-06T07:51:20Z</time>
      </trkpt>
      <trkpt lat="42.97337" lon="1.13583">
        <ele>472.8</ele>
        <time>2024-10-06T07:51:21Z</time>
      </trkpt>
      <trkpt lat="42.97335" lon="1.13583">
        <ele>473.2</ele>
        <time>2024-10-06T07:51:22Z</time>
      </trkpt>
      <trkpt lat="42.97327" lon="1.13581">
        <ele>473.6</ele>
        <time>2024-10-06T07:51:26Z</time>
      </trkpt>
      <trkpt lat="42.97325" lon="1.13582">
        <ele>474</ele>
        <time>2024-10-06T07:51:27Z</time>
      </trkpt>
      <trkpt lat="42.97323" lon="1.13582">
        <ele>474.6</ele>
        <time>2024-10-06T07:51:28Z</time>
      </trkpt>
      <trkpt lat="42.97321" lon="1.13583">
        <ele>475</ele>
        <time>2024-10-06T07:51:29Z</time>
      </trkpt>
      <trkpt lat="42.97319" lon="1.13584">
        <ele>475.4</ele>
        <time>2024-10-06T07:51:30Z</time>
      </trkpt>
      <trkpt lat="42.97313" lon="1.13589">
        <ele>475.4</ele>
        <time>2024-10-06T07:51:33Z</time>
      </trkpt>
      <trkpt lat="42.9731" lon="1.13593">
        <ele>475.8</ele>
        <time>2024-10-06T07:51:35Z</time>
      </trkpt>
      <trkpt lat="42.97308" lon="1.13595">
        <ele>476.2</ele>
        <time>2024-10-06T07:51:36Z</time>
      </trkpt>
      <trkpt lat="42.97307" lon="1.13597">
        <ele>476.6</ele>
        <time>2024-10-06T07:51:37Z</time>
      </trkpt>
      <trkpt lat="42.97305" lon="1.13599">
        <ele>477</ele>
        <time>2024-10-06T07:51:38Z</time>
      </trkpt>
      <trkpt lat="42.97304" lon="1.136">
        <ele>477.4</ele>
        <time>2024-10-06T07:51:39Z</time>
      </trkpt>
      <trkpt lat="42.97302" lon="1.13602">
        <ele>477.4</ele>
        <time>2024-10-06T07:51:40Z</time>
      </trkpt>
      <trkpt lat="42.97301" lon="1.13603">
        <ele>477.4</ele>
        <time>2024-10-06T07:51:41Z</time>
      </trkpt>
      <trkpt lat="42.97297" lon="1.13604">
        <ele>477.8</ele>
        <time>2024-10-06T07:51:43Z</time>
      </trkpt>
      <trkpt lat="42.97295" lon="1.13604">
        <ele>478.2</ele>
        <time>2024-10-06T07:51:44Z</time>
      </trkpt>
      <trkpt lat="42.97293" lon="1.13604">
        <ele>479</ele>
        <time>2024-10-06T07:51:45Z</time>
      </trkpt>
      <trkpt lat="42.97291" lon="1.13604">
        <ele>479.4</ele>
        <time>2024-10-06T07:51:46Z</time>
      </trkpt>
      <trkpt lat="42.97284" lon="1.13605">
        <ele>480</ele>
        <time>2024-10-06T07:51:49Z</time>
      </trkpt>
      <trkpt lat="42.97282" lon="1.13605">
        <ele>480.4</ele>
        <time>2024-10-06T07:51:50Z</time>
      </trkpt>
      <trkpt lat="42.9728" lon="1.13606">
        <ele>480.8</ele>
        <time>2024-10-06T07:51:51Z</time>
      </trkpt>
      <trkpt lat="42.97279" lon="1.13606">
        <ele>481.2</ele>
        <time>2024-10-06T07:51:52Z</time>
      </trkpt>
      <trkpt lat="42.97277" lon="1.13606">
        <ele>481.6</ele>
        <time>2024-10-06T07:51:53Z</time>
      </trkpt>
      <trkpt lat="42.97273" lon="1.13607">
        <ele>481.6</ele>
        <time>2024-10-06T07:51:55Z</time>
      </trkpt>
      <trkpt lat="42.97267" lon="1.13608">
        <ele>482</ele>
        <time>2024-10-06T07:51:58Z</time>
      </trkpt>
      <trkpt lat="42.97265" lon="1.13609">
        <ele>482.4</ele>
        <time>2024-10-06T07:51:59Z</time>
      </trkpt>
      <trkpt lat="42.97263" lon="1.1361">
        <ele>482.8</ele>
        <time>2024-10-06T07:52:00Z</time>
      </trkpt>
      <trkpt lat="42.97261" lon="1.1361">
        <ele>483.2</ele>
        <time>2024-10-06T07:52:01Z</time>
      </trkpt>
      <trkpt lat="42.97259" lon="1.1361">
        <ele>483.6</ele>
        <time>2024-10-06T07:52:02Z</time>
      </trkpt>
      <trkpt lat="42.97257" lon="1.1361">
        <ele>483.6</ele>
        <time>2024-10-06T07:52:03Z</time>
      </trkpt>
      <trkpt lat="42.97246" lon="1.13612">
        <ele>484</ele>
        <time>2024-10-06T07:52:09Z</time>
      </trkpt>
      <trkpt lat="42.97245" lon="1.13613">
        <ele>484.6</ele>
        <time>2024-10-06T07:52:10Z</time>
      </trkpt>
      <trkpt lat="42.97243" lon="1.13613">
        <ele>485</ele>
        <time>2024-10-06T07:52:11Z</time>
      </trkpt>
      <trkpt lat="42.97242" lon="1.13613">
        <ele>485.4</ele>
        <time>2024-10-06T07:52:12Z</time>
      </trkpt>
      <trkpt lat="42.97241" lon="1.13614">
        <ele>485.8</ele>
        <time>2024-10-06T07:52:13Z</time>
      </trkpt>
      <trkpt lat="42.97232" lon="1.13615">
        <ele>486.2</ele>
        <time>2024-10-06T07:52:19Z</time>
      </trkpt>
      <trkpt lat="42.9723" lon="1.13615">
        <ele>486.6</ele>
        <time>2024-10-06T07:52:20Z</time>
      </trkpt>
      <trkpt lat="42.97228" lon="1.13615">
        <ele>487</ele>
        <time>2024-10-06T07:52:21Z</time>
      </trkpt>
      <trkpt lat="42.97226" lon="1.13614">
        <ele>487.4</ele>
        <time>2024-10-06T07:52:22Z</time>
      </trkpt>
      <trkpt lat="42.97224" lon="1.13614">
        <ele>487.8</ele>
        <time>2024-10-06T07:52:23Z</time>
      </trkpt>
      <trkpt lat="42.9722" lon="1.13613">
        <ele>488.2</ele>
        <time>2024-10-06T07:52:25Z</time>
      </trkpt>
      <trkpt lat="42.97217" lon="1.13613">
        <ele>488.6</ele>
        <time>2024-10-06T07:52:26Z</time>
      </trkpt>
      <trkpt lat="42.97215" lon="1.13613">
        <ele>489</ele>
        <time>2024-10-06T07:52:27Z</time>
      </trkpt>
      <trkpt lat="42.97213" lon="1.13613">
        <ele>489.4</ele>
        <time>2024-10-06T07:52:28Z</time>
      </trkpt>
      <trkpt lat="42.9721" lon="1.13613">
        <ele>489.8</ele>
        <time>2024-10-06T07:52:29Z</time>
      </trkpt>
      <trkpt lat="42.97204" lon="1.13613">
        <ele>490.4</ele>
        <time>2024-10-06T07:52:32Z</time>
      </trkpt>
      <trkpt lat="42.97202" lon="1.13613">
        <ele>490.8</ele>
        <time>2024-10-06T07:52:33Z</time>
      </trkpt>
      <trkpt lat="42.972" lon="1.13613">
        <ele>491.6</ele>
        <time>2024-10-06T07:52:34Z</time>
      </trkpt>
      <trkpt lat="42.97198" lon="1.13613">
        <ele>492</ele>
        <time>2024-10-06T07:52:35Z</time>
      </trkpt>
      <trkpt lat="42.97192" lon="1.13612">
        <ele>492.4</ele>
        <time>2024-10-06T07:52:38Z</time>
      </trkpt>
      <trkpt lat="42.9719" lon="1.13612">
        <ele>492.8</ele>
        <time>2024-10-06T07:52:39Z</time>
      </trkpt>
      <trkpt lat="42.97188" lon="1.13612">
        <ele>493.2</ele>
        <time>2024-10-06T07:52:40Z</time>
      </trkpt>
      <trkpt lat="42.97187" lon="1.13612">
        <ele>493.6</ele>
        <time>2024-10-06T07:52:41Z</time>
      </trkpt>
      <trkpt lat="42.97184" lon="1.13612">
        <ele>494.2</ele>
        <time>2024-10-06T07:52:42Z</time>
      </trkpt>
      <trkpt lat="42.97178" lon="1.13612">
        <ele>494.6</ele>
        <time>2024-10-06T07:52:45Z</time>
      </trkpt>
      <trkpt lat="42.97176" lon="1.13612">
        <ele>495</ele>
        <time>2024-10-06T07:52:46Z</time>
      </trkpt>
      <trkpt lat="42.97174" lon="1.13612">
        <ele>495.4</ele>
        <time>2024-10-06T07:52:47Z</time>
      </trkpt>
      <trkpt lat="42.97172" lon="1.13611">
        <ele>495.8</ele>
        <time>2024-10-06T07:52:48Z</time>
      </trkpt>
      <trkpt lat="42.9717" lon="1.13611">
        <ele>496.4</ele>
        <time>2024-10-06T07:52:49Z</time>
      </trkpt>
      <trkpt lat="42.97163" lon="1.1361">
        <ele>496.8</ele>
        <time>2024-10-06T07:52:52Z</time>
      </trkpt>
      <trkpt lat="42.97161" lon="1.1361">
        <ele>497.2</ele>
        <time>2024-10-06T07:52:53Z</time>
      </trkpt>
      <trkpt lat="42.97159" lon="1.13609">
        <ele>497.6</ele>
        <time>2024-10-06T07:52:54Z</time>
      </trkpt>
      <trkpt lat="42.97157" lon="1.13608">
        <ele>498</ele>
        <time>2024-10-06T07:52:55Z</time>
      </trkpt>
      <trkpt lat="42.97154" lon="1.13608">
        <ele>498.4</ele>
        <time>2024-10-06T07:52:56Z</time>
      </trkpt>
      <trkpt lat="42.97152" lon="1.13607">
        <ele>498.4</ele>
        <time>2024-10-06T07:52:57Z</time>
      </trkpt>
      <trkpt lat="42.97144" lon="1.13604">
        <ele>498.8</ele>
        <time>2024-10-06T07:53:01Z</time>
      </trkpt>
      <trkpt lat="42.97142" lon="1.13603">
        <ele>499.2</ele>
        <time>2024-10-06T07:53:02Z</time>
      </trkpt>
      <trkpt lat="42.9714" lon="1.13603">
        <ele>499.6</ele>
        <time>2024-10-06T07:53:03Z</time>
      </trkpt>
      <trkpt lat="42.97138" lon="1.13602">
        <ele>500.2</ele>
        <time>2024-10-06T07:53:04Z</time>
      </trkpt>
      <trkpt lat="42.97137" lon="1.13601">
        <ele>500.6</ele>
        <time>2024-10-06T07:53:05Z</time>
      </trkpt>
      <trkpt lat="42.97131" lon="1.136">
        <ele>501</ele>
        <time>2024-10-06T07:53:08Z</time>
      </trkpt>
      <trkpt lat="42.97129" lon="1.13599">
        <ele>501.4</ele>
        <time>2024-10-06T07:53:09Z</time>
      </trkpt>
      <trkpt lat="42.97127" lon="1.13599">
        <ele>501.8</ele>
        <time>2024-10-06T07:53:10Z</time>
      </trkpt>
      <trkpt lat="42.97125" lon="1.13598">
        <ele>502.2</ele>
        <time>2024-10-06T07:53:11Z</time>
      </trkpt>
      <trkpt lat="42.97123" lon="1.13598">
        <ele>502.6</ele>
        <time>2024-10-06T07:53:12Z</time>
      </trkpt>
      <trkpt lat="42.97118" lon="1.13596">
        <ele>503</ele>
        <time>2024-10-06T07:53:15Z</time>
      </trkpt>
      <trkpt lat="42.97118" lon="1.13595">
        <ele>503.4</ele>
        <time>2024-10-06T07:53:16Z</time>
      </trkpt>
      <trkpt lat="42.97114" lon="1.13595">
        <ele>504.8</ele>
        <time>2024-10-06T07:53:21Z</time>
      </trkpt>
      <trkpt lat="42.97106" lon="1.13591">
        <ele>505.2</ele>
        <time>2024-10-06T07:53:26Z</time>
      </trkpt>
      <trkpt lat="42.97104" lon="1.1359">
        <ele>505.6</ele>
        <time>2024-10-06T07:53:27Z</time>
      </trkpt>
      <trkpt lat="42.97102" lon="1.13588">
        <ele>506</ele>
        <time>2024-10-06T07:53:28Z</time>
      </trkpt>
      <trkpt lat="42.971" lon="1.13586">
        <ele>506.6</ele>
        <time>2024-10-06T07:53:29Z</time>
      </trkpt>
      <trkpt lat="42.97098" lon="1.13585">
        <ele>507</ele>
        <time>2024-10-06T07:53:30Z</time>
      </trkpt>
      <trkpt lat="42.97097" lon="1.13583">
        <ele>507.4</ele>
        <time>2024-10-06T07:53:31Z</time>
      </trkpt>
      <trkpt lat="42.97095" lon="1.13582">
        <ele>507.8</ele>
        <time>2024-10-06T07:53:32Z</time>
      </trkpt>
      <trkpt lat="42.97093" lon="1.1358">
        <ele>508.2</ele>
        <time>2024-10-06T07:53:33Z</time>
      </trkpt>
      <trkpt lat="42.97091" lon="1.13578">
        <ele>508.6</ele>
        <time>2024-10-06T07:53:34Z</time>
      </trkpt>
      <trkpt lat="42.97088" lon="1.13577">
        <ele>509</ele>
        <time>2024-10-06T07:53:35Z</time>
      </trkpt>
      <trkpt lat="42.97083" lon="1.13576">
        <ele>509.4</ele>
        <time>2024-10-06T07:53:37Z</time>
      </trkpt>
      <trkpt lat="42.97081" lon="1.13576">
        <ele>509.8</ele>
        <time>2024-10-06T07:53:38Z</time>
      </trkpt>
      <trkpt lat="42.97078" lon="1.13577">
        <ele>510.4</ele>
        <time>2024-10-06T07:53:39Z</time>
      </trkpt>
      <trkpt lat="42.97076" lon="1.13579">
        <ele>510.8</ele>
        <time>2024-10-06T07:53:40Z</time>
      </trkpt>
      <trkpt lat="42.97074" lon="1.1358">
        <ele>511.2</ele>
        <time>2024-10-06T07:53:41Z</time>
      </trkpt>
      <trkpt lat="42.9707" lon="1.13581">
        <ele>511.6</ele>
        <time>2024-10-06T07:53:43Z</time>
      </trkpt>
      <trkpt lat="42.97068" lon="1.13582">
        <ele>512</ele>
        <time>2024-10-06T07:53:44Z</time>
      </trkpt>
      <trkpt lat="42.97066" lon="1.13583">
        <ele>512.6</ele>
        <time>2024-10-06T07:53:45Z</time>
      </trkpt>
      <trkpt lat="42.97064" lon="1.13584">
        <ele>513</ele>
        <time>2024-10-06T07:53:46Z</time>
      </trkpt>
      <trkpt lat="42.97062" lon="1.13585">
        <ele>513.4</ele>
        <time>2024-10-06T07:53:47Z</time>
      </trkpt>
      <trkpt lat="42.97055" lon="1.13589">
        <ele>513.8</ele>
        <time>2024-10-06T07:53:51Z</time>
      </trkpt>
      <trkpt lat="42.97053" lon="1.1359">
        <ele>514.4</ele>
        <time>2024-10-06T07:53:52Z</time>
      </trkpt>
      <trkpt lat="42.97052" lon="1.13592">
        <ele>514.8</ele>
        <time>2024-10-06T07:53:53Z</time>
      </trkpt>
      <trkpt lat="42.9705" lon="1.13593">
        <ele>515.2</ele>
        <time>2024-10-06T07:53:54Z</time>
      </trkpt>
      <trkpt lat="42.97048" lon="1.13594">
        <ele>515.6</ele>
        <time>2024-10-06T07:53:55Z</time>
      </trkpt>
      <trkpt lat="42.97044" lon="1.13599">
        <ele>516</ele>
        <time>2024-10-06T07:53:58Z</time>
      </trkpt>
      <trkpt lat="42.97042" lon="1.13601">
        <ele>516.4</ele>
        <time>2024-10-06T07:53:59Z</time>
      </trkpt>
      <trkpt lat="42.97041" lon="1.13603">
        <ele>517</ele>
        <time>2024-10-06T07:54:00Z</time>
      </trkpt>
      <trkpt lat="42.9704" lon="1.13605">
        <ele>517.4</ele>
        <time>2024-10-06T07:54:01Z</time>
      </trkpt>
      <trkpt lat="42.97039" lon="1.13607">
        <ele>517.8</ele>
        <time>2024-10-06T07:54:02Z</time>
      </trkpt>
      <trkpt lat="42.97035" lon="1.13616">
        <ele>518.2</ele>
        <time>2024-10-06T07:54:06Z</time>
      </trkpt>
      <trkpt lat="42.97033" lon="1.13619">
        <ele>518.6</ele>
        <time>2024-10-06T07:54:07Z</time>
      </trkpt>
      <trkpt lat="42.97032" lon="1.13621">
        <ele>519</ele>
        <time>2024-10-06T07:54:08Z</time>
      </trkpt>
      <trkpt lat="42.9703" lon="1.13623">
        <ele>519.4</ele>
        <time>2024-10-06T07:54:09Z</time>
      </trkpt>
      <trkpt lat="42.97029" lon="1.13625">
        <ele>520</ele>
        <time>2024-10-06T07:54:10Z</time>
      </trkpt>
      <trkpt lat="42.97022" lon="1.13637">
        <ele>520.4</ele>
        <time>2024-10-06T07:54:15Z</time>
      </trkpt>
      <trkpt lat="42.97021" lon="1.13639">
        <ele>520.8</ele>
        <time>2024-10-06T07:54:16Z</time>
      </trkpt>
      <trkpt lat="42.9702" lon="1.13642">
        <ele>521.2</ele>
        <time>2024-10-06T07:54:17Z</time>
      </trkpt>
      <trkpt lat="42.97019" lon="1.13645">
        <ele>521.6</ele>
        <time>2024-10-06T07:54:18Z</time>
      </trkpt>
      <trkpt lat="42.97019" lon="1.13647">
        <ele>522</ele>
        <time>2024-10-06T07:54:19Z</time>
      </trkpt>
      <trkpt lat="42.97019" lon="1.13653">
        <ele>522</ele>
        <time>2024-10-06T07:54:21Z</time>
      </trkpt>
      <trkpt lat="42.97021" lon="1.13664">
        <ele>522.4</ele>
        <time>2024-10-06T07:54:25Z</time>
      </trkpt>
      <trkpt lat="42.97022" lon="1.13666">
        <ele>523</ele>
        <time>2024-10-06T07:54:26Z</time>
      </trkpt>
      <trkpt lat="42.97022" lon="1.13669">
        <ele>523.4</ele>
        <time>2024-10-06T07:54:27Z</time>
      </trkpt>
      <trkpt lat="42.97023" lon="1.13672">
        <ele>523.8</ele>
        <time>2024-10-06T07:54:28Z</time>
      </trkpt>
      <trkpt lat="42.97024" lon="1.13674">
        <ele>524.2</ele>
        <time>2024-10-06T07:54:29Z</time>
      </trkpt>
      <trkpt lat="42.97027" lon="1.13686">
        <ele>524.6</ele>
        <time>2024-10-06T07:54:33Z</time>
      </trkpt>
      <trkpt lat="42.97028" lon="1.13689">
        <ele>525</ele>
        <time>2024-10-06T07:54:34Z</time>
      </trkpt>
      <trkpt lat="42.97029" lon="1.13691">
        <ele>525.4</ele>
        <time>2024-10-06T07:54:35Z</time>
      </trkpt>
      <trkpt lat="42.97029" lon="1.13694">
        <ele>526</ele>
        <time>2024-10-06T07:54:36Z</time>
      </trkpt>
      <trkpt lat="42.97029" lon="1.13697">
        <ele>526.4</ele>
        <time>2024-10-06T07:54:37Z</time>
      </trkpt>
      <trkpt lat="42.9703" lon="1.13705">
        <ele>526.8</ele>
        <time>2024-10-06T07:54:40Z</time>
      </trkpt>
      <trkpt lat="42.9703" lon="1.13708">
        <ele>527.2</ele>
        <time>2024-10-06T07:54:41Z</time>
      </trkpt>
      <trkpt lat="42.9703" lon="1.13711">
        <ele>527.6</ele>
        <time>2024-10-06T07:54:42Z</time>
      </trkpt>
      <trkpt lat="42.9703" lon="1.13715">
        <ele>528.2</ele>
        <time>2024-10-06T07:54:43Z</time>
      </trkpt>
      <trkpt lat="42.9703" lon="1.13717">
        <ele>528.6</ele>
        <time>2024-10-06T07:54:44Z</time>
      </trkpt>
      <trkpt lat="42.97029" lon="1.13726">
        <ele>529</ele>
        <time>2024-10-06T07:54:47Z</time>
      </trkpt>
      <trkpt lat="42.97028" lon="1.13729">
        <ele>529.4</ele>
        <time>2024-10-06T07:54:48Z</time>
      </trkpt>
      <trkpt lat="42.97027" lon="1.13731">
        <ele>529.8</ele>
        <time>2024-10-06T07:54:49Z</time>
      </trkpt>
      <trkpt lat="42.97027" lon="1.13734">
        <ele>530.2</ele>
        <time>2024-10-06T07:54:50Z</time>
      </trkpt>
      <trkpt lat="42.97026" lon="1.13737">
        <ele>530.6</ele>
        <time>2024-10-06T07:54:51Z</time>
      </trkpt>
      <trkpt lat="42.97025" lon="1.13743">
        <ele>530.6</ele>
        <time>2024-10-06T07:54:53Z</time>
      </trkpt>
      <trkpt lat="42.97025" lon="1.13746">
        <ele>531</ele>
        <time>2024-10-06T07:54:54Z</time>
      </trkpt>
      <trkpt lat="42.97024" lon="1.13749">
        <ele>531.6</ele>
        <time>2024-10-06T07:54:55Z</time>
      </trkpt>
      <trkpt lat="42.97022" lon="1.13752">
        <ele>532</ele>
        <time>2024-10-06T07:54:56Z</time>
      </trkpt>
      <trkpt lat="42.97021" lon="1.13754">
        <ele>532.4</ele>
        <time>2024-10-06T07:54:57Z</time>
      </trkpt>
      <trkpt lat="42.97019" lon="1.13756">
        <ele>533</ele>
        <time>2024-10-06T07:54:58Z</time>
      </trkpt>
      <trkpt lat="42.97018" lon="1.13759">
        <ele>533</ele>
        <time>2024-10-06T07:54:59Z</time>
      </trkpt>
      <trkpt lat="42.9701" lon="1.13768">
        <ele>533.4</ele>
        <time>2024-10-06T07:55:04Z</time>
      </trkpt>
      <trkpt lat="42.97009" lon="1.1377">
        <ele>533.8</ele>
        <time>2024-10-06T07:55:05Z</time>
      </trkpt>
      <trkpt lat="42.97007" lon="1.13771">
        <ele>534.2</ele>
        <time>2024-10-06T07:55:06Z</time>
      </trkpt>
      <trkpt lat="42.97005" lon="1.13773">
        <ele>534.6</ele>
        <time>2024-10-06T07:55:07Z</time>
      </trkpt>
      <trkpt lat="42.97003" lon="1.13774">
        <ele>535</ele>
        <time>2024-10-06T07:55:08Z</time>
      </trkpt>
      <trkpt lat="42.96988" lon="1.13786">
        <ele>535.4</ele>
        <time>2024-10-06T07:55:16Z</time>
      </trkpt>
      <trkpt lat="42.96986" lon="1.13788">
        <ele>535.8</ele>
        <time>2024-10-06T07:55:17Z</time>
      </trkpt>
      <trkpt lat="42.96985" lon="1.1379">
        <ele>536.2</ele>
        <time>2024-10-06T07:55:18Z</time>
      </trkpt>
      <trkpt lat="42.96983" lon="1.13792">
        <ele>536.6</ele>
        <time>2024-10-06T07:55:19Z</time>
      </trkpt>
      <trkpt lat="42.96982" lon="1.13794">
        <ele>537</ele>
        <time>2024-10-06T07:55:20Z</time>
      </trkpt>
      <trkpt lat="42.96976" lon="1.13804">
        <ele>537</ele>
        <time>2024-10-06T07:55:24Z</time>
      </trkpt>
      <trkpt lat="42.96974" lon="1.13812">
        <ele>537.8</ele>
        <time>2024-10-06T07:55:27Z</time>
      </trkpt>
      <trkpt lat="42.96973" lon="1.13814">
        <ele>538.4</ele>
        <time>2024-10-06T07:55:28Z</time>
      </trkpt>
      <trkpt lat="42.96973" lon="1.13817">
        <ele>538.8</ele>
        <time>2024-10-06T07:55:29Z</time>
      </trkpt>
      <trkpt lat="42.96972" lon="1.1382">
        <ele>539.2</ele>
        <time>2024-10-06T07:55:30Z</time>
      </trkpt>
      <trkpt lat="42.96971" lon="1.13823">
        <ele>539.2</ele>
        <time>2024-10-06T07:55:31Z</time>
      </trkpt>
      <trkpt lat="42.96968" lon="1.1384">
        <ele>539.2</ele>
        <time>2024-10-06T07:55:37Z</time>
      </trkpt>
      <trkpt lat="42.96967" lon="1.13847">
        <ele>539.6</ele>
        <time>2024-10-06T07:55:39Z</time>
      </trkpt>
      <trkpt lat="42.96967" lon="1.1385">
        <ele>540</ele>
        <time>2024-10-06T07:55:40Z</time>
      </trkpt>
      <trkpt lat="42.96966" lon="1.13854">
        <ele>540.4</ele>
        <time>2024-10-06T07:55:41Z</time>
      </trkpt>
      <trkpt lat="42.96966" lon="1.13857">
        <ele>540.8</ele>
        <time>2024-10-06T07:55:42Z</time>
      </trkpt>
      <trkpt lat="42.96965" lon="1.1386">
        <ele>541.2</ele>
        <time>2024-10-06T07:55:43Z</time>
      </trkpt>
      <trkpt lat="42.96961" lon="1.13882">
        <ele>541.2</ele>
        <time>2024-10-06T07:55:50Z</time>
      </trkpt>
      <trkpt lat="42.9696" lon="1.13889">
        <ele>542</ele>
        <time>2024-10-06T07:55:52Z</time>
      </trkpt>
      <trkpt lat="42.96959" lon="1.13892">
        <ele>542.6</ele>
        <time>2024-10-06T07:55:53Z</time>
      </trkpt>
      <trkpt lat="42.96958" lon="1.13895">
        <ele>543</ele>
        <time>2024-10-06T07:55:54Z</time>
      </trkpt>
      <trkpt lat="42.96957" lon="1.13899">
        <ele>543.4</ele>
        <time>2024-10-06T07:55:55Z</time>
      </trkpt>
      <trkpt lat="42.96956" lon="1.13902">
        <ele>543.4</ele>
        <time>2024-10-06T07:55:56Z</time>
      </trkpt>
      <trkpt lat="42.96953" lon="1.13921">
        <ele>543.8</ele>
        <time>2024-10-06T07:56:02Z</time>
      </trkpt>
      <trkpt lat="42.96952" lon="1.13924">
        <ele>544.2</ele>
        <time>2024-10-06T07:56:03Z</time>
      </trkpt>
      <trkpt lat="42.96951" lon="1.13928">
        <ele>544.6</ele>
        <time>2024-10-06T07:56:04Z</time>
      </trkpt>
      <trkpt lat="42.96951" lon="1.13931">
        <ele>545</ele>
        <time>2024-10-06T07:56:05Z</time>
      </trkpt>
      <trkpt lat="42.96951" lon="1.13934">
        <ele>545.6</ele>
        <time>2024-10-06T07:56:06Z</time>
      </trkpt>
      <trkpt lat="42.96947" lon="1.13957">
        <ele>545.6</ele>
        <time>2024-10-06T07:56:13Z</time>
      </trkpt>
      <trkpt lat="42.96946" lon="1.13963">
        <ele>546</ele>
        <time>2024-10-06T07:56:15Z</time>
      </trkpt>
      <trkpt lat="42.96945" lon="1.13966">
        <ele>546.4</ele>
        <time>2024-10-06T07:56:16Z</time>
      </trkpt>
      <trkpt lat="42.96944" lon="1.1397">
        <ele>547.2</ele>
        <time>2024-10-06T07:56:17Z</time>
      </trkpt>
      <trkpt lat="42.96943" lon="1.13973">
        <ele>547.6</ele>
        <time>2024-10-06T07:56:18Z</time>
      </trkpt>
      <trkpt lat="42.9694" lon="1.13986">
        <ele>547.6</ele>
        <time>2024-10-06T07:56:22Z</time>
      </trkpt>
      <trkpt lat="42.96935" lon="1.13999">
        <ele>548</ele>
        <time>2024-10-06T07:56:26Z</time>
      </trkpt>
      <trkpt lat="42.96934" lon="1.14002">
        <ele>548.4</ele>
        <time>2024-10-06T07:56:27Z</time>
      </trkpt>
      <trkpt lat="42.96933" lon="1.14005">
        <ele>548.8</ele>
        <time>2024-10-06T07:56:28Z</time>
      </trkpt>
      <trkpt lat="42.96932" lon="1.14008">
        <ele>549.2</ele>
        <time>2024-10-06T07:56:29Z</time>
      </trkpt>
      <trkpt lat="42.96931" lon="1.14011">
        <ele>549.6</ele>
        <time>2024-10-06T07:56:30Z</time>
      </trkpt>
      <trkpt lat="42.9693" lon="1.14014">
        <ele>549.6</ele>
        <time>2024-10-06T07:56:31Z</time>
      </trkpt>
      <trkpt lat="42.96922" lon="1.14035">
        <ele>550</ele>
        <time>2024-10-06T07:56:38Z</time>
      </trkpt>
      <trkpt lat="42.96921" lon="1.14038">
        <ele>550.4</ele>
        <time>2024-10-06T07:56:39Z</time>
      </trkpt>
      <trkpt lat="42.9692" lon="1.14041">
        <ele>550.8</ele>
        <time>2024-10-06T07:56:40Z</time>
      </trkpt>
      <trkpt lat="42.96919" lon="1.14044">
        <ele>551.6</ele>
        <time>2024-10-06T07:56:41Z</time>
      </trkpt>
      <trkpt lat="42.96914" lon="1.14068">
        <ele>551.6</ele>
        <time>2024-10-06T07:56:48Z</time>
      </trkpt>
      <trkpt lat="42.96914" lon="1.14071">
        <ele>552.2</ele>
        <time>2024-10-06T07:56:49Z</time>
      </trkpt>
      <trkpt lat="42.96914" lon="1.14074">
        <ele>552.6</ele>
        <time>2024-10-06T07:56:50Z</time>
      </trkpt>
      <trkpt lat="42.96914" lon="1.14077">
        <ele>553</ele>
        <time>2024-10-06T07:56:51Z</time>
      </trkpt>
      <trkpt lat="42.96914" lon="1.14081">
        <ele>553.4</ele>
        <time>2024-10-06T07:56:52Z</time>
      </trkpt>
      <trkpt lat="42.96914" lon="1.14084">
        <ele>553.8</ele>
        <time>2024-10-06T07:56:53Z</time>
      </trkpt>
      <trkpt lat="42.96913" lon="1.14087">
        <ele>553.8</ele>
        <time>2024-10-06T07:56:54Z</time>
      </trkpt>
      <trkpt lat="42.96911" lon="1.14089">
        <ele>553.8</ele>
        <time>2024-10-06T07:56:55Z</time>
      </trkpt>
      <trkpt lat="42.96903" lon="1.14089">
        <ele>554.2</ele>
        <time>2024-10-06T07:56:58Z</time>
      </trkpt>
      <trkpt lat="42.96901" lon="1.14088">
        <ele>554.6</ele>
        <time>2024-10-06T07:56:59Z</time>
      </trkpt>
      <trkpt lat="42.96899" lon="1.14086">
        <ele>555.2</ele>
        <time>2024-10-06T07:57:00Z</time>
      </trkpt>
      <trkpt lat="42.96897" lon="1.14084">
        <ele>555.6</ele>
        <time>2024-10-06T07:57:01Z</time>
      </trkpt>
      <trkpt lat="42.96895" lon="1.14082">
        <ele>556</ele>
        <time>2024-10-06T07:57:02Z</time>
      </trkpt>
      <trkpt lat="42.96891" lon="1.14077">
        <ele>556.4</ele>
        <time>2024-10-06T07:57:04Z</time>
      </trkpt>
      <trkpt lat="42.9689" lon="1.14075">
        <ele>556.8</ele>
        <time>2024-10-06T07:57:05Z</time>
      </trkpt>
      <trkpt lat="42.96888" lon="1.14072">
        <ele>557.6</ele>
        <time>2024-10-06T07:57:06Z</time>
      </trkpt>
      <trkpt lat="42.96887" lon="1.1407">
        <ele>558</ele>
        <time>2024-10-06T07:57:07Z</time>
      </trkpt>
      <trkpt lat="42.9688" lon="1.14056">
        <ele>558.4</ele>
        <time>2024-10-06T07:57:12Z</time>
      </trkpt>
      <trkpt lat="42.96879" lon="1.14053">
        <ele>559</ele>
        <time>2024-10-06T07:57:13Z</time>
      </trkpt>
      <trkpt lat="42.96878" lon="1.1405">
        <ele>559.4</ele>
        <time>2024-10-06T07:57:14Z</time>
      </trkpt>
      <trkpt lat="42.96877" lon="1.14047">
        <ele>559.8</ele>
        <time>2024-10-06T07:57:15Z</time>
      </trkpt>
      <trkpt lat="42.96877" lon="1.14044">
        <ele>560.2</ele>
        <time>2024-10-06T07:57:16Z</time>
      </trkpt>
      <trkpt lat="42.96873" lon="1.14032">
        <ele>560.2</ele>
        <time>2024-10-06T07:57:20Z</time>
      </trkpt>
      <trkpt lat="42.96873" lon="1.14029">
        <ele>560.6</ele>
        <time>2024-10-06T07:57:21Z</time>
      </trkpt>
      <trkpt lat="42.96872" lon="1.14026">
        <ele>561</ele>
        <time>2024-10-06T07:57:22Z</time>
      </trkpt>
      <trkpt lat="42.96871" lon="1.14023">
        <ele>561.4</ele>
        <time>2024-10-06T07:57:23Z</time>
      </trkpt>
      <trkpt lat="42.9687" lon="1.1402">
        <ele>561.8</ele>
        <time>2024-10-06T07:57:24Z</time>
      </trkpt>
      <trkpt lat="42.9687" lon="1.14017">
        <ele>562.4</ele>
        <time>2024-10-06T07:57:25Z</time>
      </trkpt>
      <trkpt lat="42.96867" lon="1.14008">
        <ele>562.8</ele>
        <time>2024-10-06T07:57:28Z</time>
      </trkpt>
      <trkpt lat="42.96866" lon="1.14004">
        <ele>563.2</ele>
        <time>2024-10-06T07:57:29Z</time>
      </trkpt>
      <trkpt lat="42.96866" lon="1.14001">
        <ele>563.6</ele>
        <time>2024-10-06T07:57:30Z</time>
      </trkpt>
      <trkpt lat="42.96865" lon="1.13998">
        <ele>564.4</ele>
        <time>2024-10-06T07:57:31Z</time>
      </trkpt>
      <trkpt lat="42.96864" lon="1.13995">
        <ele>564.4</ele>
        <time>2024-10-06T07:57:34Z</time>
      </trkpt>
      <trkpt lat="42.96864" lon="1.13998">
        <ele>564.4</ele>
        <time>2024-10-06T07:57:38Z</time>
      </trkpt>
      <trkpt lat="42.96865" lon="1.14008">
        <ele>564.4</ele>
        <time>2024-10-06T07:57:41Z</time>
      </trkpt>
      <trkpt lat="42.96861" lon="1.14021">
        <ele>564.4</ele>
        <time>2024-10-06T07:57:44Z</time>
      </trkpt>
      <trkpt lat="42.96859" lon="1.14029">
        <ele>564.4</ele>
        <time>2024-10-06T07:57:46Z</time>
      </trkpt>
      <trkpt lat="42.96857" lon="1.14041">
        <ele>564.4</ele>
        <time>2024-10-06T07:57:48Z</time>
      </trkpt>
      <trkpt lat="42.96857" lon="1.14053">
        <ele>564.4</ele>
        <time>2024-10-06T07:57:50Z</time>
      </trkpt>
      <trkpt lat="42.96854" lon="1.14069">
        <ele>564.4</ele>
        <time>2024-10-06T07:57:53Z</time>
      </trkpt>
      <trkpt lat="42.96849" lon="1.14074">
        <ele>564.8</ele>
        <time>2024-10-06T07:57:55Z</time>
      </trkpt>
      <trkpt lat="42.96846" lon="1.14075">
        <ele>565.6</ele>
        <time>2024-10-06T07:57:56Z</time>
      </trkpt>
      <trkpt lat="42.96843" lon="1.14076">
        <ele>566.2</ele>
        <time>2024-10-06T07:57:57Z</time>
      </trkpt>
      <trkpt lat="42.9684" lon="1.14075">
        <ele>566.6</ele>
        <time>2024-10-06T07:57:58Z</time>
      </trkpt>
      <trkpt lat="42.96834" lon="1.14073">
        <ele>567</ele>
        <time>2024-10-06T07:58:00Z</time>
      </trkpt>
      <trkpt lat="42.96831" lon="1.14071">
        <ele>567.4</ele>
        <time>2024-10-06T07:58:01Z</time>
      </trkpt>
      <trkpt lat="42.96827" lon="1.1407">
        <ele>567.8</ele>
        <time>2024-10-06T07:58:02Z</time>
      </trkpt>
      <trkpt lat="42.96824" lon="1.14069">
        <ele>568.2</ele>
        <time>2024-10-06T07:58:03Z</time>
      </trkpt>
      <trkpt lat="42.96821" lon="1.14068">
        <ele>568.6</ele>
        <time>2024-10-06T07:58:04Z</time>
      </trkpt>
      <trkpt lat="42.96813" lon="1.1407">
        <ele>568.6</ele>
        <time>2024-10-06T07:58:07Z</time>
      </trkpt>
      <trkpt lat="42.96803" lon="1.14077">
        <ele>568.6</ele>
        <time>2024-10-06T07:58:11Z</time>
      </trkpt>
      <trkpt lat="42.96798" lon="1.1408">
        <ele>569</ele>
        <time>2024-10-06T07:58:13Z</time>
      </trkpt>
      <trkpt lat="42.96796" lon="1.1408">
        <ele>569.4</ele>
        <time>2024-10-06T07:58:14Z</time>
      </trkpt>
      <trkpt lat="42.96793" lon="1.14081">
        <ele>569.8</ele>
        <time>2024-10-06T07:58:15Z</time>
      </trkpt>
      <trkpt lat="42.96791" lon="1.1408">
        <ele>570.4</ele>
        <time>2024-10-06T07:58:16Z</time>
      </trkpt>
      <trkpt lat="42.96789" lon="1.1408">
        <ele>570.8</ele>
        <time>2024-10-06T07:58:17Z</time>
      </trkpt>
      <trkpt lat="42.96784" lon="1.14078">
        <ele>571.2</ele>
        <time>2024-10-06T07:58:19Z</time>
      </trkpt>
      <trkpt lat="42.96783" lon="1.14078">
        <ele>572</ele>
        <time>2024-10-06T07:58:20Z</time>
      </trkpt>
      <trkpt lat="42.96781" lon="1.14077">
        <ele>572.4</ele>
        <time>2024-10-06T07:58:21Z</time>
      </trkpt>
      <trkpt lat="42.96779" lon="1.14076">
        <ele>572.8</ele>
        <time>2024-10-06T07:58:22Z</time>
      </trkpt>
      <trkpt lat="42.96777" lon="1.14076">
        <ele>573.2</ele>
        <time>2024-10-06T07:58:23Z</time>
      </trkpt>
      <trkpt lat="42.96774" lon="1.14075">
        <ele>573.6</ele>
        <time>2024-10-06T07:58:24Z</time>
      </trkpt>
      <trkpt lat="42.96772" lon="1.14074">
        <ele>574</ele>
        <time>2024-10-06T07:58:25Z</time>
      </trkpt>
      <trkpt lat="42.9677" lon="1.14074">
        <ele>574.4</ele>
        <time>2024-10-06T07:58:26Z</time>
      </trkpt>
      <trkpt lat="42.96768" lon="1.14074">
        <ele>574.8</ele>
        <time>2024-10-06T07:58:27Z</time>
      </trkpt>
      <trkpt lat="42.96766" lon="1.14073">
        <ele>575.2</ele>
        <time>2024-10-06T07:58:28Z</time>
      </trkpt>
      <trkpt lat="42.96764" lon="1.14073">
        <ele>575.6</ele>
        <time>2024-10-06T07:58:29Z</time>
      </trkpt>
      <trkpt lat="42.96762" lon="1.14072">
        <ele>576</ele>
        <time>2024-10-06T07:58:30Z</time>
      </trkpt>
      <trkpt lat="42.9676" lon="1.14072">
        <ele>576.6</ele>
        <time>2024-10-06T07:58:31Z</time>
      </trkpt>
      <trkpt lat="42.96758" lon="1.14071">
        <ele>577</ele>
        <time>2024-10-06T07:58:32Z</time>
      </trkpt>
      <trkpt lat="42.96754" lon="1.1407">
        <ele>577.4</ele>
        <time>2024-10-06T07:58:34Z</time>
      </trkpt>
      <trkpt lat="42.96753" lon="1.14069">
        <ele>577.8</ele>
        <time>2024-10-06T07:58:35Z</time>
      </trkpt>
      <trkpt lat="42.96751" lon="1.14068">
        <ele>578.4</ele>
        <time>2024-10-06T07:58:36Z</time>
      </trkpt>
      <trkpt lat="42.96749" lon="1.14068">
        <ele>578.8</ele>
        <time>2024-10-06T07:58:37Z</time>
      </trkpt>
      <trkpt lat="42.96748" lon="1.14067">
        <ele>579.2</ele>
        <time>2024-10-06T07:58:38Z</time>
      </trkpt>
      <trkpt lat="42.96744" lon="1.14066">
        <ele>579.6</ele>
        <time>2024-10-06T07:58:40Z</time>
      </trkpt>
      <trkpt lat="42.96743" lon="1.14065">
        <ele>580.2</ele>
        <time>2024-10-06T07:58:41Z</time>
      </trkpt>
      <trkpt lat="42.96741" lon="1.14064">
        <ele>580.6</ele>
        <time>2024-10-06T07:58:42Z</time>
      </trkpt>
      <trkpt lat="42.9674" lon="1.14063">
        <ele>581</ele>
        <time>2024-10-06T07:58:43Z</time>
      </trkpt>
      <trkpt lat="42.96738" lon="1.14063">
        <ele>581.4</ele>
        <time>2024-10-06T07:58:44Z</time>
      </trkpt>
      <trkpt lat="42.96736" lon="1.14062">
        <ele>581.4</ele>
        <time>2024-10-06T07:58:45Z</time>
      </trkpt>
      <trkpt lat="42.96735" lon="1.14061">
        <ele>581.8</ele>
        <time>2024-10-06T07:58:46Z</time>
      </trkpt>
      <trkpt lat="42.96733" lon="1.14061">
        <ele>582.2</ele>
        <time>2024-10-06T07:58:47Z</time>
      </trkpt>
      <trkpt lat="42.96732" lon="1.1406">
        <ele>582.8</ele>
        <time>2024-10-06T07:58:48Z</time>
      </trkpt>
      <trkpt lat="42.9673" lon="1.1406">
        <ele>583.2</ele>
        <time>2024-10-06T07:58:49Z</time>
      </trkpt>
      <trkpt lat="42.96728" lon="1.14059">
        <ele>583.6</ele>
        <time>2024-10-06T07:58:50Z</time>
      </trkpt>
      <trkpt lat="42.96722" lon="1.14057">
        <ele>583.6</ele>
        <time>2024-10-06T07:58:54Z</time>
      </trkpt>
      <trkpt lat="42.96719" lon="1.14056">
        <ele>584</ele>
        <time>2024-10-06T07:58:56Z</time>
      </trkpt>
      <trkpt lat="42.96718" lon="1.14056">
        <ele>584.4</ele>
        <time>2024-10-06T07:58:57Z</time>
      </trkpt>
      <trkpt lat="42.96716" lon="1.14056">
        <ele>584.8</ele>
        <time>2024-10-06T07:58:58Z</time>
      </trkpt>
      <trkpt lat="42.96715" lon="1.14056">
        <ele>585.2</ele>
        <time>2024-10-06T07:58:59Z</time>
      </trkpt>
      <trkpt lat="42.96714" lon="1.14057">
        <ele>585.6</ele>
        <time>2024-10-06T07:59:00Z</time>
      </trkpt>
      <trkpt lat="42.96713" lon="1.14057">
        <ele>585.6</ele>
        <time>2024-10-06T07:59:01Z</time>
      </trkpt>
      <trkpt lat="42.96705" lon="1.14061">
        <ele>585.6</ele>
        <time>2024-10-06T07:59:06Z</time>
      </trkpt>
      <trkpt lat="42.96701" lon="1.14061">
        <ele>586</ele>
        <time>2024-10-06T07:59:08Z</time>
      </trkpt>
      <trkpt lat="42.96699" lon="1.14061">
        <ele>586.6</ele>
        <time>2024-10-06T07:59:09Z</time>
      </trkpt>
      <trkpt lat="42.96697" lon="1.14061">
        <ele>587.4</ele>
        <time>2024-10-06T07:59:10Z</time>
      </trkpt>
      <trkpt lat="42.96695" lon="1.14061">
        <ele>587.8</ele>
        <time>2024-10-06T07:59:11Z</time>
      </trkpt>
      <trkpt lat="42.96691" lon="1.14061">
        <ele>588.2</ele>
        <time>2024-10-06T07:59:14Z</time>
      </trkpt>
      <trkpt lat="42.96689" lon="1.14062">
        <ele>588.8</ele>
        <time>2024-10-06T07:59:15Z</time>
      </trkpt>
      <trkpt lat="42.96688" lon="1.14062">
        <ele>589.2</ele>
        <time>2024-10-06T07:59:16Z</time>
      </trkpt>
      <trkpt lat="42.96687" lon="1.14062">
        <ele>589.6</ele>
        <time>2024-10-06T07:59:17Z</time>
      </trkpt>
      <trkpt lat="42.96685" lon="1.14063">
        <ele>590.2</ele>
        <time>2024-10-06T07:59:18Z</time>
      </trkpt>
      <trkpt lat="42.96682" lon="1.14064">
        <ele>590.6</ele>
        <time>2024-10-06T07:59:20Z</time>
      </trkpt>
      <trkpt lat="42.96681" lon="1.14064">
        <ele>591</ele>
        <time>2024-10-06T07:59:21Z</time>
      </trkpt>
      <trkpt lat="42.9668" lon="1.14065">
        <ele>591.4</ele>
        <time>2024-10-06T07:59:22Z</time>
      </trkpt>
      <trkpt lat="42.96678" lon="1.14066">
        <ele>591.8</ele>
        <time>2024-10-06T07:59:23Z</time>
      </trkpt>
      <trkpt lat="42.96677" lon="1.14067">
        <ele>592.2</ele>
        <time>2024-10-06T07:59:24Z</time>
      </trkpt>
      <trkpt lat="42.96671" lon="1.14069">
        <ele>592.6</ele>
        <time>2024-10-06T07:59:27Z</time>
      </trkpt>
      <trkpt lat="42.96669" lon="1.14069">
        <ele>593</ele>
        <time>2024-10-06T07:59:28Z</time>
      </trkpt>
      <trkpt lat="42.96667" lon="1.14069">
        <ele>593.4</ele>
        <time>2024-10-06T07:59:29Z</time>
      </trkpt>
      <trkpt lat="42.96665" lon="1.14069">
        <ele>593.8</ele>
        <time>2024-10-06T07:59:30Z</time>
      </trkpt>
      <trkpt lat="42.96663" lon="1.14068">
        <ele>594.4</ele>
        <time>2024-10-06T07:59:31Z</time>
      </trkpt>
      <trkpt lat="42.96655" lon="1.14066">
        <ele>594.8</ele>
        <time>2024-10-06T07:59:35Z</time>
      </trkpt>
      <trkpt lat="42.96653" lon="1.14066">
        <ele>595.2</ele>
        <time>2024-10-06T07:59:36Z</time>
      </trkpt>
      <trkpt lat="42.96652" lon="1.14066">
        <ele>595.6</ele>
        <time>2024-10-06T07:59:37Z</time>
      </trkpt>
      <trkpt lat="42.9665" lon="1.14066">
        <ele>596</ele>
        <time>2024-10-06T07:59:38Z</time>
      </trkpt>
      <trkpt lat="42.96649" lon="1.14066">
        <ele>596.4</ele>
        <time>2024-10-06T07:59:39Z</time>
      </trkpt>
      <trkpt lat="42.9664" lon="1.14062">
        <ele>596.4</ele>
        <time>2024-10-06T07:59:45Z</time>
      </trkpt>
      <trkpt lat="42.96635" lon="1.14058">
        <ele>597</ele>
        <time>2024-10-06T07:59:48Z</time>
      </trkpt>
      <trkpt lat="42.96633" lon="1.14057">
        <ele>597.4</ele>
        <time>2024-10-06T07:59:49Z</time>
      </trkpt>
      <trkpt lat="42.96632" lon="1.14056">
        <ele>597.8</ele>
        <time>2024-10-06T07:59:50Z</time>
      </trkpt>
      <trkpt lat="42.9663" lon="1.14055">
        <ele>598.2</ele>
        <time>2024-10-06T07:59:51Z</time>
      </trkpt>
      <trkpt lat="42.96629" lon="1.14054">
        <ele>598.6</ele>
        <time>2024-10-06T07:59:52Z</time>
      </trkpt>
      <trkpt lat="42.96626" lon="1.14054">
        <ele>599.2</ele>
        <time>2024-10-06T07:59:54Z</time>
      </trkpt>
      <trkpt lat="42.96624" lon="1.14053">
        <ele>599.6</ele>
        <time>2024-10-06T07:59:55Z</time>
      </trkpt>
      <trkpt lat="42.96623" lon="1.14053">
        <ele>600.2</ele>
        <time>2024-10-06T07:59:56Z</time>
      </trkpt>
      <trkpt lat="42.96621" lon="1.14053">
        <ele>600.6</ele>
        <time>2024-10-06T07:59:57Z</time>
      </trkpt>
      <trkpt lat="42.9662" lon="1.14052">
        <ele>601</ele>
        <time>2024-10-06T07:59:58Z</time>
      </trkpt>
      <trkpt lat="42.96618" lon="1.14052">
        <ele>601.4</ele>
        <time>2024-10-06T07:59:59Z</time>
      </trkpt>
      <trkpt lat="42.96616" lon="1.14051">
        <ele>601.8</ele>
        <time>2024-10-06T08:00:00Z</time>
      </trkpt>
      <trkpt lat="42.96615" lon="1.14051">
        <ele>602.2</ele>
        <time>2024-10-06T08:00:01Z</time>
      </trkpt>
      <trkpt lat="42.96613" lon="1.1405">
        <ele>602.6</ele>
        <time>2024-10-06T08:00:02Z</time>
      </trkpt>
      <trkpt lat="42.96611" lon="1.1405">
        <ele>603.2</ele>
        <time>2024-10-06T08:00:03Z</time>
      </trkpt>
      <trkpt lat="42.96607" lon="1.14049">
        <ele>603.6</ele>
        <time>2024-10-06T08:00:05Z</time>
      </trkpt>
      <trkpt lat="42.96606" lon="1.14049">
        <ele>604</ele>
        <time>2024-10-06T08:00:06Z</time>
      </trkpt>
      <trkpt lat="42.96604" lon="1.14048">
        <ele>604.4</ele>
        <time>2024-10-06T08:00:07Z</time>
      </trkpt>
      <trkpt lat="42.96603" lon="1.14047">
        <ele>604.8</ele>
        <time>2024-10-06T08:00:08Z</time>
      </trkpt>
      <trkpt lat="42.96601" lon="1.14047">
        <ele>605.2</ele>
        <time>2024-10-06T08:00:09Z</time>
      </trkpt>
      <trkpt lat="42.966" lon="1.14046">
        <ele>605.6</ele>
        <time>2024-10-06T08:00:10Z</time>
      </trkpt>
      <trkpt lat="42.96599" lon="1.14045">
        <ele>606</ele>
        <time>2024-10-06T08:00:11Z</time>
      </trkpt>
      <trkpt lat="42.96598" lon="1.14045">
        <ele>606.4</ele>
        <time>2024-10-06T08:00:12Z</time>
      </trkpt>
      <trkpt lat="42.96597" lon="1.14045">
        <ele>606.8</ele>
        <time>2024-10-06T08:00:13Z</time>
      </trkpt>
      <trkpt lat="42.96596" lon="1.14045">
        <ele>607.2</ele>
        <time>2024-10-06T08:00:14Z</time>
      </trkpt>
      <trkpt lat="42.96595" lon="1.14045">
        <ele>607.2</ele>
        <time>2024-10-06T08:00:15Z</time>
      </trkpt>
      <trkpt lat="42.96583" lon="1.14047">
        <ele>609.2</ele>
        <time>2024-10-06T08:00:50Z</time>
      </trkpt>
      <trkpt lat="42.96582" lon="1.14045">
        <ele>609.6</ele>
        <time>2024-10-06T08:00:52Z</time>
      </trkpt>
      <trkpt lat="42.96581" lon="1.14044">
        <ele>610.2</ele>
        <time>2024-10-06T08:00:53Z</time>
      </trkpt>
      <trkpt lat="42.9658" lon="1.14043">
        <ele>610.6</ele>
        <time>2024-10-06T08:00:54Z</time>
      </trkpt>
      <trkpt lat="42.96573" lon="1.14037">
        <ele>612</ele>
        <time>2024-10-06T08:00:59Z</time>
      </trkpt>
      <trkpt lat="42.96572" lon="1.14036">
        <ele>612.4</ele>
        <time>2024-10-06T08:01:00Z</time>
      </trkpt>
      <trkpt lat="42.9657" lon="1.14035">
        <ele>613</ele>
        <time>2024-10-06T08:01:01Z</time>
      </trkpt>
      <trkpt lat="42.96569" lon="1.14034">
        <ele>613.4</ele>
        <time>2024-10-06T08:01:02Z</time>
      </trkpt>
      <trkpt lat="42.96568" lon="1.14034">
        <ele>613.8</ele>
        <time>2024-10-06T08:01:03Z</time>
      </trkpt>
      <trkpt lat="42.96561" lon="1.14024">
        <ele>615.8</ele>
        <time>2024-10-06T08:01:24Z</time>
      </trkpt>
      <trkpt lat="42.96562" lon="1.1402">
        <ele>616.2</ele>
        <time>2024-10-06T08:01:26Z</time>
      </trkpt>
      <trkpt lat="42.96563" lon="1.14018">
        <ele>616.6</ele>
        <time>2024-10-06T08:01:27Z</time>
      </trkpt>
      <trkpt lat="42.96564" lon="1.14017">
        <ele>617.2</ele>
        <time>2024-10-06T08:01:28Z</time>
      </trkpt>
      <trkpt lat="42.96565" lon="1.14015">
        <ele>617.6</ele>
        <time>2024-10-06T08:01:29Z</time>
      </trkpt>
      <trkpt lat="42.96565" lon="1.14013">
        <ele>618</ele>
        <time>2024-10-06T08:01:30Z</time>
      </trkpt>
      <trkpt lat="42.96566" lon="1.14011">
        <ele>618</ele>
        <time>2024-10-06T08:01:31Z</time>
      </trkpt>
      <trkpt lat="42.96567" lon="1.14009">
        <ele>618.4</ele>
        <time>2024-10-06T08:01:32Z</time>
      </trkpt>
      <trkpt lat="42.96569" lon="1.14007">
        <ele>618.8</ele>
        <time>2024-10-06T08:01:33Z</time>
      </trkpt>
      <trkpt lat="42.96569" lon="1.14005">
        <ele>619.2</ele>
        <time>2024-10-06T08:01:34Z</time>
      </trkpt>
      <trkpt lat="42.96571" lon="1.14002">
        <ele>619.8</ele>
        <time>2024-10-06T08:01:35Z</time>
      </trkpt>
      <trkpt lat="42.96572" lon="1.14">
        <ele>620.2</ele>
        <time>2024-10-06T08:01:36Z</time>
      </trkpt>
      <trkpt lat="42.96573" lon="1.13998">
        <ele>620.2</ele>
        <time>2024-10-06T08:01:37Z</time>
      </trkpt>
      <trkpt lat="42.96574" lon="1.13996">
        <ele>621.2</ele>
        <time>2024-10-06T08:01:38Z</time>
      </trkpt>
      <trkpt lat="42.96575" lon="1.13993">
        <ele>621.6</ele>
        <time>2024-10-06T08:01:39Z</time>
      </trkpt>
      <trkpt lat="42.96576" lon="1.13991">
        <ele>622</ele>
        <time>2024-10-06T08:01:40Z</time>
      </trkpt>
      <trkpt lat="42.96577" lon="1.13988">
        <ele>622.6</ele>
        <time>2024-10-06T08:01:41Z</time>
      </trkpt>
      <trkpt lat="42.9658" lon="1.13983">
        <ele>622.6</ele>
        <time>2024-10-06T08:01:43Z</time>
      </trkpt>
      <trkpt lat="42.96582" lon="1.13981">
        <ele>623</ele>
        <time>2024-10-06T08:01:44Z</time>
      </trkpt>
      <trkpt lat="42.96583" lon="1.1398">
        <ele>623.4</ele>
        <time>2024-10-06T08:01:45Z</time>
      </trkpt>
      <trkpt lat="42.96584" lon="1.13977">
        <ele>624</ele>
        <time>2024-10-06T08:01:46Z</time>
      </trkpt>
      <trkpt lat="42.96586" lon="1.13975">
        <ele>624.4</ele>
        <time>2024-10-06T08:01:47Z</time>
      </trkpt>
      <trkpt lat="42.96587" lon="1.13973">
        <ele>624.8</ele>
        <time>2024-10-06T08:01:48Z</time>
      </trkpt>
      <trkpt lat="42.96588" lon="1.13972">
        <ele>625.2</ele>
        <time>2024-10-06T08:01:49Z</time>
      </trkpt>
      <trkpt lat="42.96589" lon="1.1397">
        <ele>625.6</ele>
        <time>2024-10-06T08:01:50Z</time>
      </trkpt>
      <trkpt lat="42.96591" lon="1.13969">
        <ele>626</ele>
        <time>2024-10-06T08:01:51Z</time>
      </trkpt>
      <trkpt lat="42.96592" lon="1.13967">
        <ele>626.6</ele>
        <time>2024-10-06T08:01:52Z</time>
      </trkpt>
      <trkpt lat="42.96594" lon="1.13966">
        <ele>627</ele>
        <time>2024-10-06T08:01:53Z</time>
      </trkpt>
      <trkpt lat="42.96597" lon="1.13962">
        <ele>627</ele>
        <time>2024-10-06T08:01:55Z</time>
      </trkpt>
      <trkpt lat="42.966" lon="1.13956">
        <ele>627.4</ele>
        <time>2024-10-06T08:01:58Z</time>
      </trkpt>
      <trkpt lat="42.96601" lon="1.13954">
        <ele>627.8</ele>
        <time>2024-10-06T08:01:59Z</time>
      </trkpt>
      <trkpt lat="42.96601" lon="1.13952">
        <ele>628.2</ele>
        <time>2024-10-06T08:02:00Z</time>
      </trkpt>
      <trkpt lat="42.96602" lon="1.13949">
        <ele>628.6</ele>
        <time>2024-10-06T08:02:01Z</time>
      </trkpt>
      <trkpt lat="42.96601" lon="1.13947">
        <ele>629</ele>
        <time>2024-10-06T08:02:02Z</time>
      </trkpt>
      <trkpt lat="42.966" lon="1.13943">
        <ele>629.4</ele>
        <time>2024-10-06T08:02:04Z</time>
      </trkpt>
      <trkpt lat="42.966" lon="1.13943">
        <ele>629.8</ele>
        <time>2024-10-06T08:02:05Z</time>
      </trkpt>
      <trkpt lat="42.96598" lon="1.13943">
        <ele>630.2</ele>
        <time>2024-10-06T08:02:06Z</time>
      </trkpt>
      <trkpt lat="42.96597" lon="1.13944">
        <ele>630.8</ele>
        <time>2024-10-06T08:02:07Z</time>
      </trkpt>
      <trkpt lat="42.96596" lon="1.13946">
        <ele>631.2</ele>
        <time>2024-10-06T08:02:08Z</time>
      </trkpt>
      <trkpt lat="42.96588" lon="1.1395">
        <ele>631.2</ele>
        <time>2024-10-06T08:02:13Z</time>
      </trkpt>
      <trkpt lat="42.96582" lon="1.1395">
        <ele>631.6</ele>
        <time>2024-10-06T08:02:16Z</time>
      </trkpt>
      <trkpt lat="42.96579" lon="1.1395">
        <ele>632</ele>
        <time>2024-10-06T08:02:17Z</time>
      </trkpt>
      <trkpt lat="42.96577" lon="1.1395">
        <ele>632.4</ele>
        <time>2024-10-06T08:02:18Z</time>
      </trkpt>
      <trkpt lat="42.96575" lon="1.13951">
        <ele>632.8</ele>
        <time>2024-10-06T08:02:19Z</time>
      </trkpt>
      <trkpt lat="42.96573" lon="1.13951">
        <ele>633.2</ele>
        <time>2024-10-06T08:02:20Z</time>
      </trkpt>
      <trkpt lat="42.96556" lon="1.13949">
        <ele>633.2</ele>
        <time>2024-10-06T08:02:27Z</time>
      </trkpt>
      <trkpt lat="42.96554" lon="1.13949">
        <ele>634</ele>
        <time>2024-10-06T08:02:28Z</time>
      </trkpt>
      <trkpt lat="42.96551" lon="1.13949">
        <ele>634.4</ele>
        <time>2024-10-06T08:02:29Z</time>
      </trkpt>
      <trkpt lat="42.96549" lon="1.1395">
        <ele>634.8</ele>
        <time>2024-10-06T08:02:30Z</time>
      </trkpt>
      <trkpt lat="42.96547" lon="1.1395">
        <ele>635.2</ele>
        <time>2024-10-06T08:02:31Z</time>
      </trkpt>
      <trkpt lat="42.96542" lon="1.1395">
        <ele>635.2</ele>
        <time>2024-10-06T08:02:33Z</time>
      </trkpt>
      <trkpt lat="42.96522" lon="1.13947">
        <ele>635.2</ele>
        <time>2024-10-06T08:02:41Z</time>
      </trkpt>
      <trkpt lat="42.9652" lon="1.13946">
        <ele>635.6</ele>
        <time>2024-10-06T08:02:42Z</time>
      </trkpt>
      <trkpt lat="42.96518" lon="1.13943">
        <ele>636</ele>
        <time>2024-10-06T08:02:43Z</time>
      </trkpt>
      <trkpt lat="42.96515" lon="1.13941">
        <ele>636.4</ele>
        <time>2024-10-06T08:02:44Z</time>
      </trkpt>
      <trkpt lat="42.96513" lon="1.13938">
        <ele>636.8</ele>
        <time>2024-10-06T08:02:45Z</time>
      </trkpt>
      <trkpt lat="42.96511" lon="1.13935">
        <ele>637.2</ele>
        <time>2024-10-06T08:02:46Z</time>
      </trkpt>
      <trkpt lat="42.96501" lon="1.13914">
        <ele>637.6</ele>
        <time>2024-10-06T08:02:53Z</time>
      </trkpt>
      <trkpt lat="42.965" lon="1.13911">
        <ele>638.2</ele>
        <time>2024-10-06T08:02:54Z</time>
      </trkpt>
      <trkpt lat="42.96499" lon="1.13909">
        <ele>638.6</ele>
        <time>2024-10-06T08:02:55Z</time>
      </trkpt>
      <trkpt lat="42.96498" lon="1.13906">
        <ele>639</ele>
        <time>2024-10-06T08:02:56Z</time>
      </trkpt>
      <trkpt lat="42.96496" lon="1.13904">
        <ele>639.4</ele>
        <time>2024-10-06T08:02:57Z</time>
      </trkpt>
      <trkpt lat="42.96488" lon="1.13893">
        <ele>639.4</ele>
        <time>2024-10-06T08:03:02Z</time>
      </trkpt>
      <trkpt lat="42.96483" lon="1.13888">
        <ele>639.8</ele>
        <time>2024-10-06T08:03:05Z</time>
      </trkpt>
      <trkpt lat="42.96481" lon="1.13887">
        <ele>640.2</ele>
        <time>2024-10-06T08:03:06Z</time>
      </trkpt>
      <trkpt lat="42.96479" lon="1.13886">
        <ele>640.6</ele>
        <time>2024-10-06T08:03:07Z</time>
      </trkpt>
      <trkpt lat="42.96477" lon="1.13884">
        <ele>641</ele>
        <time>2024-10-06T08:03:08Z</time>
      </trkpt>
      <trkpt lat="42.96475" lon="1.13884">
        <ele>641.6</ele>
        <time>2024-10-06T08:03:09Z</time>
      </trkpt>
      <trkpt lat="42.9646" lon="1.1388">
        <ele>642</ele>
        <time>2024-10-06T08:03:17Z</time>
      </trkpt>
      <trkpt lat="42.96458" lon="1.13879">
        <ele>642.4</ele>
        <time>2024-10-06T08:03:18Z</time>
      </trkpt>
      <trkpt lat="42.96456" lon="1.13879">
        <ele>642.8</ele>
        <time>2024-10-06T08:03:19Z</time>
      </trkpt>
      <trkpt lat="42.96455" lon="1.1388">
        <ele>643.2</ele>
        <time>2024-10-06T08:03:20Z</time>
      </trkpt>
      <trkpt lat="42.96453" lon="1.1388">
        <ele>643.6</ele>
        <time>2024-10-06T08:03:21Z</time>
      </trkpt>
      <trkpt lat="42.96451" lon="1.13879">
        <ele>643.6</ele>
        <time>2024-10-06T08:03:22Z</time>
      </trkpt>
      <trkpt lat="42.96449" lon="1.13877">
        <ele>643.6</ele>
        <time>2024-10-06T08:03:23Z</time>
      </trkpt>
      <trkpt lat="42.96453" lon="1.13875">
        <ele>643.6</ele>
        <time>2024-10-06T08:03:26Z</time>
      </trkpt>
      <trkpt lat="42.96455" lon="1.13875">
        <ele>643.6</ele>
        <time>2024-10-06T08:03:27Z</time>
      </trkpt>
      <trkpt lat="42.96457" lon="1.13875">
        <ele>644</ele>
        <time>2024-10-06T08:03:28Z</time>
      </trkpt>
      <trkpt lat="42.96459" lon="1.13874">
        <ele>644.4</ele>
        <time>2024-10-06T08:03:29Z</time>
      </trkpt>
      <trkpt lat="42.96461" lon="1.13873">
        <ele>644.8</ele>
        <time>2024-10-06T08:03:30Z</time>
      </trkpt>
      <trkpt lat="42.96463" lon="1.13873">
        <ele>645.2</ele>
        <time>2024-10-06T08:03:31Z</time>
      </trkpt>
      <trkpt lat="42.96465" lon="1.13872">
        <ele>645.6</ele>
        <time>2024-10-06T08:03:32Z</time>
      </trkpt>
      <trkpt lat="42.96471" lon="1.13869">
        <ele>646.2</ele>
        <time>2024-10-06T08:03:35Z</time>
      </trkpt>
      <trkpt lat="42.96473" lon="1.13868">
        <ele>646.6</ele>
        <time>2024-10-06T08:03:36Z</time>
      </trkpt>
      <trkpt lat="42.96475" lon="1.13868">
        <ele>647</ele>
        <time>2024-10-06T08:03:37Z</time>
      </trkpt>
      <trkpt lat="42.96477" lon="1.13867">
        <ele>647.4</ele>
        <time>2024-10-06T08:03:38Z</time>
      </trkpt>
      <trkpt lat="42.96479" lon="1.13865">
        <ele>647.8</ele>
        <time>2024-10-06T08:03:39Z</time>
      </trkpt>
      <trkpt lat="42.96481" lon="1.13864">
        <ele>647.8</ele>
        <time>2024-10-06T08:03:40Z</time>
      </trkpt>
      <trkpt lat="42.96485" lon="1.13861">
        <ele>648.4</ele>
        <time>2024-10-06T08:03:42Z</time>
      </trkpt>
      <trkpt lat="42.96487" lon="1.1386">
        <ele>648.8</ele>
        <time>2024-10-06T08:03:43Z</time>
      </trkpt>
      <trkpt lat="42.96489" lon="1.13859">
        <ele>649.4</ele>
        <time>2024-10-06T08:03:44Z</time>
      </trkpt>
      <trkpt lat="42.9649" lon="1.13859">
        <ele>649.8</ele>
        <time>2024-10-06T08:03:45Z</time>
      </trkpt>
      <trkpt lat="42.96492" lon="1.13858">
        <ele>650.2</ele>
        <time>2024-10-06T08:03:46Z</time>
      </trkpt>
      <trkpt lat="42.96494" lon="1.13858">
        <ele>650.2</ele>
        <time>2024-10-06T08:03:47Z</time>
      </trkpt>
      <trkpt lat="42.96496" lon="1.13858">
        <ele>650.8</ele>
        <time>2024-10-06T08:03:48Z</time>
      </trkpt>
      <trkpt lat="42.96498" lon="1.13858">
        <ele>651.2</ele>
        <time>2024-10-06T08:03:49Z</time>
      </trkpt>
      <trkpt lat="42.965" lon="1.13858">
        <ele>651.8</ele>
        <time>2024-10-06T08:03:50Z</time>
      </trkpt>
      <trkpt lat="42.96502" lon="1.13859">
        <ele>652.2</ele>
        <time>2024-10-06T08:03:51Z</time>
      </trkpt>
      <trkpt lat="42.96503" lon="1.1386">
        <ele>652.8</ele>
        <time>2024-10-06T08:03:52Z</time>
      </trkpt>
      <trkpt lat="42.96507" lon="1.13863">
        <ele>653.2</ele>
        <time>2024-10-06T08:03:54Z</time>
      </trkpt>
      <trkpt lat="42.9651" lon="1.13865">
        <ele>653.6</ele>
        <time>2024-10-06T08:03:55Z</time>
      </trkpt>
      <trkpt lat="42.96513" lon="1.13867">
        <ele>654</ele>
        <time>2024-10-06T08:03:56Z</time>
      </trkpt>
      <trkpt lat="42.96516" lon="1.13869">
        <ele>654.4</ele>
        <time>2024-10-06T08:03:57Z</time>
      </trkpt>
      <trkpt lat="42.96519" lon="1.1387">
        <ele>654.8</ele>
        <time>2024-10-06T08:03:58Z</time>
      </trkpt>
      <trkpt lat="42.96522" lon="1.13872">
        <ele>654.8</ele>
        <time>2024-10-06T08:03:59Z</time>
      </trkpt>
      <trkpt lat="42.96535" lon="1.13872">
        <ele>654.8</ele>
        <time>2024-10-06T08:04:04Z</time>
      </trkpt>
      <trkpt lat="42.9655" lon="1.13863">
        <ele>654.8</ele>
        <time>2024-10-06T08:04:11Z</time>
      </trkpt>
      <trkpt lat="42.96556" lon="1.13851">
        <ele>654.8</ele>
        <time>2024-10-06T08:04:16Z</time>
      </trkpt>
      <trkpt lat="42.96557" lon="1.13848">
        <ele>655.2</ele>
        <time>2024-10-06T08:04:17Z</time>
      </trkpt>
      <trkpt lat="42.96558" lon="1.13846">
        <ele>655.6</ele>
        <time>2024-10-06T08:04:18Z</time>
      </trkpt>
      <trkpt lat="42.96559" lon="1.13842">
        <ele>656.2</ele>
        <time>2024-10-06T08:04:19Z</time>
      </trkpt>
      <trkpt lat="42.9656" lon="1.13839">
        <ele>656.6</ele>
        <time>2024-10-06T08:04:20Z</time>
      </trkpt>
      <trkpt lat="42.96562" lon="1.13835">
        <ele>657</ele>
        <time>2024-10-06T08:04:21Z</time>
      </trkpt>
      <trkpt lat="42.96563" lon="1.13832">
        <ele>657</ele>
        <time>2024-10-06T08:04:22Z</time>
      </trkpt>
      <trkpt lat="42.96572" lon="1.13804">
        <ele>657</ele>
        <time>2024-10-06T08:04:30Z</time>
      </trkpt>
      <trkpt lat="42.96575" lon="1.13784">
        <ele>657</ele>
        <time>2024-10-06T08:04:37Z</time>
      </trkpt>
      <trkpt lat="42.96575" lon="1.13779">
        <ele>657.4</ele>
        <time>2024-10-06T08:04:39Z</time>
      </trkpt>
      <trkpt lat="42.96575" lon="1.13776">
        <ele>657.8</ele>
        <time>2024-10-06T08:04:40Z</time>
      </trkpt>
      <trkpt lat="42.96575" lon="1.13773">
        <ele>658.2</ele>
        <time>2024-10-06T08:04:41Z</time>
      </trkpt>
      <trkpt lat="42.96575" lon="1.1377">
        <ele>658.6</ele>
        <time>2024-10-06T08:04:42Z</time>
      </trkpt>
      <trkpt lat="42.96574" lon="1.13768">
        <ele>659</ele>
        <time>2024-10-06T08:04:43Z</time>
      </trkpt>
      <trkpt lat="42.96573" lon="1.13765">
        <ele>659</ele>
        <time>2024-10-06T08:04:44Z</time>
      </trkpt>
      <trkpt lat="42.96571" lon="1.13763">
        <ele>659.4</ele>
        <time>2024-10-06T08:04:45Z</time>
      </trkpt>
      <trkpt lat="42.9657" lon="1.13762">
        <ele>659.8</ele>
        <time>2024-10-06T08:04:46Z</time>
      </trkpt>
      <trkpt lat="42.96568" lon="1.13761">
        <ele>660.2</ele>
        <time>2024-10-06T08:04:47Z</time>
      </trkpt>
      <trkpt lat="42.96567" lon="1.1376">
        <ele>660.6</ele>
        <time>2024-10-06T08:04:48Z</time>
      </trkpt>
      <trkpt lat="42.96565" lon="1.1376">
        <ele>661</ele>
        <time>2024-10-06T08:04:49Z</time>
      </trkpt>
      <trkpt lat="42.96564" lon="1.13759">
        <ele>661.6</ele>
        <time>2024-10-06T08:04:50Z</time>
      </trkpt>
      <trkpt lat="42.96562" lon="1.13759">
        <ele>662</ele>
        <time>2024-10-06T08:04:51Z</time>
      </trkpt>
      <trkpt lat="42.96561" lon="1.13758">
        <ele>662.4</ele>
        <time>2024-10-06T08:04:52Z</time>
      </trkpt>
      <trkpt lat="42.96559" lon="1.13758">
        <ele>663</ele>
        <time>2024-10-06T08:04:53Z</time>
      </trkpt>
      <trkpt lat="42.96558" lon="1.13757">
        <ele>663.4</ele>
        <time>2024-10-06T08:04:54Z</time>
      </trkpt>
      <trkpt lat="42.96555" lon="1.13755">
        <ele>664.2</ele>
        <time>2024-10-06T08:04:56Z</time>
      </trkpt>
      <trkpt lat="42.96553" lon="1.13753">
        <ele>664.6</ele>
        <time>2024-10-06T08:04:57Z</time>
      </trkpt>
      <trkpt lat="42.96552" lon="1.13751">
        <ele>665.2</ele>
        <time>2024-10-06T08:04:58Z</time>
      </trkpt>
      <trkpt lat="42.9655" lon="1.1375">
        <ele>665.6</ele>
        <time>2024-10-06T08:04:59Z</time>
      </trkpt>
      <trkpt lat="42.96549" lon="1.13748">
        <ele>666</ele>
        <time>2024-10-06T08:05:00Z</time>
      </trkpt>
      <trkpt lat="42.96547" lon="1.13746">
        <ele>666.4</ele>
        <time>2024-10-06T08:05:01Z</time>
      </trkpt>
      <trkpt lat="42.96546" lon="1.13745">
        <ele>666.8</ele>
        <time>2024-10-06T08:05:02Z</time>
      </trkpt>
      <trkpt lat="42.96545" lon="1.13744">
        <ele>667.2</ele>
        <time>2024-10-06T08:05:03Z</time>
      </trkpt>
      <trkpt lat="42.96543" lon="1.13742">
        <ele>667.6</ele>
        <time>2024-10-06T08:05:04Z</time>
      </trkpt>
      <trkpt lat="42.96539" lon="1.13738">
        <ele>668</ele>
        <time>2024-10-06T08:05:07Z</time>
      </trkpt>
      <trkpt lat="42.96538" lon="1.13737">
        <ele>668.4</ele>
        <time>2024-10-06T08:05:08Z</time>
      </trkpt>
      <trkpt lat="42.96537" lon="1.13736">
        <ele>668.8</ele>
        <time>2024-10-06T08:05:09Z</time>
      </trkpt>
      <trkpt lat="42.96535" lon="1.13734">
        <ele>669.2</ele>
        <time>2024-10-06T08:05:10Z</time>
      </trkpt>
      <trkpt lat="42.96534" lon="1.13733">
        <ele>669.6</ele>
        <time>2024-10-06T08:05:11Z</time>
      </trkpt>
      <trkpt lat="42.96527" lon="1.13724">
        <ele>670.2</ele>
        <time>2024-10-06T08:05:18Z</time>
      </trkpt>
      <trkpt lat="42.96525" lon="1.13723">
        <ele>670.6</ele>
        <time>2024-10-06T08:05:19Z</time>
      </trkpt>
      <trkpt lat="42.96523" lon="1.13722">
        <ele>671</ele>
        <time>2024-10-06T08:05:20Z</time>
      </trkpt>
      <trkpt lat="42.96521" lon="1.1372">
        <ele>671.4</ele>
        <time>2024-10-06T08:05:21Z</time>
      </trkpt>
      <trkpt lat="42.9652" lon="1.13718">
        <ele>672</ele>
        <time>2024-10-06T08:05:22Z</time>
      </trkpt>
      <trkpt lat="42.96515" lon="1.13715">
        <ele>672</ele>
        <time>2024-10-06T08:05:25Z</time>
      </trkpt>
      <trkpt lat="42.96502" lon="1.13708">
        <ele>672</ele>
        <time>2024-10-06T08:05:31Z</time>
      </trkpt>
      <trkpt lat="42.96494" lon="1.13705">
        <ele>672.4</ele>
        <time>2024-10-06T08:05:35Z</time>
      </trkpt>
      <trkpt lat="42.96492" lon="1.13705">
        <ele>672.8</ele>
        <time>2024-10-06T08:05:36Z</time>
      </trkpt>
      <trkpt lat="42.9649" lon="1.13704">
        <ele>673.2</ele>
        <time>2024-10-06T08:05:37Z</time>
      </trkpt>
      <trkpt lat="42.96488" lon="1.13704">
        <ele>673.6</ele>
        <time>2024-10-06T08:05:38Z</time>
      </trkpt>
      <trkpt lat="42.96487" lon="1.13703">
        <ele>674</ele>
        <time>2024-10-06T08:05:39Z</time>
      </trkpt>
      <trkpt lat="42.96478" lon="1.13702">
        <ele>674</ele>
        <time>2024-10-06T08:05:43Z</time>
      </trkpt>
      <trkpt lat="42.96475" lon="1.13702">
        <ele>674.4</ele>
        <time>2024-10-06T08:05:44Z</time>
      </trkpt>
      <trkpt lat="42.96473" lon="1.13702">
        <ele>674.8</ele>
        <time>2024-10-06T08:05:45Z</time>
      </trkpt>
      <trkpt lat="42.96472" lon="1.13702">
        <ele>675.2</ele>
        <time>2024-10-06T08:05:46Z</time>
      </trkpt>
      <trkpt lat="42.96469" lon="1.13702">
        <ele>676.2</ele>
        <time>2024-10-06T08:05:47Z</time>
      </trkpt>
      <trkpt lat="42.96466" lon="1.13702">
        <ele>676.2</ele>
        <time>2024-10-06T08:05:48Z</time>
      </trkpt>
      <trkpt lat="42.96462" lon="1.13704">
        <ele>676.6</ele>
        <time>2024-10-06T08:05:50Z</time>
      </trkpt>
      <trkpt lat="42.96461" lon="1.13705">
        <ele>677</ele>
        <time>2024-10-06T08:05:51Z</time>
      </trkpt>
      <trkpt lat="42.96459" lon="1.13707">
        <ele>677.4</ele>
        <time>2024-10-06T08:05:52Z</time>
      </trkpt>
      <trkpt lat="42.96457" lon="1.13708">
        <ele>678</ele>
        <time>2024-10-06T08:05:53Z</time>
      </trkpt>
      <trkpt lat="42.96455" lon="1.13711">
        <ele>678.4</ele>
        <time>2024-10-06T08:05:54Z</time>
      </trkpt>
      <trkpt lat="42.96453" lon="1.13714">
        <ele>678.4</ele>
        <time>2024-10-06T08:05:55Z</time>
      </trkpt>
      <trkpt lat="42.96448" lon="1.13719">
        <ele>678.4</ele>
        <time>2024-10-06T08:05:57Z</time>
      </trkpt>
      <trkpt lat="42.96442" lon="1.13728">
        <ele>678.8</ele>
        <time>2024-10-06T08:06:00Z</time>
      </trkpt>
      <trkpt lat="42.9644" lon="1.13731">
        <ele>679.2</ele>
        <time>2024-10-06T08:06:01Z</time>
      </trkpt>
      <trkpt lat="42.96439" lon="1.13733">
        <ele>679.6</ele>
        <time>2024-10-06T08:06:02Z</time>
      </trkpt>
      <trkpt lat="42.96437" lon="1.13736">
        <ele>680</ele>
        <time>2024-10-06T08:06:03Z</time>
      </trkpt>
      <trkpt lat="42.96436" lon="1.13739">
        <ele>680.4</ele>
        <time>2024-10-06T08:06:04Z</time>
      </trkpt>
      <trkpt lat="42.96427" lon="1.13754">
        <ele>680.4</ele>
        <time>2024-10-06T08:06:09Z</time>
      </trkpt>
      <trkpt lat="42.96426" lon="1.13757">
        <ele>680.8</ele>
        <time>2024-10-06T08:06:10Z</time>
      </trkpt>
      <trkpt lat="42.96424" lon="1.13759">
        <ele>681.8</ele>
        <time>2024-10-06T08:06:11Z</time>
      </trkpt>
      <trkpt lat="42.96422" lon="1.13761">
        <ele>682.2</ele>
        <time>2024-10-06T08:06:12Z</time>
      </trkpt>
      <trkpt lat="42.9642" lon="1.13764">
        <ele>682.6</ele>
        <time>2024-10-06T08:06:13Z</time>
      </trkpt>
      <trkpt lat="42.96414" lon="1.13767">
        <ele>682.6</ele>
        <time>2024-10-06T08:06:16Z</time>
      </trkpt>
      <trkpt lat="42.96406" lon="1.13773">
        <ele>682.6</ele>
        <time>2024-10-06T08:06:21Z</time>
      </trkpt>
      <trkpt lat="42.96396" lon="1.13779">
        <ele>683</ele>
        <time>2024-10-06T08:06:26Z</time>
      </trkpt>
      <trkpt lat="42.96394" lon="1.1378">
        <ele>683.4</ele>
        <time>2024-10-06T08:06:27Z</time>
      </trkpt>
      <trkpt lat="42.96393" lon="1.13782">
        <ele>683.8</ele>
        <time>2024-10-06T08:06:28Z</time>
      </trkpt>
      <trkpt lat="42.96392" lon="1.13784">
        <ele>684.2</ele>
        <time>2024-10-06T08:06:29Z</time>
      </trkpt>
      <trkpt lat="42.96391" lon="1.13785">
        <ele>684.6</ele>
        <time>2024-10-06T08:06:30Z</time>
      </trkpt>
      <trkpt lat="42.9639" lon="1.13788">
        <ele>684.6</ele>
        <time>2024-10-06T08:06:31Z</time>
      </trkpt>
      <trkpt lat="42.96388" lon="1.1379">
        <ele>684.6</ele>
        <time>2024-10-06T08:06:32Z</time>
      </trkpt>
      <trkpt lat="42.96385" lon="1.13795">
        <ele>685.2</ele>
        <time>2024-10-06T08:06:34Z</time>
      </trkpt>
      <trkpt lat="42.96383" lon="1.13797">
        <ele>685.6</ele>
        <time>2024-10-06T08:06:35Z</time>
      </trkpt>
      <trkpt lat="42.9638" lon="1.13799">
        <ele>686.4</ele>
        <time>2024-10-06T08:06:36Z</time>
      </trkpt>
      <trkpt lat="42.96378" lon="1.13803">
        <ele>687</ele>
        <time>2024-10-06T08:06:37Z</time>
      </trkpt>
      <trkpt lat="42.96364" lon="1.1382">
        <ele>687</ele>
        <time>2024-10-06T08:06:43Z</time>
      </trkpt>
      <trkpt lat="42.96362" lon="1.13823">
        <ele>687.4</ele>
        <time>2024-10-06T08:06:44Z</time>
      </trkpt>
      <trkpt lat="42.9636" lon="1.13825">
        <ele>687.8</ele>
        <time>2024-10-06T08:06:45Z</time>
      </trkpt>
      <trkpt lat="42.96358" lon="1.13828">
        <ele>688.2</ele>
        <time>2024-10-06T08:06:46Z</time>
      </trkpt>
      <trkpt lat="42.96355" lon="1.1383">
        <ele>688.8</ele>
        <time>2024-10-06T08:06:47Z</time>
      </trkpt>
      <trkpt lat="42.96353" lon="1.13834">
        <ele>689.2</ele>
        <time>2024-10-06T08:06:48Z</time>
      </trkpt>
      <trkpt lat="42.96348" lon="1.13837">
        <ele>689.6</ele>
        <time>2024-10-06T08:06:50Z</time>
      </trkpt>
      <trkpt lat="42.96346" lon="1.13839">
        <ele>690</ele>
        <time>2024-10-06T08:06:51Z</time>
      </trkpt>
      <trkpt lat="42.96344" lon="1.13839">
        <ele>690.6</ele>
        <time>2024-10-06T08:06:52Z</time>
      </trkpt>
      <trkpt lat="42.96341" lon="1.1384">
        <ele>691</ele>
        <time>2024-10-06T08:06:53Z</time>
      </trkpt>
      <trkpt lat="42.96338" lon="1.1384">
        <ele>691.4</ele>
        <time>2024-10-06T08:06:54Z</time>
      </trkpt>
      <trkpt lat="42.96333" lon="1.13842">
        <ele>691.8</ele>
        <time>2024-10-06T08:06:56Z</time>
      </trkpt>
      <trkpt lat="42.9633" lon="1.13842">
        <ele>692.4</ele>
        <time>2024-10-06T08:06:57Z</time>
      </trkpt>
      <trkpt lat="42.96327" lon="1.13841">
        <ele>692.8</ele>
        <time>2024-10-06T08:06:58Z</time>
      </trkpt>
      <trkpt lat="42.96324" lon="1.13841">
        <ele>693.4</ele>
        <time>2024-10-06T08:06:59Z</time>
      </trkpt>
      <trkpt lat="42.96321" lon="1.13839">
        <ele>693.8</ele>
        <time>2024-10-06T08:07:00Z</time>
      </trkpt>
      <trkpt lat="42.96318" lon="1.13838">
        <ele>693.8</ele>
        <time>2024-10-06T08:07:01Z</time>
      </trkpt>
      <trkpt lat="42.96313" lon="1.13834">
        <ele>694.4</ele>
        <time>2024-10-06T08:07:03Z</time>
      </trkpt>
      <trkpt lat="42.9631" lon="1.13832">
        <ele>694.8</ele>
        <time>2024-10-06T08:07:04Z</time>
      </trkpt>
      <trkpt lat="42.96308" lon="1.1383">
        <ele>695.2</ele>
        <time>2024-10-06T08:07:05Z</time>
      </trkpt>
      <trkpt lat="42.96306" lon="1.13828">
        <ele>695.6</ele>
        <time>2024-10-06T08:07:06Z</time>
      </trkpt>
      <trkpt lat="42.96303" lon="1.13827">
        <ele>696.2</ele>
        <time>2024-10-06T08:07:07Z</time>
      </trkpt>
      <trkpt lat="42.96292" lon="1.13821">
        <ele>696.2</ele>
        <time>2024-10-06T08:07:11Z</time>
      </trkpt>
      <trkpt lat="42.9629" lon="1.1382">
        <ele>696.6</ele>
        <time>2024-10-06T08:07:12Z</time>
      </trkpt>
      <trkpt lat="42.96287" lon="1.13819">
        <ele>697</ele>
        <time>2024-10-06T08:07:13Z</time>
      </trkpt>
      <trkpt lat="42.96285" lon="1.13818">
        <ele>697.4</ele>
        <time>2024-10-06T08:07:14Z</time>
      </trkpt>
      <trkpt lat="42.96283" lon="1.13817">
        <ele>697.8</ele>
        <time>2024-10-06T08:07:15Z</time>
      </trkpt>
      <trkpt lat="42.96279" lon="1.13815">
        <ele>698.2</ele>
        <time>2024-10-06T08:07:16Z</time>
      </trkpt>
      <trkpt lat="42.96274" lon="1.13811">
        <ele>698.8</ele>
        <time>2024-10-06T08:07:20Z</time>
      </trkpt>
      <trkpt lat="42.96273" lon="1.13812">
        <ele>699.2</ele>
        <time>2024-10-06T08:07:21Z</time>
      </trkpt>
      <trkpt lat="42.96272" lon="1.13812">
        <ele>699.6</ele>
        <time>2024-10-06T08:07:22Z</time>
      </trkpt>
      <trkpt lat="42.9627" lon="1.13813">
        <ele>700</ele>
        <time>2024-10-06T08:07:23Z</time>
      </trkpt>
      <trkpt lat="42.96268" lon="1.13814">
        <ele>700.6</ele>
        <time>2024-10-06T08:07:24Z</time>
      </trkpt>
      <trkpt lat="42.96264" lon="1.13818">
        <ele>700.6</ele>
        <time>2024-10-06T08:07:27Z</time>
      </trkpt>
      <trkpt lat="42.96259" lon="1.13821">
        <ele>700.6</ele>
        <time>2024-10-06T08:07:29Z</time>
      </trkpt>
      <trkpt lat="42.96257" lon="1.13823">
        <ele>701</ele>
        <time>2024-10-06T08:07:30Z</time>
      </trkpt>
      <trkpt lat="42.96255" lon="1.13825">
        <ele>701.4</ele>
        <time>2024-10-06T08:07:31Z</time>
      </trkpt>
      <trkpt lat="42.96253" lon="1.13827">
        <ele>701.8</ele>
        <time>2024-10-06T08:07:32Z</time>
      </trkpt>
      <trkpt lat="42.96251" lon="1.1383">
        <ele>702.2</ele>
        <time>2024-10-06T08:07:33Z</time>
      </trkpt>
      <trkpt lat="42.96249" lon="1.13832">
        <ele>702.6</ele>
        <time>2024-10-06T08:07:34Z</time>
      </trkpt>
      <trkpt lat="42.96246" lon="1.13835">
        <ele>702.6</ele>
        <time>2024-10-06T08:07:36Z</time>
      </trkpt>
      <trkpt lat="42.9624" lon="1.13838">
        <ele>703</ele>
        <time>2024-10-06T08:07:39Z</time>
      </trkpt>
      <trkpt lat="42.96238" lon="1.13839">
        <ele>703.6</ele>
        <time>2024-10-06T08:07:40Z</time>
      </trkpt>
      <trkpt lat="42.96236" lon="1.13839">
        <ele>704</ele>
        <time>2024-10-06T08:07:41Z</time>
      </trkpt>
      <trkpt lat="42.96234" lon="1.1384">
        <ele>704.4</ele>
        <time>2024-10-06T08:07:42Z</time>
      </trkpt>
      <trkpt lat="42.96231" lon="1.13842">
        <ele>704.8</ele>
        <time>2024-10-06T08:07:43Z</time>
      </trkpt>
      <trkpt lat="42.96227" lon="1.13844">
        <ele>705.2</ele>
        <time>2024-10-06T08:07:45Z</time>
      </trkpt>
      <trkpt lat="42.96226" lon="1.13845">
        <ele>705.8</ele>
        <time>2024-10-06T08:07:46Z</time>
      </trkpt>
      <trkpt lat="42.96224" lon="1.13846">
        <ele>706.2</ele>
        <time>2024-10-06T08:07:47Z</time>
      </trkpt>
      <trkpt lat="42.96222" lon="1.13847">
        <ele>706.6</ele>
        <time>2024-10-06T08:07:48Z</time>
      </trkpt>
      <trkpt lat="42.9622" lon="1.13848">
        <ele>707</ele>
        <time>2024-10-06T08:07:49Z</time>
      </trkpt>
      <trkpt lat="42.96215" lon="1.1385">
        <ele>708</ele>
        <time>2024-10-06T08:07:51Z</time>
      </trkpt>
      <trkpt lat="42.96213" lon="1.13851">
        <ele>708.4</ele>
        <time>2024-10-06T08:07:52Z</time>
      </trkpt>
      <trkpt lat="42.96212" lon="1.13852">
        <ele>708.8</ele>
        <time>2024-10-06T08:07:53Z</time>
      </trkpt>
      <trkpt lat="42.9621" lon="1.13853">
        <ele>709.2</ele>
        <time>2024-10-06T08:07:54Z</time>
      </trkpt>
      <trkpt lat="42.96199" lon="1.13858">
        <ele>709.2</ele>
        <time>2024-10-06T08:07:59Z</time>
      </trkpt>
      <trkpt lat="42.96195" lon="1.13858">
        <ele>709.8</ele>
        <time>2024-10-06T08:08:01Z</time>
      </trkpt>
      <trkpt lat="42.96193" lon="1.13857">
        <ele>710.2</ele>
        <time>2024-10-06T08:08:02Z</time>
      </trkpt>
      <trkpt lat="42.96192" lon="1.13856">
        <ele>710.6</ele>
        <time>2024-10-06T08:08:03Z</time>
      </trkpt>
      <trkpt lat="42.9619" lon="1.13856">
        <ele>711</ele>
        <time>2024-10-06T08:08:04Z</time>
      </trkpt>
      <trkpt lat="42.96189" lon="1.13855">
        <ele>711.4</ele>
        <time>2024-10-06T08:08:05Z</time>
      </trkpt>
      <trkpt lat="42.96187" lon="1.13854">
        <ele>711.4</ele>
        <time>2024-10-06T08:08:07Z</time>
      </trkpt>
      <trkpt lat="42.96184" lon="1.13851">
        <ele>711.8</ele>
        <time>2024-10-06T08:08:09Z</time>
      </trkpt>
      <trkpt lat="42.96183" lon="1.1385">
        <ele>712.4</ele>
        <time>2024-10-06T08:08:10Z</time>
      </trkpt>
      <trkpt lat="42.96182" lon="1.13848">
        <ele>712.8</ele>
        <time>2024-10-06T08:08:11Z</time>
      </trkpt>
      <trkpt lat="42.96181" lon="1.13847">
        <ele>713.2</ele>
        <time>2024-10-06T08:08:12Z</time>
      </trkpt>
      <trkpt lat="42.9618" lon="1.13845">
        <ele>713.6</ele>
        <time>2024-10-06T08:08:13Z</time>
      </trkpt>
      <trkpt lat="42.96177" lon="1.13839">
        <ele>714</ele>
        <time>2024-10-06T08:08:16Z</time>
      </trkpt>
      <trkpt lat="42.96176" lon="1.13838">
        <ele>714.4</ele>
        <time>2024-10-06T08:08:17Z</time>
      </trkpt>
      <trkpt lat="42.96175" lon="1.13836">
        <ele>715</ele>
        <time>2024-10-06T08:08:18Z</time>
      </trkpt>
      <trkpt lat="42.96174" lon="1.13835">
        <ele>715.4</ele>
        <time>2024-10-06T08:08:19Z</time>
      </trkpt>
      <trkpt lat="42.96173" lon="1.13833">
        <ele>715.8</ele>
        <time>2024-10-06T08:08:20Z</time>
      </trkpt>
      <trkpt lat="42.96171" lon="1.1383">
        <ele>715.8</ele>
        <time>2024-10-06T08:08:22Z</time>
      </trkpt>
      <trkpt lat="42.9617" lon="1.13829">
        <ele>716.2</ele>
        <time>2024-10-06T08:08:23Z</time>
      </trkpt>
      <trkpt lat="42.96168" lon="1.13827">
        <ele>716.6</ele>
        <time>2024-10-06T08:08:24Z</time>
      </trkpt>
      <trkpt lat="42.96167" lon="1.13826">
        <ele>717</ele>
        <time>2024-10-06T08:08:25Z</time>
      </trkpt>
      <trkpt lat="42.96166" lon="1.13824">
        <ele>717.4</ele>
        <time>2024-10-06T08:08:26Z</time>
      </trkpt>
      <trkpt lat="42.96166" lon="1.13823">
        <ele>718</ele>
        <time>2024-10-06T08:08:27Z</time>
      </trkpt>
      <trkpt lat="42.96162" lon="1.13818">
        <ele>718</ele>
        <time>2024-10-06T08:08:30Z</time>
      </trkpt>
      <trkpt lat="42.9616" lon="1.13811">
        <ele>718.4</ele>
        <time>2024-10-06T08:08:33Z</time>
      </trkpt>
      <trkpt lat="42.96159" lon="1.13809">
        <ele>718.8</ele>
        <time>2024-10-06T08:08:34Z</time>
      </trkpt>
      <trkpt lat="42.96159" lon="1.13806">
        <ele>719.2</ele>
        <time>2024-10-06T08:08:35Z</time>
      </trkpt>
      <trkpt lat="42.96158" lon="1.13804">
        <ele>719.6</ele>
        <time>2024-10-06T08:08:36Z</time>
      </trkpt>
      <trkpt lat="42.96158" lon="1.13802">
        <ele>720</ele>
        <time>2024-10-06T08:08:37Z</time>
      </trkpt>
      <trkpt lat="42.96154" lon="1.13792">
        <ele>720</ele>
        <time>2024-10-06T08:08:41Z</time>
      </trkpt>
      <trkpt lat="42.96147" lon="1.13774">
        <ele>720</ele>
        <time>2024-10-06T08:08:47Z</time>
      </trkpt>
      <trkpt lat="42.96135" lon="1.13757">
        <ele>720</ele>
        <time>2024-10-06T08:08:53Z</time>
      </trkpt>
      <trkpt lat="42.96123" lon="1.13738">
        <ele>720</ele>
        <time>2024-10-06T08:08:59Z</time>
      </trkpt>
      <trkpt lat="42.96116" lon="1.13712">
        <ele>720</ele>
        <time>2024-10-06T08:09:05Z</time>
      </trkpt>
      <trkpt lat="42.96111" lon="1.13694">
        <ele>720</ele>
        <time>2024-10-06T08:09:10Z</time>
      </trkpt>
      <trkpt lat="42.96106" lon="1.13679">
        <ele>720</ele>
        <time>2024-10-06T08:09:14Z</time>
      </trkpt>
      <trkpt lat="42.96103" lon="1.13671">
        <ele>720</ele>
        <time>2024-10-06T08:09:16Z</time>
      </trkpt>
      <trkpt lat="42.961" lon="1.13667">
        <ele>720.4</ele>
        <time>2024-10-06T08:09:17Z</time>
      </trkpt>
      <trkpt lat="42.96098" lon="1.13664">
        <ele>720.8</ele>
        <time>2024-10-06T08:09:18Z</time>
      </trkpt>
      <trkpt lat="42.96096" lon="1.1366">
        <ele>721.2</ele>
        <time>2024-10-06T08:09:19Z</time>
      </trkpt>
      <trkpt lat="42.96094" lon="1.13656">
        <ele>721.8</ele>
        <time>2024-10-06T08:09:20Z</time>
      </trkpt>
      <trkpt lat="42.96091" lon="1.13652">
        <ele>722.2</ele>
        <time>2024-10-06T08:09:21Z</time>
      </trkpt>
      <trkpt lat="42.96088" lon="1.1364">
        <ele>722.2</ele>
        <time>2024-10-06T08:09:24Z</time>
      </trkpt>
      <trkpt lat="42.96083" lon="1.13625">
        <ele>722.6</ele>
        <time>2024-10-06T08:09:28Z</time>
      </trkpt>
      <trkpt lat="42.96081" lon="1.13621">
        <ele>723.4</ele>
        <time>2024-10-06T08:09:29Z</time>
      </trkpt>
      <trkpt lat="42.9608" lon="1.13618">
        <ele>723.8</ele>
        <time>2024-10-06T08:09:30Z</time>
      </trkpt>
      <trkpt lat="42.96078" lon="1.13614">
        <ele>724.2</ele>
        <time>2024-10-06T08:09:31Z</time>
      </trkpt>
      <trkpt lat="42.96067" lon="1.13594">
        <ele>724.2</ele>
        <time>2024-10-06T08:09:36Z</time>
      </trkpt>
      <trkpt lat="42.96056" lon="1.13568">
        <ele>724.2</ele>
        <time>2024-10-06T08:09:42Z</time>
      </trkpt>
      <trkpt lat="42.96049" lon="1.13551">
        <ele>724.6</ele>
        <time>2024-10-06T08:09:47Z</time>
      </trkpt>
      <trkpt lat="42.96049" lon="1.13547">
        <ele>725</ele>
        <time>2024-10-06T08:09:48Z</time>
      </trkpt>
      <trkpt lat="42.96048" lon="1.13542">
        <ele>725.4</ele>
        <time>2024-10-06T08:09:49Z</time>
      </trkpt>
      <trkpt lat="42.96048" lon="1.13538">
        <ele>726</ele>
        <time>2024-10-06T08:09:50Z</time>
      </trkpt>
      <trkpt lat="42.96047" lon="1.13532">
        <ele>726.4</ele>
        <time>2024-10-06T08:09:51Z</time>
      </trkpt>
      <trkpt lat="42.96046" lon="1.13523">
        <ele>726.4</ele>
        <time>2024-10-06T08:09:53Z</time>
      </trkpt>
      <trkpt lat="42.96045" lon="1.13514">
        <ele>726.8</ele>
        <time>2024-10-06T08:09:55Z</time>
      </trkpt>
      <trkpt lat="42.96045" lon="1.1351">
        <ele>727.2</ele>
        <time>2024-10-06T08:09:56Z</time>
      </trkpt>
      <trkpt lat="42.96045" lon="1.13505">
        <ele>727.6</ele>
        <time>2024-10-06T08:09:57Z</time>
      </trkpt>
      <trkpt lat="42.96045" lon="1.135">
        <ele>728</ele>
        <time>2024-10-06T08:09:58Z</time>
      </trkpt>
      <trkpt lat="42.96045" lon="1.13496">
        <ele>728.4</ele>
        <time>2024-10-06T08:09:59Z</time>
      </trkpt>
      <trkpt lat="42.96043" lon="1.13482">
        <ele>728.4</ele>
        <time>2024-10-06T08:10:02Z</time>
      </trkpt>
      <trkpt lat="42.96042" lon="1.13478">
        <ele>728.4</ele>
        <time>2024-10-06T08:10:03Z</time>
      </trkpt>
      <trkpt lat="42.96041" lon="1.13474">
        <ele>728.8</ele>
        <time>2024-10-06T08:10:04Z</time>
      </trkpt>
      <trkpt lat="42.96039" lon="1.13471">
        <ele>729.2</ele>
        <time>2024-10-06T08:10:05Z</time>
      </trkpt>
      <trkpt lat="42.96038" lon="1.13468">
        <ele>729.6</ele>
        <time>2024-10-06T08:10:06Z</time>
      </trkpt>
      <trkpt lat="42.96036" lon="1.13463">
        <ele>730.2</ele>
        <time>2024-10-06T08:10:07Z</time>
      </trkpt>
      <trkpt lat="42.96035" lon="1.13459">
        <ele>730.6</ele>
        <time>2024-10-06T08:10:08Z</time>
      </trkpt>
      <trkpt lat="42.96031" lon="1.13429">
        <ele>730.6</ele>
        <time>2024-10-06T08:10:14Z</time>
      </trkpt>
      <trkpt lat="42.96035" lon="1.13398">
        <ele>730.6</ele>
        <time>2024-10-06T08:10:20Z</time>
      </trkpt>
      <trkpt lat="42.96038" lon="1.13373">
        <ele>730.6</ele>
        <time>2024-10-06T08:10:26Z</time>
      </trkpt>
      <trkpt lat="42.96041" lon="1.13364">
        <ele>730.6</ele>
        <time>2024-10-06T08:10:31Z</time>
      </trkpt>
      <trkpt lat="42.96041" lon="1.13364">
        <ele>730.6</ele>
        <time>2024-10-06T08:10:32Z</time>
      </trkpt>
      <trkpt lat="42.96041" lon="1.13361">
        <ele>730.6</ele>
        <time>2024-10-06T08:13:24Z</time>
      </trkpt>
      <trkpt lat="42.96041" lon="1.13358">
        <ele>730.6</ele>
        <time>2024-10-06T08:13:25Z</time>
      </trkpt>
      <trkpt lat="42.96039" lon="1.13337">
        <ele>730.6</ele>
        <time>2024-10-06T08:13:29Z</time>
      </trkpt>
      <trkpt lat="42.96036" lon="1.13323">
        <ele>730.6</ele>
        <time>2024-10-06T08:13:31Z</time>
      </trkpt>
      <trkpt lat="42.96031" lon="1.1331">
        <ele>730.6</ele>
        <time>2024-10-06T08:13:33Z</time>
      </trkpt>
      <trkpt lat="42.96029" lon="1.13303">
        <ele>730.6</ele>
        <time>2024-10-06T08:13:34Z</time>
      </trkpt>
      <trkpt lat="42.96028" lon="1.13296">
        <ele>730.2</ele>
        <time>2024-10-06T08:13:35Z</time>
      </trkpt>
      <trkpt lat="42.96026" lon="1.13291">
        <ele>729.6</ele>
        <time>2024-10-06T08:13:36Z</time>
      </trkpt>
      <trkpt lat="42.96024" lon="1.13287">
        <ele>729.2</ele>
        <time>2024-10-06T08:13:37Z</time>
      </trkpt>
      <trkpt lat="42.96022" lon="1.13285">
        <ele>728.8</ele>
        <time>2024-10-06T08:13:38Z</time>
      </trkpt>
      <trkpt lat="42.9602" lon="1.13287">
        <ele>728.4</ele>
        <time>2024-10-06T08:13:39Z</time>
      </trkpt>
      <trkpt lat="42.96018" lon="1.13288">
        <ele>728.4</ele>
        <time>2024-10-06T08:13:40Z</time>
      </trkpt>
      <trkpt lat="42.96017" lon="1.13288">
        <ele>728.4</ele>
        <time>2024-10-06T08:13:42Z</time>
      </trkpt>
      <trkpt lat="42.96014" lon="1.13289">
        <ele>728.4</ele>
        <time>2024-10-06T08:19:33Z</time>
      </trkpt>
      <trkpt lat="42.96003" lon="1.13292">
        <ele>728.4</ele>
        <time>2024-10-06T08:19:37Z</time>
      </trkpt>
      <trkpt lat="42.95994" lon="1.13295">
        <ele>728.4</ele>
        <time>2024-10-06T08:19:39Z</time>
      </trkpt>
      <trkpt lat="42.95989" lon="1.13297">
        <ele>727.8</ele>
        <time>2024-10-06T08:19:40Z</time>
      </trkpt>
      <trkpt lat="42.95984" lon="1.13298">
        <ele>727.4</ele>
        <time>2024-10-06T08:19:41Z</time>
      </trkpt>
      <trkpt lat="42.95979" lon="1.133">
        <ele>727</ele>
        <time>2024-10-06T08:19:42Z</time>
      </trkpt>
      <trkpt lat="42.95973" lon="1.13303">
        <ele>726.4</ele>
        <time>2024-10-06T08:19:43Z</time>
      </trkpt>
      <trkpt lat="42.95968" lon="1.13305">
        <ele>726</ele>
        <time>2024-10-06T08:19:44Z</time>
      </trkpt>
      <trkpt lat="42.95962" lon="1.13307">
        <ele>725.6</ele>
        <time>2024-10-06T08:19:45Z</time>
      </trkpt>
      <trkpt lat="42.95956" lon="1.13309">
        <ele>725.2</ele>
        <time>2024-10-06T08:19:46Z</time>
      </trkpt>
      <trkpt lat="42.95949" lon="1.13307">
        <ele>724.2</ele>
        <time>2024-10-06T08:19:47Z</time>
      </trkpt>
      <trkpt lat="42.95943" lon="1.13304">
        <ele>723.6</ele>
        <time>2024-10-06T08:19:48Z</time>
      </trkpt>
      <trkpt lat="42.95938" lon="1.133">
        <ele>723</ele>
        <time>2024-10-06T08:19:49Z</time>
      </trkpt>
      <trkpt lat="42.95933" lon="1.13301">
        <ele>722.2</ele>
        <time>2024-10-06T08:19:50Z</time>
      </trkpt>
      <trkpt lat="42.95929" lon="1.13307">
        <ele>721.6</ele>
        <time>2024-10-06T08:19:51Z</time>
      </trkpt>
      <trkpt lat="42.95927" lon="1.13317">
        <ele>720.8</ele>
        <time>2024-10-06T08:19:52Z</time>
      </trkpt>
      <trkpt lat="42.95929" lon="1.13327">
        <ele>720</ele>
        <time>2024-10-06T08:19:53Z</time>
      </trkpt>
      <trkpt lat="42.95929" lon="1.13337">
        <ele>719.4</ele>
        <time>2024-10-06T08:19:54Z</time>
      </trkpt>
      <trkpt lat="42.9593" lon="1.13348">
        <ele>718.8</ele>
        <time>2024-10-06T08:19:55Z</time>
      </trkpt>
      <trkpt lat="42.95929" lon="1.1336">
        <ele>718</ele>
        <time>2024-10-06T08:19:56Z</time>
      </trkpt>
      <trkpt lat="42.95928" lon="1.13372">
        <ele>717.2</ele>
        <time>2024-10-06T08:19:57Z</time>
      </trkpt>
      <trkpt lat="42.95927" lon="1.13384">
        <ele>716.4</ele>
        <time>2024-10-06T08:19:58Z</time>
      </trkpt>
      <trkpt lat="42.95926" lon="1.13396">
        <ele>715.6</ele>
        <time>2024-10-06T08:19:59Z</time>
      </trkpt>
      <trkpt lat="42.95924" lon="1.13409">
        <ele>715</ele>
        <time>2024-10-06T08:20:00Z</time>
      </trkpt>
      <trkpt lat="42.95923" lon="1.13421">
        <ele>714.4</ele>
        <time>2024-10-06T08:20:01Z</time>
      </trkpt>
      <trkpt lat="42.95922" lon="1.13434">
        <ele>713.8</ele>
        <time>2024-10-06T08:20:02Z</time>
      </trkpt>
      <trkpt lat="42.95921" lon="1.13447">
        <ele>713.2</ele>
        <time>2024-10-06T08:20:03Z</time>
      </trkpt>
      <trkpt lat="42.95921" lon="1.1346">
        <ele>712.6</ele>
        <time>2024-10-06T08:20:04Z</time>
      </trkpt>
      <trkpt lat="42.9592" lon="1.13473">
        <ele>712</ele>
        <time>2024-10-06T08:20:05Z</time>
      </trkpt>
      <trkpt lat="42.95919" lon="1.13485">
        <ele>711.4</ele>
        <time>2024-10-06T08:20:06Z</time>
      </trkpt>
      <trkpt lat="42.95918" lon="1.13498">
        <ele>710.8</ele>
        <time>2024-10-06T08:20:07Z</time>
      </trkpt>
      <trkpt lat="42.95917" lon="1.13511">
        <ele>710</ele>
        <time>2024-10-06T08:20:08Z</time>
      </trkpt>
      <trkpt lat="42.95916" lon="1.13525">
        <ele>709.2</ele>
        <time>2024-10-06T08:20:09Z</time>
      </trkpt>
      <trkpt lat="42.95915" lon="1.13538">
        <ele>708.4</ele>
        <time>2024-10-06T08:20:10Z</time>
      </trkpt>
      <trkpt lat="42.95914" lon="1.13551">
        <ele>706.6</ele>
        <time>2024-10-06T08:20:11Z</time>
      </trkpt>
      <trkpt lat="42.95913" lon="1.13564">
        <ele>705.6</ele>
        <time>2024-10-06T08:20:12Z</time>
      </trkpt>
      <trkpt lat="42.95912" lon="1.13575">
        <ele>704.6</ele>
        <time>2024-10-06T08:20:13Z</time>
      </trkpt>
      <trkpt lat="42.9591" lon="1.13585">
        <ele>703.8</ele>
        <time>2024-10-06T08:20:14Z</time>
      </trkpt>
      <trkpt lat="42.9591" lon="1.13595">
        <ele>702.8</ele>
        <time>2024-10-06T08:20:15Z</time>
      </trkpt>
      <trkpt lat="42.95909" lon="1.13604">
        <ele>702</ele>
        <time>2024-10-06T08:20:16Z</time>
      </trkpt>
      <trkpt lat="42.95909" lon="1.13612">
        <ele>701.2</ele>
        <time>2024-10-06T08:20:17Z</time>
      </trkpt>
      <trkpt lat="42.95908" lon="1.1362">
        <ele>700.4</ele>
        <time>2024-10-06T08:20:18Z</time>
      </trkpt>
      <trkpt lat="42.95905" lon="1.13627">
        <ele>699.8</ele>
        <time>2024-10-06T08:20:19Z</time>
      </trkpt>
      <trkpt lat="42.95902" lon="1.13634">
        <ele>699</ele>
        <time>2024-10-06T08:20:20Z</time>
      </trkpt>
      <trkpt lat="42.95899" lon="1.13639">
        <ele>698.2</ele>
        <time>2024-10-06T08:20:21Z</time>
      </trkpt>
      <trkpt lat="42.95888" lon="1.13662">
        <ele>698.2</ele>
        <time>2024-10-06T08:20:26Z</time>
      </trkpt>
      <trkpt lat="42.95881" lon="1.13679">
        <ele>698.2</ele>
        <time>2024-10-06T08:20:31Z</time>
      </trkpt>
      <trkpt lat="42.95878" lon="1.13713">
        <ele>698.2</ele>
        <time>2024-10-06T08:20:38Z</time>
      </trkpt>
      <trkpt lat="42.95875" lon="1.13748">
        <ele>698.2</ele>
        <time>2024-10-06T08:20:46Z</time>
      </trkpt>
      <trkpt lat="42.95875" lon="1.13779">
        <ele>698.2</ele>
        <time>2024-10-06T08:20:53Z</time>
      </trkpt>
      <trkpt lat="42.95866" lon="1.13789">
        <ele>698.6</ele>
        <time>2024-10-06T08:20:57Z</time>
      </trkpt>
      <trkpt lat="42.95864" lon="1.1379">
        <ele>699</ele>
        <time>2024-10-06T08:20:58Z</time>
      </trkpt>
      <trkpt lat="42.95861" lon="1.13792">
        <ele>699.4</ele>
        <time>2024-10-06T08:20:59Z</time>
      </trkpt>
      <trkpt lat="42.95859" lon="1.13793">
        <ele>699.8</ele>
        <time>2024-10-06T08:21:00Z</time>
      </trkpt>
      <trkpt lat="42.95858" lon="1.13794">
        <ele>700.2</ele>
        <time>2024-10-06T08:21:01Z</time>
      </trkpt>
      <trkpt lat="42.95856" lon="1.13795">
        <ele>700.6</ele>
        <time>2024-10-06T08:21:02Z</time>
      </trkpt>
      <trkpt lat="42.95853" lon="1.13796">
        <ele>701</ele>
        <time>2024-10-06T08:21:03Z</time>
      </trkpt>
      <trkpt lat="42.95851" lon="1.13797">
        <ele>701.4</ele>
        <time>2024-10-06T08:21:04Z</time>
      </trkpt>
      <trkpt lat="42.95848" lon="1.13798">
        <ele>701.8</ele>
        <time>2024-10-06T08:21:05Z</time>
      </trkpt>
      <trkpt lat="42.95846" lon="1.138">
        <ele>702.4</ele>
        <time>2024-10-06T08:21:06Z</time>
      </trkpt>
      <trkpt lat="42.95838" lon="1.13801">
        <ele>702.8</ele>
        <time>2024-10-06T08:21:09Z</time>
      </trkpt>
      <trkpt lat="42.95836" lon="1.138">
        <ele>703.2</ele>
        <time>2024-10-06T08:21:10Z</time>
      </trkpt>
      <trkpt lat="42.95834" lon="1.138">
        <ele>703.6</ele>
        <time>2024-10-06T08:21:11Z</time>
      </trkpt>
      <trkpt lat="42.95831" lon="1.13799">
        <ele>704</ele>
        <time>2024-10-06T08:21:12Z</time>
      </trkpt>
      <trkpt lat="42.95829" lon="1.13798">
        <ele>704.4</ele>
        <time>2024-10-06T08:21:13Z</time>
      </trkpt>
      <trkpt lat="42.95822" lon="1.13796">
        <ele>705</ele>
        <time>2024-10-06T08:21:17Z</time>
      </trkpt>
      <trkpt lat="42.9582" lon="1.13797">
        <ele>705.4</ele>
        <time>2024-10-06T08:21:18Z</time>
      </trkpt>
      <trkpt lat="42.95818" lon="1.13798">
        <ele>705.8</ele>
        <time>2024-10-06T08:21:19Z</time>
      </trkpt>
      <trkpt lat="42.95816" lon="1.13799">
        <ele>706.2</ele>
        <time>2024-10-06T08:21:20Z</time>
      </trkpt>
      <trkpt lat="42.95815" lon="1.13801">
        <ele>706.8</ele>
        <time>2024-10-06T08:21:21Z</time>
      </trkpt>
      <trkpt lat="42.95813" lon="1.13801">
        <ele>707.2</ele>
        <time>2024-10-06T08:21:24Z</time>
      </trkpt>
      <trkpt lat="42.95812" lon="1.13802">
        <ele>707.6</ele>
        <time>2024-10-06T08:21:25Z</time>
      </trkpt>
      <trkpt lat="42.95813" lon="1.13801">
        <ele>708.6</ele>
        <time>2024-10-06T08:21:26Z</time>
      </trkpt>
      <trkpt lat="42.95784" lon="1.13803">
        <ele>714.4</ele>
        <time>2024-10-06T08:22:25Z</time>
      </trkpt>
      <trkpt lat="42.95782" lon="1.13803">
        <ele>714.8</ele>
        <time>2024-10-06T08:22:26Z</time>
      </trkpt>
      <trkpt lat="42.95781" lon="1.13804">
        <ele>715.2</ele>
        <time>2024-10-06T08:22:27Z</time>
      </trkpt>
      <trkpt lat="42.95773" lon="1.13807">
        <ele>715.2</ele>
        <time>2024-10-06T08:22:31Z</time>
      </trkpt>
      <trkpt lat="42.95769" lon="1.13807">
        <ele>715.2</ele>
        <time>2024-10-06T08:22:33Z</time>
      </trkpt>
      <trkpt lat="42.95767" lon="1.13807">
        <ele>715.6</ele>
        <time>2024-10-06T08:22:35Z</time>
      </trkpt>
      <trkpt lat="42.95766" lon="1.13807">
        <ele>716</ele>
        <time>2024-10-06T08:22:36Z</time>
      </trkpt>
      <trkpt lat="42.95765" lon="1.13807">
        <ele>716.4</ele>
        <time>2024-10-06T08:22:37Z</time>
      </trkpt>
      <trkpt lat="42.95764" lon="1.13807">
        <ele>717</ele>
        <time>2024-10-06T08:22:38Z</time>
      </trkpt>
      <trkpt lat="42.95762" lon="1.13808">
        <ele>717.4</ele>
        <time>2024-10-06T08:22:39Z</time>
      </trkpt>
      <trkpt lat="42.95758" lon="1.13809">
        <ele>717.4</ele>
        <time>2024-10-06T08:22:41Z</time>
      </trkpt>
      <trkpt lat="42.95756" lon="1.1381">
        <ele>717.8</ele>
        <time>2024-10-06T08:22:42Z</time>
      </trkpt>
      <trkpt lat="42.95755" lon="1.1381">
        <ele>718.4</ele>
        <time>2024-10-06T08:22:43Z</time>
      </trkpt>
      <trkpt lat="42.95753" lon="1.13809">
        <ele>718.8</ele>
        <time>2024-10-06T08:22:44Z</time>
      </trkpt>
      <trkpt lat="42.95752" lon="1.13809">
        <ele>719.2</ele>
        <time>2024-10-06T08:22:45Z</time>
      </trkpt>
      <trkpt lat="42.9575" lon="1.13808">
        <ele>719.8</ele>
        <time>2024-10-06T08:22:46Z</time>
      </trkpt>
      <trkpt lat="42.95749" lon="1.13808">
        <ele>720.2</ele>
        <time>2024-10-06T08:22:47Z</time>
      </trkpt>
      <trkpt lat="42.95747" lon="1.13808">
        <ele>720.6</ele>
        <time>2024-10-06T08:22:48Z</time>
      </trkpt>
      <trkpt lat="42.95745" lon="1.13809">
        <ele>721</ele>
        <time>2024-10-06T08:22:49Z</time>
      </trkpt>
      <trkpt lat="42.95744" lon="1.1381">
        <ele>721.4</ele>
        <time>2024-10-06T08:22:50Z</time>
      </trkpt>
      <trkpt lat="42.95742" lon="1.13811">
        <ele>721.8</ele>
        <time>2024-10-06T08:22:51Z</time>
      </trkpt>
      <trkpt lat="42.9574" lon="1.13811">
        <ele>722.4</ele>
        <time>2024-10-06T08:22:52Z</time>
      </trkpt>
      <trkpt lat="42.95739" lon="1.13811">
        <ele>722.8</ele>
        <time>2024-10-06T08:22:53Z</time>
      </trkpt>
      <trkpt lat="42.95737" lon="1.1381">
        <ele>723.2</ele>
        <time>2024-10-06T08:22:54Z</time>
      </trkpt>
      <trkpt lat="42.95734" lon="1.13809">
        <ele>723.6</ele>
        <time>2024-10-06T08:22:55Z</time>
      </trkpt>
      <trkpt lat="42.95732" lon="1.13808">
        <ele>724.2</ele>
        <time>2024-10-06T08:22:56Z</time>
      </trkpt>
      <trkpt lat="42.95727" lon="1.13809">
        <ele>724.6</ele>
        <time>2024-10-06T08:22:58Z</time>
      </trkpt>
      <trkpt lat="42.95725" lon="1.1381">
        <ele>725.2</ele>
        <time>2024-10-06T08:22:59Z</time>
      </trkpt>
      <trkpt lat="42.95724" lon="1.1381">
        <ele>725.6</ele>
        <time>2024-10-06T08:23:00Z</time>
      </trkpt>
      <trkpt lat="42.95721" lon="1.13811">
        <ele>726.2</ele>
        <time>2024-10-06T08:23:01Z</time>
      </trkpt>
      <trkpt lat="42.95719" lon="1.13813">
        <ele>726.6</ele>
        <time>2024-10-06T08:23:02Z</time>
      </trkpt>
      <trkpt lat="42.95717" lon="1.13813">
        <ele>727.2</ele>
        <time>2024-10-06T08:23:03Z</time>
      </trkpt>
      <trkpt lat="42.95715" lon="1.13815">
        <ele>728</ele>
        <time>2024-10-06T08:23:04Z</time>
      </trkpt>
      <trkpt lat="42.95714" lon="1.13815">
        <ele>728.4</ele>
        <time>2024-10-06T08:23:05Z</time>
      </trkpt>
      <trkpt lat="42.95712" lon="1.13815">
        <ele>728.8</ele>
        <time>2024-10-06T08:23:06Z</time>
      </trkpt>
      <trkpt lat="42.95709" lon="1.13815">
        <ele>729.2</ele>
        <time>2024-10-06T08:23:07Z</time>
      </trkpt>
      <trkpt lat="42.95707" lon="1.13816">
        <ele>729.6</ele>
        <time>2024-10-06T08:23:08Z</time>
      </trkpt>
      <trkpt lat="42.95704" lon="1.13816">
        <ele>730</ele>
        <time>2024-10-06T08:23:09Z</time>
      </trkpt>
      <trkpt lat="42.95702" lon="1.13817">
        <ele>730.4</ele>
        <time>2024-10-06T08:23:10Z</time>
      </trkpt>
      <trkpt lat="42.957" lon="1.13817">
        <ele>731</ele>
        <time>2024-10-06T08:23:11Z</time>
      </trkpt>
      <trkpt lat="42.95691" lon="1.13818">
        <ele>731.4</ele>
        <time>2024-10-06T08:23:15Z</time>
      </trkpt>
      <trkpt lat="42.9569" lon="1.13817">
        <ele>731.8</ele>
        <time>2024-10-06T08:23:16Z</time>
      </trkpt>
      <trkpt lat="42.95688" lon="1.13818">
        <ele>732.2</ele>
        <time>2024-10-06T08:23:17Z</time>
      </trkpt>
      <trkpt lat="42.95685" lon="1.13818">
        <ele>732.6</ele>
        <time>2024-10-06T08:23:18Z</time>
      </trkpt>
      <trkpt lat="42.95684" lon="1.13818">
        <ele>733.2</ele>
        <time>2024-10-06T08:23:19Z</time>
      </trkpt>
      <trkpt lat="42.9568" lon="1.13819">
        <ele>733.2</ele>
        <time>2024-10-06T08:23:21Z</time>
      </trkpt>
      <trkpt lat="42.95678" lon="1.13819">
        <ele>733.2</ele>
        <time>2024-10-06T08:23:22Z</time>
      </trkpt>
      <trkpt lat="42.95676" lon="1.1382">
        <ele>733.6</ele>
        <time>2024-10-06T08:23:23Z</time>
      </trkpt>
      <trkpt lat="42.95672" lon="1.1382">
        <ele>734</ele>
        <time>2024-10-06T08:23:24Z</time>
      </trkpt>
      <trkpt lat="42.9567" lon="1.1382">
        <ele>734.4</ele>
        <time>2024-10-06T08:23:25Z</time>
      </trkpt>
      <trkpt lat="42.95667" lon="1.13821">
        <ele>734.8</ele>
        <time>2024-10-06T08:23:26Z</time>
      </trkpt>
      <trkpt lat="42.95664" lon="1.13822">
        <ele>735.2</ele>
        <time>2024-10-06T08:23:27Z</time>
      </trkpt>
      <trkpt lat="42.95658" lon="1.13823">
        <ele>736.2</ele>
        <time>2024-10-06T08:23:29Z</time>
      </trkpt>
      <trkpt lat="42.95655" lon="1.13823">
        <ele>736.6</ele>
        <time>2024-10-06T08:23:30Z</time>
      </trkpt>
      <trkpt lat="42.95651" lon="1.13822">
        <ele>737</ele>
        <time>2024-10-06T08:23:31Z</time>
      </trkpt>
      <trkpt lat="42.95648" lon="1.13823">
        <ele>737.6</ele>
        <time>2024-10-06T08:23:32Z</time>
      </trkpt>
      <trkpt lat="42.95642" lon="1.13821">
        <ele>737.6</ele>
        <time>2024-10-06T08:23:34Z</time>
      </trkpt>
      <trkpt lat="42.9564" lon="1.13821">
        <ele>738</ele>
        <time>2024-10-06T08:23:35Z</time>
      </trkpt>
      <trkpt lat="42.95638" lon="1.1382">
        <ele>738.4</ele>
        <time>2024-10-06T08:23:36Z</time>
      </trkpt>
      <trkpt lat="42.95634" lon="1.13818">
        <ele>738.8</ele>
        <time>2024-10-06T08:23:37Z</time>
      </trkpt>
      <trkpt lat="42.95632" lon="1.13817">
        <ele>739.2</ele>
        <time>2024-10-06T08:23:38Z</time>
      </trkpt>
      <trkpt lat="42.95629" lon="1.13816">
        <ele>739.8</ele>
        <time>2024-10-06T08:23:39Z</time>
      </trkpt>
      <trkpt lat="42.95623" lon="1.13814">
        <ele>739.8</ele>
        <time>2024-10-06T08:23:42Z</time>
      </trkpt>
      <trkpt lat="42.95618" lon="1.13813">
        <ele>739.8</ele>
        <time>2024-10-06T08:23:44Z</time>
      </trkpt>
      <trkpt lat="42.95599" lon="1.13813">
        <ele>739.8</ele>
        <time>2024-10-06T08:23:51Z</time>
      </trkpt>
      <trkpt lat="42.95584" lon="1.13812">
        <ele>739.8</ele>
        <time>2024-10-06T08:23:56Z</time>
      </trkpt>
      <trkpt lat="42.95581" lon="1.13811">
        <ele>739.8</ele>
        <time>2024-10-06T08:23:57Z</time>
      </trkpt>
      <trkpt lat="42.95577" lon="1.13807">
        <ele>740.2</ele>
        <time>2024-10-06T08:23:59Z</time>
      </trkpt>
      <trkpt lat="42.95575" lon="1.13805">
        <ele>740.6</ele>
        <time>2024-10-06T08:24:00Z</time>
      </trkpt>
      <trkpt lat="42.95574" lon="1.13803">
        <ele>741</ele>
        <time>2024-10-06T08:24:01Z</time>
      </trkpt>
      <trkpt lat="42.95573" lon="1.13801">
        <ele>741.4</ele>
        <time>2024-10-06T08:24:02Z</time>
      </trkpt>
      <trkpt lat="42.95572" lon="1.13799">
        <ele>741.8</ele>
        <time>2024-10-06T08:24:03Z</time>
      </trkpt>
      <trkpt lat="42.95569" lon="1.1379">
        <ele>741.8</ele>
        <time>2024-10-06T08:24:06Z</time>
      </trkpt>
      <trkpt lat="42.95566" lon="1.13784">
        <ele>742.2</ele>
        <time>2024-10-06T08:24:08Z</time>
      </trkpt>
      <trkpt lat="42.95564" lon="1.13783">
        <ele>742.6</ele>
        <time>2024-10-06T08:24:09Z</time>
      </trkpt>
      <trkpt lat="42.95562" lon="1.13781">
        <ele>743</ele>
        <time>2024-10-06T08:24:10Z</time>
      </trkpt>
      <trkpt lat="42.9556" lon="1.1378">
        <ele>743.6</ele>
        <time>2024-10-06T08:24:11Z</time>
      </trkpt>
      <trkpt lat="42.95559" lon="1.13779">
        <ele>744</ele>
        <time>2024-10-06T08:24:12Z</time>
      </trkpt>
      <trkpt lat="42.95555" lon="1.13777">
        <ele>744.4</ele>
        <time>2024-10-06T08:24:15Z</time>
      </trkpt>
      <trkpt lat="42.95553" lon="1.13776">
        <ele>744.8</ele>
        <time>2024-10-06T08:24:16Z</time>
      </trkpt>
      <trkpt lat="42.95552" lon="1.13775">
        <ele>745.2</ele>
        <time>2024-10-06T08:24:17Z</time>
      </trkpt>
      <trkpt lat="42.95551" lon="1.13774">
        <ele>746.2</ele>
        <time>2024-10-06T08:24:18Z</time>
      </trkpt>
      <trkpt lat="42.95542" lon="1.1377">
        <ele>746.6</ele>
        <time>2024-10-06T08:24:24Z</time>
      </trkpt>
      <trkpt lat="42.9554" lon="1.1377">
        <ele>747</ele>
        <time>2024-10-06T08:24:25Z</time>
      </trkpt>
      <trkpt lat="42.9554" lon="1.13771">
        <ele>747.4</ele>
        <time>2024-10-06T08:24:26Z</time>
      </trkpt>
      <trkpt lat="42.9554" lon="1.1377">
        <ele>747.8</ele>
        <time>2024-10-06T08:24:27Z</time>
      </trkpt>
      <trkpt lat="42.95539" lon="1.1377">
        <ele>748.2</ele>
        <time>2024-10-06T08:24:28Z</time>
      </trkpt>
      <trkpt lat="42.95536" lon="1.13769">
        <ele>748.2</ele>
        <time>2024-10-06T08:24:30Z</time>
      </trkpt>
      <trkpt lat="42.95525" lon="1.13764">
        <ele>748.6</ele>
        <time>2024-10-06T08:24:37Z</time>
      </trkpt>
      <trkpt lat="42.95524" lon="1.13764">
        <ele>749</ele>
        <time>2024-10-06T08:24:38Z</time>
      </trkpt>
      <trkpt lat="42.95523" lon="1.13763">
        <ele>749.4</ele>
        <time>2024-10-06T08:24:39Z</time>
      </trkpt>
      <trkpt lat="42.95522" lon="1.13762">
        <ele>749.8</ele>
        <time>2024-10-06T08:24:40Z</time>
      </trkpt>
      <trkpt lat="42.9552" lon="1.13761">
        <ele>750.4</ele>
        <time>2024-10-06T08:24:41Z</time>
      </trkpt>
      <trkpt lat="42.95518" lon="1.13761">
        <ele>750.4</ele>
        <time>2024-10-06T08:24:42Z</time>
      </trkpt>
      <trkpt lat="42.95514" lon="1.1376">
        <ele>750.4</ele>
        <time>2024-10-06T08:24:44Z</time>
      </trkpt>
      <trkpt lat="42.95512" lon="1.13759">
        <ele>750.8</ele>
        <time>2024-10-06T08:24:45Z</time>
      </trkpt>
      <trkpt lat="42.9551" lon="1.13759">
        <ele>751.2</ele>
        <time>2024-10-06T08:24:46Z</time>
      </trkpt>
      <trkpt lat="42.95509" lon="1.13758">
        <ele>751.8</ele>
        <time>2024-10-06T08:24:47Z</time>
      </trkpt>
      <trkpt lat="42.95508" lon="1.13758">
        <ele>752.2</ele>
        <time>2024-10-06T08:24:48Z</time>
      </trkpt>
      <trkpt lat="42.95507" lon="1.13758">
        <ele>752.6</ele>
        <time>2024-10-06T08:24:49Z</time>
      </trkpt>
      <trkpt lat="42.95504" lon="1.13758">
        <ele>752.6</ele>
        <time>2024-10-06T08:24:51Z</time>
      </trkpt>
      <trkpt lat="42.95501" lon="1.13757">
        <ele>753.2</ele>
        <time>2024-10-06T08:24:53Z</time>
      </trkpt>
      <trkpt lat="42.955" lon="1.13757">
        <ele>753.6</ele>
        <time>2024-10-06T08:24:54Z</time>
      </trkpt>
      <trkpt lat="42.955" lon="1.13757">
        <ele>754</ele>
        <time>2024-10-06T08:24:55Z</time>
      </trkpt>
      <trkpt lat="42.95498" lon="1.13757">
        <ele>754.6</ele>
        <time>2024-10-06T08:24:56Z</time>
      </trkpt>
      <trkpt lat="42.95497" lon="1.13756">
        <ele>755</ele>
        <time>2024-10-06T08:24:57Z</time>
      </trkpt>
      <trkpt lat="42.95496" lon="1.13756">
        <ele>755</ele>
        <time>2024-10-06T08:24:58Z</time>
      </trkpt>
      <trkpt lat="42.9549" lon="1.13757">
        <ele>755.4</ele>
        <time>2024-10-06T08:25:01Z</time>
      </trkpt>
      <trkpt lat="42.95489" lon="1.13757">
        <ele>755.8</ele>
        <time>2024-10-06T08:25:02Z</time>
      </trkpt>
      <trkpt lat="42.95489" lon="1.13757">
        <ele>756.2</ele>
        <time>2024-10-06T08:25:03Z</time>
      </trkpt>
      <trkpt lat="42.95486" lon="1.13757">
        <ele>756.8</ele>
        <time>2024-10-06T08:25:04Z</time>
      </trkpt>
      <trkpt lat="42.95485" lon="1.13757">
        <ele>757.2</ele>
        <time>2024-10-06T08:25:05Z</time>
      </trkpt>
      <trkpt lat="42.95479" lon="1.13755">
        <ele>757.2</ele>
        <time>2024-10-06T08:25:08Z</time>
      </trkpt>
      <trkpt lat="42.95476" lon="1.13755">
        <ele>757.6</ele>
        <time>2024-10-06T08:25:10Z</time>
      </trkpt>
      <trkpt lat="42.95476" lon="1.13755">
        <ele>758</ele>
        <time>2024-10-06T08:25:11Z</time>
      </trkpt>
      <trkpt lat="42.95474" lon="1.13755">
        <ele>758.4</ele>
        <time>2024-10-06T08:25:12Z</time>
      </trkpt>
      <trkpt lat="42.95472" lon="1.13755">
        <ele>758.8</ele>
        <time>2024-10-06T08:25:13Z</time>
      </trkpt>
      <trkpt lat="42.95471" lon="1.13755">
        <ele>759.2</ele>
        <time>2024-10-06T08:25:14Z</time>
      </trkpt>
      <trkpt lat="42.95464" lon="1.13756">
        <ele>759.6</ele>
        <time>2024-10-06T08:25:17Z</time>
      </trkpt>
      <trkpt lat="42.95463" lon="1.13757">
        <ele>760</ele>
        <time>2024-10-06T08:25:18Z</time>
      </trkpt>
      <trkpt lat="42.95416" lon="1.13748">
        <ele>770</ele>
        <time>2024-10-06T08:27:10Z</time>
      </trkpt>
      <trkpt lat="42.95413" lon="1.13745">
        <ele>770</ele>
        <time>2024-10-06T08:27:12Z</time>
      </trkpt>
      <trkpt lat="42.95412" lon="1.13744">
        <ele>770.4</ele>
        <time>2024-10-06T08:27:13Z</time>
      </trkpt>
      <trkpt lat="42.9541" lon="1.13743">
        <ele>770.8</ele>
        <time>2024-10-06T08:27:14Z</time>
      </trkpt>
      <trkpt lat="42.95409" lon="1.13741">
        <ele>771.2</ele>
        <time>2024-10-06T08:27:15Z</time>
      </trkpt>
      <trkpt lat="42.95407" lon="1.1374">
        <ele>771.6</ele>
        <time>2024-10-06T08:27:16Z</time>
      </trkpt>
      <trkpt lat="42.95405" lon="1.13739">
        <ele>772</ele>
        <time>2024-10-06T08:27:17Z</time>
      </trkpt>
      <trkpt lat="42.95402" lon="1.13736">
        <ele>772</ele>
        <time>2024-10-06T08:27:19Z</time>
      </trkpt>
      <trkpt lat="42.95396" lon="1.13731">
        <ele>772</ele>
        <time>2024-10-06T08:27:22Z</time>
      </trkpt>
      <trkpt lat="42.95384" lon="1.13716">
        <ele>772</ele>
        <time>2024-10-06T08:27:29Z</time>
      </trkpt>
      <trkpt lat="42.95378" lon="1.13711">
        <ele>772.6</ele>
        <time>2024-10-06T08:27:32Z</time>
      </trkpt>
      <trkpt lat="42.95376" lon="1.1371">
        <ele>773</ele>
        <time>2024-10-06T08:27:33Z</time>
      </trkpt>
      <trkpt lat="42.95374" lon="1.13708">
        <ele>773.4</ele>
        <time>2024-10-06T08:27:34Z</time>
      </trkpt>
      <trkpt lat="42.95372" lon="1.13707">
        <ele>774.2</ele>
        <time>2024-10-06T08:27:35Z</time>
      </trkpt>
      <trkpt lat="42.9537" lon="1.13705">
        <ele>774.2</ele>
        <time>2024-10-06T08:27:36Z</time>
      </trkpt>
      <trkpt lat="42.95364" lon="1.13698">
        <ele>774.6</ele>
        <time>2024-10-06T08:27:41Z</time>
      </trkpt>
      <trkpt lat="42.95363" lon="1.13697">
        <ele>775.2</ele>
        <time>2024-10-06T08:27:42Z</time>
      </trkpt>
      <trkpt lat="42.95362" lon="1.13695">
        <ele>775.6</ele>
        <time>2024-10-06T08:27:43Z</time>
      </trkpt>
      <trkpt lat="42.95361" lon="1.13694">
        <ele>776</ele>
        <time>2024-10-06T08:27:44Z</time>
      </trkpt>
      <trkpt lat="42.95359" lon="1.13692">
        <ele>776.6</ele>
        <time>2024-10-06T08:27:45Z</time>
      </trkpt>
      <trkpt lat="42.95356" lon="1.13689">
        <ele>776.6</ele>
        <time>2024-10-06T08:27:47Z</time>
      </trkpt>
      <trkpt lat="42.95354" lon="1.13687">
        <ele>777</ele>
        <time>2024-10-06T08:27:48Z</time>
      </trkpt>
      <trkpt lat="42.95352" lon="1.13685">
        <ele>777.4</ele>
        <time>2024-10-06T08:27:49Z</time>
      </trkpt>
      <trkpt lat="42.9535" lon="1.13683">
        <ele>777.8</ele>
        <time>2024-10-06T08:27:50Z</time>
      </trkpt>
      <trkpt lat="42.95349" lon="1.13682">
        <ele>778.4</ele>
        <time>2024-10-06T08:27:51Z</time>
      </trkpt>
      <trkpt lat="42.95346" lon="1.13681">
        <ele>778.8</ele>
        <time>2024-10-06T08:27:52Z</time>
      </trkpt>
      <trkpt lat="42.95345" lon="1.1368">
        <ele>778.8</ele>
        <time>2024-10-06T08:27:53Z</time>
      </trkpt>
      <trkpt lat="42.95342" lon="1.1368">
        <ele>778.8</ele>
        <time>2024-10-06T08:27:54Z</time>
      </trkpt>
      <trkpt lat="42.9534" lon="1.13678">
        <ele>779.2</ele>
        <time>2024-10-06T08:27:55Z</time>
      </trkpt>
      <trkpt lat="42.95337" lon="1.13676">
        <ele>779.6</ele>
        <time>2024-10-06T08:27:56Z</time>
      </trkpt>
      <trkpt lat="42.95335" lon="1.13674">
        <ele>780</ele>
        <time>2024-10-06T08:27:57Z</time>
      </trkpt>
      <trkpt lat="42.95334" lon="1.13671">
        <ele>780.4</ele>
        <time>2024-10-06T08:27:58Z</time>
      </trkpt>
      <trkpt lat="42.95333" lon="1.13669">
        <ele>780.8</ele>
        <time>2024-10-06T08:27:59Z</time>
      </trkpt>
      <trkpt lat="42.95331" lon="1.13667">
        <ele>781.2</ele>
        <time>2024-10-06T08:28:00Z</time>
      </trkpt>
      <trkpt lat="42.95329" lon="1.13665">
        <ele>781.8</ele>
        <time>2024-10-06T08:28:01Z</time>
      </trkpt>
      <trkpt lat="42.95327" lon="1.13663">
        <ele>782.2</ele>
        <time>2024-10-06T08:28:02Z</time>
      </trkpt>
      <trkpt lat="42.95324" lon="1.13662">
        <ele>782.6</ele>
        <time>2024-10-06T08:28:03Z</time>
      </trkpt>
      <trkpt lat="42.95322" lon="1.1366">
        <ele>783</ele>
        <time>2024-10-06T08:28:04Z</time>
      </trkpt>
      <trkpt lat="42.95321" lon="1.13659">
        <ele>783</ele>
        <time>2024-10-06T08:28:05Z</time>
      </trkpt>
      <trkpt lat="42.95317" lon="1.13655">
        <ele>783.4</ele>
        <time>2024-10-06T08:28:08Z</time>
      </trkpt>
      <trkpt lat="42.95315" lon="1.13654">
        <ele>783.8</ele>
        <time>2024-10-06T08:28:09Z</time>
      </trkpt>
      <trkpt lat="42.95313" lon="1.13653">
        <ele>784.2</ele>
        <time>2024-10-06T08:28:10Z</time>
      </trkpt>
      <trkpt lat="42.95311" lon="1.13651">
        <ele>784.6</ele>
        <time>2024-10-06T08:28:11Z</time>
      </trkpt>
      <trkpt lat="42.95309" lon="1.1365">
        <ele>785</ele>
        <time>2024-10-06T08:28:12Z</time>
      </trkpt>
      <trkpt lat="42.95303" lon="1.13643">
        <ele>785</ele>
        <time>2024-10-06T08:28:16Z</time>
      </trkpt>
      <trkpt lat="42.95299" lon="1.13641">
        <ele>785.6</ele>
        <time>2024-10-06T08:28:19Z</time>
      </trkpt>
      <trkpt lat="42.95298" lon="1.1364">
        <ele>786</ele>
        <time>2024-10-06T08:28:20Z</time>
      </trkpt>
      <trkpt lat="42.95297" lon="1.13639">
        <ele>786.4</ele>
        <time>2024-10-06T08:28:21Z</time>
      </trkpt>
      <trkpt lat="42.95295" lon="1.13638">
        <ele>786.8</ele>
        <time>2024-10-06T08:28:22Z</time>
      </trkpt>
      <trkpt lat="42.95293" lon="1.13637">
        <ele>787.2</ele>
        <time>2024-10-06T08:28:23Z</time>
      </trkpt>
      <trkpt lat="42.95289" lon="1.13634">
        <ele>787.8</ele>
        <time>2024-10-06T08:28:25Z</time>
      </trkpt>
      <trkpt lat="42.95287" lon="1.13633">
        <ele>788.2</ele>
        <time>2024-10-06T08:28:26Z</time>
      </trkpt>
      <trkpt lat="42.95284" lon="1.13633">
        <ele>788.6</ele>
        <time>2024-10-06T08:28:27Z</time>
      </trkpt>
      <trkpt lat="42.95282" lon="1.13632">
        <ele>789.2</ele>
        <time>2024-10-06T08:28:28Z</time>
      </trkpt>
      <trkpt lat="42.9528" lon="1.13631">
        <ele>789.6</ele>
        <time>2024-10-06T08:28:29Z</time>
      </trkpt>
      <trkpt lat="42.95274" lon="1.13627">
        <ele>790</ele>
        <time>2024-10-06T08:28:31Z</time>
      </trkpt>
      <trkpt lat="42.95271" lon="1.13625">
        <ele>790.4</ele>
        <time>2024-10-06T08:28:32Z</time>
      </trkpt>
      <trkpt lat="42.95268" lon="1.13624">
        <ele>790.8</ele>
        <time>2024-10-06T08:28:33Z</time>
      </trkpt>
      <trkpt lat="42.95266" lon="1.13623">
        <ele>791.2</ele>
        <time>2024-10-06T08:28:34Z</time>
      </trkpt>
      <trkpt lat="42.95264" lon="1.13622">
        <ele>791.8</ele>
        <time>2024-10-06T08:28:35Z</time>
      </trkpt>
      <trkpt lat="42.95261" lon="1.1362">
        <ele>791.8</ele>
        <time>2024-10-06T08:28:36Z</time>
      </trkpt>
      <trkpt lat="42.95252" lon="1.13615">
        <ele>792.2</ele>
        <time>2024-10-06T08:28:40Z</time>
      </trkpt>
      <trkpt lat="42.95249" lon="1.13613">
        <ele>792.6</ele>
        <time>2024-10-06T08:28:41Z</time>
      </trkpt>
      <trkpt lat="42.95246" lon="1.13612">
        <ele>793</ele>
        <time>2024-10-06T08:28:42Z</time>
      </trkpt>
      <trkpt lat="42.95244" lon="1.13611">
        <ele>793.4</ele>
        <time>2024-10-06T08:28:43Z</time>
      </trkpt>
      <trkpt lat="42.95242" lon="1.13609">
        <ele>794</ele>
        <time>2024-10-06T08:28:44Z</time>
      </trkpt>
      <trkpt lat="42.9524" lon="1.13608">
        <ele>794.4</ele>
        <time>2024-10-06T08:28:45Z</time>
      </trkpt>
      <trkpt lat="42.95238" lon="1.13606">
        <ele>794.8</ele>
        <time>2024-10-06T08:28:46Z</time>
      </trkpt>
      <trkpt lat="42.95236" lon="1.13605">
        <ele>795.2</ele>
        <time>2024-10-06T08:28:47Z</time>
      </trkpt>
      <trkpt lat="42.95234" lon="1.13604">
        <ele>795.6</ele>
        <time>2024-10-06T08:28:48Z</time>
      </trkpt>
      <trkpt lat="42.95232" lon="1.13603">
        <ele>796</ele>
        <time>2024-10-06T08:28:49Z</time>
      </trkpt>
      <trkpt lat="42.95223" lon="1.13595">
        <ele>796</ele>
        <time>2024-10-06T08:28:53Z</time>
      </trkpt>
      <trkpt lat="42.95209" lon="1.13585">
        <ele>796</ele>
        <time>2024-10-06T08:28:58Z</time>
      </trkpt>
      <trkpt lat="42.95192" lon="1.13571">
        <ele>796</ele>
        <time>2024-10-06T08:29:05Z</time>
      </trkpt>
      <trkpt lat="42.95178" lon="1.13562">
        <ele>796</ele>
        <time>2024-10-06T08:29:10Z</time>
      </trkpt>
      <trkpt lat="42.95166" lon="1.13562">
        <ele>796.6</ele>
        <time>2024-10-06T08:29:15Z</time>
      </trkpt>
      <trkpt lat="42.95164" lon="1.13562">
        <ele>797</ele>
        <time>2024-10-06T08:29:16Z</time>
      </trkpt>
      <trkpt lat="42.95162" lon="1.13563">
        <ele>797.4</ele>
        <time>2024-10-06T08:29:17Z</time>
      </trkpt>
      <trkpt lat="42.95161" lon="1.13563">
        <ele>797.8</ele>
        <time>2024-10-06T08:29:18Z</time>
      </trkpt>
      <trkpt lat="42.95159" lon="1.13562">
        <ele>798.4</ele>
        <time>2024-10-06T08:29:19Z</time>
      </trkpt>
      <trkpt lat="42.95153" lon="1.13563">
        <ele>798.8</ele>
        <time>2024-10-06T08:29:21Z</time>
      </trkpt>
      <trkpt lat="42.95151" lon="1.13562">
        <ele>799.2</ele>
        <time>2024-10-06T08:29:22Z</time>
      </trkpt>
      <trkpt lat="42.95149" lon="1.13562">
        <ele>799.6</ele>
        <time>2024-10-06T08:29:23Z</time>
      </trkpt>
      <trkpt lat="42.95147" lon="1.13562">
        <ele>800</ele>
        <time>2024-10-06T08:29:24Z</time>
      </trkpt>
      <trkpt lat="42.95144" lon="1.13563">
        <ele>800.4</ele>
        <time>2024-10-06T08:29:25Z</time>
      </trkpt>
      <trkpt lat="42.95136" lon="1.1356">
        <ele>800.4</ele>
        <time>2024-10-06T08:29:29Z</time>
      </trkpt>
      <trkpt lat="42.95134" lon="1.1356">
        <ele>800.4</ele>
        <time>2024-10-06T08:29:30Z</time>
      </trkpt>
      <trkpt lat="42.9513" lon="1.13558">
        <ele>800.8</ele>
        <time>2024-10-06T08:29:32Z</time>
      </trkpt>
      <trkpt lat="42.95128" lon="1.13558">
        <ele>801.2</ele>
        <time>2024-10-06T08:29:33Z</time>
      </trkpt>
      <trkpt lat="42.95126" lon="1.13559">
        <ele>801.6</ele>
        <time>2024-10-06T08:29:34Z</time>
      </trkpt>
      <trkpt lat="42.95123" lon="1.13559">
        <ele>802</ele>
        <time>2024-10-06T08:29:35Z</time>
      </trkpt>
      <trkpt lat="42.95122" lon="1.1356">
        <ele>802.4</ele>
        <time>2024-10-06T08:29:36Z</time>
      </trkpt>
      <trkpt lat="42.95112" lon="1.13556">
        <ele>802.4</ele>
        <time>2024-10-06T08:29:42Z</time>
      </trkpt>
      <trkpt lat="42.95107" lon="1.13556">
        <ele>802.4</ele>
        <time>2024-10-06T08:29:45Z</time>
      </trkpt>
      <trkpt lat="42.95105" lon="1.13557">
        <ele>802.8</ele>
        <time>2024-10-06T08:29:46Z</time>
      </trkpt>
      <trkpt lat="42.95103" lon="1.13557">
        <ele>803.2</ele>
        <time>2024-10-06T08:29:47Z</time>
      </trkpt>
      <trkpt lat="42.95101" lon="1.13557">
        <ele>803.6</ele>
        <time>2024-10-06T08:29:48Z</time>
      </trkpt>
      <trkpt lat="42.95099" lon="1.13557">
        <ele>804.2</ele>
        <time>2024-10-06T08:29:49Z</time>
      </trkpt>
      <trkpt lat="42.95098" lon="1.13557">
        <ele>804.6</ele>
        <time>2024-10-06T08:29:50Z</time>
      </trkpt>
      <trkpt lat="42.95094" lon="1.13558">
        <ele>804.6</ele>
        <time>2024-10-06T08:29:52Z</time>
      </trkpt>
      <trkpt lat="42.95088" lon="1.13563">
        <ele>805</ele>
        <time>2024-10-06T08:29:55Z</time>
      </trkpt>
      <trkpt lat="42.95086" lon="1.13564">
        <ele>805.4</ele>
        <time>2024-10-06T08:29:56Z</time>
      </trkpt>
      <trkpt lat="42.95084" lon="1.13566">
        <ele>805.8</ele>
        <time>2024-10-06T08:29:57Z</time>
      </trkpt>
      <trkpt lat="42.95082" lon="1.13568">
        <ele>806.2</ele>
        <time>2024-10-06T08:29:58Z</time>
      </trkpt>
      <trkpt lat="42.9508" lon="1.13569">
        <ele>806.6</ele>
        <time>2024-10-06T08:29:59Z</time>
      </trkpt>
      <trkpt lat="42.95071" lon="1.13578">
        <ele>806.6</ele>
        <time>2024-10-06T08:30:04Z</time>
      </trkpt>
      <trkpt lat="42.95066" lon="1.13586">
        <ele>806.6</ele>
        <time>2024-10-06T08:30:08Z</time>
      </trkpt>
      <trkpt lat="42.95066" lon="1.13589">
        <ele>806.6</ele>
        <time>2024-10-06T08:30:09Z</time>
      </trkpt>
      <trkpt lat="42.95065" lon="1.13599">
        <ele>807.2</ele>
        <time>2024-10-06T08:30:12Z</time>
      </trkpt>
      <trkpt lat="42.95064" lon="1.13603">
        <ele>807.6</ele>
        <time>2024-10-06T08:30:13Z</time>
      </trkpt>
      <trkpt lat="42.95063" lon="1.13607">
        <ele>808</ele>
        <time>2024-10-06T08:30:14Z</time>
      </trkpt>
      <trkpt lat="42.95062" lon="1.13611">
        <ele>808.4</ele>
        <time>2024-10-06T08:30:15Z</time>
      </trkpt>
      <trkpt lat="42.95061" lon="1.13615">
        <ele>809</ele>
        <time>2024-10-06T08:30:16Z</time>
      </trkpt>
      <trkpt lat="42.95059" lon="1.13617">
        <ele>809.4</ele>
        <time>2024-10-06T08:30:17Z</time>
      </trkpt>
      <trkpt lat="42.95058" lon="1.13619">
        <ele>809.8</ele>
        <time>2024-10-06T08:30:18Z</time>
      </trkpt>
      <trkpt lat="42.95056" lon="1.13622">
        <ele>810.2</ele>
        <time>2024-10-06T08:30:19Z</time>
      </trkpt>
      <trkpt lat="42.95055" lon="1.13625">
        <ele>810.6</ele>
        <time>2024-10-06T08:30:20Z</time>
      </trkpt>
      <trkpt lat="42.95053" lon="1.13627">
        <ele>811</ele>
        <time>2024-10-06T08:30:21Z</time>
      </trkpt>
      <trkpt lat="42.95049" lon="1.13633">
        <ele>811</ele>
        <time>2024-10-06T08:30:24Z</time>
      </trkpt>
      <trkpt lat="42.95048" lon="1.13636">
        <ele>811</ele>
        <time>2024-10-06T08:30:25Z</time>
      </trkpt>
      <trkpt lat="42.95047" lon="1.13648">
        <ele>811</ele>
        <time>2024-10-06T08:30:30Z</time>
      </trkpt>
      <trkpt lat="42.95043" lon="1.13655">
        <ele>811.4</ele>
        <time>2024-10-06T08:30:33Z</time>
      </trkpt>
      <trkpt lat="42.95042" lon="1.13658">
        <ele>811.8</ele>
        <time>2024-10-06T08:30:34Z</time>
      </trkpt>
      <trkpt lat="42.9504" lon="1.13659">
        <ele>812.2</ele>
        <time>2024-10-06T08:30:35Z</time>
      </trkpt>
      <trkpt lat="42.95038" lon="1.13661">
        <ele>812.6</ele>
        <time>2024-10-06T08:30:36Z</time>
      </trkpt>
      <trkpt lat="42.95037" lon="1.13662">
        <ele>813</ele>
        <time>2024-10-06T08:30:37Z</time>
      </trkpt>
      <trkpt lat="42.95029" lon="1.13673">
        <ele>813</ele>
        <time>2024-10-06T08:30:41Z</time>
      </trkpt>
      <trkpt lat="42.95024" lon="1.13689">
        <ele>813</ele>
        <time>2024-10-06T08:30:46Z</time>
      </trkpt>
      <trkpt lat="42.95018" lon="1.137">
        <ele>813</ele>
        <time>2024-10-06T08:30:51Z</time>
      </trkpt>
      <trkpt lat="42.95016" lon="1.13705">
        <ele>814</ele>
        <time>2024-10-06T08:30:54Z</time>
      </trkpt>
      <trkpt lat="42.95015" lon="1.13707">
        <ele>814.4</ele>
        <time>2024-10-06T08:30:55Z</time>
      </trkpt>
      <trkpt lat="42.95015" lon="1.13709">
        <ele>814.8</ele>
        <time>2024-10-06T08:30:56Z</time>
      </trkpt>
      <trkpt lat="42.95014" lon="1.13711">
        <ele>815.2</ele>
        <time>2024-10-06T08:30:57Z</time>
      </trkpt>
      <trkpt lat="42.95009" lon="1.13719">
        <ele>815.6</ele>
        <time>2024-10-06T08:31:00Z</time>
      </trkpt>
      <trkpt lat="42.95007" lon="1.13721">
        <ele>816</ele>
        <time>2024-10-06T08:31:01Z</time>
      </trkpt>
      <trkpt lat="42.95005" lon="1.13723">
        <ele>816.4</ele>
        <time>2024-10-06T08:31:02Z</time>
      </trkpt>
      <trkpt lat="42.95003" lon="1.13725">
        <ele>816.8</ele>
        <time>2024-10-06T08:31:03Z</time>
      </trkpt>
      <trkpt lat="42.95001" lon="1.13728">
        <ele>817.2</ele>
        <time>2024-10-06T08:31:04Z</time>
      </trkpt>
      <trkpt lat="42.94993" lon="1.13736">
        <ele>817.6</ele>
        <time>2024-10-06T08:31:07Z</time>
      </trkpt>
      <trkpt lat="42.94992" lon="1.13738">
        <ele>818.2</ele>
        <time>2024-10-06T08:31:08Z</time>
      </trkpt>
      <trkpt lat="42.9499" lon="1.13739">
        <ele>818.6</ele>
        <time>2024-10-06T08:31:09Z</time>
      </trkpt>
      <trkpt lat="42.94989" lon="1.1374">
        <ele>819</ele>
        <time>2024-10-06T08:31:10Z</time>
      </trkpt>
      <trkpt lat="42.94987" lon="1.13741">
        <ele>819.4</ele>
        <time>2024-10-06T08:31:11Z</time>
      </trkpt>
      <trkpt lat="42.94975" lon="1.13742">
        <ele>822</ele>
        <time>2024-10-06T08:31:35Z</time>
      </trkpt>
      <trkpt lat="42.94972" lon="1.13742">
        <ele>822.4</ele>
        <time>2024-10-06T08:31:36Z</time>
      </trkpt>
      <trkpt lat="42.9497" lon="1.13742">
        <ele>823</ele>
        <time>2024-10-06T08:31:37Z</time>
      </trkpt>
      <trkpt lat="42.94967" lon="1.13741">
        <ele>823.4</ele>
        <time>2024-10-06T08:31:38Z</time>
      </trkpt>
      <trkpt lat="42.94966" lon="1.1374">
        <ele>824</ele>
        <time>2024-10-06T08:31:39Z</time>
      </trkpt>
      <trkpt lat="42.94963" lon="1.13739">
        <ele>824.4</ele>
        <time>2024-10-06T08:31:40Z</time>
      </trkpt>
      <trkpt lat="42.94961" lon="1.13738">
        <ele>825</ele>
        <time>2024-10-06T08:31:41Z</time>
      </trkpt>
      <trkpt lat="42.94959" lon="1.13738">
        <ele>825.6</ele>
        <time>2024-10-06T08:31:42Z</time>
      </trkpt>
      <trkpt lat="42.94957" lon="1.13737">
        <ele>826.6</ele>
        <time>2024-10-06T08:31:43Z</time>
      </trkpt>
      <trkpt lat="42.94954" lon="1.13736">
        <ele>827.2</ele>
        <time>2024-10-06T08:31:44Z</time>
      </trkpt>
      <trkpt lat="42.94952" lon="1.13734">
        <ele>827.8</ele>
        <time>2024-10-06T08:31:45Z</time>
      </trkpt>
      <trkpt lat="42.94949" lon="1.13732">
        <ele>828.2</ele>
        <time>2024-10-06T08:31:46Z</time>
      </trkpt>
      <trkpt lat="42.94946" lon="1.13731">
        <ele>828.8</ele>
        <time>2024-10-06T08:31:47Z</time>
      </trkpt>
      <trkpt lat="42.94943" lon="1.13729">
        <ele>829.2</ele>
        <time>2024-10-06T08:31:48Z</time>
      </trkpt>
      <trkpt lat="42.94941" lon="1.13726">
        <ele>829.6</ele>
        <time>2024-10-06T08:31:49Z</time>
      </trkpt>
      <trkpt lat="42.94939" lon="1.13724">
        <ele>830</ele>
        <time>2024-10-06T08:31:50Z</time>
      </trkpt>
      <trkpt lat="42.94937" lon="1.13722">
        <ele>830.4</ele>
        <time>2024-10-06T08:31:51Z</time>
      </trkpt>
      <trkpt lat="42.94932" lon="1.13717">
        <ele>830.4</ele>
        <time>2024-10-06T08:31:54Z</time>
      </trkpt>
      <trkpt lat="42.94921" lon="1.13711">
        <ele>830.8</ele>
        <time>2024-10-06T08:31:59Z</time>
      </trkpt>
      <trkpt lat="42.94919" lon="1.1371">
        <ele>831.2</ele>
        <time>2024-10-06T08:32:00Z</time>
      </trkpt>
      <trkpt lat="42.94917" lon="1.1371">
        <ele>831.8</ele>
        <time>2024-10-06T08:32:01Z</time>
      </trkpt>
      <trkpt lat="42.94915" lon="1.1371">
        <ele>832.2</ele>
        <time>2024-10-06T08:32:02Z</time>
      </trkpt>
      <trkpt lat="42.94914" lon="1.13709">
        <ele>832.6</ele>
        <time>2024-10-06T08:32:03Z</time>
      </trkpt>
      <trkpt lat="42.9491" lon="1.13708">
        <ele>833</ele>
        <time>2024-10-06T08:32:05Z</time>
      </trkpt>
      <trkpt lat="42.94908" lon="1.13707">
        <ele>833.4</ele>
        <time>2024-10-06T08:32:06Z</time>
      </trkpt>
      <trkpt lat="42.94906" lon="1.13707">
        <ele>834.2</ele>
        <time>2024-10-06T08:32:07Z</time>
      </trkpt>
      <trkpt lat="42.94905" lon="1.13706">
        <ele>834.6</ele>
        <time>2024-10-06T08:32:08Z</time>
      </trkpt>
      <trkpt lat="42.949" lon="1.13705">
        <ele>835</ele>
        <time>2024-10-06T08:32:11Z</time>
      </trkpt>
      <trkpt lat="42.94898" lon="1.13705">
        <ele>835.4</ele>
        <time>2024-10-06T08:32:12Z</time>
      </trkpt>
      <trkpt lat="42.94897" lon="1.13705">
        <ele>835.8</ele>
        <time>2024-10-06T08:32:13Z</time>
      </trkpt>
      <trkpt lat="42.94896" lon="1.13705">
        <ele>836.4</ele>
        <time>2024-10-06T08:32:14Z</time>
      </trkpt>
      <trkpt lat="42.94896" lon="1.13705">
        <ele>836.8</ele>
        <time>2024-10-06T08:32:15Z</time>
      </trkpt>
      <trkpt lat="42.9489" lon="1.13705">
        <ele>837.2</ele>
        <time>2024-10-06T08:32:18Z</time>
      </trkpt>
      <trkpt lat="42.94888" lon="1.13706">
        <ele>837.6</ele>
        <time>2024-10-06T08:32:19Z</time>
      </trkpt>
      <trkpt lat="42.94886" lon="1.13706">
        <ele>838</ele>
        <time>2024-10-06T08:32:20Z</time>
      </trkpt>
      <trkpt lat="42.94883" lon="1.13706">
        <ele>838.4</ele>
        <time>2024-10-06T08:32:21Z</time>
      </trkpt>
      <trkpt lat="42.94881" lon="1.13706">
        <ele>838.8</ele>
        <time>2024-10-06T08:32:22Z</time>
      </trkpt>
      <trkpt lat="42.94876" lon="1.13707">
        <ele>838.8</ele>
        <time>2024-10-06T08:32:25Z</time>
      </trkpt>
      <trkpt lat="42.94874" lon="1.13709">
        <ele>839.2</ele>
        <time>2024-10-06T08:32:26Z</time>
      </trkpt>
      <trkpt lat="42.94873" lon="1.1371">
        <ele>839.6</ele>
        <time>2024-10-06T08:32:27Z</time>
      </trkpt>
      <trkpt lat="42.94871" lon="1.13711">
        <ele>840</ele>
        <time>2024-10-06T08:32:28Z</time>
      </trkpt>
      <trkpt lat="42.94869" lon="1.13712">
        <ele>840.4</ele>
        <time>2024-10-06T08:32:29Z</time>
      </trkpt>
      <trkpt lat="42.94868" lon="1.13714">
        <ele>840.8</ele>
        <time>2024-10-06T08:32:30Z</time>
      </trkpt>
      <trkpt lat="42.94866" lon="1.13716">
        <ele>840.8</ele>
        <time>2024-10-06T08:32:32Z</time>
      </trkpt>
      <trkpt lat="42.94862" lon="1.13719">
        <ele>841.2</ele>
        <time>2024-10-06T08:32:34Z</time>
      </trkpt>
      <trkpt lat="42.94861" lon="1.1372">
        <ele>841.6</ele>
        <time>2024-10-06T08:32:35Z</time>
      </trkpt>
      <trkpt lat="42.94859" lon="1.13722">
        <ele>842</ele>
        <time>2024-10-06T08:32:36Z</time>
      </trkpt>
      <trkpt lat="42.94858" lon="1.13724">
        <ele>842.4</ele>
        <time>2024-10-06T08:32:37Z</time>
      </trkpt>
      <trkpt lat="42.94856" lon="1.13725">
        <ele>842.8</ele>
        <time>2024-10-06T08:32:38Z</time>
      </trkpt>
      <trkpt lat="42.94854" lon="1.13727">
        <ele>842.8</ele>
        <time>2024-10-06T08:32:39Z</time>
      </trkpt>
      <trkpt lat="42.94842" lon="1.1374">
        <ele>842.8</ele>
        <time>2024-10-06T08:32:45Z</time>
      </trkpt>
      <trkpt lat="42.94825" lon="1.13749">
        <ele>842.8</ele>
        <time>2024-10-06T08:32:49Z</time>
      </trkpt>
      <trkpt lat="42.94805" lon="1.13753">
        <ele>842.8</ele>
        <time>2024-10-06T08:32:54Z</time>
      </trkpt>
      <trkpt lat="42.94791" lon="1.13755">
        <ele>842.8</ele>
        <time>2024-10-06T08:32:59Z</time>
      </trkpt>
      <trkpt lat="42.94774" lon="1.13755">
        <ele>842.4</ele>
        <time>2024-10-06T08:33:04Z</time>
      </trkpt>
      <trkpt lat="42.94768" lon="1.13756">
        <ele>842</ele>
        <time>2024-10-06T08:33:05Z</time>
      </trkpt>
      <trkpt lat="42.94762" lon="1.13755">
        <ele>841.6</ele>
        <time>2024-10-06T08:33:06Z</time>
      </trkpt>
      <trkpt lat="42.94757" lon="1.13755">
        <ele>840.8</ele>
        <time>2024-10-06T08:33:07Z</time>
      </trkpt>
      <trkpt lat="42.94751" lon="1.13754">
        <ele>840.2</ele>
        <time>2024-10-06T08:33:08Z</time>
      </trkpt>
      <trkpt lat="42.94746" lon="1.13753">
        <ele>839.4</ele>
        <time>2024-10-06T08:33:09Z</time>
      </trkpt>
      <trkpt lat="42.9474" lon="1.13753">
        <ele>838.6</ele>
        <time>2024-10-06T08:33:10Z</time>
      </trkpt>
      <trkpt lat="42.94734" lon="1.13752">
        <ele>837.8</ele>
        <time>2024-10-06T08:33:11Z</time>
      </trkpt>
      <trkpt lat="42.94728" lon="1.1375">
        <ele>836.8</ele>
        <time>2024-10-06T08:33:12Z</time>
      </trkpt>
      <trkpt lat="42.94722" lon="1.13747">
        <ele>835.8</ele>
        <time>2024-10-06T08:33:13Z</time>
      </trkpt>
      <trkpt lat="42.94716" lon="1.13743">
        <ele>834.8</ele>
        <time>2024-10-06T08:33:14Z</time>
      </trkpt>
      <trkpt lat="42.94711" lon="1.13738">
        <ele>833.8</ele>
        <time>2024-10-06T08:33:15Z</time>
      </trkpt>
      <trkpt lat="42.94706" lon="1.13733">
        <ele>832.8</ele>
        <time>2024-10-06T08:33:16Z</time>
      </trkpt>
      <trkpt lat="42.94702" lon="1.13729">
        <ele>832</ele>
        <time>2024-10-06T08:33:17Z</time>
      </trkpt>
      <trkpt lat="42.94698" lon="1.13727">
        <ele>831</ele>
        <time>2024-10-06T08:33:18Z</time>
      </trkpt>
      <trkpt lat="42.94694" lon="1.13724">
        <ele>830.2</ele>
        <time>2024-10-06T08:33:19Z</time>
      </trkpt>
      <trkpt lat="42.94689" lon="1.13723">
        <ele>829.2</ele>
        <time>2024-10-06T08:33:20Z</time>
      </trkpt>
      <trkpt lat="42.94685" lon="1.13721">
        <ele>828.2</ele>
        <time>2024-10-06T08:33:21Z</time>
      </trkpt>
      <trkpt lat="42.9468" lon="1.13721">
        <ele>827.8</ele>
        <time>2024-10-06T08:33:22Z</time>
      </trkpt>
      <trkpt lat="42.94676" lon="1.13722">
        <ele>827.4</ele>
        <time>2024-10-06T08:33:23Z</time>
      </trkpt>
      <trkpt lat="42.94673" lon="1.13722">
        <ele>827</ele>
        <time>2024-10-06T08:33:24Z</time>
      </trkpt>
      <trkpt lat="42.9467" lon="1.13723">
        <ele>826.6</ele>
        <time>2024-10-06T08:33:25Z</time>
      </trkpt>
      <trkpt lat="42.94666" lon="1.13723">
        <ele>826.2</ele>
        <time>2024-10-06T08:33:26Z</time>
      </trkpt>
      <trkpt lat="42.9466" lon="1.13728">
        <ele>826.6</ele>
        <time>2024-10-06T08:33:30Z</time>
      </trkpt>
      <trkpt lat="42.9466" lon="1.13728">
        <ele>827</ele>
        <time>2024-10-06T08:33:31Z</time>
      </trkpt>
      <trkpt lat="42.94659" lon="1.1373">
        <ele>828.4</ele>
        <time>2024-10-06T08:33:47Z</time>
      </trkpt>
      <trkpt lat="42.94657" lon="1.13731">
        <ele>828.4</ele>
        <time>2024-10-06T08:33:49Z</time>
      </trkpt>
      <trkpt lat="42.94648" lon="1.1374">
        <ele>828.4</ele>
        <time>2024-10-06T08:33:53Z</time>
      </trkpt>
      <trkpt lat="42.94644" lon="1.13743">
        <ele>828</ele>
        <time>2024-10-06T08:33:54Z</time>
      </trkpt>
      <trkpt lat="42.94639" lon="1.13747">
        <ele>827.4</ele>
        <time>2024-10-06T08:33:55Z</time>
      </trkpt>
      <trkpt lat="42.94634" lon="1.13751">
        <ele>827</ele>
        <time>2024-10-06T08:33:56Z</time>
      </trkpt>
      <trkpt lat="42.94629" lon="1.13756">
        <ele>826.4</ele>
        <time>2024-10-06T08:33:57Z</time>
      </trkpt>
      <trkpt lat="42.94626" lon="1.13759">
        <ele>825.8</ele>
        <time>2024-10-06T08:33:58Z</time>
      </trkpt>
      <trkpt lat="42.94622" lon="1.13759">
        <ele>825.2</ele>
        <time>2024-10-06T08:33:59Z</time>
      </trkpt>
      <trkpt lat="42.9462" lon="1.13759">
        <ele>824.6</ele>
        <time>2024-10-06T08:34:00Z</time>
      </trkpt>
      <trkpt lat="42.94619" lon="1.1376">
        <ele>824</ele>
        <time>2024-10-06T08:34:01Z</time>
      </trkpt>
      <trkpt lat="42.94617" lon="1.1376">
        <ele>824</ele>
        <time>2024-10-06T08:34:03Z</time>
      </trkpt>
      <trkpt lat="42.9461" lon="1.13764">
        <ele>824</ele>
        <time>2024-10-06T08:34:06Z</time>
      </trkpt>
      <trkpt lat="42.94598" lon="1.13765">
        <ele>824</ele>
        <time>2024-10-06T08:34:10Z</time>
      </trkpt>
      <trkpt lat="42.94593" lon="1.13765">
        <ele>824</ele>
        <time>2024-10-06T08:34:12Z</time>
      </trkpt>
      <trkpt lat="42.94589" lon="1.13764">
        <ele>824</ele>
        <time>2024-10-06T08:34:14Z</time>
      </trkpt>
      <trkpt lat="42.94575" lon="1.13762">
        <ele>824</ele>
        <time>2024-10-06T08:34:19Z</time>
      </trkpt>
      <trkpt lat="42.94554" lon="1.13764">
        <ele>824</ele>
        <time>2024-10-06T08:34:26Z</time>
      </trkpt>
      <trkpt lat="42.94537" lon="1.13763">
        <ele>824</ele>
        <time>2024-10-06T08:34:31Z</time>
      </trkpt>
      <trkpt lat="42.94519" lon="1.13762">
        <ele>824</ele>
        <time>2024-10-06T08:34:35Z</time>
      </trkpt>
      <trkpt lat="42.94512" lon="1.13755">
        <ele>824</ele>
        <time>2024-10-06T08:34:37Z</time>
      </trkpt>
      <trkpt lat="42.94512" lon="1.13745">
        <ele>823.6</ele>
        <time>2024-10-06T08:34:39Z</time>
      </trkpt>
      <trkpt lat="42.94515" lon="1.13741">
        <ele>823.2</ele>
        <time>2024-10-06T08:34:40Z</time>
      </trkpt>
      <trkpt lat="42.94519" lon="1.13739">
        <ele>822.8</ele>
        <time>2024-10-06T08:34:41Z</time>
      </trkpt>
      <trkpt lat="42.94524" lon="1.13737">
        <ele>822.2</ele>
        <time>2024-10-06T08:34:42Z</time>
      </trkpt>
      <trkpt lat="42.9453" lon="1.13736">
        <ele>821.8</ele>
        <time>2024-10-06T08:34:43Z</time>
      </trkpt>
      <trkpt lat="42.94536" lon="1.13734">
        <ele>821.4</ele>
        <time>2024-10-06T08:34:44Z</time>
      </trkpt>
      <trkpt lat="42.94542" lon="1.13732">
        <ele>820.8</ele>
        <time>2024-10-06T08:34:45Z</time>
      </trkpt>
      <trkpt lat="42.94548" lon="1.1373">
        <ele>820.4</ele>
        <time>2024-10-06T08:34:46Z</time>
      </trkpt>
      <trkpt lat="42.94556" lon="1.13728">
        <ele>819.8</ele>
        <time>2024-10-06T08:34:47Z</time>
      </trkpt>
      <trkpt lat="42.94563" lon="1.13727">
        <ele>819.4</ele>
        <time>2024-10-06T08:34:48Z</time>
      </trkpt>
      <trkpt lat="42.9457" lon="1.13727">
        <ele>818.8</ele>
        <time>2024-10-06T08:34:49Z</time>
      </trkpt>
      <trkpt lat="42.94576" lon="1.13726">
        <ele>818.4</ele>
        <time>2024-10-06T08:34:50Z</time>
      </trkpt>
      <trkpt lat="42.9458" lon="1.13723">
        <ele>817.8</ele>
        <time>2024-10-06T08:34:51Z</time>
      </trkpt>
      <trkpt lat="42.94583" lon="1.13717">
        <ele>817.4</ele>
        <time>2024-10-06T08:34:52Z</time>
      </trkpt>
      <trkpt lat="42.94581" lon="1.13711">
        <ele>816.8</ele>
        <time>2024-10-06T08:34:53Z</time>
      </trkpt>
      <trkpt lat="42.94578" lon="1.13706">
        <ele>816.4</ele>
        <time>2024-10-06T08:34:54Z</time>
      </trkpt>
      <trkpt lat="42.94575" lon="1.13703">
        <ele>815.8</ele>
        <time>2024-10-06T08:34:55Z</time>
      </trkpt>
      <trkpt lat="42.94572" lon="1.13699">
        <ele>815.4</ele>
        <time>2024-10-06T08:34:56Z</time>
      </trkpt>
      <trkpt lat="42.94569" lon="1.13696">
        <ele>814.8</ele>
        <time>2024-10-06T08:34:57Z</time>
      </trkpt>
      <trkpt lat="42.94564" lon="1.13693">
        <ele>814.4</ele>
        <time>2024-10-06T08:34:58Z</time>
      </trkpt>
      <trkpt lat="42.94558" lon="1.1369">
        <ele>813.8</ele>
        <time>2024-10-06T08:34:59Z</time>
      </trkpt>
      <trkpt lat="42.94551" lon="1.13688">
        <ele>813</ele>
        <time>2024-10-06T08:35:00Z</time>
      </trkpt>
      <trkpt lat="42.94544" lon="1.13685">
        <ele>812.4</ele>
        <time>2024-10-06T08:35:01Z</time>
      </trkpt>
      <trkpt lat="42.94535" lon="1.13681">
        <ele>812</ele>
        <time>2024-10-06T08:35:02Z</time>
      </trkpt>
      <trkpt lat="42.94528" lon="1.13677">
        <ele>811.4</ele>
        <time>2024-10-06T08:35:03Z</time>
      </trkpt>
      <trkpt lat="42.9452" lon="1.13672">
        <ele>810.8</ele>
        <time>2024-10-06T08:35:04Z</time>
      </trkpt>
      <trkpt lat="42.94513" lon="1.13666">
        <ele>810.2</ele>
        <time>2024-10-06T08:35:05Z</time>
      </trkpt>
      <trkpt lat="42.94506" lon="1.13658">
        <ele>809.6</ele>
        <time>2024-10-06T08:35:06Z</time>
      </trkpt>
      <trkpt lat="42.94499" lon="1.13651">
        <ele>809</ele>
        <time>2024-10-06T08:35:07Z</time>
      </trkpt>
      <trkpt lat="42.94493" lon="1.13644">
        <ele>808.4</ele>
        <time>2024-10-06T08:35:08Z</time>
      </trkpt>
      <trkpt lat="42.94487" lon="1.13637">
        <ele>807.8</ele>
        <time>2024-10-06T08:35:09Z</time>
      </trkpt>
      <trkpt lat="42.94482" lon="1.13632">
        <ele>807.2</ele>
        <time>2024-10-06T08:35:10Z</time>
      </trkpt>
      <trkpt lat="42.94478" lon="1.13629">
        <ele>806.6</ele>
        <time>2024-10-06T08:35:11Z</time>
      </trkpt>
      <trkpt lat="42.94474" lon="1.13628">
        <ele>806.2</ele>
        <time>2024-10-06T08:35:12Z</time>
      </trkpt>
      <trkpt lat="42.94469" lon="1.13627">
        <ele>805.6</ele>
        <time>2024-10-06T08:35:13Z</time>
      </trkpt>
      <trkpt lat="42.9446" lon="1.13629">
        <ele>805</ele>
        <time>2024-10-06T08:35:14Z</time>
      </trkpt>
      <trkpt lat="42.94451" lon="1.13628">
        <ele>804.6</ele>
        <time>2024-10-06T08:35:15Z</time>
      </trkpt>
      <trkpt lat="42.94445" lon="1.13624">
        <ele>804.2</ele>
        <time>2024-10-06T08:35:16Z</time>
      </trkpt>
      <trkpt lat="42.94442" lon="1.13618">
        <ele>803.8</ele>
        <time>2024-10-06T08:35:17Z</time>
      </trkpt>
      <trkpt lat="42.94441" lon="1.13613">
        <ele>803.4</ele>
        <time>2024-10-06T08:35:18Z</time>
      </trkpt>
      <trkpt lat="42.94441" lon="1.13599">
        <ele>803.4</ele>
        <time>2024-10-06T08:35:20Z</time>
      </trkpt>
      <trkpt lat="42.9444" lon="1.13557">
        <ele>803.4</ele>
        <time>2024-10-06T08:35:26Z</time>
      </trkpt>
      <trkpt lat="42.94441" lon="1.13552">
        <ele>803.4</ele>
        <time>2024-10-06T08:35:27Z</time>
      </trkpt>
      <trkpt lat="42.94444" lon="1.13544">
        <ele>803.4</ele>
        <time>2024-10-06T08:35:29Z</time>
      </trkpt>
      <trkpt lat="42.94445" lon="1.13541">
        <ele>803.8</ele>
        <time>2024-10-06T08:35:30Z</time>
      </trkpt>
      <trkpt lat="42.94447" lon="1.13537">
        <ele>804.4</ele>
        <time>2024-10-06T08:35:31Z</time>
      </trkpt>
      <trkpt lat="42.94449" lon="1.13534">
        <ele>804.8</ele>
        <time>2024-10-06T08:35:32Z</time>
      </trkpt>
      <trkpt lat="42.9445" lon="1.13531">
        <ele>805.2</ele>
        <time>2024-10-06T08:35:33Z</time>
      </trkpt>
      <trkpt lat="42.94451" lon="1.13529">
        <ele>805.6</ele>
        <time>2024-10-06T08:35:34Z</time>
      </trkpt>
      <trkpt lat="42.94453" lon="1.13526">
        <ele>805.6</ele>
        <time>2024-10-06T08:35:35Z</time>
      </trkpt>
      <trkpt lat="42.94456" lon="1.13517">
        <ele>806</ele>
        <time>2024-10-06T08:35:38Z</time>
      </trkpt>
      <trkpt lat="42.94457" lon="1.13514">
        <ele>806.6</ele>
        <time>2024-10-06T08:35:39Z</time>
      </trkpt>
      <trkpt lat="42.94458" lon="1.13511">
        <ele>807</ele>
        <time>2024-10-06T08:35:40Z</time>
      </trkpt>
      <trkpt lat="42.94459" lon="1.13508">
        <ele>807.4</ele>
        <time>2024-10-06T08:35:41Z</time>
      </trkpt>
      <trkpt lat="42.94461" lon="1.13505">
        <ele>807.8</ele>
        <time>2024-10-06T08:35:42Z</time>
      </trkpt>
      <trkpt lat="42.94462" lon="1.13502">
        <ele>807.8</ele>
        <time>2024-10-06T08:35:43Z</time>
      </trkpt>
      <trkpt lat="42.94468" lon="1.13485">
        <ele>808.2</ele>
        <time>2024-10-06T08:35:48Z</time>
      </trkpt>
      <trkpt lat="42.94468" lon="1.13482">
        <ele>808.6</ele>
        <time>2024-10-06T08:35:49Z</time>
      </trkpt>
      <trkpt lat="42.94469" lon="1.13478">
        <ele>809.4</ele>
        <time>2024-10-06T08:35:50Z</time>
      </trkpt>
      <trkpt lat="42.9447" lon="1.13475">
        <ele>810</ele>
        <time>2024-10-06T08:35:51Z</time>
      </trkpt>
      <trkpt lat="42.94474" lon="1.13465">
        <ele>810</ele>
        <time>2024-10-06T08:35:54Z</time>
      </trkpt>
      <trkpt lat="42.94477" lon="1.13458">
        <ele>810.4</ele>
        <time>2024-10-06T08:35:56Z</time>
      </trkpt>
      <trkpt lat="42.94478" lon="1.13455">
        <ele>810.8</ele>
        <time>2024-10-06T08:35:57Z</time>
      </trkpt>
      <trkpt lat="42.94479" lon="1.13451">
        <ele>811.2</ele>
        <time>2024-10-06T08:35:58Z</time>
      </trkpt>
      <trkpt lat="42.9448" lon="1.13448">
        <ele>811.6</ele>
        <time>2024-10-06T08:35:59Z</time>
      </trkpt>
      <trkpt lat="42.94482" lon="1.13445">
        <ele>812</ele>
        <time>2024-10-06T08:36:00Z</time>
      </trkpt>
      <trkpt lat="42.94483" lon="1.13442">
        <ele>812</ele>
        <time>2024-10-06T08:36:01Z</time>
      </trkpt>
      <trkpt lat="42.94485" lon="1.13423">
        <ele>812.4</ele>
        <time>2024-10-06T08:36:07Z</time>
      </trkpt>
      <trkpt lat="42.94485" lon="1.13419">
        <ele>812.8</ele>
        <time>2024-10-06T08:36:08Z</time>
      </trkpt>
      <trkpt lat="42.94485" lon="1.13415">
        <ele>813.2</ele>
        <time>2024-10-06T08:36:09Z</time>
      </trkpt>
      <trkpt lat="42.94484" lon="1.13411">
        <ele>813.6</ele>
        <time>2024-10-06T08:36:10Z</time>
      </trkpt>
      <trkpt lat="42.94483" lon="1.13407">
        <ele>814</ele>
        <time>2024-10-06T08:36:11Z</time>
      </trkpt>
      <trkpt lat="42.94482" lon="1.13398">
        <ele>814</ele>
        <time>2024-10-06T08:36:13Z</time>
      </trkpt>
      <trkpt lat="42.94478" lon="1.13378">
        <ele>814</ele>
        <time>2024-10-06T08:36:18Z</time>
      </trkpt>
      <trkpt lat="42.94477" lon="1.13375">
        <ele>814.4</ele>
        <time>2024-10-06T08:36:19Z</time>
      </trkpt>
      <trkpt lat="42.94477" lon="1.13371">
        <ele>814.8</ele>
        <time>2024-10-06T08:36:20Z</time>
      </trkpt>
      <trkpt lat="42.94475" lon="1.13367">
        <ele>815.2</ele>
        <time>2024-10-06T08:36:21Z</time>
      </trkpt>
      <trkpt lat="42.94474" lon="1.13364">
        <ele>815.6</ele>
        <time>2024-10-06T08:36:22Z</time>
      </trkpt>
      <trkpt lat="42.94472" lon="1.1336">
        <ele>816</ele>
        <time>2024-10-06T08:36:23Z</time>
      </trkpt>
      <trkpt lat="42.94471" lon="1.13357">
        <ele>816</ele>
        <time>2024-10-06T08:36:24Z</time>
      </trkpt>
      <trkpt lat="42.94465" lon="1.1334">
        <ele>816</ele>
        <time>2024-10-06T08:36:29Z</time>
      </trkpt>
      <trkpt lat="42.94461" lon="1.13331">
        <ele>816.6</ele>
        <time>2024-10-06T08:36:32Z</time>
      </trkpt>
      <trkpt lat="42.94459" lon="1.13328">
        <ele>817</ele>
        <time>2024-10-06T08:36:33Z</time>
      </trkpt>
      <trkpt lat="42.94458" lon="1.13325">
        <ele>817.4</ele>
        <time>2024-10-06T08:36:34Z</time>
      </trkpt>
      <trkpt lat="42.94455" lon="1.13322">
        <ele>817.8</ele>
        <time>2024-10-06T08:36:35Z</time>
      </trkpt>
      <trkpt lat="42.94453" lon="1.13319">
        <ele>818.2</ele>
        <time>2024-10-06T08:36:36Z</time>
      </trkpt>
      <trkpt lat="42.94447" lon="1.13309">
        <ele>818.2</ele>
        <time>2024-10-06T08:36:40Z</time>
      </trkpt>
      <trkpt lat="42.94448" lon="1.13302">
        <ele>818.6</ele>
        <time>2024-10-06T08:36:42Z</time>
      </trkpt>
      <trkpt lat="42.94449" lon="1.13299">
        <ele>819</ele>
        <time>2024-10-06T08:36:43Z</time>
      </trkpt>
      <trkpt lat="42.94449" lon="1.13295">
        <ele>819.4</ele>
        <time>2024-10-06T08:36:44Z</time>
      </trkpt>
      <trkpt lat="42.9445" lon="1.13291">
        <ele>819.8</ele>
        <time>2024-10-06T08:36:45Z</time>
      </trkpt>
      <trkpt lat="42.9445" lon="1.13288">
        <ele>820.2</ele>
        <time>2024-10-06T08:36:46Z</time>
      </trkpt>
      <trkpt lat="42.94455" lon="1.13272">
        <ele>820.2</ele>
        <time>2024-10-06T08:36:51Z</time>
      </trkpt>
      <trkpt lat="42.94457" lon="1.13269">
        <ele>820.8</ele>
        <time>2024-10-06T08:36:52Z</time>
      </trkpt>
      <trkpt lat="42.94458" lon="1.13266">
        <ele>821.2</ele>
        <time>2024-10-06T08:36:53Z</time>
      </trkpt>
      <trkpt lat="42.9446" lon="1.13262">
        <ele>821.6</ele>
        <time>2024-10-06T08:36:54Z</time>
      </trkpt>
      <trkpt lat="42.94461" lon="1.13258">
        <ele>822</ele>
        <time>2024-10-06T08:36:55Z</time>
      </trkpt>
      <trkpt lat="42.94462" lon="1.13254">
        <ele>822.4</ele>
        <time>2024-10-06T08:36:56Z</time>
      </trkpt>
      <trkpt lat="42.94464" lon="1.13243">
        <ele>822.4</ele>
        <time>2024-10-06T08:36:59Z</time>
      </trkpt>
      <trkpt lat="42.94467" lon="1.13224">
        <ele>822.4</ele>
        <time>2024-10-06T08:37:05Z</time>
      </trkpt>
      <trkpt lat="42.94467" lon="1.13222">
        <ele>822.8</ele>
        <time>2024-10-06T08:37:06Z</time>
      </trkpt>
      <trkpt lat="42.94467" lon="1.13218">
        <ele>823.2</ele>
        <time>2024-10-06T08:37:07Z</time>
      </trkpt>
      <trkpt lat="42.94467" lon="1.13215">
        <ele>823.6</ele>
        <time>2024-10-06T08:37:08Z</time>
      </trkpt>
      <trkpt lat="42.94467" lon="1.13211">
        <ele>824</ele>
        <time>2024-10-06T08:37:09Z</time>
      </trkpt>
      <trkpt lat="42.94467" lon="1.13207">
        <ele>824.4</ele>
        <time>2024-10-06T08:37:10Z</time>
      </trkpt>
      <trkpt lat="42.94467" lon="1.132">
        <ele>824.4</ele>
        <time>2024-10-06T08:37:12Z</time>
      </trkpt>
      <trkpt lat="42.9447" lon="1.13185">
        <ele>824.8</ele>
        <time>2024-10-06T08:37:17Z</time>
      </trkpt>
      <trkpt lat="42.9447" lon="1.13183">
        <ele>825.2</ele>
        <time>2024-10-06T08:37:18Z</time>
      </trkpt>
      <trkpt lat="42.94471" lon="1.13179">
        <ele>825.6</ele>
        <time>2024-10-06T08:37:19Z</time>
      </trkpt>
      <trkpt lat="42.94472" lon="1.13177">
        <ele>826</ele>
        <time>2024-10-06T08:37:20Z</time>
      </trkpt>
      <trkpt lat="42.94472" lon="1.13175">
        <ele>826.6</ele>
        <time>2024-10-06T08:37:21Z</time>
      </trkpt>
      <trkpt lat="42.94474" lon="1.13164">
        <ele>826.6</ele>
        <time>2024-10-06T08:37:25Z</time>
      </trkpt>
      <trkpt lat="42.94475" lon="1.13157">
        <ele>827</ele>
        <time>2024-10-06T08:37:27Z</time>
      </trkpt>
      <trkpt lat="42.94475" lon="1.13153">
        <ele>827.4</ele>
        <time>2024-10-06T08:37:28Z</time>
      </trkpt>
      <trkpt lat="42.94475" lon="1.1315">
        <ele>828.2</ele>
        <time>2024-10-06T08:37:29Z</time>
      </trkpt>
      <trkpt lat="42.94475" lon="1.13147">
        <ele>828.6</ele>
        <time>2024-10-06T08:37:30Z</time>
      </trkpt>
      <trkpt lat="42.94474" lon="1.13145">
        <ele>828.6</ele>
        <time>2024-10-06T08:37:31Z</time>
      </trkpt>
      <trkpt lat="42.94467" lon="1.1312">
        <ele>828.6</ele>
        <time>2024-10-06T08:37:39Z</time>
      </trkpt>
      <trkpt lat="42.94464" lon="1.13114">
        <ele>829</ele>
        <time>2024-10-06T08:37:41Z</time>
      </trkpt>
      <trkpt lat="42.94462" lon="1.13111">
        <ele>829.4</ele>
        <time>2024-10-06T08:37:42Z</time>
      </trkpt>
      <trkpt lat="42.94461" lon="1.13109">
        <ele>829.8</ele>
        <time>2024-10-06T08:37:43Z</time>
      </trkpt>
      <trkpt lat="42.94459" lon="1.13106">
        <ele>830.2</ele>
        <time>2024-10-06T08:37:44Z</time>
      </trkpt>
      <trkpt lat="42.94457" lon="1.13104">
        <ele>830.6</ele>
        <time>2024-10-06T08:37:45Z</time>
      </trkpt>
      <trkpt lat="42.94443" lon="1.13089">
        <ele>830.6</ele>
        <time>2024-10-06T08:37:51Z</time>
      </trkpt>
      <trkpt lat="42.94438" lon="1.13081">
        <ele>831</ele>
        <time>2024-10-06T08:37:54Z</time>
      </trkpt>
      <trkpt lat="42.94436" lon="1.13079">
        <ele>831.4</ele>
        <time>2024-10-06T08:37:55Z</time>
      </trkpt>
      <trkpt lat="42.94434" lon="1.13077">
        <ele>832</ele>
        <time>2024-10-06T08:37:56Z</time>
      </trkpt>
      <trkpt lat="42.94432" lon="1.13074">
        <ele>832.4</ele>
        <time>2024-10-06T08:37:57Z</time>
      </trkpt>
      <trkpt lat="42.9443" lon="1.13072">
        <ele>832.8</ele>
        <time>2024-10-06T08:37:58Z</time>
      </trkpt>
      <trkpt lat="42.94424" lon="1.13058">
        <ele>832.8</ele>
        <time>2024-10-06T08:38:03Z</time>
      </trkpt>
      <trkpt lat="42.94421" lon="1.13052">
        <ele>833.2</ele>
        <time>2024-10-06T08:38:05Z</time>
      </trkpt>
      <trkpt lat="42.9442" lon="1.13049">
        <ele>833.6</ele>
        <time>2024-10-06T08:38:06Z</time>
      </trkpt>
      <trkpt lat="42.94419" lon="1.13045">
        <ele>834</ele>
        <time>2024-10-06T08:38:07Z</time>
      </trkpt>
      <trkpt lat="42.94419" lon="1.13042">
        <ele>834.6</ele>
        <time>2024-10-06T08:38:08Z</time>
      </trkpt>
      <trkpt lat="42.94418" lon="1.13039">
        <ele>835</ele>
        <time>2024-10-06T08:38:09Z</time>
      </trkpt>
      <trkpt lat="42.94414" lon="1.1302">
        <ele>835</ele>
        <time>2024-10-06T08:38:15Z</time>
      </trkpt>
      <trkpt lat="42.94414" lon="1.13016">
        <ele>835.4</ele>
        <time>2024-10-06T08:38:16Z</time>
      </trkpt>
      <trkpt lat="42.94414" lon="1.13013">
        <ele>835.8</ele>
        <time>2024-10-06T08:38:17Z</time>
      </trkpt>
      <trkpt lat="42.94413" lon="1.1301">
        <ele>836.6</ele>
        <time>2024-10-06T08:38:18Z</time>
      </trkpt>
      <trkpt lat="42.94413" lon="1.13007">
        <ele>837</ele>
        <time>2024-10-06T08:38:19Z</time>
      </trkpt>
      <trkpt lat="42.94412" lon="1.12997">
        <ele>837</ele>
        <time>2024-10-06T08:38:22Z</time>
      </trkpt>
      <trkpt lat="42.9441" lon="1.12988">
        <ele>837.4</ele>
        <time>2024-10-06T08:38:25Z</time>
      </trkpt>
      <trkpt lat="42.9441" lon="1.12985">
        <ele>837.8</ele>
        <time>2024-10-06T08:38:26Z</time>
      </trkpt>
      <trkpt lat="42.9441" lon="1.12982">
        <ele>838.4</ele>
        <time>2024-10-06T08:38:27Z</time>
      </trkpt>
      <trkpt lat="42.9441" lon="1.12978">
        <ele>838.8</ele>
        <time>2024-10-06T08:38:28Z</time>
      </trkpt>
      <trkpt lat="42.9441" lon="1.12974">
        <ele>839.2</ele>
        <time>2024-10-06T08:38:29Z</time>
      </trkpt>
      <trkpt lat="42.94405" lon="1.12955">
        <ele>839.6</ele>
        <time>2024-10-06T08:38:35Z</time>
      </trkpt>
      <trkpt lat="42.94405" lon="1.12952">
        <ele>840</ele>
        <time>2024-10-06T08:38:36Z</time>
      </trkpt>
      <trkpt lat="42.94405" lon="1.12949">
        <ele>840.4</ele>
        <time>2024-10-06T08:38:37Z</time>
      </trkpt>
      <trkpt lat="42.94405" lon="1.12946">
        <ele>841</ele>
        <time>2024-10-06T08:38:38Z</time>
      </trkpt>
      <trkpt lat="42.94404" lon="1.12942">
        <ele>841.4</ele>
        <time>2024-10-06T08:38:39Z</time>
      </trkpt>
      <trkpt lat="42.94402" lon="1.12922">
        <ele>841.8</ele>
        <time>2024-10-06T08:38:45Z</time>
      </trkpt>
      <trkpt lat="42.94403" lon="1.12919">
        <ele>842.2</ele>
        <time>2024-10-06T08:38:46Z</time>
      </trkpt>
      <trkpt lat="42.94403" lon="1.12916">
        <ele>842.6</ele>
        <time>2024-10-06T08:38:47Z</time>
      </trkpt>
      <trkpt lat="42.94404" lon="1.12914">
        <ele>843</ele>
        <time>2024-10-06T08:38:48Z</time>
      </trkpt>
      <trkpt lat="42.94404" lon="1.12912">
        <ele>843.4</ele>
        <time>2024-10-06T08:38:49Z</time>
      </trkpt>
      <trkpt lat="42.94404" lon="1.1291">
        <ele>843.4</ele>
        <time>2024-10-06T08:38:50Z</time>
      </trkpt>
      <trkpt lat="42.94408" lon="1.12891">
        <ele>843.4</ele>
        <time>2024-10-06T08:38:56Z</time>
      </trkpt>
      <trkpt lat="42.94408" lon="1.12881">
        <ele>843.8</ele>
        <time>2024-10-06T08:38:59Z</time>
      </trkpt>
      <trkpt lat="42.94409" lon="1.12878">
        <ele>844.2</ele>
        <time>2024-10-06T08:39:00Z</time>
      </trkpt>
      <trkpt lat="42.9441" lon="1.12875">
        <ele>844.8</ele>
        <time>2024-10-06T08:39:01Z</time>
      </trkpt>
      <trkpt lat="42.9441" lon="1.12872">
        <ele>845.2</ele>
        <time>2024-10-06T08:39:02Z</time>
      </trkpt>
      <trkpt lat="42.94411" lon="1.12869">
        <ele>845.6</ele>
        <time>2024-10-06T08:39:03Z</time>
      </trkpt>
      <trkpt lat="42.94412" lon="1.12843">
        <ele>846</ele>
        <time>2024-10-06T08:39:10Z</time>
      </trkpt>
      <trkpt lat="42.94413" lon="1.1284">
        <ele>846.4</ele>
        <time>2024-10-06T08:39:11Z</time>
      </trkpt>
      <trkpt lat="42.94413" lon="1.12836">
        <ele>846.8</ele>
        <time>2024-10-06T08:39:12Z</time>
      </trkpt>
      <trkpt lat="42.94413" lon="1.12833">
        <ele>847.2</ele>
        <time>2024-10-06T08:39:13Z</time>
      </trkpt>
      <trkpt lat="42.94413" lon="1.12829">
        <ele>847.6</ele>
        <time>2024-10-06T08:39:14Z</time>
      </trkpt>
      <trkpt lat="42.94412" lon="1.12822">
        <ele>847.6</ele>
        <time>2024-10-06T08:39:16Z</time>
      </trkpt>
      <trkpt lat="42.9441" lon="1.12802">
        <ele>848.2</ele>
        <time>2024-10-06T08:39:22Z</time>
      </trkpt>
      <trkpt lat="42.9441" lon="1.12799">
        <ele>848.6</ele>
        <time>2024-10-06T08:39:23Z</time>
      </trkpt>
      <trkpt lat="42.94409" lon="1.12796">
        <ele>849</ele>
        <time>2024-10-06T08:39:24Z</time>
      </trkpt>
      <trkpt lat="42.94409" lon="1.12792">
        <ele>849.4</ele>
        <time>2024-10-06T08:39:25Z</time>
      </trkpt>
      <trkpt lat="42.94409" lon="1.12788">
        <ele>849.8</ele>
        <time>2024-10-06T08:39:26Z</time>
      </trkpt>
      <trkpt lat="42.94408" lon="1.1278">
        <ele>849.8</ele>
        <time>2024-10-06T08:39:28Z</time>
      </trkpt>
      <trkpt lat="42.94406" lon="1.12766">
        <ele>849.8</ele>
        <time>2024-10-06T08:39:33Z</time>
      </trkpt>
      <trkpt lat="42.94405" lon="1.12754">
        <ele>850.4</ele>
        <time>2024-10-06T08:39:37Z</time>
      </trkpt>
      <trkpt lat="42.94406" lon="1.12751">
        <ele>850.8</ele>
        <time>2024-10-06T08:39:38Z</time>
      </trkpt>
      <trkpt lat="42.94406" lon="1.12748">
        <ele>851.2</ele>
        <time>2024-10-06T08:39:39Z</time>
      </trkpt>
      <trkpt lat="42.94407" lon="1.12745">
        <ele>851.6</ele>
        <time>2024-10-06T08:39:40Z</time>
      </trkpt>
      <trkpt lat="42.94407" lon="1.12742">
        <ele>852</ele>
        <time>2024-10-06T08:39:41Z</time>
      </trkpt>
      <trkpt lat="42.9441" lon="1.12732">
        <ele>852</ele>
        <time>2024-10-06T08:39:45Z</time>
      </trkpt>
      <trkpt lat="42.94414" lon="1.12718">
        <ele>852.4</ele>
        <time>2024-10-06T08:39:49Z</time>
      </trkpt>
      <trkpt lat="42.94415" lon="1.12714">
        <ele>853</ele>
        <time>2024-10-06T08:39:50Z</time>
      </trkpt>
      <trkpt lat="42.94416" lon="1.1271">
        <ele>853.4</ele>
        <time>2024-10-06T08:39:51Z</time>
      </trkpt>
      <trkpt lat="42.94416" lon="1.12706">
        <ele>853.8</ele>
        <time>2024-10-06T08:39:52Z</time>
      </trkpt>
      <trkpt lat="42.94416" lon="1.12702">
        <ele>854.2</ele>
        <time>2024-10-06T08:39:53Z</time>
      </trkpt>
      <trkpt lat="42.94418" lon="1.12684">
        <ele>854.2</ele>
        <time>2024-10-06T08:39:58Z</time>
      </trkpt>
      <trkpt lat="42.94419" lon="1.12671">
        <ele>854.6</ele>
        <time>2024-10-06T08:40:02Z</time>
      </trkpt>
      <trkpt lat="42.94419" lon="1.12667">
        <ele>855</ele>
        <time>2024-10-06T08:40:03Z</time>
      </trkpt>
      <trkpt lat="42.94418" lon="1.12663">
        <ele>855.6</ele>
        <time>2024-10-06T08:40:04Z</time>
      </trkpt>
      <trkpt lat="42.94418" lon="1.12659">
        <ele>856</ele>
        <time>2024-10-06T08:40:05Z</time>
      </trkpt>
      <trkpt lat="42.94418" lon="1.12656">
        <ele>856.4</ele>
        <time>2024-10-06T08:40:06Z</time>
      </trkpt>
      <trkpt lat="42.94419" lon="1.12635">
        <ele>856.4</ele>
        <time>2024-10-06T08:40:12Z</time>
      </trkpt>
      <trkpt lat="42.94421" lon="1.12623">
        <ele>856.8</ele>
        <time>2024-10-06T08:40:16Z</time>
      </trkpt>
      <trkpt lat="42.94422" lon="1.1262">
        <ele>857.2</ele>
        <time>2024-10-06T08:40:17Z</time>
      </trkpt>
      <trkpt lat="42.94423" lon="1.12617">
        <ele>857.6</ele>
        <time>2024-10-06T08:40:18Z</time>
      </trkpt>
      <trkpt lat="42.94424" lon="1.12615">
        <ele>858</ele>
        <time>2024-10-06T08:40:19Z</time>
      </trkpt>
      <trkpt lat="42.94425" lon="1.12612">
        <ele>858.4</ele>
        <time>2024-10-06T08:40:20Z</time>
      </trkpt>
      <trkpt lat="42.94429" lon="1.12603">
        <ele>858.4</ele>
        <time>2024-10-06T08:40:23Z</time>
      </trkpt>
      <trkpt lat="42.94435" lon="1.12595">
        <ele>859</ele>
        <time>2024-10-06T08:40:26Z</time>
      </trkpt>
      <trkpt lat="42.94436" lon="1.12592">
        <ele>859.4</ele>
        <time>2024-10-06T08:40:27Z</time>
      </trkpt>
      <trkpt lat="42.94437" lon="1.12589">
        <ele>859.8</ele>
        <time>2024-10-06T08:40:28Z</time>
      </trkpt>
      <trkpt lat="42.94437" lon="1.12586">
        <ele>860.2</ele>
        <time>2024-10-06T08:40:29Z</time>
      </trkpt>
      <trkpt lat="42.94437" lon="1.12583">
        <ele>860.6</ele>
        <time>2024-10-06T08:40:30Z</time>
      </trkpt>
      <trkpt lat="42.94436" lon="1.12566">
        <ele>860.6</ele>
        <time>2024-10-06T08:40:35Z</time>
      </trkpt>
      <trkpt lat="42.94435" lon="1.12562">
        <ele>861</ele>
        <time>2024-10-06T08:40:36Z</time>
      </trkpt>
      <trkpt lat="42.94435" lon="1.12558">
        <ele>861.4</ele>
        <time>2024-10-06T08:40:37Z</time>
      </trkpt>
      <trkpt lat="42.94435" lon="1.12555">
        <ele>861.8</ele>
        <time>2024-10-06T08:40:38Z</time>
      </trkpt>
      <trkpt lat="42.94435" lon="1.12551">
        <ele>862.2</ele>
        <time>2024-10-06T08:40:39Z</time>
      </trkpt>
      <trkpt lat="42.94435" lon="1.12548">
        <ele>862.8</ele>
        <time>2024-10-06T08:40:40Z</time>
      </trkpt>
      <trkpt lat="42.94435" lon="1.12544">
        <ele>862.8</ele>
        <time>2024-10-06T08:40:41Z</time>
      </trkpt>
      <trkpt lat="42.94437" lon="1.12525">
        <ele>863.2</ele>
        <time>2024-10-06T08:40:47Z</time>
      </trkpt>
      <trkpt lat="42.94437" lon="1.12522">
        <ele>863.6</ele>
        <time>2024-10-06T08:40:48Z</time>
      </trkpt>
      <trkpt lat="42.94438" lon="1.12519">
        <ele>864</ele>
        <time>2024-10-06T08:40:49Z</time>
      </trkpt>
      <trkpt lat="42.94438" lon="1.12515">
        <ele>864.4</ele>
        <time>2024-10-06T08:40:50Z</time>
      </trkpt>
      <trkpt lat="42.94439" lon="1.12511">
        <ele>864.8</ele>
        <time>2024-10-06T08:40:51Z</time>
      </trkpt>
      <trkpt lat="42.94439" lon="1.12492">
        <ele>864.8</ele>
        <time>2024-10-06T08:40:56Z</time>
      </trkpt>
      <trkpt lat="42.9444" lon="1.12488">
        <ele>865.2</ele>
        <time>2024-10-06T08:40:57Z</time>
      </trkpt>
      <trkpt lat="42.94439" lon="1.12484">
        <ele>865.6</ele>
        <time>2024-10-06T08:40:58Z</time>
      </trkpt>
      <trkpt lat="42.94439" lon="1.1248">
        <ele>866</ele>
        <time>2024-10-06T08:40:59Z</time>
      </trkpt>
      <trkpt lat="42.94439" lon="1.12477">
        <ele>866.4</ele>
        <time>2024-10-06T08:41:00Z</time>
      </trkpt>
      <trkpt lat="42.9444" lon="1.12473">
        <ele>866.8</ele>
        <time>2024-10-06T08:41:01Z</time>
      </trkpt>
      <trkpt lat="42.94436" lon="1.12454">
        <ele>867.4</ele>
        <time>2024-10-06T08:41:07Z</time>
      </trkpt>
      <trkpt lat="42.94436" lon="1.1245">
        <ele>867.8</ele>
        <time>2024-10-06T08:41:08Z</time>
      </trkpt>
      <trkpt lat="42.94436" lon="1.12447">
        <ele>868.2</ele>
        <time>2024-10-06T08:41:09Z</time>
      </trkpt>
      <trkpt lat="42.94436" lon="1.12444">
        <ele>868.6</ele>
        <time>2024-10-06T08:41:10Z</time>
      </trkpt>
      <trkpt lat="42.94435" lon="1.12441">
        <ele>869</ele>
        <time>2024-10-06T08:41:11Z</time>
      </trkpt>
      <trkpt lat="42.94435" lon="1.12438">
        <ele>869</ele>
        <time>2024-10-06T08:41:12Z</time>
      </trkpt>
      <trkpt lat="42.94433" lon="1.12422">
        <ele>869.4</ele>
        <time>2024-10-06T08:41:17Z</time>
      </trkpt>
      <trkpt lat="42.94432" lon="1.12419">
        <ele>869.8</ele>
        <time>2024-10-06T08:41:18Z</time>
      </trkpt>
      <trkpt lat="42.94432" lon="1.12416">
        <ele>870.2</ele>
        <time>2024-10-06T08:41:19Z</time>
      </trkpt>
      <trkpt lat="42.94432" lon="1.12412">
        <ele>870.6</ele>
        <time>2024-10-06T08:41:20Z</time>
      </trkpt>
      <trkpt lat="42.94433" lon="1.12409">
        <ele>871</ele>
        <time>2024-10-06T08:41:21Z</time>
      </trkpt>
      <trkpt lat="42.94431" lon="1.12396">
        <ele>871</ele>
        <time>2024-10-06T08:41:25Z</time>
      </trkpt>
      <trkpt lat="42.9443" lon="1.12382">
        <ele>871.4</ele>
        <time>2024-10-06T08:41:29Z</time>
      </trkpt>
      <trkpt lat="42.94429" lon="1.12379">
        <ele>871.8</ele>
        <time>2024-10-06T08:41:30Z</time>
      </trkpt>
      <trkpt lat="42.94429" lon="1.12376">
        <ele>872.2</ele>
        <time>2024-10-06T08:41:31Z</time>
      </trkpt>
      <trkpt lat="42.94428" lon="1.12372">
        <ele>872.6</ele>
        <time>2024-10-06T08:41:32Z</time>
      </trkpt>
      <trkpt lat="42.94428" lon="1.12369">
        <ele>873.2</ele>
        <time>2024-10-06T08:41:33Z</time>
      </trkpt>
      <trkpt lat="42.94426" lon="1.12357">
        <ele>873.2</ele>
        <time>2024-10-06T08:41:37Z</time>
      </trkpt>
      <trkpt lat="42.94423" lon="1.12345">
        <ele>873.2</ele>
        <time>2024-10-06T08:41:41Z</time>
      </trkpt>
      <trkpt lat="42.94425" lon="1.1233">
        <ele>873.2</ele>
        <time>2024-10-06T08:41:45Z</time>
      </trkpt>
      <trkpt lat="42.94426" lon="1.1231">
        <ele>873.2</ele>
        <time>2024-10-06T08:41:51Z</time>
      </trkpt>
      <trkpt lat="42.94433" lon="1.12288">
        <ele>873.2</ele>
        <time>2024-10-06T08:41:57Z</time>
      </trkpt>
      <trkpt lat="42.94444" lon="1.12268">
        <ele>873.2</ele>
        <time>2024-10-06T08:42:02Z</time>
      </trkpt>
      <trkpt lat="42.94453" lon="1.12247">
        <ele>873.2</ele>
        <time>2024-10-06T08:42:06Z</time>
      </trkpt>
      <trkpt lat="42.94462" lon="1.12215">
        <ele>873.2</ele>
        <time>2024-10-06T08:42:10Z</time>
      </trkpt>
      <trkpt lat="42.94463" lon="1.12207">
        <ele>873.2</ele>
        <time>2024-10-06T08:42:11Z</time>
      </trkpt>
      <trkpt lat="42.94466" lon="1.12168">
        <ele>873.2</ele>
        <time>2024-10-06T08:42:17Z</time>
      </trkpt>
      <trkpt lat="42.94469" lon="1.12147">
        <ele>873.2</ele>
        <time>2024-10-06T08:42:21Z</time>
      </trkpt>
      <trkpt lat="42.9447" lon="1.12118">
        <ele>873.2</ele>
        <time>2024-10-06T08:42:27Z</time>
      </trkpt>
      <trkpt lat="42.94461" lon="1.12091">
        <ele>873.2</ele>
        <time>2024-10-06T08:42:34Z</time>
      </trkpt>
      <trkpt lat="42.94459" lon="1.12088">
        <ele>873.6</ele>
        <time>2024-10-06T08:42:35Z</time>
      </trkpt>
      <trkpt lat="42.94457" lon="1.12085">
        <ele>874</ele>
        <time>2024-10-06T08:42:36Z</time>
      </trkpt>
      <trkpt lat="42.94455" lon="1.12083">
        <ele>874.4</ele>
        <time>2024-10-06T08:42:37Z</time>
      </trkpt>
      <trkpt lat="42.94452" lon="1.1208">
        <ele>874.8</ele>
        <time>2024-10-06T08:42:38Z</time>
      </trkpt>
      <trkpt lat="42.94451" lon="1.12076">
        <ele>875.2</ele>
        <time>2024-10-06T08:42:39Z</time>
      </trkpt>
      <trkpt lat="42.94449" lon="1.12072">
        <ele>875.2</ele>
        <time>2024-10-06T08:42:40Z</time>
      </trkpt>
      <trkpt lat="42.9444" lon="1.12058">
        <ele>875.6</ele>
        <time>2024-10-06T08:42:45Z</time>
      </trkpt>
      <trkpt lat="42.94438" lon="1.12056">
        <ele>876</ele>
        <time>2024-10-06T08:42:46Z</time>
      </trkpt>
      <trkpt lat="42.94436" lon="1.12053">
        <ele>876.4</ele>
        <time>2024-10-06T08:42:47Z</time>
      </trkpt>
      <trkpt lat="42.94435" lon="1.1205">
        <ele>877</ele>
        <time>2024-10-06T08:42:48Z</time>
      </trkpt>
      <trkpt lat="42.94433" lon="1.12048">
        <ele>877.4</ele>
        <time>2024-10-06T08:42:49Z</time>
      </trkpt>
      <trkpt lat="42.94424" lon="1.1204">
        <ele>877.8</ele>
        <time>2024-10-06T08:42:53Z</time>
      </trkpt>
      <trkpt lat="42.94422" lon="1.12038">
        <ele>878.2</ele>
        <time>2024-10-06T08:42:54Z</time>
      </trkpt>
      <trkpt lat="42.9442" lon="1.12035">
        <ele>878.6</ele>
        <time>2024-10-06T08:42:55Z</time>
      </trkpt>
      <trkpt lat="42.94417" lon="1.12034">
        <ele>879</ele>
        <time>2024-10-06T08:42:56Z</time>
      </trkpt>
      <trkpt lat="42.94415" lon="1.12032">
        <ele>879.4</ele>
        <time>2024-10-06T08:42:57Z</time>
      </trkpt>
      <trkpt lat="42.9441" lon="1.1203">
        <ele>879.4</ele>
        <time>2024-10-06T08:42:59Z</time>
      </trkpt>
      <trkpt lat="42.94408" lon="1.1203">
        <ele>879.8</ele>
        <time>2024-10-06T08:43:00Z</time>
      </trkpt>
      <trkpt lat="42.94405" lon="1.1203">
        <ele>880.2</ele>
        <time>2024-10-06T08:43:02Z</time>
      </trkpt>
      <trkpt lat="42.94403" lon="1.12029">
        <ele>880.6</ele>
        <time>2024-10-06T08:43:03Z</time>
      </trkpt>
      <trkpt lat="42.944" lon="1.12028">
        <ele>881</ele>
        <time>2024-10-06T08:43:04Z</time>
      </trkpt>
      <trkpt lat="42.94398" lon="1.12028">
        <ele>881.4</ele>
        <time>2024-10-06T08:43:05Z</time>
      </trkpt>
      <trkpt lat="42.94393" lon="1.12027">
        <ele>881.4</ele>
        <time>2024-10-06T08:43:07Z</time>
      </trkpt>
      <trkpt lat="42.94391" lon="1.12026">
        <ele>882</ele>
        <time>2024-10-06T08:43:08Z</time>
      </trkpt>
      <trkpt lat="42.94388" lon="1.12026">
        <ele>882.4</ele>
        <time>2024-10-06T08:43:09Z</time>
      </trkpt>
      <trkpt lat="42.94386" lon="1.12026">
        <ele>882.8</ele>
        <time>2024-10-06T08:43:10Z</time>
      </trkpt>
      <trkpt lat="42.94383" lon="1.12026">
        <ele>883.2</ele>
        <time>2024-10-06T08:43:11Z</time>
      </trkpt>
      <trkpt lat="42.94381" lon="1.12025">
        <ele>883.6</ele>
        <time>2024-10-06T08:43:12Z</time>
      </trkpt>
      <trkpt lat="42.94373" lon="1.12023">
        <ele>884.4</ele>
        <time>2024-10-06T08:43:16Z</time>
      </trkpt>
      <trkpt lat="42.94371" lon="1.12022">
        <ele>884.8</ele>
        <time>2024-10-06T08:43:17Z</time>
      </trkpt>
      <trkpt lat="42.94368" lon="1.12021">
        <ele>885.2</ele>
        <time>2024-10-06T08:43:18Z</time>
      </trkpt>
      <trkpt lat="42.94366" lon="1.12021">
        <ele>885.6</ele>
        <time>2024-10-06T08:43:19Z</time>
      </trkpt>
      <trkpt lat="42.94356" lon="1.12017">
        <ele>885.6</ele>
        <time>2024-10-06T08:43:23Z</time>
      </trkpt>
      <trkpt lat="42.94345" lon="1.1201">
        <ele>886</ele>
        <time>2024-10-06T08:43:28Z</time>
      </trkpt>
      <trkpt lat="42.94342" lon="1.12008">
        <ele>886.4</ele>
        <time>2024-10-06T08:43:29Z</time>
      </trkpt>
      <trkpt lat="42.94339" lon="1.12006">
        <ele>886.8</ele>
        <time>2024-10-06T08:43:30Z</time>
      </trkpt>
      <trkpt lat="42.94337" lon="1.12005">
        <ele>887.4</ele>
        <time>2024-10-06T08:43:31Z</time>
      </trkpt>
      <trkpt lat="42.94334" lon="1.12005">
        <ele>887.8</ele>
        <time>2024-10-06T08:43:32Z</time>
      </trkpt>
      <trkpt lat="42.94332" lon="1.12008">
        <ele>887.8</ele>
        <time>2024-10-06T08:43:33Z</time>
      </trkpt>
      <trkpt lat="42.94334" lon="1.12015">
        <ele>887.8</ele>
        <time>2024-10-06T08:43:36Z</time>
      </trkpt>
      <trkpt lat="42.94339" lon="1.12018">
        <ele>887.8</ele>
        <time>2024-10-06T08:43:38Z</time>
      </trkpt>
      <trkpt lat="42.94343" lon="1.1202">
        <ele>888.2</ele>
        <time>2024-10-06T08:43:40Z</time>
      </trkpt>
      <trkpt lat="42.94345" lon="1.12022">
        <ele>888.6</ele>
        <time>2024-10-06T08:43:41Z</time>
      </trkpt>
      <trkpt lat="42.94346" lon="1.12024">
        <ele>889</ele>
        <time>2024-10-06T08:43:42Z</time>
      </trkpt>
      <trkpt lat="42.94348" lon="1.12027">
        <ele>889.4</ele>
        <time>2024-10-06T08:43:43Z</time>
      </trkpt>
      <trkpt lat="42.94349" lon="1.1203">
        <ele>889.8</ele>
        <time>2024-10-06T08:43:44Z</time>
      </trkpt>
      <trkpt lat="42.94353" lon="1.12044">
        <ele>889.8</ele>
        <time>2024-10-06T08:43:48Z</time>
      </trkpt>
      <trkpt lat="42.94355" lon="1.12057">
        <ele>890.2</ele>
        <time>2024-10-06T08:43:52Z</time>
      </trkpt>
      <trkpt lat="42.94355" lon="1.12061">
        <ele>890.6</ele>
        <time>2024-10-06T08:43:53Z</time>
      </trkpt>
      <trkpt lat="42.94356" lon="1.12064">
        <ele>891</ele>
        <time>2024-10-06T08:43:54Z</time>
      </trkpt>
      <trkpt lat="42.94357" lon="1.12067">
        <ele>891.6</ele>
        <time>2024-10-06T08:43:55Z</time>
      </trkpt>
      <trkpt lat="42.94357" lon="1.1207">
        <ele>892</ele>
        <time>2024-10-06T08:43:56Z</time>
      </trkpt>
      <trkpt lat="42.94359" lon="1.12081">
        <ele>892</ele>
        <time>2024-10-06T08:44:00Z</time>
      </trkpt>
      <trkpt lat="42.94362" lon="1.12085">
        <ele>892.4</ele>
        <time>2024-10-06T08:44:02Z</time>
      </trkpt>
      <trkpt lat="42.94363" lon="1.12087">
        <ele>892.8</ele>
        <time>2024-10-06T08:44:03Z</time>
      </trkpt>
      <trkpt lat="42.94364" lon="1.12089">
        <ele>893.2</ele>
        <time>2024-10-06T08:44:04Z</time>
      </trkpt>
      <trkpt lat="42.94366" lon="1.12091">
        <ele>894</ele>
        <time>2024-10-06T08:44:05Z</time>
      </trkpt>
      <trkpt lat="42.94369" lon="1.12095">
        <ele>894</ele>
        <time>2024-10-06T08:44:07Z</time>
      </trkpt>
      <trkpt lat="42.94374" lon="1.12102">
        <ele>894.4</ele>
        <time>2024-10-06T08:44:10Z</time>
      </trkpt>
      <trkpt lat="42.94376" lon="1.12105">
        <ele>895</ele>
        <time>2024-10-06T08:44:11Z</time>
      </trkpt>
      <trkpt lat="42.94377" lon="1.12108">
        <ele>895.4</ele>
        <time>2024-10-06T08:44:12Z</time>
      </trkpt>
      <trkpt lat="42.94379" lon="1.12111">
        <ele>895.8</ele>
        <time>2024-10-06T08:44:13Z</time>
      </trkpt>
      <trkpt lat="42.9438" lon="1.12114">
        <ele>896.2</ele>
        <time>2024-10-06T08:44:14Z</time>
      </trkpt>
      <trkpt lat="42.94385" lon="1.12126">
        <ele>896.2</ele>
        <time>2024-10-06T08:44:18Z</time>
      </trkpt>
      <trkpt lat="42.94389" lon="1.12146">
        <ele>896.8</ele>
        <time>2024-10-06T08:44:24Z</time>
      </trkpt>
      <trkpt lat="42.94389" lon="1.12149">
        <ele>897.2</ele>
        <time>2024-10-06T08:44:25Z</time>
      </trkpt>
      <trkpt lat="42.9439" lon="1.12153">
        <ele>897.6</ele>
        <time>2024-10-06T08:44:26Z</time>
      </trkpt>
      <trkpt lat="42.9439" lon="1.12157">
        <ele>898</ele>
        <time>2024-10-06T08:44:27Z</time>
      </trkpt>
      <trkpt lat="42.94391" lon="1.1216">
        <ele>898.4</ele>
        <time>2024-10-06T08:44:28Z</time>
      </trkpt>
      <trkpt lat="42.94393" lon="1.1217">
        <ele>898.4</ele>
        <time>2024-10-06T08:44:31Z</time>
      </trkpt>
      <trkpt lat="42.94397" lon="1.12182">
        <ele>898.8</ele>
        <time>2024-10-06T08:44:35Z</time>
      </trkpt>
      <trkpt lat="42.94398" lon="1.12185">
        <ele>899.2</ele>
        <time>2024-10-06T08:44:36Z</time>
      </trkpt>
      <trkpt lat="42.94398" lon="1.12187">
        <ele>899.6</ele>
        <time>2024-10-06T08:44:37Z</time>
      </trkpt>
      <trkpt lat="42.94399" lon="1.1219">
        <ele>900</ele>
        <time>2024-10-06T08:44:38Z</time>
      </trkpt>
      <trkpt lat="42.944" lon="1.12192">
        <ele>900.4</ele>
        <time>2024-10-06T08:44:39Z</time>
      </trkpt>
      <trkpt lat="42.94399" lon="1.12195">
        <ele>900.4</ele>
        <time>2024-10-06T08:44:40Z</time>
      </trkpt>
      <trkpt lat="42.94399" lon="1.12198">
        <ele>900.4</ele>
        <time>2024-10-06T08:44:41Z</time>
      </trkpt>
      <trkpt lat="42.94394" lon="1.12213">
        <ele>901</ele>
        <time>2024-10-06T08:44:46Z</time>
      </trkpt>
      <trkpt lat="42.94394" lon="1.12216">
        <ele>901.4</ele>
        <time>2024-10-06T08:44:47Z</time>
      </trkpt>
      <trkpt lat="42.94392" lon="1.12219">
        <ele>901.8</ele>
        <time>2024-10-06T08:44:48Z</time>
      </trkpt>
      <trkpt lat="42.94391" lon="1.12222">
        <ele>902.2</ele>
        <time>2024-10-06T08:44:49Z</time>
      </trkpt>
      <trkpt lat="42.9439" lon="1.12225">
        <ele>902.8</ele>
        <time>2024-10-06T08:44:50Z</time>
      </trkpt>
      <trkpt lat="42.94383" lon="1.12237">
        <ele>902.8</ele>
        <time>2024-10-06T08:44:55Z</time>
      </trkpt>
      <trkpt lat="42.94382" lon="1.12239">
        <ele>903.2</ele>
        <time>2024-10-06T08:44:56Z</time>
      </trkpt>
      <trkpt lat="42.9438" lon="1.12241">
        <ele>903.6</ele>
        <time>2024-10-06T08:44:57Z</time>
      </trkpt>
      <trkpt lat="42.94378" lon="1.12243">
        <ele>904</ele>
        <time>2024-10-06T08:44:58Z</time>
      </trkpt>
      <trkpt lat="42.94376" lon="1.12245">
        <ele>904.4</ele>
        <time>2024-10-06T08:44:59Z</time>
      </trkpt>
      <trkpt lat="42.94375" lon="1.12247">
        <ele>905</ele>
        <time>2024-10-06T08:45:00Z</time>
      </trkpt>
      <trkpt lat="42.94373" lon="1.12249">
        <ele>905</ele>
        <time>2024-10-06T08:45:01Z</time>
      </trkpt>
      <trkpt lat="42.94367" lon="1.12257">
        <ele>905.4</ele>
        <time>2024-10-06T08:45:05Z</time>
      </trkpt>
      <trkpt lat="42.94365" lon="1.1226">
        <ele>905.8</ele>
        <time>2024-10-06T08:45:06Z</time>
      </trkpt>
      <trkpt lat="42.94363" lon="1.12262">
        <ele>906.2</ele>
        <time>2024-10-06T08:45:07Z</time>
      </trkpt>
      <trkpt lat="42.94361" lon="1.12265">
        <ele>906.6</ele>
        <time>2024-10-06T08:45:08Z</time>
      </trkpt>
      <trkpt lat="42.94359" lon="1.12267">
        <ele>907</ele>
        <time>2024-10-06T08:45:09Z</time>
      </trkpt>
      <trkpt lat="42.94354" lon="1.12279">
        <ele>907.4</ele>
        <time>2024-10-06T08:45:13Z</time>
      </trkpt>
      <trkpt lat="42.94353" lon="1.12281">
        <ele>908</ele>
        <time>2024-10-06T08:45:14Z</time>
      </trkpt>
      <trkpt lat="42.94353" lon="1.12285">
        <ele>908.4</ele>
        <time>2024-10-06T08:45:15Z</time>
      </trkpt>
      <trkpt lat="42.94352" lon="1.12288">
        <ele>908.8</ele>
        <time>2024-10-06T08:45:16Z</time>
      </trkpt>
      <trkpt lat="42.94352" lon="1.12291">
        <ele>909.2</ele>
        <time>2024-10-06T08:45:17Z</time>
      </trkpt>
      <trkpt lat="42.94351" lon="1.12295">
        <ele>909.2</ele>
        <time>2024-10-06T08:45:18Z</time>
      </trkpt>
      <trkpt lat="42.94351" lon="1.12302">
        <ele>909.6</ele>
        <time>2024-10-06T08:45:20Z</time>
      </trkpt>
      <trkpt lat="42.9435" lon="1.12305">
        <ele>910</ele>
        <time>2024-10-06T08:45:21Z</time>
      </trkpt>
      <trkpt lat="42.94349" lon="1.12309">
        <ele>910.4</ele>
        <time>2024-10-06T08:45:22Z</time>
      </trkpt>
      <trkpt lat="42.94349" lon="1.12312">
        <ele>910.8</ele>
        <time>2024-10-06T08:45:23Z</time>
      </trkpt>
      <trkpt lat="42.94349" lon="1.12315">
        <ele>911.2</ele>
        <time>2024-10-06T08:45:24Z</time>
      </trkpt>
      <trkpt lat="42.9435" lon="1.12319">
        <ele>911.2</ele>
        <time>2024-10-06T08:45:25Z</time>
      </trkpt>
      <trkpt lat="42.9435" lon="1.12328">
        <ele>911.8</ele>
        <time>2024-10-06T08:45:28Z</time>
      </trkpt>
      <trkpt lat="42.9435" lon="1.12331">
        <ele>912.2</ele>
        <time>2024-10-06T08:45:29Z</time>
      </trkpt>
      <trkpt lat="42.94349" lon="1.12335">
        <ele>912.6</ele>
        <time>2024-10-06T08:45:30Z</time>
      </trkpt>
      <trkpt lat="42.94349" lon="1.12338">
        <ele>913</ele>
        <time>2024-10-06T08:45:31Z</time>
      </trkpt>
      <trkpt lat="42.94349" lon="1.12341">
        <ele>913.6</ele>
        <time>2024-10-06T08:45:32Z</time>
      </trkpt>
      <trkpt lat="42.94347" lon="1.12349">
        <ele>914</ele>
        <time>2024-10-06T08:45:35Z</time>
      </trkpt>
      <trkpt lat="42.94346" lon="1.12352">
        <ele>914.4</ele>
        <time>2024-10-06T08:45:36Z</time>
      </trkpt>
      <trkpt lat="42.94346" lon="1.12354">
        <ele>914.8</ele>
        <time>2024-10-06T08:45:37Z</time>
      </trkpt>
      <trkpt lat="42.94344" lon="1.12357">
        <ele>915.2</ele>
        <time>2024-10-06T08:45:38Z</time>
      </trkpt>
      <trkpt lat="42.94343" lon="1.12361">
        <ele>915.6</ele>
        <time>2024-10-06T08:45:39Z</time>
      </trkpt>
      <trkpt lat="42.9434" lon="1.12373">
        <ele>916</ele>
        <time>2024-10-06T08:45:43Z</time>
      </trkpt>
      <trkpt lat="42.9434" lon="1.12376">
        <ele>917</ele>
        <time>2024-10-06T08:45:44Z</time>
      </trkpt>
      <trkpt lat="42.94339" lon="1.12379">
        <ele>917.4</ele>
        <time>2024-10-06T08:45:45Z</time>
      </trkpt>
      <trkpt lat="42.94339" lon="1.12382">
        <ele>917.8</ele>
        <time>2024-10-06T08:45:46Z</time>
      </trkpt>
      <trkpt lat="42.94339" lon="1.12393">
        <ele>917.8</ele>
        <time>2024-10-06T08:45:49Z</time>
      </trkpt>
      <trkpt lat="42.94339" lon="1.12397">
        <ele>918.2</ele>
        <time>2024-10-06T08:45:50Z</time>
      </trkpt>
      <trkpt lat="42.94339" lon="1.124">
        <ele>918.6</ele>
        <time>2024-10-06T08:45:51Z</time>
      </trkpt>
      <trkpt lat="42.9434" lon="1.12404">
        <ele>919.2</ele>
        <time>2024-10-06T08:45:52Z</time>
      </trkpt>
      <trkpt lat="42.9434" lon="1.12408">
        <ele>919.6</ele>
        <time>2024-10-06T08:45:53Z</time>
      </trkpt>
      <trkpt lat="42.9434" lon="1.12411">
        <ele>920</ele>
        <time>2024-10-06T08:45:54Z</time>
      </trkpt>
      <trkpt lat="42.94341" lon="1.12425">
        <ele>920.4</ele>
        <time>2024-10-06T08:45:58Z</time>
      </trkpt>
      <trkpt lat="42.9434" lon="1.12427">
        <ele>920.8</ele>
        <time>2024-10-06T08:45:59Z</time>
      </trkpt>
      <trkpt lat="42.94339" lon="1.12429">
        <ele>921.2</ele>
        <time>2024-10-06T08:46:00Z</time>
      </trkpt>
      <trkpt lat="42.94337" lon="1.1243">
        <ele>921.6</ele>
        <time>2024-10-06T08:46:01Z</time>
      </trkpt>
      <trkpt lat="42.94335" lon="1.12429">
        <ele>922</ele>
        <time>2024-10-06T08:46:02Z</time>
      </trkpt>
      <trkpt lat="42.94332" lon="1.12425">
        <ele>922</ele>
        <time>2024-10-06T08:46:04Z</time>
      </trkpt>
      <trkpt lat="42.94333" lon="1.12414">
        <ele>922</ele>
        <time>2024-10-06T08:46:08Z</time>
      </trkpt>
      <trkpt lat="42.94332" lon="1.1241">
        <ele>922.4</ele>
        <time>2024-10-06T08:46:09Z</time>
      </trkpt>
      <trkpt lat="42.94333" lon="1.12407">
        <ele>922.8</ele>
        <time>2024-10-06T08:46:10Z</time>
      </trkpt>
      <trkpt lat="42.94333" lon="1.12403">
        <ele>923.2</ele>
        <time>2024-10-06T08:46:11Z</time>
      </trkpt>
      <trkpt lat="42.94333" lon="1.124">
        <ele>923.6</ele>
        <time>2024-10-06T08:46:12Z</time>
      </trkpt>
      <trkpt lat="42.94333" lon="1.12397">
        <ele>924</ele>
        <time>2024-10-06T08:46:13Z</time>
      </trkpt>
      <trkpt lat="42.94333" lon="1.12393">
        <ele>924</ele>
        <time>2024-10-06T08:46:14Z</time>
      </trkpt>
      <trkpt lat="42.94332" lon="1.12375">
        <ele>924.4</ele>
        <time>2024-10-06T08:46:20Z</time>
      </trkpt>
      <trkpt lat="42.94332" lon="1.12372">
        <ele>924.8</ele>
        <time>2024-10-06T08:46:21Z</time>
      </trkpt>
      <trkpt lat="42.94332" lon="1.12368">
        <ele>925.4</ele>
        <time>2024-10-06T08:46:22Z</time>
      </trkpt>
      <trkpt lat="42.94332" lon="1.12365">
        <ele>925.8</ele>
        <time>2024-10-06T08:46:23Z</time>
      </trkpt>
      <trkpt lat="42.94332" lon="1.12362">
        <ele>926.2</ele>
        <time>2024-10-06T08:46:24Z</time>
      </trkpt>
      <trkpt lat="42.94331" lon="1.12351">
        <ele>926.2</ele>
        <time>2024-10-06T08:46:27Z</time>
      </trkpt>
      <trkpt lat="42.94331" lon="1.12341">
        <ele>926.6</ele>
        <time>2024-10-06T08:46:30Z</time>
      </trkpt>
      <trkpt lat="42.9433" lon="1.12338">
        <ele>927</ele>
        <time>2024-10-06T08:46:31Z</time>
      </trkpt>
      <trkpt lat="42.94329" lon="1.12334">
        <ele>927.6</ele>
        <time>2024-10-06T08:46:32Z</time>
      </trkpt>
      <trkpt lat="42.94329" lon="1.12331">
        <ele>928.4</ele>
        <time>2024-10-06T08:46:33Z</time>
      </trkpt>
      <trkpt lat="42.94328" lon="1.1232">
        <ele>928.8</ele>
        <time>2024-10-06T08:46:36Z</time>
      </trkpt>
      <trkpt lat="42.94326" lon="1.12317">
        <ele>929.4</ele>
        <time>2024-10-06T08:46:37Z</time>
      </trkpt>
      <trkpt lat="42.94325" lon="1.12314">
        <ele>929.8</ele>
        <time>2024-10-06T08:46:38Z</time>
      </trkpt>
      <trkpt lat="42.94324" lon="1.1231">
        <ele>930.2</ele>
        <time>2024-10-06T08:46:39Z</time>
      </trkpt>
      <trkpt lat="42.94323" lon="1.12308">
        <ele>930.8</ele>
        <time>2024-10-06T08:46:40Z</time>
      </trkpt>
      <trkpt lat="42.9432" lon="1.123">
        <ele>931.2</ele>
        <time>2024-10-06T08:46:43Z</time>
      </trkpt>
      <trkpt lat="42.94319" lon="1.12297">
        <ele>931.6</ele>
        <time>2024-10-06T08:46:44Z</time>
      </trkpt>
      <trkpt lat="42.94318" lon="1.12294">
        <ele>932.2</ele>
        <time>2024-10-06T08:46:45Z</time>
      </trkpt>
      <trkpt lat="42.94318" lon="1.1229">
        <ele>932.6</ele>
        <time>2024-10-06T08:46:46Z</time>
      </trkpt>
      <trkpt lat="42.94318" lon="1.12288">
        <ele>933</ele>
        <time>2024-10-06T08:46:47Z</time>
      </trkpt>
      <trkpt lat="42.9432" lon="1.12282">
        <ele>933</ele>
        <time>2024-10-06T08:46:49Z</time>
      </trkpt>
      <trkpt lat="42.94321" lon="1.12279">
        <ele>933.4</ele>
        <time>2024-10-06T08:46:50Z</time>
      </trkpt>
      <trkpt lat="42.94321" lon="1.12276">
        <ele>934</ele>
        <time>2024-10-06T08:46:51Z</time>
      </trkpt>
      <trkpt lat="42.94321" lon="1.12273">
        <ele>934.4</ele>
        <time>2024-10-06T08:46:52Z</time>
      </trkpt>
      <trkpt lat="42.94322" lon="1.1227">
        <ele>934.8</ele>
        <time>2024-10-06T08:46:53Z</time>
      </trkpt>
      <trkpt lat="42.94323" lon="1.12267">
        <ele>935.4</ele>
        <time>2024-10-06T08:46:54Z</time>
      </trkpt>
      <trkpt lat="42.94324" lon="1.12264">
        <ele>935.4</ele>
        <time>2024-10-06T08:46:55Z</time>
      </trkpt>
      <trkpt lat="42.94324" lon="1.12258">
        <ele>935.8</ele>
        <time>2024-10-06T08:46:57Z</time>
      </trkpt>
      <trkpt lat="42.94323" lon="1.12254">
        <ele>936.6</ele>
        <time>2024-10-06T08:46:58Z</time>
      </trkpt>
      <trkpt lat="42.94323" lon="1.12251">
        <ele>937</ele>
        <time>2024-10-06T08:46:59Z</time>
      </trkpt>
      <trkpt lat="42.94321" lon="1.12248">
        <ele>937.4</ele>
        <time>2024-10-06T08:47:00Z</time>
      </trkpt>
      <trkpt lat="42.94319" lon="1.12238">
        <ele>937.8</ele>
        <time>2024-10-06T08:47:03Z</time>
      </trkpt>
      <trkpt lat="42.94318" lon="1.12235">
        <ele>938.2</ele>
        <time>2024-10-06T08:47:04Z</time>
      </trkpt>
      <trkpt lat="42.94317" lon="1.12232">
        <ele>938.6</ele>
        <time>2024-10-06T08:47:05Z</time>
      </trkpt>
      <trkpt lat="42.94316" lon="1.12229">
        <ele>939.2</ele>
        <time>2024-10-06T08:47:06Z</time>
      </trkpt>
      <trkpt lat="42.94315" lon="1.12227">
        <ele>939.6</ele>
        <time>2024-10-06T08:47:07Z</time>
      </trkpt>
      <trkpt lat="42.94311" lon="1.12218">
        <ele>940</ele>
        <time>2024-10-06T08:47:10Z</time>
      </trkpt>
      <trkpt lat="42.9431" lon="1.12216">
        <ele>940.4</ele>
        <time>2024-10-06T08:47:11Z</time>
      </trkpt>
      <trkpt lat="42.94308" lon="1.12213">
        <ele>940.8</ele>
        <time>2024-10-06T08:47:12Z</time>
      </trkpt>
      <trkpt lat="42.94307" lon="1.1221">
        <ele>941.4</ele>
        <time>2024-10-06T08:47:13Z</time>
      </trkpt>
      <trkpt lat="42.94307" lon="1.12207">
        <ele>941.8</ele>
        <time>2024-10-06T08:47:14Z</time>
      </trkpt>
      <trkpt lat="42.94303" lon="1.12197">
        <ele>942.2</ele>
        <time>2024-10-06T08:47:17Z</time>
      </trkpt>
      <trkpt lat="42.94302" lon="1.12194">
        <ele>942.6</ele>
        <time>2024-10-06T08:47:18Z</time>
      </trkpt>
      <trkpt lat="42.943" lon="1.12192">
        <ele>943</ele>
        <time>2024-10-06T08:47:19Z</time>
      </trkpt>
      <trkpt lat="42.94299" lon="1.12189">
        <ele>943.4</ele>
        <time>2024-10-06T08:47:20Z</time>
      </trkpt>
      <trkpt lat="42.94298" lon="1.12186">
        <ele>944</ele>
        <time>2024-10-06T08:47:21Z</time>
      </trkpt>
      <trkpt lat="42.94295" lon="1.12181">
        <ele>944.4</ele>
        <time>2024-10-06T08:47:23Z</time>
      </trkpt>
      <trkpt lat="42.94294" lon="1.12179">
        <ele>944.8</ele>
        <time>2024-10-06T08:47:24Z</time>
      </trkpt>
      <trkpt lat="42.94291" lon="1.12177">
        <ele>945.2</ele>
        <time>2024-10-06T08:47:25Z</time>
      </trkpt>
      <trkpt lat="42.94289" lon="1.12175">
        <ele>945.6</ele>
        <time>2024-10-06T08:47:26Z</time>
      </trkpt>
      <trkpt lat="42.94287" lon="1.12173">
        <ele>946</ele>
        <time>2024-10-06T08:47:27Z</time>
      </trkpt>
      <trkpt lat="42.94281" lon="1.12168">
        <ele>946.4</ele>
        <time>2024-10-06T08:47:30Z</time>
      </trkpt>
      <trkpt lat="42.94279" lon="1.12167">
        <ele>946.8</ele>
        <time>2024-10-06T08:47:31Z</time>
      </trkpt>
      <trkpt lat="42.94277" lon="1.12166">
        <ele>947.2</ele>
        <time>2024-10-06T08:47:32Z</time>
      </trkpt>
      <trkpt lat="42.94275" lon="1.12165">
        <ele>947.6</ele>
        <time>2024-10-06T08:47:33Z</time>
      </trkpt>
      <trkpt lat="42.94273" lon="1.12164">
        <ele>948</ele>
        <time>2024-10-06T08:47:34Z</time>
      </trkpt>
      <trkpt lat="42.94269" lon="1.12164">
        <ele>948.4</ele>
        <time>2024-10-06T08:47:36Z</time>
      </trkpt>
      <trkpt lat="42.94267" lon="1.12164">
        <ele>948.8</ele>
        <time>2024-10-06T08:47:37Z</time>
      </trkpt>
      <trkpt lat="42.94265" lon="1.12163">
        <ele>949.2</ele>
        <time>2024-10-06T08:47:38Z</time>
      </trkpt>
      <trkpt lat="42.94263" lon="1.12162">
        <ele>949.6</ele>
        <time>2024-10-06T08:47:39Z</time>
      </trkpt>
      <trkpt lat="42.94261" lon="1.12161">
        <ele>950</ele>
        <time>2024-10-06T08:47:40Z</time>
      </trkpt>
      <trkpt lat="42.94257" lon="1.12159">
        <ele>950.4</ele>
        <time>2024-10-06T08:47:42Z</time>
      </trkpt>
      <trkpt lat="42.94254" lon="1.12158">
        <ele>950.8</ele>
        <time>2024-10-06T08:47:43Z</time>
      </trkpt>
      <trkpt lat="42.94252" lon="1.12157">
        <ele>951.2</ele>
        <time>2024-10-06T08:47:44Z</time>
      </trkpt>
      <trkpt lat="42.9425" lon="1.12155">
        <ele>951.8</ele>
        <time>2024-10-06T08:47:45Z</time>
      </trkpt>
      <trkpt lat="42.94248" lon="1.12154">
        <ele>952.2</ele>
        <time>2024-10-06T08:47:46Z</time>
      </trkpt>
      <trkpt lat="42.94246" lon="1.12152">
        <ele>952.2</ele>
        <time>2024-10-06T08:47:47Z</time>
      </trkpt>
      <trkpt lat="42.94242" lon="1.12148">
        <ele>952.2</ele>
        <time>2024-10-06T08:47:49Z</time>
      </trkpt>
      <trkpt lat="42.94239" lon="1.12143">
        <ele>952.6</ele>
        <time>2024-10-06T08:47:51Z</time>
      </trkpt>
      <trkpt lat="42.94238" lon="1.1214">
        <ele>953</ele>
        <time>2024-10-06T08:47:52Z</time>
      </trkpt>
      <trkpt lat="42.94238" lon="1.12137">
        <ele>953.4</ele>
        <time>2024-10-06T08:47:53Z</time>
      </trkpt>
      <trkpt lat="42.94237" lon="1.12133">
        <ele>953.8</ele>
        <time>2024-10-06T08:47:54Z</time>
      </trkpt>
      <trkpt lat="42.94236" lon="1.1213">
        <ele>954.2</ele>
        <time>2024-10-06T08:47:55Z</time>
      </trkpt>
      <trkpt lat="42.94233" lon="1.1212">
        <ele>954.6</ele>
        <time>2024-10-06T08:47:58Z</time>
      </trkpt>
      <trkpt lat="42.94231" lon="1.12118">
        <ele>955</ele>
        <time>2024-10-06T08:47:59Z</time>
      </trkpt>
      <trkpt lat="42.94229" lon="1.12115">
        <ele>955.4</ele>
        <time>2024-10-06T08:48:00Z</time>
      </trkpt>
      <trkpt lat="42.94227" lon="1.12112">
        <ele>955.8</ele>
        <time>2024-10-06T08:48:01Z</time>
      </trkpt>
      <trkpt lat="42.94225" lon="1.12108">
        <ele>956.4</ele>
        <time>2024-10-06T08:48:02Z</time>
      </trkpt>
      <trkpt lat="42.9422" lon="1.12101">
        <ele>956.8</ele>
        <time>2024-10-06T08:48:05Z</time>
      </trkpt>
      <trkpt lat="42.94219" lon="1.12099">
        <ele>957.2</ele>
        <time>2024-10-06T08:48:06Z</time>
      </trkpt>
      <trkpt lat="42.94218" lon="1.12096">
        <ele>957.6</ele>
        <time>2024-10-06T08:48:07Z</time>
      </trkpt>
      <trkpt lat="42.94217" lon="1.12093">
        <ele>958</ele>
        <time>2024-10-06T08:48:08Z</time>
      </trkpt>
      <trkpt lat="42.94216" lon="1.12089">
        <ele>958.4</ele>
        <time>2024-10-06T08:48:09Z</time>
      </trkpt>
      <trkpt lat="42.94212" lon="1.12081">
        <ele>959.2</ele>
        <time>2024-10-06T08:48:12Z</time>
      </trkpt>
      <trkpt lat="42.9421" lon="1.12079">
        <ele>959.8</ele>
        <time>2024-10-06T08:48:13Z</time>
      </trkpt>
      <trkpt lat="42.94209" lon="1.12076">
        <ele>960.2</ele>
        <time>2024-10-06T08:48:14Z</time>
      </trkpt>
      <trkpt lat="42.94207" lon="1.12074">
        <ele>960.6</ele>
        <time>2024-10-06T08:48:15Z</time>
      </trkpt>
      <trkpt lat="42.94203" lon="1.12068">
        <ele>960.6</ele>
        <time>2024-10-06T08:48:17Z</time>
      </trkpt>
      <trkpt lat="42.94201" lon="1.12062">
        <ele>961</ele>
        <time>2024-10-06T08:48:19Z</time>
      </trkpt>
      <trkpt lat="42.94199" lon="1.1206">
        <ele>961.4</ele>
        <time>2024-10-06T08:48:20Z</time>
      </trkpt>
      <trkpt lat="42.94198" lon="1.12056">
        <ele>961.8</ele>
        <time>2024-10-06T08:48:21Z</time>
      </trkpt>
      <trkpt lat="42.94198" lon="1.12054">
        <ele>962.4</ele>
        <time>2024-10-06T08:48:22Z</time>
      </trkpt>
      <trkpt lat="42.94197" lon="1.1205">
        <ele>962.8</ele>
        <time>2024-10-06T08:48:23Z</time>
      </trkpt>
      <trkpt lat="42.94194" lon="1.12037">
        <ele>963.2</ele>
        <time>2024-10-06T08:48:27Z</time>
      </trkpt>
      <trkpt lat="42.94193" lon="1.12034">
        <ele>963.6</ele>
        <time>2024-10-06T08:48:28Z</time>
      </trkpt>
      <trkpt lat="42.94192" lon="1.12031">
        <ele>964</ele>
        <time>2024-10-06T08:48:29Z</time>
      </trkpt>
      <trkpt lat="42.94191" lon="1.12027">
        <ele>964.4</ele>
        <time>2024-10-06T08:48:30Z</time>
      </trkpt>
      <trkpt lat="42.9419" lon="1.12024">
        <ele>964.8</ele>
        <time>2024-10-06T08:48:31Z</time>
      </trkpt>
      <trkpt lat="42.94184" lon="1.1201">
        <ele>964.8</ele>
        <time>2024-10-06T08:48:35Z</time>
      </trkpt>
      <trkpt lat="42.94181" lon="1.12004">
        <ele>965.6</ele>
        <time>2024-10-06T08:48:37Z</time>
      </trkpt>
      <trkpt lat="42.94179" lon="1.12001">
        <ele>966</ele>
        <time>2024-10-06T08:48:38Z</time>
      </trkpt>
      <trkpt lat="42.94178" lon="1.11998">
        <ele>966.4</ele>
        <time>2024-10-06T08:48:39Z</time>
      </trkpt>
      <trkpt lat="42.94176" lon="1.11994">
        <ele>966.8</ele>
        <time>2024-10-06T08:48:40Z</time>
      </trkpt>
      <trkpt lat="42.94175" lon="1.1199">
        <ele>966.8</ele>
        <time>2024-10-06T08:48:41Z</time>
      </trkpt>
      <trkpt lat="42.94167" lon="1.11969">
        <ele>966.8</ele>
        <time>2024-10-06T08:48:46Z</time>
      </trkpt>
      <trkpt lat="42.94161" lon="1.11944">
        <ele>966.8</ele>
        <time>2024-10-06T08:48:52Z</time>
      </trkpt>
      <trkpt lat="42.94157" lon="1.1192">
        <ele>966.8</ele>
        <time>2024-10-06T08:48:58Z</time>
      </trkpt>
      <trkpt lat="42.94156" lon="1.11917">
        <ele>967.2</ele>
        <time>2024-10-06T08:48:59Z</time>
      </trkpt>
      <trkpt lat="42.94155" lon="1.11913">
        <ele>967.6</ele>
        <time>2024-10-06T08:49:00Z</time>
      </trkpt>
      <trkpt lat="42.94154" lon="1.11909">
        <ele>968.6</ele>
        <time>2024-10-06T08:49:01Z</time>
      </trkpt>
      <trkpt lat="42.94154" lon="1.11905">
        <ele>969</ele>
        <time>2024-10-06T08:49:02Z</time>
      </trkpt>
      <trkpt lat="42.94155" lon="1.11898">
        <ele>969</ele>
        <time>2024-10-06T08:49:04Z</time>
      </trkpt>
      <trkpt lat="42.94155" lon="1.11891">
        <ele>969.4</ele>
        <time>2024-10-06T08:49:06Z</time>
      </trkpt>
      <trkpt lat="42.94154" lon="1.11887">
        <ele>969.8</ele>
        <time>2024-10-06T08:49:07Z</time>
      </trkpt>
      <trkpt lat="42.94153" lon="1.11883">
        <ele>970.2</ele>
        <time>2024-10-06T08:49:08Z</time>
      </trkpt>
      <trkpt lat="42.9415" lon="1.11881">
        <ele>970.6</ele>
        <time>2024-10-06T08:49:09Z</time>
      </trkpt>
      <trkpt lat="42.94147" lon="1.1188">
        <ele>971</ele>
        <time>2024-10-06T08:49:10Z</time>
      </trkpt>
      <trkpt lat="42.94143" lon="1.11882">
        <ele>971</ele>
        <time>2024-10-06T08:49:12Z</time>
      </trkpt>
      <trkpt lat="42.94141" lon="1.11886">
        <ele>971</ele>
        <time>2024-10-06T08:49:14Z</time>
      </trkpt>
      <trkpt lat="42.94139" lon="1.11888">
        <ele>971.4</ele>
        <time>2024-10-06T08:49:15Z</time>
      </trkpt>
      <trkpt lat="42.94138" lon="1.11891">
        <ele>971.8</ele>
        <time>2024-10-06T08:49:16Z</time>
      </trkpt>
      <trkpt lat="42.94137" lon="1.11894">
        <ele>972.4</ele>
        <time>2024-10-06T08:49:17Z</time>
      </trkpt>
      <trkpt lat="42.94136" lon="1.11896">
        <ele>972.8</ele>
        <time>2024-10-06T08:49:18Z</time>
      </trkpt>
      <trkpt lat="42.94135" lon="1.11899">
        <ele>973.2</ele>
        <time>2024-10-06T08:49:19Z</time>
      </trkpt>
      <trkpt lat="42.9413" lon="1.11905">
        <ele>973.2</ele>
        <time>2024-10-06T08:49:22Z</time>
      </trkpt>
      <trkpt lat="42.94128" lon="1.11908">
        <ele>973.6</ele>
        <time>2024-10-06T08:49:23Z</time>
      </trkpt>
      <trkpt lat="42.94127" lon="1.1191">
        <ele>974</ele>
        <time>2024-10-06T08:49:24Z</time>
      </trkpt>
      <trkpt lat="42.94125" lon="1.11912">
        <ele>974.4</ele>
        <time>2024-10-06T08:49:25Z</time>
      </trkpt>
      <trkpt lat="42.94123" lon="1.11914">
        <ele>975.2</ele>
        <time>2024-10-06T08:49:26Z</time>
      </trkpt>
      <trkpt lat="42.94121" lon="1.11917">
        <ele>975.2</ele>
        <time>2024-10-06T08:49:28Z</time>
      </trkpt>
      <trkpt lat="42.94118" lon="1.11921">
        <ele>975.6</ele>
        <time>2024-10-06T08:49:30Z</time>
      </trkpt>
      <trkpt lat="42.94117" lon="1.11923">
        <ele>976</ele>
        <time>2024-10-06T08:49:31Z</time>
      </trkpt>
      <trkpt lat="42.94115" lon="1.11924">
        <ele>976.6</ele>
        <time>2024-10-06T08:49:32Z</time>
      </trkpt>
      <trkpt lat="42.94114" lon="1.11927">
        <ele>977</ele>
        <time>2024-10-06T08:49:33Z</time>
      </trkpt>
      <trkpt lat="42.94112" lon="1.11928">
        <ele>977.4</ele>
        <time>2024-10-06T08:49:34Z</time>
      </trkpt>
      <trkpt lat="42.94104" lon="1.11936">
        <ele>977.8</ele>
        <time>2024-10-06T08:49:39Z</time>
      </trkpt>
      <trkpt lat="42.94103" lon="1.11937">
        <ele>978.2</ele>
        <time>2024-10-06T08:49:40Z</time>
      </trkpt>
      <trkpt lat="42.94102" lon="1.11939">
        <ele>978.6</ele>
        <time>2024-10-06T08:49:41Z</time>
      </trkpt>
      <trkpt lat="42.94101" lon="1.11941">
        <ele>979</ele>
        <time>2024-10-06T08:49:42Z</time>
      </trkpt>
      <trkpt lat="42.941" lon="1.11943">
        <ele>979.4</ele>
        <time>2024-10-06T08:49:43Z</time>
      </trkpt>
      <trkpt lat="42.94095" lon="1.11948">
        <ele>979.4</ele>
        <time>2024-10-06T08:49:45Z</time>
      </trkpt>
      <trkpt lat="42.94091" lon="1.11954">
        <ele>979.4</ele>
        <time>2024-10-06T08:49:47Z</time>
      </trkpt>
      <trkpt lat="42.94089" lon="1.11956">
        <ele>979.8</ele>
        <time>2024-10-06T08:49:48Z</time>
      </trkpt>
      <trkpt lat="42.94087" lon="1.11959">
        <ele>980.2</ele>
        <time>2024-10-06T08:49:49Z</time>
      </trkpt>
      <trkpt lat="42.94086" lon="1.11961">
        <ele>980.6</ele>
        <time>2024-10-06T08:49:50Z</time>
      </trkpt>
      <trkpt lat="42.94085" lon="1.11964">
        <ele>981.4</ele>
        <time>2024-10-06T08:49:51Z</time>
      </trkpt>
      <trkpt lat="42.94082" lon="1.1197">
        <ele>981.4</ele>
        <time>2024-10-06T08:49:53Z</time>
      </trkpt>
      <trkpt lat="42.94079" lon="1.11979">
        <ele>981.8</ele>
        <time>2024-10-06T08:49:56Z</time>
      </trkpt>
      <trkpt lat="42.94078" lon="1.11981">
        <ele>982.2</ele>
        <time>2024-10-06T08:49:57Z</time>
      </trkpt>
      <trkpt lat="42.94077" lon="1.11984">
        <ele>982.6</ele>
        <time>2024-10-06T08:49:58Z</time>
      </trkpt>
      <trkpt lat="42.94076" lon="1.11987">
        <ele>983</ele>
        <time>2024-10-06T08:49:59Z</time>
      </trkpt>
      <trkpt lat="42.94075" lon="1.1199">
        <ele>983.4</ele>
        <time>2024-10-06T08:50:00Z</time>
      </trkpt>
      <trkpt lat="42.94073" lon="1.12005">
        <ele>983.4</ele>
        <time>2024-10-06T08:50:05Z</time>
      </trkpt>
      <trkpt lat="42.94072" lon="1.1201">
        <ele>983.8</ele>
        <time>2024-10-06T08:50:07Z</time>
      </trkpt>
      <trkpt lat="42.94071" lon="1.12013">
        <ele>984.4</ele>
        <time>2024-10-06T08:50:08Z</time>
      </trkpt>
      <trkpt lat="42.94071" lon="1.12015">
        <ele>984.8</ele>
        <time>2024-10-06T08:50:09Z</time>
      </trkpt>
      <trkpt lat="42.94071" lon="1.12018">
        <ele>985.2</ele>
        <time>2024-10-06T08:50:10Z</time>
      </trkpt>
      <trkpt lat="42.94071" lon="1.12021">
        <ele>985.6</ele>
        <time>2024-10-06T08:50:11Z</time>
      </trkpt>
      <trkpt lat="42.94068" lon="1.12038">
        <ele>986</ele>
        <time>2024-10-06T08:50:18Z</time>
      </trkpt>
      <trkpt lat="42.94067" lon="1.12041">
        <ele>986.4</ele>
        <time>2024-10-06T08:50:19Z</time>
      </trkpt>
      <trkpt lat="42.94066" lon="1.12043">
        <ele>986.8</ele>
        <time>2024-10-06T08:50:20Z</time>
      </trkpt>
      <trkpt lat="42.94065" lon="1.12045">
        <ele>987.4</ele>
        <time>2024-10-06T08:50:21Z</time>
      </trkpt>
      <trkpt lat="42.94064" lon="1.12048">
        <ele>987.8</ele>
        <time>2024-10-06T08:50:22Z</time>
      </trkpt>
      <trkpt lat="42.94062" lon="1.1205">
        <ele>987.8</ele>
        <time>2024-10-06T08:50:24Z</time>
      </trkpt>
      <trkpt lat="42.94058" lon="1.12059">
        <ele>988.2</ele>
        <time>2024-10-06T08:50:28Z</time>
      </trkpt>
      <trkpt lat="42.94057" lon="1.12062">
        <ele>988.6</ele>
        <time>2024-10-06T08:50:29Z</time>
      </trkpt>
      <trkpt lat="42.94056" lon="1.12065">
        <ele>989</ele>
        <time>2024-10-06T08:50:30Z</time>
      </trkpt>
      <trkpt lat="42.94055" lon="1.12068">
        <ele>989.4</ele>
        <time>2024-10-06T08:50:31Z</time>
      </trkpt>
      <trkpt lat="42.94054" lon="1.1207">
        <ele>989.8</ele>
        <time>2024-10-06T08:50:32Z</time>
      </trkpt>
      <trkpt lat="42.94047" lon="1.12083">
        <ele>990.2</ele>
        <time>2024-10-06T08:50:37Z</time>
      </trkpt>
      <trkpt lat="42.94046" lon="1.12086">
        <ele>990.6</ele>
        <time>2024-10-06T08:50:38Z</time>
      </trkpt>
      <trkpt lat="42.94044" lon="1.12087">
        <ele>991</ele>
        <time>2024-10-06T08:50:39Z</time>
      </trkpt>
      <trkpt lat="42.94042" lon="1.12089">
        <ele>992</ele>
        <time>2024-10-06T08:50:40Z</time>
      </trkpt>
      <trkpt lat="42.94035" lon="1.12095">
        <ele>992</ele>
        <time>2024-10-06T08:50:43Z</time>
      </trkpt>
      <trkpt lat="42.9403" lon="1.12099">
        <ele>992.4</ele>
        <time>2024-10-06T08:50:46Z</time>
      </trkpt>
      <trkpt lat="42.94029" lon="1.12101">
        <ele>992.8</ele>
        <time>2024-10-06T08:50:47Z</time>
      </trkpt>
      <trkpt lat="42.94027" lon="1.12102">
        <ele>993.2</ele>
        <time>2024-10-06T08:50:48Z</time>
      </trkpt>
      <trkpt lat="42.94026" lon="1.12103">
        <ele>993.6</ele>
        <time>2024-10-06T08:50:49Z</time>
      </trkpt>
      <trkpt lat="42.94024" lon="1.12105">
        <ele>994</ele>
        <time>2024-10-06T08:50:50Z</time>
      </trkpt>
      <trkpt lat="42.94014" lon="1.12111">
        <ele>994.4</ele>
        <time>2024-10-06T08:50:55Z</time>
      </trkpt>
      <trkpt lat="42.94012" lon="1.12112">
        <ele>994.8</ele>
        <time>2024-10-06T08:50:56Z</time>
      </trkpt>
      <trkpt lat="42.94011" lon="1.12114">
        <ele>995.2</ele>
        <time>2024-10-06T08:50:57Z</time>
      </trkpt>
      <trkpt lat="42.94009" lon="1.12115">
        <ele>995.6</ele>
        <time>2024-10-06T08:50:58Z</time>
      </trkpt>
      <trkpt lat="42.94007" lon="1.12116">
        <ele>996</ele>
        <time>2024-10-06T08:50:59Z</time>
      </trkpt>
      <trkpt lat="42.93995" lon="1.12126">
        <ele>997</ele>
        <time>2024-10-06T08:51:05Z</time>
      </trkpt>
      <trkpt lat="42.93994" lon="1.12128">
        <ele>997.4</ele>
        <time>2024-10-06T08:51:06Z</time>
      </trkpt>
      <trkpt lat="42.93992" lon="1.12129">
        <ele>997.8</ele>
        <time>2024-10-06T08:51:07Z</time>
      </trkpt>
      <trkpt lat="42.93991" lon="1.12131">
        <ele>998.2</ele>
        <time>2024-10-06T08:51:08Z</time>
      </trkpt>
      <trkpt lat="42.93985" lon="1.12139">
        <ele>998.6</ele>
        <time>2024-10-06T08:51:12Z</time>
      </trkpt>
      <trkpt lat="42.93983" lon="1.12141">
        <ele>999</ele>
        <time>2024-10-06T08:51:13Z</time>
      </trkpt>
      <trkpt lat="42.93981" lon="1.12144">
        <ele>999.4</ele>
        <time>2024-10-06T08:51:14Z</time>
      </trkpt>
      <trkpt lat="42.93979" lon="1.12146">
        <ele>999.8</ele>
        <time>2024-10-06T08:51:15Z</time>
      </trkpt>
      <trkpt lat="42.93977" lon="1.12148">
        <ele>1000.2</ele>
        <time>2024-10-06T08:51:16Z</time>
      </trkpt>
      <trkpt lat="42.9397" lon="1.12158">
        <ele>1000.6</ele>
        <time>2024-10-06T08:51:21Z</time>
      </trkpt>
      <trkpt lat="42.93969" lon="1.1216">
        <ele>1001</ele>
        <time>2024-10-06T08:51:22Z</time>
      </trkpt>
      <trkpt lat="42.93967" lon="1.12162">
        <ele>1001.4</ele>
        <time>2024-10-06T08:51:23Z</time>
      </trkpt>
      <trkpt lat="42.93966" lon="1.12163">
        <ele>1002</ele>
        <time>2024-10-06T08:51:24Z</time>
      </trkpt>
      <trkpt lat="42.93965" lon="1.12165">
        <ele>1002.4</ele>
        <time>2024-10-06T08:51:25Z</time>
      </trkpt>
      <trkpt lat="42.93961" lon="1.1217">
        <ele>1002.4</ele>
        <time>2024-10-06T08:51:28Z</time>
      </trkpt>
      <trkpt lat="42.93956" lon="1.12178">
        <ele>1002.8</ele>
        <time>2024-10-06T08:51:32Z</time>
      </trkpt>
      <trkpt lat="42.93954" lon="1.1218">
        <ele>1003.2</ele>
        <time>2024-10-06T08:51:33Z</time>
      </trkpt>
      <trkpt lat="42.93953" lon="1.12182">
        <ele>1003.6</ele>
        <time>2024-10-06T08:51:34Z</time>
      </trkpt>
      <trkpt lat="42.93952" lon="1.12184">
        <ele>1004</ele>
        <time>2024-10-06T08:51:35Z</time>
      </trkpt>
      <trkpt lat="42.93951" lon="1.12187">
        <ele>1004.6</ele>
        <time>2024-10-06T08:51:36Z</time>
      </trkpt>
      <trkpt lat="42.93944" lon="1.12199">
        <ele>1005</ele>
        <time>2024-10-06T08:51:41Z</time>
      </trkpt>
      <trkpt lat="42.93943" lon="1.12201">
        <ele>1005.4</ele>
        <time>2024-10-06T08:51:42Z</time>
      </trkpt>
      <trkpt lat="42.93943" lon="1.12203">
        <ele>1005.8</ele>
        <time>2024-10-06T08:51:43Z</time>
      </trkpt>
      <trkpt lat="42.93942" lon="1.12206">
        <ele>1006.4</ele>
        <time>2024-10-06T08:51:44Z</time>
      </trkpt>
      <trkpt lat="42.93941" lon="1.12208">
        <ele>1006.8</ele>
        <time>2024-10-06T08:51:45Z</time>
      </trkpt>
      <trkpt lat="42.93934" lon="1.12221">
        <ele>1007.2</ele>
        <time>2024-10-06T08:51:50Z</time>
      </trkpt>
      <trkpt lat="42.93933" lon="1.12224">
        <ele>1007.6</ele>
        <time>2024-10-06T08:51:51Z</time>
      </trkpt>
      <trkpt lat="42.93933" lon="1.12227">
        <ele>1008</ele>
        <time>2024-10-06T08:51:52Z</time>
      </trkpt>
      <trkpt lat="42.93932" lon="1.1223">
        <ele>1008.4</ele>
        <time>2024-10-06T08:51:53Z</time>
      </trkpt>
      <trkpt lat="42.93931" lon="1.12233">
        <ele>1008.8</ele>
        <time>2024-10-06T08:51:54Z</time>
      </trkpt>
      <trkpt lat="42.93929" lon="1.12244">
        <ele>1009.2</ele>
        <time>2024-10-06T08:51:58Z</time>
      </trkpt>
      <trkpt lat="42.93928" lon="1.12246">
        <ele>1009.8</ele>
        <time>2024-10-06T08:51:59Z</time>
      </trkpt>
      <trkpt lat="42.93928" lon="1.12249">
        <ele>1010.2</ele>
        <time>2024-10-06T08:52:00Z</time>
      </trkpt>
      <trkpt lat="42.93927" lon="1.12251">
        <ele>1010.6</ele>
        <time>2024-10-06T08:52:01Z</time>
      </trkpt>
      <trkpt lat="42.93926" lon="1.12254">
        <ele>1011</ele>
        <time>2024-10-06T08:52:02Z</time>
      </trkpt>
      <trkpt lat="42.93924" lon="1.12268">
        <ele>1011.4</ele>
        <time>2024-10-06T08:52:07Z</time>
      </trkpt>
      <trkpt lat="42.93924" lon="1.12272">
        <ele>1011.8</ele>
        <time>2024-10-06T08:52:08Z</time>
      </trkpt>
      <trkpt lat="42.93924" lon="1.12275">
        <ele>1012.2</ele>
        <time>2024-10-06T08:52:09Z</time>
      </trkpt>
      <trkpt lat="42.93925" lon="1.12278">
        <ele>1012.6</ele>
        <time>2024-10-06T08:52:10Z</time>
      </trkpt>
      <trkpt lat="42.93926" lon="1.12281">
        <ele>1013</ele>
        <time>2024-10-06T08:52:11Z</time>
      </trkpt>
      <trkpt lat="42.93927" lon="1.12286">
        <ele>1013</ele>
        <time>2024-10-06T08:52:13Z</time>
      </trkpt>
      <trkpt lat="42.93928" lon="1.12289">
        <ele>1013.4</ele>
        <time>2024-10-06T08:52:14Z</time>
      </trkpt>
      <trkpt lat="42.93928" lon="1.12291">
        <ele>1014</ele>
        <time>2024-10-06T08:52:15Z</time>
      </trkpt>
      <trkpt lat="42.93928" lon="1.12294">
        <ele>1014.4</ele>
        <time>2024-10-06T08:52:16Z</time>
      </trkpt>
      <trkpt lat="42.93927" lon="1.12296">
        <ele>1014.8</ele>
        <time>2024-10-06T08:52:17Z</time>
      </trkpt>
      <trkpt lat="42.93925" lon="1.12298">
        <ele>1015.2</ele>
        <time>2024-10-06T08:52:18Z</time>
      </trkpt>
      <trkpt lat="42.93924" lon="1.123">
        <ele>1015.2</ele>
        <time>2024-10-06T08:52:19Z</time>
      </trkpt>
      <trkpt lat="42.93919" lon="1.12304">
        <ele>1015.2</ele>
        <time>2024-10-06T08:52:22Z</time>
      </trkpt>
      <trkpt lat="42.93918" lon="1.12305">
        <ele>1015.6</ele>
        <time>2024-10-06T08:52:23Z</time>
      </trkpt>
      <trkpt lat="42.93916" lon="1.12306">
        <ele>1016</ele>
        <time>2024-10-06T08:52:24Z</time>
      </trkpt>
      <trkpt lat="42.93915" lon="1.12308">
        <ele>1016.6</ele>
        <time>2024-10-06T08:52:25Z</time>
      </trkpt>
      <trkpt lat="42.93913" lon="1.12309">
        <ele>1017</ele>
        <time>2024-10-06T08:52:26Z</time>
      </trkpt>
      <trkpt lat="42.93911" lon="1.1231">
        <ele>1017.4</ele>
        <time>2024-10-06T08:52:27Z</time>
      </trkpt>
      <trkpt lat="42.93904" lon="1.12313">
        <ele>1017.8</ele>
        <time>2024-10-06T08:52:30Z</time>
      </trkpt>
      <trkpt lat="42.93902" lon="1.12314">
        <ele>1018.2</ele>
        <time>2024-10-06T08:52:31Z</time>
      </trkpt>
      <trkpt lat="42.939" lon="1.12315">
        <ele>1018.6</ele>
        <time>2024-10-06T08:52:32Z</time>
      </trkpt>
      <trkpt lat="42.93897" lon="1.12316">
        <ele>1019</ele>
        <time>2024-10-06T08:52:33Z</time>
      </trkpt>
      <trkpt lat="42.93895" lon="1.12318">
        <ele>1019.4</ele>
        <time>2024-10-06T08:52:34Z</time>
      </trkpt>
      <trkpt lat="42.93886" lon="1.1233">
        <ele>1019.8</ele>
        <time>2024-10-06T08:52:40Z</time>
      </trkpt>
      <trkpt lat="42.93885" lon="1.12332">
        <ele>1020.2</ele>
        <time>2024-10-06T08:52:41Z</time>
      </trkpt>
      <trkpt lat="42.93883" lon="1.12334">
        <ele>1020.8</ele>
        <time>2024-10-06T08:52:42Z</time>
      </trkpt>
      <trkpt lat="42.93881" lon="1.12337">
        <ele>1021.2</ele>
        <time>2024-10-06T08:52:43Z</time>
      </trkpt>
      <trkpt lat="42.93879" lon="1.12338">
        <ele>1021.6</ele>
        <time>2024-10-06T08:52:44Z</time>
      </trkpt>
      <trkpt lat="42.93875" lon="1.12342">
        <ele>1021.6</ele>
        <time>2024-10-06T08:52:46Z</time>
      </trkpt>
      <trkpt lat="42.9387" lon="1.12347">
        <ele>1022</ele>
        <time>2024-10-06T08:52:49Z</time>
      </trkpt>
      <trkpt lat="42.93869" lon="1.12348">
        <ele>1022.4</ele>
        <time>2024-10-06T08:52:50Z</time>
      </trkpt>
      <trkpt lat="42.93868" lon="1.1235">
        <ele>1022.8</ele>
        <time>2024-10-06T08:52:51Z</time>
      </trkpt>
      <trkpt lat="42.93866" lon="1.12351">
        <ele>1023.2</ele>
        <time>2024-10-06T08:52:52Z</time>
      </trkpt>
      <trkpt lat="42.93864" lon="1.12353">
        <ele>1023.6</ele>
        <time>2024-10-06T08:52:53Z</time>
      </trkpt>
      <trkpt lat="42.93858" lon="1.12362">
        <ele>1024</ele>
        <time>2024-10-06T08:52:58Z</time>
      </trkpt>
      <trkpt lat="42.93857" lon="1.12364">
        <ele>1024.4</ele>
        <time>2024-10-06T08:52:59Z</time>
      </trkpt>
      <trkpt lat="42.93855" lon="1.12366">
        <ele>1024.8</ele>
        <time>2024-10-06T08:53:00Z</time>
      </trkpt>
      <trkpt lat="42.93853" lon="1.12369">
        <ele>1025.2</ele>
        <time>2024-10-06T08:53:01Z</time>
      </trkpt>
      <trkpt lat="42.93852" lon="1.1237">
        <ele>1025.6</ele>
        <time>2024-10-06T08:53:02Z</time>
      </trkpt>
      <trkpt lat="42.9385" lon="1.12373">
        <ele>1025.6</ele>
        <time>2024-10-06T08:53:04Z</time>
      </trkpt>
      <trkpt lat="42.93847" lon="1.12377">
        <ele>1026</ele>
        <time>2024-10-06T08:53:06Z</time>
      </trkpt>
      <trkpt lat="42.93846" lon="1.1238">
        <ele>1026.4</ele>
        <time>2024-10-06T08:53:07Z</time>
      </trkpt>
      <trkpt lat="42.93844" lon="1.12382">
        <ele>1027.4</ele>
        <time>2024-10-06T08:53:08Z</time>
      </trkpt>
      <trkpt lat="42.93842" lon="1.12385">
        <ele>1027.8</ele>
        <time>2024-10-06T08:53:09Z</time>
      </trkpt>
      <trkpt lat="42.9384" lon="1.12387">
        <ele>1027.8</ele>
        <time>2024-10-06T08:53:10Z</time>
      </trkpt>
      <trkpt lat="42.93835" lon="1.12395">
        <ele>1028.2</ele>
        <time>2024-10-06T08:53:13Z</time>
      </trkpt>
      <trkpt lat="42.93834" lon="1.12397">
        <ele>1028.6</ele>
        <time>2024-10-06T08:53:14Z</time>
      </trkpt>
      <trkpt lat="42.93832" lon="1.124">
        <ele>1029</ele>
        <time>2024-10-06T08:53:15Z</time>
      </trkpt>
      <trkpt lat="42.93831" lon="1.12402">
        <ele>1029.4</ele>
        <time>2024-10-06T08:53:16Z</time>
      </trkpt>
      <trkpt lat="42.93829" lon="1.12404">
        <ele>1029.8</ele>
        <time>2024-10-06T08:53:17Z</time>
      </trkpt>
      <trkpt lat="42.93823" lon="1.12415">
        <ele>1029.8</ele>
        <time>2024-10-06T08:53:22Z</time>
      </trkpt>
      <trkpt lat="42.93822" lon="1.12417">
        <ele>1030.2</ele>
        <time>2024-10-06T08:53:23Z</time>
      </trkpt>
      <trkpt lat="42.9382" lon="1.12419">
        <ele>1030.6</ele>
        <time>2024-10-06T08:53:24Z</time>
      </trkpt>
      <trkpt lat="42.93819" lon="1.12421">
        <ele>1031</ele>
        <time>2024-10-06T08:53:25Z</time>
      </trkpt>
      <trkpt lat="42.93817" lon="1.12423">
        <ele>1031.6</ele>
        <time>2024-10-06T08:53:26Z</time>
      </trkpt>
      <trkpt lat="42.93816" lon="1.12426">
        <ele>1032</ele>
        <time>2024-10-06T08:53:27Z</time>
      </trkpt>
      <trkpt lat="42.93814" lon="1.12429">
        <ele>1032</ele>
        <time>2024-10-06T08:53:29Z</time>
      </trkpt>
      <trkpt lat="42.93811" lon="1.12436">
        <ele>1032.4</ele>
        <time>2024-10-06T08:53:32Z</time>
      </trkpt>
      <trkpt lat="42.9381" lon="1.12438">
        <ele>1033.2</ele>
        <time>2024-10-06T08:53:33Z</time>
      </trkpt>
      <trkpt lat="42.93808" lon="1.1244">
        <ele>1033.6</ele>
        <time>2024-10-06T08:53:34Z</time>
      </trkpt>
      <trkpt lat="42.93808" lon="1.12443">
        <ele>1034</ele>
        <time>2024-10-06T08:53:35Z</time>
      </trkpt>
      <trkpt lat="42.93805" lon="1.12454">
        <ele>1034.4</ele>
        <time>2024-10-06T08:53:39Z</time>
      </trkpt>
      <trkpt lat="42.93804" lon="1.12457">
        <ele>1034.8</ele>
        <time>2024-10-06T08:53:40Z</time>
      </trkpt>
      <trkpt lat="42.93804" lon="1.12459">
        <ele>1035.2</ele>
        <time>2024-10-06T08:53:41Z</time>
      </trkpt>
      <trkpt lat="42.93803" lon="1.12462">
        <ele>1035.8</ele>
        <time>2024-10-06T08:53:42Z</time>
      </trkpt>
      <trkpt lat="42.93803" lon="1.12464">
        <ele>1036.2</ele>
        <time>2024-10-06T08:53:43Z</time>
      </trkpt>
      <trkpt lat="42.93799" lon="1.12476">
        <ele>1036.2</ele>
        <time>2024-10-06T08:53:48Z</time>
      </trkpt>
      <trkpt lat="42.93799" lon="1.12478">
        <ele>1036.6</ele>
        <time>2024-10-06T08:53:49Z</time>
      </trkpt>
      <trkpt lat="42.93799" lon="1.1248">
        <ele>1037</ele>
        <time>2024-10-06T08:53:50Z</time>
      </trkpt>
      <trkpt lat="42.93798" lon="1.1248">
        <ele>1037.4</ele>
        <time>2024-10-06T08:53:51Z</time>
      </trkpt>
      <trkpt lat="42.93797" lon="1.12482">
        <ele>1037.8</ele>
        <time>2024-10-06T08:53:52Z</time>
      </trkpt>
      <trkpt lat="42.93796" lon="1.12485">
        <ele>1038.2</ele>
        <time>2024-10-06T08:53:53Z</time>
      </trkpt>
      <trkpt lat="42.93791" lon="1.12497">
        <ele>1039</ele>
        <time>2024-10-06T08:53:58Z</time>
      </trkpt>
      <trkpt lat="42.9379" lon="1.125">
        <ele>1039.6</ele>
        <time>2024-10-06T08:53:59Z</time>
      </trkpt>
      <trkpt lat="42.93788" lon="1.12502">
        <ele>1040</ele>
        <time>2024-10-06T08:54:00Z</time>
      </trkpt>
      <trkpt lat="42.93787" lon="1.12505">
        <ele>1040.4</ele>
        <time>2024-10-06T08:54:01Z</time>
      </trkpt>
      <trkpt lat="42.9378" lon="1.12518">
        <ele>1040.8</ele>
        <time>2024-10-06T08:54:06Z</time>
      </trkpt>
      <trkpt lat="42.93778" lon="1.12521">
        <ele>1041.2</ele>
        <time>2024-10-06T08:54:07Z</time>
      </trkpt>
      <trkpt lat="42.93776" lon="1.12523">
        <ele>1041.6</ele>
        <time>2024-10-06T08:54:08Z</time>
      </trkpt>
      <trkpt lat="42.93774" lon="1.12526">
        <ele>1042</ele>
        <time>2024-10-06T08:54:09Z</time>
      </trkpt>
      <trkpt lat="42.93773" lon="1.12529">
        <ele>1042.4</ele>
        <time>2024-10-06T08:54:10Z</time>
      </trkpt>
      <trkpt lat="42.93765" lon="1.12542">
        <ele>1042.8</ele>
        <time>2024-10-06T08:54:15Z</time>
      </trkpt>
      <trkpt lat="42.93764" lon="1.12545">
        <ele>1043.2</ele>
        <time>2024-10-06T08:54:16Z</time>
      </trkpt>
      <trkpt lat="42.93762" lon="1.12547">
        <ele>1043.6</ele>
        <time>2024-10-06T08:54:17Z</time>
      </trkpt>
      <trkpt lat="42.9376" lon="1.1255">
        <ele>1044.2</ele>
        <time>2024-10-06T08:54:18Z</time>
      </trkpt>
      <trkpt lat="42.93759" lon="1.12552">
        <ele>1044.6</ele>
        <time>2024-10-06T08:54:19Z</time>
      </trkpt>
      <trkpt lat="42.93755" lon="1.12561">
        <ele>1045</ele>
        <time>2024-10-06T08:54:22Z</time>
      </trkpt>
      <trkpt lat="42.93754" lon="1.12564">
        <ele>1045.4</ele>
        <time>2024-10-06T08:54:23Z</time>
      </trkpt>
      <trkpt lat="42.93753" lon="1.12567">
        <ele>1045.8</ele>
        <time>2024-10-06T08:54:24Z</time>
      </trkpt>
      <trkpt lat="42.93752" lon="1.1257">
        <ele>1046.2</ele>
        <time>2024-10-06T08:54:25Z</time>
      </trkpt>
      <trkpt lat="42.9375" lon="1.12572">
        <ele>1046.6</ele>
        <time>2024-10-06T08:54:26Z</time>
      </trkpt>
      <trkpt lat="42.93747" lon="1.1258">
        <ele>1046.6</ele>
        <time>2024-10-06T08:54:29Z</time>
      </trkpt>
      <trkpt lat="42.93744" lon="1.12585">
        <ele>1047</ele>
        <time>2024-10-06T08:54:31Z</time>
      </trkpt>
      <trkpt lat="42.93743" lon="1.12588">
        <ele>1047.4</ele>
        <time>2024-10-06T08:54:32Z</time>
      </trkpt>
      <trkpt lat="42.93742" lon="1.12591">
        <ele>1047.8</ele>
        <time>2024-10-06T08:54:33Z</time>
      </trkpt>
      <trkpt lat="42.9374" lon="1.12594">
        <ele>1048.2</ele>
        <time>2024-10-06T08:54:34Z</time>
      </trkpt>
      <trkpt lat="42.9374" lon="1.12597">
        <ele>1048.8</ele>
        <time>2024-10-06T08:54:35Z</time>
      </trkpt>
      <trkpt lat="42.93738" lon="1.12599">
        <ele>1048.8</ele>
        <time>2024-10-06T08:54:36Z</time>
      </trkpt>
      <trkpt lat="42.93735" lon="1.12606">
        <ele>1049.2</ele>
        <time>2024-10-06T08:54:39Z</time>
      </trkpt>
      <trkpt lat="42.93734" lon="1.12608">
        <ele>1049.6</ele>
        <time>2024-10-06T08:54:40Z</time>
      </trkpt>
      <trkpt lat="42.93733" lon="1.1261">
        <ele>1050</ele>
        <time>2024-10-06T08:54:41Z</time>
      </trkpt>
      <trkpt lat="42.93731" lon="1.12613">
        <ele>1050.4</ele>
        <time>2024-10-06T08:54:42Z</time>
      </trkpt>
      <trkpt lat="42.9373" lon="1.12616">
        <ele>1050.8</ele>
        <time>2024-10-06T08:54:43Z</time>
      </trkpt>
      <trkpt lat="42.93725" lon="1.12626">
        <ele>1051.2</ele>
        <time>2024-10-06T08:54:47Z</time>
      </trkpt>
      <trkpt lat="42.93724" lon="1.12628">
        <ele>1051.6</ele>
        <time>2024-10-06T08:54:48Z</time>
      </trkpt>
      <trkpt lat="42.93722" lon="1.12631">
        <ele>1052</ele>
        <time>2024-10-06T08:54:49Z</time>
      </trkpt>
      <trkpt lat="42.9372" lon="1.12633">
        <ele>1052.4</ele>
        <time>2024-10-06T08:54:50Z</time>
      </trkpt>
      <trkpt lat="42.93719" lon="1.12636">
        <ele>1052.8</ele>
        <time>2024-10-06T08:54:51Z</time>
      </trkpt>
      <trkpt lat="42.93714" lon="1.12646">
        <ele>1053.2</ele>
        <time>2024-10-06T08:54:55Z</time>
      </trkpt>
      <trkpt lat="42.93712" lon="1.12648">
        <ele>1053.8</ele>
        <time>2024-10-06T08:54:56Z</time>
      </trkpt>
      <trkpt lat="42.93711" lon="1.12651">
        <ele>1054.2</ele>
        <time>2024-10-06T08:54:57Z</time>
      </trkpt>
      <trkpt lat="42.9371" lon="1.12654">
        <ele>1054.6</ele>
        <time>2024-10-06T08:54:58Z</time>
      </trkpt>
      <trkpt lat="42.93708" lon="1.12656">
        <ele>1055</ele>
        <time>2024-10-06T08:54:59Z</time>
      </trkpt>
      <trkpt lat="42.93704" lon="1.12664">
        <ele>1055</ele>
        <time>2024-10-06T08:55:02Z</time>
      </trkpt>
      <trkpt lat="42.93702" lon="1.12667">
        <ele>1055.4</ele>
        <time>2024-10-06T08:55:03Z</time>
      </trkpt>
      <trkpt lat="42.93701" lon="1.12669">
        <ele>1055.8</ele>
        <time>2024-10-06T08:55:04Z</time>
      </trkpt>
      <trkpt lat="42.937" lon="1.12672">
        <ele>1056.2</ele>
        <time>2024-10-06T08:55:05Z</time>
      </trkpt>
      <trkpt lat="42.93699" lon="1.12674">
        <ele>1056.6</ele>
        <time>2024-10-06T08:55:06Z</time>
      </trkpt>
      <trkpt lat="42.93698" lon="1.12677">
        <ele>1057</ele>
        <time>2024-10-06T08:55:07Z</time>
      </trkpt>
      <trkpt lat="42.93697" lon="1.1268">
        <ele>1057</ele>
        <time>2024-10-06T08:55:08Z</time>
      </trkpt>
      <trkpt lat="42.93691" lon="1.12688">
        <ele>1057.8</ele>
        <time>2024-10-06T08:55:12Z</time>
      </trkpt>
      <trkpt lat="42.9369" lon="1.1269">
        <ele>1058.4</ele>
        <time>2024-10-06T08:55:13Z</time>
      </trkpt>
      <trkpt lat="42.93688" lon="1.12692">
        <ele>1058.8</ele>
        <time>2024-10-06T08:55:14Z</time>
      </trkpt>
      <trkpt lat="42.93687" lon="1.12694">
        <ele>1059.2</ele>
        <time>2024-10-06T08:55:15Z</time>
      </trkpt>
      <trkpt lat="42.93685" lon="1.12696">
        <ele>1059.2</ele>
        <time>2024-10-06T08:55:16Z</time>
      </trkpt>
      <trkpt lat="42.93683" lon="1.12701">
        <ele>1059.2</ele>
        <time>2024-10-06T08:55:18Z</time>
      </trkpt>
      <trkpt lat="42.93679" lon="1.12708">
        <ele>1059.6</ele>
        <time>2024-10-06T08:55:21Z</time>
      </trkpt>
      <trkpt lat="42.93678" lon="1.12709">
        <ele>1060</ele>
        <time>2024-10-06T08:55:22Z</time>
      </trkpt>
      <trkpt lat="42.93676" lon="1.12711">
        <ele>1060.6</ele>
        <time>2024-10-06T08:55:23Z</time>
      </trkpt>
      <trkpt lat="42.93674" lon="1.12713">
        <ele>1061</ele>
        <time>2024-10-06T08:55:24Z</time>
      </trkpt>
      <trkpt lat="42.93672" lon="1.12716">
        <ele>1061.4</ele>
        <time>2024-10-06T08:55:25Z</time>
      </trkpt>
      <trkpt lat="42.93665" lon="1.12725">
        <ele>1061.8</ele>
        <time>2024-10-06T08:55:29Z</time>
      </trkpt>
      <trkpt lat="42.93664" lon="1.12727">
        <ele>1062.2</ele>
        <time>2024-10-06T08:55:30Z</time>
      </trkpt>
      <trkpt lat="42.93662" lon="1.12729">
        <ele>1062.6</ele>
        <time>2024-10-06T08:55:31Z</time>
      </trkpt>
      <trkpt lat="42.9366" lon="1.12731">
        <ele>1063</ele>
        <time>2024-10-06T08:55:32Z</time>
      </trkpt>
      <trkpt lat="42.93659" lon="1.12734">
        <ele>1063.4</ele>
        <time>2024-10-06T08:55:33Z</time>
      </trkpt>
      <trkpt lat="42.93658" lon="1.12747">
        <ele>1063.4</ele>
        <time>2024-10-06T08:55:37Z</time>
      </trkpt>
      <trkpt lat="42.93663" lon="1.1275">
        <ele>1064</ele>
        <time>2024-10-06T08:55:39Z</time>
      </trkpt>
      <trkpt lat="42.93665" lon="1.12748">
        <ele>1064.4</ele>
        <time>2024-10-06T08:55:40Z</time>
      </trkpt>
      <trkpt lat="42.93666" lon="1.12746">
        <ele>1064.8</ele>
        <time>2024-10-06T08:55:41Z</time>
      </trkpt>
      <trkpt lat="42.93668" lon="1.12744">
        <ele>1065.2</ele>
        <time>2024-10-06T08:55:42Z</time>
      </trkpt>
      <trkpt lat="42.93669" lon="1.12742">
        <ele>1065.6</ele>
        <time>2024-10-06T08:55:43Z</time>
      </trkpt>
      <trkpt lat="42.93672" lon="1.12737">
        <ele>1065.6</ele>
        <time>2024-10-06T08:55:45Z</time>
      </trkpt>
      <trkpt lat="42.93674" lon="1.12734">
        <ele>1065.6</ele>
        <time>2024-10-06T08:55:46Z</time>
      </trkpt>
      <trkpt lat="42.93684" lon="1.12723">
        <ele>1065.6</ele>
        <time>2024-10-06T08:55:52Z</time>
      </trkpt>
      <trkpt lat="42.93695" lon="1.12715">
        <ele>1066</ele>
        <time>2024-10-06T08:55:57Z</time>
      </trkpt>
      <trkpt lat="42.93697" lon="1.12713">
        <ele>1066.4</ele>
        <time>2024-10-06T08:55:58Z</time>
      </trkpt>
      <trkpt lat="42.937" lon="1.12712">
        <ele>1067</ele>
        <time>2024-10-06T08:55:59Z</time>
      </trkpt>
      <trkpt lat="42.93702" lon="1.12711">
        <ele>1067.4</ele>
        <time>2024-10-06T08:56:00Z</time>
      </trkpt>
      <trkpt lat="42.93704" lon="1.1271">
        <ele>1067.8</ele>
        <time>2024-10-06T08:56:01Z</time>
      </trkpt>
      <trkpt lat="42.9371" lon="1.12706">
        <ele>1067.8</ele>
        <time>2024-10-06T08:56:04Z</time>
      </trkpt>
      <trkpt lat="42.93718" lon="1.12702">
        <ele>1068.2</ele>
        <time>2024-10-06T08:56:08Z</time>
      </trkpt>
      <trkpt lat="42.9372" lon="1.12702">
        <ele>1068.6</ele>
        <time>2024-10-06T08:56:09Z</time>
      </trkpt>
      <trkpt lat="42.93722" lon="1.12701">
        <ele>1069</ele>
        <time>2024-10-06T08:56:10Z</time>
      </trkpt>
      <trkpt lat="42.93725" lon="1.12701">
        <ele>1069.4</ele>
        <time>2024-10-06T08:56:11Z</time>
      </trkpt>
      <trkpt lat="42.93727" lon="1.127">
        <ele>1069.8</ele>
        <time>2024-10-06T08:56:12Z</time>
      </trkpt>
      <trkpt lat="42.9374" lon="1.12696">
        <ele>1069.8</ele>
        <time>2024-10-06T08:56:18Z</time>
      </trkpt>
      <trkpt lat="42.93748" lon="1.12692">
        <ele>1070.2</ele>
        <time>2024-10-06T08:56:22Z</time>
      </trkpt>
      <trkpt lat="42.9375" lon="1.12691">
        <ele>1070.6</ele>
        <time>2024-10-06T08:56:23Z</time>
      </trkpt>
      <trkpt lat="42.93752" lon="1.1269">
        <ele>1071</ele>
        <time>2024-10-06T08:56:24Z</time>
      </trkpt>
      <trkpt lat="42.93755" lon="1.12689">
        <ele>1071.4</ele>
        <time>2024-10-06T08:56:25Z</time>
      </trkpt>
      <trkpt lat="42.93756" lon="1.12687">
        <ele>1071.8</ele>
        <time>2024-10-06T08:56:26Z</time>
      </trkpt>
      <trkpt lat="42.93766" lon="1.1268">
        <ele>1071.8</ele>
        <time>2024-10-06T08:56:31Z</time>
      </trkpt>
      <trkpt lat="42.93775" lon="1.12675">
        <ele>1072.2</ele>
        <time>2024-10-06T08:56:35Z</time>
      </trkpt>
      <trkpt lat="42.93777" lon="1.12675">
        <ele>1072.6</ele>
        <time>2024-10-06T08:56:36Z</time>
      </trkpt>
      <trkpt lat="42.93779" lon="1.12674">
        <ele>1073</ele>
        <time>2024-10-06T08:56:37Z</time>
      </trkpt>
      <trkpt lat="42.93781" lon="1.12675">
        <ele>1073.4</ele>
        <time>2024-10-06T08:56:38Z</time>
      </trkpt>
      <trkpt lat="42.93783" lon="1.12675">
        <ele>1073.8</ele>
        <time>2024-10-06T08:56:39Z</time>
      </trkpt>
      <trkpt lat="42.93788" lon="1.12682">
        <ele>1073.8</ele>
        <time>2024-10-06T08:56:43Z</time>
      </trkpt>
      <trkpt lat="42.93782" lon="1.12686">
        <ele>1073.8</ele>
        <time>2024-10-06T08:56:46Z</time>
      </trkpt>
      <trkpt lat="42.93781" lon="1.12687">
        <ele>1073.8</ele>
        <time>2024-10-06T08:56:47Z</time>
      </trkpt>
      <trkpt lat="42.93776" lon="1.1269">
        <ele>1074.2</ele>
        <time>2024-10-06T08:56:49Z</time>
      </trkpt>
      <trkpt lat="42.93773" lon="1.12691">
        <ele>1074.6</ele>
        <time>2024-10-06T08:56:50Z</time>
      </trkpt>
      <trkpt lat="42.93771" lon="1.12692">
        <ele>1075.6</ele>
        <time>2024-10-06T08:56:51Z</time>
      </trkpt>
      <trkpt lat="42.9377" lon="1.12694">
        <ele>1076</ele>
        <time>2024-10-06T08:56:52Z</time>
      </trkpt>
      <trkpt lat="42.93759" lon="1.12706">
        <ele>1076</ele>
        <time>2024-10-06T08:56:58Z</time>
      </trkpt>
      <trkpt lat="42.93754" lon="1.1271">
        <ele>1076.4</ele>
        <time>2024-10-06T08:57:00Z</time>
      </trkpt>
      <trkpt lat="42.93752" lon="1.12712">
        <ele>1076.8</ele>
        <time>2024-10-06T08:57:01Z</time>
      </trkpt>
      <trkpt lat="42.93751" lon="1.12714">
        <ele>1077.2</ele>
        <time>2024-10-06T08:57:02Z</time>
      </trkpt>
      <trkpt lat="42.93749" lon="1.12716">
        <ele>1077.6</ele>
        <time>2024-10-06T08:57:03Z</time>
      </trkpt>
      <trkpt lat="42.93747" lon="1.12718">
        <ele>1078</ele>
        <time>2024-10-06T08:57:04Z</time>
      </trkpt>
      <trkpt lat="42.9374" lon="1.12729">
        <ele>1078</ele>
        <time>2024-10-06T08:57:09Z</time>
      </trkpt>
      <trkpt lat="42.93738" lon="1.12731">
        <ele>1078.4</ele>
        <time>2024-10-06T08:57:10Z</time>
      </trkpt>
      <trkpt lat="42.93736" lon="1.12733">
        <ele>1078.8</ele>
        <time>2024-10-06T08:57:11Z</time>
      </trkpt>
      <trkpt lat="42.93734" lon="1.12735">
        <ele>1079.2</ele>
        <time>2024-10-06T08:57:12Z</time>
      </trkpt>
      <trkpt lat="42.93732" lon="1.12737">
        <ele>1079.6</ele>
        <time>2024-10-06T08:57:13Z</time>
      </trkpt>
      <trkpt lat="42.9373" lon="1.12739">
        <ele>1080</ele>
        <time>2024-10-06T08:57:14Z</time>
      </trkpt>
      <trkpt lat="42.93728" lon="1.1274">
        <ele>1080</ele>
        <time>2024-10-06T08:57:15Z</time>
      </trkpt>
      <trkpt lat="42.93717" lon="1.12749">
        <ele>1080.6</ele>
        <time>2024-10-06T08:57:20Z</time>
      </trkpt>
      <trkpt lat="42.93715" lon="1.1275">
        <ele>1081</ele>
        <time>2024-10-06T08:57:21Z</time>
      </trkpt>
      <trkpt lat="42.93713" lon="1.12751">
        <ele>1081.4</ele>
        <time>2024-10-06T08:57:22Z</time>
      </trkpt>
      <trkpt lat="42.93711" lon="1.12753">
        <ele>1081.8</ele>
        <time>2024-10-06T08:57:23Z</time>
      </trkpt>
      <trkpt lat="42.93709" lon="1.12755">
        <ele>1082.2</ele>
        <time>2024-10-06T08:57:24Z</time>
      </trkpt>
      <trkpt lat="42.93705" lon="1.12763">
        <ele>1082.2</ele>
        <time>2024-10-06T08:57:27Z</time>
      </trkpt>
      <trkpt lat="42.93706" lon="1.12766">
        <ele>1082.2</ele>
        <time>2024-10-06T08:57:28Z</time>
      </trkpt>
      <trkpt lat="42.93713" lon="1.12769">
        <ele>1082.2</ele>
        <time>2024-10-06T08:57:32Z</time>
      </trkpt>
      <trkpt lat="42.93721" lon="1.12761">
        <ele>1082.6</ele>
        <time>2024-10-06T08:57:36Z</time>
      </trkpt>
      <trkpt lat="42.93723" lon="1.1276">
        <ele>1083</ele>
        <time>2024-10-06T08:57:37Z</time>
      </trkpt>
      <trkpt lat="42.93725" lon="1.12759">
        <ele>1083.4</ele>
        <time>2024-10-06T08:57:38Z</time>
      </trkpt>
      <trkpt lat="42.93727" lon="1.12758">
        <ele>1083.8</ele>
        <time>2024-10-06T08:57:39Z</time>
      </trkpt>
      <trkpt lat="42.9373" lon="1.12757">
        <ele>1084.4</ele>
        <time>2024-10-06T08:57:40Z</time>
      </trkpt>
      <trkpt lat="42.93737" lon="1.12755">
        <ele>1084.4</ele>
        <time>2024-10-06T08:57:43Z</time>
      </trkpt>
      <trkpt lat="42.93743" lon="1.12755">
        <ele>1084.8</ele>
        <time>2024-10-06T08:57:46Z</time>
      </trkpt>
      <trkpt lat="42.93745" lon="1.12755">
        <ele>1085.2</ele>
        <time>2024-10-06T08:57:47Z</time>
      </trkpt>
      <trkpt lat="42.93748" lon="1.12755">
        <ele>1085.6</ele>
        <time>2024-10-06T08:57:48Z</time>
      </trkpt>
      <trkpt lat="42.9375" lon="1.12754">
        <ele>1086</ele>
        <time>2024-10-06T08:57:49Z</time>
      </trkpt>
      <trkpt lat="42.93752" lon="1.12755">
        <ele>1086.4</ele>
        <time>2024-10-06T08:57:50Z</time>
      </trkpt>
      <trkpt lat="42.93763" lon="1.12756">
        <ele>1086.8</ele>
        <time>2024-10-06T08:57:55Z</time>
      </trkpt>
      <trkpt lat="42.93764" lon="1.12757">
        <ele>1087.2</ele>
        <time>2024-10-06T08:57:56Z</time>
      </trkpt>
      <trkpt lat="42.93766" lon="1.12757">
        <ele>1087.6</ele>
        <time>2024-10-06T08:57:57Z</time>
      </trkpt>
      <trkpt lat="42.93768" lon="1.12757">
        <ele>1088</ele>
        <time>2024-10-06T08:57:58Z</time>
      </trkpt>
      <trkpt lat="42.9377" lon="1.12757">
        <ele>1088.4</ele>
        <time>2024-10-06T08:57:59Z</time>
      </trkpt>
      <trkpt lat="42.93776" lon="1.12758">
        <ele>1088.4</ele>
        <time>2024-10-06T08:58:02Z</time>
      </trkpt>
      <trkpt lat="42.93783" lon="1.12759">
        <ele>1088.8</ele>
        <time>2024-10-06T08:58:05Z</time>
      </trkpt>
      <trkpt lat="42.93784" lon="1.12761">
        <ele>1089.2</ele>
        <time>2024-10-06T08:58:06Z</time>
      </trkpt>
      <trkpt lat="42.93785" lon="1.12762">
        <ele>1089.8</ele>
        <time>2024-10-06T08:58:07Z</time>
      </trkpt>
      <trkpt lat="42.93787" lon="1.12762">
        <ele>1090.2</ele>
        <time>2024-10-06T08:58:08Z</time>
      </trkpt>
      <trkpt lat="42.93789" lon="1.12763">
        <ele>1090.6</ele>
        <time>2024-10-06T08:58:09Z</time>
      </trkpt>
      <trkpt lat="42.93796" lon="1.12769">
        <ele>1090.6</ele>
        <time>2024-10-06T08:58:13Z</time>
      </trkpt>
      <trkpt lat="42.93801" lon="1.12772">
        <ele>1091</ele>
        <time>2024-10-06T08:58:16Z</time>
      </trkpt>
      <trkpt lat="42.93803" lon="1.12774">
        <ele>1091.4</ele>
        <time>2024-10-06T08:58:17Z</time>
      </trkpt>
      <trkpt lat="42.93805" lon="1.12776">
        <ele>1092</ele>
        <time>2024-10-06T08:58:18Z</time>
      </trkpt>
      <trkpt lat="42.93807" lon="1.12777">
        <ele>1092.4</ele>
        <time>2024-10-06T08:58:19Z</time>
      </trkpt>
      <trkpt lat="42.93807" lon="1.12779">
        <ele>1092.8</ele>
        <time>2024-10-06T08:58:20Z</time>
      </trkpt>
      <trkpt lat="42.93811" lon="1.12787">
        <ele>1092.8</ele>
        <time>2024-10-06T08:58:23Z</time>
      </trkpt>
      <trkpt lat="42.93812" lon="1.12796">
        <ele>1093.2</ele>
        <time>2024-10-06T08:58:27Z</time>
      </trkpt>
      <trkpt lat="42.93811" lon="1.12798">
        <ele>1093.6</ele>
        <time>2024-10-06T08:58:28Z</time>
      </trkpt>
      <trkpt lat="42.9381" lon="1.12799">
        <ele>1094.2</ele>
        <time>2024-10-06T08:58:29Z</time>
      </trkpt>
      <trkpt lat="42.93808" lon="1.12801">
        <ele>1095</ele>
        <time>2024-10-06T08:58:30Z</time>
      </trkpt>
      <trkpt lat="42.93801" lon="1.12804">
        <ele>1095</ele>
        <time>2024-10-06T08:58:34Z</time>
      </trkpt>
      <trkpt lat="42.93797" lon="1.12805">
        <ele>1095.4</ele>
        <time>2024-10-06T08:58:36Z</time>
      </trkpt>
      <trkpt lat="42.93795" lon="1.12806">
        <ele>1095.8</ele>
        <time>2024-10-06T08:58:37Z</time>
      </trkpt>
      <trkpt lat="42.93794" lon="1.12806">
        <ele>1096.4</ele>
        <time>2024-10-06T08:58:38Z</time>
      </trkpt>
      <trkpt lat="42.93792" lon="1.12807">
        <ele>1096.8</ele>
        <time>2024-10-06T08:58:39Z</time>
      </trkpt>
      <trkpt lat="42.93791" lon="1.12808">
        <ele>1097.2</ele>
        <time>2024-10-06T08:58:40Z</time>
      </trkpt>
      <trkpt lat="42.93788" lon="1.12809">
        <ele>1097.2</ele>
        <time>2024-10-06T08:58:41Z</time>
      </trkpt>
      <trkpt lat="42.93785" lon="1.1281">
        <ele>1097.6</ele>
        <time>2024-10-06T08:58:43Z</time>
      </trkpt>
      <trkpt lat="42.93782" lon="1.12811">
        <ele>1098</ele>
        <time>2024-10-06T08:58:44Z</time>
      </trkpt>
      <trkpt lat="42.9378" lon="1.12811">
        <ele>1098.4</ele>
        <time>2024-10-06T08:58:45Z</time>
      </trkpt>
      <trkpt lat="42.93779" lon="1.12812">
        <ele>1098.8</ele>
        <time>2024-10-06T08:58:46Z</time>
      </trkpt>
      <trkpt lat="42.93776" lon="1.12814">
        <ele>1099.2</ele>
        <time>2024-10-06T08:58:47Z</time>
      </trkpt>
      <trkpt lat="42.93773" lon="1.12823">
        <ele>1099.2</ele>
        <time>2024-10-06T08:58:51Z</time>
      </trkpt>
      <trkpt lat="42.93774" lon="1.12828">
        <ele>1099.8</ele>
        <time>2024-10-06T08:58:53Z</time>
      </trkpt>
      <trkpt lat="42.93775" lon="1.1283">
        <ele>1100.6</ele>
        <time>2024-10-06T08:58:54Z</time>
      </trkpt>
      <trkpt lat="42.93776" lon="1.12833">
        <ele>1101</ele>
        <time>2024-10-06T08:58:55Z</time>
      </trkpt>
      <trkpt lat="42.93777" lon="1.12835">
        <ele>1101.4</ele>
        <time>2024-10-06T08:58:56Z</time>
      </trkpt>
      <trkpt lat="42.93779" lon="1.12845">
        <ele>1101.8</ele>
        <time>2024-10-06T08:59:00Z</time>
      </trkpt>
      <trkpt lat="42.93779" lon="1.12848">
        <ele>1102.2</ele>
        <time>2024-10-06T08:59:01Z</time>
      </trkpt>
      <trkpt lat="42.93779" lon="1.12851">
        <ele>1102.6</ele>
        <time>2024-10-06T08:59:02Z</time>
      </trkpt>
      <trkpt lat="42.93779" lon="1.12854">
        <ele>1103</ele>
        <time>2024-10-06T08:59:03Z</time>
      </trkpt>
      <trkpt lat="42.9378" lon="1.12856">
        <ele>1103.6</ele>
        <time>2024-10-06T08:59:04Z</time>
      </trkpt>
      <trkpt lat="42.93781" lon="1.1286">
        <ele>1103.6</ele>
        <time>2024-10-06T08:59:06Z</time>
      </trkpt>
      <trkpt lat="42.93781" lon="1.12863">
        <ele>1103.6</ele>
        <time>2024-10-06T08:59:07Z</time>
      </trkpt>
      <trkpt lat="42.93781" lon="1.12871">
        <ele>1103.6</ele>
        <time>2024-10-06T08:59:11Z</time>
      </trkpt>
      <trkpt lat="42.93781" lon="1.12873">
        <ele>1104</ele>
        <time>2024-10-06T08:59:12Z</time>
      </trkpt>
      <trkpt lat="42.93781" lon="1.12876">
        <ele>1104.4</ele>
        <time>2024-10-06T08:59:13Z</time>
      </trkpt>
      <trkpt lat="42.93782" lon="1.12879">
        <ele>1104.8</ele>
        <time>2024-10-06T08:59:14Z</time>
      </trkpt>
      <trkpt lat="42.93782" lon="1.12882">
        <ele>1105.2</ele>
        <time>2024-10-06T08:59:15Z</time>
      </trkpt>
      <trkpt lat="42.93781" lon="1.12884">
        <ele>1105.6</ele>
        <time>2024-10-06T08:59:16Z</time>
      </trkpt>
      <trkpt lat="42.93781" lon="1.12887">
        <ele>1105.6</ele>
        <time>2024-10-06T08:59:17Z</time>
      </trkpt>
      <trkpt lat="42.93779" lon="1.12895">
        <ele>1106</ele>
        <time>2024-10-06T08:59:20Z</time>
      </trkpt>
      <trkpt lat="42.93778" lon="1.12898">
        <ele>1106.4</ele>
        <time>2024-10-06T08:59:21Z</time>
      </trkpt>
      <trkpt lat="42.93777" lon="1.12902">
        <ele>1106.8</ele>
        <time>2024-10-06T08:59:22Z</time>
      </trkpt>
      <trkpt lat="42.93777" lon="1.12905">
        <ele>1107.2</ele>
        <time>2024-10-06T08:59:23Z</time>
      </trkpt>
      <trkpt lat="42.93776" lon="1.12908">
        <ele>1107.6</ele>
        <time>2024-10-06T08:59:24Z</time>
      </trkpt>
      <trkpt lat="42.93777" lon="1.1292">
        <ele>1107.6</ele>
        <time>2024-10-06T08:59:29Z</time>
      </trkpt>
      <trkpt lat="42.93781" lon="1.1293">
        <ele>1108.2</ele>
        <time>2024-10-06T08:59:33Z</time>
      </trkpt>
      <trkpt lat="42.93783" lon="1.12933">
        <ele>1108.6</ele>
        <time>2024-10-06T08:59:34Z</time>
      </trkpt>
      <trkpt lat="42.93784" lon="1.12936">
        <ele>1109</ele>
        <time>2024-10-06T08:59:35Z</time>
      </trkpt>
      <trkpt lat="42.93785" lon="1.1294">
        <ele>1109.4</ele>
        <time>2024-10-06T08:59:36Z</time>
      </trkpt>
      <trkpt lat="42.93786" lon="1.12942">
        <ele>1109.8</ele>
        <time>2024-10-06T08:59:37Z</time>
      </trkpt>
      <trkpt lat="42.93788" lon="1.12948">
        <ele>1109.8</ele>
        <time>2024-10-06T08:59:39Z</time>
      </trkpt>
      <trkpt lat="42.93789" lon="1.12951">
        <ele>1109.8</ele>
        <time>2024-10-06T08:59:40Z</time>
      </trkpt>
      <trkpt lat="42.93792" lon="1.12958">
        <ele>1110.4</ele>
        <time>2024-10-06T08:59:43Z</time>
      </trkpt>
      <trkpt lat="42.93793" lon="1.1296">
        <ele>1111.2</ele>
        <time>2024-10-06T08:59:44Z</time>
      </trkpt>
      <trkpt lat="42.93794" lon="1.12963">
        <ele>1111.6</ele>
        <time>2024-10-06T08:59:45Z</time>
      </trkpt>
      <trkpt lat="42.93795" lon="1.12966">
        <ele>1112</ele>
        <time>2024-10-06T08:59:46Z</time>
      </trkpt>
      <trkpt lat="42.93796" lon="1.12969">
        <ele>1112</ele>
        <time>2024-10-06T08:59:47Z</time>
      </trkpt>
      <trkpt lat="42.93801" lon="1.12981">
        <ele>1112</ele>
        <time>2024-10-06T08:59:52Z</time>
      </trkpt>
      <trkpt lat="42.93803" lon="1.12983">
        <ele>1112.4</ele>
        <time>2024-10-06T08:59:53Z</time>
      </trkpt>
      <trkpt lat="42.93804" lon="1.12985">
        <ele>1112.8</ele>
        <time>2024-10-06T08:59:54Z</time>
      </trkpt>
      <trkpt lat="42.93804" lon="1.12988">
        <ele>1113.4</ele>
        <time>2024-10-06T08:59:55Z</time>
      </trkpt>
      <trkpt lat="42.93805" lon="1.12991">
        <ele>1113.8</ele>
        <time>2024-10-06T08:59:56Z</time>
      </trkpt>
      <trkpt lat="42.93806" lon="1.12994">
        <ele>1114.2</ele>
        <time>2024-10-06T08:59:57Z</time>
      </trkpt>
      <trkpt lat="42.93806" lon="1.12999">
        <ele>1114.2</ele>
        <time>2024-10-06T08:59:59Z</time>
      </trkpt>
      <trkpt lat="42.93806" lon="1.13002">
        <ele>1114.2</ele>
        <time>2024-10-06T09:00:00Z</time>
      </trkpt>
      <trkpt lat="42.938" lon="1.13006">
        <ele>1114.2</ele>
        <time>2024-10-06T09:00:03Z</time>
      </trkpt>
      <trkpt lat="42.93799" lon="1.13007">
        <ele>1114.2</ele>
        <time>2024-10-06T09:00:04Z</time>
      </trkpt>
      <trkpt lat="42.93797" lon="1.13006">
        <ele>1114.2</ele>
        <time>2024-10-06T09:00:05Z</time>
      </trkpt>
      <trkpt lat="42.93796" lon="1.13004">
        <ele>1114.6</ele>
        <time>2024-10-06T09:00:06Z</time>
      </trkpt>
      <trkpt lat="42.93794" lon="1.13003">
        <ele>1115</ele>
        <time>2024-10-06T09:00:07Z</time>
      </trkpt>
      <trkpt lat="42.93793" lon="1.13001">
        <ele>1115.8</ele>
        <time>2024-10-06T09:00:08Z</time>
      </trkpt>
      <trkpt lat="42.93791" lon="1.12999">
        <ele>1116.4</ele>
        <time>2024-10-06T09:00:09Z</time>
      </trkpt>
      <trkpt lat="42.93787" lon="1.12997">
        <ele>1116.4</ele>
        <time>2024-10-06T09:00:11Z</time>
      </trkpt>
      <trkpt lat="42.93782" lon="1.12994">
        <ele>1116.8</ele>
        <time>2024-10-06T09:00:14Z</time>
      </trkpt>
      <trkpt lat="42.9378" lon="1.12993">
        <ele>1117.2</ele>
        <time>2024-10-06T09:00:15Z</time>
      </trkpt>
      <trkpt lat="42.93778" lon="1.12993">
        <ele>1117.6</ele>
        <time>2024-10-06T09:00:16Z</time>
      </trkpt>
      <trkpt lat="42.93776" lon="1.12992">
        <ele>1118</ele>
        <time>2024-10-06T09:00:17Z</time>
      </trkpt>
      <trkpt lat="42.93774" lon="1.12991">
        <ele>1118.4</ele>
        <time>2024-10-06T09:00:18Z</time>
      </trkpt>
      <trkpt lat="42.9377" lon="1.1299">
        <ele>1118.4</ele>
        <time>2024-10-06T09:00:20Z</time>
      </trkpt>
      <trkpt lat="42.93761" lon="1.12985">
        <ele>1118.8</ele>
        <time>2024-10-06T09:00:25Z</time>
      </trkpt>
      <trkpt lat="42.93759" lon="1.12984">
        <ele>1119.2</ele>
        <time>2024-10-06T09:00:26Z</time>
      </trkpt>
      <trkpt lat="42.93757" lon="1.12984">
        <ele>1119.8</ele>
        <time>2024-10-06T09:00:27Z</time>
      </trkpt>
      <trkpt lat="42.93756" lon="1.12983">
        <ele>1120.2</ele>
        <time>2024-10-06T09:00:28Z</time>
      </trkpt>
      <trkpt lat="42.93753" lon="1.12982">
        <ele>1120.6</ele>
        <time>2024-10-06T09:00:29Z</time>
      </trkpt>
      <trkpt lat="42.93749" lon="1.12981">
        <ele>1120.6</ele>
        <time>2024-10-06T09:00:31Z</time>
      </trkpt>
      <trkpt lat="42.93743" lon="1.12979">
        <ele>1121</ele>
        <time>2024-10-06T09:00:34Z</time>
      </trkpt>
      <trkpt lat="42.93741" lon="1.12978">
        <ele>1121.4</ele>
        <time>2024-10-06T09:00:35Z</time>
      </trkpt>
      <trkpt lat="42.93738" lon="1.12976">
        <ele>1121.8</ele>
        <time>2024-10-06T09:00:36Z</time>
      </trkpt>
      <trkpt lat="42.93735" lon="1.12975">
        <ele>1122.2</ele>
        <time>2024-10-06T09:00:37Z</time>
      </trkpt>
      <trkpt lat="42.93733" lon="1.12973">
        <ele>1122.6</ele>
        <time>2024-10-06T09:00:38Z</time>
      </trkpt>
      <trkpt lat="42.93727" lon="1.12962">
        <ele>1122.6</ele>
        <time>2024-10-06T09:00:43Z</time>
      </trkpt>
      <trkpt lat="42.93725" lon="1.12958">
        <ele>1123.2</ele>
        <time>2024-10-06T09:00:45Z</time>
      </trkpt>
      <trkpt lat="42.93724" lon="1.12955">
        <ele>1123.6</ele>
        <time>2024-10-06T09:00:46Z</time>
      </trkpt>
      <trkpt lat="42.93722" lon="1.12953">
        <ele>1124</ele>
        <time>2024-10-06T09:00:47Z</time>
      </trkpt>
      <trkpt lat="42.93721" lon="1.12951">
        <ele>1124.4</ele>
        <time>2024-10-06T09:00:48Z</time>
      </trkpt>
      <trkpt lat="42.9372" lon="1.12948">
        <ele>1124.8</ele>
        <time>2024-10-06T09:00:49Z</time>
      </trkpt>
      <trkpt lat="42.93719" lon="1.12946">
        <ele>1124.8</ele>
        <time>2024-10-06T09:00:50Z</time>
      </trkpt>
      <trkpt lat="42.93714" lon="1.12945">
        <ele>1124.8</ele>
        <time>2024-10-06T09:00:53Z</time>
      </trkpt>
      <trkpt lat="42.93711" lon="1.12946">
        <ele>1124.8</ele>
        <time>2024-10-06T09:00:54Z</time>
      </trkpt>
      <trkpt lat="42.93705" lon="1.12949">
        <ele>1125.8</ele>
        <time>2024-10-06T09:00:58Z</time>
      </trkpt>
      <trkpt lat="42.93703" lon="1.1295">
        <ele>1126.2</ele>
        <time>2024-10-06T09:00:59Z</time>
      </trkpt>
      <trkpt lat="42.93701" lon="1.12951">
        <ele>1126.6</ele>
        <time>2024-10-06T09:01:00Z</time>
      </trkpt>
      <trkpt lat="42.93699" lon="1.12953">
        <ele>1127</ele>
        <time>2024-10-06T09:01:01Z</time>
      </trkpt>
      <trkpt lat="42.93693" lon="1.12959">
        <ele>1127</ele>
        <time>2024-10-06T09:01:04Z</time>
      </trkpt>
      <trkpt lat="42.93691" lon="1.1296">
        <ele>1127.6</ele>
        <time>2024-10-06T09:01:05Z</time>
      </trkpt>
      <trkpt lat="42.93689" lon="1.12962">
        <ele>1128</ele>
        <time>2024-10-06T09:01:06Z</time>
      </trkpt>
      <trkpt lat="42.93687" lon="1.12964">
        <ele>1128.4</ele>
        <time>2024-10-06T09:01:07Z</time>
      </trkpt>
      <trkpt lat="42.93686" lon="1.12966">
        <ele>1128.8</ele>
        <time>2024-10-06T09:01:08Z</time>
      </trkpt>
      <trkpt lat="42.93685" lon="1.12968">
        <ele>1129.2</ele>
        <time>2024-10-06T09:01:09Z</time>
      </trkpt>
      <trkpt lat="42.9368" lon="1.12972">
        <ele>1129.2</ele>
        <time>2024-10-06T09:01:11Z</time>
      </trkpt>
      <trkpt lat="42.93677" lon="1.12976">
        <ele>1129.6</ele>
        <time>2024-10-06T09:01:13Z</time>
      </trkpt>
      <trkpt lat="42.93675" lon="1.12977">
        <ele>1130.2</ele>
        <time>2024-10-06T09:01:14Z</time>
      </trkpt>
      <trkpt lat="42.93673" lon="1.12979">
        <ele>1130.6</ele>
        <time>2024-10-06T09:01:15Z</time>
      </trkpt>
      <trkpt lat="42.93671" lon="1.1298">
        <ele>1131</ele>
        <time>2024-10-06T09:01:16Z</time>
      </trkpt>
      <trkpt lat="42.93669" lon="1.12982">
        <ele>1131.4</ele>
        <time>2024-10-06T09:01:17Z</time>
      </trkpt>
      <trkpt lat="42.93664" lon="1.12986">
        <ele>1131.4</ele>
        <time>2024-10-06T09:01:19Z</time>
      </trkpt>
      <trkpt lat="42.93657" lon="1.12991">
        <ele>1132.4</ele>
        <time>2024-10-06T09:01:22Z</time>
      </trkpt>
      <trkpt lat="42.93655" lon="1.12993">
        <ele>1132.8</ele>
        <time>2024-10-06T09:01:23Z</time>
      </trkpt>
      <trkpt lat="42.93653" lon="1.12995">
        <ele>1133.2</ele>
        <time>2024-10-06T09:01:24Z</time>
      </trkpt>
      <trkpt lat="42.93651" lon="1.12997">
        <ele>1133.6</ele>
        <time>2024-10-06T09:01:25Z</time>
      </trkpt>
      <trkpt lat="42.93636" lon="1.1301">
        <ele>1134</ele>
        <time>2024-10-06T09:01:32Z</time>
      </trkpt>
      <trkpt lat="42.93634" lon="1.13012">
        <ele>1134.4</ele>
        <time>2024-10-06T09:01:33Z</time>
      </trkpt>
      <trkpt lat="42.93633" lon="1.13014">
        <ele>1134.8</ele>
        <time>2024-10-06T09:01:34Z</time>
      </trkpt>
      <trkpt lat="42.93631" lon="1.13016">
        <ele>1135.2</ele>
        <time>2024-10-06T09:01:35Z</time>
      </trkpt>
      <trkpt lat="42.93629" lon="1.13017">
        <ele>1135.6</ele>
        <time>2024-10-06T09:01:36Z</time>
      </trkpt>
      <trkpt lat="42.93621" lon="1.13025">
        <ele>1135.6</ele>
        <time>2024-10-06T09:01:41Z</time>
      </trkpt>
      <trkpt lat="42.93616" lon="1.13033">
        <ele>1136</ele>
        <time>2024-10-06T09:01:46Z</time>
      </trkpt>
      <trkpt lat="42.93615" lon="1.13034">
        <ele>1137</ele>
        <time>2024-10-06T09:01:47Z</time>
      </trkpt>
      <trkpt lat="42.93613" lon="1.13035">
        <ele>1137.4</ele>
        <time>2024-10-06T09:01:48Z</time>
      </trkpt>
      <trkpt lat="42.93612" lon="1.13037">
        <ele>1137.8</ele>
        <time>2024-10-06T09:01:49Z</time>
      </trkpt>
      <trkpt lat="42.93604" lon="1.13047">
        <ele>1137.8</ele>
        <time>2024-10-06T09:01:54Z</time>
      </trkpt>
      <trkpt lat="42.93595" lon="1.13057">
        <ele>1137.8</ele>
        <time>2024-10-06T09:02:00Z</time>
      </trkpt>
      <trkpt lat="42.93594" lon="1.13059">
        <ele>1138.2</ele>
        <time>2024-10-06T09:02:01Z</time>
      </trkpt>
      <trkpt lat="42.93593" lon="1.13061">
        <ele>1138.6</ele>
        <time>2024-10-06T09:02:02Z</time>
      </trkpt>
      <trkpt lat="42.93591" lon="1.13063">
        <ele>1139</ele>
        <time>2024-10-06T09:02:03Z</time>
      </trkpt>
      <trkpt lat="42.9359" lon="1.13065">
        <ele>1139.6</ele>
        <time>2024-10-06T09:02:04Z</time>
      </trkpt>
      <trkpt lat="42.93588" lon="1.13066">
        <ele>1140</ele>
        <time>2024-10-06T09:02:05Z</time>
      </trkpt>
      <trkpt lat="42.93586" lon="1.1307">
        <ele>1140</ele>
        <time>2024-10-06T09:02:07Z</time>
      </trkpt>
      <trkpt lat="42.93575" lon="1.13081">
        <ele>1140</ele>
        <time>2024-10-06T09:02:13Z</time>
      </trkpt>
      <trkpt lat="42.93568" lon="1.13088">
        <ele>1140.4</ele>
        <time>2024-10-06T09:02:17Z</time>
      </trkpt>
      <trkpt lat="42.93566" lon="1.13089">
        <ele>1140.8</ele>
        <time>2024-10-06T09:02:18Z</time>
      </trkpt>
      <trkpt lat="42.93564" lon="1.1309">
        <ele>1141.2</ele>
        <time>2024-10-06T09:02:19Z</time>
      </trkpt>
      <trkpt lat="42.93562" lon="1.13092">
        <ele>1141.6</ele>
        <time>2024-10-06T09:02:20Z</time>
      </trkpt>
      <trkpt lat="42.9356" lon="1.13094">
        <ele>1142</ele>
        <time>2024-10-06T09:02:21Z</time>
      </trkpt>
      <trkpt lat="42.93558" lon="1.13096">
        <ele>1142</ele>
        <time>2024-10-06T09:02:22Z</time>
      </trkpt>
      <trkpt lat="42.93542" lon="1.1311">
        <ele>1142</ele>
        <time>2024-10-06T09:02:30Z</time>
      </trkpt>
      <trkpt lat="42.93525" lon="1.13127">
        <ele>1142</ele>
        <time>2024-10-06T09:02:39Z</time>
      </trkpt>
      <trkpt lat="42.93512" lon="1.1314">
        <ele>1142</ele>
        <time>2024-10-06T09:02:46Z</time>
      </trkpt>
      <trkpt lat="42.93505" lon="1.13146">
        <ele>1142</ele>
        <time>2024-10-06T09:02:50Z</time>
      </trkpt>
      <trkpt lat="42.93495" lon="1.13154">
        <ele>1142.4</ele>
        <time>2024-10-06T09:02:55Z</time>
      </trkpt>
      <trkpt lat="42.93493" lon="1.13156">
        <ele>1142.8</ele>
        <time>2024-10-06T09:02:56Z</time>
      </trkpt>
      <trkpt lat="42.93491" lon="1.13157">
        <ele>1143.2</ele>
        <time>2024-10-06T09:02:57Z</time>
      </trkpt>
      <trkpt lat="42.93489" lon="1.13159">
        <ele>1143.8</ele>
        <time>2024-10-06T09:02:58Z</time>
      </trkpt>
      <trkpt lat="42.93487" lon="1.13161">
        <ele>1144.2</ele>
        <time>2024-10-06T09:02:59Z</time>
      </trkpt>
      <trkpt lat="42.93479" lon="1.13167">
        <ele>1144.2</ele>
        <time>2024-10-06T09:03:03Z</time>
      </trkpt>
      <trkpt lat="42.9347" lon="1.13173">
        <ele>1144.2</ele>
        <time>2024-10-06T09:03:08Z</time>
      </trkpt>
      <trkpt lat="42.93462" lon="1.13181">
        <ele>1144.2</ele>
        <time>2024-10-06T09:03:14Z</time>
      </trkpt>
      <trkpt lat="42.9346" lon="1.13184">
        <ele>1144.2</ele>
        <time>2024-10-06T09:03:18Z</time>
      </trkpt>
      <trkpt lat="42.93459" lon="1.13184">
        <ele>1144.2</ele>
        <time>2024-10-06T09:03:27Z</time>
      </trkpt>
      <trkpt lat="42.93457" lon="1.13185">
        <ele>1144.2</ele>
        <time>2024-10-06T09:03:28Z</time>
      </trkpt>
      <trkpt lat="42.93449" lon="1.13192">
        <ele>1144.6</ele>
        <time>2024-10-06T09:03:33Z</time>
      </trkpt>
      <trkpt lat="42.93447" lon="1.13193">
        <ele>1145</ele>
        <time>2024-10-06T09:03:34Z</time>
      </trkpt>
      <trkpt lat="42.93445" lon="1.13195">
        <ele>1145.4</ele>
        <time>2024-10-06T09:03:35Z</time>
      </trkpt>
      <trkpt lat="42.93444" lon="1.13196">
        <ele>1145.8</ele>
        <time>2024-10-06T09:03:36Z</time>
      </trkpt>
      <trkpt lat="42.93442" lon="1.13198">
        <ele>1146.2</ele>
        <time>2024-10-06T09:03:37Z</time>
      </trkpt>
      <trkpt lat="42.93437" lon="1.13203">
        <ele>1146.2</ele>
        <time>2024-10-06T09:03:40Z</time>
      </trkpt>
      <trkpt lat="42.93422" lon="1.13214">
        <ele>1146.2</ele>
        <time>2024-10-06T09:03:47Z</time>
      </trkpt>
      <trkpt lat="42.93409" lon="1.13224">
        <ele>1146.2</ele>
        <time>2024-10-06T09:03:53Z</time>
      </trkpt>
      <trkpt lat="42.93401" lon="1.13232">
        <ele>1146.6</ele>
        <time>2024-10-06T09:03:57Z</time>
      </trkpt>
      <trkpt lat="42.93399" lon="1.13234">
        <ele>1147</ele>
        <time>2024-10-06T09:03:58Z</time>
      </trkpt>
      <trkpt lat="42.93397" lon="1.13235">
        <ele>1147.4</ele>
        <time>2024-10-06T09:03:59Z</time>
      </trkpt>
      <trkpt lat="42.93396" lon="1.13237">
        <ele>1147.8</ele>
        <time>2024-10-06T09:04:00Z</time>
      </trkpt>
      <trkpt lat="42.93394" lon="1.1324">
        <ele>1148.2</ele>
        <time>2024-10-06T09:04:01Z</time>
      </trkpt>
      <trkpt lat="42.93386" lon="1.13251">
        <ele>1148.2</ele>
        <time>2024-10-06T09:04:06Z</time>
      </trkpt>
      <trkpt lat="42.93382" lon="1.13264">
        <ele>1148.2</ele>
        <time>2024-10-06T09:04:14Z</time>
      </trkpt>
      <trkpt lat="42.93378" lon="1.13275">
        <ele>1148.2</ele>
        <time>2024-10-06T09:04:19Z</time>
      </trkpt>
      <trkpt lat="42.93375" lon="1.13286">
        <ele>1148.2</ele>
        <time>2024-10-06T09:04:24Z</time>
      </trkpt>
      <trkpt lat="42.93375" lon="1.13291">
        <ele>1148.2</ele>
        <time>2024-10-06T09:04:27Z</time>
      </trkpt>
      <trkpt lat="42.93373" lon="1.13297">
        <ele>1148.2</ele>
        <time>2024-10-06T09:04:30Z</time>
      </trkpt>
      <trkpt lat="42.93368" lon="1.13317">
        <ele>1148.2</ele>
        <time>2024-10-06T09:04:38Z</time>
      </trkpt>
      <trkpt lat="42.93367" lon="1.13323">
        <ele>1148.6</ele>
        <time>2024-10-06T09:04:40Z</time>
      </trkpt>
      <trkpt lat="42.93366" lon="1.13326">
        <ele>1149</ele>
        <time>2024-10-06T09:04:41Z</time>
      </trkpt>
      <trkpt lat="42.93365" lon="1.13328">
        <ele>1149.4</ele>
        <time>2024-10-06T09:04:42Z</time>
      </trkpt>
      <trkpt lat="42.93365" lon="1.1333">
        <ele>1149.8</ele>
        <time>2024-10-06T09:04:43Z</time>
      </trkpt>
      <trkpt lat="42.93365" lon="1.13331">
        <ele>1150.2</ele>
        <time>2024-10-06T09:04:44Z</time>
      </trkpt>
      <trkpt lat="42.93363" lon="1.13344">
        <ele>1150.2</ele>
        <time>2024-10-06T09:04:49Z</time>
      </trkpt>
      <trkpt lat="42.93359" lon="1.13356">
        <ele>1150.2</ele>
        <time>2024-10-06T09:04:54Z</time>
      </trkpt>
      <trkpt lat="42.93359" lon="1.13364">
        <ele>1150.6</ele>
        <time>2024-10-06T09:04:57Z</time>
      </trkpt>
      <trkpt lat="42.93358" lon="1.13368">
        <ele>1151</ele>
        <time>2024-10-06T09:04:58Z</time>
      </trkpt>
      <trkpt lat="42.93359" lon="1.13371">
        <ele>1151.4</ele>
        <time>2024-10-06T09:04:59Z</time>
      </trkpt>
      <trkpt lat="42.93359" lon="1.13373">
        <ele>1151.8</ele>
        <time>2024-10-06T09:05:00Z</time>
      </trkpt>
      <trkpt lat="42.9336" lon="1.13376">
        <ele>1152.2</ele>
        <time>2024-10-06T09:05:01Z</time>
      </trkpt>
      <trkpt lat="42.93364" lon="1.13391">
        <ele>1152.2</ele>
        <time>2024-10-06T09:05:07Z</time>
      </trkpt>
      <trkpt lat="42.93367" lon="1.13398">
        <ele>1152.6</ele>
        <time>2024-10-06T09:05:12Z</time>
      </trkpt>
      <trkpt lat="42.93367" lon="1.134">
        <ele>1153.2</ele>
        <time>2024-10-06T09:05:13Z</time>
      </trkpt>
      <trkpt lat="42.93368" lon="1.13401">
        <ele>1153.6</ele>
        <time>2024-10-06T09:05:14Z</time>
      </trkpt>
      <trkpt lat="42.93369" lon="1.13402">
        <ele>1154</ele>
        <time>2024-10-06T09:05:15Z</time>
      </trkpt>
      <trkpt lat="42.93369" lon="1.13404">
        <ele>1154.4</ele>
        <time>2024-10-06T09:05:16Z</time>
      </trkpt>
      <trkpt lat="42.9337" lon="1.13405">
        <ele>1154.4</ele>
        <time>2024-10-06T09:05:17Z</time>
      </trkpt>
      <trkpt lat="42.93371" lon="1.13407">
        <ele>1154.4</ele>
        <time>2024-10-06T09:05:18Z</time>
      </trkpt>
      <trkpt lat="42.93373" lon="1.1341">
        <ele>1154.4</ele>
        <time>2024-10-06T09:05:21Z</time>
      </trkpt>
      <trkpt lat="42.93374" lon="1.13412">
        <ele>1154.4</ele>
        <time>2024-10-06T09:05:23Z</time>
      </trkpt>
      <trkpt lat="42.93378" lon="1.13418">
        <ele>1154.8</ele>
        <time>2024-10-06T09:05:28Z</time>
      </trkpt>
      <trkpt lat="42.93379" lon="1.13419">
        <ele>1155.6</ele>
        <time>2024-10-06T09:05:29Z</time>
      </trkpt>
      <trkpt lat="42.93379" lon="1.13421">
        <ele>1156</ele>
        <time>2024-10-06T09:05:30Z</time>
      </trkpt>
      <trkpt lat="42.9338" lon="1.13422">
        <ele>1156.4</ele>
        <time>2024-10-06T09:05:31Z</time>
      </trkpt>
      <trkpt lat="42.93381" lon="1.13425">
        <ele>1156.4</ele>
        <time>2024-10-06T09:05:33Z</time>
      </trkpt>
      <trkpt lat="42.93383" lon="1.13428">
        <ele>1156.4</ele>
        <time>2024-10-06T09:05:35Z</time>
      </trkpt>
      <trkpt lat="42.93392" lon="1.13436">
        <ele>1156.4</ele>
        <time>2024-10-06T09:05:42Z</time>
      </trkpt>
      <trkpt lat="42.93394" lon="1.13437">
        <ele>1156.8</ele>
        <time>2024-10-06T09:05:43Z</time>
      </trkpt>
      <trkpt lat="42.93396" lon="1.13439">
        <ele>1157.4</ele>
        <time>2024-10-06T09:05:44Z</time>
      </trkpt>
      <trkpt lat="42.93397" lon="1.13441">
        <ele>1157.8</ele>
        <time>2024-10-06T09:05:45Z</time>
      </trkpt>
      <trkpt lat="42.93399" lon="1.13442">
        <ele>1158.2</ele>
        <time>2024-10-06T09:05:46Z</time>
      </trkpt>
      <trkpt lat="42.934" lon="1.13444">
        <ele>1158.6</ele>
        <time>2024-10-06T09:05:47Z</time>
      </trkpt>
      <trkpt lat="42.93402" lon="1.13446">
        <ele>1158.6</ele>
        <time>2024-10-06T09:05:48Z</time>
      </trkpt>
      <trkpt lat="42.93406" lon="1.13459">
        <ele>1158.6</ele>
        <time>2024-10-06T09:05:53Z</time>
      </trkpt>
      <trkpt lat="42.93403" lon="1.13472">
        <ele>1158.6</ele>
        <time>2024-10-06T09:05:58Z</time>
      </trkpt>
      <trkpt lat="42.93401" lon="1.13476">
        <ele>1159</ele>
        <time>2024-10-06T09:06:00Z</time>
      </trkpt>
      <trkpt lat="42.93399" lon="1.13477">
        <ele>1159.4</ele>
        <time>2024-10-06T09:06:01Z</time>
      </trkpt>
      <trkpt lat="42.93398" lon="1.13478">
        <ele>1159.8</ele>
        <time>2024-10-06T09:06:02Z</time>
      </trkpt>
      <trkpt lat="42.93396" lon="1.1348">
        <ele>1160.2</ele>
        <time>2024-10-06T09:06:03Z</time>
      </trkpt>
      <trkpt lat="42.93395" lon="1.1348">
        <ele>1160.6</ele>
        <time>2024-10-06T09:06:04Z</time>
      </trkpt>
      <trkpt lat="42.93383" lon="1.13486">
        <ele>1160.6</ele>
        <time>2024-10-06T09:06:10Z</time>
      </trkpt>
      <trkpt lat="42.93372" lon="1.13494">
        <ele>1160.6</ele>
        <time>2024-10-06T09:06:16Z</time>
      </trkpt>
      <trkpt lat="42.93368" lon="1.13497">
        <ele>1161</ele>
        <time>2024-10-06T09:06:18Z</time>
      </trkpt>
      <trkpt lat="42.93365" lon="1.13498">
        <ele>1161.8</ele>
        <time>2024-10-06T09:06:19Z</time>
      </trkpt>
      <trkpt lat="42.93363" lon="1.135">
        <ele>1162.2</ele>
        <time>2024-10-06T09:06:20Z</time>
      </trkpt>
      <trkpt lat="42.93359" lon="1.13502">
        <ele>1162.6</ele>
        <time>2024-10-06T09:06:21Z</time>
      </trkpt>
      <trkpt lat="42.93354" lon="1.13505">
        <ele>1162.6</ele>
        <time>2024-10-06T09:06:23Z</time>
      </trkpt>
      <trkpt lat="42.93346" lon="1.13512">
        <ele>1162.6</ele>
        <time>2024-10-06T09:06:27Z</time>
      </trkpt>
      <trkpt lat="42.93332" lon="1.13522">
        <ele>1163</ele>
        <time>2024-10-06T09:06:33Z</time>
      </trkpt>
      <trkpt lat="42.9333" lon="1.13523">
        <ele>1163.4</ele>
        <time>2024-10-06T09:06:34Z</time>
      </trkpt>
      <trkpt lat="42.93328" lon="1.13525">
        <ele>1163.8</ele>
        <time>2024-10-06T09:06:35Z</time>
      </trkpt>
      <trkpt lat="42.93326" lon="1.13526">
        <ele>1164.2</ele>
        <time>2024-10-06T09:06:36Z</time>
      </trkpt>
      <trkpt lat="42.93323" lon="1.13528">
        <ele>1164.6</ele>
        <time>2024-10-06T09:06:37Z</time>
      </trkpt>
      <trkpt lat="42.93315" lon="1.13531">
        <ele>1164.6</ele>
        <time>2024-10-06T09:06:41Z</time>
      </trkpt>
      <trkpt lat="42.93304" lon="1.13535">
        <ele>1165</ele>
        <time>2024-10-06T09:06:47Z</time>
      </trkpt>
      <trkpt lat="42.93302" lon="1.13535">
        <ele>1165.4</ele>
        <time>2024-10-06T09:06:48Z</time>
      </trkpt>
      <trkpt lat="42.933" lon="1.13536">
        <ele>1165.8</ele>
        <time>2024-10-06T09:06:49Z</time>
      </trkpt>
      <trkpt lat="42.93298" lon="1.13537">
        <ele>1166.4</ele>
        <time>2024-10-06T09:06:50Z</time>
      </trkpt>
      <trkpt lat="42.93296" lon="1.13537">
        <ele>1166.8</ele>
        <time>2024-10-06T09:06:51Z</time>
      </trkpt>
      <trkpt lat="42.93294" lon="1.13537">
        <ele>1166.8</ele>
        <time>2024-10-06T09:06:52Z</time>
      </trkpt>
      <trkpt lat="42.93282" lon="1.13537">
        <ele>1166.8</ele>
        <time>2024-10-06T09:06:58Z</time>
      </trkpt>
      <trkpt lat="42.93278" lon="1.13537">
        <ele>1167.2</ele>
        <time>2024-10-06T09:07:00Z</time>
      </trkpt>
      <trkpt lat="42.93276" lon="1.13537">
        <ele>1167.6</ele>
        <time>2024-10-06T09:07:01Z</time>
      </trkpt>
      <trkpt lat="42.93274" lon="1.13537">
        <ele>1168</ele>
        <time>2024-10-06T09:07:02Z</time>
      </trkpt>
      <trkpt lat="42.93272" lon="1.13538">
        <ele>1168.4</ele>
        <time>2024-10-06T09:07:03Z</time>
      </trkpt>
      <trkpt lat="42.9327" lon="1.13538">
        <ele>1168.8</ele>
        <time>2024-10-06T09:07:04Z</time>
      </trkpt>
      <trkpt lat="42.9326" lon="1.13539">
        <ele>1169.4</ele>
        <time>2024-10-06T09:07:09Z</time>
      </trkpt>
      <trkpt lat="42.93257" lon="1.13539">
        <ele>1169.8</ele>
        <time>2024-10-06T09:07:10Z</time>
      </trkpt>
      <trkpt lat="42.93255" lon="1.13539">
        <ele>1170.2</ele>
        <time>2024-10-06T09:07:11Z</time>
      </trkpt>
      <trkpt lat="42.93253" lon="1.1354">
        <ele>1170.6</ele>
        <time>2024-10-06T09:07:12Z</time>
      </trkpt>
      <trkpt lat="42.93251" lon="1.1354">
        <ele>1171</ele>
        <time>2024-10-06T09:07:13Z</time>
      </trkpt>
      <trkpt lat="42.93245" lon="1.13541">
        <ele>1171</ele>
        <time>2024-10-06T09:07:16Z</time>
      </trkpt>
      <trkpt lat="42.93243" lon="1.13542">
        <ele>1171</ele>
        <time>2024-10-06T09:07:17Z</time>
      </trkpt>
      <trkpt lat="42.93238" lon="1.13543">
        <ele>1171.4</ele>
        <time>2024-10-06T09:07:19Z</time>
      </trkpt>
      <trkpt lat="42.93236" lon="1.13544">
        <ele>1172</ele>
        <time>2024-10-06T09:07:20Z</time>
      </trkpt>
      <trkpt lat="42.93234" lon="1.13544">
        <ele>1172.4</ele>
        <time>2024-10-06T09:07:21Z</time>
      </trkpt>
      <trkpt lat="42.93232" lon="1.13544">
        <ele>1172.8</ele>
        <time>2024-10-06T09:07:22Z</time>
      </trkpt>
      <trkpt lat="42.9323" lon="1.13545">
        <ele>1173.2</ele>
        <time>2024-10-06T09:07:23Z</time>
      </trkpt>
      <trkpt lat="42.93227" lon="1.13546">
        <ele>1173.2</ele>
        <time>2024-10-06T09:07:24Z</time>
      </trkpt>
      <trkpt lat="42.93213" lon="1.13549">
        <ele>1173.2</ele>
        <time>2024-10-06T09:07:30Z</time>
      </trkpt>
      <trkpt lat="42.93204" lon="1.1355">
        <ele>1174</ele>
        <time>2024-10-06T09:07:33Z</time>
      </trkpt>
      <trkpt lat="42.93201" lon="1.13551">
        <ele>1174.4</ele>
        <time>2024-10-06T09:07:34Z</time>
      </trkpt>
      <trkpt lat="42.93198" lon="1.13551">
        <ele>1174.8</ele>
        <time>2024-10-06T09:07:35Z</time>
      </trkpt>
      <trkpt lat="42.93196" lon="1.13552">
        <ele>1175.2</ele>
        <time>2024-10-06T09:07:36Z</time>
      </trkpt>
      <trkpt lat="42.93185" lon="1.13553">
        <ele>1175.2</ele>
        <time>2024-10-06T09:07:40Z</time>
      </trkpt>
      <trkpt lat="42.93171" lon="1.13553">
        <ele>1175.2</ele>
        <time>2024-10-06T09:07:45Z</time>
      </trkpt>
      <trkpt lat="42.9317" lon="1.13553">
        <ele>1175.2</ele>
        <time>2024-10-06T09:07:46Z</time>
      </trkpt>
      <trkpt lat="42.93169" lon="1.13556">
        <ele>1175.2</ele>
        <time>2024-10-06T09:10:38Z</time>
      </trkpt>
      <trkpt lat="42.93171" lon="1.13558">
        <ele>1175.2</ele>
        <time>2024-10-06T09:10:39Z</time>
      </trkpt>
      <trkpt lat="42.93175" lon="1.13561">
        <ele>1175.8</ele>
        <time>2024-10-06T09:10:42Z</time>
      </trkpt>
      <trkpt lat="42.93177" lon="1.13561">
        <ele>1176.2</ele>
        <time>2024-10-06T09:10:43Z</time>
      </trkpt>
      <trkpt lat="42.93178" lon="1.13562">
        <ele>1177.2</ele>
        <time>2024-10-06T09:10:44Z</time>
      </trkpt>
      <trkpt lat="42.93179" lon="1.13563">
        <ele>1177.6</ele>
        <time>2024-10-06T09:10:45Z</time>
      </trkpt>
      <trkpt lat="42.9318" lon="1.13565">
        <ele>1178.2</ele>
        <time>2024-10-06T09:10:46Z</time>
      </trkpt>
      <trkpt lat="42.93182" lon="1.13566">
        <ele>1178.6</ele>
        <time>2024-10-06T09:10:47Z</time>
      </trkpt>
      <trkpt lat="42.93183" lon="1.13568">
        <ele>1179.2</ele>
        <time>2024-10-06T09:10:48Z</time>
      </trkpt>
      <trkpt lat="42.93185" lon="1.13569">
        <ele>1179.6</ele>
        <time>2024-10-06T09:10:49Z</time>
      </trkpt>
      <trkpt lat="42.93187" lon="1.1357">
        <ele>1180.2</ele>
        <time>2024-10-06T09:10:50Z</time>
      </trkpt>
      <trkpt lat="42.93189" lon="1.13571">
        <ele>1180.6</ele>
        <time>2024-10-06T09:10:51Z</time>
      </trkpt>
      <trkpt lat="42.93191" lon="1.13571">
        <ele>1181</ele>
        <time>2024-10-06T09:10:52Z</time>
      </trkpt>
      <trkpt lat="42.93193" lon="1.13572">
        <ele>1181.4</ele>
        <time>2024-10-06T09:10:53Z</time>
      </trkpt>
      <trkpt lat="42.93194" lon="1.13573">
        <ele>1181.8</ele>
        <time>2024-10-06T09:10:54Z</time>
      </trkpt>
      <trkpt lat="42.932" lon="1.13577">
        <ele>1182.2</ele>
        <time>2024-10-06T09:10:57Z</time>
      </trkpt>
      <trkpt lat="42.93201" lon="1.13578">
        <ele>1182.6</ele>
        <time>2024-10-06T09:10:58Z</time>
      </trkpt>
      <trkpt lat="42.93203" lon="1.1358">
        <ele>1183</ele>
        <time>2024-10-06T09:10:59Z</time>
      </trkpt>
      <trkpt lat="42.93205" lon="1.13581">
        <ele>1183.6</ele>
        <time>2024-10-06T09:11:00Z</time>
      </trkpt>
      <trkpt lat="42.93206" lon="1.13582">
        <ele>1184</ele>
        <time>2024-10-06T09:11:01Z</time>
      </trkpt>
      <trkpt lat="42.93208" lon="1.13583">
        <ele>1184.4</ele>
        <time>2024-10-06T09:11:02Z</time>
      </trkpt>
      <trkpt lat="42.93209" lon="1.13585">
        <ele>1184.8</ele>
        <time>2024-10-06T09:11:03Z</time>
      </trkpt>
      <trkpt lat="42.93211" lon="1.13587">
        <ele>1185.2</ele>
        <time>2024-10-06T09:11:04Z</time>
      </trkpt>
      <trkpt lat="42.93213" lon="1.13588">
        <ele>1185.6</ele>
        <time>2024-10-06T09:11:05Z</time>
      </trkpt>
      <trkpt lat="42.93215" lon="1.13589">
        <ele>1186.2</ele>
        <time>2024-10-06T09:11:06Z</time>
      </trkpt>
      <trkpt lat="42.93217" lon="1.13591">
        <ele>1186.6</ele>
        <time>2024-10-06T09:11:07Z</time>
      </trkpt>
      <trkpt lat="42.93219" lon="1.13592">
        <ele>1187</ele>
        <time>2024-10-06T09:11:08Z</time>
      </trkpt>
      <trkpt lat="42.93221" lon="1.13594">
        <ele>1187.8</ele>
        <time>2024-10-06T09:11:09Z</time>
      </trkpt>
      <trkpt lat="42.93223" lon="1.13597">
        <ele>1188.2</ele>
        <time>2024-10-06T09:11:10Z</time>
      </trkpt>
      <trkpt lat="42.93232" lon="1.13608">
        <ele>1188.6</ele>
        <time>2024-10-06T09:11:14Z</time>
      </trkpt>
      <trkpt lat="42.93233" lon="1.13611">
        <ele>1189</ele>
        <time>2024-10-06T09:11:15Z</time>
      </trkpt>
      <trkpt lat="42.93235" lon="1.13615">
        <ele>1189.4</ele>
        <time>2024-10-06T09:11:16Z</time>
      </trkpt>
      <trkpt lat="42.93237" lon="1.13617">
        <ele>1189.8</ele>
        <time>2024-10-06T09:11:17Z</time>
      </trkpt>
      <trkpt lat="42.93239" lon="1.1362">
        <ele>1190.2</ele>
        <time>2024-10-06T09:11:18Z</time>
      </trkpt>
      <trkpt lat="42.93241" lon="1.13622">
        <ele>1190.2</ele>
        <time>2024-10-06T09:11:19Z</time>
      </trkpt>
      <trkpt lat="42.93242" lon="1.13625">
        <ele>1190.2</ele>
        <time>2024-10-06T09:11:20Z</time>
      </trkpt>
      <trkpt lat="42.93244" lon="1.1363">
        <ele>1190.6</ele>
        <time>2024-10-06T09:11:22Z</time>
      </trkpt>
      <trkpt lat="42.93245" lon="1.13633">
        <ele>1191</ele>
        <time>2024-10-06T09:11:23Z</time>
      </trkpt>
      <trkpt lat="42.93246" lon="1.13637">
        <ele>1191.4</ele>
        <time>2024-10-06T09:11:24Z</time>
      </trkpt>
      <trkpt lat="42.93247" lon="1.1364">
        <ele>1191.8</ele>
        <time>2024-10-06T09:11:25Z</time>
      </trkpt>
      <trkpt lat="42.93248" lon="1.13643">
        <ele>1192.4</ele>
        <time>2024-10-06T09:11:26Z</time>
      </trkpt>
      <trkpt lat="42.9325" lon="1.13651">
        <ele>1192.4</ele>
        <time>2024-10-06T09:11:28Z</time>
      </trkpt>
      <trkpt lat="42.9325" lon="1.13654">
        <ele>1192.8</ele>
        <time>2024-10-06T09:11:29Z</time>
      </trkpt>
      <trkpt lat="42.9325" lon="1.13657">
        <ele>1193.2</ele>
        <time>2024-10-06T09:11:30Z</time>
      </trkpt>
      <trkpt lat="42.9325" lon="1.13661">
        <ele>1193.6</ele>
        <time>2024-10-06T09:11:31Z</time>
      </trkpt>
      <trkpt lat="42.9325" lon="1.13664">
        <ele>1194</ele>
        <time>2024-10-06T09:11:32Z</time>
      </trkpt>
      <trkpt lat="42.93251" lon="1.13667">
        <ele>1194.4</ele>
        <time>2024-10-06T09:11:33Z</time>
      </trkpt>
      <trkpt lat="42.93251" lon="1.13669">
        <ele>1194.4</ele>
        <time>2024-10-06T09:11:34Z</time>
      </trkpt>
      <trkpt lat="42.93252" lon="1.13671">
        <ele>1194.4</ele>
        <time>2024-10-06T09:11:35Z</time>
      </trkpt>
      <trkpt lat="42.93254" lon="1.13679">
        <ele>1194.4</ele>
        <time>2024-10-06T09:11:38Z</time>
      </trkpt>
      <trkpt lat="42.93258" lon="1.13696">
        <ele>1194.4</ele>
        <time>2024-10-06T09:11:45Z</time>
      </trkpt>
      <trkpt lat="42.93257" lon="1.13716">
        <ele>1194.4</ele>
        <time>2024-10-06T09:11:51Z</time>
      </trkpt>
      <trkpt lat="42.93258" lon="1.13719">
        <ele>1194.4</ele>
        <time>2024-10-06T09:11:52Z</time>
      </trkpt>
      <trkpt lat="42.93256" lon="1.13727">
        <ele>1194.4</ele>
        <time>2024-10-06T09:11:55Z</time>
      </trkpt>
      <trkpt lat="42.93255" lon="1.13732">
        <ele>1194.4</ele>
        <time>2024-10-06T09:11:58Z</time>
      </trkpt>
      <trkpt lat="42.93253" lon="1.13738">
        <ele>1194.4</ele>
        <time>2024-10-06T09:12:02Z</time>
      </trkpt>
      <trkpt lat="42.9325" lon="1.13749">
        <ele>1194.4</ele>
        <time>2024-10-06T09:12:07Z</time>
      </trkpt>
      <trkpt lat="42.93248" lon="1.1376">
        <ele>1194.4</ele>
        <time>2024-10-06T09:12:12Z</time>
      </trkpt>
      <trkpt lat="42.93248" lon="1.13762">
        <ele>1194.4</ele>
        <time>2024-10-06T09:12:13Z</time>
      </trkpt>
      <trkpt lat="42.93249" lon="1.13765">
        <ele>1195</ele>
        <time>2024-10-06T09:12:14Z</time>
      </trkpt>
      <trkpt lat="42.93249" lon="1.13767">
        <ele>1195.4</ele>
        <time>2024-10-06T09:12:15Z</time>
      </trkpt>
      <trkpt lat="42.93249" lon="1.1377">
        <ele>1195.8</ele>
        <time>2024-10-06T09:12:16Z</time>
      </trkpt>
      <trkpt lat="42.93249" lon="1.13773">
        <ele>1196.2</ele>
        <time>2024-10-06T09:12:17Z</time>
      </trkpt>
      <trkpt lat="42.9325" lon="1.13776">
        <ele>1196.6</ele>
        <time>2024-10-06T09:12:18Z</time>
      </trkpt>
      <trkpt lat="42.9325" lon="1.13781">
        <ele>1196.6</ele>
        <time>2024-10-06T09:12:20Z</time>
      </trkpt>
      <trkpt lat="42.93253" lon="1.13791">
        <ele>1196.6</ele>
        <time>2024-10-06T09:12:24Z</time>
      </trkpt>
      <trkpt lat="42.93253" lon="1.13793">
        <ele>1197</ele>
        <time>2024-10-06T09:12:25Z</time>
      </trkpt>
      <trkpt lat="42.93254" lon="1.13795">
        <ele>1197.4</ele>
        <time>2024-10-06T09:12:26Z</time>
      </trkpt>
      <trkpt lat="42.93255" lon="1.13798">
        <ele>1198</ele>
        <time>2024-10-06T09:12:27Z</time>
      </trkpt>
      <trkpt lat="42.93256" lon="1.13801">
        <ele>1198.4</ele>
        <time>2024-10-06T09:12:28Z</time>
      </trkpt>
      <trkpt lat="42.93256" lon="1.13804">
        <ele>1198.8</ele>
        <time>2024-10-06T09:12:29Z</time>
      </trkpt>
      <trkpt lat="42.93256" lon="1.13806">
        <ele>1198.8</ele>
        <time>2024-10-06T09:12:30Z</time>
      </trkpt>
      <trkpt lat="42.93259" lon="1.13818">
        <ele>1198.8</ele>
        <time>2024-10-06T09:12:36Z</time>
      </trkpt>
      <trkpt lat="42.93263" lon="1.13828">
        <ele>1199.2</ele>
        <time>2024-10-06T09:12:40Z</time>
      </trkpt>
      <trkpt lat="42.93264" lon="1.1383">
        <ele>1199.6</ele>
        <time>2024-10-06T09:12:41Z</time>
      </trkpt>
      <trkpt lat="42.93265" lon="1.13832">
        <ele>1200</ele>
        <time>2024-10-06T09:12:42Z</time>
      </trkpt>
      <trkpt lat="42.93266" lon="1.13834">
        <ele>1200.4</ele>
        <time>2024-10-06T09:12:43Z</time>
      </trkpt>
      <trkpt lat="42.93267" lon="1.13835">
        <ele>1200.8</ele>
        <time>2024-10-06T09:12:44Z</time>
      </trkpt>
      <trkpt lat="42.93269" lon="1.1384">
        <ele>1200.8</ele>
        <time>2024-10-06T09:12:47Z</time>
      </trkpt>
      <trkpt lat="42.93271" lon="1.13844">
        <ele>1200.8</ele>
        <time>2024-10-06T09:12:50Z</time>
      </trkpt>
      <trkpt lat="42.93273" lon="1.13848">
        <ele>1200.8</ele>
        <time>2024-10-06T09:12:52Z</time>
      </trkpt>
      <trkpt lat="42.93273" lon="1.1385">
        <ele>1200.8</ele>
        <time>2024-10-06T09:12:53Z</time>
      </trkpt>
      <trkpt lat="42.93273" lon="1.13859">
        <ele>1200.8</ele>
        <time>2024-10-06T09:12:57Z</time>
      </trkpt>
      <trkpt lat="42.93273" lon="1.13864">
        <ele>1201.2</ele>
        <time>2024-10-06T09:12:59Z</time>
      </trkpt>
      <trkpt lat="42.93274" lon="1.13866">
        <ele>1201.6</ele>
        <time>2024-10-06T09:13:00Z</time>
      </trkpt>
      <trkpt lat="42.93274" lon="1.13869">
        <ele>1202</ele>
        <time>2024-10-06T09:13:01Z</time>
      </trkpt>
      <trkpt lat="42.93274" lon="1.13871">
        <ele>1202.4</ele>
        <time>2024-10-06T09:13:02Z</time>
      </trkpt>
      <trkpt lat="42.93274" lon="1.13876">
        <ele>1202.8</ele>
        <time>2024-10-06T09:13:03Z</time>
      </trkpt>
      <trkpt lat="42.93275" lon="1.13885">
        <ele>1202.8</ele>
        <time>2024-10-06T09:13:07Z</time>
      </trkpt>
      <trkpt lat="42.93273" lon="1.13889">
        <ele>1203.2</ele>
        <time>2024-10-06T09:13:09Z</time>
      </trkpt>
      <trkpt lat="42.93272" lon="1.13891">
        <ele>1203.8</ele>
        <time>2024-10-06T09:13:10Z</time>
      </trkpt>
      <trkpt lat="42.93271" lon="1.13893">
        <ele>1204.2</ele>
        <time>2024-10-06T09:13:11Z</time>
      </trkpt>
      <trkpt lat="42.93269" lon="1.13894">
        <ele>1204.6</ele>
        <time>2024-10-06T09:13:12Z</time>
      </trkpt>
      <trkpt lat="42.93268" lon="1.13895">
        <ele>1205</ele>
        <time>2024-10-06T09:13:13Z</time>
      </trkpt>
      <trkpt lat="42.93267" lon="1.13897">
        <ele>1205</ele>
        <time>2024-10-06T09:13:14Z</time>
      </trkpt>
      <trkpt lat="42.93265" lon="1.13902">
        <ele>1205.4</ele>
        <time>2024-10-06T09:13:17Z</time>
      </trkpt>
      <trkpt lat="42.93265" lon="1.13904">
        <ele>1206</ele>
        <time>2024-10-06T09:13:18Z</time>
      </trkpt>
      <trkpt lat="42.93264" lon="1.13905">
        <ele>1206.4</ele>
        <time>2024-10-06T09:13:19Z</time>
      </trkpt>
      <trkpt lat="42.93263" lon="1.13906">
        <ele>1206.8</ele>
        <time>2024-10-06T09:13:20Z</time>
      </trkpt>
      <trkpt lat="42.93262" lon="1.13908">
        <ele>1207.2</ele>
        <time>2024-10-06T09:13:21Z</time>
      </trkpt>
      <trkpt lat="42.93261" lon="1.13914">
        <ele>1207.2</ele>
        <time>2024-10-06T09:13:24Z</time>
      </trkpt>
      <trkpt lat="42.93261" lon="1.13919">
        <ele>1207.2</ele>
        <time>2024-10-06T09:13:27Z</time>
      </trkpt>
      <trkpt lat="42.93263" lon="1.13926">
        <ele>1207.2</ele>
        <time>2024-10-06T09:13:30Z</time>
      </trkpt>
      <trkpt lat="42.93267" lon="1.13945">
        <ele>1207.2</ele>
        <time>2024-10-06T09:13:37Z</time>
      </trkpt>
      <trkpt lat="42.93269" lon="1.1395">
        <ele>1207.2</ele>
        <time>2024-10-06T09:13:39Z</time>
      </trkpt>
      <trkpt lat="42.93272" lon="1.13955">
        <ele>1207.2</ele>
        <time>2024-10-06T09:13:41Z</time>
      </trkpt>
      <trkpt lat="42.93274" lon="1.13956">
        <ele>1207.2</ele>
        <time>2024-10-06T09:13:42Z</time>
      </trkpt>
      <trkpt lat="42.93281" lon="1.13962">
        <ele>1207.2</ele>
        <time>2024-10-06T09:13:47Z</time>
      </trkpt>
      <trkpt lat="42.93285" lon="1.13963">
        <ele>1207.2</ele>
        <time>2024-10-06T09:13:49Z</time>
      </trkpt>
      <trkpt lat="42.93286" lon="1.13964">
        <ele>1207.2</ele>
        <time>2024-10-06T09:13:50Z</time>
      </trkpt>
      <trkpt lat="42.93294" lon="1.13973">
        <ele>1206.8</ele>
        <time>2024-10-06T09:13:55Z</time>
      </trkpt>
      <trkpt lat="42.93296" lon="1.13976">
        <ele>1206.4</ele>
        <time>2024-10-06T09:13:56Z</time>
      </trkpt>
      <trkpt lat="42.93298" lon="1.13979">
        <ele>1206</ele>
        <time>2024-10-06T09:13:57Z</time>
      </trkpt>
      <trkpt lat="42.93301" lon="1.13983">
        <ele>1205.4</ele>
        <time>2024-10-06T09:13:58Z</time>
      </trkpt>
      <trkpt lat="42.93304" lon="1.13986">
        <ele>1205</ele>
        <time>2024-10-06T09:13:59Z</time>
      </trkpt>
      <trkpt lat="42.93307" lon="1.13988">
        <ele>1205</ele>
        <time>2024-10-06T09:14:00Z</time>
      </trkpt>
      <trkpt lat="42.93318" lon="1.14004">
        <ele>1205</ele>
        <time>2024-10-06T09:14:05Z</time>
      </trkpt>
      <trkpt lat="42.93328" lon="1.14012">
        <ele>1205</ele>
        <time>2024-10-06T09:14:09Z</time>
      </trkpt>
      <trkpt lat="42.9334" lon="1.14023">
        <ele>1205</ele>
        <time>2024-10-06T09:14:15Z</time>
      </trkpt>
      <trkpt lat="42.93342" lon="1.14026">
        <ele>1205.6</ele>
        <time>2024-10-06T09:14:16Z</time>
      </trkpt>
      <trkpt lat="42.93344" lon="1.14027">
        <ele>1206</ele>
        <time>2024-10-06T09:14:17Z</time>
      </trkpt>
      <trkpt lat="42.93345" lon="1.14029">
        <ele>1206.4</ele>
        <time>2024-10-06T09:14:18Z</time>
      </trkpt>
      <trkpt lat="42.93347" lon="1.14031">
        <ele>1206.8</ele>
        <time>2024-10-06T09:14:19Z</time>
      </trkpt>
      <trkpt lat="42.93348" lon="1.14032">
        <ele>1207.4</ele>
        <time>2024-10-06T09:14:20Z</time>
      </trkpt>
      <trkpt lat="42.93351" lon="1.14036">
        <ele>1207.8</ele>
        <time>2024-10-06T09:14:22Z</time>
      </trkpt>
      <trkpt lat="42.93353" lon="1.14038">
        <ele>1208.2</ele>
        <time>2024-10-06T09:14:23Z</time>
      </trkpt>
      <trkpt lat="42.93355" lon="1.1404">
        <ele>1208.6</ele>
        <time>2024-10-06T09:14:24Z</time>
      </trkpt>
      <trkpt lat="42.93358" lon="1.14043">
        <ele>1209</ele>
        <time>2024-10-06T09:14:25Z</time>
      </trkpt>
      <trkpt lat="42.9336" lon="1.14047">
        <ele>1209.4</ele>
        <time>2024-10-06T09:14:26Z</time>
      </trkpt>
      <trkpt lat="42.93365" lon="1.14054">
        <ele>1209.8</ele>
        <time>2024-10-06T09:14:28Z</time>
      </trkpt>
      <trkpt lat="42.93367" lon="1.14056">
        <ele>1210.4</ele>
        <time>2024-10-06T09:14:29Z</time>
      </trkpt>
      <trkpt lat="42.93369" lon="1.14059">
        <ele>1210.8</ele>
        <time>2024-10-06T09:14:30Z</time>
      </trkpt>
      <trkpt lat="42.93372" lon="1.14062">
        <ele>1211.2</ele>
        <time>2024-10-06T09:14:31Z</time>
      </trkpt>
      <trkpt lat="42.93373" lon="1.14063">
        <ele>1211.6</ele>
        <time>2024-10-06T09:14:32Z</time>
      </trkpt>
      <trkpt lat="42.93376" lon="1.14065">
        <ele>1211.6</ele>
        <time>2024-10-06T09:14:33Z</time>
      </trkpt>
      <trkpt lat="42.93383" lon="1.14065">
        <ele>1212.2</ele>
        <time>2024-10-06T09:14:37Z</time>
      </trkpt>
      <trkpt lat="42.93387" lon="1.14065">
        <ele>1212.6</ele>
        <time>2024-10-06T09:14:38Z</time>
      </trkpt>
      <trkpt lat="42.9339" lon="1.14066">
        <ele>1213</ele>
        <time>2024-10-06T09:14:39Z</time>
      </trkpt>
      <trkpt lat="42.93392" lon="1.14067">
        <ele>1213.6</ele>
        <time>2024-10-06T09:14:40Z</time>
      </trkpt>
      <trkpt lat="42.93394" lon="1.14066">
        <ele>1214</ele>
        <time>2024-10-06T09:14:41Z</time>
      </trkpt>
      <trkpt lat="42.93397" lon="1.14067">
        <ele>1214</ele>
        <time>2024-10-06T09:14:42Z</time>
      </trkpt>
      <trkpt lat="42.93407" lon="1.14066">
        <ele>1214.4</ele>
        <time>2024-10-06T09:14:45Z</time>
      </trkpt>
      <trkpt lat="42.93409" lon="1.14067">
        <ele>1214.8</ele>
        <time>2024-10-06T09:14:46Z</time>
      </trkpt>
      <trkpt lat="42.9341" lon="1.14067">
        <ele>1215.2</ele>
        <time>2024-10-06T09:14:47Z</time>
      </trkpt>
      <trkpt lat="42.93412" lon="1.14068">
        <ele>1215.6</ele>
        <time>2024-10-06T09:14:48Z</time>
      </trkpt>
      <trkpt lat="42.93414" lon="1.14067">
        <ele>1216</ele>
        <time>2024-10-06T09:14:49Z</time>
      </trkpt>
      <trkpt lat="42.9342" lon="1.14069">
        <ele>1216</ele>
        <time>2024-10-06T09:14:53Z</time>
      </trkpt>
      <trkpt lat="42.93421" lon="1.14069">
        <ele>1216.4</ele>
        <time>2024-10-06T09:14:54Z</time>
      </trkpt>
      <trkpt lat="42.93423" lon="1.14069">
        <ele>1216.8</ele>
        <time>2024-10-06T09:14:55Z</time>
      </trkpt>
      <trkpt lat="42.93423" lon="1.14068">
        <ele>1217.2</ele>
        <time>2024-10-06T09:14:56Z</time>
      </trkpt>
      <trkpt lat="42.93425" lon="1.14068">
        <ele>1217.6</ele>
        <time>2024-10-06T09:14:57Z</time>
      </trkpt>
      <trkpt lat="42.93427" lon="1.14068">
        <ele>1218</ele>
        <time>2024-10-06T09:14:58Z</time>
      </trkpt>
      <trkpt lat="42.9343" lon="1.14068">
        <ele>1218</ele>
        <time>2024-10-06T09:15:00Z</time>
      </trkpt>
      <trkpt lat="42.93437" lon="1.1407">
        <ele>1218</ele>
        <time>2024-10-06T09:15:04Z</time>
      </trkpt>
      <trkpt lat="42.9344" lon="1.1407">
        <ele>1218</ele>
        <time>2024-10-06T09:15:06Z</time>
      </trkpt>
      <trkpt lat="42.93444" lon="1.1407">
        <ele>1218</ele>
        <time>2024-10-06T09:15:09Z</time>
      </trkpt>
      <trkpt lat="42.93453" lon="1.14065">
        <ele>1218</ele>
        <time>2024-10-06T09:15:16Z</time>
      </trkpt>
      <trkpt lat="42.93457" lon="1.14066">
        <ele>1218.6</ele>
        <time>2024-10-06T09:15:18Z</time>
      </trkpt>
      <trkpt lat="42.93459" lon="1.14066">
        <ele>1219</ele>
        <time>2024-10-06T09:15:19Z</time>
      </trkpt>
      <trkpt lat="42.9346" lon="1.14066">
        <ele>1219.4</ele>
        <time>2024-10-06T09:15:20Z</time>
      </trkpt>
      <trkpt lat="42.93461" lon="1.14065">
        <ele>1219.8</ele>
        <time>2024-10-06T09:15:21Z</time>
      </trkpt>
      <trkpt lat="42.93464" lon="1.14064">
        <ele>1220.2</ele>
        <time>2024-10-06T09:15:22Z</time>
      </trkpt>
      <trkpt lat="42.93468" lon="1.14061">
        <ele>1220.2</ele>
        <time>2024-10-06T09:15:24Z</time>
      </trkpt>
      <trkpt lat="42.93472" lon="1.14055">
        <ele>1220.2</ele>
        <time>2024-10-06T09:15:29Z</time>
      </trkpt>
      <trkpt lat="42.93478" lon="1.14048">
        <ele>1220.6</ele>
        <time>2024-10-06T09:15:33Z</time>
      </trkpt>
      <trkpt lat="42.9348" lon="1.14046">
        <ele>1221</ele>
        <time>2024-10-06T09:15:34Z</time>
      </trkpt>
      <trkpt lat="42.93482" lon="1.14045">
        <ele>1221.4</ele>
        <time>2024-10-06T09:15:35Z</time>
      </trkpt>
      <trkpt lat="42.93484" lon="1.14044">
        <ele>1221.8</ele>
        <time>2024-10-06T09:15:36Z</time>
      </trkpt>
      <trkpt lat="42.93486" lon="1.14043">
        <ele>1222.2</ele>
        <time>2024-10-06T09:15:37Z</time>
      </trkpt>
      <trkpt lat="42.93497" lon="1.14045">
        <ele>1222.2</ele>
        <time>2024-10-06T09:15:44Z</time>
      </trkpt>
      <trkpt lat="42.93501" lon="1.14046">
        <ele>1222.6</ele>
        <time>2024-10-06T09:15:46Z</time>
      </trkpt>
      <trkpt lat="42.93504" lon="1.14046">
        <ele>1223</ele>
        <time>2024-10-06T09:15:47Z</time>
      </trkpt>
      <trkpt lat="42.93506" lon="1.14045">
        <ele>1223.4</ele>
        <time>2024-10-06T09:15:48Z</time>
      </trkpt>
      <trkpt lat="42.93508" lon="1.14044">
        <ele>1223.8</ele>
        <time>2024-10-06T09:15:49Z</time>
      </trkpt>
      <trkpt lat="42.9351" lon="1.14043">
        <ele>1224.2</ele>
        <time>2024-10-06T09:15:50Z</time>
      </trkpt>
      <trkpt lat="42.93511" lon="1.14043">
        <ele>1224.2</ele>
        <time>2024-10-06T09:15:51Z</time>
      </trkpt>
      <trkpt lat="42.93517" lon="1.14042">
        <ele>1224.6</ele>
        <time>2024-10-06T09:15:55Z</time>
      </trkpt>
      <trkpt lat="42.93519" lon="1.14041">
        <ele>1225</ele>
        <time>2024-10-06T09:15:56Z</time>
      </trkpt>
      <trkpt lat="42.93521" lon="1.14041">
        <ele>1225.4</ele>
        <time>2024-10-06T09:15:57Z</time>
      </trkpt>
      <trkpt lat="42.93523" lon="1.1404">
        <ele>1225.8</ele>
        <time>2024-10-06T09:15:58Z</time>
      </trkpt>
      <trkpt lat="42.93525" lon="1.1404">
        <ele>1226.2</ele>
        <time>2024-10-06T09:15:59Z</time>
      </trkpt>
      <trkpt lat="42.93529" lon="1.14039">
        <ele>1226.2</ele>
        <time>2024-10-06T09:16:01Z</time>
      </trkpt>
      <trkpt lat="42.9353" lon="1.14038">
        <ele>1226.2</ele>
        <time>2024-10-06T09:16:02Z</time>
      </trkpt>
      <trkpt lat="42.93538" lon="1.14033">
        <ele>1226.2</ele>
        <time>2024-10-06T09:16:07Z</time>
      </trkpt>
      <trkpt lat="42.93539" lon="1.14032">
        <ele>1226.2</ele>
        <time>2024-10-06T09:16:08Z</time>
      </trkpt>
      <trkpt lat="42.93539" lon="1.14031">
        <ele>1226.2</ele>
        <time>2024-10-06T09:16:10Z</time>
      </trkpt>
      <trkpt lat="42.93542" lon="1.14024">
        <ele>1230.4</ele>
        <time>2024-10-06T09:26:13Z</time>
      </trkpt>
      <trkpt lat="42.93542" lon="1.14022">
        <ele>1230.4</ele>
        <time>2024-10-06T09:26:14Z</time>
      </trkpt>
      <trkpt lat="42.93546" lon="1.14013">
        <ele>1230.4</ele>
        <time>2024-10-06T09:26:19Z</time>
      </trkpt>
      <trkpt lat="42.93547" lon="1.14002">
        <ele>1230.4</ele>
        <time>2024-10-06T09:26:26Z</time>
      </trkpt>
      <trkpt lat="42.93551" lon="1.13994">
        <ele>1230.4</ele>
        <time>2024-10-06T09:26:29Z</time>
      </trkpt>
      <trkpt lat="42.93557" lon="1.13976">
        <ele>1230.4</ele>
        <time>2024-10-06T09:26:34Z</time>
      </trkpt>
      <trkpt lat="42.93557" lon="1.13959">
        <ele>1230.4</ele>
        <time>2024-10-06T09:26:38Z</time>
      </trkpt>
      <trkpt lat="42.9356" lon="1.13948">
        <ele>1230.4</ele>
        <time>2024-10-06T09:26:42Z</time>
      </trkpt>
      <trkpt lat="42.9356" lon="1.13928">
        <ele>1230.4</ele>
        <time>2024-10-06T09:26:46Z</time>
      </trkpt>
      <trkpt lat="42.93558" lon="1.13909">
        <ele>1230</ele>
        <time>2024-10-06T09:26:50Z</time>
      </trkpt>
      <trkpt lat="42.93557" lon="1.13903">
        <ele>1229.6</ele>
        <time>2024-10-06T09:26:51Z</time>
      </trkpt>
      <trkpt lat="42.93558" lon="1.13898">
        <ele>1229</ele>
        <time>2024-10-06T09:26:52Z</time>
      </trkpt>
      <trkpt lat="42.9356" lon="1.13893">
        <ele>1228.6</ele>
        <time>2024-10-06T09:26:53Z</time>
      </trkpt>
      <trkpt lat="42.93562" lon="1.13888">
        <ele>1228.2</ele>
        <time>2024-10-06T09:26:54Z</time>
      </trkpt>
      <trkpt lat="42.93566" lon="1.13869">
        <ele>1228.2</ele>
        <time>2024-10-06T09:26:57Z</time>
      </trkpt>
      <trkpt lat="42.93568" lon="1.13862">
        <ele>1227.6</ele>
        <time>2024-10-06T09:26:58Z</time>
      </trkpt>
      <trkpt lat="42.9357" lon="1.13855">
        <ele>1227.2</ele>
        <time>2024-10-06T09:26:59Z</time>
      </trkpt>
      <trkpt lat="42.93573" lon="1.1385">
        <ele>1226.6</ele>
        <time>2024-10-06T09:27:00Z</time>
      </trkpt>
      <trkpt lat="42.93575" lon="1.13843">
        <ele>1226</ele>
        <time>2024-10-06T09:27:01Z</time>
      </trkpt>
      <trkpt lat="42.93576" lon="1.13837">
        <ele>1225.2</ele>
        <time>2024-10-06T09:27:02Z</time>
      </trkpt>
      <trkpt lat="42.93577" lon="1.1383">
        <ele>1224.6</ele>
        <time>2024-10-06T09:27:03Z</time>
      </trkpt>
      <trkpt lat="42.93577" lon="1.13825">
        <ele>1223.8</ele>
        <time>2024-10-06T09:27:04Z</time>
      </trkpt>
      <trkpt lat="42.93578" lon="1.1382">
        <ele>1223</ele>
        <time>2024-10-06T09:27:05Z</time>
      </trkpt>
      <trkpt lat="42.93581" lon="1.13817">
        <ele>1222.2</ele>
        <time>2024-10-06T09:27:06Z</time>
      </trkpt>
      <trkpt lat="42.93583" lon="1.13816">
        <ele>1221.6</ele>
        <time>2024-10-06T09:27:07Z</time>
      </trkpt>
      <trkpt lat="42.93586" lon="1.13813">
        <ele>1220.8</ele>
        <time>2024-10-06T09:27:08Z</time>
      </trkpt>
      <trkpt lat="42.93589" lon="1.13808">
        <ele>1220</ele>
        <time>2024-10-06T09:27:09Z</time>
      </trkpt>
      <trkpt lat="42.93592" lon="1.13803">
        <ele>1219.2</ele>
        <time>2024-10-06T09:27:10Z</time>
      </trkpt>
      <trkpt lat="42.93594" lon="1.13796">
        <ele>1218.6</ele>
        <time>2024-10-06T09:27:11Z</time>
      </trkpt>
      <trkpt lat="42.93597" lon="1.13789">
        <ele>1217.8</ele>
        <time>2024-10-06T09:27:12Z</time>
      </trkpt>
      <trkpt lat="42.93599" lon="1.13785">
        <ele>1216</ele>
        <time>2024-10-06T09:27:13Z</time>
      </trkpt>
      <trkpt lat="42.936" lon="1.1378">
        <ele>1215.2</ele>
        <time>2024-10-06T09:27:14Z</time>
      </trkpt>
      <trkpt lat="42.93601" lon="1.13775">
        <ele>1214.4</ele>
        <time>2024-10-06T09:27:15Z</time>
      </trkpt>
      <trkpt lat="42.93602" lon="1.13771">
        <ele>1213.6</ele>
        <time>2024-10-06T09:27:16Z</time>
      </trkpt>
      <trkpt lat="42.93603" lon="1.13768">
        <ele>1212.8</ele>
        <time>2024-10-06T09:27:17Z</time>
      </trkpt>
      <trkpt lat="42.93605" lon="1.13766">
        <ele>1212.2</ele>
        <time>2024-10-06T09:27:18Z</time>
      </trkpt>
      <trkpt lat="42.93606" lon="1.13763">
        <ele>1211.6</ele>
        <time>2024-10-06T09:27:19Z</time>
      </trkpt>
      <trkpt lat="42.93606" lon="1.13759">
        <ele>1211</ele>
        <time>2024-10-06T09:27:20Z</time>
      </trkpt>
      <trkpt lat="42.93607" lon="1.13758">
        <ele>1210.4</ele>
        <time>2024-10-06T09:27:21Z</time>
      </trkpt>
      <trkpt lat="42.93608" lon="1.13756">
        <ele>1209.8</ele>
        <time>2024-10-06T09:27:22Z</time>
      </trkpt>
      <trkpt lat="42.93608" lon="1.13752">
        <ele>1209.2</ele>
        <time>2024-10-06T09:27:23Z</time>
      </trkpt>
      <trkpt lat="42.93608" lon="1.13749">
        <ele>1208.6</ele>
        <time>2024-10-06T09:27:24Z</time>
      </trkpt>
      <trkpt lat="42.93609" lon="1.13746">
        <ele>1207.8</ele>
        <time>2024-10-06T09:27:25Z</time>
      </trkpt>
      <trkpt lat="42.93612" lon="1.13741">
        <ele>1207.2</ele>
        <time>2024-10-06T09:27:26Z</time>
      </trkpt>
      <trkpt lat="42.93615" lon="1.13739">
        <ele>1206.4</ele>
        <time>2024-10-06T09:27:27Z</time>
      </trkpt>
      <trkpt lat="42.93617" lon="1.13734">
        <ele>1205.8</ele>
        <time>2024-10-06T09:27:28Z</time>
      </trkpt>
      <trkpt lat="42.93618" lon="1.13731">
        <ele>1205</ele>
        <time>2024-10-06T09:27:29Z</time>
      </trkpt>
      <trkpt lat="42.93619" lon="1.13729">
        <ele>1204.2</ele>
        <time>2024-10-06T09:27:30Z</time>
      </trkpt>
      <trkpt lat="42.9362" lon="1.13726">
        <ele>1203.6</ele>
        <time>2024-10-06T09:27:31Z</time>
      </trkpt>
      <trkpt lat="42.9362" lon="1.13724">
        <ele>1202.8</ele>
        <time>2024-10-06T09:27:32Z</time>
      </trkpt>
      <trkpt lat="42.93621" lon="1.13722">
        <ele>1202.2</ele>
        <time>2024-10-06T09:27:33Z</time>
      </trkpt>
      <trkpt lat="42.93622" lon="1.13719">
        <ele>1201.4</ele>
        <time>2024-10-06T09:27:34Z</time>
      </trkpt>
      <trkpt lat="42.93624" lon="1.13719">
        <ele>1200.8</ele>
        <time>2024-10-06T09:27:35Z</time>
      </trkpt>
      <trkpt lat="42.93626" lon="1.13718">
        <ele>1200.2</ele>
        <time>2024-10-06T09:27:36Z</time>
      </trkpt>
      <trkpt lat="42.93627" lon="1.13716">
        <ele>1199.6</ele>
        <time>2024-10-06T09:27:37Z</time>
      </trkpt>
      <trkpt lat="42.93628" lon="1.13711">
        <ele>1198.4</ele>
        <time>2024-10-06T09:27:38Z</time>
      </trkpt>
      <trkpt lat="42.9363" lon="1.13706">
        <ele>1198</ele>
        <time>2024-10-06T09:27:39Z</time>
      </trkpt>
      <trkpt lat="42.93632" lon="1.13699">
        <ele>1197.4</ele>
        <time>2024-10-06T09:27:40Z</time>
      </trkpt>
      <trkpt lat="42.93633" lon="1.13694">
        <ele>1196.6</ele>
        <time>2024-10-06T09:27:41Z</time>
      </trkpt>
      <trkpt lat="42.93633" lon="1.1369">
        <ele>1196</ele>
        <time>2024-10-06T09:27:42Z</time>
      </trkpt>
      <trkpt lat="42.93634" lon="1.13685">
        <ele>1195.2</ele>
        <time>2024-10-06T09:27:43Z</time>
      </trkpt>
      <trkpt lat="42.93635" lon="1.13682">
        <ele>1194.4</ele>
        <time>2024-10-06T09:27:44Z</time>
      </trkpt>
      <trkpt lat="42.93636" lon="1.13676">
        <ele>1193.8</ele>
        <time>2024-10-06T09:27:45Z</time>
      </trkpt>
      <trkpt lat="42.93638" lon="1.13672">
        <ele>1193</ele>
        <time>2024-10-06T09:27:46Z</time>
      </trkpt>
      <trkpt lat="42.93641" lon="1.13668">
        <ele>1192.2</ele>
        <time>2024-10-06T09:27:47Z</time>
      </trkpt>
      <trkpt lat="42.93644" lon="1.13663">
        <ele>1191.4</ele>
        <time>2024-10-06T09:27:48Z</time>
      </trkpt>
      <trkpt lat="42.93647" lon="1.13656">
        <ele>1190.6</ele>
        <time>2024-10-06T09:27:49Z</time>
      </trkpt>
      <trkpt lat="42.93649" lon="1.13648">
        <ele>1189.8</ele>
        <time>2024-10-06T09:27:50Z</time>
      </trkpt>
      <trkpt lat="42.93651" lon="1.13642">
        <ele>1188.8</ele>
        <time>2024-10-06T09:27:51Z</time>
      </trkpt>
      <trkpt lat="42.93655" lon="1.13637">
        <ele>1187.8</ele>
        <time>2024-10-06T09:27:52Z</time>
      </trkpt>
      <trkpt lat="42.93659" lon="1.1363">
        <ele>1186.8</ele>
        <time>2024-10-06T09:27:53Z</time>
      </trkpt>
      <trkpt lat="42.93661" lon="1.13623">
        <ele>1185.8</ele>
        <time>2024-10-06T09:27:54Z</time>
      </trkpt>
      <trkpt lat="42.93664" lon="1.13616">
        <ele>1184.8</ele>
        <time>2024-10-06T09:27:55Z</time>
      </trkpt>
      <trkpt lat="42.93667" lon="1.13609">
        <ele>1183.6</ele>
        <time>2024-10-06T09:27:56Z</time>
      </trkpt>
      <trkpt lat="42.93668" lon="1.13602">
        <ele>1182.6</ele>
        <time>2024-10-06T09:27:57Z</time>
      </trkpt>
      <trkpt lat="42.93671" lon="1.13598">
        <ele>1181.6</ele>
        <time>2024-10-06T09:27:58Z</time>
      </trkpt>
      <trkpt lat="42.93675" lon="1.13596">
        <ele>1180.6</ele>
        <time>2024-10-06T09:27:59Z</time>
      </trkpt>
      <trkpt lat="42.93679" lon="1.13593">
        <ele>1179.6</ele>
        <time>2024-10-06T09:28:00Z</time>
      </trkpt>
      <trkpt lat="42.93683" lon="1.1359">
        <ele>1179</ele>
        <time>2024-10-06T09:28:01Z</time>
      </trkpt>
      <trkpt lat="42.93687" lon="1.13588">
        <ele>1178.6</ele>
        <time>2024-10-06T09:28:02Z</time>
      </trkpt>
      <trkpt lat="42.93692" lon="1.13584">
        <ele>1177.6</ele>
        <time>2024-10-06T09:28:03Z</time>
      </trkpt>
      <trkpt lat="42.93697" lon="1.13583">
        <ele>1177</ele>
        <time>2024-10-06T09:28:04Z</time>
      </trkpt>
      <trkpt lat="42.93702" lon="1.13582">
        <ele>1176</ele>
        <time>2024-10-06T09:28:05Z</time>
      </trkpt>
      <trkpt lat="42.93707" lon="1.13579">
        <ele>1175.2</ele>
        <time>2024-10-06T09:28:06Z</time>
      </trkpt>
      <trkpt lat="42.93713" lon="1.13575">
        <ele>1174.4</ele>
        <time>2024-10-06T09:28:07Z</time>
      </trkpt>
      <trkpt lat="42.93718" lon="1.1357">
        <ele>1173.4</ele>
        <time>2024-10-06T09:28:08Z</time>
      </trkpt>
      <trkpt lat="42.93723" lon="1.13564">
        <ele>1172.4</ele>
        <time>2024-10-06T09:28:09Z</time>
      </trkpt>
      <trkpt lat="42.93726" lon="1.13558">
        <ele>1171.4</ele>
        <time>2024-10-06T09:28:10Z</time>
      </trkpt>
      <trkpt lat="42.9373" lon="1.13552">
        <ele>1170.2</ele>
        <time>2024-10-06T09:28:11Z</time>
      </trkpt>
      <trkpt lat="42.93733" lon="1.13548">
        <ele>1169</ele>
        <time>2024-10-06T09:28:12Z</time>
      </trkpt>
      <trkpt lat="42.93737" lon="1.13544">
        <ele>1167.8</ele>
        <time>2024-10-06T09:28:13Z</time>
      </trkpt>
      <trkpt lat="42.9374" lon="1.13541">
        <ele>1166.6</ele>
        <time>2024-10-06T09:28:14Z</time>
      </trkpt>
      <trkpt lat="42.93744" lon="1.13542">
        <ele>1165.4</ele>
        <time>2024-10-06T09:28:15Z</time>
      </trkpt>
      <trkpt lat="42.93748" lon="1.13542">
        <ele>1164.6</ele>
        <time>2024-10-06T09:28:16Z</time>
      </trkpt>
      <trkpt lat="42.93751" lon="1.1354">
        <ele>1163.6</ele>
        <time>2024-10-06T09:28:17Z</time>
      </trkpt>
      <trkpt lat="42.93754" lon="1.13542">
        <ele>1162.6</ele>
        <time>2024-10-06T09:28:18Z</time>
      </trkpt>
      <trkpt lat="42.93757" lon="1.13545">
        <ele>1161.8</ele>
        <time>2024-10-06T09:28:19Z</time>
      </trkpt>
      <trkpt lat="42.93761" lon="1.13547">
        <ele>1161</ele>
        <time>2024-10-06T09:28:20Z</time>
      </trkpt>
      <trkpt lat="42.93765" lon="1.13549">
        <ele>1160.2</ele>
        <time>2024-10-06T09:28:21Z</time>
      </trkpt>
      <trkpt lat="42.93769" lon="1.1355">
        <ele>1159.6</ele>
        <time>2024-10-06T09:28:22Z</time>
      </trkpt>
      <trkpt lat="42.93774" lon="1.13552">
        <ele>1158.8</ele>
        <time>2024-10-06T09:28:23Z</time>
      </trkpt>
      <trkpt lat="42.93779" lon="1.13553">
        <ele>1158</ele>
        <time>2024-10-06T09:28:24Z</time>
      </trkpt>
      <trkpt lat="42.93784" lon="1.13552">
        <ele>1157.4</ele>
        <time>2024-10-06T09:28:25Z</time>
      </trkpt>
      <trkpt lat="42.93789" lon="1.13551">
        <ele>1156.6</ele>
        <time>2024-10-06T09:28:26Z</time>
      </trkpt>
      <trkpt lat="42.93794" lon="1.1355">
        <ele>1156.2</ele>
        <time>2024-10-06T09:28:27Z</time>
      </trkpt>
      <trkpt lat="42.93799" lon="1.13546">
        <ele>1155.2</ele>
        <time>2024-10-06T09:28:28Z</time>
      </trkpt>
      <trkpt lat="42.93806" lon="1.13544">
        <ele>1154.4</ele>
        <time>2024-10-06T09:28:29Z</time>
      </trkpt>
      <trkpt lat="42.93813" lon="1.13541">
        <ele>1153.6</ele>
        <time>2024-10-06T09:28:30Z</time>
      </trkpt>
      <trkpt lat="42.93819" lon="1.13536">
        <ele>1153</ele>
        <time>2024-10-06T09:28:31Z</time>
      </trkpt>
      <trkpt lat="42.93826" lon="1.1353">
        <ele>1152</ele>
        <time>2024-10-06T09:28:32Z</time>
      </trkpt>
      <trkpt lat="42.9383" lon="1.13523">
        <ele>1151</ele>
        <time>2024-10-06T09:28:33Z</time>
      </trkpt>
      <trkpt lat="42.93834" lon="1.13516">
        <ele>1150.2</ele>
        <time>2024-10-06T09:28:34Z</time>
      </trkpt>
      <trkpt lat="42.93837" lon="1.13511">
        <ele>1149.2</ele>
        <time>2024-10-06T09:28:35Z</time>
      </trkpt>
      <trkpt lat="42.9384" lon="1.13505">
        <ele>1148.2</ele>
        <time>2024-10-06T09:28:36Z</time>
      </trkpt>
      <trkpt lat="42.93843" lon="1.13499">
        <ele>1147.2</ele>
        <time>2024-10-06T09:28:37Z</time>
      </trkpt>
      <trkpt lat="42.93846" lon="1.13492">
        <ele>1146.4</ele>
        <time>2024-10-06T09:28:38Z</time>
      </trkpt>
      <trkpt lat="42.93849" lon="1.13483">
        <ele>1145.4</ele>
        <time>2024-10-06T09:28:39Z</time>
      </trkpt>
      <trkpt lat="42.93852" lon="1.13475">
        <ele>1144.4</ele>
        <time>2024-10-06T09:28:40Z</time>
      </trkpt>
      <trkpt lat="42.93854" lon="1.13465">
        <ele>1143.4</ele>
        <time>2024-10-06T09:28:41Z</time>
      </trkpt>
      <trkpt lat="42.93856" lon="1.13455">
        <ele>1142.4</ele>
        <time>2024-10-06T09:28:42Z</time>
      </trkpt>
      <trkpt lat="42.93858" lon="1.13445">
        <ele>1141.4</ele>
        <time>2024-10-06T09:28:43Z</time>
      </trkpt>
      <trkpt lat="42.93859" lon="1.13434">
        <ele>1140.4</ele>
        <time>2024-10-06T09:28:44Z</time>
      </trkpt>
      <trkpt lat="42.93862" lon="1.13424">
        <ele>1139.2</ele>
        <time>2024-10-06T09:28:45Z</time>
      </trkpt>
      <trkpt lat="42.93865" lon="1.13414">
        <ele>1138.4</ele>
        <time>2024-10-06T09:28:46Z</time>
      </trkpt>
      <trkpt lat="42.93868" lon="1.13404">
        <ele>1137.4</ele>
        <time>2024-10-06T09:28:47Z</time>
      </trkpt>
      <trkpt lat="42.93871" lon="1.13396">
        <ele>1136.4</ele>
        <time>2024-10-06T09:28:48Z</time>
      </trkpt>
      <trkpt lat="42.93873" lon="1.13391">
        <ele>1135.6</ele>
        <time>2024-10-06T09:28:49Z</time>
      </trkpt>
      <trkpt lat="42.93876" lon="1.13383">
        <ele>1134.8</ele>
        <time>2024-10-06T09:28:50Z</time>
      </trkpt>
      <trkpt lat="42.93879" lon="1.13374">
        <ele>1133.8</ele>
        <time>2024-10-06T09:28:51Z</time>
      </trkpt>
      <trkpt lat="42.9388" lon="1.13366">
        <ele>1132.4</ele>
        <time>2024-10-06T09:28:52Z</time>
      </trkpt>
      <trkpt lat="42.93879" lon="1.1336">
        <ele>1131.6</ele>
        <time>2024-10-06T09:28:53Z</time>
      </trkpt>
      <trkpt lat="42.93877" lon="1.13352">
        <ele>1130.8</ele>
        <time>2024-10-06T09:28:54Z</time>
      </trkpt>
      <trkpt lat="42.93876" lon="1.13345">
        <ele>1130.2</ele>
        <time>2024-10-06T09:28:55Z</time>
      </trkpt>
      <trkpt lat="42.93874" lon="1.13337">
        <ele>1129.6</ele>
        <time>2024-10-06T09:28:56Z</time>
      </trkpt>
      <trkpt lat="42.93872" lon="1.1333">
        <ele>1129</ele>
        <time>2024-10-06T09:28:57Z</time>
      </trkpt>
      <trkpt lat="42.9387" lon="1.13322">
        <ele>1128.4</ele>
        <time>2024-10-06T09:28:58Z</time>
      </trkpt>
      <trkpt lat="42.93869" lon="1.13316">
        <ele>1127.8</ele>
        <time>2024-10-06T09:28:59Z</time>
      </trkpt>
      <trkpt lat="42.93868" lon="1.1331">
        <ele>1127.8</ele>
        <time>2024-10-06T09:29:00Z</time>
      </trkpt>
      <trkpt lat="42.93865" lon="1.13295">
        <ele>1127.8</ele>
        <time>2024-10-06T09:29:03Z</time>
      </trkpt>
      <trkpt lat="42.93863" lon="1.13278">
        <ele>1127.4</ele>
        <time>2024-10-06T09:29:06Z</time>
      </trkpt>
      <trkpt lat="42.93862" lon="1.13271">
        <ele>1127</ele>
        <time>2024-10-06T09:29:07Z</time>
      </trkpt>
      <trkpt lat="42.93861" lon="1.13266">
        <ele>1126.6</ele>
        <time>2024-10-06T09:29:08Z</time>
      </trkpt>
      <trkpt lat="42.93859" lon="1.13262">
        <ele>1126.2</ele>
        <time>2024-10-06T09:29:09Z</time>
      </trkpt>
      <trkpt lat="42.93858" lon="1.13258">
        <ele>1125.8</ele>
        <time>2024-10-06T09:29:10Z</time>
      </trkpt>
      <trkpt lat="42.93854" lon="1.13245">
        <ele>1125.8</ele>
        <time>2024-10-06T09:29:14Z</time>
      </trkpt>
      <trkpt lat="42.93853" lon="1.13241">
        <ele>1125.4</ele>
        <time>2024-10-06T09:29:15Z</time>
      </trkpt>
      <trkpt lat="42.93852" lon="1.13238">
        <ele>1125</ele>
        <time>2024-10-06T09:29:16Z</time>
      </trkpt>
      <trkpt lat="42.9385" lon="1.13234">
        <ele>1124.2</ele>
        <time>2024-10-06T09:29:17Z</time>
      </trkpt>
      <trkpt lat="42.93849" lon="1.13231">
        <ele>1123.8</ele>
        <time>2024-10-06T09:29:18Z</time>
      </trkpt>
      <trkpt lat="42.93848" lon="1.13226">
        <ele>1123.8</ele>
        <time>2024-10-06T09:29:19Z</time>
      </trkpt>
      <trkpt lat="42.93839" lon="1.132">
        <ele>1123.8</ele>
        <time>2024-10-06T09:29:26Z</time>
      </trkpt>
      <trkpt lat="42.93838" lon="1.13195">
        <ele>1123.8</ele>
        <time>2024-10-06T09:29:27Z</time>
      </trkpt>
      <trkpt lat="42.93837" lon="1.13181">
        <ele>1123.8</ele>
        <time>2024-10-06T09:29:30Z</time>
      </trkpt>
      <trkpt lat="42.93832" lon="1.13152">
        <ele>1123.8</ele>
        <time>2024-10-06T09:29:36Z</time>
      </trkpt>
      <trkpt lat="42.93822" lon="1.13124">
        <ele>1123.8</ele>
        <time>2024-10-06T09:29:41Z</time>
      </trkpt>
      <trkpt lat="42.93819" lon="1.13099">
        <ele>1123.8</ele>
        <time>2024-10-06T09:29:45Z</time>
      </trkpt>
      <trkpt lat="42.93817" lon="1.13075">
        <ele>1123.8</ele>
        <time>2024-10-06T09:29:49Z</time>
      </trkpt>
      <trkpt lat="42.93811" lon="1.13057">
        <ele>1123.8</ele>
        <time>2024-10-06T09:29:54Z</time>
      </trkpt>
      <trkpt lat="42.9381" lon="1.13049">
        <ele>1123.8</ele>
        <time>2024-10-06T09:29:57Z</time>
      </trkpt>
      <trkpt lat="42.93806" lon="1.13038">
        <ele>1123.8</ele>
        <time>2024-10-06T09:29:59Z</time>
      </trkpt>
      <trkpt lat="42.93806" lon="1.13027">
        <ele>1123.8</ele>
        <time>2024-10-06T09:30:01Z</time>
      </trkpt>
      <trkpt lat="42.93809" lon="1.1301">
        <ele>1123.4</ele>
        <time>2024-10-06T09:30:04Z</time>
      </trkpt>
      <trkpt lat="42.9381" lon="1.13006">
        <ele>1123</ele>
        <time>2024-10-06T09:30:05Z</time>
      </trkpt>
      <trkpt lat="42.9381" lon="1.13003">
        <ele>1122.2</ele>
        <time>2024-10-06T09:30:06Z</time>
      </trkpt>
      <trkpt lat="42.93812" lon="1.12999">
        <ele>1121.8</ele>
        <time>2024-10-06T09:30:07Z</time>
      </trkpt>
      <trkpt lat="42.93816" lon="1.12984">
        <ele>1121.2</ele>
        <time>2024-10-06T09:30:11Z</time>
      </trkpt>
      <trkpt lat="42.93815" lon="1.12979">
        <ele>1120.8</ele>
        <time>2024-10-06T09:30:12Z</time>
      </trkpt>
      <trkpt lat="42.93814" lon="1.12971">
        <ele>1120.2</ele>
        <time>2024-10-06T09:30:13Z</time>
      </trkpt>
      <trkpt lat="42.93813" lon="1.12964">
        <ele>1119.8</ele>
        <time>2024-10-06T09:30:14Z</time>
      </trkpt>
      <trkpt lat="42.93812" lon="1.12957">
        <ele>1119.2</ele>
        <time>2024-10-06T09:30:15Z</time>
      </trkpt>
      <trkpt lat="42.93812" lon="1.12949">
        <ele>1118.4</ele>
        <time>2024-10-06T09:30:16Z</time>
      </trkpt>
      <trkpt lat="42.93809" lon="1.12938">
        <ele>1117.8</ele>
        <time>2024-10-06T09:30:17Z</time>
      </trkpt>
      <trkpt lat="42.93807" lon="1.12935">
        <ele>1117.2</ele>
        <time>2024-10-06T09:30:18Z</time>
      </trkpt>
      <trkpt lat="42.93806" lon="1.12931">
        <ele>1116.4</ele>
        <time>2024-10-06T09:30:19Z</time>
      </trkpt>
      <trkpt lat="42.93805" lon="1.12926">
        <ele>1115.6</ele>
        <time>2024-10-06T09:30:20Z</time>
      </trkpt>
      <trkpt lat="42.93803" lon="1.12923">
        <ele>1114.8</ele>
        <time>2024-10-06T09:30:21Z</time>
      </trkpt>
      <trkpt lat="42.93803" lon="1.12917">
        <ele>1114</ele>
        <time>2024-10-06T09:30:22Z</time>
      </trkpt>
      <trkpt lat="42.93804" lon="1.12907">
        <ele>1113.2</ele>
        <time>2024-10-06T09:30:23Z</time>
      </trkpt>
      <trkpt lat="42.93806" lon="1.12897">
        <ele>1112.2</ele>
        <time>2024-10-06T09:30:24Z</time>
      </trkpt>
      <trkpt lat="42.93807" lon="1.12888">
        <ele>1111.4</ele>
        <time>2024-10-06T09:30:25Z</time>
      </trkpt>
      <trkpt lat="42.93807" lon="1.1288">
        <ele>1110.4</ele>
        <time>2024-10-06T09:30:26Z</time>
      </trkpt>
      <trkpt lat="42.93808" lon="1.1287">
        <ele>1109.6</ele>
        <time>2024-10-06T09:30:27Z</time>
      </trkpt>
      <trkpt lat="42.93808" lon="1.12863">
        <ele>1108.6</ele>
        <time>2024-10-06T09:30:28Z</time>
      </trkpt>
      <trkpt lat="42.93807" lon="1.12855">
        <ele>1107.8</ele>
        <time>2024-10-06T09:30:29Z</time>
      </trkpt>
      <trkpt lat="42.93807" lon="1.12846">
        <ele>1106.8</ele>
        <time>2024-10-06T09:30:30Z</time>
      </trkpt>
      <trkpt lat="42.93807" lon="1.1284">
        <ele>1106</ele>
        <time>2024-10-06T09:30:31Z</time>
      </trkpt>
      <trkpt lat="42.93805" lon="1.12825">
        <ele>1106</ele>
        <time>2024-10-06T09:30:33Z</time>
      </trkpt>
      <trkpt lat="42.93802" lon="1.12809">
        <ele>1105.4</ele>
        <time>2024-10-06T09:30:35Z</time>
      </trkpt>
      <trkpt lat="42.93801" lon="1.12802">
        <ele>1105</ele>
        <time>2024-10-06T09:30:36Z</time>
      </trkpt>
      <trkpt lat="42.938" lon="1.12794">
        <ele>1104.2</ele>
        <time>2024-10-06T09:30:37Z</time>
      </trkpt>
      <trkpt lat="42.93799" lon="1.12784">
        <ele>1103.4</ele>
        <time>2024-10-06T09:30:38Z</time>
      </trkpt>
      <trkpt lat="42.93798" lon="1.12775">
        <ele>1102.4</ele>
        <time>2024-10-06T09:30:39Z</time>
      </trkpt>
      <trkpt lat="42.93799" lon="1.12762">
        <ele>1101.4</ele>
        <time>2024-10-06T09:30:40Z</time>
      </trkpt>
      <trkpt lat="42.93799" lon="1.12752">
        <ele>1100.4</ele>
        <time>2024-10-06T09:30:41Z</time>
      </trkpt>
      <trkpt lat="42.93799" lon="1.12744">
        <ele>1099.4</ele>
        <time>2024-10-06T09:30:42Z</time>
      </trkpt>
      <trkpt lat="42.93801" lon="1.12736">
        <ele>1098.2</ele>
        <time>2024-10-06T09:30:43Z</time>
      </trkpt>
      <trkpt lat="42.93803" lon="1.12726">
        <ele>1097.2</ele>
        <time>2024-10-06T09:30:44Z</time>
      </trkpt>
      <trkpt lat="42.93807" lon="1.12717">
        <ele>1096</ele>
        <time>2024-10-06T09:30:45Z</time>
      </trkpt>
      <trkpt lat="42.93811" lon="1.12708">
        <ele>1095</ele>
        <time>2024-10-06T09:30:46Z</time>
      </trkpt>
      <trkpt lat="42.93814" lon="1.12699">
        <ele>1094</ele>
        <time>2024-10-06T09:30:47Z</time>
      </trkpt>
      <trkpt lat="42.93818" lon="1.12689">
        <ele>1092.8</ele>
        <time>2024-10-06T09:30:48Z</time>
      </trkpt>
      <trkpt lat="42.93821" lon="1.12681">
        <ele>1092.2</ele>
        <time>2024-10-06T09:30:49Z</time>
      </trkpt>
      <trkpt lat="42.93824" lon="1.12674">
        <ele>1091.4</ele>
        <time>2024-10-06T09:30:50Z</time>
      </trkpt>
      <trkpt lat="42.93827" lon="1.12666">
        <ele>1090.8</ele>
        <time>2024-10-06T09:30:51Z</time>
      </trkpt>
      <trkpt lat="42.93831" lon="1.12658">
        <ele>1090.2</ele>
        <time>2024-10-06T09:30:52Z</time>
      </trkpt>
      <trkpt lat="42.93835" lon="1.1265">
        <ele>1089.4</ele>
        <time>2024-10-06T09:30:53Z</time>
      </trkpt>
      <trkpt lat="42.93839" lon="1.12644">
        <ele>1089</ele>
        <time>2024-10-06T09:30:54Z</time>
      </trkpt>
      <trkpt lat="42.93842" lon="1.12637">
        <ele>1088.6</ele>
        <time>2024-10-06T09:30:55Z</time>
      </trkpt>
      <trkpt lat="42.93847" lon="1.1263">
        <ele>1087.8</ele>
        <time>2024-10-06T09:30:56Z</time>
      </trkpt>
      <trkpt lat="42.93851" lon="1.12625">
        <ele>1087.4</ele>
        <time>2024-10-06T09:30:57Z</time>
      </trkpt>
      <trkpt lat="42.93857" lon="1.12616">
        <ele>1087</ele>
        <time>2024-10-06T09:30:59Z</time>
      </trkpt>
      <trkpt lat="42.93862" lon="1.12613">
        <ele>1086.6</ele>
        <time>2024-10-06T09:31:00Z</time>
      </trkpt>
      <trkpt lat="42.93866" lon="1.12611">
        <ele>1086.2</ele>
        <time>2024-10-06T09:31:01Z</time>
      </trkpt>
      <trkpt lat="42.93871" lon="1.12609">
        <ele>1085.8</ele>
        <time>2024-10-06T09:31:02Z</time>
      </trkpt>
      <trkpt lat="42.93879" lon="1.12604">
        <ele>1085.4</ele>
        <time>2024-10-06T09:31:03Z</time>
      </trkpt>
      <trkpt lat="42.93885" lon="1.12601">
        <ele>1085.4</ele>
        <time>2024-10-06T09:31:04Z</time>
      </trkpt>
      <trkpt lat="42.93903" lon="1.12588">
        <ele>1085.4</ele>
        <time>2024-10-06T09:31:08Z</time>
      </trkpt>
      <trkpt lat="42.93908" lon="1.12584">
        <ele>1084.8</ele>
        <time>2024-10-06T09:31:09Z</time>
      </trkpt>
      <trkpt lat="42.93911" lon="1.12581">
        <ele>1084.4</ele>
        <time>2024-10-06T09:31:10Z</time>
      </trkpt>
      <trkpt lat="42.93916" lon="1.12577">
        <ele>1083.8</ele>
        <time>2024-10-06T09:31:11Z</time>
      </trkpt>
      <trkpt lat="42.93922" lon="1.12573">
        <ele>1083.4</ele>
        <time>2024-10-06T09:31:12Z</time>
      </trkpt>
      <trkpt lat="42.93927" lon="1.1257">
        <ele>1082.8</ele>
        <time>2024-10-06T09:31:13Z</time>
      </trkpt>
      <trkpt lat="42.93932" lon="1.12565">
        <ele>1082.2</ele>
        <time>2024-10-06T09:31:14Z</time>
      </trkpt>
      <trkpt lat="42.93936" lon="1.12561">
        <ele>1081.6</ele>
        <time>2024-10-06T09:31:15Z</time>
      </trkpt>
      <trkpt lat="42.93941" lon="1.12559">
        <ele>1080.8</ele>
        <time>2024-10-06T09:31:16Z</time>
      </trkpt>
      <trkpt lat="42.93949" lon="1.12556">
        <ele>1080</ele>
        <time>2024-10-06T09:31:17Z</time>
      </trkpt>
      <trkpt lat="42.93956" lon="1.12554">
        <ele>1079.2</ele>
        <time>2024-10-06T09:31:18Z</time>
      </trkpt>
      <trkpt lat="42.93963" lon="1.12552">
        <ele>1078.4</ele>
        <time>2024-10-06T09:31:19Z</time>
      </trkpt>
      <trkpt lat="42.93968" lon="1.12549">
        <ele>1077.6</ele>
        <time>2024-10-06T09:31:20Z</time>
      </trkpt>
      <trkpt lat="42.93974" lon="1.12545">
        <ele>1076.6</ele>
        <time>2024-10-06T09:31:21Z</time>
      </trkpt>
      <trkpt lat="42.93979" lon="1.12539">
        <ele>1076.2</ele>
        <time>2024-10-06T09:31:22Z</time>
      </trkpt>
      <trkpt lat="42.93983" lon="1.12534">
        <ele>1075.6</ele>
        <time>2024-10-06T09:31:23Z</time>
      </trkpt>
      <trkpt lat="42.93987" lon="1.12526">
        <ele>1074.8</ele>
        <time>2024-10-06T09:31:24Z</time>
      </trkpt>
      <trkpt lat="42.93992" lon="1.12519">
        <ele>1074.2</ele>
        <time>2024-10-06T09:31:25Z</time>
      </trkpt>
      <trkpt lat="42.93997" lon="1.12511">
        <ele>1073.4</ele>
        <time>2024-10-06T09:31:26Z</time>
      </trkpt>
      <trkpt lat="42.94" lon="1.12505">
        <ele>1072.8</ele>
        <time>2024-10-06T09:31:27Z</time>
      </trkpt>
      <trkpt lat="42.94003" lon="1.12499">
        <ele>1072</ele>
        <time>2024-10-06T09:31:28Z</time>
      </trkpt>
      <trkpt lat="42.94005" lon="1.12493">
        <ele>1071.2</ele>
        <time>2024-10-06T09:31:29Z</time>
      </trkpt>
      <trkpt lat="42.94007" lon="1.12487">
        <ele>1070.6</ele>
        <time>2024-10-06T09:31:30Z</time>
      </trkpt>
      <trkpt lat="42.94008" lon="1.12482">
        <ele>1070.6</ele>
        <time>2024-10-06T09:31:31Z</time>
      </trkpt>
      <trkpt lat="42.94009" lon="1.12475">
        <ele>1070.6</ele>
        <time>2024-10-06T09:31:32Z</time>
      </trkpt>
      <trkpt lat="42.94018" lon="1.12452">
        <ele>1070</ele>
        <time>2024-10-06T09:31:35Z</time>
      </trkpt>
      <trkpt lat="42.94021" lon="1.12445">
        <ele>1069.6</ele>
        <time>2024-10-06T09:31:36Z</time>
      </trkpt>
      <trkpt lat="42.94022" lon="1.12438">
        <ele>1069</ele>
        <time>2024-10-06T09:31:37Z</time>
      </trkpt>
      <trkpt lat="42.94022" lon="1.12431">
        <ele>1068.4</ele>
        <time>2024-10-06T09:31:38Z</time>
      </trkpt>
      <trkpt lat="42.94022" lon="1.12425">
        <ele>1067.8</ele>
        <time>2024-10-06T09:31:39Z</time>
      </trkpt>
      <trkpt lat="42.94022" lon="1.12414">
        <ele>1067</ele>
        <time>2024-10-06T09:31:40Z</time>
      </trkpt>
      <trkpt lat="42.94022" lon="1.12403">
        <ele>1066.2</ele>
        <time>2024-10-06T09:31:41Z</time>
      </trkpt>
      <trkpt lat="42.94022" lon="1.12396">
        <ele>1065.2</ele>
        <time>2024-10-06T09:31:42Z</time>
      </trkpt>
      <trkpt lat="42.94022" lon="1.1239">
        <ele>1064.4</ele>
        <time>2024-10-06T09:31:43Z</time>
      </trkpt>
      <trkpt lat="42.94022" lon="1.12384">
        <ele>1063.6</ele>
        <time>2024-10-06T09:31:44Z</time>
      </trkpt>
      <trkpt lat="42.94022" lon="1.12372">
        <ele>1063.6</ele>
        <time>2024-10-06T09:31:46Z</time>
      </trkpt>
      <trkpt lat="42.94024" lon="1.12341">
        <ele>1063.6</ele>
        <time>2024-10-06T09:31:51Z</time>
      </trkpt>
      <trkpt lat="42.94025" lon="1.12334">
        <ele>1063.2</ele>
        <time>2024-10-06T09:31:52Z</time>
      </trkpt>
      <trkpt lat="42.94025" lon="1.12328">
        <ele>1062.6</ele>
        <time>2024-10-06T09:31:53Z</time>
      </trkpt>
      <trkpt lat="42.94025" lon="1.12323">
        <ele>1062</ele>
        <time>2024-10-06T09:31:54Z</time>
      </trkpt>
      <trkpt lat="42.94025" lon="1.12319">
        <ele>1061.4</ele>
        <time>2024-10-06T09:31:55Z</time>
      </trkpt>
      <trkpt lat="42.94025" lon="1.12313">
        <ele>1060.6</ele>
        <time>2024-10-06T09:31:56Z</time>
      </trkpt>
      <trkpt lat="42.94026" lon="1.12307">
        <ele>1059.8</ele>
        <time>2024-10-06T09:31:57Z</time>
      </trkpt>
      <trkpt lat="42.94026" lon="1.12301">
        <ele>1059</ele>
        <time>2024-10-06T09:31:58Z</time>
      </trkpt>
      <trkpt lat="42.94025" lon="1.12296">
        <ele>1058.2</ele>
        <time>2024-10-06T09:31:59Z</time>
      </trkpt>
      <trkpt lat="42.94024" lon="1.12292">
        <ele>1057.4</ele>
        <time>2024-10-06T09:32:00Z</time>
      </trkpt>
      <trkpt lat="42.94022" lon="1.12288">
        <ele>1056.4</ele>
        <time>2024-10-06T09:32:01Z</time>
      </trkpt>
      <trkpt lat="42.94019" lon="1.12285">
        <ele>1055.4</ele>
        <time>2024-10-06T09:32:02Z</time>
      </trkpt>
      <trkpt lat="42.94017" lon="1.12282">
        <ele>1054.4</ele>
        <time>2024-10-06T09:32:03Z</time>
      </trkpt>
      <trkpt lat="42.94016" lon="1.12276">
        <ele>1053.6</ele>
        <time>2024-10-06T09:32:04Z</time>
      </trkpt>
      <trkpt lat="42.94015" lon="1.12273">
        <ele>1052.8</ele>
        <time>2024-10-06T09:32:05Z</time>
      </trkpt>
      <trkpt lat="42.94015" lon="1.1227">
        <ele>1052</ele>
        <time>2024-10-06T09:32:06Z</time>
      </trkpt>
      <trkpt lat="42.94014" lon="1.12267">
        <ele>1051.2</ele>
        <time>2024-10-06T09:32:07Z</time>
      </trkpt>
      <trkpt lat="42.94014" lon="1.12264">
        <ele>1050.4</ele>
        <time>2024-10-06T09:32:08Z</time>
      </trkpt>
      <trkpt lat="42.94014" lon="1.12261">
        <ele>1049.6</ele>
        <time>2024-10-06T09:32:09Z</time>
      </trkpt>
      <trkpt lat="42.94013" lon="1.12258">
        <ele>1048.2</ele>
        <time>2024-10-06T09:32:10Z</time>
      </trkpt>
      <trkpt lat="42.94012" lon="1.12254">
        <ele>1047.6</ele>
        <time>2024-10-06T09:32:11Z</time>
      </trkpt>
      <trkpt lat="42.94012" lon="1.12253">
        <ele>1046.8</ele>
        <time>2024-10-06T09:32:12Z</time>
      </trkpt>
      <trkpt lat="42.94012" lon="1.1225">
        <ele>1045.4</ele>
        <time>2024-10-06T09:32:14Z</time>
      </trkpt>
      <trkpt lat="42.94013" lon="1.12246">
        <ele>1044.8</ele>
        <time>2024-10-06T09:32:15Z</time>
      </trkpt>
      <trkpt lat="42.94014" lon="1.12242">
        <ele>1044.2</ele>
        <time>2024-10-06T09:32:16Z</time>
      </trkpt>
      <trkpt lat="42.94015" lon="1.12238">
        <ele>1043.4</ele>
        <time>2024-10-06T09:32:17Z</time>
      </trkpt>
      <trkpt lat="42.94016" lon="1.12234">
        <ele>1042.8</ele>
        <time>2024-10-06T09:32:18Z</time>
      </trkpt>
      <trkpt lat="42.94018" lon="1.1223">
        <ele>1042</ele>
        <time>2024-10-06T09:32:19Z</time>
      </trkpt>
      <trkpt lat="42.9402" lon="1.12227">
        <ele>1041.4</ele>
        <time>2024-10-06T09:32:20Z</time>
      </trkpt>
      <trkpt lat="42.94022" lon="1.12224">
        <ele>1040.6</ele>
        <time>2024-10-06T09:32:21Z</time>
      </trkpt>
      <trkpt lat="42.94024" lon="1.1222">
        <ele>1040</ele>
        <time>2024-10-06T09:32:22Z</time>
      </trkpt>
      <trkpt lat="42.94027" lon="1.12216">
        <ele>1039.2</ele>
        <time>2024-10-06T09:32:23Z</time>
      </trkpt>
      <trkpt lat="42.9403" lon="1.12213">
        <ele>1038.4</ele>
        <time>2024-10-06T09:32:24Z</time>
      </trkpt>
      <trkpt lat="42.94032" lon="1.12211">
        <ele>1037.4</ele>
        <time>2024-10-06T09:32:25Z</time>
      </trkpt>
      <trkpt lat="42.94034" lon="1.12209">
        <ele>1036.6</ele>
        <time>2024-10-06T09:32:26Z</time>
      </trkpt>
      <trkpt lat="42.94037" lon="1.12208">
        <ele>1035.6</ele>
        <time>2024-10-06T09:32:27Z</time>
      </trkpt>
      <trkpt lat="42.94039" lon="1.12206">
        <ele>1034.6</ele>
        <time>2024-10-06T09:32:28Z</time>
      </trkpt>
      <trkpt lat="42.94042" lon="1.12203">
        <ele>1033.8</ele>
        <time>2024-10-06T09:32:29Z</time>
      </trkpt>
      <trkpt lat="42.94045" lon="1.12199">
        <ele>1032.8</ele>
        <time>2024-10-06T09:32:30Z</time>
      </trkpt>
      <trkpt lat="42.94048" lon="1.12195">
        <ele>1031.8</ele>
        <time>2024-10-06T09:32:31Z</time>
      </trkpt>
      <trkpt lat="42.94051" lon="1.1219">
        <ele>1030.8</ele>
        <time>2024-10-06T09:32:32Z</time>
      </trkpt>
      <trkpt lat="42.94054" lon="1.12183">
        <ele>1029.8</ele>
        <time>2024-10-06T09:32:33Z</time>
      </trkpt>
      <trkpt lat="42.94058" lon="1.12175">
        <ele>1028.8</ele>
        <time>2024-10-06T09:32:34Z</time>
      </trkpt>
      <trkpt lat="42.94061" lon="1.12168">
        <ele>1026.8</ele>
        <time>2024-10-06T09:32:35Z</time>
      </trkpt>
      <trkpt lat="42.94065" lon="1.12159">
        <ele>1025.8</ele>
        <time>2024-10-06T09:32:36Z</time>
      </trkpt>
      <trkpt lat="42.94068" lon="1.1215">
        <ele>1024.8</ele>
        <time>2024-10-06T09:32:37Z</time>
      </trkpt>
      <trkpt lat="42.94071" lon="1.12142">
        <ele>1023.8</ele>
        <time>2024-10-06T09:32:38Z</time>
      </trkpt>
      <trkpt lat="42.94073" lon="1.12134">
        <ele>1022.6</ele>
        <time>2024-10-06T09:32:39Z</time>
      </trkpt>
      <trkpt lat="42.94075" lon="1.12124">
        <ele>1021.6</ele>
        <time>2024-10-06T09:32:40Z</time>
      </trkpt>
      <trkpt lat="42.94077" lon="1.12114">
        <ele>1020.6</ele>
        <time>2024-10-06T09:32:41Z</time>
      </trkpt>
      <trkpt lat="42.94077" lon="1.12105">
        <ele>1019.6</ele>
        <time>2024-10-06T09:32:42Z</time>
      </trkpt>
      <trkpt lat="42.94078" lon="1.12097">
        <ele>1018.6</ele>
        <time>2024-10-06T09:32:43Z</time>
      </trkpt>
      <trkpt lat="42.94079" lon="1.12088">
        <ele>1017.6</ele>
        <time>2024-10-06T09:32:44Z</time>
      </trkpt>
      <trkpt lat="42.94081" lon="1.12078">
        <ele>1016.6</ele>
        <time>2024-10-06T09:32:45Z</time>
      </trkpt>
      <trkpt lat="42.94082" lon="1.12068">
        <ele>1015.8</ele>
        <time>2024-10-06T09:32:46Z</time>
      </trkpt>
      <trkpt lat="42.94083" lon="1.12059">
        <ele>1014.8</ele>
        <time>2024-10-06T09:32:47Z</time>
      </trkpt>
      <trkpt lat="42.94085" lon="1.12051">
        <ele>1014</ele>
        <time>2024-10-06T09:32:48Z</time>
      </trkpt>
      <trkpt lat="42.94087" lon="1.12043">
        <ele>1013.4</ele>
        <time>2024-10-06T09:32:49Z</time>
      </trkpt>
      <trkpt lat="42.9409" lon="1.12036">
        <ele>1012.8</ele>
        <time>2024-10-06T09:32:50Z</time>
      </trkpt>
      <trkpt lat="42.94094" lon="1.12028">
        <ele>1012</ele>
        <time>2024-10-06T09:32:51Z</time>
      </trkpt>
      <trkpt lat="42.94098" lon="1.1202">
        <ele>1011.4</ele>
        <time>2024-10-06T09:32:52Z</time>
      </trkpt>
      <trkpt lat="42.94101" lon="1.12012">
        <ele>1010.8</ele>
        <time>2024-10-06T09:32:53Z</time>
      </trkpt>
      <trkpt lat="42.94104" lon="1.12004">
        <ele>1010.4</ele>
        <time>2024-10-06T09:32:54Z</time>
      </trkpt>
      <trkpt lat="42.94106" lon="1.11995">
        <ele>1010</ele>
        <time>2024-10-06T09:32:55Z</time>
      </trkpt>
      <trkpt lat="42.94108" lon="1.11988">
        <ele>1009.2</ele>
        <time>2024-10-06T09:32:56Z</time>
      </trkpt>
      <trkpt lat="42.94111" lon="1.11981">
        <ele>1008.4</ele>
        <time>2024-10-06T09:32:57Z</time>
      </trkpt>
      <trkpt lat="42.94113" lon="1.11975">
        <ele>1007.4</ele>
        <time>2024-10-06T09:32:58Z</time>
      </trkpt>
      <trkpt lat="42.94116" lon="1.1197">
        <ele>1006.4</ele>
        <time>2024-10-06T09:32:59Z</time>
      </trkpt>
      <trkpt lat="42.94119" lon="1.11965">
        <ele>1004.6</ele>
        <time>2024-10-06T09:33:00Z</time>
      </trkpt>
      <trkpt lat="42.94121" lon="1.11959">
        <ele>1003.6</ele>
        <time>2024-10-06T09:33:01Z</time>
      </trkpt>
      <trkpt lat="42.94123" lon="1.11954">
        <ele>1002.8</ele>
        <time>2024-10-06T09:33:02Z</time>
      </trkpt>
      <trkpt lat="42.94125" lon="1.1195">
        <ele>1001.8</ele>
        <time>2024-10-06T09:33:03Z</time>
      </trkpt>
      <trkpt lat="42.94128" lon="1.11947">
        <ele>1000.8</ele>
        <time>2024-10-06T09:33:04Z</time>
      </trkpt>
      <trkpt lat="42.9413" lon="1.11944">
        <ele>999.8</ele>
        <time>2024-10-06T09:33:05Z</time>
      </trkpt>
      <trkpt lat="42.94131" lon="1.11939">
        <ele>998.8</ele>
        <time>2024-10-06T09:33:06Z</time>
      </trkpt>
      <trkpt lat="42.94132" lon="1.11934">
        <ele>997.8</ele>
        <time>2024-10-06T09:33:07Z</time>
      </trkpt>
      <trkpt lat="42.94133" lon="1.11927">
        <ele>997</ele>
        <time>2024-10-06T09:33:08Z</time>
      </trkpt>
      <trkpt lat="42.94134" lon="1.11922">
        <ele>995.8</ele>
        <time>2024-10-06T09:33:09Z</time>
      </trkpt>
      <trkpt lat="42.94135" lon="1.11917">
        <ele>994.8</ele>
        <time>2024-10-06T09:33:10Z</time>
      </trkpt>
      <trkpt lat="42.94137" lon="1.11912">
        <ele>993.6</ele>
        <time>2024-10-06T09:33:11Z</time>
      </trkpt>
      <trkpt lat="42.94138" lon="1.11906">
        <ele>992.6</ele>
        <time>2024-10-06T09:33:12Z</time>
      </trkpt>
      <trkpt lat="42.9414" lon="1.11898">
        <ele>991.6</ele>
        <time>2024-10-06T09:33:13Z</time>
      </trkpt>
      <trkpt lat="42.94141" lon="1.11891">
        <ele>990.6</ele>
        <time>2024-10-06T09:33:14Z</time>
      </trkpt>
      <trkpt lat="42.94144" lon="1.11886">
        <ele>989.6</ele>
        <time>2024-10-06T09:33:15Z</time>
      </trkpt>
      <trkpt lat="42.94147" lon="1.11883">
        <ele>988.6</ele>
        <time>2024-10-06T09:33:16Z</time>
      </trkpt>
      <trkpt lat="42.94149" lon="1.11882">
        <ele>987.6</ele>
        <time>2024-10-06T09:33:17Z</time>
      </trkpt>
      <trkpt lat="42.94149" lon="1.11881">
        <ele>986.6</ele>
        <time>2024-10-06T09:33:18Z</time>
      </trkpt>
      <trkpt lat="42.9415" lon="1.1188">
        <ele>986.6</ele>
        <time>2024-10-06T09:33:20Z</time>
      </trkpt>
      <trkpt lat="42.94151" lon="1.11885">
        <ele>986.6</ele>
        <time>2024-10-06T09:33:49Z</time>
      </trkpt>
      <trkpt lat="42.94151" lon="1.11888">
        <ele>986.6</ele>
        <time>2024-10-06T09:33:50Z</time>
      </trkpt>
      <trkpt lat="42.94151" lon="1.11891">
        <ele>986.2</ele>
        <time>2024-10-06T09:33:51Z</time>
      </trkpt>
      <trkpt lat="42.94151" lon="1.11895">
        <ele>985.8</ele>
        <time>2024-10-06T09:33:52Z</time>
      </trkpt>
      <trkpt lat="42.94152" lon="1.11899">
        <ele>985.4</ele>
        <time>2024-10-06T09:33:53Z</time>
      </trkpt>
      <trkpt lat="42.94152" lon="1.11904">
        <ele>984.8</ele>
        <time>2024-10-06T09:33:54Z</time>
      </trkpt>
      <trkpt lat="42.94152" lon="1.1191">
        <ele>984.4</ele>
        <time>2024-10-06T09:33:55Z</time>
      </trkpt>
      <trkpt lat="42.94154" lon="1.11924">
        <ele>984.4</ele>
        <time>2024-10-06T09:33:57Z</time>
      </trkpt>
      <trkpt lat="42.94155" lon="1.11932">
        <ele>984</ele>
        <time>2024-10-06T09:33:58Z</time>
      </trkpt>
      <trkpt lat="42.94157" lon="1.11941">
        <ele>983.6</ele>
        <time>2024-10-06T09:33:59Z</time>
      </trkpt>
      <trkpt lat="42.94159" lon="1.1195">
        <ele>983</ele>
        <time>2024-10-06T09:34:00Z</time>
      </trkpt>
      <trkpt lat="42.94161" lon="1.11959">
        <ele>982.6</ele>
        <time>2024-10-06T09:34:01Z</time>
      </trkpt>
      <trkpt lat="42.94162" lon="1.11968">
        <ele>982.2</ele>
        <time>2024-10-06T09:34:02Z</time>
      </trkpt>
      <trkpt lat="42.94164" lon="1.11976">
        <ele>981.6</ele>
        <time>2024-10-06T09:34:03Z</time>
      </trkpt>
      <trkpt lat="42.94166" lon="1.11984">
        <ele>981.2</ele>
        <time>2024-10-06T09:34:04Z</time>
      </trkpt>
      <trkpt lat="42.94169" lon="1.11992">
        <ele>980.8</ele>
        <time>2024-10-06T09:34:05Z</time>
      </trkpt>
      <trkpt lat="42.94172" lon="1.11999">
        <ele>980.4</ele>
        <time>2024-10-06T09:34:06Z</time>
      </trkpt>
      <trkpt lat="42.94176" lon="1.12006">
        <ele>980</ele>
        <time>2024-10-06T09:34:07Z</time>
      </trkpt>
      <trkpt lat="42.94189" lon="1.12043">
        <ele>980</ele>
        <time>2024-10-06T09:34:12Z</time>
      </trkpt>
      <trkpt lat="42.94192" lon="1.12051">
        <ele>979.4</ele>
        <time>2024-10-06T09:34:13Z</time>
      </trkpt>
      <trkpt lat="42.94195" lon="1.12061">
        <ele>979</ele>
        <time>2024-10-06T09:34:14Z</time>
      </trkpt>
      <trkpt lat="42.94199" lon="1.1207">
        <ele>978.6</ele>
        <time>2024-10-06T09:34:15Z</time>
      </trkpt>
      <trkpt lat="42.94204" lon="1.12077">
        <ele>978</ele>
        <time>2024-10-06T09:34:16Z</time>
      </trkpt>
      <trkpt lat="42.94209" lon="1.12085">
        <ele>977.4</ele>
        <time>2024-10-06T09:34:17Z</time>
      </trkpt>
      <trkpt lat="42.94214" lon="1.12093">
        <ele>976.8</ele>
        <time>2024-10-06T09:34:18Z</time>
      </trkpt>
      <trkpt lat="42.94219" lon="1.12103">
        <ele>976</ele>
        <time>2024-10-06T09:34:19Z</time>
      </trkpt>
      <trkpt lat="42.94224" lon="1.12112">
        <ele>975.2</ele>
        <time>2024-10-06T09:34:20Z</time>
      </trkpt>
      <trkpt lat="42.94229" lon="1.12121">
        <ele>974.4</ele>
        <time>2024-10-06T09:34:21Z</time>
      </trkpt>
      <trkpt lat="42.94234" lon="1.12131">
        <ele>973.6</ele>
        <time>2024-10-06T09:34:22Z</time>
      </trkpt>
      <trkpt lat="42.94238" lon="1.12142">
        <ele>972.6</ele>
        <time>2024-10-06T09:34:23Z</time>
      </trkpt>
      <trkpt lat="42.94242" lon="1.12151">
        <ele>971.8</ele>
        <time>2024-10-06T09:34:24Z</time>
      </trkpt>
      <trkpt lat="42.94248" lon="1.12158">
        <ele>971</ele>
        <time>2024-10-06T09:34:25Z</time>
      </trkpt>
      <trkpt lat="42.94254" lon="1.12162">
        <ele>970</ele>
        <time>2024-10-06T09:34:26Z</time>
      </trkpt>
      <trkpt lat="42.94262" lon="1.12164">
        <ele>969</ele>
        <time>2024-10-06T09:34:27Z</time>
      </trkpt>
      <trkpt lat="42.94269" lon="1.12166">
        <ele>968.2</ele>
        <time>2024-10-06T09:34:28Z</time>
      </trkpt>
      <trkpt lat="42.94277" lon="1.12169">
        <ele>967.2</ele>
        <time>2024-10-06T09:34:29Z</time>
      </trkpt>
      <trkpt lat="42.94284" lon="1.12174">
        <ele>966.4</ele>
        <time>2024-10-06T09:34:30Z</time>
      </trkpt>
      <trkpt lat="42.94291" lon="1.12181">
        <ele>965.4</ele>
        <time>2024-10-06T09:34:31Z</time>
      </trkpt>
      <trkpt lat="42.94297" lon="1.1219">
        <ele>964.4</ele>
        <time>2024-10-06T09:34:32Z</time>
      </trkpt>
      <trkpt lat="42.94303" lon="1.122">
        <ele>963.6</ele>
        <time>2024-10-06T09:34:33Z</time>
      </trkpt>
      <trkpt lat="42.94309" lon="1.12211">
        <ele>962.6</ele>
        <time>2024-10-06T09:34:34Z</time>
      </trkpt>
      <trkpt lat="42.94314" lon="1.12221">
        <ele>961.6</ele>
        <time>2024-10-06T09:34:35Z</time>
      </trkpt>
      <trkpt lat="42.94319" lon="1.12231">
        <ele>960.6</ele>
        <time>2024-10-06T09:34:36Z</time>
      </trkpt>
      <trkpt lat="42.94322" lon="1.1224">
        <ele>959.6</ele>
        <time>2024-10-06T09:34:37Z</time>
      </trkpt>
      <trkpt lat="42.94324" lon="1.12248">
        <ele>957.4</ele>
        <time>2024-10-06T09:34:38Z</time>
      </trkpt>
      <trkpt lat="42.94325" lon="1.12257">
        <ele>956.2</ele>
        <time>2024-10-06T09:34:39Z</time>
      </trkpt>
      <trkpt lat="42.94324" lon="1.12267">
        <ele>955.2</ele>
        <time>2024-10-06T09:34:40Z</time>
      </trkpt>
      <trkpt lat="42.94323" lon="1.12278">
        <ele>954.2</ele>
        <time>2024-10-06T09:34:41Z</time>
      </trkpt>
      <trkpt lat="42.94323" lon="1.1229">
        <ele>953.2</ele>
        <time>2024-10-06T09:34:42Z</time>
      </trkpt>
      <trkpt lat="42.94324" lon="1.12304">
        <ele>952</ele>
        <time>2024-10-06T09:34:43Z</time>
      </trkpt>
      <trkpt lat="42.94326" lon="1.12318">
        <ele>951</ele>
        <time>2024-10-06T09:34:44Z</time>
      </trkpt>
      <trkpt lat="42.94328" lon="1.12332">
        <ele>949.8</ele>
        <time>2024-10-06T09:34:45Z</time>
      </trkpt>
      <trkpt lat="42.9433" lon="1.12346">
        <ele>948.4</ele>
        <time>2024-10-06T09:34:46Z</time>
      </trkpt>
      <trkpt lat="42.94332" lon="1.12361">
        <ele>947.2</ele>
        <time>2024-10-06T09:34:47Z</time>
      </trkpt>
      <trkpt lat="42.94333" lon="1.12375">
        <ele>946</ele>
        <time>2024-10-06T09:34:48Z</time>
      </trkpt>
      <trkpt lat="42.94333" lon="1.12388">
        <ele>944.6</ele>
        <time>2024-10-06T09:34:49Z</time>
      </trkpt>
      <trkpt lat="42.94333" lon="1.12401">
        <ele>943.4</ele>
        <time>2024-10-06T09:34:50Z</time>
      </trkpt>
      <trkpt lat="42.94333" lon="1.12411">
        <ele>942.2</ele>
        <time>2024-10-06T09:34:51Z</time>
      </trkpt>
      <trkpt lat="42.94334" lon="1.1242">
        <ele>941</ele>
        <time>2024-10-06T09:34:52Z</time>
      </trkpt>
      <trkpt lat="42.94334" lon="1.12427">
        <ele>939.8</ele>
        <time>2024-10-06T09:34:53Z</time>
      </trkpt>
      <trkpt lat="42.94336" lon="1.12431">
        <ele>938.6</ele>
        <time>2024-10-06T09:34:54Z</time>
      </trkpt>
      <trkpt lat="42.94341" lon="1.12431">
        <ele>938.6</ele>
        <time>2024-10-06T09:34:56Z</time>
      </trkpt>
      <trkpt lat="42.94343" lon="1.12426">
        <ele>938.2</ele>
        <time>2024-10-06T09:34:57Z</time>
      </trkpt>
      <trkpt lat="42.94344" lon="1.12419">
        <ele>937.8</ele>
        <time>2024-10-06T09:34:58Z</time>
      </trkpt>
      <trkpt lat="42.94344" lon="1.12412">
        <ele>937.2</ele>
        <time>2024-10-06T09:34:59Z</time>
      </trkpt>
      <trkpt lat="42.94344" lon="1.12404">
        <ele>936.8</ele>
        <time>2024-10-06T09:35:00Z</time>
      </trkpt>
      <trkpt lat="42.94344" lon="1.12396">
        <ele>936.4</ele>
        <time>2024-10-06T09:35:01Z</time>
      </trkpt>
      <trkpt lat="42.94345" lon="1.12387">
        <ele>935.8</ele>
        <time>2024-10-06T09:35:02Z</time>
      </trkpt>
      <trkpt lat="42.94346" lon="1.12377">
        <ele>935.4</ele>
        <time>2024-10-06T09:35:03Z</time>
      </trkpt>
      <trkpt lat="42.94348" lon="1.12368">
        <ele>934.8</ele>
        <time>2024-10-06T09:35:04Z</time>
      </trkpt>
      <trkpt lat="42.9435" lon="1.12357">
        <ele>934.2</ele>
        <time>2024-10-06T09:35:05Z</time>
      </trkpt>
      <trkpt lat="42.94353" lon="1.12346">
        <ele>933.4</ele>
        <time>2024-10-06T09:35:06Z</time>
      </trkpt>
      <trkpt lat="42.94355" lon="1.12333">
        <ele>932.8</ele>
        <time>2024-10-06T09:35:07Z</time>
      </trkpt>
      <trkpt lat="42.94357" lon="1.12319">
        <ele>931.8</ele>
        <time>2024-10-06T09:35:08Z</time>
      </trkpt>
      <trkpt lat="42.94358" lon="1.12305">
        <ele>931</ele>
        <time>2024-10-06T09:35:09Z</time>
      </trkpt>
      <trkpt lat="42.9436" lon="1.12292">
        <ele>930</ele>
        <time>2024-10-06T09:35:10Z</time>
      </trkpt>
      <trkpt lat="42.94362" lon="1.12282">
        <ele>929</ele>
        <time>2024-10-06T09:35:11Z</time>
      </trkpt>
      <trkpt lat="42.94364" lon="1.12273">
        <ele>928</ele>
        <time>2024-10-06T09:35:12Z</time>
      </trkpt>
      <trkpt lat="42.94369" lon="1.12265">
        <ele>927.2</ele>
        <time>2024-10-06T09:35:13Z</time>
      </trkpt>
      <trkpt lat="42.94375" lon="1.12256">
        <ele>926.2</ele>
        <time>2024-10-06T09:35:14Z</time>
      </trkpt>
      <trkpt lat="42.94382" lon="1.12248">
        <ele>925.2</ele>
        <time>2024-10-06T09:35:15Z</time>
      </trkpt>
      <trkpt lat="42.94389" lon="1.1224">
        <ele>924.4</ele>
        <time>2024-10-06T09:35:16Z</time>
      </trkpt>
      <trkpt lat="42.94396" lon="1.12232">
        <ele>923.4</ele>
        <time>2024-10-06T09:35:17Z</time>
      </trkpt>
      <trkpt lat="42.94401" lon="1.12221">
        <ele>922.4</ele>
        <time>2024-10-06T09:35:18Z</time>
      </trkpt>
      <trkpt lat="42.94406" lon="1.1221">
        <ele>921.6</ele>
        <time>2024-10-06T09:35:19Z</time>
      </trkpt>
      <trkpt lat="42.9441" lon="1.12198">
        <ele>920.8</ele>
        <time>2024-10-06T09:35:20Z</time>
      </trkpt>
      <trkpt lat="42.94412" lon="1.12186">
        <ele>920</ele>
        <time>2024-10-06T09:35:21Z</time>
      </trkpt>
      <trkpt lat="42.94409" lon="1.12173">
        <ele>919.2</ele>
        <time>2024-10-06T09:35:22Z</time>
      </trkpt>
      <trkpt lat="42.94406" lon="1.12159">
        <ele>918.4</ele>
        <time>2024-10-06T09:35:23Z</time>
      </trkpt>
      <trkpt lat="42.94403" lon="1.12146">
        <ele>917.6</ele>
        <time>2024-10-06T09:35:24Z</time>
      </trkpt>
      <trkpt lat="42.94399" lon="1.12133">
        <ele>916.8</ele>
        <time>2024-10-06T09:35:25Z</time>
      </trkpt>
      <trkpt lat="42.94395" lon="1.1212">
        <ele>916</ele>
        <time>2024-10-06T09:35:26Z</time>
      </trkpt>
      <trkpt lat="42.94389" lon="1.12109">
        <ele>914.4</ele>
        <time>2024-10-06T09:35:27Z</time>
      </trkpt>
      <trkpt lat="42.94383" lon="1.12099">
        <ele>913.8</ele>
        <time>2024-10-06T09:35:28Z</time>
      </trkpt>
      <trkpt lat="42.94377" lon="1.1209">
        <ele>913.2</ele>
        <time>2024-10-06T09:35:29Z</time>
      </trkpt>
      <trkpt lat="42.94371" lon="1.1208">
        <ele>912.6</ele>
        <time>2024-10-06T09:35:30Z</time>
      </trkpt>
      <trkpt lat="42.94366" lon="1.12069">
        <ele>911.8</ele>
        <time>2024-10-06T09:35:31Z</time>
      </trkpt>
      <trkpt lat="42.94362" lon="1.12058">
        <ele>911</ele>
        <time>2024-10-06T09:35:32Z</time>
      </trkpt>
      <trkpt lat="42.94359" lon="1.12046">
        <ele>910.4</ele>
        <time>2024-10-06T09:35:33Z</time>
      </trkpt>
      <trkpt lat="42.94356" lon="1.12035">
        <ele>909.6</ele>
        <time>2024-10-06T09:35:34Z</time>
      </trkpt>
      <trkpt lat="42.94352" lon="1.12026">
        <ele>908.8</ele>
        <time>2024-10-06T09:35:35Z</time>
      </trkpt>
      <trkpt lat="42.94348" lon="1.12018">
        <ele>908</ele>
        <time>2024-10-06T09:35:36Z</time>
      </trkpt>
      <trkpt lat="42.94344" lon="1.12013">
        <ele>907.4</ele>
        <time>2024-10-06T09:35:37Z</time>
      </trkpt>
      <trkpt lat="42.9434" lon="1.12008">
        <ele>906.6</ele>
        <time>2024-10-06T09:35:38Z</time>
      </trkpt>
      <trkpt lat="42.94338" lon="1.12004">
        <ele>906</ele>
        <time>2024-10-06T09:35:39Z</time>
      </trkpt>
      <trkpt lat="42.94339" lon="1.12002">
        <ele>905.4</ele>
        <time>2024-10-06T09:35:40Z</time>
      </trkpt>
      <trkpt lat="42.94342" lon="1.12003">
        <ele>904.8</ele>
        <time>2024-10-06T09:35:41Z</time>
      </trkpt>
      <trkpt lat="42.94344" lon="1.12006">
        <ele>904</ele>
        <time>2024-10-06T09:35:42Z</time>
      </trkpt>
      <trkpt lat="42.94346" lon="1.12009">
        <ele>904</ele>
        <time>2024-10-06T09:35:43Z</time>
      </trkpt>
      <trkpt lat="42.94349" lon="1.12012">
        <ele>904</ele>
        <time>2024-10-06T09:35:44Z</time>
      </trkpt>
      <trkpt lat="42.94354" lon="1.12015">
        <ele>903.6</ele>
        <time>2024-10-06T09:35:45Z</time>
      </trkpt>
      <trkpt lat="42.94359" lon="1.12018">
        <ele>903.2</ele>
        <time>2024-10-06T09:35:46Z</time>
      </trkpt>
      <trkpt lat="42.94365" lon="1.12022">
        <ele>902.8</ele>
        <time>2024-10-06T09:35:47Z</time>
      </trkpt>
      <trkpt lat="42.9437" lon="1.12024">
        <ele>902.2</ele>
        <time>2024-10-06T09:35:48Z</time>
      </trkpt>
      <trkpt lat="42.94376" lon="1.12025">
        <ele>901.8</ele>
        <time>2024-10-06T09:35:49Z</time>
      </trkpt>
      <trkpt lat="42.94382" lon="1.12026">
        <ele>901.8</ele>
        <time>2024-10-06T09:35:50Z</time>
      </trkpt>
      <trkpt lat="42.94389" lon="1.12027">
        <ele>901.4</ele>
        <time>2024-10-06T09:35:51Z</time>
      </trkpt>
      <trkpt lat="42.94398" lon="1.12029">
        <ele>900.4</ele>
        <time>2024-10-06T09:35:52Z</time>
      </trkpt>
      <trkpt lat="42.94407" lon="1.12033">
        <ele>899.8</ele>
        <time>2024-10-06T09:35:53Z</time>
      </trkpt>
      <trkpt lat="42.94416" lon="1.12039">
        <ele>899.2</ele>
        <time>2024-10-06T09:35:54Z</time>
      </trkpt>
      <trkpt lat="42.94425" lon="1.12047">
        <ele>898.2</ele>
        <time>2024-10-06T09:35:55Z</time>
      </trkpt>
      <trkpt lat="42.94432" lon="1.12056">
        <ele>897.4</ele>
        <time>2024-10-06T09:35:56Z</time>
      </trkpt>
      <trkpt lat="42.94439" lon="1.12067">
        <ele>896.4</ele>
        <time>2024-10-06T09:35:57Z</time>
      </trkpt>
      <trkpt lat="42.94445" lon="1.12076">
        <ele>895.4</ele>
        <time>2024-10-06T09:35:58Z</time>
      </trkpt>
      <trkpt lat="42.94451" lon="1.12086">
        <ele>894.6</ele>
        <time>2024-10-06T09:35:59Z</time>
      </trkpt>
      <trkpt lat="42.94457" lon="1.12095">
        <ele>893.6</ele>
        <time>2024-10-06T09:36:00Z</time>
      </trkpt>
      <trkpt lat="42.94462" lon="1.12105">
        <ele>892.8</ele>
        <time>2024-10-06T09:36:01Z</time>
      </trkpt>
      <trkpt lat="42.94467" lon="1.12115">
        <ele>892</ele>
        <time>2024-10-06T09:36:02Z</time>
      </trkpt>
      <trkpt lat="42.9447" lon="1.12126">
        <ele>891.2</ele>
        <time>2024-10-06T09:36:03Z</time>
      </trkpt>
      <trkpt lat="42.94473" lon="1.12138">
        <ele>890.4</ele>
        <time>2024-10-06T09:36:04Z</time>
      </trkpt>
      <trkpt lat="42.94474" lon="1.12151">
        <ele>889.8</ele>
        <time>2024-10-06T09:36:05Z</time>
      </trkpt>
      <trkpt lat="42.94475" lon="1.12163">
        <ele>889.2</ele>
        <time>2024-10-06T09:36:06Z</time>
      </trkpt>
      <trkpt lat="42.94475" lon="1.12174">
        <ele>888.6</ele>
        <time>2024-10-06T09:36:07Z</time>
      </trkpt>
      <trkpt lat="42.94476" lon="1.12185">
        <ele>888</ele>
        <time>2024-10-06T09:36:08Z</time>
      </trkpt>
      <trkpt lat="42.94478" lon="1.12196">
        <ele>887.2</ele>
        <time>2024-10-06T09:36:09Z</time>
      </trkpt>
      <trkpt lat="42.94479" lon="1.12215">
        <ele>887.2</ele>
        <time>2024-10-06T09:36:11Z</time>
      </trkpt>
      <trkpt lat="42.94478" lon="1.12224">
        <ele>887.2</ele>
        <time>2024-10-06T09:36:12Z</time>
      </trkpt>
      <trkpt lat="42.94471" lon="1.12243">
        <ele>887.2</ele>
        <time>2024-10-06T09:36:15Z</time>
      </trkpt>
      <trkpt lat="42.94466" lon="1.12254">
        <ele>887.2</ele>
        <time>2024-10-06T09:36:17Z</time>
      </trkpt>
      <trkpt lat="42.94462" lon="1.1226">
        <ele>887.2</ele>
        <time>2024-10-06T09:36:18Z</time>
      </trkpt>
      <trkpt lat="42.94458" lon="1.12265">
        <ele>887.2</ele>
        <time>2024-10-06T09:36:19Z</time>
      </trkpt>
      <trkpt lat="42.94449" lon="1.12278">
        <ele>887.2</ele>
        <time>2024-10-06T09:36:21Z</time>
      </trkpt>
      <trkpt lat="42.94441" lon="1.12301">
        <ele>887.2</ele>
        <time>2024-10-06T09:36:24Z</time>
      </trkpt>
      <trkpt lat="42.94435" lon="1.12325">
        <ele>887.2</ele>
        <time>2024-10-06T09:36:27Z</time>
      </trkpt>
      <trkpt lat="42.94432" lon="1.12351">
        <ele>887.2</ele>
        <time>2024-10-06T09:36:30Z</time>
      </trkpt>
      <trkpt lat="42.94432" lon="1.1236">
        <ele>887.2</ele>
        <time>2024-10-06T09:36:31Z</time>
      </trkpt>
      <trkpt lat="42.94433" lon="1.12378">
        <ele>887.2</ele>
        <time>2024-10-06T09:36:33Z</time>
      </trkpt>
      <trkpt lat="42.94435" lon="1.12397">
        <ele>887.2</ele>
        <time>2024-10-06T09:36:35Z</time>
      </trkpt>
      <trkpt lat="42.94439" lon="1.12427">
        <ele>886.8</ele>
        <time>2024-10-06T09:36:38Z</time>
      </trkpt>
      <trkpt lat="42.9444" lon="1.12437">
        <ele>886.4</ele>
        <time>2024-10-06T09:36:39Z</time>
      </trkpt>
      <trkpt lat="42.94443" lon="1.12449">
        <ele>886</ele>
        <time>2024-10-06T09:36:40Z</time>
      </trkpt>
      <trkpt lat="42.94445" lon="1.12461">
        <ele>885.6</ele>
        <time>2024-10-06T09:36:41Z</time>
      </trkpt>
      <trkpt lat="42.94447" lon="1.12473">
        <ele>884.4</ele>
        <time>2024-10-06T09:36:42Z</time>
      </trkpt>
      <trkpt lat="42.94449" lon="1.12486">
        <ele>883.8</ele>
        <time>2024-10-06T09:36:43Z</time>
      </trkpt>
      <trkpt lat="42.94449" lon="1.125">
        <ele>883</ele>
        <time>2024-10-06T09:36:44Z</time>
      </trkpt>
      <trkpt lat="42.9445" lon="1.12513">
        <ele>882.4</ele>
        <time>2024-10-06T09:36:45Z</time>
      </trkpt>
      <trkpt lat="42.94449" lon="1.12527">
        <ele>881.6</ele>
        <time>2024-10-06T09:36:46Z</time>
      </trkpt>
      <trkpt lat="42.94448" lon="1.1254">
        <ele>881</ele>
        <time>2024-10-06T09:36:47Z</time>
      </trkpt>
      <trkpt lat="42.94447" lon="1.12553">
        <ele>880.2</ele>
        <time>2024-10-06T09:36:48Z</time>
      </trkpt>
      <trkpt lat="42.94447" lon="1.12564">
        <ele>879.4</ele>
        <time>2024-10-06T09:36:49Z</time>
      </trkpt>
      <trkpt lat="42.94448" lon="1.12574">
        <ele>878.6</ele>
        <time>2024-10-06T09:36:50Z</time>
      </trkpt>
      <trkpt lat="42.94447" lon="1.12584">
        <ele>878</ele>
        <time>2024-10-06T09:36:51Z</time>
      </trkpt>
      <trkpt lat="42.94444" lon="1.12594">
        <ele>877.4</ele>
        <time>2024-10-06T09:36:52Z</time>
      </trkpt>
      <trkpt lat="42.94441" lon="1.12603">
        <ele>876.8</ele>
        <time>2024-10-06T09:36:53Z</time>
      </trkpt>
      <trkpt lat="42.94438" lon="1.12613">
        <ele>876.2</ele>
        <time>2024-10-06T09:36:54Z</time>
      </trkpt>
      <trkpt lat="42.94435" lon="1.12624">
        <ele>875.6</ele>
        <time>2024-10-06T09:36:55Z</time>
      </trkpt>
      <trkpt lat="42.94433" lon="1.12638">
        <ele>875</ele>
        <time>2024-10-06T09:36:56Z</time>
      </trkpt>
      <trkpt lat="42.94432" lon="1.12651">
        <ele>874.4</ele>
        <time>2024-10-06T09:36:57Z</time>
      </trkpt>
      <trkpt lat="42.94431" lon="1.12665">
        <ele>873.6</ele>
        <time>2024-10-06T09:36:58Z</time>
      </trkpt>
      <trkpt lat="42.9443" lon="1.12678">
        <ele>872.8</ele>
        <time>2024-10-06T09:36:59Z</time>
      </trkpt>
      <trkpt lat="42.94429" lon="1.12691">
        <ele>872</ele>
        <time>2024-10-06T09:37:00Z</time>
      </trkpt>
      <trkpt lat="42.94428" lon="1.12704">
        <ele>871.2</ele>
        <time>2024-10-06T09:37:01Z</time>
      </trkpt>
      <trkpt lat="42.94426" lon="1.12717">
        <ele>870.6</ele>
        <time>2024-10-06T09:37:02Z</time>
      </trkpt>
      <trkpt lat="42.94423" lon="1.12731">
        <ele>870</ele>
        <time>2024-10-06T09:37:03Z</time>
      </trkpt>
      <trkpt lat="42.94421" lon="1.12745">
        <ele>869.4</ele>
        <time>2024-10-06T09:37:04Z</time>
      </trkpt>
      <trkpt lat="42.94419" lon="1.1276">
        <ele>868.6</ele>
        <time>2024-10-06T09:37:05Z</time>
      </trkpt>
      <trkpt lat="42.94417" lon="1.12775">
        <ele>868</ele>
        <time>2024-10-06T09:37:06Z</time>
      </trkpt>
      <trkpt lat="42.94417" lon="1.1279">
        <ele>866.6</ele>
        <time>2024-10-06T09:37:07Z</time>
      </trkpt>
      <trkpt lat="42.94418" lon="1.12804">
        <ele>866</ele>
        <time>2024-10-06T09:37:08Z</time>
      </trkpt>
      <trkpt lat="42.94419" lon="1.12819">
        <ele>865.4</ele>
        <time>2024-10-06T09:37:09Z</time>
      </trkpt>
      <trkpt lat="42.94419" lon="1.12833">
        <ele>864.6</ele>
        <time>2024-10-06T09:37:10Z</time>
      </trkpt>
      <trkpt lat="42.94419" lon="1.12847">
        <ele>864</ele>
        <time>2024-10-06T09:37:11Z</time>
      </trkpt>
      <trkpt lat="42.94418" lon="1.12862">
        <ele>863.4</ele>
        <time>2024-10-06T09:37:12Z</time>
      </trkpt>
      <trkpt lat="42.94417" lon="1.12876">
        <ele>862.6</ele>
        <time>2024-10-06T09:37:13Z</time>
      </trkpt>
      <trkpt lat="42.94415" lon="1.1289">
        <ele>862</ele>
        <time>2024-10-06T09:37:14Z</time>
      </trkpt>
      <trkpt lat="42.94413" lon="1.12903">
        <ele>861.2</ele>
        <time>2024-10-06T09:37:15Z</time>
      </trkpt>
      <trkpt lat="42.9441" lon="1.12916">
        <ele>860.6</ele>
        <time>2024-10-06T09:37:16Z</time>
      </trkpt>
      <trkpt lat="42.94408" lon="1.12929">
        <ele>859.8</ele>
        <time>2024-10-06T09:37:17Z</time>
      </trkpt>
      <trkpt lat="42.94408" lon="1.12943">
        <ele>859.2</ele>
        <time>2024-10-06T09:37:18Z</time>
      </trkpt>
      <trkpt lat="42.9441" lon="1.12957">
        <ele>858.4</ele>
        <time>2024-10-06T09:37:19Z</time>
      </trkpt>
      <trkpt lat="42.94412" lon="1.12971">
        <ele>857.8</ele>
        <time>2024-10-06T09:37:20Z</time>
      </trkpt>
      <trkpt lat="42.94414" lon="1.12985">
        <ele>857.2</ele>
        <time>2024-10-06T09:37:21Z</time>
      </trkpt>
      <trkpt lat="42.94416" lon="1.13">
        <ele>856.4</ele>
        <time>2024-10-06T09:37:22Z</time>
      </trkpt>
      <trkpt lat="42.94419" lon="1.13014">
        <ele>855.6</ele>
        <time>2024-10-06T09:37:23Z</time>
      </trkpt>
      <trkpt lat="42.94421" lon="1.13028">
        <ele>854.6</ele>
        <time>2024-10-06T09:37:24Z</time>
      </trkpt>
      <trkpt lat="42.94424" lon="1.13043">
        <ele>853.8</ele>
        <time>2024-10-06T09:37:25Z</time>
      </trkpt>
      <trkpt lat="42.94429" lon="1.13057">
        <ele>852.8</ele>
        <time>2024-10-06T09:37:26Z</time>
      </trkpt>
      <trkpt lat="42.94435" lon="1.1307">
        <ele>852</ele>
        <time>2024-10-06T09:37:27Z</time>
      </trkpt>
      <trkpt lat="42.94442" lon="1.13081">
        <ele>851.2</ele>
        <time>2024-10-06T09:37:28Z</time>
      </trkpt>
      <trkpt lat="42.94451" lon="1.13091">
        <ele>850.2</ele>
        <time>2024-10-06T09:37:29Z</time>
      </trkpt>
      <trkpt lat="42.94458" lon="1.13101">
        <ele>849.2</ele>
        <time>2024-10-06T09:37:30Z</time>
      </trkpt>
      <trkpt lat="42.94465" lon="1.13111">
        <ele>847.4</ele>
        <time>2024-10-06T09:37:31Z</time>
      </trkpt>
      <trkpt lat="42.94471" lon="1.1312">
        <ele>846.6</ele>
        <time>2024-10-06T09:37:32Z</time>
      </trkpt>
      <trkpt lat="42.94476" lon="1.13131">
        <ele>845.8</ele>
        <time>2024-10-06T09:37:33Z</time>
      </trkpt>
      <trkpt lat="42.9448" lon="1.13141">
        <ele>845</ele>
        <time>2024-10-06T09:37:34Z</time>
      </trkpt>
      <trkpt lat="42.94482" lon="1.13153">
        <ele>844.4</ele>
        <time>2024-10-06T09:37:35Z</time>
      </trkpt>
      <trkpt lat="42.94482" lon="1.13165">
        <ele>843.8</ele>
        <time>2024-10-06T09:37:36Z</time>
      </trkpt>
      <trkpt lat="42.9448" lon="1.13178">
        <ele>843.2</ele>
        <time>2024-10-06T09:37:37Z</time>
      </trkpt>
      <trkpt lat="42.94478" lon="1.13191">
        <ele>842.6</ele>
        <time>2024-10-06T09:37:38Z</time>
      </trkpt>
      <trkpt lat="42.94476" lon="1.13205">
        <ele>842</ele>
        <time>2024-10-06T09:37:39Z</time>
      </trkpt>
      <trkpt lat="42.94476" lon="1.1322">
        <ele>841.4</ele>
        <time>2024-10-06T09:37:40Z</time>
      </trkpt>
      <trkpt lat="42.94475" lon="1.13234">
        <ele>840.6</ele>
        <time>2024-10-06T09:37:41Z</time>
      </trkpt>
      <trkpt lat="42.94473" lon="1.13248">
        <ele>839.8</ele>
        <time>2024-10-06T09:37:42Z</time>
      </trkpt>
      <trkpt lat="42.9447" lon="1.13261">
        <ele>838.8</ele>
        <time>2024-10-06T09:37:43Z</time>
      </trkpt>
      <trkpt lat="42.94467" lon="1.13274">
        <ele>838</ele>
        <time>2024-10-06T09:37:44Z</time>
      </trkpt>
      <trkpt lat="42.94464" lon="1.13286">
        <ele>837.4</ele>
        <time>2024-10-06T09:37:45Z</time>
      </trkpt>
      <trkpt lat="42.94462" lon="1.13297">
        <ele>836.8</ele>
        <time>2024-10-06T09:37:46Z</time>
      </trkpt>
      <trkpt lat="42.94462" lon="1.13309">
        <ele>836.2</ele>
        <time>2024-10-06T09:37:47Z</time>
      </trkpt>
      <trkpt lat="42.94462" lon="1.13322">
        <ele>835.4</ele>
        <time>2024-10-06T09:37:48Z</time>
      </trkpt>
      <trkpt lat="42.94464" lon="1.13333">
        <ele>834.8</ele>
        <time>2024-10-06T09:37:49Z</time>
      </trkpt>
      <trkpt lat="42.94468" lon="1.13345">
        <ele>834</ele>
        <time>2024-10-06T09:37:50Z</time>
      </trkpt>
      <trkpt lat="42.94471" lon="1.13357">
        <ele>833.4</ele>
        <time>2024-10-06T09:37:51Z</time>
      </trkpt>
      <trkpt lat="42.94475" lon="1.13369">
        <ele>832.6</ele>
        <time>2024-10-06T09:37:52Z</time>
      </trkpt>
      <trkpt lat="42.94478" lon="1.13381">
        <ele>832</ele>
        <time>2024-10-06T09:37:53Z</time>
      </trkpt>
      <trkpt lat="42.9448" lon="1.13394">
        <ele>831.2</ele>
        <time>2024-10-06T09:37:54Z</time>
      </trkpt>
      <trkpt lat="42.94481" lon="1.13406">
        <ele>830.6</ele>
        <time>2024-10-06T09:37:55Z</time>
      </trkpt>
      <trkpt lat="42.94482" lon="1.13418">
        <ele>829.4</ele>
        <time>2024-10-06T09:37:56Z</time>
      </trkpt>
      <trkpt lat="42.94482" lon="1.13428">
        <ele>828.8</ele>
        <time>2024-10-06T09:37:57Z</time>
      </trkpt>
      <trkpt lat="42.94481" lon="1.1344">
        <ele>828.2</ele>
        <time>2024-10-06T09:37:58Z</time>
      </trkpt>
      <trkpt lat="42.94479" lon="1.1345">
        <ele>827.8</ele>
        <time>2024-10-06T09:37:59Z</time>
      </trkpt>
      <trkpt lat="42.94477" lon="1.1346">
        <ele>827.2</ele>
        <time>2024-10-06T09:38:00Z</time>
      </trkpt>
      <trkpt lat="42.94474" lon="1.13472">
        <ele>826.6</ele>
        <time>2024-10-06T09:38:01Z</time>
      </trkpt>
      <trkpt lat="42.94471" lon="1.13484">
        <ele>825.8</ele>
        <time>2024-10-06T09:38:02Z</time>
      </trkpt>
      <trkpt lat="42.94468" lon="1.13496">
        <ele>825.2</ele>
        <time>2024-10-06T09:38:03Z</time>
      </trkpt>
      <trkpt lat="42.94465" lon="1.13509">
        <ele>824.6</ele>
        <time>2024-10-06T09:38:04Z</time>
      </trkpt>
      <trkpt lat="42.94463" lon="1.13521">
        <ele>823.8</ele>
        <time>2024-10-06T09:38:05Z</time>
      </trkpt>
      <trkpt lat="42.9446" lon="1.13533">
        <ele>823</ele>
        <time>2024-10-06T09:38:06Z</time>
      </trkpt>
      <trkpt lat="42.94455" lon="1.13545">
        <ele>822.4</ele>
        <time>2024-10-06T09:38:07Z</time>
      </trkpt>
      <trkpt lat="42.9445" lon="1.13557">
        <ele>821.6</ele>
        <time>2024-10-06T09:38:08Z</time>
      </trkpt>
      <trkpt lat="42.94446" lon="1.1357">
        <ele>820.8</ele>
        <time>2024-10-06T09:38:09Z</time>
      </trkpt>
      <trkpt lat="42.94444" lon="1.13583">
        <ele>820.2</ele>
        <time>2024-10-06T09:38:10Z</time>
      </trkpt>
      <trkpt lat="42.94441" lon="1.13596">
        <ele>819.4</ele>
        <time>2024-10-06T09:38:11Z</time>
      </trkpt>
      <trkpt lat="42.94441" lon="1.13609">
        <ele>818.6</ele>
        <time>2024-10-06T09:38:12Z</time>
      </trkpt>
      <trkpt lat="42.9444" lon="1.13621">
        <ele>818</ele>
        <time>2024-10-06T09:38:13Z</time>
      </trkpt>
      <trkpt lat="42.9444" lon="1.13631">
        <ele>817.2</ele>
        <time>2024-10-06T09:38:14Z</time>
      </trkpt>
      <trkpt lat="42.94442" lon="1.13641">
        <ele>816.4</ele>
        <time>2024-10-06T09:38:15Z</time>
      </trkpt>
      <trkpt lat="42.94448" lon="1.13649">
        <ele>816.4</ele>
        <time>2024-10-06T09:38:17Z</time>
      </trkpt>
      <trkpt lat="42.9446" lon="1.13643">
        <ele>816.4</ele>
        <time>2024-10-06T09:38:20Z</time>
      </trkpt>
      <trkpt lat="42.94476" lon="1.13643">
        <ele>816.4</ele>
        <time>2024-10-06T09:38:23Z</time>
      </trkpt>
      <trkpt lat="42.94494" lon="1.13661">
        <ele>816.4</ele>
        <time>2024-10-06T09:38:27Z</time>
      </trkpt>
      <trkpt lat="42.94512" lon="1.13685">
        <ele>817</ele>
        <time>2024-10-06T09:38:32Z</time>
      </trkpt>
      <trkpt lat="42.94516" lon="1.13689">
        <ele>817.4</ele>
        <time>2024-10-06T09:38:33Z</time>
      </trkpt>
      <trkpt lat="42.94519" lon="1.13693">
        <ele>818</ele>
        <time>2024-10-06T09:38:34Z</time>
      </trkpt>
      <trkpt lat="42.94523" lon="1.13696">
        <ele>818.4</ele>
        <time>2024-10-06T09:38:35Z</time>
      </trkpt>
      <trkpt lat="42.94526" lon="1.13698">
        <ele>818.8</ele>
        <time>2024-10-06T09:38:36Z</time>
      </trkpt>
      <trkpt lat="42.9453" lon="1.137">
        <ele>818.8</ele>
        <time>2024-10-06T09:38:37Z</time>
      </trkpt>
      <trkpt lat="42.94536" lon="1.13702">
        <ele>819.4</ele>
        <time>2024-10-06T09:38:38Z</time>
      </trkpt>
      <trkpt lat="42.94541" lon="1.13704">
        <ele>819.8</ele>
        <time>2024-10-06T09:38:39Z</time>
      </trkpt>
      <trkpt lat="42.94545" lon="1.13706">
        <ele>820.2</ele>
        <time>2024-10-06T09:38:40Z</time>
      </trkpt>
      <trkpt lat="42.94549" lon="1.13709">
        <ele>820.6</ele>
        <time>2024-10-06T09:38:41Z</time>
      </trkpt>
      <trkpt lat="42.94554" lon="1.13712">
        <ele>821</ele>
        <time>2024-10-06T09:38:42Z</time>
      </trkpt>
      <trkpt lat="42.94558" lon="1.13713">
        <ele>821</ele>
        <time>2024-10-06T09:38:43Z</time>
      </trkpt>
      <trkpt lat="42.94561" lon="1.13714">
        <ele>821.6</ele>
        <time>2024-10-06T09:38:44Z</time>
      </trkpt>
      <trkpt lat="42.94564" lon="1.13715">
        <ele>822</ele>
        <time>2024-10-06T09:38:45Z</time>
      </trkpt>
      <trkpt lat="42.94568" lon="1.13715">
        <ele>822.8</ele>
        <time>2024-10-06T09:38:46Z</time>
      </trkpt>
      <trkpt lat="42.94571" lon="1.13717">
        <ele>823.2</ele>
        <time>2024-10-06T09:38:47Z</time>
      </trkpt>
      <trkpt lat="42.94574" lon="1.13719">
        <ele>823.2</ele>
        <time>2024-10-06T09:38:48Z</time>
      </trkpt>
      <trkpt lat="42.94576" lon="1.13721">
        <ele>823.2</ele>
        <time>2024-10-06T09:38:49Z</time>
      </trkpt>
      <trkpt lat="42.94576" lon="1.13725">
        <ele>823.8</ele>
        <time>2024-10-06T09:38:50Z</time>
      </trkpt>
      <trkpt lat="42.94575" lon="1.13727">
        <ele>824.2</ele>
        <time>2024-10-06T09:38:51Z</time>
      </trkpt>
      <trkpt lat="42.94571" lon="1.13729">
        <ele>824.6</ele>
        <time>2024-10-06T09:38:52Z</time>
      </trkpt>
      <trkpt lat="42.94568" lon="1.13729">
        <ele>825.2</ele>
        <time>2024-10-06T09:38:53Z</time>
      </trkpt>
      <trkpt lat="42.94565" lon="1.13729">
        <ele>825.6</ele>
        <time>2024-10-06T09:38:54Z</time>
      </trkpt>
      <trkpt lat="42.94559" lon="1.13728">
        <ele>826</ele>
        <time>2024-10-06T09:38:56Z</time>
      </trkpt>
      <trkpt lat="42.94556" lon="1.13728">
        <ele>826.4</ele>
        <time>2024-10-06T09:38:57Z</time>
      </trkpt>
      <trkpt lat="42.94553" lon="1.13729">
        <ele>826.8</ele>
        <time>2024-10-06T09:38:58Z</time>
      </trkpt>
      <trkpt lat="42.9455" lon="1.13729">
        <ele>827.2</ele>
        <time>2024-10-06T09:38:59Z</time>
      </trkpt>
      <trkpt lat="42.94547" lon="1.13731">
        <ele>827.6</ele>
        <time>2024-10-06T09:39:00Z</time>
      </trkpt>
      <trkpt lat="42.94531" lon="1.13735">
        <ele>828</ele>
        <time>2024-10-06T09:39:05Z</time>
      </trkpt>
      <trkpt lat="42.94528" lon="1.13736">
        <ele>828.6</ele>
        <time>2024-10-06T09:39:06Z</time>
      </trkpt>
      <trkpt lat="42.94526" lon="1.13737">
        <ele>829</ele>
        <time>2024-10-06T09:39:07Z</time>
      </trkpt>
      <trkpt lat="42.94523" lon="1.13737">
        <ele>829.4</ele>
        <time>2024-10-06T09:39:08Z</time>
      </trkpt>
      <trkpt lat="42.9452" lon="1.13738">
        <ele>830</ele>
        <time>2024-10-06T09:39:09Z</time>
      </trkpt>
      <trkpt lat="42.94517" lon="1.13738">
        <ele>830</ele>
        <time>2024-10-06T09:39:10Z</time>
      </trkpt>
      <trkpt lat="42.9451" lon="1.13743">
        <ele>830.4</ele>
        <time>2024-10-06T09:39:13Z</time>
      </trkpt>
      <trkpt lat="42.94508" lon="1.13747">
        <ele>830.8</ele>
        <time>2024-10-06T09:39:14Z</time>
      </trkpt>
      <trkpt lat="42.94508" lon="1.13751">
        <ele>831.2</ele>
        <time>2024-10-06T09:39:15Z</time>
      </trkpt>
      <trkpt lat="42.94508" lon="1.13755">
        <ele>831.6</ele>
        <time>2024-10-06T09:39:16Z</time>
      </trkpt>
      <trkpt lat="42.9451" lon="1.13758">
        <ele>832</ele>
        <time>2024-10-06T09:39:17Z</time>
      </trkpt>
      <trkpt lat="42.94512" lon="1.1376">
        <ele>832</ele>
        <time>2024-10-06T09:39:18Z</time>
      </trkpt>
      <trkpt lat="42.94517" lon="1.13761">
        <ele>832.4</ele>
        <time>2024-10-06T09:39:20Z</time>
      </trkpt>
      <trkpt lat="42.94519" lon="1.13761">
        <ele>832.8</ele>
        <time>2024-10-06T09:39:21Z</time>
      </trkpt>
      <trkpt lat="42.94522" lon="1.13761">
        <ele>833.4</ele>
        <time>2024-10-06T09:39:22Z</time>
      </trkpt>
      <trkpt lat="42.94525" lon="1.13762">
        <ele>833.8</ele>
        <time>2024-10-06T09:39:23Z</time>
      </trkpt>
      <trkpt lat="42.94529" lon="1.13762">
        <ele>834.2</ele>
        <time>2024-10-06T09:39:24Z</time>
      </trkpt>
      <trkpt lat="42.94544" lon="1.13764">
        <ele>834.2</ele>
        <time>2024-10-06T09:39:28Z</time>
      </trkpt>
      <trkpt lat="42.94564" lon="1.13763">
        <ele>834.2</ele>
        <time>2024-10-06T09:39:33Z</time>
      </trkpt>
      <trkpt lat="42.94588" lon="1.13766">
        <ele>834.2</ele>
        <time>2024-10-06T09:39:39Z</time>
      </trkpt>
      <trkpt lat="42.94601" lon="1.13776">
        <ele>834.2</ele>
        <time>2024-10-06T09:39:43Z</time>
      </trkpt>
      <trkpt lat="42.94621" lon="1.138">
        <ele>834.2</ele>
        <time>2024-10-06T09:39:48Z</time>
      </trkpt>
      <trkpt lat="42.94626" lon="1.13806">
        <ele>833.6</ele>
        <time>2024-10-06T09:39:49Z</time>
      </trkpt>
      <trkpt lat="42.9463" lon="1.13812">
        <ele>833.2</ele>
        <time>2024-10-06T09:39:50Z</time>
      </trkpt>
      <trkpt lat="42.94635" lon="1.13818">
        <ele>832.8</ele>
        <time>2024-10-06T09:39:51Z</time>
      </trkpt>
      <trkpt lat="42.9464" lon="1.13825">
        <ele>832.2</ele>
        <time>2024-10-06T09:39:52Z</time>
      </trkpt>
      <trkpt lat="42.94645" lon="1.13831">
        <ele>831.8</ele>
        <time>2024-10-06T09:39:53Z</time>
      </trkpt>
      <trkpt lat="42.94651" lon="1.13839">
        <ele>831.4</ele>
        <time>2024-10-06T09:39:54Z</time>
      </trkpt>
      <trkpt lat="42.94656" lon="1.13847">
        <ele>830.8</ele>
        <time>2024-10-06T09:39:55Z</time>
      </trkpt>
      <trkpt lat="42.94662" lon="1.13854">
        <ele>830.4</ele>
        <time>2024-10-06T09:39:56Z</time>
      </trkpt>
      <trkpt lat="42.94668" lon="1.13861">
        <ele>830</ele>
        <time>2024-10-06T09:39:57Z</time>
      </trkpt>
      <trkpt lat="42.94674" lon="1.13867">
        <ele>829.4</ele>
        <time>2024-10-06T09:39:58Z</time>
      </trkpt>
      <trkpt lat="42.9468" lon="1.13873">
        <ele>829.4</ele>
        <time>2024-10-06T09:39:59Z</time>
      </trkpt>
      <trkpt lat="42.94687" lon="1.13877">
        <ele>828.6</ele>
        <time>2024-10-06T09:40:00Z</time>
      </trkpt>
      <trkpt lat="42.94694" lon="1.13882">
        <ele>828</ele>
        <time>2024-10-06T09:40:01Z</time>
      </trkpt>
      <trkpt lat="42.94701" lon="1.13887">
        <ele>827.6</ele>
        <time>2024-10-06T09:40:02Z</time>
      </trkpt>
      <trkpt lat="42.94708" lon="1.13891">
        <ele>827</ele>
        <time>2024-10-06T09:40:03Z</time>
      </trkpt>
      <trkpt lat="42.94722" lon="1.13894">
        <ele>827</ele>
        <time>2024-10-06T09:40:05Z</time>
      </trkpt>
      <trkpt lat="42.94734" lon="1.13899">
        <ele>826.6</ele>
        <time>2024-10-06T09:40:07Z</time>
      </trkpt>
      <trkpt lat="42.9474" lon="1.13905">
        <ele>826.2</ele>
        <time>2024-10-06T09:40:08Z</time>
      </trkpt>
      <trkpt lat="42.94744" lon="1.13911">
        <ele>825.8</ele>
        <time>2024-10-06T09:40:09Z</time>
      </trkpt>
      <trkpt lat="42.94748" lon="1.13919">
        <ele>825.2</ele>
        <time>2024-10-06T09:40:10Z</time>
      </trkpt>
      <trkpt lat="42.94752" lon="1.13929">
        <ele>824.8</ele>
        <time>2024-10-06T09:40:11Z</time>
      </trkpt>
      <trkpt lat="42.94755" lon="1.13939">
        <ele>824.4</ele>
        <time>2024-10-06T09:40:12Z</time>
      </trkpt>
      <trkpt lat="42.94757" lon="1.13949">
        <ele>824</ele>
        <time>2024-10-06T09:40:13Z</time>
      </trkpt>
      <trkpt lat="42.9476" lon="1.13959">
        <ele>823.6</ele>
        <time>2024-10-06T09:40:14Z</time>
      </trkpt>
      <trkpt lat="42.94763" lon="1.13969">
        <ele>823.2</ele>
        <time>2024-10-06T09:40:15Z</time>
      </trkpt>
      <trkpt lat="42.94766" lon="1.13977">
        <ele>822.8</ele>
        <time>2024-10-06T09:40:16Z</time>
      </trkpt>
      <trkpt lat="42.94771" lon="1.13983">
        <ele>822.4</ele>
        <time>2024-10-06T09:40:17Z</time>
      </trkpt>
      <trkpt lat="42.94777" lon="1.13986">
        <ele>822</ele>
        <time>2024-10-06T09:40:18Z</time>
      </trkpt>
      <trkpt lat="42.94784" lon="1.13985">
        <ele>821.6</ele>
        <time>2024-10-06T09:40:19Z</time>
      </trkpt>
      <trkpt lat="42.9479" lon="1.13982">
        <ele>821.2</ele>
        <time>2024-10-06T09:40:20Z</time>
      </trkpt>
      <trkpt lat="42.94795" lon="1.13977">
        <ele>820.6</ele>
        <time>2024-10-06T09:40:21Z</time>
      </trkpt>
      <trkpt lat="42.948" lon="1.13971">
        <ele>820.6</ele>
        <time>2024-10-06T09:40:22Z</time>
      </trkpt>
      <trkpt lat="42.94805" lon="1.13967">
        <ele>820.6</ele>
        <time>2024-10-06T09:40:23Z</time>
      </trkpt>
      <trkpt lat="42.94811" lon="1.13963">
        <ele>820.6</ele>
        <time>2024-10-06T09:40:24Z</time>
      </trkpt>
      <trkpt lat="42.94816" lon="1.13959">
        <ele>820.2</ele>
        <time>2024-10-06T09:40:25Z</time>
      </trkpt>
      <trkpt lat="42.94821" lon="1.13955">
        <ele>819.8</ele>
        <time>2024-10-06T09:40:26Z</time>
      </trkpt>
      <trkpt lat="42.94827" lon="1.13953">
        <ele>819.4</ele>
        <time>2024-10-06T09:40:27Z</time>
      </trkpt>
      <trkpt lat="42.94833" lon="1.1395">
        <ele>819</ele>
        <time>2024-10-06T09:40:28Z</time>
      </trkpt>
      <trkpt lat="42.94839" lon="1.13946">
        <ele>818.6</ele>
        <time>2024-10-06T09:40:29Z</time>
      </trkpt>
      <trkpt lat="42.94852" lon="1.13936">
        <ele>818.6</ele>
        <time>2024-10-06T09:40:31Z</time>
      </trkpt>
      <trkpt lat="42.94864" lon="1.13928">
        <ele>818</ele>
        <time>2024-10-06T09:40:33Z</time>
      </trkpt>
      <trkpt lat="42.94871" lon="1.13928">
        <ele>817.6</ele>
        <time>2024-10-06T09:40:34Z</time>
      </trkpt>
      <trkpt lat="42.94878" lon="1.13931">
        <ele>817</ele>
        <time>2024-10-06T09:40:35Z</time>
      </trkpt>
      <trkpt lat="42.94884" lon="1.13936">
        <ele>816.6</ele>
        <time>2024-10-06T09:40:36Z</time>
      </trkpt>
      <trkpt lat="42.94891" lon="1.13941">
        <ele>816</ele>
        <time>2024-10-06T09:40:37Z</time>
      </trkpt>
      <trkpt lat="42.94897" lon="1.13946">
        <ele>816</ele>
        <time>2024-10-06T09:40:38Z</time>
      </trkpt>
      <trkpt lat="42.94902" lon="1.13952">
        <ele>816</ele>
        <time>2024-10-06T09:40:39Z</time>
      </trkpt>
      <trkpt lat="42.94927" lon="1.13985">
        <ele>816</ele>
        <time>2024-10-06T09:40:45Z</time>
      </trkpt>
      <trkpt lat="42.94946" lon="1.14019">
        <ele>816</ele>
        <time>2024-10-06T09:40:51Z</time>
      </trkpt>
      <trkpt lat="42.94958" lon="1.14037">
        <ele>815.6</ele>
        <time>2024-10-06T09:40:54Z</time>
      </trkpt>
      <trkpt lat="42.94963" lon="1.14044">
        <ele>815.2</ele>
        <time>2024-10-06T09:40:55Z</time>
      </trkpt>
      <trkpt lat="42.94968" lon="1.1405">
        <ele>814.6</ele>
        <time>2024-10-06T09:40:56Z</time>
      </trkpt>
      <trkpt lat="42.94973" lon="1.14057">
        <ele>814.2</ele>
        <time>2024-10-06T09:40:57Z</time>
      </trkpt>
      <trkpt lat="42.94979" lon="1.14065">
        <ele>813.6</ele>
        <time>2024-10-06T09:40:58Z</time>
      </trkpt>
      <trkpt lat="42.94985" lon="1.14073">
        <ele>813</ele>
        <time>2024-10-06T09:40:59Z</time>
      </trkpt>
      <trkpt lat="42.94992" lon="1.14082">
        <ele>812.2</ele>
        <time>2024-10-06T09:41:00Z</time>
      </trkpt>
      <trkpt lat="42.94999" lon="1.14092">
        <ele>811.2</ele>
        <time>2024-10-06T09:41:01Z</time>
      </trkpt>
      <trkpt lat="42.95007" lon="1.14101">
        <ele>810.4</ele>
        <time>2024-10-06T09:41:02Z</time>
      </trkpt>
      <trkpt lat="42.95014" lon="1.14111">
        <ele>809.6</ele>
        <time>2024-10-06T09:41:03Z</time>
      </trkpt>
      <trkpt lat="42.95021" lon="1.14122">
        <ele>808.6</ele>
        <time>2024-10-06T09:41:04Z</time>
      </trkpt>
      <trkpt lat="42.95028" lon="1.14132">
        <ele>807.8</ele>
        <time>2024-10-06T09:41:05Z</time>
      </trkpt>
      <trkpt lat="42.95035" lon="1.14143">
        <ele>806.8</ele>
        <time>2024-10-06T09:41:06Z</time>
      </trkpt>
      <trkpt lat="42.95041" lon="1.14152">
        <ele>806</ele>
        <time>2024-10-06T09:41:07Z</time>
      </trkpt>
      <trkpt lat="42.95047" lon="1.14161">
        <ele>805.2</ele>
        <time>2024-10-06T09:41:08Z</time>
      </trkpt>
      <trkpt lat="42.95051" lon="1.1417">
        <ele>804.4</ele>
        <time>2024-10-06T09:41:09Z</time>
      </trkpt>
      <trkpt lat="42.95055" lon="1.14179">
        <ele>803.4</ele>
        <time>2024-10-06T09:41:10Z</time>
      </trkpt>
      <trkpt lat="42.95059" lon="1.14188">
        <ele>803</ele>
        <time>2024-10-06T09:41:11Z</time>
      </trkpt>
      <trkpt lat="42.95063" lon="1.14199">
        <ele>802.6</ele>
        <time>2024-10-06T09:41:12Z</time>
      </trkpt>
      <trkpt lat="42.95066" lon="1.14209">
        <ele>802</ele>
        <time>2024-10-06T09:41:13Z</time>
      </trkpt>
      <trkpt lat="42.9507" lon="1.14218">
        <ele>801.2</ele>
        <time>2024-10-06T09:41:14Z</time>
      </trkpt>
      <trkpt lat="42.95075" lon="1.14226">
        <ele>800.6</ele>
        <time>2024-10-06T09:41:15Z</time>
      </trkpt>
      <trkpt lat="42.95081" lon="1.14233">
        <ele>800</ele>
        <time>2024-10-06T09:41:16Z</time>
      </trkpt>
      <trkpt lat="42.95086" lon="1.14242">
        <ele>799.4</ele>
        <time>2024-10-06T09:41:17Z</time>
      </trkpt>
      <trkpt lat="42.9509" lon="1.14251">
        <ele>798.6</ele>
        <time>2024-10-06T09:41:18Z</time>
      </trkpt>
      <trkpt lat="42.95091" lon="1.14261">
        <ele>798</ele>
        <time>2024-10-06T09:41:19Z</time>
      </trkpt>
      <trkpt lat="42.95092" lon="1.14271">
        <ele>797.2</ele>
        <time>2024-10-06T09:41:20Z</time>
      </trkpt>
      <trkpt lat="42.95091" lon="1.14281">
        <ele>796.4</ele>
        <time>2024-10-06T09:41:21Z</time>
      </trkpt>
      <trkpt lat="42.95091" lon="1.14289">
        <ele>796</ele>
        <time>2024-10-06T09:41:22Z</time>
      </trkpt>
      <trkpt lat="42.95091" lon="1.14296">
        <ele>795.6</ele>
        <time>2024-10-06T09:41:23Z</time>
      </trkpt>
      <trkpt lat="42.9509" lon="1.143">
        <ele>795.2</ele>
        <time>2024-10-06T09:41:24Z</time>
      </trkpt>
      <trkpt lat="42.95089" lon="1.14302">
        <ele>794.6</ele>
        <time>2024-10-06T09:41:25Z</time>
      </trkpt>
      <trkpt lat="42.95089" lon="1.14303">
        <ele>794.2</ele>
        <time>2024-10-06T09:41:26Z</time>
      </trkpt>
      <trkpt lat="42.95089" lon="1.14302">
        <ele>794.2</ele>
        <time>2024-10-06T09:41:27Z</time>
      </trkpt>
      <trkpt lat="42.95093" lon="1.14299">
        <ele>793.8</ele>
        <time>2024-10-06T09:41:29Z</time>
      </trkpt>
      <trkpt lat="42.95099" lon="1.14294">
        <ele>793.4</ele>
        <time>2024-10-06T09:41:30Z</time>
      </trkpt>
      <trkpt lat="42.95107" lon="1.14287">
        <ele>792.8</ele>
        <time>2024-10-06T09:41:31Z</time>
      </trkpt>
      <trkpt lat="42.95114" lon="1.14281">
        <ele>792</ele>
        <time>2024-10-06T09:41:32Z</time>
      </trkpt>
      <trkpt lat="42.95122" lon="1.14276">
        <ele>791.4</ele>
        <time>2024-10-06T09:41:33Z</time>
      </trkpt>
      <trkpt lat="42.95132" lon="1.14272">
        <ele>790.4</ele>
        <time>2024-10-06T09:41:34Z</time>
      </trkpt>
      <trkpt lat="42.95145" lon="1.14268">
        <ele>789.4</ele>
        <time>2024-10-06T09:41:35Z</time>
      </trkpt>
      <trkpt lat="42.95156" lon="1.14265">
        <ele>788.4</ele>
        <time>2024-10-06T09:41:36Z</time>
      </trkpt>
      <trkpt lat="42.95168" lon="1.14262">
        <ele>787.4</ele>
        <time>2024-10-06T09:41:37Z</time>
      </trkpt>
      <trkpt lat="42.9518" lon="1.1426">
        <ele>786.4</ele>
        <time>2024-10-06T09:41:38Z</time>
      </trkpt>
      <trkpt lat="42.95191" lon="1.14261">
        <ele>784.4</ele>
        <time>2024-10-06T09:41:39Z</time>
      </trkpt>
      <trkpt lat="42.95203" lon="1.14264">
        <ele>783.6</ele>
        <time>2024-10-06T09:41:40Z</time>
      </trkpt>
      <trkpt lat="42.95214" lon="1.14265">
        <ele>782.8</ele>
        <time>2024-10-06T09:41:41Z</time>
      </trkpt>
      <trkpt lat="42.95223" lon="1.14264">
        <ele>782</ele>
        <time>2024-10-06T09:41:42Z</time>
      </trkpt>
      <trkpt lat="42.95232" lon="1.14264">
        <ele>781</ele>
        <time>2024-10-06T09:41:43Z</time>
      </trkpt>
      <trkpt lat="42.95239" lon="1.14263">
        <ele>780.2</ele>
        <time>2024-10-06T09:41:44Z</time>
      </trkpt>
      <trkpt lat="42.95245" lon="1.14262">
        <ele>779.4</ele>
        <time>2024-10-06T09:41:45Z</time>
      </trkpt>
      <trkpt lat="42.95249" lon="1.14265">
        <ele>778.6</ele>
        <time>2024-10-06T09:41:46Z</time>
      </trkpt>
      <trkpt lat="42.9525" lon="1.1427">
        <ele>777.6</ele>
        <time>2024-10-06T09:41:47Z</time>
      </trkpt>
      <trkpt lat="42.9525" lon="1.14273">
        <ele>776.8</ele>
        <time>2024-10-06T09:41:48Z</time>
      </trkpt>
      <trkpt lat="42.95248" lon="1.14275">
        <ele>776</ele>
        <time>2024-10-06T09:41:49Z</time>
      </trkpt>
      <trkpt lat="42.95245" lon="1.14276">
        <ele>775.4</ele>
        <time>2024-10-06T09:41:50Z</time>
      </trkpt>
      <trkpt lat="42.9524" lon="1.14277">
        <ele>774.8</ele>
        <time>2024-10-06T09:41:51Z</time>
      </trkpt>
      <trkpt lat="42.95234" lon="1.14279">
        <ele>774.2</ele>
        <time>2024-10-06T09:41:52Z</time>
      </trkpt>
      <trkpt lat="42.95228" lon="1.14282">
        <ele>773.6</ele>
        <time>2024-10-06T09:41:53Z</time>
      </trkpt>
      <trkpt lat="42.95222" lon="1.14287">
        <ele>773</ele>
        <time>2024-10-06T09:41:54Z</time>
      </trkpt>
      <trkpt lat="42.95218" lon="1.14296">
        <ele>772.4</ele>
        <time>2024-10-06T09:41:55Z</time>
      </trkpt>
      <trkpt lat="42.95215" lon="1.14308">
        <ele>772</ele>
        <time>2024-10-06T09:41:56Z</time>
      </trkpt>
      <trkpt lat="42.95213" lon="1.1432">
        <ele>771</ele>
        <time>2024-10-06T09:41:57Z</time>
      </trkpt>
      <trkpt lat="42.95212" lon="1.14333">
        <ele>770.2</ele>
        <time>2024-10-06T09:41:58Z</time>
      </trkpt>
      <trkpt lat="42.95211" lon="1.14346">
        <ele>769.4</ele>
        <time>2024-10-06T09:41:59Z</time>
      </trkpt>
      <trkpt lat="42.9521" lon="1.1436">
        <ele>768.6</ele>
        <time>2024-10-06T09:42:00Z</time>
      </trkpt>
      <trkpt lat="42.95209" lon="1.1437">
        <ele>767.8</ele>
        <time>2024-10-06T09:42:01Z</time>
      </trkpt>
      <trkpt lat="42.95208" lon="1.14378">
        <ele>767</ele>
        <time>2024-10-06T09:42:02Z</time>
      </trkpt>
      <trkpt lat="42.95206" lon="1.14384">
        <ele>766</ele>
        <time>2024-10-06T09:42:03Z</time>
      </trkpt>
      <trkpt lat="42.95204" lon="1.14388">
        <ele>764.8</ele>
        <time>2024-10-06T09:42:04Z</time>
      </trkpt>
      <trkpt lat="42.95202" lon="1.14391">
        <ele>764.2</ele>
        <time>2024-10-06T09:42:05Z</time>
      </trkpt>
      <trkpt lat="42.95201" lon="1.14392">
        <ele>763.6</ele>
        <time>2024-10-06T09:42:06Z</time>
      </trkpt>
      <trkpt lat="42.95201" lon="1.14394">
        <ele>763</ele>
        <time>2024-10-06T09:42:07Z</time>
      </trkpt>
      <trkpt lat="42.95201" lon="1.14394">
        <ele>763</ele>
        <time>2024-10-06T09:42:08Z</time>
      </trkpt>
      <trkpt lat="42.95202" lon="1.14397">
        <ele>763</ele>
        <time>2024-10-06T09:42:32Z</time>
      </trkpt>
      <trkpt lat="42.95204" lon="1.144">
        <ele>763</ele>
        <time>2024-10-06T09:42:34Z</time>
      </trkpt>
      <trkpt lat="42.9521" lon="1.14401">
        <ele>762.4</ele>
        <time>2024-10-06T09:42:36Z</time>
      </trkpt>
      <trkpt lat="42.95213" lon="1.14398">
        <ele>762</ele>
        <time>2024-10-06T09:42:37Z</time>
      </trkpt>
      <trkpt lat="42.95215" lon="1.14393">
        <ele>761.6</ele>
        <time>2024-10-06T09:42:38Z</time>
      </trkpt>
      <trkpt lat="42.95218" lon="1.14388">
        <ele>761.2</ele>
        <time>2024-10-06T09:42:39Z</time>
      </trkpt>
      <trkpt lat="42.95221" lon="1.14382">
        <ele>760.8</ele>
        <time>2024-10-06T09:42:40Z</time>
      </trkpt>
      <trkpt lat="42.95227" lon="1.14368">
        <ele>760.2</ele>
        <time>2024-10-06T09:42:42Z</time>
      </trkpt>
      <trkpt lat="42.95231" lon="1.14361">
        <ele>759.8</ele>
        <time>2024-10-06T09:42:43Z</time>
      </trkpt>
      <trkpt lat="42.95235" lon="1.14354">
        <ele>759.2</ele>
        <time>2024-10-06T09:42:44Z</time>
      </trkpt>
      <trkpt lat="42.95238" lon="1.14346">
        <ele>758.6</ele>
        <time>2024-10-06T09:42:45Z</time>
      </trkpt>
      <trkpt lat="42.95242" lon="1.14339">
        <ele>758</ele>
        <time>2024-10-06T09:42:46Z</time>
      </trkpt>
      <trkpt lat="42.95247" lon="1.1433">
        <ele>757.4</ele>
        <time>2024-10-06T09:42:47Z</time>
      </trkpt>
      <trkpt lat="42.95252" lon="1.14322">
        <ele>756.6</ele>
        <time>2024-10-06T09:42:48Z</time>
      </trkpt>
      <trkpt lat="42.95258" lon="1.14314">
        <ele>756</ele>
        <time>2024-10-06T09:42:49Z</time>
      </trkpt>
      <trkpt lat="42.95265" lon="1.14307">
        <ele>755</ele>
        <time>2024-10-06T09:42:50Z</time>
      </trkpt>
      <trkpt lat="42.95272" lon="1.14302">
        <ele>754.2</ele>
        <time>2024-10-06T09:42:51Z</time>
      </trkpt>
      <trkpt lat="42.95279" lon="1.143">
        <ele>753.2</ele>
        <time>2024-10-06T09:42:52Z</time>
      </trkpt>
      <trkpt lat="42.95288" lon="1.143">
        <ele>751.6</ele>
        <time>2024-10-06T09:42:53Z</time>
      </trkpt>
      <trkpt lat="42.95298" lon="1.14302">
        <ele>750.6</ele>
        <time>2024-10-06T09:42:54Z</time>
      </trkpt>
      <trkpt lat="42.95309" lon="1.14304">
        <ele>749.8</ele>
        <time>2024-10-06T09:42:55Z</time>
      </trkpt>
      <trkpt lat="42.95318" lon="1.14307">
        <ele>749</ele>
        <time>2024-10-06T09:42:56Z</time>
      </trkpt>
      <trkpt lat="42.95328" lon="1.14308">
        <ele>748.2</ele>
        <time>2024-10-06T09:42:57Z</time>
      </trkpt>
      <trkpt lat="42.95338" lon="1.14309">
        <ele>747.4</ele>
        <time>2024-10-06T09:42:58Z</time>
      </trkpt>
      <trkpt lat="42.95347" lon="1.14311">
        <ele>746.6</ele>
        <time>2024-10-06T09:42:59Z</time>
      </trkpt>
      <trkpt lat="42.95354" lon="1.14314">
        <ele>745.8</ele>
        <time>2024-10-06T09:43:00Z</time>
      </trkpt>
      <trkpt lat="42.95362" lon="1.14317">
        <ele>744.8</ele>
        <time>2024-10-06T09:43:01Z</time>
      </trkpt>
      <trkpt lat="42.95367" lon="1.14325">
        <ele>744</ele>
        <time>2024-10-06T09:43:02Z</time>
      </trkpt>
      <trkpt lat="42.95369" lon="1.14334">
        <ele>743.2</ele>
        <time>2024-10-06T09:43:03Z</time>
      </trkpt>
      <trkpt lat="42.95368" lon="1.14345">
        <ele>742.4</ele>
        <time>2024-10-06T09:43:04Z</time>
      </trkpt>
      <trkpt lat="42.95368" lon="1.14356">
        <ele>741.6</ele>
        <time>2024-10-06T09:43:05Z</time>
      </trkpt>
      <trkpt lat="42.95368" lon="1.14367">
        <ele>740.8</ele>
        <time>2024-10-06T09:43:06Z</time>
      </trkpt>
      <trkpt lat="42.95367" lon="1.1438">
        <ele>740</ele>
        <time>2024-10-06T09:43:07Z</time>
      </trkpt>
      <trkpt lat="42.95368" lon="1.14392">
        <ele>739.2</ele>
        <time>2024-10-06T09:43:08Z</time>
      </trkpt>
      <trkpt lat="42.95369" lon="1.14405">
        <ele>738.4</ele>
        <time>2024-10-06T09:43:09Z</time>
      </trkpt>
      <trkpt lat="42.9537" lon="1.14418">
        <ele>737.6</ele>
        <time>2024-10-06T09:43:10Z</time>
      </trkpt>
      <trkpt lat="42.95372" lon="1.1443">
        <ele>737</ele>
        <time>2024-10-06T09:43:11Z</time>
      </trkpt>
      <trkpt lat="42.95374" lon="1.14442">
        <ele>736.2</ele>
        <time>2024-10-06T09:43:12Z</time>
      </trkpt>
      <trkpt lat="42.95375" lon="1.14454">
        <ele>735.6</ele>
        <time>2024-10-06T09:43:13Z</time>
      </trkpt>
      <trkpt lat="42.95377" lon="1.14466">
        <ele>735.2</ele>
        <time>2024-10-06T09:43:14Z</time>
      </trkpt>
      <trkpt lat="42.95379" lon="1.14478">
        <ele>734.6</ele>
        <time>2024-10-06T09:43:15Z</time>
      </trkpt>
      <trkpt lat="42.95381" lon="1.14489">
        <ele>734</ele>
        <time>2024-10-06T09:43:16Z</time>
      </trkpt>
      <trkpt lat="42.95383" lon="1.14501">
        <ele>733.4</ele>
        <time>2024-10-06T09:43:17Z</time>
      </trkpt>
      <trkpt lat="42.95389" lon="1.14533">
        <ele>733.4</ele>
        <time>2024-10-06T09:43:20Z</time>
      </trkpt>
      <trkpt lat="42.954" lon="1.1459">
        <ele>733</ele>
        <time>2024-10-06T09:43:26Z</time>
      </trkpt>
      <trkpt lat="42.95402" lon="1.14598">
        <ele>732.6</ele>
        <time>2024-10-06T09:43:27Z</time>
      </trkpt>
      <trkpt lat="42.95402" lon="1.14607">
        <ele>732.2</ele>
        <time>2024-10-06T09:43:28Z</time>
      </trkpt>
      <trkpt lat="42.95403" lon="1.14615">
        <ele>731.8</ele>
        <time>2024-10-06T09:43:29Z</time>
      </trkpt>
      <trkpt lat="42.95404" lon="1.14623">
        <ele>731.4</ele>
        <time>2024-10-06T09:43:30Z</time>
      </trkpt>
      <trkpt lat="42.95413" lon="1.1468">
        <ele>731.4</ele>
        <time>2024-10-06T09:43:37Z</time>
      </trkpt>
      <trkpt lat="42.95417" lon="1.14697">
        <ele>731.4</ele>
        <time>2024-10-06T09:43:39Z</time>
      </trkpt>
      <trkpt lat="42.9542" lon="1.14722">
        <ele>731</ele>
        <time>2024-10-06T09:43:42Z</time>
      </trkpt>
      <trkpt lat="42.95422" lon="1.1473">
        <ele>730.2</ele>
        <time>2024-10-06T09:43:43Z</time>
      </trkpt>
      <trkpt lat="42.95423" lon="1.14739">
        <ele>729.6</ele>
        <time>2024-10-06T09:43:44Z</time>
      </trkpt>
      <trkpt lat="42.95424" lon="1.14748">
        <ele>729.2</ele>
        <time>2024-10-06T09:43:45Z</time>
      </trkpt>
      <trkpt lat="42.95425" lon="1.14775">
        <ele>729.2</ele>
        <time>2024-10-06T09:43:48Z</time>
      </trkpt>
      <trkpt lat="42.95427" lon="1.14815">
        <ele>729.2</ele>
        <time>2024-10-06T09:43:54Z</time>
      </trkpt>
      <trkpt lat="42.95429" lon="1.14837">
        <ele>729.2</ele>
        <time>2024-10-06T09:43:57Z</time>
      </trkpt>
      <trkpt lat="42.95435" lon="1.1488">
        <ele>729.2</ele>
        <time>2024-10-06T09:44:03Z</time>
      </trkpt>
      <trkpt lat="42.95438" lon="1.14902">
        <ele>728.8</ele>
        <time>2024-10-06T09:44:06Z</time>
      </trkpt>
      <trkpt lat="42.9544" lon="1.14909">
        <ele>728.4</ele>
        <time>2024-10-06T09:44:07Z</time>
      </trkpt>
      <trkpt lat="42.95441" lon="1.14916">
        <ele>727.6</ele>
        <time>2024-10-06T09:44:08Z</time>
      </trkpt>
      <trkpt lat="42.95443" lon="1.14922">
        <ele>727.2</ele>
        <time>2024-10-06T09:44:09Z</time>
      </trkpt>
      <trkpt lat="42.95444" lon="1.14928">
        <ele>727.2</ele>
        <time>2024-10-06T09:44:10Z</time>
      </trkpt>
      <trkpt lat="42.95453" lon="1.14957">
        <ele>727.2</ele>
        <time>2024-10-06T09:44:16Z</time>
      </trkpt>
      <trkpt lat="42.95458" lon="1.14966">
        <ele>727.2</ele>
        <time>2024-10-06T09:44:19Z</time>
      </trkpt>
      <trkpt lat="42.9546" lon="1.14967">
        <ele>727.2</ele>
        <time>2024-10-06T09:44:20Z</time>
      </trkpt>
      <trkpt lat="42.9547" lon="1.14962">
        <ele>727.6</ele>
        <time>2024-10-06T09:44:24Z</time>
      </trkpt>
      <trkpt lat="42.95473" lon="1.14961">
        <ele>728.2</ele>
        <time>2024-10-06T09:44:25Z</time>
      </trkpt>
      <trkpt lat="42.95474" lon="1.14959">
        <ele>728.6</ele>
        <time>2024-10-06T09:44:26Z</time>
      </trkpt>
      <trkpt lat="42.95476" lon="1.14957">
        <ele>729.2</ele>
        <time>2024-10-06T09:44:27Z</time>
      </trkpt>
      <trkpt lat="42.95477" lon="1.14955">
        <ele>729.6</ele>
        <time>2024-10-06T09:44:28Z</time>
      </trkpt>
      <trkpt lat="42.95479" lon="1.14954">
        <ele>730.2</ele>
        <time>2024-10-06T09:44:29Z</time>
      </trkpt>
      <trkpt lat="42.9548" lon="1.14952">
        <ele>730.6</ele>
        <time>2024-10-06T09:44:30Z</time>
      </trkpt>
      <trkpt lat="42.9548" lon="1.1495">
        <ele>731.2</ele>
        <time>2024-10-06T09:44:31Z</time>
      </trkpt>
      <trkpt lat="42.95482" lon="1.14948">
        <ele>731.6</ele>
        <time>2024-10-06T09:44:32Z</time>
      </trkpt>
      <trkpt lat="42.95483" lon="1.14945">
        <ele>732.2</ele>
        <time>2024-10-06T09:44:33Z</time>
      </trkpt>
      <trkpt lat="42.95484" lon="1.14943">
        <ele>732.6</ele>
        <time>2024-10-06T09:44:34Z</time>
      </trkpt>
      <trkpt lat="42.95485" lon="1.1494">
        <ele>733</ele>
        <time>2024-10-06T09:44:35Z</time>
      </trkpt>
      <trkpt lat="42.95486" lon="1.14938">
        <ele>733.4</ele>
        <time>2024-10-06T09:44:36Z</time>
      </trkpt>
      <trkpt lat="42.95487" lon="1.14936">
        <ele>733.8</ele>
        <time>2024-10-06T09:44:37Z</time>
      </trkpt>
      <trkpt lat="42.95492" lon="1.14925">
        <ele>734.2</ele>
        <time>2024-10-06T09:44:41Z</time>
      </trkpt>
      <trkpt lat="42.95493" lon="1.14922">
        <ele>734.6</ele>
        <time>2024-10-06T09:44:42Z</time>
      </trkpt>
      <trkpt lat="42.95494" lon="1.1492">
        <ele>735</ele>
        <time>2024-10-06T09:44:43Z</time>
      </trkpt>
      <trkpt lat="42.95495" lon="1.14917">
        <ele>735.4</ele>
        <time>2024-10-06T09:44:44Z</time>
      </trkpt>
      <trkpt lat="42.95496" lon="1.14915">
        <ele>735.8</ele>
        <time>2024-10-06T09:44:45Z</time>
      </trkpt>
      <trkpt lat="42.955" lon="1.14908">
        <ele>736.2</ele>
        <time>2024-10-06T09:44:48Z</time>
      </trkpt>
      <trkpt lat="42.95501" lon="1.14906">
        <ele>736.8</ele>
        <time>2024-10-06T09:44:49Z</time>
      </trkpt>
      <trkpt lat="42.95503" lon="1.14904">
        <ele>737.2</ele>
        <time>2024-10-06T09:44:50Z</time>
      </trkpt>
      <trkpt lat="42.95505" lon="1.14902">
        <ele>737.6</ele>
        <time>2024-10-06T09:44:51Z</time>
      </trkpt>
      <trkpt lat="42.95507" lon="1.14901">
        <ele>738</ele>
        <time>2024-10-06T09:44:52Z</time>
      </trkpt>
      <trkpt lat="42.95513" lon="1.14899">
        <ele>738.4</ele>
        <time>2024-10-06T09:44:55Z</time>
      </trkpt>
      <trkpt lat="42.95515" lon="1.14899">
        <ele>738.8</ele>
        <time>2024-10-06T09:44:56Z</time>
      </trkpt>
      <trkpt lat="42.95516" lon="1.14899">
        <ele>739.4</ele>
        <time>2024-10-06T09:44:57Z</time>
      </trkpt>
      <trkpt lat="42.95518" lon="1.14899">
        <ele>740.2</ele>
        <time>2024-10-06T09:44:58Z</time>
      </trkpt>
      <trkpt lat="42.95525" lon="1.14897">
        <ele>740.6</ele>
        <time>2024-10-06T09:45:01Z</time>
      </trkpt>
      <trkpt lat="42.95526" lon="1.14896">
        <ele>741.2</ele>
        <time>2024-10-06T09:45:02Z</time>
      </trkpt>
      <trkpt lat="42.95528" lon="1.14895">
        <ele>741.6</ele>
        <time>2024-10-06T09:45:03Z</time>
      </trkpt>
      <trkpt lat="42.9553" lon="1.14895">
        <ele>742</ele>
        <time>2024-10-06T09:45:04Z</time>
      </trkpt>
      <trkpt lat="42.95531" lon="1.14895">
        <ele>742.6</ele>
        <time>2024-10-06T09:45:05Z</time>
      </trkpt>
      <trkpt lat="42.95537" lon="1.14895">
        <ele>742.6</ele>
        <time>2024-10-06T09:45:08Z</time>
      </trkpt>
      <trkpt lat="42.95544" lon="1.14899">
        <ele>742.6</ele>
        <time>2024-10-06T09:45:10Z</time>
      </trkpt>
      <trkpt lat="42.95548" lon="1.14904">
        <ele>742.6</ele>
        <time>2024-10-06T09:45:11Z</time>
      </trkpt>
      <trkpt lat="42.95554" lon="1.1491">
        <ele>742</ele>
        <time>2024-10-06T09:45:13Z</time>
      </trkpt>
      <trkpt lat="42.95557" lon="1.14913">
        <ele>741.4</ele>
        <time>2024-10-06T09:45:14Z</time>
      </trkpt>
      <trkpt lat="42.9556" lon="1.14915">
        <ele>741</ele>
        <time>2024-10-06T09:45:15Z</time>
      </trkpt>
      <trkpt lat="42.95563" lon="1.14918">
        <ele>740.2</ele>
        <time>2024-10-06T09:45:16Z</time>
      </trkpt>
      <trkpt lat="42.95565" lon="1.14921">
        <ele>739.6</ele>
        <time>2024-10-06T09:45:17Z</time>
      </trkpt>
      <trkpt lat="42.95567" lon="1.14923">
        <ele>738.8</ele>
        <time>2024-10-06T09:45:18Z</time>
      </trkpt>
      <trkpt lat="42.95569" lon="1.14926">
        <ele>738</ele>
        <time>2024-10-06T09:45:19Z</time>
      </trkpt>
      <trkpt lat="42.95572" lon="1.14928">
        <ele>737.2</ele>
        <time>2024-10-06T09:45:20Z</time>
      </trkpt>
      <trkpt lat="42.95575" lon="1.14931">
        <ele>736.4</ele>
        <time>2024-10-06T09:45:21Z</time>
      </trkpt>
      <trkpt lat="42.95579" lon="1.14932">
        <ele>735.4</ele>
        <time>2024-10-06T09:45:22Z</time>
      </trkpt>
      <trkpt lat="42.95583" lon="1.14933">
        <ele>733.6</ele>
        <time>2024-10-06T09:45:23Z</time>
      </trkpt>
      <trkpt lat="42.95585" lon="1.14933">
        <ele>732.6</ele>
        <time>2024-10-06T09:45:24Z</time>
      </trkpt>
      <trkpt lat="42.95587" lon="1.14934">
        <ele>731.6</ele>
        <time>2024-10-06T09:45:25Z</time>
      </trkpt>
      <trkpt lat="42.9559" lon="1.14936">
        <ele>730.6</ele>
        <time>2024-10-06T09:45:26Z</time>
      </trkpt>
      <trkpt lat="42.95593" lon="1.1494">
        <ele>729.6</ele>
        <time>2024-10-06T09:45:27Z</time>
      </trkpt>
      <trkpt lat="42.95596" lon="1.14942">
        <ele>728.8</ele>
        <time>2024-10-06T09:45:28Z</time>
      </trkpt>
      <trkpt lat="42.95599" lon="1.14944">
        <ele>727.6</ele>
        <time>2024-10-06T09:45:29Z</time>
      </trkpt>
      <trkpt lat="42.95602" lon="1.14946">
        <ele>726.6</ele>
        <time>2024-10-06T09:45:30Z</time>
      </trkpt>
      <trkpt lat="42.95607" lon="1.14948">
        <ele>725.6</ele>
        <time>2024-10-06T09:45:31Z</time>
      </trkpt>
      <trkpt lat="42.9561" lon="1.14949">
        <ele>724.4</ele>
        <time>2024-10-06T09:45:32Z</time>
      </trkpt>
      <trkpt lat="42.95614" lon="1.14949">
        <ele>723.2</ele>
        <time>2024-10-06T09:45:33Z</time>
      </trkpt>
      <trkpt lat="42.95618" lon="1.14949">
        <ele>722.2</ele>
        <time>2024-10-06T09:45:34Z</time>
      </trkpt>
      <trkpt lat="42.95624" lon="1.14947">
        <ele>721.2</ele>
        <time>2024-10-06T09:45:35Z</time>
      </trkpt>
      <trkpt lat="42.95629" lon="1.14943">
        <ele>720.2</ele>
        <time>2024-10-06T09:45:36Z</time>
      </trkpt>
      <trkpt lat="42.95633" lon="1.1494">
        <ele>719.4</ele>
        <time>2024-10-06T09:45:37Z</time>
      </trkpt>
      <trkpt lat="42.95637" lon="1.14939">
        <ele>718.6</ele>
        <time>2024-10-06T09:45:38Z</time>
      </trkpt>
      <trkpt lat="42.95642" lon="1.14938">
        <ele>717.8</ele>
        <time>2024-10-06T09:45:39Z</time>
      </trkpt>
      <trkpt lat="42.95644" lon="1.14939">
        <ele>717</ele>
        <time>2024-10-06T09:45:40Z</time>
      </trkpt>
      <trkpt lat="42.95647" lon="1.14939">
        <ele>716.2</ele>
        <time>2024-10-06T09:45:41Z</time>
      </trkpt>
      <trkpt lat="42.9565" lon="1.14939">
        <ele>715.6</ele>
        <time>2024-10-06T09:45:42Z</time>
      </trkpt>
      <trkpt lat="42.95652" lon="1.14939">
        <ele>715</ele>
        <time>2024-10-06T09:45:43Z</time>
      </trkpt>
      <trkpt lat="42.95654" lon="1.14939">
        <ele>714.2</ele>
        <time>2024-10-06T09:45:44Z</time>
      </trkpt>
      <trkpt lat="42.95656" lon="1.1494">
        <ele>713.6</ele>
        <time>2024-10-06T09:45:45Z</time>
      </trkpt>
      <trkpt lat="42.95657" lon="1.1494">
        <ele>713</ele>
        <time>2024-10-06T09:45:46Z</time>
      </trkpt>
      <trkpt lat="42.95657" lon="1.14942">
        <ele>711.6</ele>
        <time>2024-10-06T09:45:47Z</time>
      </trkpt>
      <trkpt lat="42.95658" lon="1.14943">
        <ele>711</ele>
        <time>2024-10-06T09:45:48Z</time>
      </trkpt>
      <trkpt lat="42.95658" lon="1.14945">
        <ele>710.4</ele>
        <time>2024-10-06T09:45:49Z</time>
      </trkpt>
      <trkpt lat="42.95659" lon="1.14947">
        <ele>709.8</ele>
        <time>2024-10-06T09:45:50Z</time>
      </trkpt>
      <trkpt lat="42.9566" lon="1.14949">
        <ele>709.2</ele>
        <time>2024-10-06T09:45:51Z</time>
      </trkpt>
      <trkpt lat="42.95662" lon="1.1495">
        <ele>708.6</ele>
        <time>2024-10-06T09:45:52Z</time>
      </trkpt>
      <trkpt lat="42.95665" lon="1.14951">
        <ele>708</ele>
        <time>2024-10-06T09:45:53Z</time>
      </trkpt>
      <trkpt lat="42.95669" lon="1.14951">
        <ele>707.4</ele>
        <time>2024-10-06T09:45:54Z</time>
      </trkpt>
      <trkpt lat="42.95673" lon="1.14951">
        <ele>707</ele>
        <time>2024-10-06T09:45:55Z</time>
      </trkpt>
      <trkpt lat="42.95677" lon="1.14951">
        <ele>706.4</ele>
        <time>2024-10-06T09:45:56Z</time>
      </trkpt>
      <trkpt lat="42.95681" lon="1.14951">
        <ele>706</ele>
        <time>2024-10-06T09:45:57Z</time>
      </trkpt>
      <trkpt lat="42.95685" lon="1.14951">
        <ele>705.6</ele>
        <time>2024-10-06T09:45:58Z</time>
      </trkpt>
      <trkpt lat="42.95689" lon="1.1495">
        <ele>705</ele>
        <time>2024-10-06T09:45:59Z</time>
      </trkpt>
      <trkpt lat="42.95693" lon="1.1495">
        <ele>704.6</ele>
        <time>2024-10-06T09:46:00Z</time>
      </trkpt>
      <trkpt lat="42.95698" lon="1.14949">
        <ele>704</ele>
        <time>2024-10-06T09:46:01Z</time>
      </trkpt>
      <trkpt lat="42.95701" lon="1.14948">
        <ele>703.6</ele>
        <time>2024-10-06T09:46:02Z</time>
      </trkpt>
      <trkpt lat="42.95705" lon="1.14946">
        <ele>703</ele>
        <time>2024-10-06T09:46:03Z</time>
      </trkpt>
      <trkpt lat="42.95709" lon="1.14944">
        <ele>702.4</ele>
        <time>2024-10-06T09:46:04Z</time>
      </trkpt>
      <trkpt lat="42.95712" lon="1.14941">
        <ele>701.6</ele>
        <time>2024-10-06T09:46:05Z</time>
      </trkpt>
      <trkpt lat="42.95716" lon="1.14939">
        <ele>701</ele>
        <time>2024-10-06T09:46:06Z</time>
      </trkpt>
      <trkpt lat="42.95721" lon="1.14936">
        <ele>700.2</ele>
        <time>2024-10-06T09:46:07Z</time>
      </trkpt>
      <trkpt lat="42.95726" lon="1.14935">
        <ele>699.6</ele>
        <time>2024-10-06T09:46:08Z</time>
      </trkpt>
      <trkpt lat="42.95731" lon="1.14933">
        <ele>698.8</ele>
        <time>2024-10-06T09:46:09Z</time>
      </trkpt>
      <trkpt lat="42.95736" lon="1.14932">
        <ele>698.2</ele>
        <time>2024-10-06T09:46:10Z</time>
      </trkpt>
      <trkpt lat="42.95742" lon="1.14931">
        <ele>697.4</ele>
        <time>2024-10-06T09:46:11Z</time>
      </trkpt>
      <trkpt lat="42.95748" lon="1.14933">
        <ele>696</ele>
        <time>2024-10-06T09:46:12Z</time>
      </trkpt>
      <trkpt lat="42.95754" lon="1.14935">
        <ele>695.2</ele>
        <time>2024-10-06T09:46:13Z</time>
      </trkpt>
      <trkpt lat="42.95777" lon="1.14944">
        <ele>695.2</ele>
        <time>2024-10-06T09:46:18Z</time>
      </trkpt>
      <trkpt lat="42.958" lon="1.14956">
        <ele>695.2</ele>
        <time>2024-10-06T09:46:23Z</time>
      </trkpt>
      <trkpt lat="42.95819" lon="1.14962">
        <ele>695.2</ele>
        <time>2024-10-06T09:46:28Z</time>
      </trkpt>
      <trkpt lat="42.95838" lon="1.1497">
        <ele>695.2</ele>
        <time>2024-10-06T09:46:34Z</time>
      </trkpt>
      <trkpt lat="42.95851" lon="1.14973">
        <ele>695.2</ele>
        <time>2024-10-06T09:46:37Z</time>
      </trkpt>
      <trkpt lat="42.95855" lon="1.14972">
        <ele>695.2</ele>
        <time>2024-10-06T09:46:38Z</time>
      </trkpt>
      <trkpt lat="42.95865" lon="1.14969">
        <ele>694.8</ele>
        <time>2024-10-06T09:46:40Z</time>
      </trkpt>
      <trkpt lat="42.9587" lon="1.14967">
        <ele>694.4</ele>
        <time>2024-10-06T09:46:41Z</time>
      </trkpt>
      <trkpt lat="42.95875" lon="1.14967">
        <ele>694</ele>
        <time>2024-10-06T09:46:42Z</time>
      </trkpt>
      <trkpt lat="42.95879" lon="1.14967">
        <ele>693.6</ele>
        <time>2024-10-06T09:46:43Z</time>
      </trkpt>
      <trkpt lat="42.95883" lon="1.14966">
        <ele>693.2</ele>
        <time>2024-10-06T09:46:44Z</time>
      </trkpt>
      <trkpt lat="42.95892" lon="1.14967">
        <ele>693.2</ele>
        <time>2024-10-06T09:46:46Z</time>
      </trkpt>
      <trkpt lat="42.95897" lon="1.14968">
        <ele>693.2</ele>
        <time>2024-10-06T09:46:47Z</time>
      </trkpt>
      <trkpt lat="42.95912" lon="1.14972">
        <ele>693.2</ele>
        <time>2024-10-06T09:46:50Z</time>
      </trkpt>
      <trkpt lat="42.95943" lon="1.14986">
        <ele>692.8</ele>
        <time>2024-10-06T09:46:56Z</time>
      </trkpt>
      <trkpt lat="42.95949" lon="1.1499">
        <ele>692.4</ele>
        <time>2024-10-06T09:46:57Z</time>
      </trkpt>
      <trkpt lat="42.95954" lon="1.14992">
        <ele>692</ele>
        <time>2024-10-06T09:46:58Z</time>
      </trkpt>
      <trkpt lat="42.95957" lon="1.14993">
        <ele>691.6</ele>
        <time>2024-10-06T09:46:59Z</time>
      </trkpt>
      <trkpt lat="42.95961" lon="1.14991">
        <ele>691</ele>
        <time>2024-10-06T09:47:00Z</time>
      </trkpt>
      <trkpt lat="42.95965" lon="1.14978">
        <ele>691</ele>
        <time>2024-10-06T09:47:03Z</time>
      </trkpt>
      <trkpt lat="42.95969" lon="1.14953">
        <ele>691</ele>
        <time>2024-10-06T09:47:09Z</time>
      </trkpt>
      <trkpt lat="42.95969" lon="1.14939">
        <ele>691</ele>
        <time>2024-10-06T09:47:13Z</time>
      </trkpt>
      <trkpt lat="42.95973" lon="1.14922">
        <ele>690.6</ele>
        <time>2024-10-06T09:47:17Z</time>
      </trkpt>
      <trkpt lat="42.95974" lon="1.14918">
        <ele>690.2</ele>
        <time>2024-10-06T09:47:18Z</time>
      </trkpt>
      <trkpt lat="42.95975" lon="1.14913">
        <ele>689.8</ele>
        <time>2024-10-06T09:47:19Z</time>
      </trkpt>
      <trkpt lat="42.95976" lon="1.14908">
        <ele>689.4</ele>
        <time>2024-10-06T09:47:20Z</time>
      </trkpt>
      <trkpt lat="42.95977" lon="1.14902">
        <ele>688.8</ele>
        <time>2024-10-06T09:47:21Z</time>
      </trkpt>
      <trkpt lat="42.95977" lon="1.14895">
        <ele>688.8</ele>
        <time>2024-10-06T09:47:22Z</time>
      </trkpt>
      <trkpt lat="42.95978" lon="1.14879">
        <ele>688.4</ele>
        <time>2024-10-06T09:47:24Z</time>
      </trkpt>
      <trkpt lat="42.95978" lon="1.14869">
        <ele>688</ele>
        <time>2024-10-06T09:47:25Z</time>
      </trkpt>
      <trkpt lat="42.95977" lon="1.14859">
        <ele>687.4</ele>
        <time>2024-10-06T09:47:26Z</time>
      </trkpt>
      <trkpt lat="42.95976" lon="1.14849">
        <ele>686.4</ele>
        <time>2024-10-06T09:47:27Z</time>
      </trkpt>
      <trkpt lat="42.95976" lon="1.14839">
        <ele>685.6</ele>
        <time>2024-10-06T09:47:28Z</time>
      </trkpt>
      <trkpt lat="42.95975" lon="1.14828">
        <ele>685</ele>
        <time>2024-10-06T09:47:29Z</time>
      </trkpt>
      <trkpt lat="42.95975" lon="1.14819">
        <ele>684.4</ele>
        <time>2024-10-06T09:47:30Z</time>
      </trkpt>
      <trkpt lat="42.95975" lon="1.14809">
        <ele>683.6</ele>
        <time>2024-10-06T09:47:31Z</time>
      </trkpt>
      <trkpt lat="42.95974" lon="1.148">
        <ele>683</ele>
        <time>2024-10-06T09:47:32Z</time>
      </trkpt>
      <trkpt lat="42.95974" lon="1.1479">
        <ele>682.2</ele>
        <time>2024-10-06T09:47:33Z</time>
      </trkpt>
      <trkpt lat="42.95974" lon="1.14781">
        <ele>681.4</ele>
        <time>2024-10-06T09:47:34Z</time>
      </trkpt>
      <trkpt lat="42.95973" lon="1.14771">
        <ele>681</ele>
        <time>2024-10-06T09:47:35Z</time>
      </trkpt>
      <trkpt lat="42.95973" lon="1.14761">
        <ele>680.6</ele>
        <time>2024-10-06T09:47:36Z</time>
      </trkpt>
      <trkpt lat="42.95972" lon="1.14753">
        <ele>680.2</ele>
        <time>2024-10-06T09:47:37Z</time>
      </trkpt>
      <trkpt lat="42.95971" lon="1.14744">
        <ele>679.8</ele>
        <time>2024-10-06T09:47:38Z</time>
      </trkpt>
      <trkpt lat="42.95971" lon="1.14735">
        <ele>679.4</ele>
        <time>2024-10-06T09:47:39Z</time>
      </trkpt>
      <trkpt lat="42.9597" lon="1.14727">
        <ele>679.4</ele>
        <time>2024-10-06T09:47:40Z</time>
      </trkpt>
      <trkpt lat="42.9597" lon="1.14713">
        <ele>679.4</ele>
        <time>2024-10-06T09:47:42Z</time>
      </trkpt>
      <trkpt lat="42.95969" lon="1.14703">
        <ele>679.4</ele>
        <time>2024-10-06T09:47:44Z</time>
      </trkpt>
      <trkpt lat="42.95969" lon="1.1469">
        <ele>679.4</ele>
        <time>2024-10-06T09:47:46Z</time>
      </trkpt>
      <trkpt lat="42.95971" lon="1.14676">
        <ele>679.4</ele>
        <time>2024-10-06T09:47:48Z</time>
      </trkpt>
      <trkpt lat="42.95972" lon="1.14649">
        <ele>679.4</ele>
        <time>2024-10-06T09:47:53Z</time>
      </trkpt>
      <trkpt lat="42.95973" lon="1.14632">
        <ele>679.4</ele>
        <time>2024-10-06T09:47:58Z</time>
      </trkpt>
      <trkpt lat="42.95975" lon="1.14621">
        <ele>679.4</ele>
        <time>2024-10-06T09:48:01Z</time>
      </trkpt>
      <trkpt lat="42.95975" lon="1.14615">
        <ele>679.4</ele>
        <time>2024-10-06T09:48:02Z</time>
      </trkpt>
      <trkpt lat="42.95976" lon="1.14593">
        <ele>679.4</ele>
        <time>2024-10-06T09:48:05Z</time>
      </trkpt>
      <trkpt lat="42.95978" lon="1.14585">
        <ele>679</ele>
        <time>2024-10-06T09:48:06Z</time>
      </trkpt>
      <trkpt lat="42.95979" lon="1.14576">
        <ele>678.4</ele>
        <time>2024-10-06T09:48:07Z</time>
      </trkpt>
      <trkpt lat="42.95982" lon="1.14567">
        <ele>678</ele>
        <time>2024-10-06T09:48:08Z</time>
      </trkpt>
      <trkpt lat="42.95985" lon="1.14557">
        <ele>677.4</ele>
        <time>2024-10-06T09:48:09Z</time>
      </trkpt>
      <trkpt lat="42.95986" lon="1.1455">
        <ele>676.6</ele>
        <time>2024-10-06T09:48:10Z</time>
      </trkpt>
      <trkpt lat="42.95989" lon="1.14542">
        <ele>676</ele>
        <time>2024-10-06T09:48:11Z</time>
      </trkpt>
      <trkpt lat="42.9599" lon="1.14533">
        <ele>675.2</ele>
        <time>2024-10-06T09:48:12Z</time>
      </trkpt>
      <trkpt lat="42.95992" lon="1.14524">
        <ele>674.2</ele>
        <time>2024-10-06T09:48:13Z</time>
      </trkpt>
      <trkpt lat="42.95994" lon="1.14515">
        <ele>673.4</ele>
        <time>2024-10-06T09:48:14Z</time>
      </trkpt>
      <trkpt lat="42.95998" lon="1.14505">
        <ele>672.4</ele>
        <time>2024-10-06T09:48:15Z</time>
      </trkpt>
      <trkpt lat="42.96001" lon="1.14495">
        <ele>670.4</ele>
        <time>2024-10-06T09:48:16Z</time>
      </trkpt>
      <trkpt lat="42.96004" lon="1.14485">
        <ele>669.2</ele>
        <time>2024-10-06T09:48:17Z</time>
      </trkpt>
      <trkpt lat="42.96006" lon="1.14474">
        <ele>668.2</ele>
        <time>2024-10-06T09:48:18Z</time>
      </trkpt>
      <trkpt lat="42.96009" lon="1.14462">
        <ele>667</ele>
        <time>2024-10-06T09:48:19Z</time>
      </trkpt>
      <trkpt lat="42.96011" lon="1.14451">
        <ele>666</ele>
        <time>2024-10-06T09:48:20Z</time>
      </trkpt>
      <trkpt lat="42.96013" lon="1.1444">
        <ele>664.8</ele>
        <time>2024-10-06T09:48:21Z</time>
      </trkpt>
      <trkpt lat="42.96015" lon="1.14429">
        <ele>664.2</ele>
        <time>2024-10-06T09:48:22Z</time>
      </trkpt>
      <trkpt lat="42.96018" lon="1.14419">
        <ele>663.4</ele>
        <time>2024-10-06T09:48:23Z</time>
      </trkpt>
      <trkpt lat="42.96021" lon="1.14409">
        <ele>662.6</ele>
        <time>2024-10-06T09:48:24Z</time>
      </trkpt>
      <trkpt lat="42.96024" lon="1.14399">
        <ele>661.6</ele>
        <time>2024-10-06T09:48:25Z</time>
      </trkpt>
      <trkpt lat="42.96026" lon="1.14389">
        <ele>660.8</ele>
        <time>2024-10-06T09:48:26Z</time>
      </trkpt>
      <trkpt lat="42.96027" lon="1.14379">
        <ele>660</ele>
        <time>2024-10-06T09:48:27Z</time>
      </trkpt>
      <trkpt lat="42.96029" lon="1.1437">
        <ele>659</ele>
        <time>2024-10-06T09:48:28Z</time>
      </trkpt>
      <trkpt lat="42.96031" lon="1.1436">
        <ele>658</ele>
        <time>2024-10-06T09:48:29Z</time>
      </trkpt>
      <trkpt lat="42.96032" lon="1.14349">
        <ele>657</ele>
        <time>2024-10-06T09:48:30Z</time>
      </trkpt>
      <trkpt lat="42.96036" lon="1.14336">
        <ele>655.8</ele>
        <time>2024-10-06T09:48:31Z</time>
      </trkpt>
      <trkpt lat="42.9604" lon="1.14324">
        <ele>654.8</ele>
        <time>2024-10-06T09:48:32Z</time>
      </trkpt>
      <trkpt lat="42.96043" lon="1.14314">
        <ele>653.8</ele>
        <time>2024-10-06T09:48:33Z</time>
      </trkpt>
      <trkpt lat="42.96047" lon="1.14305">
        <ele>652.8</ele>
        <time>2024-10-06T09:48:34Z</time>
      </trkpt>
      <trkpt lat="42.96052" lon="1.14295">
        <ele>652</ele>
        <time>2024-10-06T09:48:35Z</time>
      </trkpt>
      <trkpt lat="42.96058" lon="1.14286">
        <ele>651.2</ele>
        <time>2024-10-06T09:48:36Z</time>
      </trkpt>
      <trkpt lat="42.96065" lon="1.14277">
        <ele>650.2</ele>
        <time>2024-10-06T09:48:37Z</time>
      </trkpt>
      <trkpt lat="42.96072" lon="1.1427">
        <ele>649.4</ele>
        <time>2024-10-06T09:48:38Z</time>
      </trkpt>
      <trkpt lat="42.96079" lon="1.14266">
        <ele>648.6</ele>
        <time>2024-10-06T09:48:39Z</time>
      </trkpt>
      <trkpt lat="42.96087" lon="1.14264">
        <ele>648.2</ele>
        <time>2024-10-06T09:48:40Z</time>
      </trkpt>
      <trkpt lat="42.96094" lon="1.14262">
        <ele>647.2</ele>
        <time>2024-10-06T09:48:41Z</time>
      </trkpt>
      <trkpt lat="42.96101" lon="1.1426">
        <ele>646.8</ele>
        <time>2024-10-06T09:48:42Z</time>
      </trkpt>
      <trkpt lat="42.96106" lon="1.14259">
        <ele>646.4</ele>
        <time>2024-10-06T09:48:43Z</time>
      </trkpt>
      <trkpt lat="42.96117" lon="1.14258">
        <ele>646.4</ele>
        <time>2024-10-06T09:48:46Z</time>
      </trkpt>
      <trkpt lat="42.9612" lon="1.14256">
        <ele>647</ele>
        <time>2024-10-06T09:48:47Z</time>
      </trkpt>
      <trkpt lat="42.96122" lon="1.14254">
        <ele>647.4</ele>
        <time>2024-10-06T09:48:48Z</time>
      </trkpt>
      <trkpt lat="42.96124" lon="1.14251">
        <ele>648</ele>
        <time>2024-10-06T09:48:49Z</time>
      </trkpt>
      <trkpt lat="42.96125" lon="1.14248">
        <ele>648.4</ele>
        <time>2024-10-06T09:48:50Z</time>
      </trkpt>
      <trkpt lat="42.96127" lon="1.14244">
        <ele>649</ele>
        <time>2024-10-06T09:48:51Z</time>
      </trkpt>
      <trkpt lat="42.96129" lon="1.1424">
        <ele>649.4</ele>
        <time>2024-10-06T09:48:52Z</time>
      </trkpt>
      <trkpt lat="42.96131" lon="1.14237">
        <ele>650</ele>
        <time>2024-10-06T09:48:53Z</time>
      </trkpt>
      <trkpt lat="42.96132" lon="1.14234">
        <ele>650.4</ele>
        <time>2024-10-06T09:48:54Z</time>
      </trkpt>
      <trkpt lat="42.96134" lon="1.1423">
        <ele>651</ele>
        <time>2024-10-06T09:48:55Z</time>
      </trkpt>
      <trkpt lat="42.96135" lon="1.14227">
        <ele>651.4</ele>
        <time>2024-10-06T09:48:56Z</time>
      </trkpt>
      <trkpt lat="42.96136" lon="1.14224">
        <ele>651.8</ele>
        <time>2024-10-06T09:48:57Z</time>
      </trkpt>
      <trkpt lat="42.96137" lon="1.14222">
        <ele>652.2</ele>
        <time>2024-10-06T09:48:58Z</time>
      </trkpt>
      <trkpt lat="42.96138" lon="1.14219">
        <ele>652.6</ele>
        <time>2024-10-06T09:48:59Z</time>
      </trkpt>
      <trkpt lat="42.9614" lon="1.14217">
        <ele>653</ele>
        <time>2024-10-06T09:49:00Z</time>
      </trkpt>
      <trkpt lat="42.96143" lon="1.1421">
        <ele>653.6</ele>
        <time>2024-10-06T09:49:03Z</time>
      </trkpt>
      <trkpt lat="42.96144" lon="1.14207">
        <ele>654</ele>
        <time>2024-10-06T09:49:04Z</time>
      </trkpt>
      <trkpt lat="42.96145" lon="1.14205">
        <ele>654.8</ele>
        <time>2024-10-06T09:49:05Z</time>
      </trkpt>
      <trkpt lat="42.96146" lon="1.14203">
        <ele>655.2</ele>
        <time>2024-10-06T09:49:06Z</time>
      </trkpt>
      <trkpt lat="42.96148" lon="1.14198">
        <ele>655.2</ele>
        <time>2024-10-06T09:49:08Z</time>
      </trkpt>
      <trkpt lat="42.96149" lon="1.14196">
        <ele>655.6</ele>
        <time>2024-10-06T09:49:09Z</time>
      </trkpt>
      <trkpt lat="42.9615" lon="1.14194">
        <ele>656</ele>
        <time>2024-10-06T09:49:10Z</time>
      </trkpt>
      <trkpt lat="42.96152" lon="1.14191">
        <ele>656.4</ele>
        <time>2024-10-06T09:49:11Z</time>
      </trkpt>
      <trkpt lat="42.96153" lon="1.14188">
        <ele>656.8</ele>
        <time>2024-10-06T09:49:12Z</time>
      </trkpt>
      <trkpt lat="42.96155" lon="1.14185">
        <ele>657.2</ele>
        <time>2024-10-06T09:49:13Z</time>
      </trkpt>
      <trkpt lat="42.96156" lon="1.14183">
        <ele>657.2</ele>
        <time>2024-10-06T09:49:14Z</time>
      </trkpt>
      <trkpt lat="42.96157" lon="1.14181">
        <ele>657.8</ele>
        <time>2024-10-06T09:49:15Z</time>
      </trkpt>
      <trkpt lat="42.96158" lon="1.14179">
        <ele>658.2</ele>
        <time>2024-10-06T09:49:16Z</time>
      </trkpt>
      <trkpt lat="42.96159" lon="1.14177">
        <ele>658.6</ele>
        <time>2024-10-06T09:49:17Z</time>
      </trkpt>
      <trkpt lat="42.9616" lon="1.14175">
        <ele>659.2</ele>
        <time>2024-10-06T09:49:18Z</time>
      </trkpt>
      <trkpt lat="42.96162" lon="1.14173">
        <ele>659.6</ele>
        <time>2024-10-06T09:49:19Z</time>
      </trkpt>
      <trkpt lat="42.96163" lon="1.1417">
        <ele>659.6</ele>
        <time>2024-10-06T09:49:20Z</time>
      </trkpt>
      <trkpt lat="42.96164" lon="1.14167">
        <ele>660</ele>
        <time>2024-10-06T09:49:21Z</time>
      </trkpt>
      <trkpt lat="42.96165" lon="1.14164">
        <ele>660.6</ele>
        <time>2024-10-06T09:49:22Z</time>
      </trkpt>
      <trkpt lat="42.96166" lon="1.14161">
        <ele>661</ele>
        <time>2024-10-06T09:49:23Z</time>
      </trkpt>
      <trkpt lat="42.96167" lon="1.14159">
        <ele>661.6</ele>
        <time>2024-10-06T09:49:24Z</time>
      </trkpt>
      <trkpt lat="42.96168" lon="1.14155">
        <ele>662</ele>
        <time>2024-10-06T09:49:25Z</time>
      </trkpt>
      <trkpt lat="42.96171" lon="1.14149">
        <ele>662.4</ele>
        <time>2024-10-06T09:49:27Z</time>
      </trkpt>
      <trkpt lat="42.96172" lon="1.14146">
        <ele>662.8</ele>
        <time>2024-10-06T09:49:28Z</time>
      </trkpt>
      <trkpt lat="42.96174" lon="1.14143">
        <ele>663.2</ele>
        <time>2024-10-06T09:49:29Z</time>
      </trkpt>
      <trkpt lat="42.96174" lon="1.14141">
        <ele>664</ele>
        <time>2024-10-06T09:49:30Z</time>
      </trkpt>
      <trkpt lat="42.96176" lon="1.14137">
        <ele>664.4</ele>
        <time>2024-10-06T09:49:32Z</time>
      </trkpt>
      <trkpt lat="42.96176" lon="1.14135">
        <ele>664.8</ele>
        <time>2024-10-06T09:49:33Z</time>
      </trkpt>
      <trkpt lat="42.96177" lon="1.14133">
        <ele>665.2</ele>
        <time>2024-10-06T09:49:34Z</time>
      </trkpt>
      <trkpt lat="42.96178" lon="1.1413">
        <ele>665.6</ele>
        <time>2024-10-06T09:49:35Z</time>
      </trkpt>
      <trkpt lat="42.9618" lon="1.14128">
        <ele>666.2</ele>
        <time>2024-10-06T09:49:36Z</time>
      </trkpt>
      <trkpt lat="42.96181" lon="1.14122">
        <ele>666.2</ele>
        <time>2024-10-06T09:49:38Z</time>
      </trkpt>
      <trkpt lat="42.96183" lon="1.14119">
        <ele>666.6</ele>
        <time>2024-10-06T09:49:39Z</time>
      </trkpt>
      <trkpt lat="42.96184" lon="1.14117">
        <ele>667</ele>
        <time>2024-10-06T09:49:40Z</time>
      </trkpt>
      <trkpt lat="42.96185" lon="1.14115">
        <ele>667.4</ele>
        <time>2024-10-06T09:49:41Z</time>
      </trkpt>
      <trkpt lat="42.96186" lon="1.14113">
        <ele>667.8</ele>
        <time>2024-10-06T09:49:42Z</time>
      </trkpt>
      <trkpt lat="42.96186" lon="1.14111">
        <ele>668.4</ele>
        <time>2024-10-06T09:49:43Z</time>
      </trkpt>
      <trkpt lat="42.96187" lon="1.14108">
        <ele>668.4</ele>
        <time>2024-10-06T09:49:44Z</time>
      </trkpt>
      <trkpt lat="42.96188" lon="1.14105">
        <ele>668.8</ele>
        <time>2024-10-06T09:49:45Z</time>
      </trkpt>
      <trkpt lat="42.96189" lon="1.14101">
        <ele>669.2</ele>
        <time>2024-10-06T09:49:46Z</time>
      </trkpt>
      <trkpt lat="42.9619" lon="1.14098">
        <ele>669.6</ele>
        <time>2024-10-06T09:49:47Z</time>
      </trkpt>
      <trkpt lat="42.96191" lon="1.14095">
        <ele>670</ele>
        <time>2024-10-06T09:49:48Z</time>
      </trkpt>
      <trkpt lat="42.96192" lon="1.14093">
        <ele>670.6</ele>
        <time>2024-10-06T09:49:49Z</time>
      </trkpt>
      <trkpt lat="42.96192" lon="1.1409">
        <ele>670.6</ele>
        <time>2024-10-06T09:49:50Z</time>
      </trkpt>
      <trkpt lat="42.96193" lon="1.14086">
        <ele>671</ele>
        <time>2024-10-06T09:49:52Z</time>
      </trkpt>
      <trkpt lat="42.96194" lon="1.14084">
        <ele>671.4</ele>
        <time>2024-10-06T09:49:53Z</time>
      </trkpt>
      <trkpt lat="42.96195" lon="1.14082">
        <ele>671.8</ele>
        <time>2024-10-06T09:49:54Z</time>
      </trkpt>
      <trkpt lat="42.96195" lon="1.14079">
        <ele>672.6</ele>
        <time>2024-10-06T09:49:55Z</time>
      </trkpt>
      <trkpt lat="42.96196" lon="1.14077">
        <ele>672.6</ele>
        <time>2024-10-06T09:49:56Z</time>
      </trkpt>
      <trkpt lat="42.96198" lon="1.14073">
        <ele>673.2</ele>
        <time>2024-10-06T09:49:58Z</time>
      </trkpt>
      <trkpt lat="42.96199" lon="1.1407">
        <ele>673.6</ele>
        <time>2024-10-06T09:49:59Z</time>
      </trkpt>
      <trkpt lat="42.962" lon="1.14068">
        <ele>674.2</ele>
        <time>2024-10-06T09:50:00Z</time>
      </trkpt>
      <trkpt lat="42.962" lon="1.14066">
        <ele>674.6</ele>
        <time>2024-10-06T09:50:01Z</time>
      </trkpt>
      <trkpt lat="42.96201" lon="1.14064">
        <ele>675</ele>
        <time>2024-10-06T09:50:02Z</time>
      </trkpt>
      <trkpt lat="42.96203" lon="1.1406">
        <ele>675.6</ele>
        <time>2024-10-06T09:50:04Z</time>
      </trkpt>
      <trkpt lat="42.96204" lon="1.14058">
        <ele>676</ele>
        <time>2024-10-06T09:50:05Z</time>
      </trkpt>
      <trkpt lat="42.96205" lon="1.14056">
        <ele>676.4</ele>
        <time>2024-10-06T09:50:06Z</time>
      </trkpt>
      <trkpt lat="42.96207" lon="1.14055">
        <ele>676.8</ele>
        <time>2024-10-06T09:50:07Z</time>
      </trkpt>
      <trkpt lat="42.96208" lon="1.14054">
        <ele>677.2</ele>
        <time>2024-10-06T09:50:08Z</time>
      </trkpt>
      <trkpt lat="42.96208" lon="1.14053">
        <ele>677.2</ele>
        <time>2024-10-06T09:50:10Z</time>
      </trkpt>
      <trkpt lat="42.9621" lon="1.14049">
        <ele>677.2</ele>
        <time>2024-10-06T09:50:14Z</time>
      </trkpt>
      <trkpt lat="42.96213" lon="1.14046">
        <ele>677.2</ele>
        <time>2024-10-06T09:50:15Z</time>
      </trkpt>
      <trkpt lat="42.96219" lon="1.14036">
        <ele>677.2</ele>
        <time>2024-10-06T09:50:17Z</time>
      </trkpt>
      <trkpt lat="42.96221" lon="1.14029">
        <ele>677.2</ele>
        <time>2024-10-06T09:50:18Z</time>
      </trkpt>
      <trkpt lat="42.96231" lon="1.13998">
        <ele>676.8</ele>
        <time>2024-10-06T09:50:22Z</time>
      </trkpt>
      <trkpt lat="42.96234" lon="1.13989">
        <ele>676.4</ele>
        <time>2024-10-06T09:50:23Z</time>
      </trkpt>
      <trkpt lat="42.96237" lon="1.13981">
        <ele>676</ele>
        <time>2024-10-06T09:50:24Z</time>
      </trkpt>
      <trkpt lat="42.96239" lon="1.13972">
        <ele>675.6</ele>
        <time>2024-10-06T09:50:25Z</time>
      </trkpt>
      <trkpt lat="42.96242" lon="1.13963">
        <ele>675.2</ele>
        <time>2024-10-06T09:50:26Z</time>
      </trkpt>
      <trkpt lat="42.96249" lon="1.13937">
        <ele>674.6</ele>
        <time>2024-10-06T09:50:29Z</time>
      </trkpt>
      <trkpt lat="42.96252" lon="1.1393">
        <ele>674.2</ele>
        <time>2024-10-06T09:50:30Z</time>
      </trkpt>
      <trkpt lat="42.96256" lon="1.13924">
        <ele>673.8</ele>
        <time>2024-10-06T09:50:31Z</time>
      </trkpt>
      <trkpt lat="42.96262" lon="1.1392">
        <ele>673.2</ele>
        <time>2024-10-06T09:50:32Z</time>
      </trkpt>
      <trkpt lat="42.96269" lon="1.13918">
        <ele>672.8</ele>
        <time>2024-10-06T09:50:33Z</time>
      </trkpt>
      <trkpt lat="42.96276" lon="1.13918">
        <ele>672.4</ele>
        <time>2024-10-06T09:50:34Z</time>
      </trkpt>
      <trkpt lat="42.96283" lon="1.1392">
        <ele>672</ele>
        <time>2024-10-06T09:50:35Z</time>
      </trkpt>
      <trkpt lat="42.9629" lon="1.13924">
        <ele>671.6</ele>
        <time>2024-10-06T09:50:36Z</time>
      </trkpt>
      <trkpt lat="42.96298" lon="1.13931">
        <ele>671.2</ele>
        <time>2024-10-06T09:50:37Z</time>
      </trkpt>
      <trkpt lat="42.96305" lon="1.13937">
        <ele>670.6</ele>
        <time>2024-10-06T09:50:38Z</time>
      </trkpt>
      <trkpt lat="42.96311" lon="1.13944">
        <ele>670.2</ele>
        <time>2024-10-06T09:50:39Z</time>
      </trkpt>
      <trkpt lat="42.96318" lon="1.1395">
        <ele>669.6</ele>
        <time>2024-10-06T09:50:40Z</time>
      </trkpt>
      <trkpt lat="42.96324" lon="1.13956">
        <ele>669.2</ele>
        <time>2024-10-06T09:50:41Z</time>
      </trkpt>
      <trkpt lat="42.96329" lon="1.1396">
        <ele>668.6</ele>
        <time>2024-10-06T09:50:42Z</time>
      </trkpt>
      <trkpt lat="42.96335" lon="1.13961">
        <ele>668.2</ele>
        <time>2024-10-06T09:50:43Z</time>
      </trkpt>
      <trkpt lat="42.96339" lon="1.13958">
        <ele>667.8</ele>
        <time>2024-10-06T09:50:44Z</time>
      </trkpt>
      <trkpt lat="42.96343" lon="1.13955">
        <ele>666.8</ele>
        <time>2024-10-06T09:50:45Z</time>
      </trkpt>
      <trkpt lat="42.96348" lon="1.1395">
        <ele>666.4</ele>
        <time>2024-10-06T09:50:46Z</time>
      </trkpt>
      <trkpt lat="42.96355" lon="1.13945">
        <ele>665.8</ele>
        <time>2024-10-06T09:50:47Z</time>
      </trkpt>
      <trkpt lat="42.96361" lon="1.13941">
        <ele>665.4</ele>
        <time>2024-10-06T09:50:48Z</time>
      </trkpt>
      <trkpt lat="42.96368" lon="1.13936">
        <ele>664.8</ele>
        <time>2024-10-06T09:50:49Z</time>
      </trkpt>
      <trkpt lat="42.96375" lon="1.13931">
        <ele>664.2</ele>
        <time>2024-10-06T09:50:50Z</time>
      </trkpt>
      <trkpt lat="42.96383" lon="1.13926">
        <ele>663.8</ele>
        <time>2024-10-06T09:50:51Z</time>
      </trkpt>
      <trkpt lat="42.96389" lon="1.13921">
        <ele>663.2</ele>
        <time>2024-10-06T09:50:52Z</time>
      </trkpt>
      <trkpt lat="42.96396" lon="1.13917">
        <ele>662.8</ele>
        <time>2024-10-06T09:50:53Z</time>
      </trkpt>
      <trkpt lat="42.96406" lon="1.13909">
        <ele>662</ele>
        <time>2024-10-06T09:50:54Z</time>
      </trkpt>
      <trkpt lat="42.96415" lon="1.13902">
        <ele>661.4</ele>
        <time>2024-10-06T09:50:55Z</time>
      </trkpt>
      <trkpt lat="42.96423" lon="1.13896">
        <ele>660.8</ele>
        <time>2024-10-06T09:50:56Z</time>
      </trkpt>
      <trkpt lat="42.96432" lon="1.13889">
        <ele>660.2</ele>
        <time>2024-10-06T09:50:57Z</time>
      </trkpt>
      <trkpt lat="42.96441" lon="1.13884">
        <ele>659.6</ele>
        <time>2024-10-06T09:50:58Z</time>
      </trkpt>
      <trkpt lat="42.96455" lon="1.13876">
        <ele>659.6</ele>
        <time>2024-10-06T09:51:00Z</time>
      </trkpt>
      <trkpt lat="42.96468" lon="1.1387">
        <ele>659.6</ele>
        <time>2024-10-06T09:51:03Z</time>
      </trkpt>
      <trkpt lat="42.96473" lon="1.13867">
        <ele>660</ele>
        <time>2024-10-06T09:51:04Z</time>
      </trkpt>
      <trkpt lat="42.96477" lon="1.13865">
        <ele>660.6</ele>
        <time>2024-10-06T09:51:05Z</time>
      </trkpt>
      <trkpt lat="42.96481" lon="1.13864">
        <ele>661</ele>
        <time>2024-10-06T09:51:06Z</time>
      </trkpt>
      <trkpt lat="42.96485" lon="1.13862">
        <ele>661.4</ele>
        <time>2024-10-06T09:51:07Z</time>
      </trkpt>
      <trkpt lat="42.96489" lon="1.13862">
        <ele>662</ele>
        <time>2024-10-06T09:51:08Z</time>
      </trkpt>
      <trkpt lat="42.96494" lon="1.13861">
        <ele>663</ele>
        <time>2024-10-06T09:51:09Z</time>
      </trkpt>
      <trkpt lat="42.96497" lon="1.13861">
        <ele>663.6</ele>
        <time>2024-10-06T09:51:10Z</time>
      </trkpt>
      <trkpt lat="42.96501" lon="1.13863">
        <ele>664.4</ele>
        <time>2024-10-06T09:51:11Z</time>
      </trkpt>
      <trkpt lat="42.96503" lon="1.13865">
        <ele>665</ele>
        <time>2024-10-06T09:51:12Z</time>
      </trkpt>
      <trkpt lat="42.96506" lon="1.13867">
        <ele>665.6</ele>
        <time>2024-10-06T09:51:13Z</time>
      </trkpt>
      <trkpt lat="42.9651" lon="1.13869">
        <ele>666.4</ele>
        <time>2024-10-06T09:51:14Z</time>
      </trkpt>
      <trkpt lat="42.96513" lon="1.13872">
        <ele>666.4</ele>
        <time>2024-10-06T09:51:15Z</time>
      </trkpt>
      <trkpt lat="42.96526" lon="1.13875">
        <ele>666.4</ele>
        <time>2024-10-06T09:51:19Z</time>
      </trkpt>
      <trkpt lat="42.96538" lon="1.13872">
        <ele>666.4</ele>
        <time>2024-10-06T09:51:24Z</time>
      </trkpt>
      <trkpt lat="42.96548" lon="1.13863">
        <ele>666.8</ele>
        <time>2024-10-06T09:51:30Z</time>
      </trkpt>
      <trkpt lat="42.9655" lon="1.1386">
        <ele>667.2</ele>
        <time>2024-10-06T09:51:31Z</time>
      </trkpt>
      <trkpt lat="42.96552" lon="1.13856">
        <ele>667.6</ele>
        <time>2024-10-06T09:51:32Z</time>
      </trkpt>
      <trkpt lat="42.96553" lon="1.13853">
        <ele>668</ele>
        <time>2024-10-06T09:51:33Z</time>
      </trkpt>
      <trkpt lat="42.96554" lon="1.1385">
        <ele>668.4</ele>
        <time>2024-10-06T09:51:34Z</time>
      </trkpt>
      <trkpt lat="42.96556" lon="1.13847">
        <ele>668.4</ele>
        <time>2024-10-06T09:51:35Z</time>
      </trkpt>
      <trkpt lat="42.96564" lon="1.13824">
        <ele>668.4</ele>
        <time>2024-10-06T09:51:42Z</time>
      </trkpt>
      <trkpt lat="42.9657" lon="1.13806">
        <ele>668.4</ele>
        <time>2024-10-06T09:51:47Z</time>
      </trkpt>
      <trkpt lat="42.96574" lon="1.13784">
        <ele>668.4</ele>
        <time>2024-10-06T09:51:54Z</time>
      </trkpt>
      <trkpt lat="42.96574" lon="1.1378">
        <ele>668.8</ele>
        <time>2024-10-06T09:51:55Z</time>
      </trkpt>
      <trkpt lat="42.96575" lon="1.13778">
        <ele>669.2</ele>
        <time>2024-10-06T09:51:56Z</time>
      </trkpt>
      <trkpt lat="42.96575" lon="1.13775">
        <ele>669.6</ele>
        <time>2024-10-06T09:51:57Z</time>
      </trkpt>
      <trkpt lat="42.96575" lon="1.13773">
        <ele>670</ele>
        <time>2024-10-06T09:51:58Z</time>
      </trkpt>
      <trkpt lat="42.96575" lon="1.13771">
        <ele>670.6</ele>
        <time>2024-10-06T09:51:59Z</time>
      </trkpt>
      <trkpt lat="42.96573" lon="1.13766">
        <ele>671</ele>
        <time>2024-10-06T09:52:01Z</time>
      </trkpt>
      <trkpt lat="42.96571" lon="1.13765">
        <ele>671.4</ele>
        <time>2024-10-06T09:52:02Z</time>
      </trkpt>
      <trkpt lat="42.96569" lon="1.13763">
        <ele>671.8</ele>
        <time>2024-10-06T09:52:03Z</time>
      </trkpt>
      <trkpt lat="42.96567" lon="1.13762">
        <ele>672.2</ele>
        <time>2024-10-06T09:52:04Z</time>
      </trkpt>
      <trkpt lat="42.96565" lon="1.13762">
        <ele>672.6</ele>
        <time>2024-10-06T09:52:05Z</time>
      </trkpt>
      <trkpt lat="42.96563" lon="1.13761">
        <ele>673.2</ele>
        <time>2024-10-06T09:52:06Z</time>
      </trkpt>
      <trkpt lat="42.96561" lon="1.1376">
        <ele>673.6</ele>
        <time>2024-10-06T09:52:07Z</time>
      </trkpt>
      <trkpt lat="42.96559" lon="1.13759">
        <ele>674.2</ele>
        <time>2024-10-06T09:52:08Z</time>
      </trkpt>
      <trkpt lat="42.96557" lon="1.13758">
        <ele>674.6</ele>
        <time>2024-10-06T09:52:09Z</time>
      </trkpt>
      <trkpt lat="42.96555" lon="1.13756">
        <ele>675.2</ele>
        <time>2024-10-06T09:52:10Z</time>
      </trkpt>
      <trkpt lat="42.96554" lon="1.13755">
        <ele>675.6</ele>
        <time>2024-10-06T09:52:11Z</time>
      </trkpt>
      <trkpt lat="42.96553" lon="1.13753">
        <ele>676</ele>
        <time>2024-10-06T09:52:12Z</time>
      </trkpt>
      <trkpt lat="42.96551" lon="1.13751">
        <ele>676.6</ele>
        <time>2024-10-06T09:52:13Z</time>
      </trkpt>
      <trkpt lat="42.9655" lon="1.13749">
        <ele>677</ele>
        <time>2024-10-06T09:52:14Z</time>
      </trkpt>
      <trkpt lat="42.96548" lon="1.13747">
        <ele>677.4</ele>
        <time>2024-10-06T09:52:15Z</time>
      </trkpt>
      <trkpt lat="42.96547" lon="1.13746">
        <ele>677.8</ele>
        <time>2024-10-06T09:52:16Z</time>
      </trkpt>
      <trkpt lat="42.96546" lon="1.13744">
        <ele>678.4</ele>
        <time>2024-10-06T09:52:17Z</time>
      </trkpt>
      <trkpt lat="42.96544" lon="1.13743">
        <ele>678.8</ele>
        <time>2024-10-06T09:52:18Z</time>
      </trkpt>
      <trkpt lat="42.96543" lon="1.13741">
        <ele>679.2</ele>
        <time>2024-10-06T09:52:19Z</time>
      </trkpt>
      <trkpt lat="42.96539" lon="1.13737">
        <ele>679.6</ele>
        <time>2024-10-06T09:52:21Z</time>
      </trkpt>
      <trkpt lat="42.96537" lon="1.13735">
        <ele>680</ele>
        <time>2024-10-06T09:52:22Z</time>
      </trkpt>
      <trkpt lat="42.96536" lon="1.13734">
        <ele>680.4</ele>
        <time>2024-10-06T09:52:23Z</time>
      </trkpt>
      <trkpt lat="42.96534" lon="1.13733">
        <ele>681.2</ele>
        <time>2024-10-06T09:52:24Z</time>
      </trkpt>
      <trkpt lat="42.96526" lon="1.13725">
        <ele>681.6</ele>
        <time>2024-10-06T09:52:29Z</time>
      </trkpt>
      <trkpt lat="42.96524" lon="1.13724">
        <ele>682</ele>
        <time>2024-10-06T09:52:30Z</time>
      </trkpt>
      <trkpt lat="42.96523" lon="1.13722">
        <ele>682.4</ele>
        <time>2024-10-06T09:52:31Z</time>
      </trkpt>
      <trkpt lat="42.96522" lon="1.13721">
        <ele>682.8</ele>
        <time>2024-10-06T09:52:32Z</time>
      </trkpt>
      <trkpt lat="42.96521" lon="1.1372">
        <ele>683.2</ele>
        <time>2024-10-06T09:52:33Z</time>
      </trkpt>
      <trkpt lat="42.96516" lon="1.13717">
        <ele>683.2</ele>
        <time>2024-10-06T09:52:35Z</time>
      </trkpt>
      <trkpt lat="42.96502" lon="1.1371">
        <ele>683.2</ele>
        <time>2024-10-06T09:52:41Z</time>
      </trkpt>
      <trkpt lat="42.96493" lon="1.13705">
        <ele>683.6</ele>
        <time>2024-10-06T09:52:46Z</time>
      </trkpt>
      <trkpt lat="42.96492" lon="1.13705">
        <ele>684</ele>
        <time>2024-10-06T09:52:47Z</time>
      </trkpt>
      <trkpt lat="42.9649" lon="1.13704">
        <ele>684.8</ele>
        <time>2024-10-06T09:52:48Z</time>
      </trkpt>
      <trkpt lat="42.96487" lon="1.13703">
        <ele>685.2</ele>
        <time>2024-10-06T09:52:49Z</time>
      </trkpt>
      <trkpt lat="42.96482" lon="1.13702">
        <ele>685.2</ele>
        <time>2024-10-06T09:52:51Z</time>
      </trkpt>
      <trkpt lat="42.96477" lon="1.13704">
        <ele>685.8</ele>
        <time>2024-10-06T09:52:53Z</time>
      </trkpt>
      <trkpt lat="42.96474" lon="1.13704">
        <ele>686.2</ele>
        <time>2024-10-06T09:52:54Z</time>
      </trkpt>
      <trkpt lat="42.96472" lon="1.13704">
        <ele>686.6</ele>
        <time>2024-10-06T09:52:55Z</time>
      </trkpt>
      <trkpt lat="42.9647" lon="1.13704">
        <ele>687</ele>
        <time>2024-10-06T09:52:56Z</time>
      </trkpt>
      <trkpt lat="42.96468" lon="1.13705">
        <ele>687.6</ele>
        <time>2024-10-06T09:52:57Z</time>
      </trkpt>
      <trkpt lat="42.96461" lon="1.1371">
        <ele>688</ele>
        <time>2024-10-06T09:53:00Z</time>
      </trkpt>
      <trkpt lat="42.96459" lon="1.13712">
        <ele>688.4</ele>
        <time>2024-10-06T09:53:01Z</time>
      </trkpt>
      <trkpt lat="42.96457" lon="1.13714">
        <ele>688.8</ele>
        <time>2024-10-06T09:53:02Z</time>
      </trkpt>
      <trkpt lat="42.96455" lon="1.13716">
        <ele>689.2</ele>
        <time>2024-10-06T09:53:03Z</time>
      </trkpt>
      <trkpt lat="42.96454" lon="1.13718">
        <ele>689.6</ele>
        <time>2024-10-06T09:53:04Z</time>
      </trkpt>
      <trkpt lat="42.96448" lon="1.13728">
        <ele>689.6</ele>
        <time>2024-10-06T09:53:08Z</time>
      </trkpt>
      <trkpt lat="42.96446" lon="1.1373">
        <ele>689.6</ele>
        <time>2024-10-06T09:53:09Z</time>
      </trkpt>
      <trkpt lat="42.96441" lon="1.13738">
        <ele>690</ele>
        <time>2024-10-06T09:53:12Z</time>
      </trkpt>
      <trkpt lat="42.96438" lon="1.13741">
        <ele>690.8</ele>
        <time>2024-10-06T09:53:13Z</time>
      </trkpt>
      <trkpt lat="42.96436" lon="1.13743">
        <ele>691.2</ele>
        <time>2024-10-06T09:53:14Z</time>
      </trkpt>
      <trkpt lat="42.96434" lon="1.13746">
        <ele>691.8</ele>
        <time>2024-10-06T09:53:15Z</time>
      </trkpt>
      <trkpt lat="42.96427" lon="1.13758">
        <ele>691.8</ele>
        <time>2024-10-06T09:53:21Z</time>
      </trkpt>
      <trkpt lat="42.96423" lon="1.13763">
        <ele>692.2</ele>
        <time>2024-10-06T09:53:24Z</time>
      </trkpt>
      <trkpt lat="42.96421" lon="1.13765">
        <ele>692.6</ele>
        <time>2024-10-06T09:53:25Z</time>
      </trkpt>
      <trkpt lat="42.96419" lon="1.13765">
        <ele>693</ele>
        <time>2024-10-06T09:53:26Z</time>
      </trkpt>
      <trkpt lat="42.96417" lon="1.13766">
        <ele>693.4</ele>
        <time>2024-10-06T09:53:27Z</time>
      </trkpt>
      <trkpt lat="42.96415" lon="1.13767">
        <ele>693.8</ele>
        <time>2024-10-06T09:53:28Z</time>
      </trkpt>
      <trkpt lat="42.96404" lon="1.13772">
        <ele>693.8</ele>
        <time>2024-10-06T09:53:33Z</time>
      </trkpt>
      <trkpt lat="42.96395" lon="1.13781">
        <ele>694.2</ele>
        <time>2024-10-06T09:53:39Z</time>
      </trkpt>
      <trkpt lat="42.96394" lon="1.13783">
        <ele>694.6</ele>
        <time>2024-10-06T09:53:40Z</time>
      </trkpt>
      <trkpt lat="42.96394" lon="1.13785">
        <ele>695</ele>
        <time>2024-10-06T09:53:41Z</time>
      </trkpt>
      <trkpt lat="42.96393" lon="1.13786">
        <ele>695.4</ele>
        <time>2024-10-06T09:53:42Z</time>
      </trkpt>
      <trkpt lat="42.96392" lon="1.13788">
        <ele>695.8</ele>
        <time>2024-10-06T09:53:43Z</time>
      </trkpt>
      <trkpt lat="42.96391" lon="1.13791">
        <ele>695.8</ele>
        <time>2024-10-06T09:53:45Z</time>
      </trkpt>
      <trkpt lat="42.9639" lon="1.13793">
        <ele>696.2</ele>
        <time>2024-10-06T09:53:47Z</time>
      </trkpt>
      <trkpt lat="42.96388" lon="1.13796">
        <ele>696.6</ele>
        <time>2024-10-06T09:53:48Z</time>
      </trkpt>
      <trkpt lat="42.96386" lon="1.13798">
        <ele>697</ele>
        <time>2024-10-06T09:53:49Z</time>
      </trkpt>
      <trkpt lat="42.96383" lon="1.13801">
        <ele>697.4</ele>
        <time>2024-10-06T09:53:50Z</time>
      </trkpt>
      <trkpt lat="42.96381" lon="1.13803">
        <ele>698</ele>
        <time>2024-10-06T09:53:51Z</time>
      </trkpt>
      <trkpt lat="42.96375" lon="1.13811">
        <ele>698</ele>
        <time>2024-10-06T09:53:56Z</time>
      </trkpt>
      <trkpt lat="42.96371" lon="1.13814">
        <ele>698.4</ele>
        <time>2024-10-06T09:53:58Z</time>
      </trkpt>
      <trkpt lat="42.96368" lon="1.13816">
        <ele>698.8</ele>
        <time>2024-10-06T09:53:59Z</time>
      </trkpt>
      <trkpt lat="42.96367" lon="1.13817">
        <ele>699.2</ele>
        <time>2024-10-06T09:54:00Z</time>
      </trkpt>
      <trkpt lat="42.96365" lon="1.13819">
        <ele>699.6</ele>
        <time>2024-10-06T09:54:01Z</time>
      </trkpt>
      <trkpt lat="42.96363" lon="1.1382">
        <ele>700</ele>
        <time>2024-10-06T09:54:02Z</time>
      </trkpt>
      <trkpt lat="42.96353" lon="1.13826">
        <ele>700.4</ele>
        <time>2024-10-06T09:54:05Z</time>
      </trkpt>
      <trkpt lat="42.9635" lon="1.13828">
        <ele>700.8</ele>
        <time>2024-10-06T09:54:06Z</time>
      </trkpt>
      <trkpt lat="42.96349" lon="1.13829">
        <ele>701.4</ele>
        <time>2024-10-06T09:54:07Z</time>
      </trkpt>
      <trkpt lat="42.96346" lon="1.13829">
        <ele>701.8</ele>
        <time>2024-10-06T09:54:08Z</time>
      </trkpt>
      <trkpt lat="42.96343" lon="1.1383">
        <ele>702.2</ele>
        <time>2024-10-06T09:54:09Z</time>
      </trkpt>
      <trkpt lat="42.96338" lon="1.1383">
        <ele>702.2</ele>
        <time>2024-10-06T09:54:11Z</time>
      </trkpt>
      <trkpt lat="42.96336" lon="1.1383">
        <ele>702.8</ele>
        <time>2024-10-06T09:54:12Z</time>
      </trkpt>
      <trkpt lat="42.96333" lon="1.13831">
        <ele>703.2</ele>
        <time>2024-10-06T09:54:13Z</time>
      </trkpt>
      <trkpt lat="42.9633" lon="1.13831">
        <ele>703.6</ele>
        <time>2024-10-06T09:54:14Z</time>
      </trkpt>
      <trkpt lat="42.96328" lon="1.1383">
        <ele>704</ele>
        <time>2024-10-06T09:54:15Z</time>
      </trkpt>
      <trkpt lat="42.96326" lon="1.13829">
        <ele>704.4</ele>
        <time>2024-10-06T09:54:16Z</time>
      </trkpt>
      <trkpt lat="42.96324" lon="1.13828">
        <ele>704.4</ele>
        <time>2024-10-06T09:54:17Z</time>
      </trkpt>
      <trkpt lat="42.96318" lon="1.13821">
        <ele>704.4</ele>
        <time>2024-10-06T09:54:21Z</time>
      </trkpt>
      <trkpt lat="42.96316" lon="1.13819">
        <ele>705</ele>
        <time>2024-10-06T09:54:22Z</time>
      </trkpt>
      <trkpt lat="42.96314" lon="1.13817">
        <ele>705.4</ele>
        <time>2024-10-06T09:54:23Z</time>
      </trkpt>
      <trkpt lat="42.96312" lon="1.13817">
        <ele>705.8</ele>
        <time>2024-10-06T09:54:24Z</time>
      </trkpt>
      <trkpt lat="42.96309" lon="1.13815">
        <ele>706.2</ele>
        <time>2024-10-06T09:54:25Z</time>
      </trkpt>
      <trkpt lat="42.96307" lon="1.13813">
        <ele>706.8</ele>
        <time>2024-10-06T09:54:26Z</time>
      </trkpt>
      <trkpt lat="42.96303" lon="1.13811">
        <ele>706.8</ele>
        <time>2024-10-06T09:54:28Z</time>
      </trkpt>
      <trkpt lat="42.96301" lon="1.13811">
        <ele>706.8</ele>
        <time>2024-10-06T09:54:29Z</time>
      </trkpt>
      <trkpt lat="42.96294" lon="1.13807">
        <ele>707.2</ele>
        <time>2024-10-06T09:54:32Z</time>
      </trkpt>
      <trkpt lat="42.96293" lon="1.13805">
        <ele>707.6</ele>
        <time>2024-10-06T09:54:33Z</time>
      </trkpt>
      <trkpt lat="42.96291" lon="1.13804">
        <ele>708</ele>
        <time>2024-10-06T09:54:34Z</time>
      </trkpt>
      <trkpt lat="42.9629" lon="1.13803">
        <ele>708.4</ele>
        <time>2024-10-06T09:54:35Z</time>
      </trkpt>
      <trkpt lat="42.96287" lon="1.13803">
        <ele>708.8</ele>
        <time>2024-10-06T09:54:36Z</time>
      </trkpt>
      <trkpt lat="42.96282" lon="1.13803">
        <ele>708.8</ele>
        <time>2024-10-06T09:54:39Z</time>
      </trkpt>
      <trkpt lat="42.96279" lon="1.13804">
        <ele>709.2</ele>
        <time>2024-10-06T09:54:41Z</time>
      </trkpt>
      <trkpt lat="42.96277" lon="1.13804">
        <ele>709.6</ele>
        <time>2024-10-06T09:54:42Z</time>
      </trkpt>
      <trkpt lat="42.96276" lon="1.13805">
        <ele>710.2</ele>
        <time>2024-10-06T09:54:43Z</time>
      </trkpt>
      <trkpt lat="42.96275" lon="1.13806">
        <ele>710.6</ele>
        <time>2024-10-06T09:54:44Z</time>
      </trkpt>
      <trkpt lat="42.96274" lon="1.13806">
        <ele>711</ele>
        <time>2024-10-06T09:54:45Z</time>
      </trkpt>
      <trkpt lat="42.9627" lon="1.13809">
        <ele>711</ele>
        <time>2024-10-06T09:54:49Z</time>
      </trkpt>
      <trkpt lat="42.96268" lon="1.1381">
        <ele>711</ele>
        <time>2024-10-06T09:54:50Z</time>
      </trkpt>
      <trkpt lat="42.96265" lon="1.13814">
        <ele>711</ele>
        <time>2024-10-06T09:54:53Z</time>
      </trkpt>
      <trkpt lat="42.96259" lon="1.1382">
        <ele>711.4</ele>
        <time>2024-10-06T09:54:56Z</time>
      </trkpt>
      <trkpt lat="42.96257" lon="1.13821">
        <ele>711.8</ele>
        <time>2024-10-06T09:54:57Z</time>
      </trkpt>
      <trkpt lat="42.96255" lon="1.13822">
        <ele>712.2</ele>
        <time>2024-10-06T09:54:58Z</time>
      </trkpt>
      <trkpt lat="42.96253" lon="1.13823">
        <ele>712.6</ele>
        <time>2024-10-06T09:54:59Z</time>
      </trkpt>
      <trkpt lat="42.9625" lon="1.13823">
        <ele>713</ele>
        <time>2024-10-06T09:55:00Z</time>
      </trkpt>
      <trkpt lat="42.96246" lon="1.13825">
        <ele>713.4</ele>
        <time>2024-10-06T09:55:01Z</time>
      </trkpt>
      <trkpt lat="42.96242" lon="1.13826">
        <ele>714</ele>
        <time>2024-10-06T09:55:02Z</time>
      </trkpt>
      <trkpt lat="42.96239" lon="1.13827">
        <ele>714.4</ele>
        <time>2024-10-06T09:55:03Z</time>
      </trkpt>
      <trkpt lat="42.96237" lon="1.13828">
        <ele>714.8</ele>
        <time>2024-10-06T09:55:04Z</time>
      </trkpt>
      <trkpt lat="42.96235" lon="1.13829">
        <ele>715.2</ele>
        <time>2024-10-06T09:55:05Z</time>
      </trkpt>
      <trkpt lat="42.96231" lon="1.1383">
        <ele>715.6</ele>
        <time>2024-10-06T09:55:07Z</time>
      </trkpt>
      <trkpt lat="42.96229" lon="1.13831">
        <ele>716.2</ele>
        <time>2024-10-06T09:55:08Z</time>
      </trkpt>
      <trkpt lat="42.96227" lon="1.13832">
        <ele>716.6</ele>
        <time>2024-10-06T09:55:09Z</time>
      </trkpt>
      <trkpt lat="42.96225" lon="1.13833">
        <ele>717</ele>
        <time>2024-10-06T09:55:10Z</time>
      </trkpt>
      <trkpt lat="42.96224" lon="1.13834">
        <ele>717.6</ele>
        <time>2024-10-06T09:55:11Z</time>
      </trkpt>
      <trkpt lat="42.96218" lon="1.13837">
        <ele>718</ele>
        <time>2024-10-06T09:55:14Z</time>
      </trkpt>
      <trkpt lat="42.96216" lon="1.13839">
        <ele>718.4</ele>
        <time>2024-10-06T09:55:15Z</time>
      </trkpt>
      <trkpt lat="42.96213" lon="1.1384">
        <ele>718.8</ele>
        <time>2024-10-06T09:55:16Z</time>
      </trkpt>
      <trkpt lat="42.9621" lon="1.13841">
        <ele>719.6</ele>
        <time>2024-10-06T09:55:17Z</time>
      </trkpt>
      <trkpt lat="42.96206" lon="1.1384">
        <ele>719.6</ele>
        <time>2024-10-06T09:55:19Z</time>
      </trkpt>
      <trkpt lat="42.962" lon="1.13837">
        <ele>720</ele>
        <time>2024-10-06T09:55:22Z</time>
      </trkpt>
      <trkpt lat="42.96199" lon="1.13836">
        <ele>720.6</ele>
        <time>2024-10-06T09:55:23Z</time>
      </trkpt>
      <trkpt lat="42.96197" lon="1.13834">
        <ele>721</ele>
        <time>2024-10-06T09:55:24Z</time>
      </trkpt>
      <trkpt lat="42.96195" lon="1.13833">
        <ele>721.4</ele>
        <time>2024-10-06T09:55:25Z</time>
      </trkpt>
      <trkpt lat="42.96194" lon="1.13831">
        <ele>721.8</ele>
        <time>2024-10-06T09:55:26Z</time>
      </trkpt>
      <trkpt lat="42.9619" lon="1.13826">
        <ele>722.4</ele>
        <time>2024-10-06T09:55:28Z</time>
      </trkpt>
      <trkpt lat="42.96188" lon="1.13823">
        <ele>722.8</ele>
        <time>2024-10-06T09:55:29Z</time>
      </trkpt>
      <trkpt lat="42.96186" lon="1.13821">
        <ele>723.2</ele>
        <time>2024-10-06T09:55:30Z</time>
      </trkpt>
      <trkpt lat="42.96185" lon="1.13818">
        <ele>723.6</ele>
        <time>2024-10-06T09:55:31Z</time>
      </trkpt>
      <trkpt lat="42.96183" lon="1.13816">
        <ele>724</ele>
        <time>2024-10-06T09:55:32Z</time>
      </trkpt>
      <trkpt lat="42.96182" lon="1.13814">
        <ele>724.4</ele>
        <time>2024-10-06T09:55:33Z</time>
      </trkpt>
      <trkpt lat="42.9618" lon="1.13812">
        <ele>724.8</ele>
        <time>2024-10-06T09:55:34Z</time>
      </trkpt>
      <trkpt lat="42.9618" lon="1.13811">
        <ele>725.4</ele>
        <time>2024-10-06T09:55:35Z</time>
      </trkpt>
      <trkpt lat="42.96179" lon="1.13809">
        <ele>725.8</ele>
        <time>2024-10-06T09:55:36Z</time>
      </trkpt>
      <trkpt lat="42.96177" lon="1.13807">
        <ele>726.2</ele>
        <time>2024-10-06T09:55:37Z</time>
      </trkpt>
      <trkpt lat="42.96172" lon="1.13799">
        <ele>726.6</ele>
        <time>2024-10-06T09:55:41Z</time>
      </trkpt>
      <trkpt lat="42.9617" lon="1.13797">
        <ele>727.6</ele>
        <time>2024-10-06T09:55:42Z</time>
      </trkpt>
      <trkpt lat="42.96169" lon="1.13796">
        <ele>728</ele>
        <time>2024-10-06T09:55:43Z</time>
      </trkpt>
      <trkpt lat="42.96168" lon="1.13794">
        <ele>728.4</ele>
        <time>2024-10-06T09:55:44Z</time>
      </trkpt>
      <trkpt lat="42.96164" lon="1.13787">
        <ele>728.4</ele>
        <time>2024-10-06T09:55:48Z</time>
      </trkpt>
      <trkpt lat="42.96155" lon="1.13774">
        <ele>728.4</ele>
        <time>2024-10-06T09:55:53Z</time>
      </trkpt>
      <trkpt lat="42.96142" lon="1.13757">
        <ele>728.4</ele>
        <time>2024-10-06T09:55:58Z</time>
      </trkpt>
      <trkpt lat="42.9613" lon="1.13743">
        <ele>728.4</ele>
        <time>2024-10-06T09:56:03Z</time>
      </trkpt>
      <trkpt lat="42.96123" lon="1.13727">
        <ele>728.4</ele>
        <time>2024-10-06T09:56:07Z</time>
      </trkpt>
      <trkpt lat="42.96117" lon="1.13706">
        <ele>728.4</ele>
        <time>2024-10-06T09:56:11Z</time>
      </trkpt>
      <trkpt lat="42.96108" lon="1.13678">
        <ele>728.4</ele>
        <time>2024-10-06T09:56:17Z</time>
      </trkpt>
      <trkpt lat="42.96107" lon="1.13675">
        <ele>728.8</ele>
        <time>2024-10-06T09:56:18Z</time>
      </trkpt>
      <trkpt lat="42.96105" lon="1.13672">
        <ele>729.2</ele>
        <time>2024-10-06T09:56:19Z</time>
      </trkpt>
      <trkpt lat="42.96103" lon="1.13669">
        <ele>729.8</ele>
        <time>2024-10-06T09:56:20Z</time>
      </trkpt>
      <trkpt lat="42.96101" lon="1.13667">
        <ele>730.2</ele>
        <time>2024-10-06T09:56:21Z</time>
      </trkpt>
      <trkpt lat="42.96098" lon="1.13664">
        <ele>730.6</ele>
        <time>2024-10-06T09:56:22Z</time>
      </trkpt>
      <trkpt lat="42.96088" lon="1.13642">
        <ele>730.6</ele>
        <time>2024-10-06T09:56:28Z</time>
      </trkpt>
      <trkpt lat="42.96086" lon="1.13631">
        <ele>731</ele>
        <time>2024-10-06T09:56:31Z</time>
      </trkpt>
      <trkpt lat="42.96084" lon="1.13627">
        <ele>731.4</ele>
        <time>2024-10-06T09:56:32Z</time>
      </trkpt>
      <trkpt lat="42.96084" lon="1.13624">
        <ele>731.8</ele>
        <time>2024-10-06T09:56:33Z</time>
      </trkpt>
      <trkpt lat="42.96082" lon="1.13621">
        <ele>732.4</ele>
        <time>2024-10-06T09:56:34Z</time>
      </trkpt>
      <trkpt lat="42.9608" lon="1.13619">
        <ele>732.8</ele>
        <time>2024-10-06T09:56:35Z</time>
      </trkpt>
      <trkpt lat="42.9607" lon="1.13602">
        <ele>732.8</ele>
        <time>2024-10-06T09:56:40Z</time>
      </trkpt>
      <trkpt lat="42.96059" lon="1.13576">
        <ele>732.8</ele>
        <time>2024-10-06T09:56:46Z</time>
      </trkpt>
      <trkpt lat="42.96053" lon="1.13558">
        <ele>733.2</ele>
        <time>2024-10-06T09:56:51Z</time>
      </trkpt>
      <trkpt lat="42.96051" lon="1.13556">
        <ele>733.6</ele>
        <time>2024-10-06T09:56:52Z</time>
      </trkpt>
      <trkpt lat="42.9605" lon="1.13552">
        <ele>734</ele>
        <time>2024-10-06T09:56:53Z</time>
      </trkpt>
      <trkpt lat="42.96049" lon="1.13549">
        <ele>734.4</ele>
        <time>2024-10-06T09:56:54Z</time>
      </trkpt>
      <trkpt lat="42.96049" lon="1.13545">
        <ele>734.8</ele>
        <time>2024-10-06T09:56:55Z</time>
      </trkpt>
      <trkpt lat="42.96047" lon="1.13532">
        <ele>734.8</ele>
        <time>2024-10-06T09:56:58Z</time>
      </trkpt>
      <trkpt lat="42.96046" lon="1.13516">
        <ele>735.2</ele>
        <time>2024-10-06T09:57:02Z</time>
      </trkpt>
      <trkpt lat="42.96045" lon="1.13513">
        <ele>735.6</ele>
        <time>2024-10-06T09:57:03Z</time>
      </trkpt>
      <trkpt lat="42.96045" lon="1.13509">
        <ele>736</ele>
        <time>2024-10-06T09:57:04Z</time>
      </trkpt>
      <trkpt lat="42.96045" lon="1.13505">
        <ele>736.4</ele>
        <time>2024-10-06T09:57:05Z</time>
      </trkpt>
      <trkpt lat="42.96045" lon="1.135">
        <ele>736.8</ele>
        <time>2024-10-06T09:57:06Z</time>
      </trkpt>
      <trkpt lat="42.96045" lon="1.13487">
        <ele>736.8</ele>
        <time>2024-10-06T09:57:09Z</time>
      </trkpt>
      <trkpt lat="42.96041" lon="1.13472">
        <ele>737.2</ele>
        <time>2024-10-06T09:57:13Z</time>
      </trkpt>
      <trkpt lat="42.9604" lon="1.13469">
        <ele>737.6</ele>
        <time>2024-10-06T09:57:14Z</time>
      </trkpt>
      <trkpt lat="42.96038" lon="1.13465">
        <ele>738.2</ele>
        <time>2024-10-06T09:57:15Z</time>
      </trkpt>
      <trkpt lat="42.96037" lon="1.13462">
        <ele>738.6</ele>
        <time>2024-10-06T09:57:16Z</time>
      </trkpt>
      <trkpt lat="42.96036" lon="1.13458">
        <ele>739</ele>
        <time>2024-10-06T09:57:17Z</time>
      </trkpt>
      <trkpt lat="42.96034" lon="1.1345">
        <ele>739</ele>
        <time>2024-10-06T09:57:19Z</time>
      </trkpt>
      <trkpt lat="42.96033" lon="1.13419">
        <ele>739</ele>
        <time>2024-10-06T09:57:26Z</time>
      </trkpt>
      <trkpt lat="42.96035" lon="1.13394">
        <ele>739</ele>
        <time>2024-10-06T09:57:33Z</time>
      </trkpt>
      <trkpt lat="42.96038" lon="1.13375">
        <ele>739</ele>
        <time>2024-10-06T09:57:38Z</time>
      </trkpt>
      <trkpt lat="42.9604" lon="1.13367">
        <ele>739</ele>
        <time>2024-10-06T09:57:42Z</time>
      </trkpt>
      <trkpt lat="42.96042" lon="1.13367">
        <ele>739</ele>
        <time>2024-10-06T09:57:43Z</time>
      </trkpt>
      <trkpt lat="42.96044" lon="1.13377">
        <ele>739</ele>
        <time>2024-10-06T09:57:46Z</time>
      </trkpt>
      <trkpt lat="42.96045" lon="1.1338">
        <ele>739.6</ele>
        <time>2024-10-06T09:57:47Z</time>
      </trkpt>
      <trkpt lat="42.96045" lon="1.13383">
        <ele>740</ele>
        <time>2024-10-06T09:57:48Z</time>
      </trkpt>
      <trkpt lat="42.96046" lon="1.13385">
        <ele>740.4</ele>
        <time>2024-10-06T09:57:49Z</time>
      </trkpt>
      <trkpt lat="42.96048" lon="1.13386">
        <ele>740.8</ele>
        <time>2024-10-06T09:57:50Z</time>
      </trkpt>
      <trkpt lat="42.9605" lon="1.13386">
        <ele>741.2</ele>
        <time>2024-10-06T09:57:51Z</time>
      </trkpt>
      <trkpt lat="42.96052" lon="1.13385">
        <ele>741.6</ele>
        <time>2024-10-06T09:57:53Z</time>
      </trkpt>
      <trkpt lat="42.96054" lon="1.13383">
        <ele>742</ele>
        <time>2024-10-06T09:57:54Z</time>
      </trkpt>
      <trkpt lat="42.96055" lon="1.13381">
        <ele>742.4</ele>
        <time>2024-10-06T09:57:55Z</time>
      </trkpt>
      <trkpt lat="42.96056" lon="1.13379">
        <ele>743</ele>
        <time>2024-10-06T09:57:56Z</time>
      </trkpt>
      <trkpt lat="42.96057" lon="1.13377">
        <ele>743.4</ele>
        <time>2024-10-06T09:57:57Z</time>
      </trkpt>
      <trkpt lat="42.96063" lon="1.13364">
        <ele>743.8</ele>
        <time>2024-10-06T09:58:02Z</time>
      </trkpt>
      <trkpt lat="42.96064" lon="1.13362">
        <ele>744.2</ele>
        <time>2024-10-06T09:58:03Z</time>
      </trkpt>
      <trkpt lat="42.96065" lon="1.1336">
        <ele>744.6</ele>
        <time>2024-10-06T09:58:04Z</time>
      </trkpt>
      <trkpt lat="42.96066" lon="1.13358">
        <ele>745.2</ele>
        <time>2024-10-06T09:58:05Z</time>
      </trkpt>
      <trkpt lat="42.96068" lon="1.13356">
        <ele>745.6</ele>
        <time>2024-10-06T09:58:06Z</time>
      </trkpt>
      <trkpt lat="42.96073" lon="1.13349">
        <ele>745.6</ele>
        <time>2024-10-06T09:58:09Z</time>
      </trkpt>
      <trkpt lat="42.96075" lon="1.13346">
        <ele>746.4</ele>
        <time>2024-10-06T09:58:10Z</time>
      </trkpt>
      <trkpt lat="42.96077" lon="1.13344">
        <ele>746.8</ele>
        <time>2024-10-06T09:58:11Z</time>
      </trkpt>
      <trkpt lat="42.96078" lon="1.13341">
        <ele>747.2</ele>
        <time>2024-10-06T09:58:12Z</time>
      </trkpt>
      <trkpt lat="42.9608" lon="1.13338">
        <ele>747.6</ele>
        <time>2024-10-06T09:58:13Z</time>
      </trkpt>
      <trkpt lat="42.96084" lon="1.1333">
        <ele>748</ele>
        <time>2024-10-06T09:58:16Z</time>
      </trkpt>
      <trkpt lat="42.96087" lon="1.13325">
        <ele>748.8</ele>
        <time>2024-10-06T09:58:17Z</time>
      </trkpt>
      <trkpt lat="42.96089" lon="1.13323">
        <ele>749.2</ele>
        <time>2024-10-06T09:58:19Z</time>
      </trkpt>
      <trkpt lat="42.9609" lon="1.1332">
        <ele>749.6</ele>
        <time>2024-10-06T09:58:20Z</time>
      </trkpt>
      <trkpt lat="42.96097" lon="1.13309">
        <ele>749.6</ele>
        <time>2024-10-06T09:58:24Z</time>
      </trkpt>
      <trkpt lat="42.96104" lon="1.13297">
        <ele>750</ele>
        <time>2024-10-06T09:58:28Z</time>
      </trkpt>
      <trkpt lat="42.96105" lon="1.13294">
        <ele>750.4</ele>
        <time>2024-10-06T09:58:29Z</time>
      </trkpt>
      <trkpt lat="42.96107" lon="1.13291">
        <ele>751</ele>
        <time>2024-10-06T09:58:30Z</time>
      </trkpt>
      <trkpt lat="42.96109" lon="1.13289">
        <ele>751.4</ele>
        <time>2024-10-06T09:58:31Z</time>
      </trkpt>
      <trkpt lat="42.96111" lon="1.13286">
        <ele>751.8</ele>
        <time>2024-10-06T09:58:32Z</time>
      </trkpt>
      <trkpt lat="42.96117" lon="1.13273">
        <ele>752.2</ele>
        <time>2024-10-06T09:58:36Z</time>
      </trkpt>
      <trkpt lat="42.96119" lon="1.1327">
        <ele>752.6</ele>
        <time>2024-10-06T09:58:37Z</time>
      </trkpt>
      <trkpt lat="42.9612" lon="1.13267">
        <ele>753</ele>
        <time>2024-10-06T09:58:38Z</time>
      </trkpt>
      <trkpt lat="42.96122" lon="1.13263">
        <ele>753.4</ele>
        <time>2024-10-06T09:58:39Z</time>
      </trkpt>
      <trkpt lat="42.96124" lon="1.13259">
        <ele>753.8</ele>
        <time>2024-10-06T09:58:40Z</time>
      </trkpt>
      <trkpt lat="42.96139" lon="1.13228">
        <ele>753.8</ele>
        <time>2024-10-06T09:58:47Z</time>
      </trkpt>
      <trkpt lat="42.96155" lon="1.13193">
        <ele>753.8</ele>
        <time>2024-10-06T09:58:54Z</time>
      </trkpt>
      <trkpt lat="42.96159" lon="1.13184">
        <ele>753.8</ele>
        <time>2024-10-06T09:58:56Z</time>
      </trkpt>
      <trkpt lat="42.96167" lon="1.13169">
        <ele>753.8</ele>
        <time>2024-10-06T09:59:00Z</time>
      </trkpt>
      <trkpt lat="42.96174" lon="1.13152">
        <ele>754.2</ele>
        <time>2024-10-06T09:59:05Z</time>
      </trkpt>
      <trkpt lat="42.96176" lon="1.13148">
        <ele>754.6</ele>
        <time>2024-10-06T09:59:06Z</time>
      </trkpt>
      <trkpt lat="42.96177" lon="1.13145">
        <ele>755</ele>
        <time>2024-10-06T09:59:07Z</time>
      </trkpt>
      <trkpt lat="42.96179" lon="1.13141">
        <ele>755.4</ele>
        <time>2024-10-06T09:59:08Z</time>
      </trkpt>
      <trkpt lat="42.9618" lon="1.13137">
        <ele>755.8</ele>
        <time>2024-10-06T09:59:09Z</time>
      </trkpt>
      <trkpt lat="42.96183" lon="1.13121">
        <ele>755.8</ele>
        <time>2024-10-06T09:59:13Z</time>
      </trkpt>
      <trkpt lat="42.96186" lon="1.13108">
        <ele>756.2</ele>
        <time>2024-10-06T09:59:16Z</time>
      </trkpt>
      <trkpt lat="42.96186" lon="1.13104">
        <ele>756.8</ele>
        <time>2024-10-06T09:59:17Z</time>
      </trkpt>
      <trkpt lat="42.96187" lon="1.13099">
        <ele>757.2</ele>
        <time>2024-10-06T09:59:18Z</time>
      </trkpt>
      <trkpt lat="42.96187" lon="1.13095">
        <ele>757.6</ele>
        <time>2024-10-06T09:59:19Z</time>
      </trkpt>
      <trkpt lat="42.96188" lon="1.13091">
        <ele>758</ele>
        <time>2024-10-06T09:59:20Z</time>
      </trkpt>
      <trkpt lat="42.96193" lon="1.13067">
        <ele>758</ele>
        <time>2024-10-06T09:59:26Z</time>
      </trkpt>
      <trkpt lat="42.962" lon="1.13041">
        <ele>758</ele>
        <time>2024-10-06T09:59:32Z</time>
      </trkpt>
      <trkpt lat="42.96209" lon="1.1302">
        <ele>758</ele>
        <time>2024-10-06T09:59:37Z</time>
      </trkpt>
      <trkpt lat="42.96224" lon="1.12989">
        <ele>758.4</ele>
        <time>2024-10-06T09:59:44Z</time>
      </trkpt>
      <trkpt lat="42.96226" lon="1.12985">
        <ele>758.8</ele>
        <time>2024-10-06T09:59:45Z</time>
      </trkpt>
      <trkpt lat="42.96228" lon="1.12981">
        <ele>759.4</ele>
        <time>2024-10-06T09:59:46Z</time>
      </trkpt>
      <trkpt lat="42.9623" lon="1.12977">
        <ele>759.8</ele>
        <time>2024-10-06T09:59:47Z</time>
      </trkpt>
      <trkpt lat="42.96231" lon="1.12973">
        <ele>760.2</ele>
        <time>2024-10-06T09:59:48Z</time>
      </trkpt>
      <trkpt lat="42.96237" lon="1.12959">
        <ele>760.2</ele>
        <time>2024-10-06T09:59:52Z</time>
      </trkpt>
      <trkpt lat="42.96239" lon="1.1295">
        <ele>760.6</ele>
        <time>2024-10-06T09:59:54Z</time>
      </trkpt>
      <trkpt lat="42.9624" lon="1.12946">
        <ele>761</ele>
        <time>2024-10-06T09:59:55Z</time>
      </trkpt>
      <trkpt lat="42.96241" lon="1.12942">
        <ele>761.6</ele>
        <time>2024-10-06T09:59:56Z</time>
      </trkpt>
      <trkpt lat="42.96242" lon="1.12938">
        <ele>762</ele>
        <time>2024-10-06T09:59:57Z</time>
      </trkpt>
      <trkpt lat="42.96242" lon="1.12934">
        <ele>762.4</ele>
        <time>2024-10-06T09:59:58Z</time>
      </trkpt>
      <trkpt lat="42.96242" lon="1.12929">
        <ele>762.4</ele>
        <time>2024-10-06T09:59:59Z</time>
      </trkpt>
      <trkpt lat="42.9624" lon="1.12915">
        <ele>762.8</ele>
        <time>2024-10-06T10:00:02Z</time>
      </trkpt>
      <trkpt lat="42.96238" lon="1.12911">
        <ele>763.2</ele>
        <time>2024-10-06T10:00:03Z</time>
      </trkpt>
      <trkpt lat="42.96237" lon="1.12905">
        <ele>763.6</ele>
        <time>2024-10-06T10:00:04Z</time>
      </trkpt>
      <trkpt lat="42.96235" lon="1.129">
        <ele>764</ele>
        <time>2024-10-06T10:00:05Z</time>
      </trkpt>
      <trkpt lat="42.96234" lon="1.12896">
        <ele>764.4</ele>
        <time>2024-10-06T10:00:06Z</time>
      </trkpt>
      <trkpt lat="42.96227" lon="1.12875">
        <ele>764.4</ele>
        <time>2024-10-06T10:00:11Z</time>
      </trkpt>
      <trkpt lat="42.96219" lon="1.12851">
        <ele>764.4</ele>
        <time>2024-10-06T10:00:17Z</time>
      </trkpt>
      <trkpt lat="42.96205" lon="1.12819">
        <ele>764.4</ele>
        <time>2024-10-06T10:00:22Z</time>
      </trkpt>
      <trkpt lat="42.96199" lon="1.12808">
        <ele>764.4</ele>
        <time>2024-10-06T10:00:24Z</time>
      </trkpt>
      <trkpt lat="42.9619" lon="1.12792">
        <ele>764.4</ele>
        <time>2024-10-06T10:00:27Z</time>
      </trkpt>
      <trkpt lat="42.96186" lon="1.12787">
        <ele>764.4</ele>
        <time>2024-10-06T10:00:28Z</time>
      </trkpt>
      <trkpt lat="42.96176" lon="1.12768">
        <ele>764.4</ele>
        <time>2024-10-06T10:00:33Z</time>
      </trkpt>
      <trkpt lat="42.96168" lon="1.12752">
        <ele>764.4</ele>
        <time>2024-10-06T10:00:39Z</time>
      </trkpt>
      <trkpt lat="42.96155" lon="1.12734">
        <ele>764.4</ele>
        <time>2024-10-06T10:00:46Z</time>
      </trkpt>
      <trkpt lat="42.96143" lon="1.12716">
        <ele>764.4</ele>
        <time>2024-10-06T10:00:53Z</time>
      </trkpt>
      <trkpt lat="42.9613" lon="1.12696">
        <ele>764.4</ele>
        <time>2024-10-06T10:00:59Z</time>
      </trkpt>
      <trkpt lat="42.96113" lon="1.12678">
        <ele>764.4</ele>
        <time>2024-10-06T10:01:04Z</time>
      </trkpt>
      <trkpt lat="42.9611" lon="1.12675">
        <ele>764.4</ele>
        <time>2024-10-06T10:01:05Z</time>
      </trkpt>
      <trkpt lat="42.96093" lon="1.12661">
        <ele>764.4</ele>
        <time>2024-10-06T10:01:10Z</time>
      </trkpt>
      <trkpt lat="42.96082" lon="1.12653">
        <ele>764.4</ele>
        <time>2024-10-06T10:01:13Z</time>
      </trkpt>
      <trkpt lat="42.96075" lon="1.12651">
        <ele>764.4</ele>
        <time>2024-10-06T10:01:15Z</time>
      </trkpt>
      <trkpt lat="42.96064" lon="1.12643">
        <ele>764.4</ele>
        <time>2024-10-06T10:01:18Z</time>
      </trkpt>
      <trkpt lat="42.96056" lon="1.12638">
        <ele>764.4</ele>
        <time>2024-10-06T10:01:20Z</time>
      </trkpt>
      <trkpt lat="42.96039" lon="1.12623">
        <ele>764</ele>
        <time>2024-10-06T10:01:24Z</time>
      </trkpt>
      <trkpt lat="42.96033" lon="1.12619">
        <ele>763.6</ele>
        <time>2024-10-06T10:01:25Z</time>
      </trkpt>
      <trkpt lat="42.96027" lon="1.12614">
        <ele>763.2</ele>
        <time>2024-10-06T10:01:26Z</time>
      </trkpt>
      <trkpt lat="42.96021" lon="1.12611">
        <ele>762.8</ele>
        <time>2024-10-06T10:01:27Z</time>
      </trkpt>
      <trkpt lat="42.96016" lon="1.12608">
        <ele>762.4</ele>
        <time>2024-10-06T10:01:28Z</time>
      </trkpt>
      <trkpt lat="42.96005" lon="1.12603">
        <ele>762.4</ele>
        <time>2024-10-06T10:01:30Z</time>
      </trkpt>
      <trkpt lat="42.95966" lon="1.12589">
        <ele>762.4</ele>
        <time>2024-10-06T10:01:37Z</time>
      </trkpt>
      <trkpt lat="42.9596" lon="1.12587">
        <ele>762</ele>
        <time>2024-10-06T10:01:38Z</time>
      </trkpt>
      <trkpt lat="42.95954" lon="1.12584">
        <ele>761.6</ele>
        <time>2024-10-06T10:01:39Z</time>
      </trkpt>
      <trkpt lat="42.95949" lon="1.12581">
        <ele>761.2</ele>
        <time>2024-10-06T10:01:40Z</time>
      </trkpt>
      <trkpt lat="42.95944" lon="1.12578">
        <ele>760.8</ele>
        <time>2024-10-06T10:01:41Z</time>
      </trkpt>
      <trkpt lat="42.95939" lon="1.12574">
        <ele>760.4</ele>
        <time>2024-10-06T10:01:42Z</time>
      </trkpt>
      <trkpt lat="42.9593" lon="1.12569">
        <ele>760.4</ele>
        <time>2024-10-06T10:01:44Z</time>
      </trkpt>
      <trkpt lat="42.9592" lon="1.12573">
        <ele>760.4</ele>
        <time>2024-10-06T10:01:46Z</time>
      </trkpt>
      <trkpt lat="42.95908" lon="1.12588">
        <ele>759.8</ele>
        <time>2024-10-06T10:01:49Z</time>
      </trkpt>
      <trkpt lat="42.95903" lon="1.12589">
        <ele>759.4</ele>
        <time>2024-10-06T10:01:50Z</time>
      </trkpt>
      <trkpt lat="42.95899" lon="1.12586">
        <ele>758.8</ele>
        <time>2024-10-06T10:01:51Z</time>
      </trkpt>
      <trkpt lat="42.95896" lon="1.12578">
        <ele>757.8</ele>
        <time>2024-10-06T10:01:52Z</time>
      </trkpt>
      <trkpt lat="42.95894" lon="1.1257">
        <ele>757.2</ele>
        <time>2024-10-06T10:01:53Z</time>
      </trkpt>
      <trkpt lat="42.95892" lon="1.12562">
        <ele>756.6</ele>
        <time>2024-10-06T10:01:54Z</time>
      </trkpt>
      <trkpt lat="42.95889" lon="1.12553">
        <ele>756</ele>
        <time>2024-10-06T10:01:55Z</time>
      </trkpt>
      <trkpt lat="42.95886" lon="1.12546">
        <ele>755.6</ele>
        <time>2024-10-06T10:01:56Z</time>
      </trkpt>
      <trkpt lat="42.95884" lon="1.12537">
        <ele>755</ele>
        <time>2024-10-06T10:01:57Z</time>
      </trkpt>
      <trkpt lat="42.95881" lon="1.12529">
        <ele>754.6</ele>
        <time>2024-10-06T10:01:58Z</time>
      </trkpt>
      <trkpt lat="42.95879" lon="1.1252">
        <ele>754</ele>
        <time>2024-10-06T10:01:59Z</time>
      </trkpt>
      <trkpt lat="42.95876" lon="1.12511">
        <ele>753.4</ele>
        <time>2024-10-06T10:02:00Z</time>
      </trkpt>
      <trkpt lat="42.95871" lon="1.12503">
        <ele>752.8</ele>
        <time>2024-10-06T10:02:01Z</time>
      </trkpt>
      <trkpt lat="42.95866" lon="1.12495">
        <ele>752.4</ele>
        <time>2024-10-06T10:02:02Z</time>
      </trkpt>
      <trkpt lat="42.9586" lon="1.1249">
        <ele>751.8</ele>
        <time>2024-10-06T10:02:03Z</time>
      </trkpt>
      <trkpt lat="42.95854" lon="1.12485">
        <ele>751.2</ele>
        <time>2024-10-06T10:02:04Z</time>
      </trkpt>
      <trkpt lat="42.95847" lon="1.12484">
        <ele>750.6</ele>
        <time>2024-10-06T10:02:05Z</time>
      </trkpt>
      <trkpt lat="42.95841" lon="1.12486">
        <ele>750</ele>
        <time>2024-10-06T10:02:06Z</time>
      </trkpt>
      <trkpt lat="42.95835" lon="1.12491">
        <ele>749.4</ele>
        <time>2024-10-06T10:02:07Z</time>
      </trkpt>
      <trkpt lat="42.9583" lon="1.12495">
        <ele>748.8</ele>
        <time>2024-10-06T10:02:08Z</time>
      </trkpt>
      <trkpt lat="42.95826" lon="1.12497">
        <ele>748</ele>
        <time>2024-10-06T10:02:09Z</time>
      </trkpt>
      <trkpt lat="42.95822" lon="1.12497">
        <ele>747.4</ele>
        <time>2024-10-06T10:02:10Z</time>
      </trkpt>
      <trkpt lat="42.95819" lon="1.12496">
        <ele>746.8</ele>
        <time>2024-10-06T10:02:11Z</time>
      </trkpt>
      <trkpt lat="42.95817" lon="1.12491">
        <ele>746.2</ele>
        <time>2024-10-06T10:02:12Z</time>
      </trkpt>
      <trkpt lat="42.95815" lon="1.12471">
        <ele>745.8</ele>
        <time>2024-10-06T10:02:15Z</time>
      </trkpt>
      <trkpt lat="42.95815" lon="1.12461">
        <ele>745.2</ele>
        <time>2024-10-06T10:02:16Z</time>
      </trkpt>
      <trkpt lat="42.95816" lon="1.12451">
        <ele>744.2</ele>
        <time>2024-10-06T10:02:17Z</time>
      </trkpt>
      <trkpt lat="42.95817" lon="1.1244">
        <ele>743.6</ele>
        <time>2024-10-06T10:02:18Z</time>
      </trkpt>
      <trkpt lat="42.95818" lon="1.12428">
        <ele>742.8</ele>
        <time>2024-10-06T10:02:19Z</time>
      </trkpt>
      <trkpt lat="42.9582" lon="1.12415">
        <ele>742</ele>
        <time>2024-10-06T10:02:20Z</time>
      </trkpt>
      <trkpt lat="42.95823" lon="1.12402">
        <ele>741.2</ele>
        <time>2024-10-06T10:02:21Z</time>
      </trkpt>
      <trkpt lat="42.95826" lon="1.12388">
        <ele>740.2</ele>
        <time>2024-10-06T10:02:22Z</time>
      </trkpt>
      <trkpt lat="42.95829" lon="1.12374">
        <ele>739.2</ele>
        <time>2024-10-06T10:02:23Z</time>
      </trkpt>
      <trkpt lat="42.95832" lon="1.12359">
        <ele>738</ele>
        <time>2024-10-06T10:02:24Z</time>
      </trkpt>
      <trkpt lat="42.95834" lon="1.12345">
        <ele>736.8</ele>
        <time>2024-10-06T10:02:25Z</time>
      </trkpt>
      <trkpt lat="42.95835" lon="1.12331">
        <ele>735.4</ele>
        <time>2024-10-06T10:02:26Z</time>
      </trkpt>
      <trkpt lat="42.95837" lon="1.12317">
        <ele>734.2</ele>
        <time>2024-10-06T10:02:27Z</time>
      </trkpt>
      <trkpt lat="42.9584" lon="1.12302">
        <ele>732.8</ele>
        <time>2024-10-06T10:02:28Z</time>
      </trkpt>
      <trkpt lat="42.95844" lon="1.12288">
        <ele>731.4</ele>
        <time>2024-10-06T10:02:29Z</time>
      </trkpt>
      <trkpt lat="42.9585" lon="1.12273">
        <ele>729.8</ele>
        <time>2024-10-06T10:02:30Z</time>
      </trkpt>
      <trkpt lat="42.95856" lon="1.12259">
        <ele>728.4</ele>
        <time>2024-10-06T10:02:31Z</time>
      </trkpt>
      <trkpt lat="42.95863" lon="1.12244">
        <ele>727</ele>
        <time>2024-10-06T10:02:32Z</time>
      </trkpt>
      <trkpt lat="42.9587" lon="1.12229">
        <ele>725.6</ele>
        <time>2024-10-06T10:02:33Z</time>
      </trkpt>
      <trkpt lat="42.95878" lon="1.12216">
        <ele>724.2</ele>
        <time>2024-10-06T10:02:34Z</time>
      </trkpt>
      <trkpt lat="42.95887" lon="1.12204">
        <ele>722.8</ele>
        <time>2024-10-06T10:02:35Z</time>
      </trkpt>
      <trkpt lat="42.95895" lon="1.12191">
        <ele>721.6</ele>
        <time>2024-10-06T10:02:36Z</time>
      </trkpt>
      <trkpt lat="42.95902" lon="1.12177">
        <ele>720.6</ele>
        <time>2024-10-06T10:02:37Z</time>
      </trkpt>
      <trkpt lat="42.95908" lon="1.12163">
        <ele>719.6</ele>
        <time>2024-10-06T10:02:38Z</time>
      </trkpt>
      <trkpt lat="42.95914" lon="1.12149">
        <ele>718.6</ele>
        <time>2024-10-06T10:02:39Z</time>
      </trkpt>
      <trkpt lat="42.95921" lon="1.12133">
        <ele>717.6</ele>
        <time>2024-10-06T10:02:40Z</time>
      </trkpt>
      <trkpt lat="42.95927" lon="1.12118">
        <ele>717</ele>
        <time>2024-10-06T10:02:41Z</time>
      </trkpt>
      <trkpt lat="42.95933" lon="1.12103">
        <ele>715.2</ele>
        <time>2024-10-06T10:02:42Z</time>
      </trkpt>
      <trkpt lat="42.95938" lon="1.12089">
        <ele>714.2</ele>
        <time>2024-10-06T10:02:43Z</time>
      </trkpt>
      <trkpt lat="42.95943" lon="1.12076">
        <ele>713.2</ele>
        <time>2024-10-06T10:02:44Z</time>
      </trkpt>
      <trkpt lat="42.95948" lon="1.12062">
        <ele>712.2</ele>
        <time>2024-10-06T10:02:45Z</time>
      </trkpt>
      <trkpt lat="42.95955" lon="1.1205">
        <ele>710.8</ele>
        <time>2024-10-06T10:02:46Z</time>
      </trkpt>
      <trkpt lat="42.95963" lon="1.1204">
        <ele>709.6</ele>
        <time>2024-10-06T10:02:47Z</time>
      </trkpt>
      <trkpt lat="42.9597" lon="1.12029">
        <ele>708.2</ele>
        <time>2024-10-06T10:02:48Z</time>
      </trkpt>
      <trkpt lat="42.95976" lon="1.12018">
        <ele>707</ele>
        <time>2024-10-06T10:02:49Z</time>
      </trkpt>
      <trkpt lat="42.95983" lon="1.12007">
        <ele>705.8</ele>
        <time>2024-10-06T10:02:50Z</time>
      </trkpt>
      <trkpt lat="42.9599" lon="1.11996">
        <ele>705.2</ele>
        <time>2024-10-06T10:02:51Z</time>
      </trkpt>
      <trkpt lat="42.95997" lon="1.11986">
        <ele>704.8</ele>
        <time>2024-10-06T10:02:52Z</time>
      </trkpt>
      <trkpt lat="42.96004" lon="1.11976">
        <ele>704.2</ele>
        <time>2024-10-06T10:02:53Z</time>
      </trkpt>
      <trkpt lat="42.9601" lon="1.11966">
        <ele>703.8</ele>
        <time>2024-10-06T10:02:54Z</time>
      </trkpt>
      <trkpt lat="42.96015" lon="1.11955">
        <ele>703.2</ele>
        <time>2024-10-06T10:02:55Z</time>
      </trkpt>
      <trkpt lat="42.96024" lon="1.11931">
        <ele>703.2</ele>
        <time>2024-10-06T10:02:57Z</time>
      </trkpt>
      <trkpt lat="42.96032" lon="1.11904">
        <ele>702.6</ele>
        <time>2024-10-06T10:02:59Z</time>
      </trkpt>
      <trkpt lat="42.96037" lon="1.11892">
        <ele>702.2</ele>
        <time>2024-10-06T10:03:00Z</time>
      </trkpt>
      <trkpt lat="42.96042" lon="1.11878">
        <ele>701.4</ele>
        <time>2024-10-06T10:03:01Z</time>
      </trkpt>
      <trkpt lat="42.96046" lon="1.11864">
        <ele>700.6</ele>
        <time>2024-10-06T10:03:02Z</time>
      </trkpt>
      <trkpt lat="42.9605" lon="1.1185">
        <ele>700</ele>
        <time>2024-10-06T10:03:03Z</time>
      </trkpt>
      <trkpt lat="42.96056" lon="1.1184">
        <ele>699.2</ele>
        <time>2024-10-06T10:03:04Z</time>
      </trkpt>
      <trkpt lat="42.96062" lon="1.11832">
        <ele>698.6</ele>
        <time>2024-10-06T10:03:05Z</time>
      </trkpt>
      <trkpt lat="42.96068" lon="1.11824">
        <ele>697.8</ele>
        <time>2024-10-06T10:03:06Z</time>
      </trkpt>
      <trkpt lat="42.96073" lon="1.11817">
        <ele>696.4</ele>
        <time>2024-10-06T10:03:07Z</time>
      </trkpt>
      <trkpt lat="42.96081" lon="1.11804">
        <ele>696.8</ele>
        <time>2024-10-06T10:03:09Z</time>
      </trkpt>
      <trkpt lat="42.96086" lon="1.11798">
        <ele>697.4</ele>
        <time>2024-10-06T10:03:10Z</time>
      </trkpt>
      <trkpt lat="42.9609" lon="1.11792">
        <ele>697.8</ele>
        <time>2024-10-06T10:03:11Z</time>
      </trkpt>
      <trkpt lat="42.96093" lon="1.11785">
        <ele>698.2</ele>
        <time>2024-10-06T10:03:12Z</time>
      </trkpt>
      <trkpt lat="42.96095" lon="1.11778">
        <ele>698.6</ele>
        <time>2024-10-06T10:03:13Z</time>
      </trkpt>
      <trkpt lat="42.96106" lon="1.11744">
        <ele>698.6</ele>
        <time>2024-10-06T10:03:17Z</time>
      </trkpt>
      <trkpt lat="42.96123" lon="1.11725">
        <ele>698.6</ele>
        <time>2024-10-06T10:03:20Z</time>
      </trkpt>
      <trkpt lat="42.96135" lon="1.11715">
        <ele>698.6</ele>
        <time>2024-10-06T10:03:22Z</time>
      </trkpt>
      <trkpt lat="42.96143" lon="1.11711">
        <ele>698.2</ele>
        <time>2024-10-06T10:03:23Z</time>
      </trkpt>
      <trkpt lat="42.9615" lon="1.1171">
        <ele>697.8</ele>
        <time>2024-10-06T10:03:24Z</time>
      </trkpt>
      <trkpt lat="42.96159" lon="1.11709">
        <ele>697.4</ele>
        <time>2024-10-06T10:03:25Z</time>
      </trkpt>
      <trkpt lat="42.96167" lon="1.11711">
        <ele>696.8</ele>
        <time>2024-10-06T10:03:26Z</time>
      </trkpt>
      <trkpt lat="42.96176" lon="1.11714">
        <ele>696.2</ele>
        <time>2024-10-06T10:03:27Z</time>
      </trkpt>
      <trkpt lat="42.96183" lon="1.1172">
        <ele>695.6</ele>
        <time>2024-10-06T10:03:28Z</time>
      </trkpt>
      <trkpt lat="42.9619" lon="1.11727">
        <ele>695</ele>
        <time>2024-10-06T10:03:29Z</time>
      </trkpt>
      <trkpt lat="42.96197" lon="1.11735">
        <ele>694.4</ele>
        <time>2024-10-06T10:03:30Z</time>
      </trkpt>
      <trkpt lat="42.96203" lon="1.11744">
        <ele>693.8</ele>
        <time>2024-10-06T10:03:31Z</time>
      </trkpt>
      <trkpt lat="42.96208" lon="1.11753">
        <ele>692.8</ele>
        <time>2024-10-06T10:03:32Z</time>
      </trkpt>
      <trkpt lat="42.96211" lon="1.1176">
        <ele>692.2</ele>
        <time>2024-10-06T10:03:33Z</time>
      </trkpt>
      <trkpt lat="42.96214" lon="1.11769">
        <ele>691.6</ele>
        <time>2024-10-06T10:03:34Z</time>
      </trkpt>
      <trkpt lat="42.96216" lon="1.11785">
        <ele>691.6</ele>
        <time>2024-10-06T10:03:36Z</time>
      </trkpt>
      <trkpt lat="42.96211" lon="1.11803">
        <ele>691.6</ele>
        <time>2024-10-06T10:03:39Z</time>
      </trkpt>
      <trkpt lat="42.9621" lon="1.1181">
        <ele>691.6</ele>
        <time>2024-10-06T10:03:40Z</time>
      </trkpt>
      <trkpt lat="42.96209" lon="1.1183">
        <ele>691.6</ele>
        <time>2024-10-06T10:03:43Z</time>
      </trkpt>
      <trkpt lat="42.96209" lon="1.11862">
        <ele>691.6</ele>
        <time>2024-10-06T10:03:48Z</time>
      </trkpt>
      <trkpt lat="42.96212" lon="1.11878">
        <ele>691.6</ele>
        <time>2024-10-06T10:03:51Z</time>
      </trkpt>
      <trkpt lat="42.96215" lon="1.11888">
        <ele>692</ele>
        <time>2024-10-06T10:03:53Z</time>
      </trkpt>
      <trkpt lat="42.96216" lon="1.11892">
        <ele>692.4</ele>
        <time>2024-10-06T10:03:54Z</time>
      </trkpt>
      <trkpt lat="42.96217" lon="1.11895">
        <ele>693</ele>
        <time>2024-10-06T10:03:55Z</time>
      </trkpt>
      <trkpt lat="42.96218" lon="1.11899">
        <ele>693.8</ele>
        <time>2024-10-06T10:03:56Z</time>
      </trkpt>
      <trkpt lat="42.9622" lon="1.11907">
        <ele>693.8</ele>
        <time>2024-10-06T10:03:58Z</time>
      </trkpt>
      <trkpt lat="42.96229" lon="1.11932">
        <ele>693.8</ele>
        <time>2024-10-06T10:04:03Z</time>
      </trkpt>
      <trkpt lat="42.96236" lon="1.1196">
        <ele>693.8</ele>
        <time>2024-10-06T10:04:07Z</time>
      </trkpt>
      <trkpt lat="42.96238" lon="1.11968">
        <ele>693.8</ele>
        <time>2024-10-06T10:04:08Z</time>
      </trkpt>
      <trkpt lat="42.96245" lon="1.11989">
        <ele>693.4</ele>
        <time>2024-10-06T10:04:11Z</time>
      </trkpt>
      <trkpt lat="42.96248" lon="1.11997">
        <ele>692.8</ele>
        <time>2024-10-06T10:04:12Z</time>
      </trkpt>
      <trkpt lat="42.96251" lon="1.12005">
        <ele>692.4</ele>
        <time>2024-10-06T10:04:13Z</time>
      </trkpt>
      <trkpt lat="42.96254" lon="1.12013">
        <ele>691.6</ele>
        <time>2024-10-06T10:04:14Z</time>
      </trkpt>
      <trkpt lat="42.96257" lon="1.12021">
        <ele>690.8</ele>
        <time>2024-10-06T10:04:15Z</time>
      </trkpt>
      <trkpt lat="42.96262" lon="1.12029">
        <ele>690.2</ele>
        <time>2024-10-06T10:04:16Z</time>
      </trkpt>
      <trkpt lat="42.96265" lon="1.12037">
        <ele>689.4</ele>
        <time>2024-10-06T10:04:17Z</time>
      </trkpt>
      <trkpt lat="42.96268" lon="1.12046">
        <ele>688.8</ele>
        <time>2024-10-06T10:04:18Z</time>
      </trkpt>
      <trkpt lat="42.96272" lon="1.12055">
        <ele>688</ele>
        <time>2024-10-06T10:04:19Z</time>
      </trkpt>
      <trkpt lat="42.96275" lon="1.12064">
        <ele>687.2</ele>
        <time>2024-10-06T10:04:20Z</time>
      </trkpt>
      <trkpt lat="42.96277" lon="1.12072">
        <ele>686.6</ele>
        <time>2024-10-06T10:04:21Z</time>
      </trkpt>
      <trkpt lat="42.96278" lon="1.1208">
        <ele>686</ele>
        <time>2024-10-06T10:04:22Z</time>
      </trkpt>
      <trkpt lat="42.9628" lon="1.12087">
        <ele>685.6</ele>
        <time>2024-10-06T10:04:23Z</time>
      </trkpt>
      <trkpt lat="42.96282" lon="1.12093">
        <ele>685.2</ele>
        <time>2024-10-06T10:04:24Z</time>
      </trkpt>
      <trkpt lat="42.96283" lon="1.121">
        <ele>684.6</ele>
        <time>2024-10-06T10:04:25Z</time>
      </trkpt>
      <trkpt lat="42.96284" lon="1.12108">
        <ele>684</ele>
        <time>2024-10-06T10:04:26Z</time>
      </trkpt>
      <trkpt lat="42.96284" lon="1.12115">
        <ele>683.4</ele>
        <time>2024-10-06T10:04:27Z</time>
      </trkpt>
      <trkpt lat="42.96285" lon="1.1212">
        <ele>682.8</ele>
        <time>2024-10-06T10:04:28Z</time>
      </trkpt>
      <trkpt lat="42.96287" lon="1.1212">
        <ele>682.2</ele>
        <time>2024-10-06T10:04:29Z</time>
      </trkpt>
      <trkpt lat="42.96292" lon="1.12119">
        <ele>681.6</ele>
        <time>2024-10-06T10:04:30Z</time>
      </trkpt>
      <trkpt lat="42.96297" lon="1.1212">
        <ele>680.8</ele>
        <time>2024-10-06T10:04:31Z</time>
      </trkpt>
      <trkpt lat="42.96303" lon="1.12118">
        <ele>680</ele>
        <time>2024-10-06T10:04:32Z</time>
      </trkpt>
      <trkpt lat="42.9631" lon="1.12117">
        <ele>679</ele>
        <time>2024-10-06T10:04:33Z</time>
      </trkpt>
      <trkpt lat="42.96316" lon="1.12116">
        <ele>678.2</ele>
        <time>2024-10-06T10:04:34Z</time>
      </trkpt>
      <trkpt lat="42.96322" lon="1.12117">
        <ele>677.2</ele>
        <time>2024-10-06T10:04:35Z</time>
      </trkpt>
      <trkpt lat="42.96326" lon="1.12118">
        <ele>676.4</ele>
        <time>2024-10-06T10:04:36Z</time>
      </trkpt>
      <trkpt lat="42.9633" lon="1.12119">
        <ele>675.4</ele>
        <time>2024-10-06T10:04:37Z</time>
      </trkpt>
      <trkpt lat="42.96335" lon="1.12122">
        <ele>674.6</ele>
        <time>2024-10-06T10:04:38Z</time>
      </trkpt>
      <trkpt lat="42.96339" lon="1.12123">
        <ele>673.8</ele>
        <time>2024-10-06T10:04:39Z</time>
      </trkpt>
      <trkpt lat="42.96341" lon="1.12124">
        <ele>673.2</ele>
        <time>2024-10-06T10:04:40Z</time>
      </trkpt>
      <trkpt lat="42.96343" lon="1.12126">
        <ele>672.4</ele>
        <time>2024-10-06T10:04:41Z</time>
      </trkpt>
      <trkpt lat="42.96345" lon="1.12128">
        <ele>671.6</ele>
        <time>2024-10-06T10:04:42Z</time>
      </trkpt>
      <trkpt lat="42.96347" lon="1.12129">
        <ele>671</ele>
        <time>2024-10-06T10:04:43Z</time>
      </trkpt>
      <trkpt lat="42.96348" lon="1.12131">
        <ele>670.2</ele>
        <time>2024-10-06T10:04:44Z</time>
      </trkpt>
      <trkpt lat="42.96349" lon="1.12133">
        <ele>669.4</ele>
        <time>2024-10-06T10:04:45Z</time>
      </trkpt>
      <trkpt lat="42.9635" lon="1.12135">
        <ele>668.2</ele>
        <time>2024-10-06T10:04:46Z</time>
      </trkpt>
      <trkpt lat="42.96351" lon="1.12138">
        <ele>667.8</ele>
        <time>2024-10-06T10:04:47Z</time>
      </trkpt>
      <trkpt lat="42.96353" lon="1.1214">
        <ele>667.2</ele>
        <time>2024-10-06T10:04:48Z</time>
      </trkpt>
      <trkpt lat="42.96354" lon="1.12144">
        <ele>666.6</ele>
        <time>2024-10-06T10:04:49Z</time>
      </trkpt>
      <trkpt lat="42.96356" lon="1.12146">
        <ele>666</ele>
        <time>2024-10-06T10:04:50Z</time>
      </trkpt>
      <trkpt lat="42.96357" lon="1.12149">
        <ele>665.4</ele>
        <time>2024-10-06T10:04:51Z</time>
      </trkpt>
      <trkpt lat="42.96357" lon="1.12152">
        <ele>664.8</ele>
        <time>2024-10-06T10:04:52Z</time>
      </trkpt>
      <trkpt lat="42.96358" lon="1.12155">
        <ele>664.2</ele>
        <time>2024-10-06T10:04:53Z</time>
      </trkpt>
      <trkpt lat="42.96359" lon="1.12158">
        <ele>663.8</ele>
        <time>2024-10-06T10:04:54Z</time>
      </trkpt>
      <trkpt lat="42.96359" lon="1.12162">
        <ele>663.2</ele>
        <time>2024-10-06T10:04:55Z</time>
      </trkpt>
      <trkpt lat="42.96359" lon="1.12165">
        <ele>662.6</ele>
        <time>2024-10-06T10:04:56Z</time>
      </trkpt>
      <trkpt lat="42.9636" lon="1.12169">
        <ele>662</ele>
        <time>2024-10-06T10:04:57Z</time>
      </trkpt>
      <trkpt lat="42.96359" lon="1.12173">
        <ele>661.4</ele>
        <time>2024-10-06T10:04:58Z</time>
      </trkpt>
      <trkpt lat="42.96359" lon="1.12179">
        <ele>660.8</ele>
        <time>2024-10-06T10:04:59Z</time>
      </trkpt>
      <trkpt lat="42.96359" lon="1.12184">
        <ele>660.2</ele>
        <time>2024-10-06T10:05:00Z</time>
      </trkpt>
      <trkpt lat="42.96359" lon="1.12191">
        <ele>659.8</ele>
        <time>2024-10-06T10:05:01Z</time>
      </trkpt>
      <trkpt lat="42.96359" lon="1.12198">
        <ele>659.2</ele>
        <time>2024-10-06T10:05:02Z</time>
      </trkpt>
      <trkpt lat="42.96358" lon="1.12206">
        <ele>658.8</ele>
        <time>2024-10-06T10:05:03Z</time>
      </trkpt>
      <trkpt lat="42.96358" lon="1.12214">
        <ele>658.2</ele>
        <time>2024-10-06T10:05:04Z</time>
      </trkpt>
      <trkpt lat="42.96357" lon="1.12221">
        <ele>657.6</ele>
        <time>2024-10-06T10:05:05Z</time>
      </trkpt>
      <trkpt lat="42.96357" lon="1.1223">
        <ele>657.2</ele>
        <time>2024-10-06T10:05:06Z</time>
      </trkpt>
      <trkpt lat="42.96356" lon="1.12239">
        <ele>656.6</ele>
        <time>2024-10-06T10:05:07Z</time>
      </trkpt>
      <trkpt lat="42.96355" lon="1.12247">
        <ele>656</ele>
        <time>2024-10-06T10:05:08Z</time>
      </trkpt>
      <trkpt lat="42.96353" lon="1.12255">
        <ele>655.2</ele>
        <time>2024-10-06T10:05:09Z</time>
      </trkpt>
      <trkpt lat="42.96351" lon="1.12263">
        <ele>654.6</ele>
        <time>2024-10-06T10:05:10Z</time>
      </trkpt>
      <trkpt lat="42.9635" lon="1.12271">
        <ele>653</ele>
        <time>2024-10-06T10:05:11Z</time>
      </trkpt>
      <trkpt lat="42.96348" lon="1.12279">
        <ele>652.2</ele>
        <time>2024-10-06T10:05:12Z</time>
      </trkpt>
      <trkpt lat="42.96347" lon="1.12287">
        <ele>651.2</ele>
        <time>2024-10-06T10:05:13Z</time>
      </trkpt>
      <trkpt lat="42.96344" lon="1.12294">
        <ele>650.2</ele>
        <time>2024-10-06T10:05:14Z</time>
      </trkpt>
      <trkpt lat="42.9634" lon="1.123">
        <ele>649.4</ele>
        <time>2024-10-06T10:05:15Z</time>
      </trkpt>
      <trkpt lat="42.96338" lon="1.12305">
        <ele>648.6</ele>
        <time>2024-10-06T10:05:16Z</time>
      </trkpt>
      <trkpt lat="42.96336" lon="1.12311">
        <ele>647.6</ele>
        <time>2024-10-06T10:05:17Z</time>
      </trkpt>
      <trkpt lat="42.96335" lon="1.12316">
        <ele>646.8</ele>
        <time>2024-10-06T10:05:18Z</time>
      </trkpt>
      <trkpt lat="42.96334" lon="1.1232">
        <ele>646.2</ele>
        <time>2024-10-06T10:05:19Z</time>
      </trkpt>
      <trkpt lat="42.96334" lon="1.12325">
        <ele>645.6</ele>
        <time>2024-10-06T10:05:20Z</time>
      </trkpt>
      <trkpt lat="42.96335" lon="1.12327">
        <ele>644.8</ele>
        <time>2024-10-06T10:05:21Z</time>
      </trkpt>
      <trkpt lat="42.96336" lon="1.12329">
        <ele>644.2</ele>
        <time>2024-10-06T10:05:22Z</time>
      </trkpt>
      <trkpt lat="42.96338" lon="1.12331">
        <ele>643.6</ele>
        <time>2024-10-06T10:05:23Z</time>
      </trkpt>
      <trkpt lat="42.9634" lon="1.12332">
        <ele>643.2</ele>
        <time>2024-10-06T10:05:24Z</time>
      </trkpt>
      <trkpt lat="42.96341" lon="1.12334">
        <ele>642.6</ele>
        <time>2024-10-06T10:05:25Z</time>
      </trkpt>
      <trkpt lat="42.96342" lon="1.12337">
        <ele>642.2</ele>
        <time>2024-10-06T10:05:26Z</time>
      </trkpt>
      <trkpt lat="42.96343" lon="1.12338">
        <ele>641.8</ele>
        <time>2024-10-06T10:05:27Z</time>
      </trkpt>
      <trkpt lat="42.96344" lon="1.12341">
        <ele>641.2</ele>
        <time>2024-10-06T10:05:28Z</time>
      </trkpt>
      <trkpt lat="42.96346" lon="1.12341">
        <ele>641.2</ele>
        <time>2024-10-06T10:05:29Z</time>
      </trkpt>
      <trkpt lat="42.9635" lon="1.12341">
        <ele>641.2</ele>
        <time>2024-10-06T10:05:31Z</time>
      </trkpt>
      <trkpt lat="42.96352" lon="1.12342">
        <ele>640.8</ele>
        <time>2024-10-06T10:05:32Z</time>
      </trkpt>
      <trkpt lat="42.96356" lon="1.12346">
        <ele>640.4</ele>
        <time>2024-10-06T10:05:33Z</time>
      </trkpt>
      <trkpt lat="42.9636" lon="1.12348">
        <ele>640</ele>
        <time>2024-10-06T10:05:34Z</time>
      </trkpt>
      <trkpt lat="42.96365" lon="1.12349">
        <ele>639.2</ele>
        <time>2024-10-06T10:05:35Z</time>
      </trkpt>
      <trkpt lat="42.96369" lon="1.12352">
        <ele>638.8</ele>
        <time>2024-10-06T10:05:36Z</time>
      </trkpt>
      <trkpt lat="42.96374" lon="1.12353">
        <ele>638.4</ele>
        <time>2024-10-06T10:05:37Z</time>
      </trkpt>
      <trkpt lat="42.96378" lon="1.12354">
        <ele>637.8</ele>
        <time>2024-10-06T10:05:38Z</time>
      </trkpt>
      <trkpt lat="42.96382" lon="1.12355">
        <ele>637.4</ele>
        <time>2024-10-06T10:05:39Z</time>
      </trkpt>
      <trkpt lat="42.96386" lon="1.12357">
        <ele>637</ele>
        <time>2024-10-06T10:05:40Z</time>
      </trkpt>
      <trkpt lat="42.96391" lon="1.12358">
        <ele>636.4</ele>
        <time>2024-10-06T10:05:41Z</time>
      </trkpt>
      <trkpt lat="42.96396" lon="1.1236">
        <ele>636</ele>
        <time>2024-10-06T10:05:42Z</time>
      </trkpt>
      <trkpt lat="42.96401" lon="1.12362">
        <ele>635.4</ele>
        <time>2024-10-06T10:05:43Z</time>
      </trkpt>
      <trkpt lat="42.96406" lon="1.12364">
        <ele>634.6</ele>
        <time>2024-10-06T10:05:44Z</time>
      </trkpt>
      <trkpt lat="42.9641" lon="1.12365">
        <ele>634</ele>
        <time>2024-10-06T10:05:45Z</time>
      </trkpt>
      <trkpt lat="42.96415" lon="1.12366">
        <ele>633.2</ele>
        <time>2024-10-06T10:05:46Z</time>
      </trkpt>
      <trkpt lat="42.9642" lon="1.12367">
        <ele>632.4</ele>
        <time>2024-10-06T10:05:47Z</time>
      </trkpt>
      <trkpt lat="42.96425" lon="1.12368">
        <ele>631.6</ele>
        <time>2024-10-06T10:05:48Z</time>
      </trkpt>
      <trkpt lat="42.9643" lon="1.1237">
        <ele>630.6</ele>
        <time>2024-10-06T10:05:49Z</time>
      </trkpt>
      <trkpt lat="42.96435" lon="1.12372">
        <ele>629.8</ele>
        <time>2024-10-06T10:05:50Z</time>
      </trkpt>
      <trkpt lat="42.96439" lon="1.12373">
        <ele>628.8</ele>
        <time>2024-10-06T10:05:51Z</time>
      </trkpt>
      <trkpt lat="42.96445" lon="1.12374">
        <ele>628</ele>
        <time>2024-10-06T10:05:52Z</time>
      </trkpt>
      <trkpt lat="42.96449" lon="1.12375">
        <ele>627</ele>
        <time>2024-10-06T10:05:53Z</time>
      </trkpt>
      <trkpt lat="42.96453" lon="1.12375">
        <ele>626</ele>
        <time>2024-10-06T10:05:54Z</time>
      </trkpt>
      <trkpt lat="42.96458" lon="1.12375">
        <ele>625.2</ele>
        <time>2024-10-06T10:05:55Z</time>
      </trkpt>
      <trkpt lat="42.96463" lon="1.12375">
        <ele>624.2</ele>
        <time>2024-10-06T10:05:56Z</time>
      </trkpt>
      <trkpt lat="42.96468" lon="1.12375">
        <ele>623.2</ele>
        <time>2024-10-06T10:05:57Z</time>
      </trkpt>
      <trkpt lat="42.96473" lon="1.12376">
        <ele>622.2</ele>
        <time>2024-10-06T10:05:58Z</time>
      </trkpt>
      <trkpt lat="42.96478" lon="1.12378">
        <ele>621.4</ele>
        <time>2024-10-06T10:05:59Z</time>
      </trkpt>
      <trkpt lat="42.96485" lon="1.12379">
        <ele>619.2</ele>
        <time>2024-10-06T10:06:00Z</time>
      </trkpt>
      <trkpt lat="42.9649" lon="1.1238">
        <ele>618.2</ele>
        <time>2024-10-06T10:06:01Z</time>
      </trkpt>
      <trkpt lat="42.96495" lon="1.12381">
        <ele>617.2</ele>
        <time>2024-10-06T10:06:02Z</time>
      </trkpt>
      <trkpt lat="42.96499" lon="1.12381">
        <ele>616.2</ele>
        <time>2024-10-06T10:06:03Z</time>
      </trkpt>
      <trkpt lat="42.96504" lon="1.12382">
        <ele>615</ele>
        <time>2024-10-06T10:06:04Z</time>
      </trkpt>
      <trkpt lat="42.96509" lon="1.12383">
        <ele>614</ele>
        <time>2024-10-06T10:06:05Z</time>
      </trkpt>
      <trkpt lat="42.96511" lon="1.12384">
        <ele>613</ele>
        <time>2024-10-06T10:06:06Z</time>
      </trkpt>
      <trkpt lat="42.96514" lon="1.12384">
        <ele>612</ele>
        <time>2024-10-06T10:06:07Z</time>
      </trkpt>
      <trkpt lat="42.96517" lon="1.12386">
        <ele>611</ele>
        <time>2024-10-06T10:06:08Z</time>
      </trkpt>
      <trkpt lat="42.9652" lon="1.12386">
        <ele>610.2</ele>
        <time>2024-10-06T10:06:09Z</time>
      </trkpt>
      <trkpt lat="42.9652" lon="1.12386">
        <ele>609.4</ele>
        <time>2024-10-06T10:06:10Z</time>
      </trkpt>
      <trkpt lat="42.96521" lon="1.12386">
        <ele>608.6</ele>
        <time>2024-10-06T10:06:11Z</time>
      </trkpt>
      <trkpt lat="42.96522" lon="1.12386">
        <ele>607.8</ele>
        <time>2024-10-06T10:06:12Z</time>
      </trkpt>
      <trkpt lat="42.96521" lon="1.12385">
        <ele>607</ele>
        <time>2024-10-06T10:06:14Z</time>
      </trkpt>
      <trkpt lat="42.96519" lon="1.12382">
        <ele>607</ele>
        <time>2024-10-06T10:06:16Z</time>
      </trkpt>
      <trkpt lat="42.96516" lon="1.12377">
        <ele>607</ele>
        <time>2024-10-06T10:06:18Z</time>
      </trkpt>
      <trkpt lat="42.96509" lon="1.12371">
        <ele>607</ele>
        <time>2024-10-06T10:06:21Z</time>
      </trkpt>
      <trkpt lat="42.96499" lon="1.12362">
        <ele>607</ele>
        <time>2024-10-06T10:06:25Z</time>
      </trkpt>
      <trkpt lat="42.96489" lon="1.12359">
        <ele>607</ele>
        <time>2024-10-06T10:06:30Z</time>
      </trkpt>
      <trkpt lat="42.96488" lon="1.12358">
        <ele>607.4</ele>
        <time>2024-10-06T10:06:31Z</time>
      </trkpt>
      <trkpt lat="42.96488" lon="1.12357">
        <ele>607.8</ele>
        <time>2024-10-06T10:06:32Z</time>
      </trkpt>
      <trkpt lat="42.96488" lon="1.12355">
        <ele>608.4</ele>
        <time>2024-10-06T10:06:33Z</time>
      </trkpt>
      <trkpt lat="42.96487" lon="1.12353">
        <ele>608.8</ele>
        <time>2024-10-06T10:06:34Z</time>
      </trkpt>
      <trkpt lat="42.96489" lon="1.12352">
        <ele>609.2</ele>
        <time>2024-10-06T10:06:35Z</time>
      </trkpt>
      <trkpt lat="42.96496" lon="1.12345">
        <ele>609.2</ele>
        <time>2024-10-06T10:06:39Z</time>
      </trkpt>
      <trkpt lat="42.96499" lon="1.12344">
        <ele>609.2</ele>
        <time>2024-10-06T10:06:41Z</time>
      </trkpt>
      <trkpt lat="42.96502" lon="1.12344">
        <ele>609.2</ele>
        <time>2024-10-06T10:06:44Z</time>
      </trkpt>
      <trkpt lat="42.96507" lon="1.12334">
        <ele>609.2</ele>
        <time>2024-10-06T10:06:49Z</time>
      </trkpt>
      <trkpt lat="42.96507" lon="1.12332">
        <ele>609.2</ele>
        <time>2024-10-06T10:06:50Z</time>
      </trkpt>
      <trkpt lat="42.96514" lon="1.1232">
        <ele>609.2</ele>
        <time>2024-10-06T10:06:53Z</time>
      </trkpt>
      <trkpt lat="42.96524" lon="1.12306">
        <ele>609.2</ele>
        <time>2024-10-06T10:06:57Z</time>
      </trkpt>
      <trkpt lat="42.96525" lon="1.12303">
        <ele>609.2</ele>
        <time>2024-10-06T10:06:58Z</time>
      </trkpt>
      <trkpt lat="42.96539" lon="1.1228">
        <ele>609.2</ele>
        <time>2024-10-06T10:07:03Z</time>
      </trkpt>
      <trkpt lat="42.96543" lon="1.12272">
        <ele>609.2</ele>
        <time>2024-10-06T10:07:05Z</time>
      </trkpt>
      <trkpt lat="42.96548" lon="1.12261">
        <ele>609.2</ele>
        <time>2024-10-06T10:07:08Z</time>
      </trkpt>
      <trkpt lat="42.96555" lon="1.12245">
        <ele>609.2</ele>
        <time>2024-10-06T10:07:13Z</time>
      </trkpt>
      <trkpt lat="42.9656" lon="1.12236">
        <ele>609.2</ele>
        <time>2024-10-06T10:07:16Z</time>
      </trkpt>
      <trkpt lat="42.96564" lon="1.12227">
        <ele>609.2</ele>
        <time>2024-10-06T10:07:18Z</time>
      </trkpt>
      <trkpt lat="42.96566" lon="1.1222">
        <ele>609.2</ele>
        <time>2024-10-06T10:07:20Z</time>
      </trkpt>
      <trkpt lat="42.96579" lon="1.122">
        <ele>609.2</ele>
        <time>2024-10-06T10:07:24Z</time>
      </trkpt>
      <trkpt lat="42.96595" lon="1.12174">
        <ele>608.8</ele>
        <time>2024-10-06T10:07:29Z</time>
      </trkpt>
      <trkpt lat="42.96597" lon="1.1217">
        <ele>608.2</ele>
        <time>2024-10-06T10:07:30Z</time>
      </trkpt>
      <trkpt lat="42.96599" lon="1.12165">
        <ele>607.6</ele>
        <time>2024-10-06T10:07:31Z</time>
      </trkpt>
      <trkpt lat="42.96603" lon="1.12155">
        <ele>606.8</ele>
        <time>2024-10-06T10:07:32Z</time>
      </trkpt>
      <trkpt lat="42.96606" lon="1.12147">
        <ele>606.2</ele>
        <time>2024-10-06T10:07:33Z</time>
      </trkpt>
      <trkpt lat="42.9661" lon="1.12138">
        <ele>605.4</ele>
        <time>2024-10-06T10:07:34Z</time>
      </trkpt>
      <trkpt lat="42.96614" lon="1.1213">
        <ele>604.8</ele>
        <time>2024-10-06T10:07:35Z</time>
      </trkpt>
      <trkpt lat="42.96619" lon="1.12121">
        <ele>604.2</ele>
        <time>2024-10-06T10:07:36Z</time>
      </trkpt>
      <trkpt lat="42.96623" lon="1.12113">
        <ele>603.6</ele>
        <time>2024-10-06T10:07:37Z</time>
      </trkpt>
      <trkpt lat="42.96626" lon="1.12105">
        <ele>603</ele>
        <time>2024-10-06T10:07:38Z</time>
      </trkpt>
      <trkpt lat="42.96629" lon="1.12098">
        <ele>602</ele>
        <time>2024-10-06T10:07:39Z</time>
      </trkpt>
      <trkpt lat="42.96631" lon="1.12089">
        <ele>601.4</ele>
        <time>2024-10-06T10:07:40Z</time>
      </trkpt>
      <trkpt lat="42.96633" lon="1.12081">
        <ele>600.8</ele>
        <time>2024-10-06T10:07:41Z</time>
      </trkpt>
      <trkpt lat="42.96635" lon="1.12071">
        <ele>600.2</ele>
        <time>2024-10-06T10:07:42Z</time>
      </trkpt>
      <trkpt lat="42.96635" lon="1.12062">
        <ele>599.6</ele>
        <time>2024-10-06T10:07:43Z</time>
      </trkpt>
      <trkpt lat="42.96635" lon="1.12054">
        <ele>599</ele>
        <time>2024-10-06T10:07:44Z</time>
      </trkpt>
      <trkpt lat="42.96637" lon="1.12047">
        <ele>598.4</ele>
        <time>2024-10-06T10:07:45Z</time>
      </trkpt>
      <trkpt lat="42.96642" lon="1.12042">
        <ele>597.8</ele>
        <time>2024-10-06T10:07:46Z</time>
      </trkpt>
      <trkpt lat="42.96645" lon="1.12037">
        <ele>597.8</ele>
        <time>2024-10-06T10:07:47Z</time>
      </trkpt>
      <trkpt lat="42.96655" lon="1.12021">
        <ele>597.8</ele>
        <time>2024-10-06T10:07:50Z</time>
      </trkpt>
      <trkpt lat="42.96658" lon="1.12011">
        <ele>597.8</ele>
        <time>2024-10-06T10:07:52Z</time>
      </trkpt>
      <trkpt lat="42.96668" lon="1.11987">
        <ele>597.8</ele>
        <time>2024-10-06T10:07:58Z</time>
      </trkpt>
      <trkpt lat="42.96676" lon="1.11963">
        <ele>597.8</ele>
        <time>2024-10-06T10:08:03Z</time>
      </trkpt>
      <trkpt lat="42.96684" lon="1.1194">
        <ele>597.8</ele>
        <time>2024-10-06T10:08:08Z</time>
      </trkpt>
      <trkpt lat="42.96691" lon="1.11925">
        <ele>597.8</ele>
        <time>2024-10-06T10:08:12Z</time>
      </trkpt>
      <trkpt lat="42.96696" lon="1.11919">
        <ele>597.4</ele>
        <time>2024-10-06T10:08:14Z</time>
      </trkpt>
      <trkpt lat="42.96698" lon="1.11917">
        <ele>597</ele>
        <time>2024-10-06T10:08:15Z</time>
      </trkpt>
      <trkpt lat="42.96702" lon="1.11911">
        <ele>596.6</ele>
        <time>2024-10-06T10:08:16Z</time>
      </trkpt>
      <trkpt lat="42.96703" lon="1.11903">
        <ele>596</ele>
        <time>2024-10-06T10:08:17Z</time>
      </trkpt>
      <trkpt lat="42.96707" lon="1.11896">
        <ele>595.4</ele>
        <time>2024-10-06T10:08:18Z</time>
      </trkpt>
      <trkpt lat="42.9671" lon="1.11889">
        <ele>594.8</ele>
        <time>2024-10-06T10:08:19Z</time>
      </trkpt>
      <trkpt lat="42.96712" lon="1.11881">
        <ele>594</ele>
        <time>2024-10-06T10:08:20Z</time>
      </trkpt>
      <trkpt lat="42.96714" lon="1.11875">
        <ele>593.4</ele>
        <time>2024-10-06T10:08:21Z</time>
      </trkpt>
      <trkpt lat="42.96716" lon="1.11872">
        <ele>592.8</ele>
        <time>2024-10-06T10:08:22Z</time>
      </trkpt>
      <trkpt lat="42.9672" lon="1.11874">
        <ele>592</ele>
        <time>2024-10-06T10:08:23Z</time>
      </trkpt>
      <trkpt lat="42.96723" lon="1.11876">
        <ele>591.2</ele>
        <time>2024-10-06T10:08:24Z</time>
      </trkpt>
      <trkpt lat="42.96727" lon="1.1188">
        <ele>590.6</ele>
        <time>2024-10-06T10:08:25Z</time>
      </trkpt>
      <trkpt lat="42.96732" lon="1.11885">
        <ele>589.8</ele>
        <time>2024-10-06T10:08:26Z</time>
      </trkpt>
      <trkpt lat="42.96737" lon="1.11891">
        <ele>589.2</ele>
        <time>2024-10-06T10:08:27Z</time>
      </trkpt>
      <trkpt lat="42.96744" lon="1.11897">
        <ele>588.4</ele>
        <time>2024-10-06T10:08:28Z</time>
      </trkpt>
      <trkpt lat="42.96749" lon="1.11903">
        <ele>587</ele>
        <time>2024-10-06T10:08:29Z</time>
      </trkpt>
      <trkpt lat="42.96754" lon="1.11911">
        <ele>586.2</ele>
        <time>2024-10-06T10:08:30Z</time>
      </trkpt>
      <trkpt lat="42.9676" lon="1.11918">
        <ele>585.4</ele>
        <time>2024-10-06T10:08:31Z</time>
      </trkpt>
      <trkpt lat="42.96765" lon="1.11925">
        <ele>584.6</ele>
        <time>2024-10-06T10:08:32Z</time>
      </trkpt>
      <trkpt lat="42.96769" lon="1.1193">
        <ele>584</ele>
        <time>2024-10-06T10:08:33Z</time>
      </trkpt>
      <trkpt lat="42.96771" lon="1.1193">
        <ele>583.6</ele>
        <time>2024-10-06T10:08:34Z</time>
      </trkpt>
      <trkpt lat="42.96772" lon="1.1193">
        <ele>583</ele>
        <time>2024-10-06T10:08:35Z</time>
      </trkpt>
      <trkpt lat="42.96773" lon="1.1193">
        <ele>582.4</ele>
        <time>2024-10-06T10:08:36Z</time>
      </trkpt>
      <trkpt lat="42.96773" lon="1.11929">
        <ele>581.8</ele>
        <time>2024-10-06T10:08:37Z</time>
      </trkpt>
      <trkpt lat="42.96775" lon="1.11926">
        <ele>581.8</ele>
        <time>2024-10-06T10:08:38Z</time>
      </trkpt>
      <trkpt lat="42.96776" lon="1.11912">
        <ele>581.8</ele>
        <time>2024-10-06T10:08:41Z</time>
      </trkpt>
      <trkpt lat="42.96776" lon="1.11907">
        <ele>581.4</ele>
        <time>2024-10-06T10:08:42Z</time>
      </trkpt>
      <trkpt lat="42.96777" lon="1.11904">
        <ele>581</ele>
        <time>2024-10-06T10:08:43Z</time>
      </trkpt>
      <trkpt lat="42.96777" lon="1.11901">
        <ele>580.6</ele>
        <time>2024-10-06T10:08:44Z</time>
      </trkpt>
      <trkpt lat="42.96779" lon="1.11898">
        <ele>580.2</ele>
        <time>2024-10-06T10:08:45Z</time>
      </trkpt>
      <trkpt lat="42.96781" lon="1.11895">
        <ele>579.8</ele>
        <time>2024-10-06T10:08:46Z</time>
      </trkpt>
      <trkpt lat="42.96783" lon="1.11893">
        <ele>579.2</ele>
        <time>2024-10-06T10:08:47Z</time>
      </trkpt>
      <trkpt lat="42.96786" lon="1.11887">
        <ele>578.6</ele>
        <time>2024-10-06T10:08:48Z</time>
      </trkpt>
      <trkpt lat="42.96787" lon="1.11883">
        <ele>577.8</ele>
        <time>2024-10-06T10:08:49Z</time>
      </trkpt>
      <trkpt lat="42.9679" lon="1.11876">
        <ele>577.2</ele>
        <time>2024-10-06T10:08:50Z</time>
      </trkpt>
      <trkpt lat="42.96793" lon="1.1187">
        <ele>576.2</ele>
        <time>2024-10-06T10:08:51Z</time>
      </trkpt>
      <trkpt lat="42.96794" lon="1.11866">
        <ele>575.4</ele>
        <time>2024-10-06T10:08:52Z</time>
      </trkpt>
      <trkpt lat="42.96795" lon="1.11863">
        <ele>573.4</ele>
        <time>2024-10-06T10:08:53Z</time>
      </trkpt>
      <trkpt lat="42.96797" lon="1.11861">
        <ele>572.4</ele>
        <time>2024-10-06T10:08:54Z</time>
      </trkpt>
      <trkpt lat="42.96799" lon="1.11858">
        <ele>571.6</ele>
        <time>2024-10-06T10:08:55Z</time>
      </trkpt>
      <trkpt lat="42.96798" lon="1.11855">
        <ele>570.6</ele>
        <time>2024-10-06T10:08:56Z</time>
      </trkpt>
      <trkpt lat="42.968" lon="1.11853">
        <ele>569.6</ele>
        <time>2024-10-06T10:08:57Z</time>
      </trkpt>
      <trkpt lat="42.96802" lon="1.11849">
        <ele>568.8</ele>
        <time>2024-10-06T10:08:58Z</time>
      </trkpt>
      <trkpt lat="42.96803" lon="1.11846">
        <ele>568.2</ele>
        <time>2024-10-06T10:08:59Z</time>
      </trkpt>
      <trkpt lat="42.96803" lon="1.1184">
        <ele>567.6</ele>
        <time>2024-10-06T10:09:00Z</time>
      </trkpt>
      <trkpt lat="42.96804" lon="1.11834">
        <ele>567</ele>
        <time>2024-10-06T10:09:01Z</time>
      </trkpt>
      <trkpt lat="42.96806" lon="1.11827">
        <ele>566</ele>
        <time>2024-10-06T10:09:02Z</time>
      </trkpt>
      <trkpt lat="42.96806" lon="1.11822">
        <ele>565.2</ele>
        <time>2024-10-06T10:09:03Z</time>
      </trkpt>
      <trkpt lat="42.96806" lon="1.11815">
        <ele>564.4</ele>
        <time>2024-10-06T10:09:04Z</time>
      </trkpt>
      <trkpt lat="42.96807" lon="1.1181">
        <ele>563.4</ele>
        <time>2024-10-06T10:09:05Z</time>
      </trkpt>
      <trkpt lat="42.96807" lon="1.11805">
        <ele>562.4</ele>
        <time>2024-10-06T10:09:06Z</time>
      </trkpt>
      <trkpt lat="42.96806" lon="1.118">
        <ele>561.6</ele>
        <time>2024-10-06T10:09:07Z</time>
      </trkpt>
      <trkpt lat="42.96805" lon="1.11793">
        <ele>560.6</ele>
        <time>2024-10-06T10:09:08Z</time>
      </trkpt>
      <trkpt lat="42.96806" lon="1.11787">
        <ele>559.6</ele>
        <time>2024-10-06T10:09:09Z</time>
      </trkpt>
      <trkpt lat="42.96807" lon="1.1178">
        <ele>558.6</ele>
        <time>2024-10-06T10:09:10Z</time>
      </trkpt>
      <trkpt lat="42.96807" lon="1.11773">
        <ele>557.4</ele>
        <time>2024-10-06T10:09:11Z</time>
      </trkpt>
      <trkpt lat="42.96808" lon="1.11767">
        <ele>556.4</ele>
        <time>2024-10-06T10:09:12Z</time>
      </trkpt>
      <trkpt lat="42.96809" lon="1.11759">
        <ele>555.2</ele>
        <time>2024-10-06T10:09:13Z</time>
      </trkpt>
      <trkpt lat="42.96809" lon="1.11751">
        <ele>554.2</ele>
        <time>2024-10-06T10:09:14Z</time>
      </trkpt>
      <trkpt lat="42.9681" lon="1.11742">
        <ele>553.2</ele>
        <time>2024-10-06T10:09:15Z</time>
      </trkpt>
      <trkpt lat="42.9681" lon="1.11735">
        <ele>552.2</ele>
        <time>2024-10-06T10:09:16Z</time>
      </trkpt>
      <trkpt lat="42.9681" lon="1.11729">
        <ele>551.2</ele>
        <time>2024-10-06T10:09:17Z</time>
      </trkpt>
      <trkpt lat="42.9681" lon="1.11721">
        <ele>549</ele>
        <time>2024-10-06T10:09:18Z</time>
      </trkpt>
      <trkpt lat="42.96811" lon="1.11716">
        <ele>548</ele>
        <time>2024-10-06T10:09:19Z</time>
      </trkpt>
      <trkpt lat="42.96811" lon="1.11707">
        <ele>547</ele>
        <time>2024-10-06T10:09:20Z</time>
      </trkpt>
      <trkpt lat="42.96812" lon="1.11699">
        <ele>546</ele>
        <time>2024-10-06T10:09:21Z</time>
      </trkpt>
      <trkpt lat="42.96813" lon="1.11692">
        <ele>545</ele>
        <time>2024-10-06T10:09:22Z</time>
      </trkpt>
      <trkpt lat="42.96813" lon="1.11685">
        <ele>544.2</ele>
        <time>2024-10-06T10:09:23Z</time>
      </trkpt>
      <trkpt lat="42.96813" lon="1.11677">
        <ele>543.4</ele>
        <time>2024-10-06T10:09:24Z</time>
      </trkpt>
      <trkpt lat="42.96813" lon="1.11669">
        <ele>542.6</ele>
        <time>2024-10-06T10:09:25Z</time>
      </trkpt>
      <trkpt lat="42.96813" lon="1.11662">
        <ele>541.8</ele>
        <time>2024-10-06T10:09:26Z</time>
      </trkpt>
      <trkpt lat="42.96813" lon="1.11655">
        <ele>541</ele>
        <time>2024-10-06T10:09:27Z</time>
      </trkpt>
      <trkpt lat="42.96812" lon="1.1165">
        <ele>540.2</ele>
        <time>2024-10-06T10:09:28Z</time>
      </trkpt>
      <trkpt lat="42.96811" lon="1.11643">
        <ele>539.4</ele>
        <time>2024-10-06T10:09:29Z</time>
      </trkpt>
      <trkpt lat="42.96811" lon="1.11636">
        <ele>538.6</ele>
        <time>2024-10-06T10:09:30Z</time>
      </trkpt>
      <trkpt lat="42.9681" lon="1.11632">
        <ele>537.8</ele>
        <time>2024-10-06T10:09:31Z</time>
      </trkpt>
      <trkpt lat="42.96809" lon="1.11626">
        <ele>537</ele>
        <time>2024-10-06T10:09:32Z</time>
      </trkpt>
      <trkpt lat="42.9681" lon="1.11622">
        <ele>536</ele>
        <time>2024-10-06T10:09:33Z</time>
      </trkpt>
      <trkpt lat="42.96809" lon="1.1162">
        <ele>535.6</ele>
        <time>2024-10-06T10:09:34Z</time>
      </trkpt>
      <trkpt lat="42.96811" lon="1.11617">
        <ele>535.2</ele>
        <time>2024-10-06T10:09:35Z</time>
      </trkpt>
      <trkpt lat="42.96812" lon="1.11613">
        <ele>534.6</ele>
        <time>2024-10-06T10:09:36Z</time>
      </trkpt>
      <trkpt lat="42.96809" lon="1.11609">
        <ele>534.2</ele>
        <time>2024-10-06T10:09:37Z</time>
      </trkpt>
      <trkpt lat="42.96807" lon="1.11605">
        <ele>533.6</ele>
        <time>2024-10-06T10:09:38Z</time>
      </trkpt>
      <trkpt lat="42.96806" lon="1.11601">
        <ele>533.2</ele>
        <time>2024-10-06T10:09:39Z</time>
      </trkpt>
      <trkpt lat="42.96804" lon="1.11595">
        <ele>532.6</ele>
        <time>2024-10-06T10:09:40Z</time>
      </trkpt>
      <trkpt lat="42.96802" lon="1.11592">
        <ele>532.2</ele>
        <time>2024-10-06T10:09:41Z</time>
      </trkpt>
      <trkpt lat="42.96802" lon="1.11588">
        <ele>531.6</ele>
        <time>2024-10-06T10:09:42Z</time>
      </trkpt>
      <trkpt lat="42.96801" lon="1.11582">
        <ele>531.6</ele>
        <time>2024-10-06T10:09:43Z</time>
      </trkpt>
      <trkpt lat="42.96801" lon="1.11576">
        <ele>531.2</ele>
        <time>2024-10-06T10:09:44Z</time>
      </trkpt>
      <trkpt lat="42.96802" lon="1.11571">
        <ele>530.6</ele>
        <time>2024-10-06T10:09:45Z</time>
      </trkpt>
      <trkpt lat="42.96802" lon="1.11565">
        <ele>530.2</ele>
        <time>2024-10-06T10:09:46Z</time>
      </trkpt>
      <trkpt lat="42.96802" lon="1.11561">
        <ele>529.6</ele>
        <time>2024-10-06T10:09:47Z</time>
      </trkpt>
      <trkpt lat="42.968" lon="1.11558">
        <ele>529.2</ele>
        <time>2024-10-06T10:09:48Z</time>
      </trkpt>
      <trkpt lat="42.968" lon="1.11554">
        <ele>529.2</ele>
        <time>2024-10-06T10:09:49Z</time>
      </trkpt>
      <trkpt lat="42.968" lon="1.11552">
        <ele>528.8</ele>
        <time>2024-10-06T10:09:50Z</time>
      </trkpt>
      <trkpt lat="42.968" lon="1.11549">
        <ele>528.2</ele>
        <time>2024-10-06T10:09:51Z</time>
      </trkpt>
      <trkpt lat="42.96801" lon="1.11546">
        <ele>527.8</ele>
        <time>2024-10-06T10:09:52Z</time>
      </trkpt>
      <trkpt lat="42.96802" lon="1.11542">
        <ele>527.4</ele>
        <time>2024-10-06T10:09:53Z</time>
      </trkpt>
      <trkpt lat="42.96801" lon="1.11537">
        <ele>526.8</ele>
        <time>2024-10-06T10:09:54Z</time>
      </trkpt>
      <trkpt lat="42.96801" lon="1.11533">
        <ele>526.4</ele>
        <time>2024-10-06T10:09:55Z</time>
      </trkpt>
      <trkpt lat="42.96801" lon="1.11529">
        <ele>525.8</ele>
        <time>2024-10-06T10:09:56Z</time>
      </trkpt>
      <trkpt lat="42.968" lon="1.11522">
        <ele>525.4</ele>
        <time>2024-10-06T10:09:57Z</time>
      </trkpt>
      <trkpt lat="42.96799" lon="1.11516">
        <ele>524.8</ele>
        <time>2024-10-06T10:09:58Z</time>
      </trkpt>
      <trkpt lat="42.96799" lon="1.11511">
        <ele>524.2</ele>
        <time>2024-10-06T10:09:59Z</time>
      </trkpt>
      <trkpt lat="42.96799" lon="1.11506">
        <ele>523.8</ele>
        <time>2024-10-06T10:10:00Z</time>
      </trkpt>
      <trkpt lat="42.96798" lon="1.11501">
        <ele>523.2</ele>
        <time>2024-10-06T10:10:01Z</time>
      </trkpt>
      <trkpt lat="42.96797" lon="1.11497">
        <ele>522.6</ele>
        <time>2024-10-06T10:10:02Z</time>
      </trkpt>
      <trkpt lat="42.96797" lon="1.11492">
        <ele>522</ele>
        <time>2024-10-06T10:10:03Z</time>
      </trkpt>
      <trkpt lat="42.96797" lon="1.11488">
        <ele>521.4</ele>
        <time>2024-10-06T10:10:04Z</time>
      </trkpt>
      <trkpt lat="42.96797" lon="1.11483">
        <ele>520.8</ele>
        <time>2024-10-06T10:10:05Z</time>
      </trkpt>
      <trkpt lat="42.96796" lon="1.11479">
        <ele>520.2</ele>
        <time>2024-10-06T10:10:06Z</time>
      </trkpt>
      <trkpt lat="42.96795" lon="1.11473">
        <ele>519</ele>
        <time>2024-10-06T10:10:07Z</time>
      </trkpt>
      <trkpt lat="42.96795" lon="1.11466">
        <ele>518.2</ele>
        <time>2024-10-06T10:10:08Z</time>
      </trkpt>
      <trkpt lat="42.96795" lon="1.1146">
        <ele>517.6</ele>
        <time>2024-10-06T10:10:09Z</time>
      </trkpt>
      <trkpt lat="42.96795" lon="1.11454">
        <ele>517</ele>
        <time>2024-10-06T10:10:10Z</time>
      </trkpt>
      <trkpt lat="42.96794" lon="1.11447">
        <ele>516.2</ele>
        <time>2024-10-06T10:10:11Z</time>
      </trkpt>
      <trkpt lat="42.96794" lon="1.1144">
        <ele>515.4</ele>
        <time>2024-10-06T10:10:12Z</time>
      </trkpt>
      <trkpt lat="42.9679" lon="1.11431">
        <ele>514.6</ele>
        <time>2024-10-06T10:10:13Z</time>
      </trkpt>
      <trkpt lat="42.96788" lon="1.11424">
        <ele>513.8</ele>
        <time>2024-10-06T10:10:14Z</time>
      </trkpt>
      <trkpt lat="42.96786" lon="1.11416">
        <ele>513</ele>
        <time>2024-10-06T10:10:15Z</time>
      </trkpt>
      <trkpt lat="42.96783" lon="1.11407">
        <ele>512.2</ele>
        <time>2024-10-06T10:10:16Z</time>
      </trkpt>
      <trkpt lat="42.9678" lon="1.114">
        <ele>511.4</ele>
        <time>2024-10-06T10:10:17Z</time>
      </trkpt>
      <trkpt lat="42.96777" lon="1.11392">
        <ele>510.6</ele>
        <time>2024-10-06T10:10:18Z</time>
      </trkpt>
      <trkpt lat="42.96774" lon="1.11386">
        <ele>510.6</ele>
        <time>2024-10-06T10:10:19Z</time>
      </trkpt>
      <trkpt lat="42.96765" lon="1.11361">
        <ele>510.2</ele>
        <time>2024-10-06T10:10:23Z</time>
      </trkpt>
      <trkpt lat="42.96763" lon="1.11355">
        <ele>509.8</ele>
        <time>2024-10-06T10:10:24Z</time>
      </trkpt>
      <trkpt lat="42.96764" lon="1.1135">
        <ele>509.4</ele>
        <time>2024-10-06T10:10:25Z</time>
      </trkpt>
      <trkpt lat="42.96763" lon="1.11345">
        <ele>509</ele>
        <time>2024-10-06T10:10:26Z</time>
      </trkpt>
      <trkpt lat="42.96763" lon="1.11342">
        <ele>508.6</ele>
        <time>2024-10-06T10:10:27Z</time>
      </trkpt>
      <trkpt lat="42.96762" lon="1.11338">
        <ele>508.2</ele>
        <time>2024-10-06T10:10:28Z</time>
      </trkpt>
      <trkpt lat="42.96762" lon="1.11335">
        <ele>507.8</ele>
        <time>2024-10-06T10:10:29Z</time>
      </trkpt>
      <trkpt lat="42.96761" lon="1.11332">
        <ele>507.4</ele>
        <time>2024-10-06T10:10:30Z</time>
      </trkpt>
      <trkpt lat="42.96761" lon="1.11328">
        <ele>506.4</ele>
        <time>2024-10-06T10:10:31Z</time>
      </trkpt>
      <trkpt lat="42.9676" lon="1.11324">
        <ele>506</ele>
        <time>2024-10-06T10:10:32Z</time>
      </trkpt>
      <trkpt lat="42.96759" lon="1.11319">
        <ele>505.6</ele>
        <time>2024-10-06T10:10:33Z</time>
      </trkpt>
      <trkpt lat="42.96757" lon="1.11314">
        <ele>505.2</ele>
        <time>2024-10-06T10:10:34Z</time>
      </trkpt>
      <trkpt lat="42.96756" lon="1.11309">
        <ele>504.6</ele>
        <time>2024-10-06T10:10:35Z</time>
      </trkpt>
      <trkpt lat="42.96753" lon="1.11303">
        <ele>504.2</ele>
        <time>2024-10-06T10:10:36Z</time>
      </trkpt>
      <trkpt lat="42.96751" lon="1.11298">
        <ele>504.2</ele>
        <time>2024-10-06T10:10:37Z</time>
      </trkpt>
      <trkpt lat="42.96744" lon="1.11283">
        <ele>504.2</ele>
        <time>2024-10-06T10:10:41Z</time>
      </trkpt>
      <trkpt lat="42.96735" lon="1.11269">
        <ele>504.2</ele>
        <time>2024-10-06T10:10:45Z</time>
      </trkpt>
      <trkpt lat="42.96731" lon="1.11257">
        <ele>504.2</ele>
        <time>2024-10-06T10:10:49Z</time>
      </trkpt>
      <trkpt lat="42.96729" lon="1.11253">
        <ele>504.2</ele>
        <time>2024-10-06T10:10:50Z</time>
      </trkpt>
      <trkpt lat="42.96723" lon="1.11235">
        <ele>504.2</ele>
        <time>2024-10-06T10:10:56Z</time>
      </trkpt>
      <trkpt lat="42.96721" lon="1.11233">
        <ele>504.2</ele>
        <time>2024-10-06T10:10:57Z</time>
      </trkpt>
      <trkpt lat="42.96716" lon="1.11224">
        <ele>504.2</ele>
        <time>2024-10-06T10:11:00Z</time>
      </trkpt>
      <trkpt lat="42.96712" lon="1.11216">
        <ele>503.8</ele>
        <time>2024-10-06T10:11:03Z</time>
      </trkpt>
      <trkpt lat="42.96711" lon="1.11214">
        <ele>503.4</ele>
        <time>2024-10-06T10:11:04Z</time>
      </trkpt>
      <trkpt lat="42.96711" lon="1.11211">
        <ele>503</ele>
        <time>2024-10-06T10:11:05Z</time>
      </trkpt>
      <trkpt lat="42.9671" lon="1.11208">
        <ele>502.6</ele>
        <time>2024-10-06T10:11:06Z</time>
      </trkpt>
      <trkpt lat="42.96709" lon="1.11205">
        <ele>502.2</ele>
        <time>2024-10-06T10:11:07Z</time>
      </trkpt>
      <trkpt lat="42.96704" lon="1.11196">
        <ele>502.2</ele>
        <time>2024-10-06T10:11:09Z</time>
      </trkpt>
      <trkpt lat="42.96701" lon="1.11188">
        <ele>501.8</ele>
        <time>2024-10-06T10:11:11Z</time>
      </trkpt>
      <trkpt lat="42.96698" lon="1.11183">
        <ele>501.2</ele>
        <time>2024-10-06T10:11:12Z</time>
      </trkpt>
      <trkpt lat="42.96696" lon="1.11178">
        <ele>500.8</ele>
        <time>2024-10-06T10:11:13Z</time>
      </trkpt>
      <trkpt lat="42.96695" lon="1.11173">
        <ele>500.4</ele>
        <time>2024-10-06T10:11:14Z</time>
      </trkpt>
      <trkpt lat="42.96693" lon="1.11166">
        <ele>499.8</ele>
        <time>2024-10-06T10:11:15Z</time>
      </trkpt>
      <trkpt lat="42.9669" lon="1.1116">
        <ele>499.2</ele>
        <time>2024-10-06T10:11:16Z</time>
      </trkpt>
      <trkpt lat="42.96688" lon="1.11154">
        <ele>498.8</ele>
        <time>2024-10-06T10:11:17Z</time>
      </trkpt>
      <trkpt lat="42.96686" lon="1.11148">
        <ele>498</ele>
        <time>2024-10-06T10:11:18Z</time>
      </trkpt>
      <trkpt lat="42.96683" lon="1.11141">
        <ele>497.4</ele>
        <time>2024-10-06T10:11:19Z</time>
      </trkpt>
      <trkpt lat="42.96681" lon="1.11136">
        <ele>496.8</ele>
        <time>2024-10-06T10:11:20Z</time>
      </trkpt>
      <trkpt lat="42.96679" lon="1.1113">
        <ele>495.4</ele>
        <time>2024-10-06T10:11:21Z</time>
      </trkpt>
      <trkpt lat="42.96676" lon="1.11124">
        <ele>494.6</ele>
        <time>2024-10-06T10:11:22Z</time>
      </trkpt>
      <trkpt lat="42.96672" lon="1.11117">
        <ele>494</ele>
        <time>2024-10-06T10:11:23Z</time>
      </trkpt>
      <trkpt lat="42.96669" lon="1.11109">
        <ele>493.2</ele>
        <time>2024-10-06T10:11:24Z</time>
      </trkpt>
      <trkpt lat="42.96665" lon="1.11102">
        <ele>492.6</ele>
        <time>2024-10-06T10:11:25Z</time>
      </trkpt>
      <trkpt lat="42.96662" lon="1.11095">
        <ele>492</ele>
        <time>2024-10-06T10:11:26Z</time>
      </trkpt>
      <trkpt lat="42.96659" lon="1.11088">
        <ele>491.2</ele>
        <time>2024-10-06T10:11:27Z</time>
      </trkpt>
      <trkpt lat="42.96657" lon="1.11082">
        <ele>490.4</ele>
        <time>2024-10-06T10:11:28Z</time>
      </trkpt>
      <trkpt lat="42.96655" lon="1.11075">
        <ele>489.6</ele>
        <time>2024-10-06T10:11:29Z</time>
      </trkpt>
      <trkpt lat="42.96652" lon="1.11069">
        <ele>488.8</ele>
        <time>2024-10-06T10:11:30Z</time>
      </trkpt>
      <trkpt lat="42.96649" lon="1.11063">
        <ele>488.2</ele>
        <time>2024-10-06T10:11:31Z</time>
      </trkpt>
      <trkpt lat="42.96646" lon="1.11058">
        <ele>487.4</ele>
        <time>2024-10-06T10:11:32Z</time>
      </trkpt>
      <trkpt lat="42.96642" lon="1.11051">
        <ele>486.6</ele>
        <time>2024-10-06T10:11:33Z</time>
      </trkpt>
      <trkpt lat="42.96638" lon="1.11043">
        <ele>485.8</ele>
        <time>2024-10-06T10:11:34Z</time>
      </trkpt>
      <trkpt lat="42.96633" lon="1.11036">
        <ele>485</ele>
        <time>2024-10-06T10:11:35Z</time>
      </trkpt>
      <trkpt lat="42.96628" lon="1.11029">
        <ele>484.2</ele>
        <time>2024-10-06T10:11:36Z</time>
      </trkpt>
      <trkpt lat="42.96623" lon="1.11023">
        <ele>483.4</ele>
        <time>2024-10-06T10:11:37Z</time>
      </trkpt>
      <trkpt lat="42.96618" lon="1.11017">
        <ele>482.8</ele>
        <time>2024-10-06T10:11:38Z</time>
      </trkpt>
      <trkpt lat="42.96613" lon="1.11012">
        <ele>482</ele>
        <time>2024-10-06T10:11:39Z</time>
      </trkpt>
      <trkpt lat="42.96609" lon="1.11006">
        <ele>481.4</ele>
        <time>2024-10-06T10:11:40Z</time>
      </trkpt>
      <trkpt lat="42.96606" lon="1.11">
        <ele>480.8</ele>
        <time>2024-10-06T10:11:41Z</time>
      </trkpt>
      <trkpt lat="42.96603" lon="1.10995">
        <ele>480.2</ele>
        <time>2024-10-06T10:11:42Z</time>
      </trkpt>
      <trkpt lat="42.96599" lon="1.1099">
        <ele>479.6</ele>
        <time>2024-10-06T10:11:43Z</time>
      </trkpt>
      <trkpt lat="42.96597" lon="1.10985">
        <ele>478.8</ele>
        <time>2024-10-06T10:11:44Z</time>
      </trkpt>
      <trkpt lat="42.96595" lon="1.10982">
        <ele>477.2</ele>
        <time>2024-10-06T10:11:45Z</time>
      </trkpt>
      <trkpt lat="42.96593" lon="1.10979">
        <ele>476.6</ele>
        <time>2024-10-06T10:11:46Z</time>
      </trkpt>
      <trkpt lat="42.9659" lon="1.10975">
        <ele>475.8</ele>
        <time>2024-10-06T10:11:47Z</time>
      </trkpt>
      <trkpt lat="42.96588" lon="1.1097">
        <ele>475</ele>
        <time>2024-10-06T10:11:48Z</time>
      </trkpt>
      <trkpt lat="42.96584" lon="1.10964">
        <ele>474.2</ele>
        <time>2024-10-06T10:11:49Z</time>
      </trkpt>
      <trkpt lat="42.9658" lon="1.10958">
        <ele>473.4</ele>
        <time>2024-10-06T10:11:50Z</time>
      </trkpt>
      <trkpt lat="42.96576" lon="1.10953">
        <ele>472.6</ele>
        <time>2024-10-06T10:11:51Z</time>
      </trkpt>
      <trkpt lat="42.96572" lon="1.10949">
        <ele>471.8</ele>
        <time>2024-10-06T10:11:52Z</time>
      </trkpt>
      <trkpt lat="42.96569" lon="1.10945">
        <ele>471</ele>
        <time>2024-10-06T10:11:53Z</time>
      </trkpt>
      <trkpt lat="42.96566" lon="1.1094">
        <ele>470.2</ele>
        <time>2024-10-06T10:11:54Z</time>
      </trkpt>
      <trkpt lat="42.96564" lon="1.10935">
        <ele>469.6</ele>
        <time>2024-10-06T10:11:55Z</time>
      </trkpt>
      <trkpt lat="42.96561" lon="1.10929">
        <ele>468.8</ele>
        <time>2024-10-06T10:11:56Z</time>
      </trkpt>
      <trkpt lat="42.96559" lon="1.10924">
        <ele>467.8</ele>
        <time>2024-10-06T10:11:57Z</time>
      </trkpt>
      <trkpt lat="42.96557" lon="1.10921">
        <ele>467</ele>
        <time>2024-10-06T10:11:58Z</time>
      </trkpt>
      <trkpt lat="42.96556" lon="1.10918">
        <ele>466</ele>
        <time>2024-10-06T10:11:59Z</time>
      </trkpt>
      <trkpt lat="42.96555" lon="1.10915">
        <ele>465.2</ele>
        <time>2024-10-06T10:12:00Z</time>
      </trkpt>
      <trkpt lat="42.96552" lon="1.10912">
        <ele>464.2</ele>
        <time>2024-10-06T10:12:01Z</time>
      </trkpt>
      <trkpt lat="42.96549" lon="1.10907">
        <ele>463.4</ele>
        <time>2024-10-06T10:12:02Z</time>
      </trkpt>
      <trkpt lat="42.96546" lon="1.10903">
        <ele>462.4</ele>
        <time>2024-10-06T10:12:03Z</time>
      </trkpt>
      <trkpt lat="42.96543" lon="1.10899">
        <ele>461.6</ele>
        <time>2024-10-06T10:12:04Z</time>
      </trkpt>
      <trkpt lat="42.96542" lon="1.10895">
        <ele>460.8</ele>
        <time>2024-10-06T10:12:05Z</time>
      </trkpt>
      <trkpt lat="42.96541" lon="1.1089">
        <ele>459.8</ele>
        <time>2024-10-06T10:12:06Z</time>
      </trkpt>
      <trkpt lat="42.96541" lon="1.10885">
        <ele>459</ele>
        <time>2024-10-06T10:12:07Z</time>
      </trkpt>
      <trkpt lat="42.96542" lon="1.10881">
        <ele>458.2</ele>
        <time>2024-10-06T10:12:08Z</time>
      </trkpt>
      <trkpt lat="42.96545" lon="1.10876">
        <ele>457.6</ele>
        <time>2024-10-06T10:12:09Z</time>
      </trkpt>
      <trkpt lat="42.96547" lon="1.1087">
        <ele>456</ele>
        <time>2024-10-06T10:12:10Z</time>
      </trkpt>
      <trkpt lat="42.96549" lon="1.10865">
        <ele>455.4</ele>
        <time>2024-10-06T10:12:11Z</time>
      </trkpt>
      <trkpt lat="42.9655" lon="1.1086">
        <ele>454.8</ele>
        <time>2024-10-06T10:12:12Z</time>
      </trkpt>
      <trkpt lat="42.96547" lon="1.10853">
        <ele>454.2</ele>
        <time>2024-10-06T10:12:13Z</time>
      </trkpt>
      <trkpt lat="42.96543" lon="1.10846">
        <ele>453.4</ele>
        <time>2024-10-06T10:12:14Z</time>
      </trkpt>
      <trkpt lat="42.96541" lon="1.10843">
        <ele>452.8</ele>
        <time>2024-10-06T10:12:15Z</time>
      </trkpt>
      <trkpt lat="42.96539" lon="1.10839">
        <ele>452.8</ele>
        <time>2024-10-06T10:12:17Z</time>
      </trkpt>
      <trkpt lat="42.96537" lon="1.10836">
        <ele>452.8</ele>
        <time>2024-10-06T10:12:46Z</time>
      </trkpt>
      <trkpt lat="42.96535" lon="1.10833">
        <ele>452.4</ele>
        <time>2024-10-06T10:12:47Z</time>
      </trkpt>
      <trkpt lat="42.96534" lon="1.1083">
        <ele>452</ele>
        <time>2024-10-06T10:12:48Z</time>
      </trkpt>
      <trkpt lat="42.96533" lon="1.10828">
        <ele>451.6</ele>
        <time>2024-10-06T10:12:49Z</time>
      </trkpt>
      <trkpt lat="42.96534" lon="1.10826">
        <ele>451.2</ele>
        <time>2024-10-06T10:12:50Z</time>
      </trkpt>
      <trkpt lat="42.96536" lon="1.10825">
        <ele>450.8</ele>
        <time>2024-10-06T10:12:51Z</time>
      </trkpt>
      <trkpt lat="42.9654" lon="1.10821">
        <ele>450.4</ele>
        <time>2024-10-06T10:12:53Z</time>
      </trkpt>
      <trkpt lat="42.96541" lon="1.10821">
        <ele>449.8</ele>
        <time>2024-10-06T10:12:54Z</time>
      </trkpt>
      <trkpt lat="42.96542" lon="1.10819">
        <ele>446.2</ele>
        <time>2024-10-06T10:13:05Z</time>
      </trkpt>
      <trkpt lat="42.96546" lon="1.1082">
        <ele>446.2</ele>
        <time>2024-10-06T10:13:07Z</time>
      </trkpt>
      <trkpt lat="42.96548" lon="1.10823">
        <ele>446.2</ele>
        <time>2024-10-06T10:13:09Z</time>
      </trkpt>
      <trkpt lat="42.96551" lon="1.10827">
        <ele>446.2</ele>
        <time>2024-10-06T10:13:11Z</time>
      </trkpt>
      <trkpt lat="42.9656" lon="1.10834">
        <ele>446.2</ele>
        <time>2024-10-06T10:13:15Z</time>
      </trkpt>
      <trkpt lat="42.96574" lon="1.10849">
        <ele>446.2</ele>
        <time>2024-10-06T10:13:21Z</time>
      </trkpt>
      <trkpt lat="42.96583" lon="1.10862">
        <ele>446.2</ele>
        <time>2024-10-06T10:13:26Z</time>
      </trkpt>
      <trkpt lat="42.96594" lon="1.10873">
        <ele>446.2</ele>
        <time>2024-10-06T10:13:32Z</time>
      </trkpt>
      <trkpt lat="42.96596" lon="1.10876">
        <ele>446.6</ele>
        <time>2024-10-06T10:13:33Z</time>
      </trkpt>
      <trkpt lat="42.96598" lon="1.10878">
        <ele>447</ele>
        <time>2024-10-06T10:13:34Z</time>
      </trkpt>
      <trkpt lat="42.966" lon="1.10881">
        <ele>447.4</ele>
        <time>2024-10-06T10:13:35Z</time>
      </trkpt>
      <trkpt lat="42.96602" lon="1.10883">
        <ele>447.8</ele>
        <time>2024-10-06T10:13:36Z</time>
      </trkpt>
      <trkpt lat="42.96604" lon="1.10885">
        <ele>448.2</ele>
        <time>2024-10-06T10:13:37Z</time>
      </trkpt>
      <trkpt lat="42.96606" lon="1.10888">
        <ele>448.2</ele>
        <time>2024-10-06T10:13:38Z</time>
      </trkpt>
      <trkpt lat="42.96619" lon="1.10901">
        <ele>448.2</ele>
        <time>2024-10-06T10:13:44Z</time>
      </trkpt>
      <trkpt lat="42.96634" lon="1.10918">
        <ele>448.2</ele>
        <time>2024-10-06T10:13:49Z</time>
      </trkpt>
      <trkpt lat="42.96649" lon="1.10936">
        <ele>448.2</ele>
        <time>2024-10-06T10:13:54Z</time>
      </trkpt>
      <trkpt lat="42.96659" lon="1.10949">
        <ele>448.2</ele>
        <time>2024-10-06T10:13:57Z</time>
      </trkpt>
      <trkpt lat="42.96662" lon="1.10954">
        <ele>448.2</ele>
        <time>2024-10-06T10:13:58Z</time>
      </trkpt>
      <trkpt lat="42.96671" lon="1.1097">
        <ele>448.2</ele>
        <time>2024-10-06T10:14:01Z</time>
      </trkpt>
      <trkpt lat="42.96676" lon="1.10979">
        <ele>448.2</ele>
        <time>2024-10-06T10:14:03Z</time>
      </trkpt>
      <trkpt lat="42.96688" lon="1.10997">
        <ele>448.2</ele>
        <time>2024-10-06T10:14:08Z</time>
      </trkpt>
      <trkpt lat="42.96693" lon="1.11006">
        <ele>448.2</ele>
        <time>2024-10-06T10:14:11Z</time>
      </trkpt>
      <trkpt lat="42.96699" lon="1.11014">
        <ele>448.2</ele>
        <time>2024-10-06T10:14:14Z</time>
      </trkpt>
      <trkpt lat="42.96708" lon="1.1103">
        <ele>448.2</ele>
        <time>2024-10-06T10:14:19Z</time>
      </trkpt>
      <trkpt lat="42.96712" lon="1.1104">
        <ele>448.2</ele>
        <time>2024-10-06T10:14:23Z</time>
      </trkpt>
      <trkpt lat="42.96714" lon="1.11042">
        <ele>448.2</ele>
        <time>2024-10-06T10:14:24Z</time>
      </trkpt>
      <trkpt lat="42.96722" lon="1.11058">
        <ele>448.2</ele>
        <time>2024-10-06T10:14:29Z</time>
      </trkpt>
      <trkpt lat="42.96723" lon="1.11061">
        <ele>448.6</ele>
        <time>2024-10-06T10:14:30Z</time>
      </trkpt>
      <trkpt lat="42.96724" lon="1.11063">
        <ele>449</ele>
        <time>2024-10-06T10:14:31Z</time>
      </trkpt>
      <trkpt lat="42.96726" lon="1.11066">
        <ele>449.4</ele>
        <time>2024-10-06T10:14:32Z</time>
      </trkpt>
      <trkpt lat="42.96728" lon="1.11068">
        <ele>449.8</ele>
        <time>2024-10-06T10:14:33Z</time>
      </trkpt>
      <trkpt lat="42.9673" lon="1.11071">
        <ele>450.2</ele>
        <time>2024-10-06T10:14:34Z</time>
      </trkpt>
      <trkpt lat="42.96739" lon="1.1108">
        <ele>450.2</ele>
        <time>2024-10-06T10:14:38Z</time>
      </trkpt>
      <trkpt lat="42.96742" lon="1.11084">
        <ele>450.2</ele>
        <time>2024-10-06T10:14:40Z</time>
      </trkpt>
      <trkpt lat="42.96755" lon="1.11103">
        <ele>450.2</ele>
        <time>2024-10-06T10:14:46Z</time>
      </trkpt>
      <trkpt lat="42.96778" lon="1.11136">
        <ele>450.2</ele>
        <time>2024-10-06T10:14:54Z</time>
      </trkpt>
      <trkpt lat="42.96789" lon="1.11163">
        <ele>450.2</ele>
        <time>2024-10-06T10:14:59Z</time>
      </trkpt>
      <trkpt lat="42.96796" lon="1.11177">
        <ele>450.2</ele>
        <time>2024-10-06T10:15:02Z</time>
      </trkpt>
      <trkpt lat="42.96798" lon="1.11183">
        <ele>450.2</ele>
        <time>2024-10-06T10:15:03Z</time>
      </trkpt>
      <trkpt lat="42.96811" lon="1.1121">
        <ele>450.2</ele>
        <time>2024-10-06T10:15:09Z</time>
      </trkpt>
      <trkpt lat="42.96814" lon="1.1122">
        <ele>450.2</ele>
        <time>2024-10-06T10:15:12Z</time>
      </trkpt>
      <trkpt lat="42.96813" lon="1.11227">
        <ele>450.2</ele>
        <time>2024-10-06T10:15:14Z</time>
      </trkpt>
      <trkpt lat="42.96814" lon="1.11236">
        <ele>450.6</ele>
        <time>2024-10-06T10:15:17Z</time>
      </trkpt>
      <trkpt lat="42.96815" lon="1.11239">
        <ele>451.2</ele>
        <time>2024-10-06T10:15:18Z</time>
      </trkpt>
      <trkpt lat="42.96816" lon="1.11242">
        <ele>451.6</ele>
        <time>2024-10-06T10:15:19Z</time>
      </trkpt>
      <trkpt lat="42.96816" lon="1.11245">
        <ele>452</ele>
        <time>2024-10-06T10:15:20Z</time>
      </trkpt>
      <trkpt lat="42.96817" lon="1.11248">
        <ele>452.4</ele>
        <time>2024-10-06T10:15:21Z</time>
      </trkpt>
      <trkpt lat="42.96817" lon="1.11252">
        <ele>452.8</ele>
        <time>2024-10-06T10:15:22Z</time>
      </trkpt>
      <trkpt lat="42.96818" lon="1.11255">
        <ele>453.4</ele>
        <time>2024-10-06T10:15:23Z</time>
      </trkpt>
      <trkpt lat="42.9682" lon="1.11258">
        <ele>453.8</ele>
        <time>2024-10-06T10:15:24Z</time>
      </trkpt>
      <trkpt lat="42.96821" lon="1.11261">
        <ele>454.2</ele>
        <time>2024-10-06T10:15:25Z</time>
      </trkpt>
      <trkpt lat="42.96822" lon="1.11263">
        <ele>454.6</ele>
        <time>2024-10-06T10:15:26Z</time>
      </trkpt>
      <trkpt lat="42.96823" lon="1.11267">
        <ele>454.6</ele>
        <time>2024-10-06T10:15:27Z</time>
      </trkpt>
      <trkpt lat="42.96835" lon="1.11295">
        <ele>455</ele>
        <time>2024-10-06T10:15:34Z</time>
      </trkpt>
      <trkpt lat="42.96837" lon="1.113">
        <ele>455.4</ele>
        <time>2024-10-06T10:15:35Z</time>
      </trkpt>
      <trkpt lat="42.96839" lon="1.11305">
        <ele>455.8</ele>
        <time>2024-10-06T10:15:36Z</time>
      </trkpt>
      <trkpt lat="42.96841" lon="1.1131">
        <ele>456.2</ele>
        <time>2024-10-06T10:15:37Z</time>
      </trkpt>
      <trkpt lat="42.96843" lon="1.11314">
        <ele>456.6</ele>
        <time>2024-10-06T10:15:38Z</time>
      </trkpt>
      <trkpt lat="42.96847" lon="1.11323">
        <ele>456.6</ele>
        <time>2024-10-06T10:15:40Z</time>
      </trkpt>
      <trkpt lat="42.96858" lon="1.11349">
        <ele>456.6</ele>
        <time>2024-10-06T10:15:45Z</time>
      </trkpt>
      <trkpt lat="42.96867" lon="1.11385">
        <ele>456.6</ele>
        <time>2024-10-06T10:15:52Z</time>
      </trkpt>
      <trkpt lat="42.96874" lon="1.11409">
        <ele>456.6</ele>
        <time>2024-10-06T10:15:57Z</time>
      </trkpt>
      <trkpt lat="42.96878" lon="1.11423">
        <ele>457</ele>
        <time>2024-10-06T10:16:00Z</time>
      </trkpt>
      <trkpt lat="42.96879" lon="1.11428">
        <ele>457.4</ele>
        <time>2024-10-06T10:16:01Z</time>
      </trkpt>
      <trkpt lat="42.9688" lon="1.11433">
        <ele>457.8</ele>
        <time>2024-10-06T10:16:02Z</time>
      </trkpt>
      <trkpt lat="42.96881" lon="1.11438">
        <ele>458.4</ele>
        <time>2024-10-06T10:16:03Z</time>
      </trkpt>
      <trkpt lat="42.96883" lon="1.11442">
        <ele>458.8</ele>
        <time>2024-10-06T10:16:04Z</time>
      </trkpt>
      <trkpt lat="42.96885" lon="1.1145">
        <ele>458.8</ele>
        <time>2024-10-06T10:16:06Z</time>
      </trkpt>
      <trkpt lat="42.96887" lon="1.11465">
        <ele>459.2</ele>
        <time>2024-10-06T10:16:09Z</time>
      </trkpt>
      <trkpt lat="42.96888" lon="1.11469">
        <ele>459.6</ele>
        <time>2024-10-06T10:16:10Z</time>
      </trkpt>
      <trkpt lat="42.96889" lon="1.11474">
        <ele>460</ele>
        <time>2024-10-06T10:16:11Z</time>
      </trkpt>
      <trkpt lat="42.96889" lon="1.11477">
        <ele>460.4</ele>
        <time>2024-10-06T10:16:12Z</time>
      </trkpt>
      <trkpt lat="42.96891" lon="1.11481">
        <ele>460.8</ele>
        <time>2024-10-06T10:16:13Z</time>
      </trkpt>
      <trkpt lat="42.96892" lon="1.11487">
        <ele>460.8</ele>
        <time>2024-10-06T10:16:15Z</time>
      </trkpt>
      <trkpt lat="42.96897" lon="1.11507">
        <ele>460.8</ele>
        <time>2024-10-06T10:16:20Z</time>
      </trkpt>
      <trkpt lat="42.96904" lon="1.11534">
        <ele>460.8</ele>
        <time>2024-10-06T10:16:26Z</time>
      </trkpt>
      <trkpt lat="42.96907" lon="1.11554">
        <ele>460.8</ele>
        <time>2024-10-06T10:16:31Z</time>
      </trkpt>
      <trkpt lat="42.96908" lon="1.11561">
        <ele>460.8</ele>
        <time>2024-10-06T10:16:33Z</time>
      </trkpt>
      <trkpt lat="42.96909" lon="1.11565">
        <ele>461.2</ele>
        <time>2024-10-06T10:16:34Z</time>
      </trkpt>
      <trkpt lat="42.9691" lon="1.11569">
        <ele>461.6</ele>
        <time>2024-10-06T10:16:35Z</time>
      </trkpt>
      <trkpt lat="42.9691" lon="1.11573">
        <ele>462</ele>
        <time>2024-10-06T10:16:36Z</time>
      </trkpt>
      <trkpt lat="42.96912" lon="1.11576">
        <ele>462.4</ele>
        <time>2024-10-06T10:16:37Z</time>
      </trkpt>
      <trkpt lat="42.96913" lon="1.11581">
        <ele>463</ele>
        <time>2024-10-06T10:16:38Z</time>
      </trkpt>
      <trkpt lat="42.96916" lon="1.11589">
        <ele>463</ele>
        <time>2024-10-06T10:16:40Z</time>
      </trkpt>
      <trkpt lat="42.96919" lon="1.11612">
        <ele>463</ele>
        <time>2024-10-06T10:16:45Z</time>
      </trkpt>
      <trkpt lat="42.96921" lon="1.1163">
        <ele>463</ele>
        <time>2024-10-06T10:16:49Z</time>
      </trkpt>
      <trkpt lat="42.96923" lon="1.11654">
        <ele>463</ele>
        <time>2024-10-06T10:16:55Z</time>
      </trkpt>
      <trkpt lat="42.96926" lon="1.11678">
        <ele>463</ele>
        <time>2024-10-06T10:17:01Z</time>
      </trkpt>
      <trkpt lat="42.96925" lon="1.11684">
        <ele>463.4</ele>
        <time>2024-10-06T10:17:03Z</time>
      </trkpt>
      <trkpt lat="42.96925" lon="1.11687">
        <ele>463.8</ele>
        <time>2024-10-06T10:17:04Z</time>
      </trkpt>
      <trkpt lat="42.96926" lon="1.1169">
        <ele>464.2</ele>
        <time>2024-10-06T10:17:05Z</time>
      </trkpt>
      <trkpt lat="42.96927" lon="1.11694">
        <ele>464.6</ele>
        <time>2024-10-06T10:17:06Z</time>
      </trkpt>
      <trkpt lat="42.96928" lon="1.11699">
        <ele>465</ele>
        <time>2024-10-06T10:17:07Z</time>
      </trkpt>
      <trkpt lat="42.96931" lon="1.1171">
        <ele>465</ele>
        <time>2024-10-06T10:17:10Z</time>
      </trkpt>
      <trkpt lat="42.96931" lon="1.11714">
        <ele>465.6</ele>
        <time>2024-10-06T10:17:11Z</time>
      </trkpt>
      <trkpt lat="42.96932" lon="1.11718">
        <ele>466</ele>
        <time>2024-10-06T10:17:12Z</time>
      </trkpt>
      <trkpt lat="42.96932" lon="1.11722">
        <ele>466.4</ele>
        <time>2024-10-06T10:17:13Z</time>
      </trkpt>
      <trkpt lat="42.96933" lon="1.11725">
        <ele>466.8</ele>
        <time>2024-10-06T10:17:14Z</time>
      </trkpt>
      <trkpt lat="42.96933" lon="1.11727">
        <ele>467.2</ele>
        <time>2024-10-06T10:17:15Z</time>
      </trkpt>
      <trkpt lat="42.96934" lon="1.11729">
        <ele>467.2</ele>
        <time>2024-10-06T10:17:16Z</time>
      </trkpt>
      <trkpt lat="42.96938" lon="1.11741">
        <ele>467.2</ele>
        <time>2024-10-06T10:17:21Z</time>
      </trkpt>
      <trkpt lat="42.96938" lon="1.11744">
        <ele>467.6</ele>
        <time>2024-10-06T10:17:24Z</time>
      </trkpt>
      <trkpt lat="42.96938" lon="1.11745">
        <ele>468</ele>
        <time>2024-10-06T10:17:25Z</time>
      </trkpt>
      <trkpt lat="42.9694" lon="1.11765">
        <ele>469.4</ele>
        <time>2024-10-06T10:17:56Z</time>
      </trkpt>
      <trkpt lat="42.96941" lon="1.11767">
        <ele>469.4</ele>
        <time>2024-10-06T10:17:57Z</time>
      </trkpt>
      <trkpt lat="42.96941" lon="1.11769">
        <ele>469.8</ele>
        <time>2024-10-06T10:17:58Z</time>
      </trkpt>
      <trkpt lat="42.96941" lon="1.11772">
        <ele>470.2</ele>
        <time>2024-10-06T10:17:59Z</time>
      </trkpt>
      <trkpt lat="42.96942" lon="1.11775">
        <ele>470.6</ele>
        <time>2024-10-06T10:18:00Z</time>
      </trkpt>
      <trkpt lat="42.96942" lon="1.11778">
        <ele>471</ele>
        <time>2024-10-06T10:18:01Z</time>
      </trkpt>
      <trkpt lat="42.96942" lon="1.1178">
        <ele>471.4</ele>
        <time>2024-10-06T10:18:02Z</time>
      </trkpt>
      <trkpt lat="42.96941" lon="1.11782">
        <ele>471.4</ele>
        <time>2024-10-06T10:18:03Z</time>
      </trkpt>
      <trkpt lat="42.96941" lon="1.11787">
        <ele>471.4</ele>
        <time>2024-10-06T10:18:05Z</time>
      </trkpt>
      <trkpt lat="42.96941" lon="1.1179">
        <ele>471.8</ele>
        <time>2024-10-06T10:18:06Z</time>
      </trkpt>
      <trkpt lat="42.96942" lon="1.11793">
        <ele>472.2</ele>
        <time>2024-10-06T10:18:07Z</time>
      </trkpt>
      <trkpt lat="42.96942" lon="1.11796">
        <ele>472.8</ele>
        <time>2024-10-06T10:18:08Z</time>
      </trkpt>
      <trkpt lat="42.96942" lon="1.11798">
        <ele>473.2</ele>
        <time>2024-10-06T10:18:09Z</time>
      </trkpt>
      <trkpt lat="42.96943" lon="1.11801">
        <ele>473.6</ele>
        <time>2024-10-06T10:18:10Z</time>
      </trkpt>
      <trkpt lat="42.96943" lon="1.11804">
        <ele>473.6</ele>
        <time>2024-10-06T10:18:11Z</time>
      </trkpt>
      <trkpt lat="42.96945" lon="1.11817">
        <ele>473.6</ele>
        <time>2024-10-06T10:18:15Z</time>
      </trkpt>
      <trkpt lat="42.96946" lon="1.1182">
        <ele>473.6</ele>
        <time>2024-10-06T10:18:16Z</time>
      </trkpt>
      <trkpt lat="42.96947" lon="1.11836">
        <ele>474.4</ele>
        <time>2024-10-06T10:18:22Z</time>
      </trkpt>
      <trkpt lat="42.96948" lon="1.11839">
        <ele>474.8</ele>
        <time>2024-10-06T10:18:23Z</time>
      </trkpt>
      <trkpt lat="42.96948" lon="1.11841">
        <ele>475.2</ele>
        <time>2024-10-06T10:18:24Z</time>
      </trkpt>
      <trkpt lat="42.96948" lon="1.11844">
        <ele>475.6</ele>
        <time>2024-10-06T10:18:25Z</time>
      </trkpt>
      <trkpt lat="42.9695" lon="1.11853">
        <ele>475.6</ele>
        <time>2024-10-06T10:18:28Z</time>
      </trkpt>
      <trkpt lat="42.96949" lon="1.11862">
        <ele>475.6</ele>
        <time>2024-10-06T10:18:32Z</time>
      </trkpt>
      <trkpt lat="42.96949" lon="1.11862">
        <ele>475.6</ele>
        <time>2024-10-06T10:18:35Z</time>
      </trkpt>
      <trkpt lat="42.96949" lon="1.11871">
        <ele>476</ele>
        <time>2024-10-06T10:18:39Z</time>
      </trkpt>
      <trkpt lat="42.9695" lon="1.11875">
        <ele>476.4</ele>
        <time>2024-10-06T10:18:40Z</time>
      </trkpt>
      <trkpt lat="42.96951" lon="1.11878">
        <ele>476.8</ele>
        <time>2024-10-06T10:18:41Z</time>
      </trkpt>
      <trkpt lat="42.96951" lon="1.11881">
        <ele>477.2</ele>
        <time>2024-10-06T10:18:42Z</time>
      </trkpt>
      <trkpt lat="42.96952" lon="1.11885">
        <ele>477.6</ele>
        <time>2024-10-06T10:18:43Z</time>
      </trkpt>
      <trkpt lat="42.96952" lon="1.11892">
        <ele>477.6</ele>
        <time>2024-10-06T10:18:46Z</time>
      </trkpt>
      <trkpt lat="42.96954" lon="1.11906">
        <ele>477.6</ele>
        <time>2024-10-06T10:18:51Z</time>
      </trkpt>
      <trkpt lat="42.96955" lon="1.11917">
        <ele>478</ele>
        <time>2024-10-06T10:18:55Z</time>
      </trkpt>
      <trkpt lat="42.96955" lon="1.1192">
        <ele>478.6</ele>
        <time>2024-10-06T10:18:56Z</time>
      </trkpt>
      <trkpt lat="42.96956" lon="1.11923">
        <ele>479</ele>
        <time>2024-10-06T10:18:57Z</time>
      </trkpt>
      <trkpt lat="42.96957" lon="1.11927">
        <ele>479.4</ele>
        <time>2024-10-06T10:18:58Z</time>
      </trkpt>
      <trkpt lat="42.96957" lon="1.1193">
        <ele>479.8</ele>
        <time>2024-10-06T10:18:59Z</time>
      </trkpt>
      <trkpt lat="42.96959" lon="1.11937">
        <ele>479.8</ele>
        <time>2024-10-06T10:19:01Z</time>
      </trkpt>
      <trkpt lat="42.96961" lon="1.11954">
        <ele>479.8</ele>
        <time>2024-10-06T10:19:07Z</time>
      </trkpt>
      <trkpt lat="42.96963" lon="1.1197">
        <ele>479.8</ele>
        <time>2024-10-06T10:19:12Z</time>
      </trkpt>
      <trkpt lat="42.96963" lon="1.11973">
        <ele>479.8</ele>
        <time>2024-10-06T10:19:13Z</time>
      </trkpt>
      <trkpt lat="42.96964" lon="1.11975">
        <ele>480.2</ele>
        <time>2024-10-06T10:19:14Z</time>
      </trkpt>
      <trkpt lat="42.96965" lon="1.11978">
        <ele>480.8</ele>
        <time>2024-10-06T10:19:15Z</time>
      </trkpt>
      <trkpt lat="42.96965" lon="1.1198">
        <ele>481.2</ele>
        <time>2024-10-06T10:19:16Z</time>
      </trkpt>
      <trkpt lat="42.96966" lon="1.11984">
        <ele>481.6</ele>
        <time>2024-10-06T10:19:17Z</time>
      </trkpt>
      <trkpt lat="42.96968" lon="1.1199">
        <ele>482</ele>
        <time>2024-10-06T10:19:18Z</time>
      </trkpt>
      <trkpt lat="42.96975" lon="1.12009">
        <ele>482</ele>
        <time>2024-10-06T10:19:22Z</time>
      </trkpt>
      <trkpt lat="42.9698" lon="1.1203">
        <ele>482</ele>
        <time>2024-10-06T10:19:28Z</time>
      </trkpt>
      <trkpt lat="42.96983" lon="1.12043">
        <ele>482</ele>
        <time>2024-10-06T10:19:33Z</time>
      </trkpt>
      <trkpt lat="42.96984" lon="1.12058">
        <ele>482</ele>
        <time>2024-10-06T10:19:39Z</time>
      </trkpt>
      <trkpt lat="42.96992" lon="1.12073">
        <ele>482</ele>
        <time>2024-10-06T10:19:43Z</time>
      </trkpt>
      <trkpt lat="42.96996" lon="1.12084">
        <ele>482</ele>
        <time>2024-10-06T10:19:46Z</time>
      </trkpt>
      <trkpt lat="42.96997" lon="1.12086">
        <ele>482</ele>
        <time>2024-10-06T10:19:47Z</time>
      </trkpt>
      <trkpt lat="42.97001" lon="1.12097">
        <ele>482</ele>
        <time>2024-10-06T10:19:51Z</time>
      </trkpt>
      <trkpt lat="42.97005" lon="1.12104">
        <ele>482</ele>
        <time>2024-10-06T10:19:53Z</time>
      </trkpt>
      <trkpt lat="42.97008" lon="1.12111">
        <ele>482</ele>
        <time>2024-10-06T10:19:55Z</time>
      </trkpt>
      <trkpt lat="42.9701" lon="1.12115">
        <ele>481.6</ele>
        <time>2024-10-06T10:19:56Z</time>
      </trkpt>
      <trkpt lat="42.97011" lon="1.12119">
        <ele>481.2</ele>
        <time>2024-10-06T10:19:57Z</time>
      </trkpt>
      <trkpt lat="42.97012" lon="1.12122">
        <ele>480.8</ele>
        <time>2024-10-06T10:19:58Z</time>
      </trkpt>
      <trkpt lat="42.97013" lon="1.12125">
        <ele>480.4</ele>
        <time>2024-10-06T10:19:59Z</time>
      </trkpt>
      <trkpt lat="42.97013" lon="1.12128">
        <ele>480</ele>
        <time>2024-10-06T10:20:00Z</time>
      </trkpt>
      <trkpt lat="42.97016" lon="1.12138">
        <ele>480.4</ele>
        <time>2024-10-06T10:20:03Z</time>
      </trkpt>
      <trkpt lat="42.97017" lon="1.12141">
        <ele>480.8</ele>
        <time>2024-10-06T10:20:04Z</time>
      </trkpt>
      <trkpt lat="42.97018" lon="1.12144">
        <ele>481.2</ele>
        <time>2024-10-06T10:20:05Z</time>
      </trkpt>
      <trkpt lat="42.9702" lon="1.12146">
        <ele>481.6</ele>
        <time>2024-10-06T10:20:06Z</time>
      </trkpt>
      <trkpt lat="42.97021" lon="1.1215">
        <ele>482</ele>
        <time>2024-10-06T10:20:07Z</time>
      </trkpt>
      <trkpt lat="42.97024" lon="1.12157">
        <ele>482</ele>
        <time>2024-10-06T10:20:10Z</time>
      </trkpt>
      <trkpt lat="42.97026" lon="1.12161">
        <ele>482</ele>
        <time>2024-10-06T10:20:12Z</time>
      </trkpt>
      <trkpt lat="42.97026" lon="1.12164">
        <ele>482.6</ele>
        <time>2024-10-06T10:20:13Z</time>
      </trkpt>
      <trkpt lat="42.97027" lon="1.12167">
        <ele>483</ele>
        <time>2024-10-06T10:20:14Z</time>
      </trkpt>
      <trkpt lat="42.97028" lon="1.12168">
        <ele>483.4</ele>
        <time>2024-10-06T10:20:15Z</time>
      </trkpt>
      <trkpt lat="42.97028" lon="1.1217">
        <ele>483.8</ele>
        <time>2024-10-06T10:20:16Z</time>
      </trkpt>
      <trkpt lat="42.97029" lon="1.12173">
        <ele>484.2</ele>
        <time>2024-10-06T10:20:17Z</time>
      </trkpt>
      <trkpt lat="42.97029" lon="1.12174">
        <ele>484.2</ele>
        <time>2024-10-06T10:20:18Z</time>
      </trkpt>
      <trkpt lat="42.97029" lon="1.12177">
        <ele>484.2</ele>
        <time>2024-10-06T10:20:25Z</time>
      </trkpt>
      <trkpt lat="42.9703" lon="1.12179">
        <ele>484.2</ele>
        <time>2024-10-06T10:20:26Z</time>
      </trkpt>
      <trkpt lat="42.97032" lon="1.12183">
        <ele>484.2</ele>
        <time>2024-10-06T10:20:28Z</time>
      </trkpt>
      <trkpt lat="42.97032" lon="1.12184">
        <ele>484.6</ele>
        <time>2024-10-06T10:20:29Z</time>
      </trkpt>
      <trkpt lat="42.97033" lon="1.12187">
        <ele>485</ele>
        <time>2024-10-06T10:20:30Z</time>
      </trkpt>
      <trkpt lat="42.97034" lon="1.12187">
        <ele>485.4</ele>
        <time>2024-10-06T10:20:31Z</time>
      </trkpt>
      <trkpt lat="42.97038" lon="1.12193">
        <ele>486.2</ele>
        <time>2024-10-06T10:20:43Z</time>
      </trkpt>
      <trkpt lat="42.97043" lon="1.122">
        <ele>486.2</ele>
        <time>2024-10-06T10:20:46Z</time>
      </trkpt>
      <trkpt lat="42.97046" lon="1.12205">
        <ele>486.2</ele>
        <time>2024-10-06T10:20:48Z</time>
      </trkpt>
      <trkpt lat="42.97053" lon="1.12218">
        <ele>486.2</ele>
        <time>2024-10-06T10:20:53Z</time>
      </trkpt>
      <trkpt lat="42.97057" lon="1.12225">
        <ele>486.2</ele>
        <time>2024-10-06T10:20:57Z</time>
      </trkpt>
      <trkpt lat="42.97058" lon="1.12227">
        <ele>486.2</ele>
        <time>2024-10-06T10:20:59Z</time>
      </trkpt>
      <trkpt lat="42.97061" lon="1.12233">
        <ele>486.2</ele>
        <time>2024-10-06T10:21:02Z</time>
      </trkpt>
      <trkpt lat="42.97066" lon="1.12243">
        <ele>486.2</ele>
        <time>2024-10-06T10:21:07Z</time>
      </trkpt>
      <trkpt lat="42.97071" lon="1.12253">
        <ele>486.2</ele>
        <time>2024-10-06T10:21:12Z</time>
      </trkpt>
      <trkpt lat="42.97075" lon="1.1226">
        <ele>486.6</ele>
        <time>2024-10-06T10:21:15Z</time>
      </trkpt>
      <trkpt lat="42.97076" lon="1.12262">
        <ele>487</ele>
        <time>2024-10-06T10:21:16Z</time>
      </trkpt>
      <trkpt lat="42.97077" lon="1.12263">
        <ele>487.4</ele>
        <time>2024-10-06T10:21:17Z</time>
      </trkpt>
      <trkpt lat="42.97078" lon="1.12265">
        <ele>488</ele>
        <time>2024-10-06T10:21:18Z</time>
      </trkpt>
      <trkpt lat="42.97078" lon="1.12267">
        <ele>488.4</ele>
        <time>2024-10-06T10:21:19Z</time>
      </trkpt>
      <trkpt lat="42.9708" lon="1.12269">
        <ele>488.4</ele>
        <time>2024-10-06T10:21:21Z</time>
      </trkpt>
      <trkpt lat="42.97089" lon="1.12289">
        <ele>490.4</ele>
        <time>2024-10-06T10:21:56Z</time>
      </trkpt>
      <trkpt lat="42.97091" lon="1.12296">
        <ele>490.8</ele>
        <time>2024-10-06T10:21:59Z</time>
      </trkpt>
      <trkpt lat="42.97092" lon="1.12298">
        <ele>491.2</ele>
        <time>2024-10-06T10:22:00Z</time>
      </trkpt>
      <trkpt lat="42.97094" lon="1.123">
        <ele>491.6</ele>
        <time>2024-10-06T10:22:01Z</time>
      </trkpt>
      <trkpt lat="42.97095" lon="1.12302">
        <ele>492</ele>
        <time>2024-10-06T10:22:02Z</time>
      </trkpt>
      <trkpt lat="42.97097" lon="1.12305">
        <ele>492.4</ele>
        <time>2024-10-06T10:22:03Z</time>
      </trkpt>
      <trkpt lat="42.97101" lon="1.1231">
        <ele>492.8</ele>
        <time>2024-10-06T10:22:06Z</time>
      </trkpt>
      <trkpt lat="42.97102" lon="1.12313">
        <ele>493.2</ele>
        <time>2024-10-06T10:22:07Z</time>
      </trkpt>
      <trkpt lat="42.97103" lon="1.12315">
        <ele>493.6</ele>
        <time>2024-10-06T10:22:08Z</time>
      </trkpt>
      <trkpt lat="42.97104" lon="1.12318">
        <ele>494.2</ele>
        <time>2024-10-06T10:22:09Z</time>
      </trkpt>
      <trkpt lat="42.97105" lon="1.1232">
        <ele>494.6</ele>
        <time>2024-10-06T10:22:10Z</time>
      </trkpt>
      <trkpt lat="42.97107" lon="1.12327">
        <ele>495</ele>
        <time>2024-10-06T10:22:12Z</time>
      </trkpt>
      <trkpt lat="42.97108" lon="1.1233">
        <ele>495.4</ele>
        <time>2024-10-06T10:22:13Z</time>
      </trkpt>
      <trkpt lat="42.97108" lon="1.12332">
        <ele>495.8</ele>
        <time>2024-10-06T10:22:14Z</time>
      </trkpt>
      <trkpt lat="42.97109" lon="1.12334">
        <ele>496.2</ele>
        <time>2024-10-06T10:22:15Z</time>
      </trkpt>
      <trkpt lat="42.9711" lon="1.12337">
        <ele>496.6</ele>
        <time>2024-10-06T10:22:16Z</time>
      </trkpt>
      <trkpt lat="42.9711" lon="1.12339">
        <ele>496.6</ele>
        <time>2024-10-06T10:22:17Z</time>
      </trkpt>
      <trkpt lat="42.97109" lon="1.12341">
        <ele>497</ele>
        <time>2024-10-06T10:22:18Z</time>
      </trkpt>
      <trkpt lat="42.97109" lon="1.12343">
        <ele>497.4</ele>
        <time>2024-10-06T10:22:19Z</time>
      </trkpt>
      <trkpt lat="42.97109" lon="1.12345">
        <ele>497.8</ele>
        <time>2024-10-06T10:22:20Z</time>
      </trkpt>
      <trkpt lat="42.9711" lon="1.12346">
        <ele>498.2</ele>
        <time>2024-10-06T10:22:21Z</time>
      </trkpt>
      <trkpt lat="42.9711" lon="1.12348">
        <ele>498.6</ele>
        <time>2024-10-06T10:22:22Z</time>
      </trkpt>
      <trkpt lat="42.97111" lon="1.12348">
        <ele>498.6</ele>
        <time>2024-10-06T10:22:24Z</time>
      </trkpt>
      <trkpt lat="42.97113" lon="1.12349">
        <ele>498.6</ele>
        <time>2024-10-06T10:22:26Z</time>
      </trkpt>
      <trkpt lat="42.97115" lon="1.12357">
        <ele>498.6</ele>
        <time>2024-10-06T10:22:31Z</time>
      </trkpt>
      <trkpt lat="42.9712" lon="1.12371">
        <ele>498.6</ele>
        <time>2024-10-06T10:22:36Z</time>
      </trkpt>
      <trkpt lat="42.97133" lon="1.12383">
        <ele>498.6</ele>
        <time>2024-10-06T10:22:42Z</time>
      </trkpt>
      <trkpt lat="42.97136" lon="1.12388">
        <ele>498.6</ele>
        <time>2024-10-06T10:22:44Z</time>
      </trkpt>
      <trkpt lat="42.97144" lon="1.12395">
        <ele>498.6</ele>
        <time>2024-10-06T10:22:47Z</time>
      </trkpt>
      <trkpt lat="42.97159" lon="1.12402">
        <ele>498.6</ele>
        <time>2024-10-06T10:22:52Z</time>
      </trkpt>
      <trkpt lat="42.97161" lon="1.12403">
        <ele>498.6</ele>
        <time>2024-10-06T10:22:53Z</time>
      </trkpt>
      <trkpt lat="42.97163" lon="1.12405">
        <ele>498.6</ele>
        <time>2024-10-06T10:22:54Z</time>
      </trkpt>
      <trkpt lat="42.97167" lon="1.1241">
        <ele>498.6</ele>
        <time>2024-10-06T10:22:56Z</time>
      </trkpt>
      <trkpt lat="42.97179" lon="1.12421">
        <ele>498.6</ele>
        <time>2024-10-06T10:23:00Z</time>
      </trkpt>
      <trkpt lat="42.97189" lon="1.12427">
        <ele>498.6</ele>
        <time>2024-10-06T10:23:03Z</time>
      </trkpt>
      <trkpt lat="42.97192" lon="1.12428">
        <ele>498.2</ele>
        <time>2024-10-06T10:23:04Z</time>
      </trkpt>
      <trkpt lat="42.97195" lon="1.12429">
        <ele>497.8</ele>
        <time>2024-10-06T10:23:05Z</time>
      </trkpt>
      <trkpt lat="42.97198" lon="1.1243">
        <ele>497.4</ele>
        <time>2024-10-06T10:23:06Z</time>
      </trkpt>
      <trkpt lat="42.972" lon="1.12432">
        <ele>497</ele>
        <time>2024-10-06T10:23:07Z</time>
      </trkpt>
      <trkpt lat="42.97203" lon="1.12434">
        <ele>496.6</ele>
        <time>2024-10-06T10:23:08Z</time>
      </trkpt>
      <trkpt lat="42.97206" lon="1.12435">
        <ele>496.6</ele>
        <time>2024-10-06T10:23:09Z</time>
      </trkpt>
      <trkpt lat="42.97216" lon="1.1244">
        <ele>496.6</ele>
        <time>2024-10-06T10:23:12Z</time>
      </trkpt>
      <trkpt lat="42.97223" lon="1.12441">
        <ele>496.6</ele>
        <time>2024-10-06T10:23:14Z</time>
      </trkpt>
      <trkpt lat="42.9723" lon="1.12442">
        <ele>496.2</ele>
        <time>2024-10-06T10:23:16Z</time>
      </trkpt>
      <trkpt lat="42.97233" lon="1.12443">
        <ele>495.8</ele>
        <time>2024-10-06T10:23:17Z</time>
      </trkpt>
      <trkpt lat="42.97235" lon="1.12443">
        <ele>494.8</ele>
        <time>2024-10-06T10:23:18Z</time>
      </trkpt>
      <trkpt lat="42.97236" lon="1.12443">
        <ele>494.4</ele>
        <time>2024-10-06T10:23:19Z</time>
      </trkpt>
      <trkpt lat="42.97237" lon="1.12443">
        <ele>494.4</ele>
        <time>2024-10-06T10:23:20Z</time>
      </trkpt>
      <trkpt lat="42.97238" lon="1.12446">
        <ele>494.4</ele>
        <time>2024-10-06T10:23:27Z</time>
      </trkpt>
      <trkpt lat="42.97239" lon="1.12447">
        <ele>494.4</ele>
        <time>2024-10-06T10:23:28Z</time>
      </trkpt>
      <trkpt lat="42.97244" lon="1.1246">
        <ele>494.4</ele>
        <time>2024-10-06T10:23:32Z</time>
      </trkpt>
      <trkpt lat="42.97252" lon="1.12471">
        <ele>494.4</ele>
        <time>2024-10-06T10:23:35Z</time>
      </trkpt>
      <trkpt lat="42.97255" lon="1.12474">
        <ele>494.4</ele>
        <time>2024-10-06T10:23:36Z</time>
      </trkpt>
      <trkpt lat="42.9727" lon="1.12491">
        <ele>494.4</ele>
        <time>2024-10-06T10:23:41Z</time>
      </trkpt>
      <trkpt lat="42.97273" lon="1.12493">
        <ele>494.4</ele>
        <time>2024-10-06T10:23:42Z</time>
      </trkpt>
      <trkpt lat="42.97281" lon="1.12498">
        <ele>494.4</ele>
        <time>2024-10-06T10:23:45Z</time>
      </trkpt>
      <trkpt lat="42.97289" lon="1.12509">
        <ele>494.4</ele>
        <time>2024-10-06T10:23:49Z</time>
      </trkpt>
      <trkpt lat="42.97299" lon="1.12521">
        <ele>494.4</ele>
        <time>2024-10-06T10:23:53Z</time>
      </trkpt>
      <trkpt lat="42.97306" lon="1.1253">
        <ele>494.4</ele>
        <time>2024-10-06T10:23:56Z</time>
      </trkpt>
      <trkpt lat="42.9732" lon="1.1254">
        <ele>494.4</ele>
        <time>2024-10-06T10:24:00Z</time>
      </trkpt>
      <trkpt lat="42.97324" lon="1.12542">
        <ele>494</ele>
        <time>2024-10-06T10:24:01Z</time>
      </trkpt>
      <trkpt lat="42.97328" lon="1.12545">
        <ele>493.6</ele>
        <time>2024-10-06T10:24:02Z</time>
      </trkpt>
      <trkpt lat="42.97332" lon="1.12546">
        <ele>493.2</ele>
        <time>2024-10-06T10:24:03Z</time>
      </trkpt>
      <trkpt lat="42.97335" lon="1.12546">
        <ele>492.8</ele>
        <time>2024-10-06T10:24:04Z</time>
      </trkpt>
      <trkpt lat="42.9734" lon="1.12548">
        <ele>492.2</ele>
        <time>2024-10-06T10:24:05Z</time>
      </trkpt>
      <trkpt lat="42.97344" lon="1.1255">
        <ele>491.8</ele>
        <time>2024-10-06T10:24:06Z</time>
      </trkpt>
      <trkpt lat="42.97349" lon="1.12551">
        <ele>491.2</ele>
        <time>2024-10-06T10:24:07Z</time>
      </trkpt>
      <trkpt lat="42.97353" lon="1.12555">
        <ele>490.2</ele>
        <time>2024-10-06T10:24:08Z</time>
      </trkpt>
      <trkpt lat="42.97357" lon="1.1256">
        <ele>489.4</ele>
        <time>2024-10-06T10:24:09Z</time>
      </trkpt>
      <trkpt lat="42.97359" lon="1.12566">
        <ele>488.8</ele>
        <time>2024-10-06T10:24:10Z</time>
      </trkpt>
      <trkpt lat="42.9736" lon="1.12573">
        <ele>488.2</ele>
        <time>2024-10-06T10:24:11Z</time>
      </trkpt>
      <trkpt lat="42.97361" lon="1.12579">
        <ele>487.6</ele>
        <time>2024-10-06T10:24:12Z</time>
      </trkpt>
      <trkpt lat="42.97361" lon="1.12589">
        <ele>487.6</ele>
        <time>2024-10-06T10:24:14Z</time>
      </trkpt>
      <trkpt lat="42.97361" lon="1.12593">
        <ele>487.6</ele>
        <time>2024-10-06T10:24:15Z</time>
      </trkpt>
      <trkpt lat="42.97364" lon="1.12596">
        <ele>487.6</ele>
        <time>2024-10-06T10:24:16Z</time>
      </trkpt>
      <trkpt lat="42.97368" lon="1.12599">
        <ele>487</ele>
        <time>2024-10-06T10:24:17Z</time>
      </trkpt>
      <trkpt lat="42.97371" lon="1.126">
        <ele>486.6</ele>
        <time>2024-10-06T10:24:18Z</time>
      </trkpt>
      <trkpt lat="42.97374" lon="1.12602">
        <ele>486.2</ele>
        <time>2024-10-06T10:24:19Z</time>
      </trkpt>
      <trkpt lat="42.97377" lon="1.12606">
        <ele>485.8</ele>
        <time>2024-10-06T10:24:20Z</time>
      </trkpt>
      <trkpt lat="42.97378" lon="1.1261">
        <ele>485.2</ele>
        <time>2024-10-06T10:24:21Z</time>
      </trkpt>
      <trkpt lat="42.97381" lon="1.12614">
        <ele>484.8</ele>
        <time>2024-10-06T10:24:22Z</time>
      </trkpt>
      <trkpt lat="42.97383" lon="1.12617">
        <ele>484.2</ele>
        <time>2024-10-06T10:24:23Z</time>
      </trkpt>
      <trkpt lat="42.97387" lon="1.12621">
        <ele>483.6</ele>
        <time>2024-10-06T10:24:24Z</time>
      </trkpt>
      <trkpt lat="42.9739" lon="1.12625">
        <ele>483.2</ele>
        <time>2024-10-06T10:24:25Z</time>
      </trkpt>
      <trkpt lat="42.97393" lon="1.12627">
        <ele>482.8</ele>
        <time>2024-10-06T10:24:26Z</time>
      </trkpt>
      <trkpt lat="42.97395" lon="1.12627">
        <ele>482.2</ele>
        <time>2024-10-06T10:24:27Z</time>
      </trkpt>
      <trkpt lat="42.97398" lon="1.12626">
        <ele>481.8</ele>
        <time>2024-10-06T10:24:28Z</time>
      </trkpt>
      <trkpt lat="42.974" lon="1.12626">
        <ele>481.2</ele>
        <time>2024-10-06T10:24:29Z</time>
      </trkpt>
      <trkpt lat="42.97402" lon="1.12625">
        <ele>480.6</ele>
        <time>2024-10-06T10:24:30Z</time>
      </trkpt>
      <trkpt lat="42.97405" lon="1.12624">
        <ele>480</ele>
        <time>2024-10-06T10:24:31Z</time>
      </trkpt>
      <trkpt lat="42.97408" lon="1.12623">
        <ele>478.4</ele>
        <time>2024-10-06T10:24:32Z</time>
      </trkpt>
      <trkpt lat="42.97412" lon="1.12623">
        <ele>477.8</ele>
        <time>2024-10-06T10:24:33Z</time>
      </trkpt>
      <trkpt lat="42.97416" lon="1.12623">
        <ele>476.8</ele>
        <time>2024-10-06T10:24:34Z</time>
      </trkpt>
      <trkpt lat="42.9742" lon="1.12623">
        <ele>476</ele>
        <time>2024-10-06T10:24:35Z</time>
      </trkpt>
      <trkpt lat="42.97425" lon="1.12622">
        <ele>475</ele>
        <time>2024-10-06T10:24:36Z</time>
      </trkpt>
      <trkpt lat="42.97429" lon="1.12622">
        <ele>474.2</ele>
        <time>2024-10-06T10:24:37Z</time>
      </trkpt>
      <trkpt lat="42.97433" lon="1.12623">
        <ele>473.4</ele>
        <time>2024-10-06T10:24:38Z</time>
      </trkpt>
      <trkpt lat="42.97436" lon="1.12623">
        <ele>472.6</ele>
        <time>2024-10-06T10:24:39Z</time>
      </trkpt>
      <trkpt lat="42.9744" lon="1.12623">
        <ele>471.8</ele>
        <time>2024-10-06T10:24:40Z</time>
      </trkpt>
      <trkpt lat="42.97446" lon="1.12623">
        <ele>471</ele>
        <time>2024-10-06T10:24:41Z</time>
      </trkpt>
      <trkpt lat="42.97452" lon="1.12624">
        <ele>470.2</ele>
        <time>2024-10-06T10:24:42Z</time>
      </trkpt>
      <trkpt lat="42.97458" lon="1.12625">
        <ele>469.4</ele>
        <time>2024-10-06T10:24:43Z</time>
      </trkpt>
      <trkpt lat="42.97463" lon="1.12626">
        <ele>468.6</ele>
        <time>2024-10-06T10:24:44Z</time>
      </trkpt>
      <trkpt lat="42.97468" lon="1.12626">
        <ele>467.8</ele>
        <time>2024-10-06T10:24:45Z</time>
      </trkpt>
      <trkpt lat="42.97473" lon="1.12627">
        <ele>467</ele>
        <time>2024-10-06T10:24:46Z</time>
      </trkpt>
      <trkpt lat="42.97477" lon="1.12627">
        <ele>466.2</ele>
        <time>2024-10-06T10:24:47Z</time>
      </trkpt>
      <trkpt lat="42.9748" lon="1.12628">
        <ele>465.2</ele>
        <time>2024-10-06T10:24:48Z</time>
      </trkpt>
      <trkpt lat="42.97484" lon="1.12628">
        <ele>464.4</ele>
        <time>2024-10-06T10:24:49Z</time>
      </trkpt>
      <trkpt lat="42.97487" lon="1.12629">
        <ele>463.4</ele>
        <time>2024-10-06T10:24:50Z</time>
      </trkpt>
      <trkpt lat="42.97492" lon="1.1263">
        <ele>462.6</ele>
        <time>2024-10-06T10:24:51Z</time>
      </trkpt>
      <trkpt lat="42.97498" lon="1.12632">
        <ele>461.8</ele>
        <time>2024-10-06T10:24:52Z</time>
      </trkpt>
      <trkpt lat="42.97505" lon="1.12635">
        <ele>461</ele>
        <time>2024-10-06T10:24:53Z</time>
      </trkpt>
      <trkpt lat="42.9751" lon="1.12638">
        <ele>460</ele>
        <time>2024-10-06T10:24:54Z</time>
      </trkpt>
      <trkpt lat="42.97515" lon="1.12641">
        <ele>459</ele>
        <time>2024-10-06T10:24:55Z</time>
      </trkpt>
      <trkpt lat="42.97518" lon="1.12643">
        <ele>458.2</ele>
        <time>2024-10-06T10:24:56Z</time>
      </trkpt>
      <trkpt lat="42.97522" lon="1.12645">
        <ele>457.2</ele>
        <time>2024-10-06T10:24:57Z</time>
      </trkpt>
      <trkpt lat="42.97526" lon="1.12647">
        <ele>455.6</ele>
        <time>2024-10-06T10:24:58Z</time>
      </trkpt>
      <trkpt lat="42.9753" lon="1.1265">
        <ele>454.8</ele>
        <time>2024-10-06T10:24:59Z</time>
      </trkpt>
      <trkpt lat="42.97534" lon="1.12652">
        <ele>454</ele>
        <time>2024-10-06T10:25:00Z</time>
      </trkpt>
      <trkpt lat="42.97537" lon="1.12652">
        <ele>453.4</ele>
        <time>2024-10-06T10:25:01Z</time>
      </trkpt>
      <trkpt lat="42.97539" lon="1.12652">
        <ele>452.6</ele>
        <time>2024-10-06T10:25:02Z</time>
      </trkpt>
      <trkpt lat="42.9754" lon="1.12653">
        <ele>451.8</ele>
        <time>2024-10-06T10:25:03Z</time>
      </trkpt>
      <trkpt lat="42.97551" lon="1.1266">
        <ele>449.8</ele>
        <time>2024-10-06T10:28:07Z</time>
      </trkpt>
      <trkpt lat="42.97564" lon="1.12672">
        <ele>449.8</ele>
        <time>2024-10-06T10:28:11Z</time>
      </trkpt>
      <trkpt lat="42.97576" lon="1.12681">
        <ele>449.4</ele>
        <time>2024-10-06T10:28:14Z</time>
      </trkpt>
      <trkpt lat="42.9758" lon="1.12683">
        <ele>448.4</ele>
        <time>2024-10-06T10:28:15Z</time>
      </trkpt>
      <trkpt lat="42.97585" lon="1.12686">
        <ele>448</ele>
        <time>2024-10-06T10:28:16Z</time>
      </trkpt>
      <trkpt lat="42.9759" lon="1.1269">
        <ele>447.4</ele>
        <time>2024-10-06T10:28:17Z</time>
      </trkpt>
      <trkpt lat="42.97597" lon="1.12693">
        <ele>446.8</ele>
        <time>2024-10-06T10:28:18Z</time>
      </trkpt>
      <trkpt lat="42.97604" lon="1.12695">
        <ele>445.8</ele>
        <time>2024-10-06T10:28:19Z</time>
      </trkpt>
      <trkpt lat="42.97612" lon="1.12697">
        <ele>444.8</ele>
        <time>2024-10-06T10:28:20Z</time>
      </trkpt>
      <trkpt lat="42.9762" lon="1.12698">
        <ele>443.8</ele>
        <time>2024-10-06T10:28:21Z</time>
      </trkpt>
      <trkpt lat="42.97629" lon="1.127">
        <ele>442.6</ele>
        <time>2024-10-06T10:28:22Z</time>
      </trkpt>
      <trkpt lat="42.97637" lon="1.12703">
        <ele>441.4</ele>
        <time>2024-10-06T10:28:23Z</time>
      </trkpt>
      <trkpt lat="42.97646" lon="1.12706">
        <ele>440.2</ele>
        <time>2024-10-06T10:28:24Z</time>
      </trkpt>
      <trkpt lat="42.97654" lon="1.1271">
        <ele>439</ele>
        <time>2024-10-06T10:28:25Z</time>
      </trkpt>
      <trkpt lat="42.97662" lon="1.12715">
        <ele>437.8</ele>
        <time>2024-10-06T10:28:26Z</time>
      </trkpt>
      <trkpt lat="42.97669" lon="1.12722">
        <ele>436.6</ele>
        <time>2024-10-06T10:28:27Z</time>
      </trkpt>
      <trkpt lat="42.97675" lon="1.12729">
        <ele>435.8</ele>
        <time>2024-10-06T10:28:28Z</time>
      </trkpt>
      <trkpt lat="42.9768" lon="1.12737">
        <ele>434.8</ele>
        <time>2024-10-06T10:28:29Z</time>
      </trkpt>
      <trkpt lat="42.97685" lon="1.12745">
        <ele>434</ele>
        <time>2024-10-06T10:28:30Z</time>
      </trkpt>
      <trkpt lat="42.9769" lon="1.12752">
        <ele>433</ele>
        <time>2024-10-06T10:28:31Z</time>
      </trkpt>
      <trkpt lat="42.97695" lon="1.12758">
        <ele>432</ele>
        <time>2024-10-06T10:28:32Z</time>
      </trkpt>
      <trkpt lat="42.97714" lon="1.12778">
        <ele>432</ele>
        <time>2024-10-06T10:28:35Z</time>
      </trkpt>
      <trkpt lat="42.9772" lon="1.12784">
        <ele>431.6</ele>
        <time>2024-10-06T10:28:36Z</time>
      </trkpt>
      <trkpt lat="42.97727" lon="1.1279">
        <ele>431.2</ele>
        <time>2024-10-06T10:28:37Z</time>
      </trkpt>
      <trkpt lat="42.97734" lon="1.12794">
        <ele>430.8</ele>
        <time>2024-10-06T10:28:38Z</time>
      </trkpt>
      <trkpt lat="42.97741" lon="1.12799">
        <ele>430.4</ele>
        <time>2024-10-06T10:28:39Z</time>
      </trkpt>
      <trkpt lat="42.97747" lon="1.12803">
        <ele>429.4</ele>
        <time>2024-10-06T10:28:40Z</time>
      </trkpt>
      <trkpt lat="42.97753" lon="1.12809">
        <ele>428.4</ele>
        <time>2024-10-06T10:28:41Z</time>
      </trkpt>
      <trkpt lat="42.97759" lon="1.12814">
        <ele>427.6</ele>
        <time>2024-10-06T10:28:42Z</time>
      </trkpt>
      <trkpt lat="42.97764" lon="1.12821">
        <ele>426.4</ele>
        <time>2024-10-06T10:28:43Z</time>
      </trkpt>
      <trkpt lat="42.97769" lon="1.12829">
        <ele>425.2</ele>
        <time>2024-10-06T10:28:44Z</time>
      </trkpt>
      <trkpt lat="42.97774" lon="1.12838">
        <ele>424.2</ele>
        <time>2024-10-06T10:28:45Z</time>
      </trkpt>
      <trkpt lat="42.97778" lon="1.12847">
        <ele>423.4</ele>
        <time>2024-10-06T10:28:46Z</time>
      </trkpt>
      <trkpt lat="42.97782" lon="1.12855">
        <ele>422.4</ele>
        <time>2024-10-06T10:28:47Z</time>
      </trkpt>
      <trkpt lat="42.97787" lon="1.12864">
        <ele>421.6</ele>
        <time>2024-10-06T10:28:48Z</time>
      </trkpt>
      <trkpt lat="42.9779" lon="1.12873">
        <ele>420.8</ele>
        <time>2024-10-06T10:28:49Z</time>
      </trkpt>
      <trkpt lat="42.97793" lon="1.12882">
        <ele>419.8</ele>
        <time>2024-10-06T10:28:50Z</time>
      </trkpt>
      <trkpt lat="42.97796" lon="1.12891">
        <ele>419.8</ele>
        <time>2024-10-06T10:28:51Z</time>
      </trkpt>
      <trkpt lat="42.97797" lon="1.12899">
        <ele>419.8</ele>
        <time>2024-10-06T10:28:52Z</time>
      </trkpt>
      <trkpt lat="42.97801" lon="1.12914">
        <ele>419.8</ele>
        <time>2024-10-06T10:28:54Z</time>
      </trkpt>
      <trkpt lat="42.97813" lon="1.12936">
        <ele>419.8</ele>
        <time>2024-10-06T10:28:58Z</time>
      </trkpt>
      <trkpt lat="42.97822" lon="1.12949">
        <ele>419.8</ele>
        <time>2024-10-06T10:29:01Z</time>
      </trkpt>
      <trkpt lat="42.97847" lon="1.12979">
        <ele>419.8</ele>
        <time>2024-10-06T10:29:07Z</time>
      </trkpt>
      <trkpt lat="42.97863" lon="1.13002">
        <ele>419.8</ele>
        <time>2024-10-06T10:29:11Z</time>
      </trkpt>
      <trkpt lat="42.97866" lon="1.13008">
        <ele>419.8</ele>
        <time>2024-10-06T10:29:12Z</time>
      </trkpt>
      <trkpt lat="42.97872" lon="1.13019">
        <ele>419.8</ele>
        <time>2024-10-06T10:29:14Z</time>
      </trkpt>
      <trkpt lat="42.9788" lon="1.13034">
        <ele>419.8</ele>
        <time>2024-10-06T10:29:17Z</time>
      </trkpt>
      <trkpt lat="42.9788" lon="1.13038">
        <ele>419.8</ele>
        <time>2024-10-06T10:29:18Z</time>
      </trkpt>
      <trkpt lat="42.97875" lon="1.13044">
        <ele>419.8</ele>
        <time>2024-10-06T10:29:20Z</time>
      </trkpt>
      <trkpt lat="42.97872" lon="1.13048">
        <ele>420.4</ele>
        <time>2024-10-06T10:29:21Z</time>
      </trkpt>
      <trkpt lat="42.9787" lon="1.13052">
        <ele>420.8</ele>
        <time>2024-10-06T10:29:22Z</time>
      </trkpt>
      <trkpt lat="42.97869" lon="1.13057">
        <ele>421.2</ele>
        <time>2024-10-06T10:29:23Z</time>
      </trkpt>
      <trkpt lat="42.97869" lon="1.13061">
        <ele>421.8</ele>
        <time>2024-10-06T10:29:24Z</time>
      </trkpt>
      <trkpt lat="42.9787" lon="1.13065">
        <ele>422.2</ele>
        <time>2024-10-06T10:29:25Z</time>
      </trkpt>
      <trkpt lat="42.9787" lon="1.13069">
        <ele>422.8</ele>
        <time>2024-10-06T10:29:26Z</time>
      </trkpt>
      <trkpt lat="42.97871" lon="1.13073">
        <ele>423.4</ele>
        <time>2024-10-06T10:29:27Z</time>
      </trkpt>
      <trkpt lat="42.97872" lon="1.13077">
        <ele>424</ele>
        <time>2024-10-06T10:29:28Z</time>
      </trkpt>
      <trkpt lat="42.97873" lon="1.1308">
        <ele>425.4</ele>
        <time>2024-10-06T10:29:29Z</time>
      </trkpt>
      <trkpt lat="42.97873" lon="1.13083">
        <ele>426</ele>
        <time>2024-10-06T10:29:30Z</time>
      </trkpt>
      <trkpt lat="42.97873" lon="1.13086">
        <ele>426.6</ele>
        <time>2024-10-06T10:29:31Z</time>
      </trkpt>
      <trkpt lat="42.97874" lon="1.13089">
        <ele>427.2</ele>
        <time>2024-10-06T10:29:32Z</time>
      </trkpt>
      <trkpt lat="42.97874" lon="1.13093">
        <ele>427.8</ele>
        <time>2024-10-06T10:29:33Z</time>
      </trkpt>
      <trkpt lat="42.97875" lon="1.13097">
        <ele>428.4</ele>
        <time>2024-10-06T10:29:34Z</time>
      </trkpt>
      <trkpt lat="42.97875" lon="1.131">
        <ele>429</ele>
        <time>2024-10-06T10:29:35Z</time>
      </trkpt>
      <trkpt lat="42.97875" lon="1.13104">
        <ele>429.4</ele>
        <time>2024-10-06T10:29:36Z</time>
      </trkpt>
      <trkpt lat="42.97876" lon="1.13108">
        <ele>430</ele>
        <time>2024-10-06T10:29:37Z</time>
      </trkpt>
      <trkpt lat="42.97875" lon="1.13112">
        <ele>430.4</ele>
        <time>2024-10-06T10:29:38Z</time>
      </trkpt>
      <trkpt lat="42.97875" lon="1.13117">
        <ele>430.8</ele>
        <time>2024-10-06T10:29:39Z</time>
      </trkpt>
      <trkpt lat="42.97874" lon="1.13122">
        <ele>431.4</ele>
        <time>2024-10-06T10:29:40Z</time>
      </trkpt>
      <trkpt lat="42.97873" lon="1.13126">
        <ele>431.8</ele>
        <time>2024-10-06T10:29:41Z</time>
      </trkpt>
      <trkpt lat="42.97872" lon="1.13131">
        <ele>432.2</ele>
        <time>2024-10-06T10:29:42Z</time>
      </trkpt>
      <trkpt lat="42.97872" lon="1.13136">
        <ele>432.6</ele>
        <time>2024-10-06T10:29:43Z</time>
      </trkpt>
      <trkpt lat="42.97872" lon="1.1314">
        <ele>433</ele>
        <time>2024-10-06T10:29:45Z</time>
      </trkpt>
      <trkpt lat="42.97871" lon="1.13144">
        <ele>433.6</ele>
        <time>2024-10-06T10:29:46Z</time>
      </trkpt>
      <trkpt lat="42.97871" lon="1.13148">
        <ele>434</ele>
        <time>2024-10-06T10:29:47Z</time>
      </trkpt>
      <trkpt lat="42.9787" lon="1.13151">
        <ele>434.4</ele>
        <time>2024-10-06T10:29:48Z</time>
      </trkpt>
      <trkpt lat="42.9787" lon="1.13154">
        <ele>434.8</ele>
        <time>2024-10-06T10:29:49Z</time>
      </trkpt>
      <trkpt lat="42.9787" lon="1.13158">
        <ele>435.2</ele>
        <time>2024-10-06T10:29:50Z</time>
      </trkpt>
      <trkpt lat="42.9787" lon="1.13161">
        <ele>435.6</ele>
        <time>2024-10-06T10:29:51Z</time>
      </trkpt>
      <trkpt lat="42.97875" lon="1.13183">
        <ele>435.6</ele>
        <time>2024-10-06T10:29:57Z</time>
      </trkpt>
      <trkpt lat="42.97885" lon="1.132">
        <ele>435.6</ele>
        <time>2024-10-06T10:30:02Z</time>
      </trkpt>
      <trkpt lat="42.97899" lon="1.13221">
        <ele>435.6</ele>
        <time>2024-10-06T10:30:09Z</time>
      </trkpt>
      <trkpt lat="42.97903" lon="1.13232">
        <ele>435.6</ele>
        <time>2024-10-06T10:30:14Z</time>
      </trkpt>
      <trkpt lat="42.97906" lon="1.13244">
        <ele>435.6</ele>
        <time>2024-10-06T10:30:19Z</time>
      </trkpt>
      <trkpt lat="42.97903" lon="1.13249">
        <ele>435.6</ele>
        <time>2024-10-06T10:30:22Z</time>
      </trkpt>
      <trkpt lat="42.979" lon="1.13252">
        <ele>436</ele>
        <time>2024-10-06T10:30:24Z</time>
      </trkpt>
      <trkpt lat="42.97898" lon="1.13254">
        <ele>436.6</ele>
        <time>2024-10-06T10:30:25Z</time>
      </trkpt>
      <trkpt lat="42.97896" lon="1.13255">
        <ele>437</ele>
        <time>2024-10-06T10:30:26Z</time>
      </trkpt>
      <trkpt lat="42.97894" lon="1.13257">
        <ele>437.4</ele>
        <time>2024-10-06T10:30:27Z</time>
      </trkpt>
      <trkpt lat="42.97893" lon="1.13259">
        <ele>438</ele>
        <time>2024-10-06T10:30:28Z</time>
      </trkpt>
      <trkpt lat="42.9789" lon="1.13263">
        <ele>438.4</ele>
        <time>2024-10-06T10:30:30Z</time>
      </trkpt>
      <trkpt lat="42.97889" lon="1.13265">
        <ele>438.8</ele>
        <time>2024-10-06T10:30:31Z</time>
      </trkpt>
      <trkpt lat="42.97888" lon="1.13267">
        <ele>439.2</ele>
        <time>2024-10-06T10:30:32Z</time>
      </trkpt>
      <trkpt lat="42.97887" lon="1.13269">
        <ele>439.8</ele>
        <time>2024-10-06T10:30:33Z</time>
      </trkpt>
      <trkpt lat="42.97886" lon="1.13271">
        <ele>440.2</ele>
        <time>2024-10-06T10:30:34Z</time>
      </trkpt>
      <trkpt lat="42.97885" lon="1.13274">
        <ele>440.6</ele>
        <time>2024-10-06T10:30:36Z</time>
      </trkpt>
      <trkpt lat="42.97885" lon="1.13276">
        <ele>441</ele>
        <time>2024-10-06T10:30:37Z</time>
      </trkpt>
      <trkpt lat="42.97885" lon="1.13277">
        <ele>441.4</ele>
        <time>2024-10-06T10:30:38Z</time>
      </trkpt>
      <trkpt lat="42.97885" lon="1.13279">
        <ele>441.8</ele>
        <time>2024-10-06T10:30:39Z</time>
      </trkpt>
      <trkpt lat="42.97884" lon="1.1328">
        <ele>442.2</ele>
        <time>2024-10-06T10:30:40Z</time>
      </trkpt>
      <trkpt lat="42.97883" lon="1.13283">
        <ele>442.6</ele>
        <time>2024-10-06T10:30:42Z</time>
      </trkpt>
      <trkpt lat="42.97883" lon="1.13284">
        <ele>443</ele>
        <time>2024-10-06T10:30:43Z</time>
      </trkpt>
      <trkpt lat="42.97883" lon="1.13285">
        <ele>444</ele>
        <time>2024-10-06T10:30:44Z</time>
      </trkpt>
      <trkpt lat="42.97882" lon="1.13288">
        <ele>444.4</ele>
        <time>2024-10-06T10:30:45Z</time>
      </trkpt>
      <trkpt lat="42.9788" lon="1.13292">
        <ele>444.8</ele>
        <time>2024-10-06T10:30:47Z</time>
      </trkpt>
      <trkpt lat="42.97879" lon="1.13293">
        <ele>445.4</ele>
        <time>2024-10-06T10:30:48Z</time>
      </trkpt>
      <trkpt lat="42.97878" lon="1.13295">
        <ele>445.8</ele>
        <time>2024-10-06T10:30:49Z</time>
      </trkpt>
      <trkpt lat="42.97878" lon="1.13297">
        <ele>446.2</ele>
        <time>2024-10-06T10:30:50Z</time>
      </trkpt>
      <trkpt lat="42.97877" lon="1.13299">
        <ele>446.6</ele>
        <time>2024-10-06T10:30:51Z</time>
      </trkpt>
      <trkpt lat="42.97875" lon="1.13304">
        <ele>447.2</ele>
        <time>2024-10-06T10:30:54Z</time>
      </trkpt>
      <trkpt lat="42.97874" lon="1.13305">
        <ele>447.6</ele>
        <time>2024-10-06T10:30:55Z</time>
      </trkpt>
      <trkpt lat="42.97874" lon="1.13306">
        <ele>448</ele>
        <time>2024-10-06T10:30:56Z</time>
      </trkpt>
      <trkpt lat="42.97873" lon="1.13308">
        <ele>448.4</ele>
        <time>2024-10-06T10:30:57Z</time>
      </trkpt>
      <trkpt lat="42.97873" lon="1.1331">
        <ele>449</ele>
        <time>2024-10-06T10:30:58Z</time>
      </trkpt>
      <trkpt lat="42.9787" lon="1.13316">
        <ele>449.4</ele>
        <time>2024-10-06T10:31:00Z</time>
      </trkpt>
      <trkpt lat="42.97869" lon="1.13318">
        <ele>449.8</ele>
        <time>2024-10-06T10:31:01Z</time>
      </trkpt>
      <trkpt lat="42.97867" lon="1.13321">
        <ele>450.2</ele>
        <time>2024-10-06T10:31:02Z</time>
      </trkpt>
      <trkpt lat="42.97865" lon="1.13323">
        <ele>450.6</ele>
        <time>2024-10-06T10:31:03Z</time>
      </trkpt>
      <trkpt lat="42.97863" lon="1.13326">
        <ele>451</ele>
        <time>2024-10-06T10:31:04Z</time>
      </trkpt>
      <trkpt lat="42.97862" lon="1.13328">
        <ele>451.6</ele>
        <time>2024-10-06T10:31:05Z</time>
      </trkpt>
      <trkpt lat="42.9786" lon="1.13331">
        <ele>452.2</ele>
        <time>2024-10-06T10:31:06Z</time>
      </trkpt>
      <trkpt lat="42.97859" lon="1.13333">
        <ele>452.6</ele>
        <time>2024-10-06T10:31:07Z</time>
      </trkpt>
      <trkpt lat="42.97858" lon="1.13335">
        <ele>453.2</ele>
        <time>2024-10-06T10:31:08Z</time>
      </trkpt>
      <trkpt lat="42.97857" lon="1.13338">
        <ele>454</ele>
        <time>2024-10-06T10:31:09Z</time>
      </trkpt>
      <trkpt lat="42.97856" lon="1.13341">
        <ele>454.4</ele>
        <time>2024-10-06T10:31:10Z</time>
      </trkpt>
      <trkpt lat="42.97855" lon="1.13343">
        <ele>454.8</ele>
        <time>2024-10-06T10:31:11Z</time>
      </trkpt>
      <trkpt lat="42.97854" lon="1.13346">
        <ele>455.2</ele>
        <time>2024-10-06T10:31:12Z</time>
      </trkpt>
      <trkpt lat="42.97853" lon="1.13347">
        <ele>455.6</ele>
        <time>2024-10-06T10:31:13Z</time>
      </trkpt>
      <trkpt lat="42.97851" lon="1.1335">
        <ele>456.2</ele>
        <time>2024-10-06T10:31:14Z</time>
      </trkpt>
      <trkpt lat="42.97851" lon="1.13352">
        <ele>456.6</ele>
        <time>2024-10-06T10:31:15Z</time>
      </trkpt>
      <trkpt lat="42.97849" lon="1.13354">
        <ele>457</ele>
        <time>2024-10-06T10:31:16Z</time>
      </trkpt>
      <trkpt lat="42.97848" lon="1.13356">
        <ele>457.6</ele>
        <time>2024-10-06T10:31:17Z</time>
      </trkpt>
      <trkpt lat="42.97848" lon="1.13359">
        <ele>458</ele>
        <time>2024-10-06T10:31:18Z</time>
      </trkpt>
      <trkpt lat="42.97847" lon="1.13361">
        <ele>458.6</ele>
        <time>2024-10-06T10:31:19Z</time>
      </trkpt>
      <trkpt lat="42.97847" lon="1.13365">
        <ele>459</ele>
        <time>2024-10-06T10:31:20Z</time>
      </trkpt>
      <trkpt lat="42.97846" lon="1.13368">
        <ele>459.6</ele>
        <time>2024-10-06T10:31:21Z</time>
      </trkpt>
      <trkpt lat="42.97847" lon="1.1337">
        <ele>460</ele>
        <time>2024-10-06T10:31:22Z</time>
      </trkpt>
      <trkpt lat="42.9785" lon="1.1337">
        <ele>460.4</ele>
        <time>2024-10-06T10:31:24Z</time>
      </trkpt>
      <trkpt lat="42.97853" lon="1.1337">
        <ele>460.8</ele>
        <time>2024-10-06T10:31:25Z</time>
      </trkpt>
      <trkpt lat="42.97856" lon="1.1337">
        <ele>461.2</ele>
        <time>2024-10-06T10:31:26Z</time>
      </trkpt>
      <trkpt lat="42.97859" lon="1.13369">
        <ele>461.6</ele>
        <time>2024-10-06T10:31:27Z</time>
      </trkpt>
      <trkpt lat="42.97861" lon="1.13368">
        <ele>462</ele>
        <time>2024-10-06T10:31:28Z</time>
      </trkpt>
      <trkpt lat="42.97864" lon="1.13368">
        <ele>462</ele>
        <time>2024-10-06T10:31:29Z</time>
      </trkpt>
      <trkpt lat="42.97872" lon="1.13366">
        <ele>461.6</ele>
        <time>2024-10-06T10:31:31Z</time>
      </trkpt>
      <trkpt lat="42.97876" lon="1.13365">
        <ele>461</ele>
        <time>2024-10-06T10:31:32Z</time>
      </trkpt>
      <trkpt lat="42.97881" lon="1.13365">
        <ele>460.6</ele>
        <time>2024-10-06T10:31:33Z</time>
      </trkpt>
      <trkpt lat="42.97886" lon="1.13364">
        <ele>459.4</ele>
        <time>2024-10-06T10:31:34Z</time>
      </trkpt>
      <trkpt lat="42.97891" lon="1.13362">
        <ele>458.8</ele>
        <time>2024-10-06T10:31:35Z</time>
      </trkpt>
      <trkpt lat="42.97895" lon="1.13362">
        <ele>458.2</ele>
        <time>2024-10-06T10:31:36Z</time>
      </trkpt>
      <trkpt lat="42.97899" lon="1.13362">
        <ele>457.6</ele>
        <time>2024-10-06T10:31:37Z</time>
      </trkpt>
      <trkpt lat="42.97904" lon="1.13362">
        <ele>457</ele>
        <time>2024-10-06T10:31:38Z</time>
      </trkpt>
      <trkpt lat="42.97909" lon="1.13364">
        <ele>456.6</ele>
        <time>2024-10-06T10:31:39Z</time>
      </trkpt>
      <trkpt lat="42.97914" lon="1.13365">
        <ele>456.2</ele>
        <time>2024-10-06T10:31:40Z</time>
      </trkpt>
      <trkpt lat="42.97919" lon="1.13367">
        <ele>455.8</ele>
        <time>2024-10-06T10:31:41Z</time>
      </trkpt>
      <trkpt lat="42.97923" lon="1.13368">
        <ele>455.2</ele>
        <time>2024-10-06T10:31:42Z</time>
      </trkpt>
      <trkpt lat="42.97926" lon="1.1337">
        <ele>454.8</ele>
        <time>2024-10-06T10:31:43Z</time>
      </trkpt>
      <trkpt lat="42.9793" lon="1.13372">
        <ele>454.2</ele>
        <time>2024-10-06T10:31:44Z</time>
      </trkpt>
      <trkpt lat="42.97934" lon="1.13373">
        <ele>453.8</ele>
        <time>2024-10-06T10:31:45Z</time>
      </trkpt>
      <trkpt lat="42.97937" lon="1.13372">
        <ele>453.2</ele>
        <time>2024-10-06T10:31:46Z</time>
      </trkpt>
      <trkpt lat="42.97941" lon="1.13372">
        <ele>452.6</ele>
        <time>2024-10-06T10:31:47Z</time>
      </trkpt>
      <trkpt lat="42.97945" lon="1.13372">
        <ele>452</ele>
        <time>2024-10-06T10:31:48Z</time>
      </trkpt>
      <trkpt lat="42.97948" lon="1.13373">
        <ele>451.4</ele>
        <time>2024-10-06T10:31:49Z</time>
      </trkpt>
      <trkpt lat="42.97953" lon="1.13376">
        <ele>450.8</ele>
        <time>2024-10-06T10:31:50Z</time>
      </trkpt>
      <trkpt lat="42.97958" lon="1.13379">
        <ele>450</ele>
        <time>2024-10-06T10:31:51Z</time>
      </trkpt>
      <trkpt lat="42.97963" lon="1.13382">
        <ele>449.4</ele>
        <time>2024-10-06T10:31:52Z</time>
      </trkpt>
      <trkpt lat="42.97969" lon="1.13383">
        <ele>448.6</ele>
        <time>2024-10-06T10:31:53Z</time>
      </trkpt>
      <trkpt lat="42.97973" lon="1.13384">
        <ele>448</ele>
        <time>2024-10-06T10:31:54Z</time>
      </trkpt>
      <trkpt lat="42.97977" lon="1.13385">
        <ele>447.4</ele>
        <time>2024-10-06T10:31:55Z</time>
      </trkpt>
      <trkpt lat="42.97981" lon="1.13385">
        <ele>446.8</ele>
        <time>2024-10-06T10:31:56Z</time>
      </trkpt>
      <trkpt lat="42.97986" lon="1.13388">
        <ele>446</ele>
        <time>2024-10-06T10:31:57Z</time>
      </trkpt>
      <trkpt lat="42.97991" lon="1.13388">
        <ele>445.4</ele>
        <time>2024-10-06T10:31:58Z</time>
      </trkpt>
      <trkpt lat="42.97995" lon="1.13389">
        <ele>443.8</ele>
        <time>2024-10-06T10:31:59Z</time>
      </trkpt>
      <trkpt lat="42.98" lon="1.13389">
        <ele>443</ele>
        <time>2024-10-06T10:32:00Z</time>
      </trkpt>
      <trkpt lat="42.98004" lon="1.1339">
        <ele>442.4</ele>
        <time>2024-10-06T10:32:01Z</time>
      </trkpt>
      <trkpt lat="42.98009" lon="1.13392">
        <ele>441.4</ele>
        <time>2024-10-06T10:32:02Z</time>
      </trkpt>
      <trkpt lat="42.98013" lon="1.13397">
        <ele>440.6</ele>
        <time>2024-10-06T10:32:03Z</time>
      </trkpt>
      <trkpt lat="42.98018" lon="1.13403">
        <ele>439.8</ele>
        <time>2024-10-06T10:32:04Z</time>
      </trkpt>
      <trkpt lat="42.98022" lon="1.13407">
        <ele>439</ele>
        <time>2024-10-06T10:32:05Z</time>
      </trkpt>
      <trkpt lat="42.98025" lon="1.13408">
        <ele>438.4</ele>
        <time>2024-10-06T10:32:06Z</time>
      </trkpt>
      <trkpt lat="42.98027" lon="1.13405">
        <ele>437.6</ele>
        <time>2024-10-06T10:32:07Z</time>
      </trkpt>
      <trkpt lat="42.9803" lon="1.134">
        <ele>436.8</ele>
        <time>2024-10-06T10:32:08Z</time>
      </trkpt>
      <trkpt lat="42.98034" lon="1.13395">
        <ele>436</ele>
        <time>2024-10-06T10:32:09Z</time>
      </trkpt>
      <trkpt lat="42.98039" lon="1.1339">
        <ele>435.4</ele>
        <time>2024-10-06T10:32:10Z</time>
      </trkpt>
      <trkpt lat="42.98043" lon="1.13383">
        <ele>434.6</ele>
        <time>2024-10-06T10:32:11Z</time>
      </trkpt>
      <trkpt lat="42.98047" lon="1.13379">
        <ele>433.8</ele>
        <time>2024-10-06T10:32:12Z</time>
      </trkpt>
      <trkpt lat="42.9805" lon="1.13375">
        <ele>433</ele>
        <time>2024-10-06T10:32:13Z</time>
      </trkpt>
      <trkpt lat="42.98054" lon="1.1337">
        <ele>432.4</ele>
        <time>2024-10-06T10:32:14Z</time>
      </trkpt>
      <trkpt lat="42.98057" lon="1.13367">
        <ele>431.6</ele>
        <time>2024-10-06T10:32:15Z</time>
      </trkpt>
      <trkpt lat="42.9806" lon="1.1336">
        <ele>430.8</ele>
        <time>2024-10-06T10:32:16Z</time>
      </trkpt>
      <trkpt lat="42.98062" lon="1.13354">
        <ele>430</ele>
        <time>2024-10-06T10:32:17Z</time>
      </trkpt>
      <trkpt lat="42.98064" lon="1.13346">
        <ele>429</ele>
        <time>2024-10-06T10:32:18Z</time>
      </trkpt>
      <trkpt lat="42.98065" lon="1.13338">
        <ele>428.2</ele>
        <time>2024-10-06T10:32:19Z</time>
      </trkpt>
      <trkpt lat="42.98065" lon="1.1333">
        <ele>427.4</ele>
        <time>2024-10-06T10:32:20Z</time>
      </trkpt>
      <trkpt lat="42.98066" lon="1.13323">
        <ele>426.6</ele>
        <time>2024-10-06T10:32:21Z</time>
      </trkpt>
      <trkpt lat="42.98067" lon="1.13316">
        <ele>425.8</ele>
        <time>2024-10-06T10:32:22Z</time>
      </trkpt>
      <trkpt lat="42.9807" lon="1.1331">
        <ele>424.2</ele>
        <time>2024-10-06T10:32:23Z</time>
      </trkpt>
      <trkpt lat="42.98072" lon="1.13308">
        <ele>423.4</ele>
        <time>2024-10-06T10:32:24Z</time>
      </trkpt>
      <trkpt lat="42.98074" lon="1.13307">
        <ele>422.6</ele>
        <time>2024-10-06T10:32:25Z</time>
      </trkpt>
      <trkpt lat="42.98077" lon="1.13308">
        <ele>421.8</ele>
        <time>2024-10-06T10:32:26Z</time>
      </trkpt>
      <trkpt lat="42.98079" lon="1.13309">
        <ele>421.8</ele>
        <time>2024-10-06T10:32:27Z</time>
      </trkpt>
      <trkpt lat="42.98082" lon="1.1331">
        <ele>421.8</ele>
        <time>2024-10-06T10:32:28Z</time>
      </trkpt>
      <trkpt lat="42.98092" lon="1.13314">
        <ele>421.4</ele>
        <time>2024-10-06T10:32:31Z</time>
      </trkpt>
      <trkpt lat="42.98096" lon="1.13316">
        <ele>421</ele>
        <time>2024-10-06T10:32:32Z</time>
      </trkpt>
      <trkpt lat="42.981" lon="1.13318">
        <ele>420.6</ele>
        <time>2024-10-06T10:32:33Z</time>
      </trkpt>
      <trkpt lat="42.98104" lon="1.13321">
        <ele>420.2</ele>
        <time>2024-10-06T10:32:34Z</time>
      </trkpt>
      <trkpt lat="42.98108" lon="1.13324">
        <ele>419.6</ele>
        <time>2024-10-06T10:32:35Z</time>
      </trkpt>
      <trkpt lat="42.98119" lon="1.1333">
        <ele>419.6</ele>
        <time>2024-10-06T10:32:38Z</time>
      </trkpt>
      <trkpt lat="42.98123" lon="1.13333">
        <ele>419.6</ele>
        <time>2024-10-06T10:32:39Z</time>
      </trkpt>
      <trkpt lat="42.98143" lon="1.13346">
        <ele>419.6</ele>
        <time>2024-10-06T10:32:44Z</time>
      </trkpt>
      <trkpt lat="42.98151" lon="1.13351">
        <ele>419.6</ele>
        <time>2024-10-06T10:32:46Z</time>
      </trkpt>
      <trkpt lat="42.98159" lon="1.13357">
        <ele>419.2</ele>
        <time>2024-10-06T10:32:48Z</time>
      </trkpt>
      <trkpt lat="42.98163" lon="1.1336">
        <ele>418.8</ele>
        <time>2024-10-06T10:32:49Z</time>
      </trkpt>
      <trkpt lat="42.98167" lon="1.13362">
        <ele>418.4</ele>
        <time>2024-10-06T10:32:50Z</time>
      </trkpt>
      <trkpt lat="42.9817" lon="1.13365">
        <ele>418</ele>
        <time>2024-10-06T10:32:51Z</time>
      </trkpt>
      <trkpt lat="42.98174" lon="1.13368">
        <ele>417.6</ele>
        <time>2024-10-06T10:32:52Z</time>
      </trkpt>
      <trkpt lat="42.98181" lon="1.13373">
        <ele>417.6</ele>
        <time>2024-10-06T10:32:54Z</time>
      </trkpt>
      <trkpt lat="42.98196" lon="1.13385">
        <ele>417.6</ele>
        <time>2024-10-06T10:32:58Z</time>
      </trkpt>
      <trkpt lat="42.9821" lon="1.13397">
        <ele>417.6</ele>
        <time>2024-10-06T10:33:02Z</time>
      </trkpt>
      <trkpt lat="42.98217" lon="1.13406">
        <ele>417.6</ele>
        <time>2024-10-06T10:33:04Z</time>
      </trkpt>
      <trkpt lat="42.98228" lon="1.13422">
        <ele>417.6</ele>
        <time>2024-10-06T10:33:07Z</time>
      </trkpt>
      <trkpt lat="42.98252" lon="1.13456">
        <ele>417.6</ele>
        <time>2024-10-06T10:33:14Z</time>
      </trkpt>
      <trkpt lat="42.9826" lon="1.13464">
        <ele>417.2</ele>
        <time>2024-10-06T10:33:16Z</time>
      </trkpt>
      <trkpt lat="42.98263" lon="1.13469">
        <ele>416.8</ele>
        <time>2024-10-06T10:33:17Z</time>
      </trkpt>
      <trkpt lat="42.98267" lon="1.13474">
        <ele>416.4</ele>
        <time>2024-10-06T10:33:18Z</time>
      </trkpt>
      <trkpt lat="42.98271" lon="1.13478">
        <ele>416</ele>
        <time>2024-10-06T10:33:19Z</time>
      </trkpt>
      <trkpt lat="42.98275" lon="1.13483">
        <ele>415.6</ele>
        <time>2024-10-06T10:33:20Z</time>
      </trkpt>
      <trkpt lat="42.98278" lon="1.13487">
        <ele>415.6</ele>
        <time>2024-10-06T10:33:21Z</time>
      </trkpt>
      <trkpt lat="42.98308" lon="1.13533">
        <ele>415.6</ele>
        <time>2024-10-06T10:33:30Z</time>
      </trkpt>
      <trkpt lat="42.98324" lon="1.13569">
        <ele>415.6</ele>
        <time>2024-10-06T10:33:36Z</time>
      </trkpt>
      <trkpt lat="42.98329" lon="1.13583">
        <ele>415.6</ele>
        <time>2024-10-06T10:33:38Z</time>
      </trkpt>
      <trkpt lat="42.98336" lon="1.13602">
        <ele>415.6</ele>
        <time>2024-10-06T10:33:41Z</time>
      </trkpt>
      <trkpt lat="42.98348" lon="1.13636">
        <ele>415.6</ele>
        <time>2024-10-06T10:33:46Z</time>
      </trkpt>
      <trkpt lat="42.98359" lon="1.13663">
        <ele>415.2</ele>
        <time>2024-10-06T10:33:50Z</time>
      </trkpt>
      <trkpt lat="42.98361" lon="1.1367">
        <ele>414.8</ele>
        <time>2024-10-06T10:33:51Z</time>
      </trkpt>
      <trkpt lat="42.98363" lon="1.13676">
        <ele>414.4</ele>
        <time>2024-10-06T10:33:52Z</time>
      </trkpt>
      <trkpt lat="42.98366" lon="1.13682">
        <ele>414</ele>
        <time>2024-10-06T10:33:53Z</time>
      </trkpt>
      <trkpt lat="42.98369" lon="1.13689">
        <ele>413.6</ele>
        <time>2024-10-06T10:33:54Z</time>
      </trkpt>
      <trkpt lat="42.98385" lon="1.13733">
        <ele>413.6</ele>
        <time>2024-10-06T10:34:01Z</time>
      </trkpt>
      <trkpt lat="42.98394" lon="1.13779">
        <ele>413.6</ele>
        <time>2024-10-06T10:34:08Z</time>
      </trkpt>
      <trkpt lat="42.98398" lon="1.13813">
        <ele>413.6</ele>
        <time>2024-10-06T10:34:13Z</time>
      </trkpt>
      <trkpt lat="42.98401" lon="1.13825">
        <ele>413.6</ele>
        <time>2024-10-06T10:34:15Z</time>
      </trkpt>
      <trkpt lat="42.98413" lon="1.13862">
        <ele>413.6</ele>
        <time>2024-10-06T10:34:21Z</time>
      </trkpt>
      <trkpt lat="42.98434" lon="1.13909">
        <ele>413.6</ele>
        <time>2024-10-06T10:34:29Z</time>
      </trkpt>
      <trkpt lat="42.98447" lon="1.13947">
        <ele>413.6</ele>
        <time>2024-10-06T10:34:35Z</time>
      </trkpt>
      <trkpt lat="42.9845" lon="1.13953">
        <ele>413.6</ele>
        <time>2024-10-06T10:34:36Z</time>
      </trkpt>
      <trkpt lat="42.98455" lon="1.13965">
        <ele>413.2</ele>
        <time>2024-10-06T10:34:38Z</time>
      </trkpt>
      <trkpt lat="42.98458" lon="1.13971">
        <ele>412.8</ele>
        <time>2024-10-06T10:34:39Z</time>
      </trkpt>
      <trkpt lat="42.9846" lon="1.13976">
        <ele>412.4</ele>
        <time>2024-10-06T10:34:40Z</time>
      </trkpt>
      <trkpt lat="42.98463" lon="1.13982">
        <ele>411.8</ele>
        <time>2024-10-06T10:34:41Z</time>
      </trkpt>
      <trkpt lat="42.98465" lon="1.13987">
        <ele>411.4</ele>
        <time>2024-10-06T10:34:42Z</time>
      </trkpt>
      <trkpt lat="42.98471" lon="1.1401">
        <ele>411.4</ele>
        <time>2024-10-06T10:34:47Z</time>
      </trkpt>
      <trkpt lat="42.98478" lon="1.14033">
        <ele>411.4</ele>
        <time>2024-10-06T10:34:52Z</time>
      </trkpt>
      <trkpt lat="42.98489" lon="1.14058">
        <ele>411.4</ele>
        <time>2024-10-06T10:34:58Z</time>
      </trkpt>
      <trkpt lat="42.98492" lon="1.14062">
        <ele>411.4</ele>
        <time>2024-10-06T10:34:59Z</time>
      </trkpt>
      <trkpt lat="42.98496" lon="1.14064">
        <ele>411.4</ele>
        <time>2024-10-06T10:35:00Z</time>
      </trkpt>
      <trkpt lat="42.98504" lon="1.14061">
        <ele>411.4</ele>
        <time>2024-10-06T10:35:02Z</time>
      </trkpt>
      <trkpt lat="42.98513" lon="1.14057">
        <ele>411.4</ele>
        <time>2024-10-06T10:35:04Z</time>
      </trkpt>
      <trkpt lat="42.98534" lon="1.14043">
        <ele>411.4</ele>
        <time>2024-10-06T10:35:09Z</time>
      </trkpt>
      <trkpt lat="42.9856" lon="1.14027">
        <ele>411.4</ele>
        <time>2024-10-06T10:35:16Z</time>
      </trkpt>
      <trkpt lat="42.9858" lon="1.14013">
        <ele>411.4</ele>
        <time>2024-10-06T10:35:22Z</time>
      </trkpt>
      <trkpt lat="42.98586" lon="1.14011">
        <ele>411.4</ele>
        <time>2024-10-06T10:35:25Z</time>
      </trkpt>
      <trkpt lat="42.98591" lon="1.14009">
        <ele>411.4</ele>
        <time>2024-10-06T10:35:29Z</time>
      </trkpt>
      <trkpt lat="42.98593" lon="1.14007">
        <ele>411.4</ele>
        <time>2024-10-06T10:35:30Z</time>
      </trkpt>
      <trkpt lat="42.98599" lon="1.14002">
        <ele>411.4</ele>
        <time>2024-10-06T10:35:34Z</time>
      </trkpt>
      <trkpt lat="42.98611" lon="1.14005">
        <ele>411.4</ele>
        <time>2024-10-06T10:35:38Z</time>
      </trkpt>
      <trkpt lat="42.98625" lon="1.14005">
        <ele>411.4</ele>
        <time>2024-10-06T10:35:42Z</time>
      </trkpt>
      <trkpt lat="42.98634" lon="1.14003">
        <ele>411.4</ele>
        <time>2024-10-06T10:35:44Z</time>
      </trkpt>
      <trkpt lat="42.98639" lon="1.14003">
        <ele>411.4</ele>
        <time>2024-10-06T10:35:45Z</time>
      </trkpt>
      <trkpt lat="42.98648" lon="1.14002">
        <ele>411.4</ele>
        <time>2024-10-06T10:35:47Z</time>
      </trkpt>
      <trkpt lat="42.98653" lon="1.14002">
        <ele>411.4</ele>
        <time>2024-10-06T10:35:48Z</time>
      </trkpt>
      <trkpt lat="42.98673" lon="1.13999">
        <ele>411.4</ele>
        <time>2024-10-06T10:35:52Z</time>
      </trkpt>
      <trkpt lat="42.98678" lon="1.13999">
        <ele>411.4</ele>
        <time>2024-10-06T10:35:53Z</time>
      </trkpt>
      <trkpt lat="42.98688" lon="1.13997">
        <ele>411.4</ele>
        <time>2024-10-06T10:35:55Z</time>
      </trkpt>
      <trkpt lat="42.98694" lon="1.13989">
        <ele>411.4</ele>
        <time>2024-10-06T10:35:57Z</time>
      </trkpt>
      <trkpt lat="42.98699" lon="1.13981">
        <ele>411.4</ele>
        <time>2024-10-06T10:36:01Z</time>
      </trkpt>
      <trkpt lat="42.98704" lon="1.13969">
        <ele>411.4</ele>
        <time>2024-10-06T10:36:05Z</time>
      </trkpt>
      <trkpt lat="42.98713" lon="1.13948">
        <ele>411.4</ele>
        <time>2024-10-06T10:36:11Z</time>
      </trkpt>
      <trkpt lat="42.98716" lon="1.13936">
        <ele>411.4</ele>
        <time>2024-10-06T10:36:15Z</time>
      </trkpt>
      <trkpt lat="42.98724" lon="1.1393">
        <ele>411.4</ele>
        <time>2024-10-06T10:36:19Z</time>
      </trkpt>
      <trkpt lat="42.98728" lon="1.13928">
        <ele>411.4</ele>
        <time>2024-10-06T10:36:21Z</time>
      </trkpt>
      <trkpt lat="42.9873" lon="1.13927">
        <ele>411.4</ele>
        <time>2024-10-06T10:36:24Z</time>
      </trkpt>
    </trkseg>
  </trk>
</gpx>